<?xml version="1.0" encoding="UTF-8"?><gpx version="1.1" creator="Exported from Strava via extension e-ivanov.ru"  xsi:schemaLocation="http://www.topografix.com/GPX/1/1 http://www.topografix.com/GPX/1/1/gpx.xsd http://www.garmin.com/xmlschemas/GpxExtensions/v3 http://www.garmin.com/xmlschemas/GpxExtensionsv3.xsd http://www.garmin.com/xmlschemas/TrackPointExtension/v1 http://www.garmin.com/xmlschemas/TrackPointExtensionv1.xsd"  xmlns="http://www.topografix.com/GPX/1/1"  xmlns:gpxtpx="http://www.garmin.com/xmlschemas/TrackPointExtension/v1"  xmlns:gpxx="http://www.garmin.com/xmlschemas/GpxExtensions/v3" xmlns:xsi="http://www.w3.org/2001/XMLSchema-instance"><metadata><link href="http://e-ivanov.ru/projects/strava-export-gpx/"><text>Strava gpx export</text></link><time>2022-03-27T11:25:31.671Z</time></metadata><trk><name>RR 22/04 - Grote Brogel | Fietsrit | Strava</name><trkseg><trkpt lon="5.742217" lat="51.14497"><ele>30.4</ele><time>2022-03-27T06:59:00.000Z</time></trkpt><trkpt lon="5.742239" lat="51.14497"><ele>30.4</ele><time>2022-03-27T06:59:01.000Z</time></trkpt><trkpt lon="5.742267" lat="51.144966"><ele>30.4</ele><time>2022-03-27T06:59:02.000Z</time></trkpt><trkpt lon="5.742299" lat="51.14497"><ele>30.4</ele><time>2022-03-27T06:59:03.000Z</time></trkpt><trkpt lon="5.742335" lat="51.144974"><ele>30.4</ele><time>2022-03-27T06:59:04.000Z</time></trkpt><trkpt lon="5.742373" lat="51.144977"><ele>30.4</ele><time>2022-03-27T06:59:05.000Z</time></trkpt><trkpt lon="5.742412" lat="51.144985"><ele>30.4</ele><time>2022-03-27T06:59:06.000Z</time></trkpt><trkpt lon="5.742453" lat="51.144992"><ele>30.4</ele><time>2022-03-27T06:59:07.000Z</time></trkpt><trkpt lon="5.742487" lat="51.145004"><ele>30.4</ele><time>2022-03-27T06:59:08.000Z</time></trkpt><trkpt lon="5.742512" lat="51.145022"><ele>30.4</ele><time>2022-03-27T06:59:09.000Z</time></trkpt><trkpt lon="5.742521" lat="51.145041"><ele>30.4</ele><time>2022-03-27T06:59:10.000Z</time></trkpt><trkpt lon="5.742523" lat="51.145064"><ele>30.4</ele><time>2022-03-27T06:59:11.000Z</time></trkpt><trkpt lon="5.742519" lat="51.145091"><ele>30.4</ele><time>2022-03-27T06:59:12.000Z</time></trkpt><trkpt lon="5.742512" lat="51.145121"><ele>30.4</ele><time>2022-03-27T06:59:13.000Z</time></trkpt><trkpt lon="5.742499" lat="51.145151"><ele>30.4</ele><time>2022-03-27T06:59:14.000Z</time></trkpt><trkpt lon="5.742476" lat="51.145186"><ele>30.4</ele><time>2022-03-27T06:59:15.000Z</time></trkpt><trkpt lon="5.74244" lat="51.145217"><ele>30.4</ele><time>2022-03-27T06:59:16.000Z</time></trkpt><trkpt lon="5.7424" lat="51.145246"><ele>30.6</ele><time>2022-03-27T06:59:17.000Z</time></trkpt><trkpt lon="5.742356" lat="51.145277"><ele>30.6</ele><time>2022-03-27T06:59:18.000Z</time></trkpt><trkpt lon="5.742315" lat="51.145308"><ele>30.6</ele><time>2022-03-27T06:59:19.000Z</time></trkpt><trkpt lon="5.742274" lat="51.145339"><ele>30.6</ele><time>2022-03-27T06:59:20.000Z</time></trkpt><trkpt lon="5.742234" lat="51.145365"><ele>30.6</ele><time>2022-03-27T06:59:21.000Z</time></trkpt><trkpt lon="5.742197" lat="51.145392"><ele>30.6</ele><time>2022-03-27T06:59:22.000Z</time></trkpt><trkpt lon="5.74217" lat="51.145415"><ele>30.8</ele><time>2022-03-27T06:59:23.000Z</time></trkpt><trkpt lon="5.74215" lat="51.145442"><ele>30.8</ele><time>2022-03-27T06:59:24.000Z</time></trkpt><trkpt lon="5.742137" lat="51.145465"><ele>30.8</ele><time>2022-03-27T06:59:25.000Z</time></trkpt><trkpt lon="5.742132" lat="51.145484"><ele>30.8</ele><time>2022-03-27T06:59:26.000Z</time></trkpt><trkpt lon="5.742138" lat="51.145507"><ele>30.8</ele><time>2022-03-27T06:59:27.000Z</time></trkpt><trkpt lon="5.742145" lat="51.145529"><ele>30.6</ele><time>2022-03-27T06:59:28.000Z</time></trkpt><trkpt lon="5.742137" lat="51.145556"><ele>30.6</ele><time>2022-03-27T06:59:29.000Z</time></trkpt><trkpt lon="5.742123" lat="51.145586"><ele>30.6</ele><time>2022-03-27T06:59:30.000Z</time></trkpt><trkpt lon="5.742103" lat="51.145614"><ele>30.6</ele><time>2022-03-27T06:59:31.000Z</time></trkpt><trkpt lon="5.742073" lat="51.145629"><ele>30.6</ele><time>2022-03-27T06:59:32.000Z</time></trkpt><trkpt lon="5.742033" lat="51.145648"><ele>30.6</ele><time>2022-03-27T06:59:33.000Z</time></trkpt><trkpt lon="5.741995" lat="51.145667"><ele>30.6</ele><time>2022-03-27T06:59:34.000Z</time></trkpt><trkpt lon="5.74196" lat="51.14569"><ele>30.6</ele><time>2022-03-27T06:59:35.000Z</time></trkpt><trkpt lon="5.741935" lat="51.14572"><ele>30.6</ele><time>2022-03-27T06:59:36.000Z</time></trkpt><trkpt lon="5.741917" lat="51.145765"><ele>30.6</ele><time>2022-03-27T06:59:37.000Z</time></trkpt><trkpt lon="5.741906" lat="51.14581"><ele>30.4</ele><time>2022-03-27T06:59:38.000Z</time></trkpt><trkpt lon="5.741897" lat="51.145855"><ele>30.4</ele><time>2022-03-27T06:59:39.000Z</time></trkpt><trkpt lon="5.7419" lat="51.145906"><ele>30.4</ele><time>2022-03-27T06:59:40.000Z</time></trkpt><trkpt lon="5.741902" lat="51.145955"><ele>30.4</ele><time>2022-03-27T06:59:41.000Z</time></trkpt><trkpt lon="5.741903" lat="51.146009"><ele>30.4</ele><time>2022-03-27T06:59:42.000Z</time></trkpt><trkpt lon="5.741908" lat="51.146058"><ele>30.4</ele><time>2022-03-27T06:59:43.000Z</time></trkpt><trkpt lon="5.741909" lat="51.146111"><ele>30.4</ele><time>2022-03-27T06:59:44.000Z</time></trkpt><trkpt lon="5.741907" lat="51.146162"><ele>30.4</ele><time>2022-03-27T06:59:45.000Z</time></trkpt><trkpt lon="5.741908" lat="51.146214"><ele>30.4</ele><time>2022-03-27T06:59:46.000Z</time></trkpt><trkpt lon="5.741909" lat="51.146268"><ele>30.4</ele><time>2022-03-27T06:59:47.000Z</time></trkpt><trkpt lon="5.741907" lat="51.146325"><ele>30.4</ele><time>2022-03-27T06:59:48.000Z</time></trkpt><trkpt lon="5.741907" lat="51.146383"><ele>30.4</ele><time>2022-03-27T06:59:49.000Z</time></trkpt><trkpt lon="5.741908" lat="51.14644"><ele>30.4</ele><time>2022-03-27T06:59:50.000Z</time></trkpt><trkpt lon="5.74191" lat="51.146492"><ele>30.4</ele><time>2022-03-27T06:59:51.000Z</time></trkpt><trkpt lon="5.741913" lat="51.14655"><ele>30.4</ele><time>2022-03-27T06:59:52.000Z</time></trkpt><trkpt lon="5.741915" lat="51.146604"><ele>30.6</ele><time>2022-03-27T06:59:53.000Z</time></trkpt><trkpt lon="5.741915" lat="51.146657"><ele>30.6</ele><time>2022-03-27T06:59:54.000Z</time></trkpt><trkpt lon="5.741917" lat="51.146705"><ele>30.6</ele><time>2022-03-27T06:59:55.000Z</time></trkpt><trkpt lon="5.741918" lat="51.146759"><ele>30.6</ele><time>2022-03-27T06:59:56.000Z</time></trkpt><trkpt lon="5.741919" lat="51.14681"><ele>30.6</ele><time>2022-03-27T06:59:57.000Z</time></trkpt><trkpt lon="5.741919" lat="51.146863"><ele>30.6</ele><time>2022-03-27T06:59:58.000Z</time></trkpt><trkpt lon="5.741922" lat="51.146916"><ele>30.6</ele><time>2022-03-27T06:59:59.000Z</time></trkpt><trkpt lon="5.741922" lat="51.146974"><ele>30.6</ele><time>2022-03-27T07:00:00.000Z</time></trkpt><trkpt lon="5.741925" lat="51.147027"><ele>30.6</ele><time>2022-03-27T07:00:01.000Z</time></trkpt><trkpt lon="5.741927" lat="51.147084"><ele>30.6</ele><time>2022-03-27T07:00:02.000Z</time></trkpt><trkpt lon="5.74193" lat="51.147142"><ele>30.8</ele><time>2022-03-27T07:00:03.000Z</time></trkpt><trkpt lon="5.741931" lat="51.147198"><ele>30.8</ele><time>2022-03-27T07:00:04.000Z</time></trkpt><trkpt lon="5.741933" lat="51.147252"><ele>30.6</ele><time>2022-03-27T07:00:05.000Z</time></trkpt><trkpt lon="5.741933" lat="51.147306"><ele>30.6</ele><time>2022-03-27T07:00:06.000Z</time></trkpt><trkpt lon="5.741933" lat="51.147359"><ele>30.6</ele><time>2022-03-27T07:00:07.000Z</time></trkpt><trkpt lon="5.741935" lat="51.147412"><ele>30.6</ele><time>2022-03-27T07:00:08.000Z</time></trkpt><trkpt lon="5.741937" lat="51.147466"><ele>30.8</ele><time>2022-03-27T07:00:09.000Z</time></trkpt><trkpt lon="5.741938" lat="51.147523"><ele>30.8</ele><time>2022-03-27T07:00:10.000Z</time></trkpt><trkpt lon="5.741941" lat="51.147577"><ele>30.8</ele><time>2022-03-27T07:00:11.000Z</time></trkpt><trkpt lon="5.741945" lat="51.147633"><ele>30.8</ele><time>2022-03-27T07:00:12.000Z</time></trkpt><trkpt lon="5.741947" lat="51.147687"><ele>30.8</ele><time>2022-03-27T07:00:13.000Z</time></trkpt><trkpt lon="5.741945" lat="51.147744"><ele>30.8</ele><time>2022-03-27T07:00:14.000Z</time></trkpt><trkpt lon="5.741943" lat="51.147802"><ele>30.8</ele><time>2022-03-27T07:00:15.000Z</time></trkpt><trkpt lon="5.741945" lat="51.147858"><ele>30.8</ele><time>2022-03-27T07:00:16.000Z</time></trkpt><trkpt lon="5.741948" lat="51.147912"><ele>30.8</ele><time>2022-03-27T07:00:17.000Z</time></trkpt><trkpt lon="5.741948" lat="51.147965"><ele>31</ele><time>2022-03-27T07:00:18.000Z</time></trkpt><trkpt lon="5.741948" lat="51.148022"><ele>31</ele><time>2022-03-27T07:00:19.000Z</time></trkpt><trkpt lon="5.741948" lat="51.14808"><ele>31</ele><time>2022-03-27T07:00:20.000Z</time></trkpt><trkpt lon="5.74195" lat="51.148137"><ele>31</ele><time>2022-03-27T07:00:21.000Z</time></trkpt><trkpt lon="5.741951" lat="51.14819"><ele>31</ele><time>2022-03-27T07:00:22.000Z</time></trkpt><trkpt lon="5.741953" lat="51.148244"><ele>31.2</ele><time>2022-03-27T07:00:23.000Z</time></trkpt><trkpt lon="5.741953" lat="51.148298"><ele>31.2</ele><time>2022-03-27T07:00:24.000Z</time></trkpt><trkpt lon="5.741953" lat="51.148348"><ele>31.2</ele><time>2022-03-27T07:00:25.000Z</time></trkpt><trkpt lon="5.741957" lat="51.148397"><ele>31.2</ele><time>2022-03-27T07:00:26.000Z</time></trkpt><trkpt lon="5.741961" lat="51.148446"><ele>31.2</ele><time>2022-03-27T07:00:27.000Z</time></trkpt><trkpt lon="5.741963" lat="51.148496"><ele>31.2</ele><time>2022-03-27T07:00:28.000Z</time></trkpt><trkpt lon="5.741971" lat="51.148542"><ele>31.4</ele><time>2022-03-27T07:00:29.000Z</time></trkpt><trkpt lon="5.741998" lat="51.148584"><ele>31.4</ele><time>2022-03-27T07:00:30.000Z</time></trkpt><trkpt lon="5.742046" lat="51.148615"><ele>31.2</ele><time>2022-03-27T07:00:31.000Z</time></trkpt><trkpt lon="5.742109" lat="51.148642"><ele>31.2</ele><time>2022-03-27T07:00:32.000Z</time></trkpt><trkpt lon="5.742174" lat="51.148665"><ele>31.2</ele><time>2022-03-27T07:00:33.000Z</time></trkpt><trkpt lon="5.742237" lat="51.148703"><ele>31.2</ele><time>2022-03-27T07:00:34.000Z</time></trkpt><trkpt lon="5.742295" lat="51.148748"><ele>31.2</ele><time>2022-03-27T07:00:35.000Z</time></trkpt><trkpt lon="5.742349" lat="51.148798"><ele>31.2</ele><time>2022-03-27T07:00:36.000Z</time></trkpt><trkpt lon="5.742401" lat="51.148854"><ele>31.2</ele><time>2022-03-27T07:00:37.000Z</time></trkpt><trkpt lon="5.742452" lat="51.148907"><ele>31.2</ele><time>2022-03-27T07:00:38.000Z</time></trkpt><trkpt lon="5.742501" lat="51.148958"><ele>31.2</ele><time>2022-03-27T07:00:39.000Z</time></trkpt><trkpt lon="5.742549" lat="51.149011"><ele>31.2</ele><time>2022-03-27T07:00:40.000Z</time></trkpt><trkpt lon="5.7426" lat="51.14906"><ele>31.2</ele><time>2022-03-27T07:00:41.000Z</time></trkpt><trkpt lon="5.742657" lat="51.14911"><ele>31.2</ele><time>2022-03-27T07:00:42.000Z</time></trkpt><trkpt lon="5.742715" lat="51.14916"><ele>31</ele><time>2022-03-27T07:00:43.000Z</time></trkpt><trkpt lon="5.742777" lat="51.149209"><ele>31</ele><time>2022-03-27T07:00:44.000Z</time></trkpt><trkpt lon="5.742837" lat="51.149259"><ele>31.2</ele><time>2022-03-27T07:00:45.000Z</time></trkpt><trkpt lon="5.742903" lat="51.149308"><ele>31</ele><time>2022-03-27T07:00:46.000Z</time></trkpt><trkpt lon="5.74297" lat="51.149354"><ele>31</ele><time>2022-03-27T07:00:47.000Z</time></trkpt><trkpt lon="5.743035" lat="51.149404"><ele>31</ele><time>2022-03-27T07:00:48.000Z</time></trkpt><trkpt lon="5.743103" lat="51.149454"><ele>31</ele><time>2022-03-27T07:00:49.000Z</time></trkpt><trkpt lon="5.74317" lat="51.149499"><ele>31</ele><time>2022-03-27T07:00:50.000Z</time></trkpt><trkpt lon="5.743243" lat="51.149542"><ele>31</ele><time>2022-03-27T07:00:51.000Z</time></trkpt><trkpt lon="5.743311" lat="51.149587"><ele>31</ele><time>2022-03-27T07:00:52.000Z</time></trkpt><trkpt lon="5.743382" lat="51.149633"><ele>30.8</ele><time>2022-03-27T07:00:53.000Z</time></trkpt><trkpt lon="5.743452" lat="51.149683"><ele>30.6</ele><time>2022-03-27T07:00:54.000Z</time></trkpt><trkpt lon="5.743521" lat="51.149728"><ele>30.6</ele><time>2022-03-27T07:00:55.000Z</time></trkpt><trkpt lon="5.743591" lat="51.149774"><ele>30.6</ele><time>2022-03-27T07:00:56.000Z</time></trkpt><trkpt lon="5.743661" lat="51.14982"><ele>30.8</ele><time>2022-03-27T07:00:57.000Z</time></trkpt><trkpt lon="5.743731" lat="51.149865"><ele>30.8</ele><time>2022-03-27T07:00:58.000Z</time></trkpt><trkpt lon="5.743804" lat="51.149908"><ele>30.8</ele><time>2022-03-27T07:00:59.000Z</time></trkpt><trkpt lon="5.743877" lat="51.14995"><ele>30.8</ele><time>2022-03-27T07:01:00.000Z</time></trkpt><trkpt lon="5.743949" lat="51.149996"><ele>30.8</ele><time>2022-03-27T07:01:01.000Z</time></trkpt><trkpt lon="5.744017" lat="51.15004"><ele>31</ele><time>2022-03-27T07:01:02.000Z</time></trkpt><trkpt lon="5.744087" lat="51.150083"><ele>31</ele><time>2022-03-27T07:01:03.000Z</time></trkpt><trkpt lon="5.744153" lat="51.150125"><ele>30.8</ele><time>2022-03-27T07:01:04.000Z</time></trkpt><trkpt lon="5.744221" lat="51.15017"><ele>31</ele><time>2022-03-27T07:01:05.000Z</time></trkpt><trkpt lon="5.744291" lat="51.150213"><ele>31</ele><time>2022-03-27T07:01:06.000Z</time></trkpt><trkpt lon="5.74436" lat="51.150255"><ele>30.8</ele><time>2022-03-27T07:01:07.000Z</time></trkpt><trkpt lon="5.744425" lat="51.150296"><ele>30.8</ele><time>2022-03-27T07:01:08.000Z</time></trkpt><trkpt lon="5.744493" lat="51.150342"><ele>30.8</ele><time>2022-03-27T07:01:09.000Z</time></trkpt><trkpt lon="5.74456" lat="51.150385"><ele>30.8</ele><time>2022-03-27T07:01:10.000Z</time></trkpt><trkpt lon="5.744631" lat="51.15043"><ele>30.8</ele><time>2022-03-27T07:01:11.000Z</time></trkpt><trkpt lon="5.744709" lat="51.150472"><ele>30.8</ele><time>2022-03-27T07:01:12.000Z</time></trkpt><trkpt lon="5.744782" lat="51.150515"><ele>30.8</ele><time>2022-03-27T07:01:13.000Z</time></trkpt><trkpt lon="5.744854" lat="51.15056"><ele>30.8</ele><time>2022-03-27T07:01:14.000Z</time></trkpt><trkpt lon="5.744928" lat="51.150606"><ele>30.8</ele><time>2022-03-27T07:01:15.000Z</time></trkpt><trkpt lon="5.745002" lat="51.150652"><ele>30.8</ele><time>2022-03-27T07:01:16.000Z</time></trkpt><trkpt lon="5.745075" lat="51.150697"><ele>30.8</ele><time>2022-03-27T07:01:17.000Z</time></trkpt><trkpt lon="5.745144" lat="51.150741"><ele>30.8</ele><time>2022-03-27T07:01:18.000Z</time></trkpt><trkpt lon="5.745215" lat="51.150789"><ele>30.8</ele><time>2022-03-27T07:01:19.000Z</time></trkpt><trkpt lon="5.745287" lat="51.150835"><ele>30.8</ele><time>2022-03-27T07:01:20.000Z</time></trkpt><trkpt lon="5.745358" lat="51.150877"><ele>30.8</ele><time>2022-03-27T07:01:21.000Z</time></trkpt><trkpt lon="5.745428" lat="51.150922"><ele>30.8</ele><time>2022-03-27T07:01:22.000Z</time></trkpt><trkpt lon="5.745497" lat="51.150965"><ele>30.8</ele><time>2022-03-27T07:01:23.000Z</time></trkpt><trkpt lon="5.745568" lat="51.15101"><ele>30.8</ele><time>2022-03-27T07:01:24.000Z</time></trkpt><trkpt lon="5.745645" lat="51.151052"><ele>30.6</ele><time>2022-03-27T07:01:25.000Z</time></trkpt><trkpt lon="5.745722" lat="51.151094"><ele>30.6</ele><time>2022-03-27T07:01:26.000Z</time></trkpt><trkpt lon="5.745798" lat="51.151133"><ele>30.6</ele><time>2022-03-27T07:01:27.000Z</time></trkpt><trkpt lon="5.745873" lat="51.151171"><ele>30.6</ele><time>2022-03-27T07:01:28.000Z</time></trkpt><trkpt lon="5.745947" lat="51.151213"><ele>30.6</ele><time>2022-03-27T07:01:29.000Z</time></trkpt><trkpt lon="5.746021" lat="51.151251"><ele>30.8</ele><time>2022-03-27T07:01:30.000Z</time></trkpt><trkpt lon="5.746097" lat="51.151289"><ele>30.8</ele><time>2022-03-27T07:01:31.000Z</time></trkpt><trkpt lon="5.746172" lat="51.151327"><ele>30.8</ele><time>2022-03-27T07:01:32.000Z</time></trkpt><trkpt lon="5.74625" lat="51.151366"><ele>30.8</ele><time>2022-03-27T07:01:33.000Z</time></trkpt><trkpt lon="5.746326" lat="51.151407"><ele>30.8</ele><time>2022-03-27T07:01:34.000Z</time></trkpt><trkpt lon="5.746399" lat="51.151445"><ele>30.8</ele><time>2022-03-27T07:01:35.000Z</time></trkpt><trkpt lon="5.746474" lat="51.15148"><ele>30.8</ele><time>2022-03-27T07:01:36.000Z</time></trkpt><trkpt lon="5.746547" lat="51.151518"><ele>30.8</ele><time>2022-03-27T07:01:37.000Z</time></trkpt><trkpt lon="5.74662" lat="51.151556"><ele>31</ele><time>2022-03-27T07:01:38.000Z</time></trkpt><trkpt lon="5.746692" lat="51.151594"><ele>31</ele><time>2022-03-27T07:01:39.000Z</time></trkpt><trkpt lon="5.746766" lat="51.151631"><ele>31.2</ele><time>2022-03-27T07:01:40.000Z</time></trkpt><trkpt lon="5.746843" lat="51.15167"><ele>31.2</ele><time>2022-03-27T07:01:41.000Z</time></trkpt><trkpt lon="5.746917" lat="51.151708"><ele>31.2</ele><time>2022-03-27T07:01:42.000Z</time></trkpt><trkpt lon="5.746992" lat="51.151743"><ele>31.2</ele><time>2022-03-27T07:01:43.000Z</time></trkpt><trkpt lon="5.747068" lat="51.151784"><ele>31.2</ele><time>2022-03-27T07:01:44.000Z</time></trkpt><trkpt lon="5.747142" lat="51.151822"><ele>31.2</ele><time>2022-03-27T07:01:45.000Z</time></trkpt><trkpt lon="5.747218" lat="51.151865"><ele>31.2</ele><time>2022-03-27T07:01:46.000Z</time></trkpt><trkpt lon="5.747297" lat="51.151903"><ele>31.2</ele><time>2022-03-27T07:01:47.000Z</time></trkpt><trkpt lon="5.747377" lat="51.151941"><ele>31.2</ele><time>2022-03-27T07:01:48.000Z</time></trkpt><trkpt lon="5.74746" lat="51.151983"><ele>31.2</ele><time>2022-03-27T07:01:49.000Z</time></trkpt><trkpt lon="5.747547" lat="51.152021"><ele>31.2</ele><time>2022-03-27T07:01:50.000Z</time></trkpt><trkpt lon="5.747633" lat="51.152059"><ele>31.2</ele><time>2022-03-27T07:01:51.000Z</time></trkpt><trkpt lon="5.747722" lat="51.152097"><ele>31.2</ele><time>2022-03-27T07:01:52.000Z</time></trkpt><trkpt lon="5.747808" lat="51.152132"><ele>31</ele><time>2022-03-27T07:01:53.000Z</time></trkpt><trkpt lon="5.747898" lat="51.152166"><ele>31.2</ele><time>2022-03-27T07:01:54.000Z</time></trkpt><trkpt lon="5.747987" lat="51.152201"><ele>31</ele><time>2022-03-27T07:01:55.000Z</time></trkpt><trkpt lon="5.748075" lat="51.152231"><ele>31</ele><time>2022-03-27T07:01:56.000Z</time></trkpt><trkpt lon="5.748165" lat="51.152266"><ele>30.8</ele><time>2022-03-27T07:01:57.000Z</time></trkpt><trkpt lon="5.748252" lat="51.152295"><ele>30.8</ele><time>2022-03-27T07:01:58.000Z</time></trkpt><trkpt lon="5.748344" lat="51.152327"><ele>30.8</ele><time>2022-03-27T07:01:59.000Z</time></trkpt><trkpt lon="5.748433" lat="51.152357"><ele>30.8</ele><time>2022-03-27T07:02:00.000Z</time></trkpt><trkpt lon="5.748525" lat="51.152384"><ele>30.6</ele><time>2022-03-27T07:02:01.000Z</time></trkpt><trkpt lon="5.748618" lat="51.152413"><ele>30.6</ele><time>2022-03-27T07:02:02.000Z</time></trkpt><trkpt lon="5.748717" lat="51.152442"><ele>30.4</ele><time>2022-03-27T07:02:03.000Z</time></trkpt><trkpt lon="5.74881" lat="51.152468"><ele>30.4</ele><time>2022-03-27T07:02:04.000Z</time></trkpt><trkpt lon="5.748902" lat="51.152499"><ele>30.2</ele><time>2022-03-27T07:02:05.000Z</time></trkpt><trkpt lon="5.748995" lat="51.152529"><ele>30</ele><time>2022-03-27T07:02:06.000Z</time></trkpt><trkpt lon="5.749086" lat="51.152564"><ele>30</ele><time>2022-03-27T07:02:07.000Z</time></trkpt><trkpt lon="5.749175" lat="51.152597"><ele>29.8</ele><time>2022-03-27T07:02:08.000Z</time></trkpt><trkpt lon="5.749265" lat="51.152632"><ele>29.8</ele><time>2022-03-27T07:02:09.000Z</time></trkpt><trkpt lon="5.749349" lat="51.152669"><ele>29.8</ele><time>2022-03-27T07:02:10.000Z</time></trkpt><trkpt lon="5.749433" lat="51.152711"><ele>29.6</ele><time>2022-03-27T07:02:11.000Z</time></trkpt><trkpt lon="5.749517" lat="51.152746"><ele>29.6</ele><time>2022-03-27T07:02:12.000Z</time></trkpt><trkpt lon="5.749607" lat="51.152781"><ele>29.4</ele><time>2022-03-27T07:02:13.000Z</time></trkpt><trkpt lon="5.749709" lat="51.152801"><ele>29.4</ele><time>2022-03-27T07:02:14.000Z</time></trkpt><trkpt lon="5.749813" lat="51.152809"><ele>29.2</ele><time>2022-03-27T07:02:15.000Z</time></trkpt><trkpt lon="5.749921" lat="51.152802"><ele>29.2</ele><time>2022-03-27T07:02:16.000Z</time></trkpt><trkpt lon="5.750028" lat="51.152791"><ele>29.2</ele><time>2022-03-27T07:02:17.000Z</time></trkpt><trkpt lon="5.750125" lat="51.152776"><ele>29.2</ele><time>2022-03-27T07:02:18.000Z</time></trkpt><trkpt lon="5.750227" lat="51.152753"><ele>29.2</ele><time>2022-03-27T07:02:19.000Z</time></trkpt><trkpt lon="5.750324" lat="51.15273"><ele>29.2</ele><time>2022-03-27T07:02:20.000Z</time></trkpt><trkpt lon="5.750422" lat="51.152704"><ele>29.2</ele><time>2022-03-27T07:02:21.000Z</time></trkpt><trkpt lon="5.750519" lat="51.152677"><ele>29.2</ele><time>2022-03-27T07:02:22.000Z</time></trkpt><trkpt lon="5.750615" lat="51.152647"><ele>29.2</ele><time>2022-03-27T07:02:23.000Z</time></trkpt><trkpt lon="5.750709" lat="51.152616"><ele>29.2</ele><time>2022-03-27T07:02:24.000Z</time></trkpt><trkpt lon="5.750803" lat="51.152586"><ele>29.2</ele><time>2022-03-27T07:02:25.000Z</time></trkpt><trkpt lon="5.750896" lat="51.152552"><ele>29.2</ele><time>2022-03-27T07:02:26.000Z</time></trkpt><trkpt lon="5.750992" lat="51.152521"><ele>29.2</ele><time>2022-03-27T07:02:27.000Z</time></trkpt><trkpt lon="5.751086" lat="51.15249"><ele>29.2</ele><time>2022-03-27T07:02:28.000Z</time></trkpt><trkpt lon="5.751183" lat="51.15246"><ele>29.2</ele><time>2022-03-27T07:02:29.000Z</time></trkpt><trkpt lon="5.751276" lat="51.152429"><ele>29.2</ele><time>2022-03-27T07:02:30.000Z</time></trkpt><trkpt lon="5.751372" lat="51.152399"><ele>29</ele><time>2022-03-27T07:02:31.000Z</time></trkpt><trkpt lon="5.751466" lat="51.152368"><ele>29</ele><time>2022-03-27T07:02:32.000Z</time></trkpt><trkpt lon="5.751558" lat="51.152338"><ele>29</ele><time>2022-03-27T07:02:33.000Z</time></trkpt><trkpt lon="5.751657" lat="51.152307"><ele>29</ele><time>2022-03-27T07:02:34.000Z</time></trkpt><trkpt lon="5.751753" lat="51.152276"><ele>29</ele><time>2022-03-27T07:02:35.000Z</time></trkpt><trkpt lon="5.75185" lat="51.15225"><ele>29.2</ele><time>2022-03-27T07:02:36.000Z</time></trkpt><trkpt lon="5.751952" lat="51.15223"><ele>29.2</ele><time>2022-03-27T07:02:37.000Z</time></trkpt><trkpt lon="5.752057" lat="51.152215"><ele>29</ele><time>2022-03-27T07:02:38.000Z</time></trkpt><trkpt lon="5.752166" lat="51.1522"><ele>29</ele><time>2022-03-27T07:02:39.000Z</time></trkpt><trkpt lon="5.752275" lat="51.152192"><ele>29</ele><time>2022-03-27T07:02:40.000Z</time></trkpt><trkpt lon="5.752386" lat="51.152184"><ele>28.8</ele><time>2022-03-27T07:02:41.000Z</time></trkpt><trkpt lon="5.752494" lat="51.15218"><ele>28.8</ele><time>2022-03-27T07:02:42.000Z</time></trkpt><trkpt lon="5.752601" lat="51.152176"><ele>28.6</ele><time>2022-03-27T07:02:43.000Z</time></trkpt><trkpt lon="5.752708" lat="51.152176"><ele>28.6</ele><time>2022-03-27T07:02:44.000Z</time></trkpt><trkpt lon="5.75281" lat="51.152183"><ele>28.6</ele><time>2022-03-27T07:02:45.000Z</time></trkpt><trkpt lon="5.752916" lat="51.152191"><ele>28.8</ele><time>2022-03-27T07:02:46.000Z</time></trkpt><trkpt lon="5.753019" lat="51.152206"><ele>28.8</ele><time>2022-03-27T07:02:47.000Z</time></trkpt><trkpt lon="5.753119" lat="51.152224"><ele>28.8</ele><time>2022-03-27T07:02:48.000Z</time></trkpt><trkpt lon="5.753217" lat="51.152251"><ele>28.8</ele><time>2022-03-27T07:02:49.000Z</time></trkpt><trkpt lon="5.753305" lat="51.152285"><ele>28.8</ele><time>2022-03-27T07:02:50.000Z</time></trkpt><trkpt lon="5.753397" lat="51.152319"><ele>28.8</ele><time>2022-03-27T07:02:51.000Z</time></trkpt><trkpt lon="5.753486" lat="51.152353"><ele>29</ele><time>2022-03-27T07:02:52.000Z</time></trkpt><trkpt lon="5.75357" lat="51.152391"><ele>28.8</ele><time>2022-03-27T07:02:53.000Z</time></trkpt><trkpt lon="5.753655" lat="51.152426"><ele>28.8</ele><time>2022-03-27T07:02:54.000Z</time></trkpt><trkpt lon="5.753739" lat="51.152464"><ele>28.8</ele><time>2022-03-27T07:02:55.000Z</time></trkpt><trkpt lon="5.753826" lat="51.152499"><ele>28.8</ele><time>2022-03-27T07:02:56.000Z</time></trkpt><trkpt lon="5.753916" lat="51.152529"><ele>28.8</ele><time>2022-03-27T07:02:57.000Z</time></trkpt><trkpt lon="5.75401" lat="51.152556"><ele>29</ele><time>2022-03-27T07:02:58.000Z</time></trkpt><trkpt lon="5.754104" lat="51.152579"><ele>29</ele><time>2022-03-27T07:02:59.000Z</time></trkpt><trkpt lon="5.754204" lat="51.152595"><ele>29</ele><time>2022-03-27T07:03:00.000Z</time></trkpt><trkpt lon="5.754303" lat="51.152606"><ele>29.2</ele><time>2022-03-27T07:03:01.000Z</time></trkpt><trkpt lon="5.754395" lat="51.152614"><ele>29.2</ele><time>2022-03-27T07:03:02.000Z</time></trkpt><trkpt lon="5.754495" lat="51.152618"><ele>29.4</ele><time>2022-03-27T07:03:03.000Z</time></trkpt><trkpt lon="5.754592" lat="51.152622"><ele>29.4</ele><time>2022-03-27T07:03:04.000Z</time></trkpt><trkpt lon="5.754686" lat="51.152622"><ele>29.4</ele><time>2022-03-27T07:03:05.000Z</time></trkpt><trkpt lon="5.754779" lat="51.152622"><ele>29.6</ele><time>2022-03-27T07:03:06.000Z</time></trkpt><trkpt lon="5.754871" lat="51.152622"><ele>29.6</ele><time>2022-03-27T07:03:07.000Z</time></trkpt><trkpt lon="5.754959" lat="51.152619"><ele>29.6</ele><time>2022-03-27T07:03:08.000Z</time></trkpt><trkpt lon="5.755057" lat="51.152618"><ele>29.6</ele><time>2022-03-27T07:03:09.000Z</time></trkpt><trkpt lon="5.755147" lat="51.152618"><ele>29.6</ele><time>2022-03-27T07:03:10.000Z</time></trkpt><trkpt lon="5.755231" lat="51.152633"><ele>29.6</ele><time>2022-03-27T07:03:11.000Z</time></trkpt><trkpt lon="5.7553" lat="51.15267"><ele>29.6</ele><time>2022-03-27T07:03:12.000Z</time></trkpt><trkpt lon="5.755329" lat="51.152722"><ele>29.6</ele><time>2022-03-27T07:03:13.000Z</time></trkpt><trkpt lon="5.755344" lat="51.152786"><ele>29.6</ele><time>2022-03-27T07:03:14.000Z</time></trkpt><trkpt lon="5.755356" lat="51.152852"><ele>29.4</ele><time>2022-03-27T07:03:15.000Z</time></trkpt><trkpt lon="5.755366" lat="51.152917"><ele>29.4</ele><time>2022-03-27T07:03:16.000Z</time></trkpt><trkpt lon="5.755376" lat="51.15298"><ele>29.2</ele><time>2022-03-27T07:03:17.000Z</time></trkpt><trkpt lon="5.755389" lat="51.153042"><ele>29.2</ele><time>2022-03-27T07:03:18.000Z</time></trkpt><trkpt lon="5.755403" lat="51.153107"><ele>29</ele><time>2022-03-27T07:03:19.000Z</time></trkpt><trkpt lon="5.755421" lat="51.153169"><ele>29</ele><time>2022-03-27T07:03:20.000Z</time></trkpt><trkpt lon="5.755453" lat="51.153222"><ele>28.8</ele><time>2022-03-27T07:03:21.000Z</time></trkpt><trkpt lon="5.755496" lat="51.153264"><ele>28.8</ele><time>2022-03-27T07:03:22.000Z</time></trkpt><trkpt lon="5.755551" lat="51.153295"><ele>28.8</ele><time>2022-03-27T07:03:23.000Z</time></trkpt><trkpt lon="5.755625" lat="51.153323"><ele>28.8</ele><time>2022-03-27T07:03:24.000Z</time></trkpt><trkpt lon="5.755708" lat="51.153342"><ele>28.8</ele><time>2022-03-27T07:03:25.000Z</time></trkpt><trkpt lon="5.755811" lat="51.153361"><ele>29</ele><time>2022-03-27T07:03:26.000Z</time></trkpt><trkpt lon="5.755917" lat="51.153384"><ele>29</ele><time>2022-03-27T07:03:27.000Z</time></trkpt><trkpt lon="5.756015" lat="51.153399"><ele>29</ele><time>2022-03-27T07:03:28.000Z</time></trkpt><trkpt lon="5.756116" lat="51.153415"><ele>29</ele><time>2022-03-27T07:03:29.000Z</time></trkpt><trkpt lon="5.756215" lat="51.153434"><ele>29</ele><time>2022-03-27T07:03:30.000Z</time></trkpt><trkpt lon="5.756319" lat="51.153446"><ele>28.8</ele><time>2022-03-27T07:03:31.000Z</time></trkpt><trkpt lon="5.75642" lat="51.153464"><ele>28.8</ele><time>2022-03-27T07:03:32.000Z</time></trkpt><trkpt lon="5.756522" lat="51.153487"><ele>28.8</ele><time>2022-03-27T07:03:33.000Z</time></trkpt><trkpt lon="5.756615" lat="51.153514"><ele>28.8</ele><time>2022-03-27T07:03:34.000Z</time></trkpt><trkpt lon="5.756699" lat="51.153544"><ele>28.8</ele><time>2022-03-27T07:03:35.000Z</time></trkpt><trkpt lon="5.756778" lat="51.153578"><ele>28.8</ele><time>2022-03-27T07:03:36.000Z</time></trkpt><trkpt lon="5.756847" lat="51.15362"><ele>28.6</ele><time>2022-03-27T07:03:37.000Z</time></trkpt><trkpt lon="5.756913" lat="51.153665"><ele>28.6</ele><time>2022-03-27T07:03:38.000Z</time></trkpt><trkpt lon="5.756981" lat="51.153714"><ele>28.6</ele><time>2022-03-27T07:03:39.000Z</time></trkpt><trkpt lon="5.757046" lat="51.153764"><ele>28.8</ele><time>2022-03-27T07:03:40.000Z</time></trkpt><trkpt lon="5.757113" lat="51.153813"><ele>28.8</ele><time>2022-03-27T07:03:41.000Z</time></trkpt><trkpt lon="5.75718" lat="51.153863"><ele>29</ele><time>2022-03-27T07:03:42.000Z</time></trkpt><trkpt lon="5.757246" lat="51.153913"><ele>29</ele><time>2022-03-27T07:03:43.000Z</time></trkpt><trkpt lon="5.757308" lat="51.153962"><ele>29.2</ele><time>2022-03-27T07:03:44.000Z</time></trkpt><trkpt lon="5.757373" lat="51.154012"><ele>29.2</ele><time>2022-03-27T07:03:45.000Z</time></trkpt><trkpt lon="5.757431" lat="51.154065"><ele>29.2</ele><time>2022-03-27T07:03:46.000Z</time></trkpt><trkpt lon="5.757476" lat="51.154121"><ele>29.4</ele><time>2022-03-27T07:03:47.000Z</time></trkpt><trkpt lon="5.757507" lat="51.15418"><ele>29.4</ele><time>2022-03-27T07:03:48.000Z</time></trkpt><trkpt lon="5.757516" lat="51.154239"><ele>29.4</ele><time>2022-03-27T07:03:49.000Z</time></trkpt><trkpt lon="5.757506" lat="51.154297"><ele>29.2</ele><time>2022-03-27T07:03:50.000Z</time></trkpt><trkpt lon="5.757486" lat="51.154359"><ele>29.2</ele><time>2022-03-27T07:03:51.000Z</time></trkpt><trkpt lon="5.757466" lat="51.154424"><ele>29.2</ele><time>2022-03-27T07:03:52.000Z</time></trkpt><trkpt lon="5.757446" lat="51.154488"><ele>29</ele><time>2022-03-27T07:03:53.000Z</time></trkpt><trkpt lon="5.757423" lat="51.154553"><ele>29</ele><time>2022-03-27T07:03:54.000Z</time></trkpt><trkpt lon="5.757399" lat="51.154615"><ele>28.8</ele><time>2022-03-27T07:03:55.000Z</time></trkpt><trkpt lon="5.757379" lat="51.154679"><ele>28.6</ele><time>2022-03-27T07:03:56.000Z</time></trkpt><trkpt lon="5.75736" lat="51.154739"><ele>28.6</ele><time>2022-03-27T07:03:57.000Z</time></trkpt><trkpt lon="5.757338" lat="51.154803"><ele>28.8</ele><time>2022-03-27T07:03:58.000Z</time></trkpt><trkpt lon="5.757316" lat="51.154866"><ele>28.6</ele><time>2022-03-27T07:03:59.000Z</time></trkpt><trkpt lon="5.757294" lat="51.154927"><ele>28.8</ele><time>2022-03-27T07:04:00.000Z</time></trkpt><trkpt lon="5.757274" lat="51.154989"><ele>28.8</ele><time>2022-03-27T07:04:01.000Z</time></trkpt><trkpt lon="5.757253" lat="51.155047"><ele>28.8</ele><time>2022-03-27T07:04:02.000Z</time></trkpt><trkpt lon="5.757231" lat="51.155113"><ele>28.6</ele><time>2022-03-27T07:04:03.000Z</time></trkpt><trkpt lon="5.757209" lat="51.155175"><ele>28.8</ele><time>2022-03-27T07:04:04.000Z</time></trkpt><trkpt lon="5.757185" lat="51.155236"><ele>28.8</ele><time>2022-03-27T07:04:05.000Z</time></trkpt><trkpt lon="5.757162" lat="51.155297"><ele>29</ele><time>2022-03-27T07:04:06.000Z</time></trkpt><trkpt lon="5.757141" lat="51.155354"><ele>29</ele><time>2022-03-27T07:04:07.000Z</time></trkpt><trkpt lon="5.757121" lat="51.155415"><ele>28.8</ele><time>2022-03-27T07:04:08.000Z</time></trkpt><trkpt lon="5.757103" lat="51.155475"><ele>28.8</ele><time>2022-03-27T07:04:09.000Z</time></trkpt><trkpt lon="5.757084" lat="51.155533"><ele>28.8</ele><time>2022-03-27T07:04:10.000Z</time></trkpt><trkpt lon="5.757065" lat="51.155594"><ele>28.8</ele><time>2022-03-27T07:04:11.000Z</time></trkpt><trkpt lon="5.757042" lat="51.155654"><ele>28.8</ele><time>2022-03-27T07:04:12.000Z</time></trkpt><trkpt lon="5.75702" lat="51.155717"><ele>28.8</ele><time>2022-03-27T07:04:13.000Z</time></trkpt><trkpt lon="5.756997" lat="51.155781"><ele>28.8</ele><time>2022-03-27T07:04:14.000Z</time></trkpt><trkpt lon="5.756973" lat="51.155842"><ele>29</ele><time>2022-03-27T07:04:15.000Z</time></trkpt><trkpt lon="5.756951" lat="51.155907"><ele>29</ele><time>2022-03-27T07:04:16.000Z</time></trkpt><trkpt lon="5.756929" lat="51.155969"><ele>29</ele><time>2022-03-27T07:04:17.000Z</time></trkpt><trkpt lon="5.756906" lat="51.156033"><ele>29.2</ele><time>2022-03-27T07:04:18.000Z</time></trkpt><trkpt lon="5.756884" lat="51.156098"><ele>29.2</ele><time>2022-03-27T07:04:19.000Z</time></trkpt><trkpt lon="5.756861" lat="51.156159"><ele>29.2</ele><time>2022-03-27T07:04:20.000Z</time></trkpt><trkpt lon="5.756838" lat="51.156224"><ele>29.2</ele><time>2022-03-27T07:04:21.000Z</time></trkpt><trkpt lon="5.756815" lat="51.156285"><ele>29.4</ele><time>2022-03-27T07:04:22.000Z</time></trkpt><trkpt lon="5.75679" lat="51.156346"><ele>29.4</ele><time>2022-03-27T07:04:23.000Z</time></trkpt><trkpt lon="5.756766" lat="51.15641"><ele>29.4</ele><time>2022-03-27T07:04:24.000Z</time></trkpt><trkpt lon="5.756743" lat="51.156472"><ele>29.4</ele><time>2022-03-27T07:04:25.000Z</time></trkpt><trkpt lon="5.75672" lat="51.156536"><ele>29.4</ele><time>2022-03-27T07:04:26.000Z</time></trkpt><trkpt lon="5.756698" lat="51.156597"><ele>29.4</ele><time>2022-03-27T07:04:27.000Z</time></trkpt><trkpt lon="5.756677" lat="51.156657"><ele>29.4</ele><time>2022-03-27T07:04:28.000Z</time></trkpt><trkpt lon="5.756653" lat="51.156719"><ele>29.2</ele><time>2022-03-27T07:04:29.000Z</time></trkpt><trkpt lon="5.75663" lat="51.156781"><ele>29.2</ele><time>2022-03-27T07:04:30.000Z</time></trkpt><trkpt lon="5.75661" lat="51.156842"><ele>29.2</ele><time>2022-03-27T07:04:31.000Z</time></trkpt><trkpt lon="5.756589" lat="51.156903"><ele>29.2</ele><time>2022-03-27T07:04:32.000Z</time></trkpt><trkpt lon="5.756569" lat="51.156961"><ele>29.2</ele><time>2022-03-27T07:04:33.000Z</time></trkpt><trkpt lon="5.756546" lat="51.157025"><ele>29.4</ele><time>2022-03-27T07:04:34.000Z</time></trkpt><trkpt lon="5.756526" lat="51.157083"><ele>29.4</ele><time>2022-03-27T07:04:35.000Z</time></trkpt><trkpt lon="5.756504" lat="51.157144"><ele>29.4</ele><time>2022-03-27T07:04:36.000Z</time></trkpt><trkpt lon="5.756485" lat="51.157197"><ele>29.4</ele><time>2022-03-27T07:04:37.000Z</time></trkpt><trkpt lon="5.756465" lat="51.157253"><ele>29.4</ele><time>2022-03-27T07:04:38.000Z</time></trkpt><trkpt lon="5.756443" lat="51.157312"><ele>29.4</ele><time>2022-03-27T07:04:39.000Z</time></trkpt><trkpt lon="5.756421" lat="51.157369"><ele>29.6</ele><time>2022-03-27T07:04:40.000Z</time></trkpt><trkpt lon="5.756399" lat="51.157422"><ele>29.4</ele><time>2022-03-27T07:04:41.000Z</time></trkpt><trkpt lon="5.756379" lat="51.157479"><ele>29.6</ele><time>2022-03-27T07:04:42.000Z</time></trkpt><trkpt lon="5.756358" lat="51.157536"><ele>29.6</ele><time>2022-03-27T07:04:43.000Z</time></trkpt><trkpt lon="5.756336" lat="51.157593"><ele>29.6</ele><time>2022-03-27T07:04:44.000Z</time></trkpt><trkpt lon="5.756316" lat="51.157651"><ele>29.8</ele><time>2022-03-27T07:04:45.000Z</time></trkpt><trkpt lon="5.756295" lat="51.157704"><ele>29.8</ele><time>2022-03-27T07:04:46.000Z</time></trkpt><trkpt lon="5.756274" lat="51.157761"><ele>29.8</ele><time>2022-03-27T07:04:47.000Z</time></trkpt><trkpt lon="5.756253" lat="51.157822"><ele>29.8</ele><time>2022-03-27T07:04:48.000Z</time></trkpt><trkpt lon="5.756231" lat="51.157884"><ele>29.8</ele><time>2022-03-27T07:04:49.000Z</time></trkpt><trkpt lon="5.756208" lat="51.157945"><ele>29.8</ele><time>2022-03-27T07:04:50.000Z</time></trkpt><trkpt lon="5.756188" lat="51.158009"><ele>29.6</ele><time>2022-03-27T07:04:51.000Z</time></trkpt><trkpt lon="5.756169" lat="51.15807"><ele>29.6</ele><time>2022-03-27T07:04:52.000Z</time></trkpt><trkpt lon="5.756147" lat="51.158133"><ele>29.6</ele><time>2022-03-27T07:04:53.000Z</time></trkpt><trkpt lon="5.756121" lat="51.158204"><ele>29.6</ele><time>2022-03-27T07:04:54.000Z</time></trkpt><trkpt lon="5.756096" lat="51.158268"><ele>29.6</ele><time>2022-03-27T07:04:55.000Z</time></trkpt><trkpt lon="5.756073" lat="51.158337"><ele>29.6</ele><time>2022-03-27T07:04:56.000Z</time></trkpt><trkpt lon="5.75605" lat="51.158405"><ele>29.6</ele><time>2022-03-27T07:04:57.000Z</time></trkpt><trkpt lon="5.756026" lat="51.158471"><ele>29.6</ele><time>2022-03-27T07:04:58.000Z</time></trkpt><trkpt lon="5.755999" lat="51.158539"><ele>29.6</ele><time>2022-03-27T07:04:59.000Z</time></trkpt><trkpt lon="5.755976" lat="51.158608"><ele>29.6</ele><time>2022-03-27T07:05:00.000Z</time></trkpt><trkpt lon="5.755951" lat="51.158677"><ele>29.6</ele><time>2022-03-27T07:05:01.000Z</time></trkpt><trkpt lon="5.755931" lat="51.158742"><ele>29.6</ele><time>2022-03-27T07:05:02.000Z</time></trkpt><trkpt lon="5.755919" lat="51.158809"><ele>29.6</ele><time>2022-03-27T07:05:03.000Z</time></trkpt><trkpt lon="5.755919" lat="51.158875"><ele>29.6</ele><time>2022-03-27T07:05:04.000Z</time></trkpt><trkpt lon="5.755929" lat="51.15894"><ele>29.8</ele><time>2022-03-27T07:05:05.000Z</time></trkpt><trkpt lon="5.755949" lat="51.159001"><ele>29.8</ele><time>2022-03-27T07:05:06.000Z</time></trkpt><trkpt lon="5.755975" lat="51.159066"><ele>29.8</ele><time>2022-03-27T07:05:07.000Z</time></trkpt><trkpt lon="5.756007" lat="51.159131"><ele>29.8</ele><time>2022-03-27T07:05:08.000Z</time></trkpt><trkpt lon="5.756039" lat="51.159196"><ele>29.8</ele><time>2022-03-27T07:05:09.000Z</time></trkpt><trkpt lon="5.756072" lat="51.159256"><ele>30</ele><time>2022-03-27T07:05:10.000Z</time></trkpt><trkpt lon="5.756103" lat="51.15932"><ele>30</ele><time>2022-03-27T07:05:11.000Z</time></trkpt><trkpt lon="5.756135" lat="51.159385"><ele>30</ele><time>2022-03-27T07:05:12.000Z</time></trkpt><trkpt lon="5.756166" lat="51.159447"><ele>30</ele><time>2022-03-27T07:05:13.000Z</time></trkpt><trkpt lon="5.756198" lat="51.159508"><ele>30</ele><time>2022-03-27T07:05:14.000Z</time></trkpt><trkpt lon="5.756228" lat="51.159573"><ele>29.8</ele><time>2022-03-27T07:05:15.000Z</time></trkpt><trkpt lon="5.756259" lat="51.159634"><ele>30</ele><time>2022-03-27T07:05:16.000Z</time></trkpt><trkpt lon="5.756288" lat="51.159695"><ele>30</ele><time>2022-03-27T07:05:17.000Z</time></trkpt><trkpt lon="5.756318" lat="51.159756"><ele>30</ele><time>2022-03-27T07:05:18.000Z</time></trkpt><trkpt lon="5.756349" lat="51.159818"><ele>30</ele><time>2022-03-27T07:05:19.000Z</time></trkpt><trkpt lon="5.756379" lat="51.159879"><ele>30</ele><time>2022-03-27T07:05:20.000Z</time></trkpt><trkpt lon="5.756409" lat="51.159943"><ele>30</ele><time>2022-03-27T07:05:21.000Z</time></trkpt><trkpt lon="5.75644" lat="51.160004"><ele>30</ele><time>2022-03-27T07:05:22.000Z</time></trkpt><trkpt lon="5.75647" lat="51.160065"><ele>29.8</ele><time>2022-03-27T07:05:23.000Z</time></trkpt><trkpt lon="5.756498" lat="51.16013"><ele>29.8</ele><time>2022-03-27T07:05:24.000Z</time></trkpt><trkpt lon="5.756527" lat="51.160188"><ele>29.8</ele><time>2022-03-27T07:05:25.000Z</time></trkpt><trkpt lon="5.756557" lat="51.160248"><ele>30</ele><time>2022-03-27T07:05:26.000Z</time></trkpt><trkpt lon="5.756584" lat="51.160308"><ele>30</ele><time>2022-03-27T07:05:27.000Z</time></trkpt><trkpt lon="5.756614" lat="51.160371"><ele>30</ele><time>2022-03-27T07:05:28.000Z</time></trkpt><trkpt lon="5.756641" lat="51.160428"><ele>30</ele><time>2022-03-27T07:05:29.000Z</time></trkpt><trkpt lon="5.756667" lat="51.160485"><ele>30</ele><time>2022-03-27T07:05:30.000Z</time></trkpt><trkpt lon="5.756693" lat="51.160542"><ele>30</ele><time>2022-03-27T07:05:31.000Z</time></trkpt><trkpt lon="5.75672" lat="51.160596"><ele>30</ele><time>2022-03-27T07:05:32.000Z</time></trkpt><trkpt lon="5.756746" lat="51.160649"><ele>30</ele><time>2022-03-27T07:05:33.000Z</time></trkpt><trkpt lon="5.756774" lat="51.160703"><ele>30</ele><time>2022-03-27T07:05:34.000Z</time></trkpt><trkpt lon="5.756797" lat="51.160753"><ele>30</ele><time>2022-03-27T07:05:35.000Z</time></trkpt><trkpt lon="5.75682" lat="51.160802"><ele>30</ele><time>2022-03-27T07:05:36.000Z</time></trkpt><trkpt lon="5.756841" lat="51.160848"><ele>29.8</ele><time>2022-03-27T07:05:37.000Z</time></trkpt><trkpt lon="5.756848" lat="51.160897"><ele>29.8</ele><time>2022-03-27T07:05:38.000Z</time></trkpt><trkpt lon="5.756833" lat="51.16094"><ele>29.6</ele><time>2022-03-27T07:05:39.000Z</time></trkpt><trkpt lon="5.756789" lat="51.160977"><ele>29.4</ele><time>2022-03-27T07:05:40.000Z</time></trkpt><trkpt lon="5.756714" lat="51.161006"><ele>29.4</ele><time>2022-03-27T07:05:41.000Z</time></trkpt><trkpt lon="5.756623" lat="51.161029"><ele>29.4</ele><time>2022-03-27T07:05:42.000Z</time></trkpt><trkpt lon="5.756522" lat="51.161051"><ele>29.2</ele><time>2022-03-27T07:05:43.000Z</time></trkpt><trkpt lon="5.75642" lat="51.16107"><ele>29.2</ele><time>2022-03-27T07:05:44.000Z</time></trkpt><trkpt lon="5.756318" lat="51.16109"><ele>29</ele><time>2022-03-27T07:05:45.000Z</time></trkpt><trkpt lon="5.756218" lat="51.161108"><ele>29</ele><time>2022-03-27T07:05:46.000Z</time></trkpt><trkpt lon="5.756115" lat="51.161128"><ele>28.8</ele><time>2022-03-27T07:05:47.000Z</time></trkpt><trkpt lon="5.756015" lat="51.161147"><ele>28.8</ele><time>2022-03-27T07:05:48.000Z</time></trkpt><trkpt lon="5.75591" lat="51.161159"><ele>28.8</ele><time>2022-03-27T07:05:49.000Z</time></trkpt><trkpt lon="5.755803" lat="51.161167"><ele>28.8</ele><time>2022-03-27T07:05:50.000Z</time></trkpt><trkpt lon="5.755697" lat="51.161171"><ele>28.6</ele><time>2022-03-27T07:05:51.000Z</time></trkpt><trkpt lon="5.755585" lat="51.161175"><ele>28.6</ele><time>2022-03-27T07:05:52.000Z</time></trkpt><trkpt lon="5.755473" lat="51.161175"><ele>28.6</ele><time>2022-03-27T07:05:53.000Z</time></trkpt><trkpt lon="5.755362" lat="51.161175"><ele>28.6</ele><time>2022-03-27T07:05:54.000Z</time></trkpt><trkpt lon="5.755249" lat="51.161168"><ele>28.4</ele><time>2022-03-27T07:05:55.000Z</time></trkpt><trkpt lon="5.755135" lat="51.161164"><ele>28.6</ele><time>2022-03-27T07:05:56.000Z</time></trkpt><trkpt lon="5.755022" lat="51.161156"><ele>28.4</ele><time>2022-03-27T07:05:57.000Z</time></trkpt><trkpt lon="5.754913" lat="51.161149"><ele>28.4</ele><time>2022-03-27T07:05:58.000Z</time></trkpt><trkpt lon="5.754806" lat="51.161141"><ele>28.6</ele><time>2022-03-27T07:05:59.000Z</time></trkpt><trkpt lon="5.754697" lat="51.161137"><ele>28.6</ele><time>2022-03-27T07:06:00.000Z</time></trkpt><trkpt lon="5.754588" lat="51.161129"><ele>28.6</ele><time>2022-03-27T07:06:01.000Z</time></trkpt><trkpt lon="5.754484" lat="51.161125"><ele>28.6</ele><time>2022-03-27T07:06:02.000Z</time></trkpt><trkpt lon="5.754373" lat="51.161122"><ele>28.6</ele><time>2022-03-27T07:06:03.000Z</time></trkpt><trkpt lon="5.754261" lat="51.161114"><ele>28.6</ele><time>2022-03-27T07:06:04.000Z</time></trkpt><trkpt lon="5.754154" lat="51.161106"><ele>28.6</ele><time>2022-03-27T07:06:05.000Z</time></trkpt><trkpt lon="5.754046" lat="51.161099"><ele>28.6</ele><time>2022-03-27T07:06:06.000Z</time></trkpt><trkpt lon="5.753941" lat="51.161091"><ele>28.6</ele><time>2022-03-27T07:06:07.000Z</time></trkpt><trkpt lon="5.753839" lat="51.161084"><ele>28.4</ele><time>2022-03-27T07:06:08.000Z</time></trkpt><trkpt lon="5.753738" lat="51.16108"><ele>28.4</ele><time>2022-03-27T07:06:09.000Z</time></trkpt><trkpt lon="5.75364" lat="51.161076"><ele>28.4</ele><time>2022-03-27T07:06:10.000Z</time></trkpt><trkpt lon="5.753545" lat="51.161076"><ele>28.4</ele><time>2022-03-27T07:06:11.000Z</time></trkpt><trkpt lon="5.753446" lat="51.161076"><ele>28.4</ele><time>2022-03-27T07:06:12.000Z</time></trkpt><trkpt lon="5.753347" lat="51.161069"><ele>28.4</ele><time>2022-03-27T07:06:13.000Z</time></trkpt><trkpt lon="5.75324" lat="51.161061"><ele>28.4</ele><time>2022-03-27T07:06:14.000Z</time></trkpt><trkpt lon="5.753143" lat="51.161053"><ele>28.4</ele><time>2022-03-27T07:06:15.000Z</time></trkpt><trkpt lon="5.753041" lat="51.161046"><ele>28.4</ele><time>2022-03-27T07:06:16.000Z</time></trkpt><trkpt lon="5.752935" lat="51.161038"><ele>28.2</ele><time>2022-03-27T07:06:17.000Z</time></trkpt><trkpt lon="5.752831" lat="51.16103"><ele>28.4</ele><time>2022-03-27T07:06:18.000Z</time></trkpt><trkpt lon="5.752726" lat="51.161023"><ele>28.4</ele><time>2022-03-27T07:06:19.000Z</time></trkpt><trkpt lon="5.752621" lat="51.161019"><ele>28.4</ele><time>2022-03-27T07:06:20.000Z</time></trkpt><trkpt lon="5.752515" lat="51.161015"><ele>28.4</ele><time>2022-03-27T07:06:21.000Z</time></trkpt><trkpt lon="5.75241" lat="51.161004"><ele>28.4</ele><time>2022-03-27T07:06:22.000Z</time></trkpt><trkpt lon="5.7523" lat="51.161003"><ele>28.4</ele><time>2022-03-27T07:06:23.000Z</time></trkpt><trkpt lon="5.752195" lat="51.160999"><ele>28.4</ele><time>2022-03-27T07:06:24.000Z</time></trkpt><trkpt lon="5.752089" lat="51.160999"><ele>28.4</ele><time>2022-03-27T07:06:25.000Z</time></trkpt><trkpt lon="5.751989" lat="51.161003"><ele>28.4</ele><time>2022-03-27T07:06:26.000Z</time></trkpt><trkpt lon="5.751887" lat="51.16101"><ele>28.4</ele><time>2022-03-27T07:06:27.000Z</time></trkpt><trkpt lon="5.751787" lat="51.161025"><ele>28.6</ele><time>2022-03-27T07:06:28.000Z</time></trkpt><trkpt lon="5.751688" lat="51.161044"><ele>28.6</ele><time>2022-03-27T07:06:29.000Z</time></trkpt><trkpt lon="5.751588" lat="51.16106"><ele>28.4</ele><time>2022-03-27T07:06:30.000Z</time></trkpt><trkpt lon="5.751487" lat="51.161078"><ele>28.4</ele><time>2022-03-27T07:06:31.000Z</time></trkpt><trkpt lon="5.751389" lat="51.161097"><ele>28.4</ele><time>2022-03-27T07:06:32.000Z</time></trkpt><trkpt lon="5.751287" lat="51.161117"><ele>28.4</ele><time>2022-03-27T07:06:33.000Z</time></trkpt><trkpt lon="5.751185" lat="51.161136"><ele>28.4</ele><time>2022-03-27T07:06:34.000Z</time></trkpt><trkpt lon="5.751086" lat="51.161151"><ele>28.4</ele><time>2022-03-27T07:06:35.000Z</time></trkpt><trkpt lon="5.750984" lat="51.16117"><ele>28.4</ele><time>2022-03-27T07:06:36.000Z</time></trkpt><trkpt lon="5.750888" lat="51.161189"><ele>28.4</ele><time>2022-03-27T07:06:37.000Z</time></trkpt><trkpt lon="5.750799" lat="51.161201"><ele>28.4</ele><time>2022-03-27T07:06:38.000Z</time></trkpt><trkpt lon="5.750713" lat="51.161219"><ele>28.6</ele><time>2022-03-27T07:06:39.000Z</time></trkpt><trkpt lon="5.750623" lat="51.161239"><ele>28.6</ele><time>2022-03-27T07:06:40.000Z</time></trkpt><trkpt lon="5.750536" lat="51.161257"><ele>28.6</ele><time>2022-03-27T07:06:41.000Z</time></trkpt><trkpt lon="5.750441" lat="51.16128"><ele>28.6</ele><time>2022-03-27T07:06:42.000Z</time></trkpt><trkpt lon="5.750349" lat="51.161307"><ele>28.6</ele><time>2022-03-27T07:06:43.000Z</time></trkpt><trkpt lon="5.750251" lat="51.161323"><ele>28.6</ele><time>2022-03-27T07:06:44.000Z</time></trkpt><trkpt lon="5.750151" lat="51.161345"><ele>28.6</ele><time>2022-03-27T07:06:45.000Z</time></trkpt><trkpt lon="5.750054" lat="51.161371"><ele>28.6</ele><time>2022-03-27T07:06:46.000Z</time></trkpt><trkpt lon="5.74995" lat="51.161391"><ele>28.6</ele><time>2022-03-27T07:06:47.000Z</time></trkpt><trkpt lon="5.749847" lat="51.16141"><ele>28.6</ele><time>2022-03-27T07:06:48.000Z</time></trkpt><trkpt lon="5.749742" lat="51.161433"><ele>28.6</ele><time>2022-03-27T07:06:49.000Z</time></trkpt><trkpt lon="5.749638" lat="51.161456"><ele>28.6</ele><time>2022-03-27T07:06:50.000Z</time></trkpt><trkpt lon="5.749533" lat="51.161479"><ele>28.6</ele><time>2022-03-27T07:06:51.000Z</time></trkpt><trkpt lon="5.749424" lat="51.161502"><ele>28.6</ele><time>2022-03-27T07:06:52.000Z</time></trkpt><trkpt lon="5.749315" lat="51.161524"><ele>28.6</ele><time>2022-03-27T07:06:53.000Z</time></trkpt><trkpt lon="5.749205" lat="51.161547"><ele>28.6</ele><time>2022-03-27T07:06:54.000Z</time></trkpt><trkpt lon="5.7491" lat="51.16157"><ele>28.8</ele><time>2022-03-27T07:06:55.000Z</time></trkpt><trkpt lon="5.748998" lat="51.16159"><ele>28.8</ele><time>2022-03-27T07:06:56.000Z</time></trkpt><trkpt lon="5.748899" lat="51.161608"><ele>28.8</ele><time>2022-03-27T07:06:57.000Z</time></trkpt><trkpt lon="5.748799" lat="51.161627"><ele>28.8</ele><time>2022-03-27T07:06:58.000Z</time></trkpt><trkpt lon="5.748693" lat="51.161651"><ele>28.8</ele><time>2022-03-27T07:06:59.000Z</time></trkpt><trkpt lon="5.748593" lat="51.161673"><ele>28.8</ele><time>2022-03-27T07:07:00.000Z</time></trkpt><trkpt lon="5.748493" lat="51.161696"><ele>28.8</ele><time>2022-03-27T07:07:01.000Z</time></trkpt><trkpt lon="5.748393" lat="51.161719"><ele>28.8</ele><time>2022-03-27T07:07:02.000Z</time></trkpt><trkpt lon="5.748295" lat="51.161742"><ele>28.8</ele><time>2022-03-27T07:07:03.000Z</time></trkpt><trkpt lon="5.748201" lat="51.161769"><ele>28.8</ele><time>2022-03-27T07:07:04.000Z</time></trkpt><trkpt lon="5.748106" lat="51.161788"><ele>28.8</ele><time>2022-03-27T07:07:05.000Z</time></trkpt><trkpt lon="5.748003" lat="51.161807"><ele>28.8</ele><time>2022-03-27T07:07:06.000Z</time></trkpt><trkpt lon="5.747907" lat="51.16183"><ele>28.8</ele><time>2022-03-27T07:07:07.000Z</time></trkpt><trkpt lon="5.747822" lat="51.161847"><ele>28.8</ele><time>2022-03-27T07:07:08.000Z</time></trkpt><trkpt lon="5.747714" lat="51.161872"><ele>28.8</ele><time>2022-03-27T07:07:09.000Z</time></trkpt><trkpt lon="5.747619" lat="51.161895"><ele>28.8</ele><time>2022-03-27T07:07:10.000Z</time></trkpt><trkpt lon="5.747526" lat="51.161917"><ele>28.8</ele><time>2022-03-27T07:07:11.000Z</time></trkpt><trkpt lon="5.747431" lat="51.161948"><ele>28.8</ele><time>2022-03-27T07:07:12.000Z</time></trkpt><trkpt lon="5.747342" lat="51.161982"><ele>28.8</ele><time>2022-03-27T07:07:13.000Z</time></trkpt><trkpt lon="5.747249" lat="51.162016"><ele>28.8</ele><time>2022-03-27T07:07:14.000Z</time></trkpt><trkpt lon="5.747158" lat="51.162054"><ele>28.8</ele><time>2022-03-27T07:07:15.000Z</time></trkpt><trkpt lon="5.747067" lat="51.162092"><ele>28.8</ele><time>2022-03-27T07:07:16.000Z</time></trkpt><trkpt lon="5.746975" lat="51.16213"><ele>29</ele><time>2022-03-27T07:07:17.000Z</time></trkpt><trkpt lon="5.746885" lat="51.162168"><ele>29</ele><time>2022-03-27T07:07:18.000Z</time></trkpt><trkpt lon="5.746794" lat="51.162207"><ele>29</ele><time>2022-03-27T07:07:19.000Z</time></trkpt><trkpt lon="5.746703" lat="51.162245"><ele>29</ele><time>2022-03-27T07:07:20.000Z</time></trkpt><trkpt lon="5.746613" lat="51.162286"><ele>29</ele><time>2022-03-27T07:07:21.000Z</time></trkpt><trkpt lon="5.746523" lat="51.162325"><ele>29</ele><time>2022-03-27T07:07:22.000Z</time></trkpt><trkpt lon="5.746436" lat="51.162362"><ele>29</ele><time>2022-03-27T07:07:23.000Z</time></trkpt><trkpt lon="5.746343" lat="51.162401"><ele>29</ele><time>2022-03-27T07:07:24.000Z</time></trkpt><trkpt lon="5.746255" lat="51.162439"><ele>29</ele><time>2022-03-27T07:07:25.000Z</time></trkpt><trkpt lon="5.746166" lat="51.162477"><ele>29</ele><time>2022-03-27T07:07:26.000Z</time></trkpt><trkpt lon="5.746077" lat="51.162515"><ele>29</ele><time>2022-03-27T07:07:27.000Z</time></trkpt><trkpt lon="5.745988" lat="51.162554"><ele>29</ele><time>2022-03-27T07:07:28.000Z</time></trkpt><trkpt lon="5.7459" lat="51.162591"><ele>29</ele><time>2022-03-27T07:07:29.000Z</time></trkpt><trkpt lon="5.745807" lat="51.16263"><ele>28.8</ele><time>2022-03-27T07:07:30.000Z</time></trkpt><trkpt lon="5.745717" lat="51.162668"><ele>28.8</ele><time>2022-03-27T07:07:31.000Z</time></trkpt><trkpt lon="5.745628" lat="51.162706"><ele>28.6</ele><time>2022-03-27T07:07:32.000Z</time></trkpt><trkpt lon="5.745538" lat="51.162745"><ele>28.6</ele><time>2022-03-27T07:07:33.000Z</time></trkpt><trkpt lon="5.74545" lat="51.162783"><ele>28.6</ele><time>2022-03-27T07:07:34.000Z</time></trkpt><trkpt lon="5.745363" lat="51.162821"><ele>28.8</ele><time>2022-03-27T07:07:35.000Z</time></trkpt><trkpt lon="5.745282" lat="51.162858"><ele>28.8</ele><time>2022-03-27T07:07:36.000Z</time></trkpt><trkpt lon="5.745195" lat="51.162897"><ele>28.8</ele><time>2022-03-27T07:07:37.000Z</time></trkpt><trkpt lon="5.745112" lat="51.162932"><ele>28.8</ele><time>2022-03-27T07:07:38.000Z</time></trkpt><trkpt lon="5.745028" lat="51.162969"><ele>28.8</ele><time>2022-03-27T07:07:39.000Z</time></trkpt><trkpt lon="5.744942" lat="51.163011"><ele>28.8</ele><time>2022-03-27T07:07:40.000Z</time></trkpt><trkpt lon="5.744856" lat="51.163046"><ele>28.8</ele><time>2022-03-27T07:07:41.000Z</time></trkpt><trkpt lon="5.744772" lat="51.163084"><ele>28.8</ele><time>2022-03-27T07:07:42.000Z</time></trkpt><trkpt lon="5.744686" lat="51.163119"><ele>28.8</ele><time>2022-03-27T07:07:43.000Z</time></trkpt><trkpt lon="5.7446" lat="51.163157"><ele>28.8</ele><time>2022-03-27T07:07:44.000Z</time></trkpt><trkpt lon="5.744516" lat="51.163191"><ele>28.8</ele><time>2022-03-27T07:07:45.000Z</time></trkpt><trkpt lon="5.744431" lat="51.163233"><ele>29</ele><time>2022-03-27T07:07:46.000Z</time></trkpt><trkpt lon="5.74435" lat="51.163271"><ele>29</ele><time>2022-03-27T07:07:47.000Z</time></trkpt><trkpt lon="5.744264" lat="51.163309"><ele>29</ele><time>2022-03-27T07:07:48.000Z</time></trkpt><trkpt lon="5.744178" lat="51.16334"><ele>29</ele><time>2022-03-27T07:07:49.000Z</time></trkpt><trkpt lon="5.744095" lat="51.163378"><ele>29</ele><time>2022-03-27T07:07:50.000Z</time></trkpt><trkpt lon="5.744013" lat="51.163411"><ele>29</ele><time>2022-03-27T07:07:51.000Z</time></trkpt><trkpt lon="5.743928" lat="51.16345"><ele>29.2</ele><time>2022-03-27T07:07:52.000Z</time></trkpt><trkpt lon="5.74385" lat="51.163488"><ele>29.2</ele><time>2022-03-27T07:07:53.000Z</time></trkpt><trkpt lon="5.743774" lat="51.163534"><ele>29.2</ele><time>2022-03-27T07:07:54.000Z</time></trkpt><trkpt lon="5.743701" lat="51.163584"><ele>29.2</ele><time>2022-03-27T07:07:55.000Z</time></trkpt><trkpt lon="5.743632" lat="51.16364"><ele>29.2</ele><time>2022-03-27T07:07:56.000Z</time></trkpt><trkpt lon="5.743566" lat="51.163693"><ele>29.2</ele><time>2022-03-27T07:07:57.000Z</time></trkpt><trkpt lon="5.743501" lat="51.163747"><ele>29.2</ele><time>2022-03-27T07:07:58.000Z</time></trkpt><trkpt lon="5.743441" lat="51.1638"><ele>29.2</ele><time>2022-03-27T07:07:59.000Z</time></trkpt><trkpt lon="5.743381" lat="51.163854"><ele>29.2</ele><time>2022-03-27T07:08:00.000Z</time></trkpt><trkpt lon="5.743321" lat="51.163908"><ele>29.2</ele><time>2022-03-27T07:08:01.000Z</time></trkpt><trkpt lon="5.743265" lat="51.163961"><ele>29.2</ele><time>2022-03-27T07:08:02.000Z</time></trkpt><trkpt lon="5.743211" lat="51.164014"><ele>29</ele><time>2022-03-27T07:08:03.000Z</time></trkpt><trkpt lon="5.743163" lat="51.164074"><ele>29</ele><time>2022-03-27T07:08:04.000Z</time></trkpt><trkpt lon="5.743119" lat="51.164132"><ele>29.2</ele><time>2022-03-27T07:08:05.000Z</time></trkpt><trkpt lon="5.743082" lat="51.164196"><ele>29</ele><time>2022-03-27T07:08:06.000Z</time></trkpt><trkpt lon="5.74305" lat="51.164262"><ele>29.2</ele><time>2022-03-27T07:08:07.000Z</time></trkpt><trkpt lon="5.743019" lat="51.164321"><ele>29.2</ele><time>2022-03-27T07:08:08.000Z</time></trkpt><trkpt lon="5.742983" lat="51.164384"><ele>29.2</ele><time>2022-03-27T07:08:09.000Z</time></trkpt><trkpt lon="5.742949" lat="51.164448"><ele>29.2</ele><time>2022-03-27T07:08:10.000Z</time></trkpt><trkpt lon="5.742904" lat="51.164509"><ele>29</ele><time>2022-03-27T07:08:11.000Z</time></trkpt><trkpt lon="5.742849" lat="51.164566"><ele>29</ele><time>2022-03-27T07:08:12.000Z</time></trkpt><trkpt lon="5.742784" lat="51.164617"><ele>29</ele><time>2022-03-27T07:08:13.000Z</time></trkpt><trkpt lon="5.742705" lat="51.164659"><ele>29</ele><time>2022-03-27T07:08:14.000Z</time></trkpt><trkpt lon="5.742621" lat="51.164694"><ele>29</ele><time>2022-03-27T07:08:15.000Z</time></trkpt><trkpt lon="5.742528" lat="51.164721"><ele>29</ele><time>2022-03-27T07:08:16.000Z</time></trkpt><trkpt lon="5.742431" lat="51.16474"><ele>29</ele><time>2022-03-27T07:08:17.000Z</time></trkpt><trkpt lon="5.742328" lat="51.164756"><ele>29</ele><time>2022-03-27T07:08:18.000Z</time></trkpt><trkpt lon="5.742229" lat="51.16476"><ele>29</ele><time>2022-03-27T07:08:19.000Z</time></trkpt><trkpt lon="5.742124" lat="51.164761"><ele>29</ele><time>2022-03-27T07:08:20.000Z</time></trkpt><trkpt lon="5.742023" lat="51.164757"><ele>29</ele><time>2022-03-27T07:08:21.000Z</time></trkpt><trkpt lon="5.741922" lat="51.164746"><ele>29</ele><time>2022-03-27T07:08:22.000Z</time></trkpt><trkpt lon="5.741821" lat="51.164742"><ele>29</ele><time>2022-03-27T07:08:23.000Z</time></trkpt><trkpt lon="5.741721" lat="51.164731"><ele>29</ele><time>2022-03-27T07:08:24.000Z</time></trkpt><trkpt lon="5.741615" lat="51.164726"><ele>29</ele><time>2022-03-27T07:08:25.000Z</time></trkpt><trkpt lon="5.741512" lat="51.164719"><ele>29</ele><time>2022-03-27T07:08:26.000Z</time></trkpt><trkpt lon="5.741412" lat="51.164711"><ele>28.8</ele><time>2022-03-27T07:08:27.000Z</time></trkpt><trkpt lon="5.741313" lat="51.164704"><ele>28.8</ele><time>2022-03-27T07:08:28.000Z</time></trkpt><trkpt lon="5.741217" lat="51.164692"><ele>28.8</ele><time>2022-03-27T07:08:29.000Z</time></trkpt><trkpt lon="5.741121" lat="51.164688"><ele>28.8</ele><time>2022-03-27T07:08:30.000Z</time></trkpt><trkpt lon="5.741025" lat="51.164681"><ele>28.8</ele><time>2022-03-27T07:08:31.000Z</time></trkpt><trkpt lon="5.74093" lat="51.164677"><ele>28.8</ele><time>2022-03-27T07:08:32.000Z</time></trkpt><trkpt lon="5.740838" lat="51.164669"><ele>28.8</ele><time>2022-03-27T07:08:33.000Z</time></trkpt><trkpt lon="5.740751" lat="51.164662"><ele>29</ele><time>2022-03-27T07:08:34.000Z</time></trkpt><trkpt lon="5.740667" lat="51.16465"><ele>29</ele><time>2022-03-27T07:08:35.000Z</time></trkpt><trkpt lon="5.740589" lat="51.164643"><ele>29</ele><time>2022-03-27T07:08:36.000Z</time></trkpt><trkpt lon="5.740523" lat="51.164635"><ele>29</ele><time>2022-03-27T07:08:37.000Z</time></trkpt><trkpt lon="5.74046" lat="51.164635"><ele>29</ele><time>2022-03-27T07:08:38.000Z</time></trkpt><trkpt lon="5.740402" lat="51.164645"><ele>29</ele><time>2022-03-27T07:08:39.000Z</time></trkpt><trkpt lon="5.740352" lat="51.164668"><ele>29</ele><time>2022-03-27T07:08:40.000Z</time></trkpt><trkpt lon="5.740318" lat="51.164709"><ele>29</ele><time>2022-03-27T07:08:41.000Z</time></trkpt><trkpt lon="5.740291" lat="51.164762"><ele>29</ele><time>2022-03-27T07:08:42.000Z</time></trkpt><trkpt lon="5.740266" lat="51.164819"><ele>29</ele><time>2022-03-27T07:08:43.000Z</time></trkpt><trkpt lon="5.740237" lat="51.164883"><ele>28.8</ele><time>2022-03-27T07:08:44.000Z</time></trkpt><trkpt lon="5.740205" lat="51.164945"><ele>28.8</ele><time>2022-03-27T07:08:45.000Z</time></trkpt><trkpt lon="5.740169" lat="51.165009"><ele>28.8</ele><time>2022-03-27T07:08:46.000Z</time></trkpt><trkpt lon="5.740126" lat="51.165073"><ele>29</ele><time>2022-03-27T07:08:47.000Z</time></trkpt><trkpt lon="5.740081" lat="51.165139"><ele>29</ele><time>2022-03-27T07:08:48.000Z</time></trkpt><trkpt lon="5.740042" lat="51.1652"><ele>29</ele><time>2022-03-27T07:08:49.000Z</time></trkpt><trkpt lon="5.740008" lat="51.165269"><ele>29</ele><time>2022-03-27T07:08:50.000Z</time></trkpt><trkpt lon="5.739976" lat="51.165327"><ele>29</ele><time>2022-03-27T07:08:51.000Z</time></trkpt><trkpt lon="5.739942" lat="51.165387"><ele>29</ele><time>2022-03-27T07:08:52.000Z</time></trkpt><trkpt lon="5.739909" lat="51.165447"><ele>29</ele><time>2022-03-27T07:08:53.000Z</time></trkpt><trkpt lon="5.739875" lat="51.165506"><ele>29</ele><time>2022-03-27T07:08:54.000Z</time></trkpt><trkpt lon="5.739842" lat="51.165566"><ele>29</ele><time>2022-03-27T07:08:55.000Z</time></trkpt><trkpt lon="5.739808" lat="51.165624"><ele>29</ele><time>2022-03-27T07:08:56.000Z</time></trkpt><trkpt lon="5.739774" lat="51.165684"><ele>29</ele><time>2022-03-27T07:08:57.000Z</time></trkpt><trkpt lon="5.739741" lat="51.165745"><ele>28.8</ele><time>2022-03-27T07:08:58.000Z</time></trkpt><trkpt lon="5.739707" lat="51.165807"><ele>28.8</ele><time>2022-03-27T07:08:59.000Z</time></trkpt><trkpt lon="5.739672" lat="51.165864"><ele>28.8</ele><time>2022-03-27T07:09:00.000Z</time></trkpt><trkpt lon="5.739639" lat="51.165925"><ele>28.6</ele><time>2022-03-27T07:09:01.000Z</time></trkpt><trkpt lon="5.739603" lat="51.165986"><ele>28.6</ele><time>2022-03-27T07:09:02.000Z</time></trkpt><trkpt lon="5.73957" lat="51.166043"><ele>28.6</ele><time>2022-03-27T07:09:03.000Z</time></trkpt><trkpt lon="5.739538" lat="51.166101"><ele>28.8</ele><time>2022-03-27T07:09:04.000Z</time></trkpt><trkpt lon="5.739506" lat="51.166154"><ele>29</ele><time>2022-03-27T07:09:05.000Z</time></trkpt><trkpt lon="5.739478" lat="51.1662"><ele>29</ele><time>2022-03-27T07:09:06.000Z</time></trkpt><trkpt lon="5.73945" lat="51.16625"><ele>29</ele><time>2022-03-27T07:09:07.000Z</time></trkpt><trkpt lon="5.739424" lat="51.166291"><ele>29</ele><time>2022-03-27T07:09:08.000Z</time></trkpt><trkpt lon="5.739391" lat="51.166337"><ele>29</ele><time>2022-03-27T07:09:09.000Z</time></trkpt><trkpt lon="5.73936" lat="51.16638"><ele>29</ele><time>2022-03-27T07:09:10.000Z</time></trkpt><trkpt lon="5.73933" lat="51.166418"><ele>29</ele><time>2022-03-27T07:09:11.000Z</time></trkpt><trkpt lon="5.739298" lat="51.166452"><ele>29.2</ele><time>2022-03-27T07:09:12.000Z</time></trkpt><trkpt lon="5.73926" lat="51.166487"><ele>29.2</ele><time>2022-03-27T07:09:13.000Z</time></trkpt><trkpt lon="5.739208" lat="51.166518"><ele>29.2</ele><time>2022-03-27T07:09:14.000Z</time></trkpt><trkpt lon="5.739138" lat="51.166534"><ele>29</ele><time>2022-03-27T07:09:15.000Z</time></trkpt><trkpt lon="5.739054" lat="51.166531"><ele>28.8</ele><time>2022-03-27T07:09:16.000Z</time></trkpt><trkpt lon="5.738963" lat="51.166523"><ele>28.8</ele><time>2022-03-27T07:09:17.000Z</time></trkpt><trkpt lon="5.738871" lat="51.166512"><ele>29</ele><time>2022-03-27T07:09:18.000Z</time></trkpt><trkpt lon="5.738774" lat="51.166501"><ele>29</ele><time>2022-03-27T07:09:19.000Z</time></trkpt><trkpt lon="5.73868" lat="51.16649"><ele>29</ele><time>2022-03-27T07:09:20.000Z</time></trkpt><trkpt lon="5.738583" lat="51.166478"><ele>29</ele><time>2022-03-27T07:09:21.000Z</time></trkpt><trkpt lon="5.738487" lat="51.16647"><ele>29</ele><time>2022-03-27T07:09:22.000Z</time></trkpt><trkpt lon="5.738397" lat="51.166466"><ele>29</ele><time>2022-03-27T07:09:23.000Z</time></trkpt><trkpt lon="5.738305" lat="51.166473"><ele>29</ele><time>2022-03-27T07:09:24.000Z</time></trkpt><trkpt lon="5.738217" lat="51.166491"><ele>29</ele><time>2022-03-27T07:09:25.000Z</time></trkpt><trkpt lon="5.738129" lat="51.166517"><ele>29</ele><time>2022-03-27T07:09:26.000Z</time></trkpt><trkpt lon="5.73804" lat="51.166548"><ele>29</ele><time>2022-03-27T07:09:27.000Z</time></trkpt><trkpt lon="5.737949" lat="51.166582"><ele>29</ele><time>2022-03-27T07:09:28.000Z</time></trkpt><trkpt lon="5.737861" lat="51.166617"><ele>29</ele><time>2022-03-27T07:09:29.000Z</time></trkpt><trkpt lon="5.737771" lat="51.166651"><ele>29</ele><time>2022-03-27T07:09:30.000Z</time></trkpt><trkpt lon="5.737683" lat="51.166684"><ele>29</ele><time>2022-03-27T07:09:31.000Z</time></trkpt><trkpt lon="5.737591" lat="51.16672"><ele>29</ele><time>2022-03-27T07:09:32.000Z</time></trkpt><trkpt lon="5.7375" lat="51.166757"><ele>29.2</ele><time>2022-03-27T07:09:33.000Z</time></trkpt><trkpt lon="5.737407" lat="51.166789"><ele>29</ele><time>2022-03-27T07:09:34.000Z</time></trkpt><trkpt lon="5.737313" lat="51.166816"><ele>29</ele><time>2022-03-27T07:09:35.000Z</time></trkpt><trkpt lon="5.737218" lat="51.166842"><ele>29</ele><time>2022-03-27T07:09:36.000Z</time></trkpt><trkpt lon="5.737118" lat="51.166865"><ele>29</ele><time>2022-03-27T07:09:37.000Z</time></trkpt><trkpt lon="5.737019" lat="51.166885"><ele>29.2</ele><time>2022-03-27T07:09:38.000Z</time></trkpt><trkpt lon="5.73692" lat="51.166907"><ele>29.2</ele><time>2022-03-27T07:09:39.000Z</time></trkpt><trkpt lon="5.73682" lat="51.166922"><ele>29.2</ele><time>2022-03-27T07:09:40.000Z</time></trkpt><trkpt lon="5.736716" lat="51.166938"><ele>29.2</ele><time>2022-03-27T07:09:41.000Z</time></trkpt><trkpt lon="5.736609" lat="51.166953"><ele>29.4</ele><time>2022-03-27T07:09:42.000Z</time></trkpt><trkpt lon="5.736504" lat="51.166972"><ele>29.4</ele><time>2022-03-27T07:09:43.000Z</time></trkpt><trkpt lon="5.736404" lat="51.166998"><ele>29.4</ele><time>2022-03-27T07:09:44.000Z</time></trkpt><trkpt lon="5.73631" lat="51.167025"><ele>29.4</ele><time>2022-03-27T07:09:45.000Z</time></trkpt><trkpt lon="5.736217" lat="51.167052"><ele>29.6</ele><time>2022-03-27T07:09:46.000Z</time></trkpt><trkpt lon="5.736128" lat="51.16709"><ele>29.6</ele><time>2022-03-27T07:09:47.000Z</time></trkpt><trkpt lon="5.736042" lat="51.167124"><ele>29.6</ele><time>2022-03-27T07:09:48.000Z</time></trkpt><trkpt lon="5.735961" lat="51.167161"><ele>29.6</ele><time>2022-03-27T07:09:49.000Z</time></trkpt><trkpt lon="5.73588" lat="51.167203"><ele>29.8</ele><time>2022-03-27T07:09:50.000Z</time></trkpt><trkpt lon="5.7358" lat="51.167246"><ele>29.8</ele><time>2022-03-27T07:09:51.000Z</time></trkpt><trkpt lon="5.735719" lat="51.167288"><ele>29.8</ele><time>2022-03-27T07:09:52.000Z</time></trkpt><trkpt lon="5.735637" lat="51.16733"><ele>30</ele><time>2022-03-27T07:09:53.000Z</time></trkpt><trkpt lon="5.735556" lat="51.167368"><ele>29.8</ele><time>2022-03-27T07:09:54.000Z</time></trkpt><trkpt lon="5.735477" lat="51.167409"><ele>29.8</ele><time>2022-03-27T07:09:55.000Z</time></trkpt><trkpt lon="5.735398" lat="51.167447"><ele>29.8</ele><time>2022-03-27T07:09:56.000Z</time></trkpt><trkpt lon="5.735315" lat="51.167486"><ele>29.8</ele><time>2022-03-27T07:09:57.000Z</time></trkpt><trkpt lon="5.735237" lat="51.167528"><ele>30</ele><time>2022-03-27T07:09:58.000Z</time></trkpt><trkpt lon="5.735162" lat="51.167565"><ele>30</ele><time>2022-03-27T07:09:59.000Z</time></trkpt><trkpt lon="5.735083" lat="51.167604"><ele>30</ele><time>2022-03-27T07:10:00.000Z</time></trkpt><trkpt lon="5.735006" lat="51.167642"><ele>30.2</ele><time>2022-03-27T07:10:01.000Z</time></trkpt><trkpt lon="5.734925" lat="51.167681"><ele>30.2</ele><time>2022-03-27T07:10:02.000Z</time></trkpt><trkpt lon="5.734849" lat="51.167718"><ele>30.2</ele><time>2022-03-27T07:10:03.000Z</time></trkpt><trkpt lon="5.734767" lat="51.167761"><ele>30.2</ele><time>2022-03-27T07:10:04.000Z</time></trkpt><trkpt lon="5.73469" lat="51.167799"><ele>30.2</ele><time>2022-03-27T07:10:05.000Z</time></trkpt><trkpt lon="5.734611" lat="51.167841"><ele>30.2</ele><time>2022-03-27T07:10:06.000Z</time></trkpt><trkpt lon="5.734534" lat="51.167882"><ele>30.2</ele><time>2022-03-27T07:10:07.000Z</time></trkpt><trkpt lon="5.734454" lat="51.167924"><ele>30.2</ele><time>2022-03-27T07:10:08.000Z</time></trkpt><trkpt lon="5.734379" lat="51.167963"><ele>30.4</ele><time>2022-03-27T07:10:09.000Z</time></trkpt><trkpt lon="5.734303" lat="51.168003"><ele>30.4</ele><time>2022-03-27T07:10:10.000Z</time></trkpt><trkpt lon="5.734224" lat="51.168043"><ele>30.4</ele><time>2022-03-27T07:10:11.000Z</time></trkpt><trkpt lon="5.734152" lat="51.168081"><ele>30.4</ele><time>2022-03-27T07:10:12.000Z</time></trkpt><trkpt lon="5.734085" lat="51.168127"><ele>30.4</ele><time>2022-03-27T07:10:13.000Z</time></trkpt><trkpt lon="5.734024" lat="51.168172"><ele>30.4</ele><time>2022-03-27T07:10:14.000Z</time></trkpt><trkpt lon="5.733966" lat="51.168218"><ele>30.4</ele><time>2022-03-27T07:10:15.000Z</time></trkpt><trkpt lon="5.733919" lat="51.168267"><ele>30.4</ele><time>2022-03-27T07:10:16.000Z</time></trkpt><trkpt lon="5.733879" lat="51.168313"><ele>30.4</ele><time>2022-03-27T07:10:17.000Z</time></trkpt><trkpt lon="5.733844" lat="51.168359"><ele>30.4</ele><time>2022-03-27T07:10:18.000Z</time></trkpt><trkpt lon="5.733812" lat="51.168401"><ele>30.6</ele><time>2022-03-27T07:10:19.000Z</time></trkpt><trkpt lon="5.733781" lat="51.16844"><ele>30.6</ele><time>2022-03-27T07:10:20.000Z</time></trkpt><trkpt lon="5.733745" lat="51.168471"><ele>30.6</ele><time>2022-03-27T07:10:21.000Z</time></trkpt><trkpt lon="5.733696" lat="51.168497"><ele>30.6</ele><time>2022-03-27T07:10:22.000Z</time></trkpt><trkpt lon="5.733631" lat="51.16851"><ele>30.6</ele><time>2022-03-27T07:10:23.000Z</time></trkpt><trkpt lon="5.733557" lat="51.168507"><ele>30.6</ele><time>2022-03-27T07:10:24.000Z</time></trkpt><trkpt lon="5.733479" lat="51.168492"><ele>30.6</ele><time>2022-03-27T07:10:25.000Z</time></trkpt><trkpt lon="5.733394" lat="51.16847"><ele>30.6</ele><time>2022-03-27T07:10:26.000Z</time></trkpt><trkpt lon="5.733305" lat="51.168443"><ele>30.4</ele><time>2022-03-27T07:10:27.000Z</time></trkpt><trkpt lon="5.733216" lat="51.16842"><ele>30.4</ele><time>2022-03-27T07:10:28.000Z</time></trkpt><trkpt lon="5.733126" lat="51.168397"><ele>30.4</ele><time>2022-03-27T07:10:29.000Z</time></trkpt><trkpt lon="5.733034" lat="51.168371"><ele>30.4</ele><time>2022-03-27T07:10:30.000Z</time></trkpt><trkpt lon="5.73294" lat="51.16834"><ele>30.4</ele><time>2022-03-27T07:10:31.000Z</time></trkpt><trkpt lon="5.732847" lat="51.168314"><ele>30.4</ele><time>2022-03-27T07:10:32.000Z</time></trkpt><trkpt lon="5.73275" lat="51.168286"><ele>30.4</ele><time>2022-03-27T07:10:33.000Z</time></trkpt><trkpt lon="5.732656" lat="51.16826"><ele>30.4</ele><time>2022-03-27T07:10:34.000Z</time></trkpt><trkpt lon="5.732557" lat="51.16824"><ele>30.6</ele><time>2022-03-27T07:10:35.000Z</time></trkpt><trkpt lon="5.732459" lat="51.168229"><ele>30.6</ele><time>2022-03-27T07:10:36.000Z</time></trkpt><trkpt lon="5.732356" lat="51.168225"><ele>30.6</ele><time>2022-03-27T07:10:37.000Z</time></trkpt><trkpt lon="5.732255" lat="51.168221"><ele>30.6</ele><time>2022-03-27T07:10:38.000Z</time></trkpt><trkpt lon="5.732146" lat="51.168224"><ele>30.6</ele><time>2022-03-27T07:10:39.000Z</time></trkpt><trkpt lon="5.732042" lat="51.168228"><ele>30.6</ele><time>2022-03-27T07:10:40.000Z</time></trkpt><trkpt lon="5.731938" lat="51.168235"><ele>30.6</ele><time>2022-03-27T07:10:41.000Z</time></trkpt><trkpt lon="5.731833" lat="51.168243"><ele>30.6</ele><time>2022-03-27T07:10:42.000Z</time></trkpt><trkpt lon="5.731729" lat="51.168251"><ele>30.6</ele><time>2022-03-27T07:10:43.000Z</time></trkpt><trkpt lon="5.731624" lat="51.168255"><ele>30.8</ele><time>2022-03-27T07:10:44.000Z</time></trkpt><trkpt lon="5.73152" lat="51.168258"><ele>30.8</ele><time>2022-03-27T07:10:45.000Z</time></trkpt><trkpt lon="5.731421" lat="51.168266"><ele>30.8</ele><time>2022-03-27T07:10:46.000Z</time></trkpt><trkpt lon="5.731316" lat="51.16827"><ele>30.8</ele><time>2022-03-27T07:10:47.000Z</time></trkpt><trkpt lon="5.731212" lat="51.168274"><ele>30.8</ele><time>2022-03-27T07:10:48.000Z</time></trkpt><trkpt lon="5.731107" lat="51.168274"><ele>31</ele><time>2022-03-27T07:10:49.000Z</time></trkpt><trkpt lon="5.731005" lat="51.16827"><ele>31</ele><time>2022-03-27T07:10:50.000Z</time></trkpt><trkpt lon="5.730906" lat="51.168263"><ele>31</ele><time>2022-03-27T07:10:51.000Z</time></trkpt><trkpt lon="5.730812" lat="51.168248"><ele>31</ele><time>2022-03-27T07:10:52.000Z</time></trkpt><trkpt lon="5.730724" lat="51.168233"><ele>31</ele><time>2022-03-27T07:10:53.000Z</time></trkpt><trkpt lon="5.730634" lat="51.168214"><ele>31</ele><time>2022-03-27T07:10:54.000Z</time></trkpt><trkpt lon="5.730548" lat="51.168198"><ele>31</ele><time>2022-03-27T07:10:55.000Z</time></trkpt><trkpt lon="5.730455" lat="51.168201"><ele>31</ele><time>2022-03-27T07:10:56.000Z</time></trkpt><trkpt lon="5.730361" lat="51.168216"><ele>31</ele><time>2022-03-27T07:10:57.000Z</time></trkpt><trkpt lon="5.730264" lat="51.168235"><ele>31</ele><time>2022-03-27T07:10:58.000Z</time></trkpt><trkpt lon="5.730163" lat="51.16825"><ele>31</ele><time>2022-03-27T07:10:59.000Z</time></trkpt><trkpt lon="5.73006" lat="51.168258"><ele>31</ele><time>2022-03-27T07:11:00.000Z</time></trkpt><trkpt lon="5.729952" lat="51.168266"><ele>30.8</ele><time>2022-03-27T07:11:01.000Z</time></trkpt><trkpt lon="5.729844" lat="51.168274"><ele>30.8</ele><time>2022-03-27T07:11:02.000Z</time></trkpt><trkpt lon="5.729735" lat="51.168281"><ele>30.6</ele><time>2022-03-27T07:11:03.000Z</time></trkpt><trkpt lon="5.729627" lat="51.168292"><ele>30.6</ele><time>2022-03-27T07:11:04.000Z</time></trkpt><trkpt lon="5.729518" lat="51.168304"><ele>30.4</ele><time>2022-03-27T07:11:05.000Z</time></trkpt><trkpt lon="5.729412" lat="51.168319"><ele>30.4</ele><time>2022-03-27T07:11:06.000Z</time></trkpt><trkpt lon="5.729304" lat="51.168338"><ele>30.4</ele><time>2022-03-27T07:11:07.000Z</time></trkpt><trkpt lon="5.729204" lat="51.168352"><ele>30.4</ele><time>2022-03-27T07:11:08.000Z</time></trkpt><trkpt lon="5.729087" lat="51.168368"><ele>30.4</ele><time>2022-03-27T07:11:09.000Z</time></trkpt><trkpt lon="5.728978" lat="51.168387"><ele>30.4</ele><time>2022-03-27T07:11:10.000Z</time></trkpt><trkpt lon="5.728874" lat="51.168402"><ele>30.4</ele><time>2022-03-27T07:11:11.000Z</time></trkpt><trkpt lon="5.728766" lat="51.168418"><ele>30.4</ele><time>2022-03-27T07:11:12.000Z</time></trkpt><trkpt lon="5.728663" lat="51.168437"><ele>30.2</ele><time>2022-03-27T07:11:13.000Z</time></trkpt><trkpt lon="5.728558" lat="51.168456"><ele>30.2</ele><time>2022-03-27T07:11:14.000Z</time></trkpt><trkpt lon="5.728452" lat="51.168471"><ele>30.2</ele><time>2022-03-27T07:11:15.000Z</time></trkpt><trkpt lon="5.728345" lat="51.16849"><ele>30.2</ele><time>2022-03-27T07:11:16.000Z</time></trkpt><trkpt lon="5.728239" lat="51.168509"><ele>30</ele><time>2022-03-27T07:11:17.000Z</time></trkpt><trkpt lon="5.728132" lat="51.168525"><ele>30</ele><time>2022-03-27T07:11:18.000Z</time></trkpt><trkpt lon="5.728025" lat="51.168544"><ele>30</ele><time>2022-03-27T07:11:19.000Z</time></trkpt><trkpt lon="5.72792" lat="51.168559"><ele>29.8</ele><time>2022-03-27T07:11:20.000Z</time></trkpt><trkpt lon="5.727811" lat="51.168575"><ele>29.8</ele><time>2022-03-27T07:11:21.000Z</time></trkpt><trkpt lon="5.727703" lat="51.16859"><ele>29.8</ele><time>2022-03-27T07:11:22.000Z</time></trkpt><trkpt lon="5.7276" lat="51.168601"><ele>30</ele><time>2022-03-27T07:11:23.000Z</time></trkpt><trkpt lon="5.727495" lat="51.168616"><ele>30</ele><time>2022-03-27T07:11:24.000Z</time></trkpt><trkpt lon="5.727389" lat="51.168632"><ele>30</ele><time>2022-03-27T07:11:25.000Z</time></trkpt><trkpt lon="5.727284" lat="51.168643"><ele>30</ele><time>2022-03-27T07:11:26.000Z</time></trkpt><trkpt lon="5.727178" lat="51.168651"><ele>30</ele><time>2022-03-27T07:11:27.000Z</time></trkpt><trkpt lon="5.727075" lat="51.168666"><ele>30</ele><time>2022-03-27T07:11:28.000Z</time></trkpt><trkpt lon="5.726966" lat="51.168674"><ele>30</ele><time>2022-03-27T07:11:29.000Z</time></trkpt><trkpt lon="5.726858" lat="51.168685"><ele>30</ele><time>2022-03-27T07:11:30.000Z</time></trkpt><trkpt lon="5.72675" lat="51.168693"><ele>29.8</ele><time>2022-03-27T07:11:31.000Z</time></trkpt><trkpt lon="5.726643" lat="51.168701"><ele>29.8</ele><time>2022-03-27T07:11:32.000Z</time></trkpt><trkpt lon="5.726533" lat="51.168708"><ele>29.6</ele><time>2022-03-27T07:11:33.000Z</time></trkpt><trkpt lon="5.726422" lat="51.168716"><ele>29.6</ele><time>2022-03-27T07:11:34.000Z</time></trkpt><trkpt lon="5.726312" lat="51.168727"><ele>29.6</ele><time>2022-03-27T07:11:35.000Z</time></trkpt><trkpt lon="5.726208" lat="51.168731"><ele>29.6</ele><time>2022-03-27T07:11:36.000Z</time></trkpt><trkpt lon="5.726101" lat="51.168743"><ele>29.6</ele><time>2022-03-27T07:11:37.000Z</time></trkpt><trkpt lon="5.725995" lat="51.16875"><ele>29.8</ele><time>2022-03-27T07:11:38.000Z</time></trkpt><trkpt lon="5.725893" lat="51.168758"><ele>29.8</ele><time>2022-03-27T07:11:39.000Z</time></trkpt><trkpt lon="5.725783" lat="51.168766"><ele>29.8</ele><time>2022-03-27T07:11:40.000Z</time></trkpt><trkpt lon="5.725676" lat="51.16877"><ele>29.8</ele><time>2022-03-27T07:11:41.000Z</time></trkpt><trkpt lon="5.725571" lat="51.168781"><ele>29.8</ele><time>2022-03-27T07:11:42.000Z</time></trkpt><trkpt lon="5.725463" lat="51.168788"><ele>29.6</ele><time>2022-03-27T07:11:43.000Z</time></trkpt><trkpt lon="5.725354" lat="51.168796"><ele>29.6</ele><time>2022-03-27T07:11:44.000Z</time></trkpt><trkpt lon="5.725246" lat="51.168804"><ele>29.6</ele><time>2022-03-27T07:11:45.000Z</time></trkpt><trkpt lon="5.725137" lat="51.168811"><ele>29.6</ele><time>2022-03-27T07:11:46.000Z</time></trkpt><trkpt lon="5.725031" lat="51.168822"><ele>29.8</ele><time>2022-03-27T07:11:47.000Z</time></trkpt><trkpt lon="5.724921" lat="51.16883"><ele>29.8</ele><time>2022-03-27T07:11:48.000Z</time></trkpt><trkpt lon="5.724811" lat="51.168838"><ele>29.8</ele><time>2022-03-27T07:11:49.000Z</time></trkpt><trkpt lon="5.724698" lat="51.168846"><ele>29.8</ele><time>2022-03-27T07:11:50.000Z</time></trkpt><trkpt lon="5.72458" lat="51.16885"><ele>30</ele><time>2022-03-27T07:11:51.000Z</time></trkpt><trkpt lon="5.724466" lat="51.168857"><ele>30</ele><time>2022-03-27T07:11:52.000Z</time></trkpt><trkpt lon="5.724352" lat="51.168865"><ele>30</ele><time>2022-03-27T07:11:53.000Z</time></trkpt><trkpt lon="5.724243" lat="51.168869"><ele>30</ele><time>2022-03-27T07:11:54.000Z</time></trkpt><trkpt lon="5.724129" lat="51.168876"><ele>29.8</ele><time>2022-03-27T07:11:55.000Z</time></trkpt><trkpt lon="5.724016" lat="51.168887"><ele>29.8</ele><time>2022-03-27T07:11:56.000Z</time></trkpt><trkpt lon="5.723902" lat="51.168895"><ele>29.6</ele><time>2022-03-27T07:11:57.000Z</time></trkpt><trkpt lon="5.723791" lat="51.16891"><ele>29.6</ele><time>2022-03-27T07:11:58.000Z</time></trkpt><trkpt lon="5.72368" lat="51.168918"><ele>29.4</ele><time>2022-03-27T07:11:59.000Z</time></trkpt><trkpt lon="5.723569" lat="51.16893"><ele>29.4</ele><time>2022-03-27T07:12:00.000Z</time></trkpt><trkpt lon="5.723464" lat="51.168941"><ele>29.4</ele><time>2022-03-27T07:12:01.000Z</time></trkpt><trkpt lon="5.723353" lat="51.168945"><ele>29.4</ele><time>2022-03-27T07:12:02.000Z</time></trkpt><trkpt lon="5.723239" lat="51.168956"><ele>29.4</ele><time>2022-03-27T07:12:03.000Z</time></trkpt><trkpt lon="5.723127" lat="51.168964"><ele>29.2</ele><time>2022-03-27T07:12:04.000Z</time></trkpt><trkpt lon="5.723015" lat="51.168968"><ele>29.2</ele><time>2022-03-27T07:12:05.000Z</time></trkpt><trkpt lon="5.722909" lat="51.168975"><ele>29.2</ele><time>2022-03-27T07:12:06.000Z</time></trkpt><trkpt lon="5.722796" lat="51.168979"><ele>29.2</ele><time>2022-03-27T07:12:07.000Z</time></trkpt><trkpt lon="5.722686" lat="51.16898"><ele>29</ele><time>2022-03-27T07:12:08.000Z</time></trkpt><trkpt lon="5.722571" lat="51.16898"><ele>29</ele><time>2022-03-27T07:12:09.000Z</time></trkpt><trkpt lon="5.722459" lat="51.16898"><ele>29.2</ele><time>2022-03-27T07:12:10.000Z</time></trkpt><trkpt lon="5.72235" lat="51.16898"><ele>29.4</ele><time>2022-03-27T07:12:11.000Z</time></trkpt><trkpt lon="5.722236" lat="51.168976"><ele>29.4</ele><time>2022-03-27T07:12:12.000Z</time></trkpt><trkpt lon="5.722126" lat="51.168976"><ele>29.4</ele><time>2022-03-27T07:12:13.000Z</time></trkpt><trkpt lon="5.72202" lat="51.168972"><ele>29.6</ele><time>2022-03-27T07:12:14.000Z</time></trkpt><trkpt lon="5.721908" lat="51.168972"><ele>29.8</ele><time>2022-03-27T07:12:15.000Z</time></trkpt><trkpt lon="5.721797" lat="51.168968"><ele>29.8</ele><time>2022-03-27T07:12:16.000Z</time></trkpt><trkpt lon="5.721688" lat="51.168965"><ele>29.8</ele><time>2022-03-27T07:12:17.000Z</time></trkpt><trkpt lon="5.721576" lat="51.168961"><ele>29.8</ele><time>2022-03-27T07:12:18.000Z</time></trkpt><trkpt lon="5.721462" lat="51.168957"><ele>29.8</ele><time>2022-03-27T07:12:19.000Z</time></trkpt><trkpt lon="5.721352" lat="51.16895"><ele>29.8</ele><time>2022-03-27T07:12:20.000Z</time></trkpt><trkpt lon="5.721242" lat="51.168942"><ele>30</ele><time>2022-03-27T07:12:21.000Z</time></trkpt><trkpt lon="5.721132" lat="51.168934"><ele>30</ele><time>2022-03-27T07:12:22.000Z</time></trkpt><trkpt lon="5.721025" lat="51.168927"><ele>30</ele><time>2022-03-27T07:12:23.000Z</time></trkpt><trkpt lon="5.720917" lat="51.168916"><ele>30</ele><time>2022-03-27T07:12:24.000Z</time></trkpt><trkpt lon="5.720805" lat="51.168904"><ele>29.8</ele><time>2022-03-27T07:12:25.000Z</time></trkpt><trkpt lon="5.720697" lat="51.168892"><ele>30</ele><time>2022-03-27T07:12:26.000Z</time></trkpt><trkpt lon="5.720591" lat="51.168881"><ele>30</ele><time>2022-03-27T07:12:27.000Z</time></trkpt><trkpt lon="5.720484" lat="51.16887"><ele>30</ele><time>2022-03-27T07:12:28.000Z</time></trkpt><trkpt lon="5.720382" lat="51.168859"><ele>30</ele><time>2022-03-27T07:12:29.000Z</time></trkpt><trkpt lon="5.720273" lat="51.168843"><ele>29.8</ele><time>2022-03-27T07:12:30.000Z</time></trkpt><trkpt lon="5.720167" lat="51.168828"><ele>29.8</ele><time>2022-03-27T07:12:31.000Z</time></trkpt><trkpt lon="5.720062" lat="51.168813"><ele>29.8</ele><time>2022-03-27T07:12:32.000Z</time></trkpt><trkpt lon="5.719956" lat="51.168793"><ele>29.8</ele><time>2022-03-27T07:12:33.000Z</time></trkpt><trkpt lon="5.719853" lat="51.168775"><ele>29.8</ele><time>2022-03-27T07:12:34.000Z</time></trkpt><trkpt lon="5.719749" lat="51.168759"><ele>29.8</ele><time>2022-03-27T07:12:35.000Z</time></trkpt><trkpt lon="5.719643" lat="51.16874"><ele>29.8</ele><time>2022-03-27T07:12:36.000Z</time></trkpt><trkpt lon="5.719537" lat="51.168721"><ele>29.8</ele><time>2022-03-27T07:12:37.000Z</time></trkpt><trkpt lon="5.719429" lat="51.168706"><ele>29.6</ele><time>2022-03-27T07:12:38.000Z</time></trkpt><trkpt lon="5.719321" lat="51.168683"><ele>29.6</ele><time>2022-03-27T07:12:39.000Z</time></trkpt><trkpt lon="5.719211" lat="51.168668"><ele>29.6</ele><time>2022-03-27T07:12:40.000Z</time></trkpt><trkpt lon="5.719105" lat="51.168649"><ele>29.6</ele><time>2022-03-27T07:12:41.000Z</time></trkpt><trkpt lon="5.718992" lat="51.168626"><ele>29.6</ele><time>2022-03-27T07:12:42.000Z</time></trkpt><trkpt lon="5.718885" lat="51.168611"><ele>29.6</ele><time>2022-03-27T07:12:43.000Z</time></trkpt><trkpt lon="5.718777" lat="51.168588"><ele>29.6</ele><time>2022-03-27T07:12:44.000Z</time></trkpt><trkpt lon="5.718668" lat="51.168569"><ele>29.6</ele><time>2022-03-27T07:12:45.000Z</time></trkpt><trkpt lon="5.718562" lat="51.16855"><ele>29.6</ele><time>2022-03-27T07:12:46.000Z</time></trkpt><trkpt lon="5.718455" lat="51.16853"><ele>29.6</ele><time>2022-03-27T07:12:47.000Z</time></trkpt><trkpt lon="5.718347" lat="51.168508"><ele>29.6</ele><time>2022-03-27T07:12:48.000Z</time></trkpt><trkpt lon="5.718238" lat="51.168488"><ele>29.6</ele><time>2022-03-27T07:12:49.000Z</time></trkpt><trkpt lon="5.718131" lat="51.16847"><ele>29.6</ele><time>2022-03-27T07:12:50.000Z</time></trkpt><trkpt lon="5.718026" lat="51.168451"><ele>29.6</ele><time>2022-03-27T07:12:51.000Z</time></trkpt><trkpt lon="5.717913" lat="51.168431"><ele>29.6</ele><time>2022-03-27T07:12:52.000Z</time></trkpt><trkpt lon="5.717805" lat="51.168412"><ele>29.4</ele><time>2022-03-27T07:12:53.000Z</time></trkpt><trkpt lon="5.717695" lat="51.168393"><ele>29.4</ele><time>2022-03-27T07:12:54.000Z</time></trkpt><trkpt lon="5.717587" lat="51.168374"><ele>29.4</ele><time>2022-03-27T07:12:55.000Z</time></trkpt><trkpt lon="5.717479" lat="51.168351"><ele>29.4</ele><time>2022-03-27T07:12:56.000Z</time></trkpt><trkpt lon="5.717372" lat="51.168336"><ele>29.4</ele><time>2022-03-27T07:12:57.000Z</time></trkpt><trkpt lon="5.717267" lat="51.168317"><ele>29.4</ele><time>2022-03-27T07:12:58.000Z</time></trkpt><trkpt lon="5.717161" lat="51.168298"><ele>29.4</ele><time>2022-03-27T07:12:59.000Z</time></trkpt><trkpt lon="5.717056" lat="51.168279"><ele>29.6</ele><time>2022-03-27T07:13:00.000Z</time></trkpt><trkpt lon="5.716947" lat="51.16826"><ele>29.6</ele><time>2022-03-27T07:13:01.000Z</time></trkpt><trkpt lon="5.716843" lat="51.168241"><ele>29.6</ele><time>2022-03-27T07:13:02.000Z</time></trkpt><trkpt lon="5.716733" lat="51.168218"><ele>29.6</ele><time>2022-03-27T07:13:03.000Z</time></trkpt><trkpt lon="5.716626" lat="51.168198"><ele>29.6</ele><time>2022-03-27T07:13:04.000Z</time></trkpt><trkpt lon="5.716518" lat="51.168179"><ele>29.6</ele><time>2022-03-27T07:13:05.000Z</time></trkpt><trkpt lon="5.71641" lat="51.168153"><ele>29.6</ele><time>2022-03-27T07:13:06.000Z</time></trkpt><trkpt lon="5.716302" lat="51.168126"><ele>29.6</ele><time>2022-03-27T07:13:07.000Z</time></trkpt><trkpt lon="5.716199" lat="51.168104"><ele>29.6</ele><time>2022-03-27T07:13:08.000Z</time></trkpt><trkpt lon="5.716089" lat="51.168077"><ele>29.6</ele><time>2022-03-27T07:13:09.000Z</time></trkpt><trkpt lon="5.715986" lat="51.168047"><ele>29.6</ele><time>2022-03-27T07:13:10.000Z</time></trkpt><trkpt lon="5.715883" lat="51.168023"><ele>29.6</ele><time>2022-03-27T07:13:11.000Z</time></trkpt><trkpt lon="5.715782" lat="51.167997"><ele>29.6</ele><time>2022-03-27T07:13:12.000Z</time></trkpt><trkpt lon="5.715681" lat="51.167967"><ele>29.4</ele><time>2022-03-27T07:13:13.000Z</time></trkpt><trkpt lon="5.715576" lat="51.16794"><ele>29.4</ele><time>2022-03-27T07:13:14.000Z</time></trkpt><trkpt lon="5.71547" lat="51.167909"><ele>29.4</ele><time>2022-03-27T07:13:15.000Z</time></trkpt><trkpt lon="5.715365" lat="51.167879"><ele>29.4</ele><time>2022-03-27T07:13:16.000Z</time></trkpt><trkpt lon="5.715262" lat="51.167848"><ele>29.4</ele><time>2022-03-27T07:13:17.000Z</time></trkpt><trkpt lon="5.71516" lat="51.167818"><ele>29.4</ele><time>2022-03-27T07:13:18.000Z</time></trkpt><trkpt lon="5.715057" lat="51.167784"><ele>29.4</ele><time>2022-03-27T07:13:19.000Z</time></trkpt><trkpt lon="5.714957" lat="51.167757"><ele>29.6</ele><time>2022-03-27T07:13:20.000Z</time></trkpt><trkpt lon="5.714852" lat="51.167726"><ele>29.6</ele><time>2022-03-27T07:13:21.000Z</time></trkpt><trkpt lon="5.714748" lat="51.167696"><ele>29.4</ele><time>2022-03-27T07:13:22.000Z</time></trkpt><trkpt lon="5.714648" lat="51.167665"><ele>29.4</ele><time>2022-03-27T07:13:23.000Z</time></trkpt><trkpt lon="5.714543" lat="51.167635"><ele>29.4</ele><time>2022-03-27T07:13:24.000Z</time></trkpt><trkpt lon="5.714439" lat="51.167605"><ele>29.4</ele><time>2022-03-27T07:13:25.000Z</time></trkpt><trkpt lon="5.714334" lat="51.16757"><ele>29.2</ele><time>2022-03-27T07:13:26.000Z</time></trkpt><trkpt lon="5.714232" lat="51.167543"><ele>29.2</ele><time>2022-03-27T07:13:27.000Z</time></trkpt><trkpt lon="5.714128" lat="51.167509"><ele>29.2</ele><time>2022-03-27T07:13:28.000Z</time></trkpt><trkpt lon="5.71403" lat="51.16748"><ele>29.2</ele><time>2022-03-27T07:13:29.000Z</time></trkpt><trkpt lon="5.713922" lat="51.167444"><ele>29.2</ele><time>2022-03-27T07:13:30.000Z</time></trkpt><trkpt lon="5.713822" lat="51.167414"><ele>29.2</ele><time>2022-03-27T07:13:31.000Z</time></trkpt><trkpt lon="5.713722" lat="51.167383"><ele>29.2</ele><time>2022-03-27T07:13:32.000Z</time></trkpt><trkpt lon="5.713626" lat="51.167349"><ele>29.2</ele><time>2022-03-27T07:13:33.000Z</time></trkpt><trkpt lon="5.713534" lat="51.16731"><ele>29.4</ele><time>2022-03-27T07:13:34.000Z</time></trkpt><trkpt lon="5.713448" lat="51.167269"><ele>29.4</ele><time>2022-03-27T07:13:35.000Z</time></trkpt><trkpt lon="5.713367" lat="51.167223"><ele>29.4</ele><time>2022-03-27T07:13:36.000Z</time></trkpt><trkpt lon="5.713295" lat="51.167175"><ele>29.4</ele><time>2022-03-27T07:13:37.000Z</time></trkpt><trkpt lon="5.713223" lat="51.167124"><ele>29.4</ele><time>2022-03-27T07:13:38.000Z</time></trkpt><trkpt lon="5.713158" lat="51.167071"><ele>29.4</ele><time>2022-03-27T07:13:39.000Z</time></trkpt><trkpt lon="5.713101" lat="51.167014"><ele>29.4</ele><time>2022-03-27T07:13:40.000Z</time></trkpt><trkpt lon="5.713051" lat="51.166953"><ele>29.4</ele><time>2022-03-27T07:13:41.000Z</time></trkpt><trkpt lon="5.71301" lat="51.166889"><ele>29.4</ele><time>2022-03-27T07:13:42.000Z</time></trkpt><trkpt lon="5.712975" lat="51.166824"><ele>29.4</ele><time>2022-03-27T07:13:43.000Z</time></trkpt><trkpt lon="5.71295" lat="51.166756"><ele>29.6</ele><time>2022-03-27T07:13:44.000Z</time></trkpt><trkpt lon="5.71293" lat="51.166684"><ele>29.6</ele><time>2022-03-27T07:13:45.000Z</time></trkpt><trkpt lon="5.712916" lat="51.166616"><ele>29.6</ele><time>2022-03-27T07:13:46.000Z</time></trkpt><trkpt lon="5.712906" lat="51.166543"><ele>29.6</ele><time>2022-03-27T07:13:47.000Z</time></trkpt><trkpt lon="5.712897" lat="51.16647"><ele>29.6</ele><time>2022-03-27T07:13:48.000Z</time></trkpt><trkpt lon="5.712891" lat="51.166398"><ele>29.6</ele><time>2022-03-27T07:13:49.000Z</time></trkpt><trkpt lon="5.712887" lat="51.166325"><ele>29.6</ele><time>2022-03-27T07:13:50.000Z</time></trkpt><trkpt lon="5.712881" lat="51.166253"><ele>29.6</ele><time>2022-03-27T07:13:51.000Z</time></trkpt><trkpt lon="5.712872" lat="51.166176"><ele>29.4</ele><time>2022-03-27T07:13:52.000Z</time></trkpt><trkpt lon="5.712861" lat="51.166103"><ele>29.4</ele><time>2022-03-27T07:13:53.000Z</time></trkpt><trkpt lon="5.712851" lat="51.166027"><ele>29.4</ele><time>2022-03-27T07:13:54.000Z</time></trkpt><trkpt lon="5.712839" lat="51.165955"><ele>29.4</ele><time>2022-03-27T07:13:55.000Z</time></trkpt><trkpt lon="5.712827" lat="51.165882"><ele>29.4</ele><time>2022-03-27T07:13:56.000Z</time></trkpt><trkpt lon="5.712816" lat="51.165811"><ele>29.4</ele><time>2022-03-27T07:13:57.000Z</time></trkpt><trkpt lon="5.712805" lat="51.165738"><ele>29.4</ele><time>2022-03-27T07:13:58.000Z</time></trkpt><trkpt lon="5.712792" lat="51.165664"><ele>29.4</ele><time>2022-03-27T07:13:59.000Z</time></trkpt><trkpt lon="5.712781" lat="51.165593"><ele>29.4</ele><time>2022-03-27T07:14:00.000Z</time></trkpt><trkpt lon="5.712769" lat="51.165519"><ele>29.4</ele><time>2022-03-27T07:14:01.000Z</time></trkpt><trkpt lon="5.712757" lat="51.165447"><ele>29.6</ele><time>2022-03-27T07:14:02.000Z</time></trkpt><trkpt lon="5.712747" lat="51.165376"><ele>29.4</ele><time>2022-03-27T07:14:03.000Z</time></trkpt><trkpt lon="5.712736" lat="51.165301"><ele>29.6</ele><time>2022-03-27T07:14:04.000Z</time></trkpt><trkpt lon="5.712723" lat="51.165234"><ele>29.6</ele><time>2022-03-27T07:14:05.000Z</time></trkpt><trkpt lon="5.71271" lat="51.165161"><ele>29.6</ele><time>2022-03-27T07:14:06.000Z</time></trkpt><trkpt lon="5.712699" lat="51.165088"><ele>29.6</ele><time>2022-03-27T07:14:07.000Z</time></trkpt><trkpt lon="5.712689" lat="51.165018"><ele>29.6</ele><time>2022-03-27T07:14:08.000Z</time></trkpt><trkpt lon="5.712682" lat="51.164945"><ele>29.6</ele><time>2022-03-27T07:14:09.000Z</time></trkpt><trkpt lon="5.712676" lat="51.164876"><ele>29.6</ele><time>2022-03-27T07:14:10.000Z</time></trkpt><trkpt lon="5.712667" lat="51.164803"><ele>29.6</ele><time>2022-03-27T07:14:11.000Z</time></trkpt><trkpt lon="5.712656" lat="51.16473"><ele>29.6</ele><time>2022-03-27T07:14:12.000Z</time></trkpt><trkpt lon="5.712646" lat="51.164658"><ele>29.6</ele><time>2022-03-27T07:14:13.000Z</time></trkpt><trkpt lon="5.712637" lat="51.164585"><ele>29.6</ele><time>2022-03-27T07:14:14.000Z</time></trkpt><trkpt lon="5.71263" lat="51.164513"><ele>29.6</ele><time>2022-03-27T07:14:15.000Z</time></trkpt><trkpt lon="5.712622" lat="51.16444"><ele>29.6</ele><time>2022-03-27T07:14:16.000Z</time></trkpt><trkpt lon="5.712612" lat="51.164368"><ele>29.6</ele><time>2022-03-27T07:14:17.000Z</time></trkpt><trkpt lon="5.712602" lat="51.164296"><ele>29.6</ele><time>2022-03-27T07:14:18.000Z</time></trkpt><trkpt lon="5.712592" lat="51.164223"><ele>29.6</ele><time>2022-03-27T07:14:19.000Z</time></trkpt><trkpt lon="5.712585" lat="51.164155"><ele>29.6</ele><time>2022-03-27T07:14:20.000Z</time></trkpt><trkpt lon="5.712577" lat="51.164078"><ele>29.6</ele><time>2022-03-27T07:14:21.000Z</time></trkpt><trkpt lon="5.712571" lat="51.164006"><ele>29.6</ele><time>2022-03-27T07:14:22.000Z</time></trkpt><trkpt lon="5.712559" lat="51.163934"><ele>29.6</ele><time>2022-03-27T07:14:23.000Z</time></trkpt><trkpt lon="5.712549" lat="51.163856"><ele>29.4</ele><time>2022-03-27T07:14:24.000Z</time></trkpt><trkpt lon="5.712541" lat="51.163784"><ele>29.4</ele><time>2022-03-27T07:14:25.000Z</time></trkpt><trkpt lon="5.712532" lat="51.163711"><ele>29.4</ele><time>2022-03-27T07:14:26.000Z</time></trkpt><trkpt lon="5.712527" lat="51.16364"><ele>29.4</ele><time>2022-03-27T07:14:27.000Z</time></trkpt><trkpt lon="5.712525" lat="51.163568"><ele>29.4</ele><time>2022-03-27T07:14:28.000Z</time></trkpt><trkpt lon="5.712531" lat="51.163494"><ele>29.4</ele><time>2022-03-27T07:14:29.000Z</time></trkpt><trkpt lon="5.712543" lat="51.163423"><ele>29.4</ele><time>2022-03-27T07:14:30.000Z</time></trkpt><trkpt lon="5.712557" lat="51.163351"><ele>29.4</ele><time>2022-03-27T07:14:31.000Z</time></trkpt><trkpt lon="5.712576" lat="51.163281"><ele>29.4</ele><time>2022-03-27T07:14:32.000Z</time></trkpt><trkpt lon="5.712594" lat="51.163208"><ele>29.4</ele><time>2022-03-27T07:14:33.000Z</time></trkpt><trkpt lon="5.712609" lat="51.163135"><ele>29.4</ele><time>2022-03-27T07:14:34.000Z</time></trkpt><trkpt lon="5.712618" lat="51.163062"><ele>29.4</ele><time>2022-03-27T07:14:35.000Z</time></trkpt><trkpt lon="5.71262" lat="51.162991"><ele>29.4</ele><time>2022-03-27T07:14:36.000Z</time></trkpt><trkpt lon="5.712615" lat="51.162922"><ele>29.4</ele><time>2022-03-27T07:14:37.000Z</time></trkpt><trkpt lon="5.712606" lat="51.16285"><ele>29.4</ele><time>2022-03-27T07:14:38.000Z</time></trkpt><trkpt lon="5.712594" lat="51.162777"><ele>29.4</ele><time>2022-03-27T07:14:39.000Z</time></trkpt><trkpt lon="5.712579" lat="51.162709"><ele>29.6</ele><time>2022-03-27T07:14:40.000Z</time></trkpt><trkpt lon="5.712562" lat="51.162639"><ele>29.6</ele><time>2022-03-27T07:14:41.000Z</time></trkpt><trkpt lon="5.712541" lat="51.162567"><ele>29.6</ele><time>2022-03-27T07:14:42.000Z</time></trkpt><trkpt lon="5.71252" lat="51.162499"><ele>29.6</ele><time>2022-03-27T07:14:43.000Z</time></trkpt><trkpt lon="5.712495" lat="51.162429"><ele>29.6</ele><time>2022-03-27T07:14:44.000Z</time></trkpt><trkpt lon="5.712466" lat="51.162361"><ele>29.6</ele><time>2022-03-27T07:14:45.000Z</time></trkpt><trkpt lon="5.712436" lat="51.162292"><ele>29.4</ele><time>2022-03-27T07:14:46.000Z</time></trkpt><trkpt lon="5.712405" lat="51.162229"><ele>29.4</ele><time>2022-03-27T07:14:47.000Z</time></trkpt><trkpt lon="5.712368" lat="51.162159"><ele>29.4</ele><time>2022-03-27T07:14:48.000Z</time></trkpt><trkpt lon="5.712331" lat="51.162091"><ele>29.2</ele><time>2022-03-27T07:14:49.000Z</time></trkpt><trkpt lon="5.712292" lat="51.162027"><ele>29.4</ele><time>2022-03-27T07:14:50.000Z</time></trkpt><trkpt lon="5.712249" lat="51.16196"><ele>29.4</ele><time>2022-03-27T07:14:51.000Z</time></trkpt><trkpt lon="5.712204" lat="51.161896"><ele>29.4</ele><time>2022-03-27T07:14:52.000Z</time></trkpt><trkpt lon="5.712157" lat="51.16183"><ele>29.4</ele><time>2022-03-27T07:14:53.000Z</time></trkpt><trkpt lon="5.712109" lat="51.161762"><ele>29.4</ele><time>2022-03-27T07:14:54.000Z</time></trkpt><trkpt lon="5.712061" lat="51.161701"><ele>29.4</ele><time>2022-03-27T07:14:55.000Z</time></trkpt><trkpt lon="5.712011" lat="51.161633"><ele>29.4</ele><time>2022-03-27T07:14:56.000Z</time></trkpt><trkpt lon="5.711963" lat="51.161568"><ele>29.4</ele><time>2022-03-27T07:14:57.000Z</time></trkpt><trkpt lon="5.711914" lat="51.161502"><ele>29.4</ele><time>2022-03-27T07:14:58.000Z</time></trkpt><trkpt lon="5.711864" lat="51.161442"><ele>29.4</ele><time>2022-03-27T07:14:59.000Z</time></trkpt><trkpt lon="5.711812" lat="51.161378"><ele>29.4</ele><time>2022-03-27T07:15:00.000Z</time></trkpt><trkpt lon="5.711759" lat="51.161314"><ele>29.2</ele><time>2022-03-27T07:15:01.000Z</time></trkpt><trkpt lon="5.711706" lat="51.161248"><ele>29.2</ele><time>2022-03-27T07:15:02.000Z</time></trkpt><trkpt lon="5.711655" lat="51.161186"><ele>29.2</ele><time>2022-03-27T07:15:03.000Z</time></trkpt><trkpt lon="5.711602" lat="51.161121"><ele>29.2</ele><time>2022-03-27T07:15:04.000Z</time></trkpt><trkpt lon="5.711551" lat="51.161056"><ele>29.2</ele><time>2022-03-27T07:15:05.000Z</time></trkpt><trkpt lon="5.711501" lat="51.160992"><ele>29.2</ele><time>2022-03-27T07:15:06.000Z</time></trkpt><trkpt lon="5.71145" lat="51.160927"><ele>29.2</ele><time>2022-03-27T07:15:07.000Z</time></trkpt><trkpt lon="5.711402" lat="51.160869"><ele>29.2</ele><time>2022-03-27T07:15:08.000Z</time></trkpt><trkpt lon="5.711343" lat="51.160797"><ele>29</ele><time>2022-03-27T07:15:09.000Z</time></trkpt><trkpt lon="5.711291" lat="51.160735"><ele>29</ele><time>2022-03-27T07:15:10.000Z</time></trkpt><trkpt lon="5.711239" lat="51.160674"><ele>29</ele><time>2022-03-27T07:15:11.000Z</time></trkpt><trkpt lon="5.711187" lat="51.160609"><ele>29</ele><time>2022-03-27T07:15:12.000Z</time></trkpt><trkpt lon="5.711138" lat="51.160546"><ele>29</ele><time>2022-03-27T07:15:13.000Z</time></trkpt><trkpt lon="5.711089" lat="51.160483"><ele>29</ele><time>2022-03-27T07:15:14.000Z</time></trkpt><trkpt lon="5.711041" lat="51.160423"><ele>29</ele><time>2022-03-27T07:15:15.000Z</time></trkpt><trkpt lon="5.710992" lat="51.160361"><ele>29</ele><time>2022-03-27T07:15:16.000Z</time></trkpt><trkpt lon="5.710946" lat="51.160301"><ele>29</ele><time>2022-03-27T07:15:17.000Z</time></trkpt><trkpt lon="5.710902" lat="51.160243"><ele>29</ele><time>2022-03-27T07:15:18.000Z</time></trkpt><trkpt lon="5.710864" lat="51.160193"><ele>29</ele><time>2022-03-27T07:15:19.000Z</time></trkpt><trkpt lon="5.710826" lat="51.160137"><ele>29</ele><time>2022-03-27T07:15:20.000Z</time></trkpt><trkpt lon="5.710796" lat="51.160084"><ele>29</ele><time>2022-03-27T07:15:21.000Z</time></trkpt><trkpt lon="5.710768" lat="51.160033"><ele>29</ele><time>2022-03-27T07:15:22.000Z</time></trkpt><trkpt lon="5.710743" lat="51.15998"><ele>29</ele><time>2022-03-27T07:15:23.000Z</time></trkpt><trkpt lon="5.710715" lat="51.159926"><ele>29</ele><time>2022-03-27T07:15:24.000Z</time></trkpt><trkpt lon="5.710666" lat="51.159873"><ele>28.8</ele><time>2022-03-27T07:15:25.000Z</time></trkpt><trkpt lon="5.710592" lat="51.159834"><ele>28.8</ele><time>2022-03-27T07:15:26.000Z</time></trkpt><trkpt lon="5.710495" lat="51.159807"><ele>28.6</ele><time>2022-03-27T07:15:27.000Z</time></trkpt><trkpt lon="5.710384" lat="51.159788"><ele>28.6</ele><time>2022-03-27T07:15:28.000Z</time></trkpt><trkpt lon="5.710269" lat="51.159765"><ele>28.4</ele><time>2022-03-27T07:15:29.000Z</time></trkpt><trkpt lon="5.710151" lat="51.159738"><ele>28.4</ele><time>2022-03-27T07:15:30.000Z</time></trkpt><trkpt lon="5.710032" lat="51.159711"><ele>28.4</ele><time>2022-03-27T07:15:31.000Z</time></trkpt><trkpt lon="5.709912" lat="51.159688"><ele>28.2</ele><time>2022-03-27T07:15:32.000Z</time></trkpt><trkpt lon="5.709795" lat="51.159666"><ele>28</ele><time>2022-03-27T07:15:33.000Z</time></trkpt><trkpt lon="5.709677" lat="51.159639"><ele>28</ele><time>2022-03-27T07:15:34.000Z</time></trkpt><trkpt lon="5.709564" lat="51.159616"><ele>28</ele><time>2022-03-27T07:15:35.000Z</time></trkpt><trkpt lon="5.709455" lat="51.159597"><ele>28</ele><time>2022-03-27T07:15:36.000Z</time></trkpt><trkpt lon="5.709345" lat="51.15957"><ele>27.8</ele><time>2022-03-27T07:15:37.000Z</time></trkpt><trkpt lon="5.709242" lat="51.159547"><ele>27.8</ele><time>2022-03-27T07:15:38.000Z</time></trkpt><trkpt lon="5.709139" lat="51.159528"><ele>27.6</ele><time>2022-03-27T07:15:39.000Z</time></trkpt><trkpt lon="5.709037" lat="51.159502"><ele>27.6</ele><time>2022-03-27T07:15:40.000Z</time></trkpt><trkpt lon="5.708933" lat="51.159482"><ele>27.6</ele><time>2022-03-27T07:15:41.000Z</time></trkpt><trkpt lon="5.708826" lat="51.159459"><ele>27.6</ele><time>2022-03-27T07:15:42.000Z</time></trkpt><trkpt lon="5.708717" lat="51.15944"><ele>27.4</ele><time>2022-03-27T07:15:43.000Z</time></trkpt><trkpt lon="5.708605" lat="51.159428"><ele>27.4</ele><time>2022-03-27T07:15:44.000Z</time></trkpt><trkpt lon="5.70849" lat="51.15942"><ele>27.4</ele><time>2022-03-27T07:15:45.000Z</time></trkpt><trkpt lon="5.708376" lat="51.159416"><ele>27.4</ele><time>2022-03-27T07:15:46.000Z</time></trkpt><trkpt lon="5.708258" lat="51.159409"><ele>27.4</ele><time>2022-03-27T07:15:47.000Z</time></trkpt><trkpt lon="5.708143" lat="51.159405"><ele>27.2</ele><time>2022-03-27T07:15:48.000Z</time></trkpt><trkpt lon="5.708026" lat="51.159398"><ele>27.2</ele><time>2022-03-27T07:15:49.000Z</time></trkpt><trkpt lon="5.707918" lat="51.159394"><ele>27.2</ele><time>2022-03-27T07:15:50.000Z</time></trkpt><trkpt lon="5.707798" lat="51.159386"><ele>27.2</ele><time>2022-03-27T07:15:51.000Z</time></trkpt><trkpt lon="5.707682" lat="51.159382"><ele>27.4</ele><time>2022-03-27T07:15:52.000Z</time></trkpt><trkpt lon="5.707567" lat="51.159382"><ele>27.4</ele><time>2022-03-27T07:15:53.000Z</time></trkpt><trkpt lon="5.70745" lat="51.159382"><ele>27.2</ele><time>2022-03-27T07:15:54.000Z</time></trkpt><trkpt lon="5.707335" lat="51.159378"><ele>27.2</ele><time>2022-03-27T07:15:55.000Z</time></trkpt><trkpt lon="5.707218" lat="51.159374"><ele>27.2</ele><time>2022-03-27T07:15:56.000Z</time></trkpt><trkpt lon="5.707105" lat="51.159374"><ele>27.2</ele><time>2022-03-27T07:15:57.000Z</time></trkpt><trkpt lon="5.70698" lat="51.159371"><ele>27.2</ele><time>2022-03-27T07:15:58.000Z</time></trkpt><trkpt lon="5.706862" lat="51.15937"><ele>27.2</ele><time>2022-03-27T07:15:59.000Z</time></trkpt><trkpt lon="5.706745" lat="51.15937"><ele>27.2</ele><time>2022-03-27T07:16:00.000Z</time></trkpt><trkpt lon="5.706627" lat="51.159374"><ele>27.2</ele><time>2022-03-27T07:16:01.000Z</time></trkpt><trkpt lon="5.70651" lat="51.159378"><ele>27.2</ele><time>2022-03-27T07:16:02.000Z</time></trkpt><trkpt lon="5.706393" lat="51.159382"><ele>27.2</ele><time>2022-03-27T07:16:03.000Z</time></trkpt><trkpt lon="5.706276" lat="51.159389"><ele>27.2</ele><time>2022-03-27T07:16:04.000Z</time></trkpt><trkpt lon="5.706164" lat="51.159397"><ele>27</ele><time>2022-03-27T07:16:05.000Z</time></trkpt><trkpt lon="5.706049" lat="51.159401"><ele>27</ele><time>2022-03-27T07:16:06.000Z</time></trkpt><trkpt lon="5.705934" lat="51.159404"><ele>27</ele><time>2022-03-27T07:16:07.000Z</time></trkpt><trkpt lon="5.70582" lat="51.159405"><ele>27</ele><time>2022-03-27T07:16:08.000Z</time></trkpt><trkpt lon="5.7057" lat="51.159408"><ele>27</ele><time>2022-03-27T07:16:09.000Z</time></trkpt><trkpt lon="5.705584" lat="51.159409"><ele>27.2</ele><time>2022-03-27T07:16:10.000Z</time></trkpt><trkpt lon="5.705465" lat="51.159416"><ele>27.2</ele><time>2022-03-27T07:16:11.000Z</time></trkpt><trkpt lon="5.705348" lat="51.159416"><ele>27.2</ele><time>2022-03-27T07:16:12.000Z</time></trkpt><trkpt lon="5.705231" lat="51.159413"><ele>27.2</ele><time>2022-03-27T07:16:13.000Z</time></trkpt><trkpt lon="5.705113" lat="51.159402"><ele>27.2</ele><time>2022-03-27T07:16:14.000Z</time></trkpt><trkpt lon="5.704998" lat="51.159387"><ele>27.2</ele><time>2022-03-27T07:16:15.000Z</time></trkpt><trkpt lon="5.704882" lat="51.159368"><ele>27</ele><time>2022-03-27T07:16:16.000Z</time></trkpt><trkpt lon="5.704767" lat="51.159342"><ele>27</ele><time>2022-03-27T07:16:17.000Z</time></trkpt><trkpt lon="5.704653" lat="51.159315"><ele>27</ele><time>2022-03-27T07:16:18.000Z</time></trkpt><trkpt lon="5.704544" lat="51.159288"><ele>27</ele><time>2022-03-27T07:16:19.000Z</time></trkpt><trkpt lon="5.704437" lat="51.159262"><ele>27</ele><time>2022-03-27T07:16:20.000Z</time></trkpt><trkpt lon="5.704328" lat="51.159235"><ele>27.2</ele><time>2022-03-27T07:16:21.000Z</time></trkpt><trkpt lon="5.704219" lat="51.159212"><ele>27.2</ele><time>2022-03-27T07:16:22.000Z</time></trkpt><trkpt lon="5.704116" lat="51.159196"><ele>27.2</ele><time>2022-03-27T07:16:23.000Z</time></trkpt><trkpt lon="5.704006" lat="51.159184"><ele>27.2</ele><time>2022-03-27T07:16:24.000Z</time></trkpt><trkpt lon="5.703896" lat="51.159176"><ele>27.2</ele><time>2022-03-27T07:16:25.000Z</time></trkpt><trkpt lon="5.703789" lat="51.159172"><ele>27.2</ele><time>2022-03-27T07:16:26.000Z</time></trkpt><trkpt lon="5.703688" lat="51.159168"><ele>27.2</ele><time>2022-03-27T07:16:27.000Z</time></trkpt><trkpt lon="5.703585" lat="51.159165"><ele>27.2</ele><time>2022-03-27T07:16:28.000Z</time></trkpt><trkpt lon="5.703477" lat="51.159157"><ele>27.2</ele><time>2022-03-27T07:16:29.000Z</time></trkpt><trkpt lon="5.703365" lat="51.159153"><ele>27.2</ele><time>2022-03-27T07:16:30.000Z</time></trkpt><trkpt lon="5.703249" lat="51.159149"><ele>27.2</ele><time>2022-03-27T07:16:31.000Z</time></trkpt><trkpt lon="5.703137" lat="51.159142"><ele>27.2</ele><time>2022-03-27T07:16:32.000Z</time></trkpt><trkpt lon="5.703028" lat="51.159135"><ele>27.2</ele><time>2022-03-27T07:16:33.000Z</time></trkpt><trkpt lon="5.70291" lat="51.15913"><ele>27.2</ele><time>2022-03-27T07:16:34.000Z</time></trkpt><trkpt lon="5.702792" lat="51.15913"><ele>27.2</ele><time>2022-03-27T07:16:35.000Z</time></trkpt><trkpt lon="5.702673" lat="51.15913"><ele>27.2</ele><time>2022-03-27T07:16:36.000Z</time></trkpt><trkpt lon="5.702556" lat="51.159134"><ele>27.2</ele><time>2022-03-27T07:16:37.000Z</time></trkpt><trkpt lon="5.702435" lat="51.159137"><ele>27</ele><time>2022-03-27T07:16:38.000Z</time></trkpt><trkpt lon="5.702316" lat="51.159141"><ele>27</ele><time>2022-03-27T07:16:39.000Z</time></trkpt><trkpt lon="5.702202" lat="51.159152"><ele>27</ele><time>2022-03-27T07:16:40.000Z</time></trkpt><trkpt lon="5.70209" lat="51.15916"><ele>27</ele><time>2022-03-27T07:16:41.000Z</time></trkpt><trkpt lon="5.701979" lat="51.159175"><ele>27.2</ele><time>2022-03-27T07:16:42.000Z</time></trkpt><trkpt lon="5.70187" lat="51.15919"><ele>27.2</ele><time>2022-03-27T07:16:43.000Z</time></trkpt><trkpt lon="5.701766" lat="51.159209"><ele>27.2</ele><time>2022-03-27T07:16:44.000Z</time></trkpt><trkpt lon="5.701662" lat="51.159231"><ele>27.2</ele><time>2022-03-27T07:16:45.000Z</time></trkpt><trkpt lon="5.701563" lat="51.15925"><ele>27.2</ele><time>2022-03-27T07:16:46.000Z</time></trkpt><trkpt lon="5.701456" lat="51.15927"><ele>27.2</ele><time>2022-03-27T07:16:47.000Z</time></trkpt><trkpt lon="5.701356" lat="51.159285"><ele>27.4</ele><time>2022-03-27T07:16:48.000Z</time></trkpt><trkpt lon="5.70125" lat="51.159304"><ele>27.4</ele><time>2022-03-27T07:16:49.000Z</time></trkpt><trkpt lon="5.701144" lat="51.159327"><ele>27.4</ele><time>2022-03-27T07:16:50.000Z</time></trkpt><trkpt lon="5.701036" lat="51.159346"><ele>27.4</ele><time>2022-03-27T07:16:51.000Z</time></trkpt><trkpt lon="5.700927" lat="51.159365"><ele>27.6</ele><time>2022-03-27T07:16:52.000Z</time></trkpt><trkpt lon="5.700816" lat="51.159384"><ele>27.6</ele><time>2022-03-27T07:16:53.000Z</time></trkpt><trkpt lon="5.700709" lat="51.1594"><ele>27.6</ele><time>2022-03-27T07:16:54.000Z</time></trkpt><trkpt lon="5.700605" lat="51.159418"><ele>27.6</ele><time>2022-03-27T07:16:55.000Z</time></trkpt><trkpt lon="5.700497" lat="51.159434"><ele>27.6</ele><time>2022-03-27T07:16:56.000Z</time></trkpt><trkpt lon="5.700393" lat="51.159453"><ele>27.6</ele><time>2022-03-27T07:16:57.000Z</time></trkpt><trkpt lon="5.700284" lat="51.159472"><ele>27.6</ele><time>2022-03-27T07:16:58.000Z</time></trkpt><trkpt lon="5.700184" lat="51.159487"><ele>27.8</ele><time>2022-03-27T07:16:59.000Z</time></trkpt><trkpt lon="5.70008" lat="51.159507"><ele>27.8</ele><time>2022-03-27T07:17:00.000Z</time></trkpt><trkpt lon="5.69998" lat="51.159525"><ele>27.8</ele><time>2022-03-27T07:17:01.000Z</time></trkpt><trkpt lon="5.699886" lat="51.159545"><ele>27.8</ele><time>2022-03-27T07:17:02.000Z</time></trkpt><trkpt lon="5.699802" lat="51.159567"><ele>28</ele><time>2022-03-27T07:17:03.000Z</time></trkpt><trkpt lon="5.69972" lat="51.15959"><ele>28.2</ele><time>2022-03-27T07:17:04.000Z</time></trkpt><trkpt lon="5.699634" lat="51.15961"><ele>28.2</ele><time>2022-03-27T07:17:05.000Z</time></trkpt><trkpt lon="5.699553" lat="51.159618"><ele>28.4</ele><time>2022-03-27T07:17:06.000Z</time></trkpt><trkpt lon="5.699484" lat="51.159608"><ele>28.4</ele><time>2022-03-27T07:17:07.000Z</time></trkpt><trkpt lon="5.699425" lat="51.159583"><ele>28.4</ele><time>2022-03-27T07:17:08.000Z</time></trkpt><trkpt lon="5.699359" lat="51.159542"><ele>28.4</ele><time>2022-03-27T07:17:09.000Z</time></trkpt><trkpt lon="5.699285" lat="51.159492"><ele>28.4</ele><time>2022-03-27T07:17:10.000Z</time></trkpt><trkpt lon="5.699208" lat="51.159442"><ele>28.4</ele><time>2022-03-27T07:17:11.000Z</time></trkpt><trkpt lon="5.699133" lat="51.159393"><ele>28.4</ele><time>2022-03-27T07:17:12.000Z</time></trkpt><trkpt lon="5.699061" lat="51.159337"><ele>28.4</ele><time>2022-03-27T07:17:13.000Z</time></trkpt><trkpt lon="5.698988" lat="51.159282"><ele>28.2</ele><time>2022-03-27T07:17:14.000Z</time></trkpt><trkpt lon="5.698916" lat="51.15923"><ele>28.2</ele><time>2022-03-27T07:17:15.000Z</time></trkpt><trkpt lon="5.698842" lat="51.159176"><ele>28.2</ele><time>2022-03-27T07:17:16.000Z</time></trkpt><trkpt lon="5.69877" lat="51.159119"><ele>28</ele><time>2022-03-27T07:17:17.000Z</time></trkpt><trkpt lon="5.698698" lat="51.159062"><ele>28</ele><time>2022-03-27T07:17:18.000Z</time></trkpt><trkpt lon="5.698627" lat="51.159006"><ele>28</ele><time>2022-03-27T07:17:19.000Z</time></trkpt><trkpt lon="5.698554" lat="51.158948"><ele>28</ele><time>2022-03-27T07:17:20.000Z</time></trkpt><trkpt lon="5.69848" lat="51.158891"><ele>28</ele><time>2022-03-27T07:17:21.000Z</time></trkpt><trkpt lon="5.698405" lat="51.158837"><ele>28</ele><time>2022-03-27T07:17:22.000Z</time></trkpt><trkpt lon="5.698332" lat="51.15878"><ele>28</ele><time>2022-03-27T07:17:23.000Z</time></trkpt><trkpt lon="5.698258" lat="51.158725"><ele>28.2</ele><time>2022-03-27T07:17:24.000Z</time></trkpt><trkpt lon="5.698189" lat="51.158674"><ele>28</ele><time>2022-03-27T07:17:25.000Z</time></trkpt><trkpt lon="5.698116" lat="51.158615"><ele>28</ele><time>2022-03-27T07:17:26.000Z</time></trkpt><trkpt lon="5.698048" lat="51.158556"><ele>27.8</ele><time>2022-03-27T07:17:27.000Z</time></trkpt><trkpt lon="5.697975" lat="51.158497"><ele>27.8</ele><time>2022-03-27T07:17:28.000Z</time></trkpt><trkpt lon="5.697903" lat="51.15844"><ele>27.8</ele><time>2022-03-27T07:17:29.000Z</time></trkpt><trkpt lon="5.697831" lat="51.158383"><ele>27.8</ele><time>2022-03-27T07:17:30.000Z</time></trkpt><trkpt lon="5.69776" lat="51.158326"><ele>27.8</ele><time>2022-03-27T07:17:31.000Z</time></trkpt><trkpt lon="5.697692" lat="51.158272"><ele>27.8</ele><time>2022-03-27T07:17:32.000Z</time></trkpt><trkpt lon="5.697624" lat="51.158219"><ele>27.8</ele><time>2022-03-27T07:17:33.000Z</time></trkpt><trkpt lon="5.697552" lat="51.158161"><ele>27.8</ele><time>2022-03-27T07:17:34.000Z</time></trkpt><trkpt lon="5.697481" lat="51.158108"><ele>27.8</ele><time>2022-03-27T07:17:35.000Z</time></trkpt><trkpt lon="5.697409" lat="51.158051"><ele>27.8</ele><time>2022-03-27T07:17:36.000Z</time></trkpt><trkpt lon="5.697339" lat="51.157994"><ele>27.8</ele><time>2022-03-27T07:17:37.000Z</time></trkpt><trkpt lon="5.69727" lat="51.157937"><ele>27.8</ele><time>2022-03-27T07:17:38.000Z</time></trkpt><trkpt lon="5.697201" lat="51.157879"><ele>27.8</ele><time>2022-03-27T07:17:39.000Z</time></trkpt><trkpt lon="5.697132" lat="51.157826"><ele>27.8</ele><time>2022-03-27T07:17:40.000Z</time></trkpt><trkpt lon="5.697068" lat="51.157776"><ele>27.8</ele><time>2022-03-27T07:17:41.000Z</time></trkpt><trkpt lon="5.697009" lat="51.157726"><ele>27.8</ele><time>2022-03-27T07:17:42.000Z</time></trkpt><trkpt lon="5.696951" lat="51.157677"><ele>27.8</ele><time>2022-03-27T07:17:43.000Z</time></trkpt><trkpt lon="5.696884" lat="51.157619"><ele>27.8</ele><time>2022-03-27T07:17:44.000Z</time></trkpt><trkpt lon="5.696813" lat="51.157566"><ele>27.8</ele><time>2022-03-27T07:17:45.000Z</time></trkpt><trkpt lon="5.696739" lat="51.157509"><ele>27.6</ele><time>2022-03-27T07:17:46.000Z</time></trkpt><trkpt lon="5.696671" lat="51.15746"><ele>27.8</ele><time>2022-03-27T07:17:47.000Z</time></trkpt><trkpt lon="5.696597" lat="51.157409"><ele>27.6</ele><time>2022-03-27T07:17:48.000Z</time></trkpt><trkpt lon="5.696523" lat="51.157364"><ele>27.6</ele><time>2022-03-27T07:17:49.000Z</time></trkpt><trkpt lon="5.696437" lat="51.157308"><ele>27.4</ele><time>2022-03-27T07:17:50.000Z</time></trkpt><trkpt lon="5.696345" lat="51.157255"><ele>27.4</ele><time>2022-03-27T07:17:51.000Z</time></trkpt><trkpt lon="5.696247" lat="51.157207"><ele>27.2</ele><time>2022-03-27T07:17:52.000Z</time></trkpt><trkpt lon="5.696142" lat="51.157161"><ele>27</ele><time>2022-03-27T07:17:53.000Z</time></trkpt><trkpt lon="5.696039" lat="51.157127"><ele>27</ele><time>2022-03-27T07:17:54.000Z</time></trkpt><trkpt lon="5.695932" lat="51.157085"><ele>27.2</ele><time>2022-03-27T07:17:55.000Z</time></trkpt><trkpt lon="5.695826" lat="51.15705"><ele>27.2</ele><time>2022-03-27T07:17:56.000Z</time></trkpt><trkpt lon="5.695719" lat="51.157019"><ele>27.2</ele><time>2022-03-27T07:17:57.000Z</time></trkpt><trkpt lon="5.695613" lat="51.156992"><ele>27.2</ele><time>2022-03-27T07:17:58.000Z</time></trkpt><trkpt lon="5.695506" lat="51.156965"><ele>27.2</ele><time>2022-03-27T07:17:59.000Z</time></trkpt><trkpt lon="5.695397" lat="51.156935"><ele>27.2</ele><time>2022-03-27T07:18:00.000Z</time></trkpt><trkpt lon="5.695291" lat="51.156908"><ele>27.2</ele><time>2022-03-27T07:18:01.000Z</time></trkpt><trkpt lon="5.695181" lat="51.156878"><ele>27.2</ele><time>2022-03-27T07:18:02.000Z</time></trkpt><trkpt lon="5.695069" lat="51.15685"><ele>27.2</ele><time>2022-03-27T07:18:03.000Z</time></trkpt><trkpt lon="5.694961" lat="51.15682"><ele>27.2</ele><time>2022-03-27T07:18:04.000Z</time></trkpt><trkpt lon="5.694855" lat="51.156793"><ele>27.2</ele><time>2022-03-27T07:18:05.000Z</time></trkpt><trkpt lon="5.694753" lat="51.156763"><ele>27.2</ele><time>2022-03-27T07:18:06.000Z</time></trkpt><trkpt lon="5.694649" lat="51.156737"><ele>27.2</ele><time>2022-03-27T07:18:07.000Z</time></trkpt><trkpt lon="5.694543" lat="51.15671"><ele>27.2</ele><time>2022-03-27T07:18:08.000Z</time></trkpt><trkpt lon="5.694436" lat="51.156683"><ele>27.2</ele><time>2022-03-27T07:18:09.000Z</time></trkpt><trkpt lon="5.694331" lat="51.156653"><ele>27.2</ele><time>2022-03-27T07:18:10.000Z</time></trkpt><trkpt lon="5.694232" lat="51.15663"><ele>27.2</ele><time>2022-03-27T07:18:11.000Z</time></trkpt><trkpt lon="5.694122" lat="51.156603"><ele>27.2</ele><time>2022-03-27T07:18:12.000Z</time></trkpt><trkpt lon="5.694011" lat="51.156576"><ele>27.2</ele><time>2022-03-27T07:18:13.000Z</time></trkpt><trkpt lon="5.693909" lat="51.15655"><ele>27.2</ele><time>2022-03-27T07:18:14.000Z</time></trkpt><trkpt lon="5.693802" lat="51.156527"><ele>27.2</ele><time>2022-03-27T07:18:15.000Z</time></trkpt><trkpt lon="5.693697" lat="51.156497"><ele>27.2</ele><time>2022-03-27T07:18:16.000Z</time></trkpt><trkpt lon="5.693589" lat="51.156474"><ele>27.2</ele><time>2022-03-27T07:18:17.000Z</time></trkpt><trkpt lon="5.693479" lat="51.156447"><ele>27.2</ele><time>2022-03-27T07:18:18.000Z</time></trkpt><trkpt lon="5.693371" lat="51.156417"><ele>27.2</ele><time>2022-03-27T07:18:19.000Z</time></trkpt><trkpt lon="5.693262" lat="51.156386"><ele>27.2</ele><time>2022-03-27T07:18:20.000Z</time></trkpt><trkpt lon="5.693161" lat="51.156359"><ele>27.2</ele><time>2022-03-27T07:18:21.000Z</time></trkpt><trkpt lon="5.693054" lat="51.156332"><ele>27.2</ele><time>2022-03-27T07:18:22.000Z</time></trkpt><trkpt lon="5.692946" lat="51.156306"><ele>27.2</ele><time>2022-03-27T07:18:23.000Z</time></trkpt><trkpt lon="5.692837" lat="51.156278"><ele>27.2</ele><time>2022-03-27T07:18:24.000Z</time></trkpt><trkpt lon="5.692733" lat="51.156256"><ele>27.2</ele><time>2022-03-27T07:18:25.000Z</time></trkpt><trkpt lon="5.692627" lat="51.156229"><ele>27.2</ele><time>2022-03-27T07:18:26.000Z</time></trkpt><trkpt lon="5.692522" lat="51.156199"><ele>27.2</ele><time>2022-03-27T07:18:27.000Z</time></trkpt><trkpt lon="5.692414" lat="51.156175"><ele>27.2</ele><time>2022-03-27T07:18:28.000Z</time></trkpt><trkpt lon="5.692307" lat="51.156149"><ele>27.2</ele><time>2022-03-27T07:18:29.000Z</time></trkpt><trkpt lon="5.692199" lat="51.156122"><ele>27.2</ele><time>2022-03-27T07:18:30.000Z</time></trkpt><trkpt lon="5.692093" lat="51.156099"><ele>27.2</ele><time>2022-03-27T07:18:31.000Z</time></trkpt><trkpt lon="5.691987" lat="51.156073"><ele>27.2</ele><time>2022-03-27T07:18:32.000Z</time></trkpt><trkpt lon="5.69189" lat="51.156048"><ele>27.2</ele><time>2022-03-27T07:18:33.000Z</time></trkpt><trkpt lon="5.691773" lat="51.156019"><ele>27.2</ele><time>2022-03-27T07:18:34.000Z</time></trkpt><trkpt lon="5.691666" lat="51.155989"><ele>27.2</ele><time>2022-03-27T07:18:35.000Z</time></trkpt><trkpt lon="5.691559" lat="51.155962"><ele>27.2</ele><time>2022-03-27T07:18:36.000Z</time></trkpt><trkpt lon="5.691455" lat="51.155936"><ele>27.4</ele><time>2022-03-27T07:18:37.000Z</time></trkpt><trkpt lon="5.691351" lat="51.155909"><ele>27.4</ele><time>2022-03-27T07:18:38.000Z</time></trkpt><trkpt lon="5.691247" lat="51.155886"><ele>27.4</ele><time>2022-03-27T07:18:39.000Z</time></trkpt><trkpt lon="5.691145" lat="51.15586"><ele>27.4</ele><time>2022-03-27T07:18:40.000Z</time></trkpt><trkpt lon="5.691035" lat="51.155833"><ele>27.4</ele><time>2022-03-27T07:18:41.000Z</time></trkpt><trkpt lon="5.690928" lat="51.155809"><ele>27.4</ele><time>2022-03-27T07:18:42.000Z</time></trkpt><trkpt lon="5.690825" lat="51.155783"><ele>27.6</ele><time>2022-03-27T07:18:43.000Z</time></trkpt><trkpt lon="5.690719" lat="51.155756"><ele>27.8</ele><time>2022-03-27T07:18:44.000Z</time></trkpt><trkpt lon="5.69062" lat="51.15573"><ele>28</ele><time>2022-03-27T07:18:45.000Z</time></trkpt><trkpt lon="5.690514" lat="51.155703"><ele>28</ele><time>2022-03-27T07:18:46.000Z</time></trkpt><trkpt lon="5.690406" lat="51.15568"><ele>28</ele><time>2022-03-27T07:18:47.000Z</time></trkpt><trkpt lon="5.690298" lat="51.155653"><ele>28</ele><time>2022-03-27T07:18:48.000Z</time></trkpt><trkpt lon="5.690196" lat="51.15563"><ele>28</ele><time>2022-03-27T07:18:49.000Z</time></trkpt><trkpt lon="5.690092" lat="51.155604"><ele>28</ele><time>2022-03-27T07:18:50.000Z</time></trkpt><trkpt lon="5.689985" lat="51.155577"><ele>27.8</ele><time>2022-03-27T07:18:51.000Z</time></trkpt><trkpt lon="5.68988" lat="51.155554"><ele>27.8</ele><time>2022-03-27T07:18:52.000Z</time></trkpt><trkpt lon="5.689777" lat="51.155531"><ele>28</ele><time>2022-03-27T07:18:53.000Z</time></trkpt><trkpt lon="5.68967" lat="51.155508"><ele>28.2</ele><time>2022-03-27T07:18:54.000Z</time></trkpt><trkpt lon="5.689563" lat="51.155478"><ele>28.2</ele><time>2022-03-27T07:18:55.000Z</time></trkpt><trkpt lon="5.689453" lat="51.155451"><ele>28.2</ele><time>2022-03-27T07:18:56.000Z</time></trkpt><trkpt lon="5.68934" lat="51.155425"><ele>28.2</ele><time>2022-03-27T07:18:57.000Z</time></trkpt><trkpt lon="5.689227" lat="51.155398"><ele>28</ele><time>2022-03-27T07:18:58.000Z</time></trkpt><trkpt lon="5.689117" lat="51.155368"><ele>28</ele><time>2022-03-27T07:18:59.000Z</time></trkpt><trkpt lon="5.689007" lat="51.155341"><ele>27.8</ele><time>2022-03-27T07:19:00.000Z</time></trkpt><trkpt lon="5.688895" lat="51.155314"><ele>27.6</ele><time>2022-03-27T07:19:01.000Z</time></trkpt><trkpt lon="5.688787" lat="51.155284"><ele>27.6</ele><time>2022-03-27T07:19:02.000Z</time></trkpt><trkpt lon="5.688685" lat="51.155258"><ele>27.4</ele><time>2022-03-27T07:19:03.000Z</time></trkpt><trkpt lon="5.688567" lat="51.15523"><ele>27.4</ele><time>2022-03-27T07:19:04.000Z</time></trkpt><trkpt lon="5.688456" lat="51.155203"><ele>27.4</ele><time>2022-03-27T07:19:05.000Z</time></trkpt><trkpt lon="5.688348" lat="51.155176"><ele>27.4</ele><time>2022-03-27T07:19:06.000Z</time></trkpt><trkpt lon="5.688243" lat="51.15515"><ele>27.4</ele><time>2022-03-27T07:19:07.000Z</time></trkpt><trkpt lon="5.688135" lat="51.155124"><ele>27.4</ele><time>2022-03-27T07:19:08.000Z</time></trkpt><trkpt lon="5.688024" lat="51.1551"><ele>27.4</ele><time>2022-03-27T07:19:09.000Z</time></trkpt><trkpt lon="5.687915" lat="51.155071"><ele>27.2</ele><time>2022-03-27T07:19:10.000Z</time></trkpt><trkpt lon="5.687801" lat="51.155043"><ele>27.2</ele><time>2022-03-27T07:19:11.000Z</time></trkpt><trkpt lon="5.687692" lat="51.155016"><ele>27.2</ele><time>2022-03-27T07:19:12.000Z</time></trkpt><trkpt lon="5.687584" lat="51.15499"><ele>27.2</ele><time>2022-03-27T07:19:13.000Z</time></trkpt><trkpt lon="5.687477" lat="51.15496"><ele>27.2</ele><time>2022-03-27T07:19:14.000Z</time></trkpt><trkpt lon="5.68737" lat="51.154933"><ele>27.4</ele><time>2022-03-27T07:19:15.000Z</time></trkpt><trkpt lon="5.687264" lat="51.154909"><ele>27.4</ele><time>2022-03-27T07:19:16.000Z</time></trkpt><trkpt lon="5.687157" lat="51.154883"><ele>27.4</ele><time>2022-03-27T07:19:17.000Z</time></trkpt><trkpt lon="5.68705" lat="51.15486"><ele>27.4</ele><time>2022-03-27T07:19:18.000Z</time></trkpt><trkpt lon="5.686941" lat="51.154833"><ele>27.4</ele><time>2022-03-27T07:19:19.000Z</time></trkpt><trkpt lon="5.686836" lat="51.154807"><ele>27.4</ele><time>2022-03-27T07:19:20.000Z</time></trkpt><trkpt lon="5.686727" lat="51.154781"><ele>27.4</ele><time>2022-03-27T07:19:21.000Z</time></trkpt><trkpt lon="5.686617" lat="51.154753"><ele>27.4</ele><time>2022-03-27T07:19:22.000Z</time></trkpt><trkpt lon="5.686508" lat="51.154727"><ele>27.4</ele><time>2022-03-27T07:19:23.000Z</time></trkpt><trkpt lon="5.6864" lat="51.154696"><ele>27.4</ele><time>2022-03-27T07:19:24.000Z</time></trkpt><trkpt lon="5.686294" lat="51.154669"><ele>27.6</ele><time>2022-03-27T07:19:25.000Z</time></trkpt><trkpt lon="5.686186" lat="51.154643"><ele>27.6</ele><time>2022-03-27T07:19:26.000Z</time></trkpt><trkpt lon="5.686077" lat="51.154616"><ele>27.6</ele><time>2022-03-27T07:19:27.000Z</time></trkpt><trkpt lon="5.685972" lat="51.154589"><ele>27.6</ele><time>2022-03-27T07:19:28.000Z</time></trkpt><trkpt lon="5.685865" lat="51.154562"><ele>27.6</ele><time>2022-03-27T07:19:29.000Z</time></trkpt><trkpt lon="5.685759" lat="51.154536"><ele>27.6</ele><time>2022-03-27T07:19:30.000Z</time></trkpt><trkpt lon="5.685651" lat="51.154509"><ele>27.8</ele><time>2022-03-27T07:19:31.000Z</time></trkpt><trkpt lon="5.685544" lat="51.154482"><ele>27.8</ele><time>2022-03-27T07:19:32.000Z</time></trkpt><trkpt lon="5.685431" lat="51.154455"><ele>27.6</ele><time>2022-03-27T07:19:33.000Z</time></trkpt><trkpt lon="5.685321" lat="51.154428"><ele>27.6</ele><time>2022-03-27T07:19:34.000Z</time></trkpt><trkpt lon="5.685215" lat="51.154406"><ele>27.8</ele><time>2022-03-27T07:19:35.000Z</time></trkpt><trkpt lon="5.685104" lat="51.154379"><ele>27.8</ele><time>2022-03-27T07:19:36.000Z</time></trkpt><trkpt lon="5.684994" lat="51.154352"><ele>27.8</ele><time>2022-03-27T07:19:37.000Z</time></trkpt><trkpt lon="5.684887" lat="51.154326"><ele>27.6</ele><time>2022-03-27T07:19:38.000Z</time></trkpt><trkpt lon="5.684777" lat="51.154299"><ele>27.6</ele><time>2022-03-27T07:19:39.000Z</time></trkpt><trkpt lon="5.684669" lat="51.154273"><ele>27.6</ele><time>2022-03-27T07:19:40.000Z</time></trkpt><trkpt lon="5.684556" lat="51.154246"><ele>27.6</ele><time>2022-03-27T07:19:41.000Z</time></trkpt><trkpt lon="5.684445" lat="51.154219"><ele>27.6</ele><time>2022-03-27T07:19:42.000Z</time></trkpt><trkpt lon="5.684332" lat="51.154193"><ele>27.4</ele><time>2022-03-27T07:19:43.000Z</time></trkpt><trkpt lon="5.68422" lat="51.154166"><ele>27.4</ele><time>2022-03-27T07:19:44.000Z</time></trkpt><trkpt lon="5.684105" lat="51.154139"><ele>27.4</ele><time>2022-03-27T07:19:45.000Z</time></trkpt><trkpt lon="5.683991" lat="51.154113"><ele>27.4</ele><time>2022-03-27T07:19:46.000Z</time></trkpt><trkpt lon="5.683875" lat="51.154086"><ele>27.4</ele><time>2022-03-27T07:19:47.000Z</time></trkpt><trkpt lon="5.683763" lat="51.154059"><ele>27.6</ele><time>2022-03-27T07:19:48.000Z</time></trkpt><trkpt lon="5.683647" lat="51.154029"><ele>27.6</ele><time>2022-03-27T07:19:49.000Z</time></trkpt><trkpt lon="5.683537" lat="51.154002"><ele>27.6</ele><time>2022-03-27T07:19:50.000Z</time></trkpt><trkpt lon="5.683425" lat="51.153975"><ele>27.6</ele><time>2022-03-27T07:19:51.000Z</time></trkpt><trkpt lon="5.683312" lat="51.153948"><ele>27.8</ele><time>2022-03-27T07:19:52.000Z</time></trkpt><trkpt lon="5.683202" lat="51.153918"><ele>27.8</ele><time>2022-03-27T07:19:53.000Z</time></trkpt><trkpt lon="5.68309" lat="51.153892"><ele>27.8</ele><time>2022-03-27T07:19:54.000Z</time></trkpt><trkpt lon="5.682979" lat="51.153868"><ele>28</ele><time>2022-03-27T07:19:55.000Z</time></trkpt><trkpt lon="5.682864" lat="51.153838"><ele>28</ele><time>2022-03-27T07:19:56.000Z</time></trkpt><trkpt lon="5.682757" lat="51.153812"><ele>28</ele><time>2022-03-27T07:19:57.000Z</time></trkpt><trkpt lon="5.682642" lat="51.153784"><ele>28</ele><time>2022-03-27T07:19:58.000Z</time></trkpt><trkpt lon="5.682533" lat="51.153758"><ele>27.8</ele><time>2022-03-27T07:19:59.000Z</time></trkpt><trkpt lon="5.682421" lat="51.153731"><ele>27.8</ele><time>2022-03-27T07:20:00.000Z</time></trkpt><trkpt lon="5.682312" lat="51.153705"><ele>27.6</ele><time>2022-03-27T07:20:01.000Z</time></trkpt><trkpt lon="5.6822" lat="51.153678"><ele>27.6</ele><time>2022-03-27T07:20:02.000Z</time></trkpt><trkpt lon="5.68209" lat="51.153651"><ele>27.6</ele><time>2022-03-27T07:20:03.000Z</time></trkpt><trkpt lon="5.681974" lat="51.153623"><ele>27.6</ele><time>2022-03-27T07:20:04.000Z</time></trkpt><trkpt lon="5.681862" lat="51.153597"><ele>27.8</ele><time>2022-03-27T07:20:05.000Z</time></trkpt><trkpt lon="5.681753" lat="51.153571"><ele>27.8</ele><time>2022-03-27T07:20:06.000Z</time></trkpt><trkpt lon="5.681641" lat="51.153544"><ele>28</ele><time>2022-03-27T07:20:07.000Z</time></trkpt><trkpt lon="5.681527" lat="51.153517"><ele>28</ele><time>2022-03-27T07:20:08.000Z</time></trkpt><trkpt lon="5.681413" lat="51.15349"><ele>28.2</ele><time>2022-03-27T07:20:09.000Z</time></trkpt><trkpt lon="5.681309" lat="51.153465"><ele>28.2</ele><time>2022-03-27T07:20:10.000Z</time></trkpt><trkpt lon="5.681195" lat="51.153438"><ele>28.2</ele><time>2022-03-27T07:20:11.000Z</time></trkpt><trkpt lon="5.681083" lat="51.153411"><ele>28.2</ele><time>2022-03-27T07:20:12.000Z</time></trkpt><trkpt lon="5.680971" lat="51.153384"><ele>28.2</ele><time>2022-03-27T07:20:13.000Z</time></trkpt><trkpt lon="5.680863" lat="51.153358"><ele>28.2</ele><time>2022-03-27T07:20:14.000Z</time></trkpt><trkpt lon="5.680752" lat="51.153327"><ele>28</ele><time>2022-03-27T07:20:15.000Z</time></trkpt><trkpt lon="5.680639" lat="51.1533"><ele>28</ele><time>2022-03-27T07:20:16.000Z</time></trkpt><trkpt lon="5.680527" lat="51.153273"><ele>28</ele><time>2022-03-27T07:20:17.000Z</time></trkpt><trkpt lon="5.680417" lat="51.153247"><ele>28</ele><time>2022-03-27T07:20:18.000Z</time></trkpt><trkpt lon="5.680308" lat="51.153216"><ele>28</ele><time>2022-03-27T07:20:19.000Z</time></trkpt><trkpt lon="5.6802" lat="51.15319"><ele>28</ele><time>2022-03-27T07:20:20.000Z</time></trkpt><trkpt lon="5.680089" lat="51.153166"><ele>28</ele><time>2022-03-27T07:20:21.000Z</time></trkpt><trkpt lon="5.679979" lat="51.153139"><ele>28</ele><time>2022-03-27T07:20:22.000Z</time></trkpt><trkpt lon="5.679871" lat="51.153113"><ele>28.2</ele><time>2022-03-27T07:20:23.000Z</time></trkpt><trkpt lon="5.67976" lat="51.153086"><ele>28.4</ele><time>2022-03-27T07:20:24.000Z</time></trkpt><trkpt lon="5.679651" lat="51.15306"><ele>28.4</ele><time>2022-03-27T07:20:25.000Z</time></trkpt><trkpt lon="5.679541" lat="51.153036"><ele>28.4</ele><time>2022-03-27T07:20:26.000Z</time></trkpt><trkpt lon="5.67943" lat="51.15301"><ele>28.4</ele><time>2022-03-27T07:20:27.000Z</time></trkpt><trkpt lon="5.679323" lat="51.152981"><ele>28.4</ele><time>2022-03-27T07:20:28.000Z</time></trkpt><trkpt lon="5.679212" lat="51.152953"><ele>28.4</ele><time>2022-03-27T07:20:29.000Z</time></trkpt><trkpt lon="5.679106" lat="51.152927"><ele>28.4</ele><time>2022-03-27T07:20:30.000Z</time></trkpt><trkpt lon="5.678996" lat="51.1529"><ele>28.4</ele><time>2022-03-27T07:20:31.000Z</time></trkpt><trkpt lon="5.678888" lat="51.152873"><ele>28.4</ele><time>2022-03-27T07:20:32.000Z</time></trkpt><trkpt lon="5.678776" lat="51.15285"><ele>28.4</ele><time>2022-03-27T07:20:33.000Z</time></trkpt><trkpt lon="5.678663" lat="51.152823"><ele>28.2</ele><time>2022-03-27T07:20:34.000Z</time></trkpt><trkpt lon="5.678554" lat="51.152796"><ele>28.4</ele><time>2022-03-27T07:20:35.000Z</time></trkpt><trkpt lon="5.678445" lat="51.152769"><ele>28.6</ele><time>2022-03-27T07:20:36.000Z</time></trkpt><trkpt lon="5.678337" lat="51.152743"><ele>28.8</ele><time>2022-03-27T07:20:37.000Z</time></trkpt><trkpt lon="5.678226" lat="51.152716"><ele>29</ele><time>2022-03-27T07:20:38.000Z</time></trkpt><trkpt lon="5.678116" lat="51.15269"><ele>29.2</ele><time>2022-03-27T07:20:39.000Z</time></trkpt><trkpt lon="5.678006" lat="51.152663"><ele>29</ele><time>2022-03-27T07:20:40.000Z</time></trkpt><trkpt lon="5.677896" lat="51.152633"><ele>29</ele><time>2022-03-27T07:20:41.000Z</time></trkpt><trkpt lon="5.677785" lat="51.152606"><ele>29</ele><time>2022-03-27T07:20:42.000Z</time></trkpt><trkpt lon="5.677673" lat="51.152579"><ele>28.8</ele><time>2022-03-27T07:20:43.000Z</time></trkpt><trkpt lon="5.677563" lat="51.152552"><ele>28.8</ele><time>2022-03-27T07:20:44.000Z</time></trkpt><trkpt lon="5.677453" lat="51.152526"><ele>28.6</ele><time>2022-03-27T07:20:45.000Z</time></trkpt><trkpt lon="5.677336" lat="51.152498"><ele>28.6</ele><time>2022-03-27T07:20:46.000Z</time></trkpt><trkpt lon="5.677225" lat="51.152471"><ele>28.6</ele><time>2022-03-27T07:20:47.000Z</time></trkpt><trkpt lon="5.677114" lat="51.152444"><ele>28.6</ele><time>2022-03-27T07:20:48.000Z</time></trkpt><trkpt lon="5.677" lat="51.152414"><ele>28.6</ele><time>2022-03-27T07:20:49.000Z</time></trkpt><trkpt lon="5.676897" lat="51.152386"><ele>28.6</ele><time>2022-03-27T07:20:50.000Z</time></trkpt><trkpt lon="5.676778" lat="51.152357"><ele>28.4</ele><time>2022-03-27T07:20:51.000Z</time></trkpt><trkpt lon="5.676664" lat="51.15233"><ele>28.4</ele><time>2022-03-27T07:20:52.000Z</time></trkpt><trkpt lon="5.676552" lat="51.152303"><ele>28.4</ele><time>2022-03-27T07:20:53.000Z</time></trkpt><trkpt lon="5.676441" lat="51.152273"><ele>28.4</ele><time>2022-03-27T07:20:54.000Z</time></trkpt><trkpt lon="5.676335" lat="51.152251"><ele>28.4</ele><time>2022-03-27T07:20:55.000Z</time></trkpt><trkpt lon="5.676216" lat="51.15222"><ele>28.4</ele><time>2022-03-27T07:20:56.000Z</time></trkpt><trkpt lon="5.676107" lat="51.152192"><ele>28.6</ele><time>2022-03-27T07:20:57.000Z</time></trkpt><trkpt lon="5.675996" lat="51.152166"><ele>28.6</ele><time>2022-03-27T07:20:58.000Z</time></trkpt><trkpt lon="5.675886" lat="51.152139"><ele>28.6</ele><time>2022-03-27T07:20:59.000Z</time></trkpt><trkpt lon="5.675778" lat="51.152109"><ele>28.6</ele><time>2022-03-27T07:21:00.000Z</time></trkpt><trkpt lon="5.675667" lat="51.152082"><ele>28.8</ele><time>2022-03-27T07:21:01.000Z</time></trkpt><trkpt lon="5.675557" lat="51.152055"><ele>28.8</ele><time>2022-03-27T07:21:02.000Z</time></trkpt><trkpt lon="5.675448" lat="51.152025"><ele>28.8</ele><time>2022-03-27T07:21:03.000Z</time></trkpt><trkpt lon="5.675337" lat="51.151998"><ele>28.8</ele><time>2022-03-27T07:21:04.000Z</time></trkpt><trkpt lon="5.675226" lat="51.151971"><ele>28.8</ele><time>2022-03-27T07:21:05.000Z</time></trkpt><trkpt lon="5.675116" lat="51.151944"><ele>28.6</ele><time>2022-03-27T07:21:06.000Z</time></trkpt><trkpt lon="5.675007" lat="51.151914"><ele>28.6</ele><time>2022-03-27T07:21:07.000Z</time></trkpt><trkpt lon="5.674898" lat="51.151888"><ele>28.6</ele><time>2022-03-27T07:21:08.000Z</time></trkpt><trkpt lon="5.674788" lat="51.151861"><ele>28.6</ele><time>2022-03-27T07:21:09.000Z</time></trkpt><trkpt lon="5.674684" lat="51.151836"><ele>28.8</ele><time>2022-03-27T07:21:10.000Z</time></trkpt><trkpt lon="5.674566" lat="51.151808"><ele>28.8</ele><time>2022-03-27T07:21:11.000Z</time></trkpt><trkpt lon="5.674452" lat="51.151784"><ele>28.8</ele><time>2022-03-27T07:21:12.000Z</time></trkpt><trkpt lon="5.674344" lat="51.151758"><ele>28.6</ele><time>2022-03-27T07:21:13.000Z</time></trkpt><trkpt lon="5.674237" lat="51.151731"><ele>28.6</ele><time>2022-03-27T07:21:14.000Z</time></trkpt><trkpt lon="5.67413" lat="51.151708"><ele>28.6</ele><time>2022-03-27T07:21:15.000Z</time></trkpt><trkpt lon="5.674022" lat="51.151681"><ele>28.6</ele><time>2022-03-27T07:21:16.000Z</time></trkpt><trkpt lon="5.67391" lat="51.151658"><ele>28.6</ele><time>2022-03-27T07:21:17.000Z</time></trkpt><trkpt lon="5.673798" lat="51.151632"><ele>28.6</ele><time>2022-03-27T07:21:18.000Z</time></trkpt><trkpt lon="5.673684" lat="51.151605"><ele>28.6</ele><time>2022-03-27T07:21:19.000Z</time></trkpt><trkpt lon="5.673571" lat="51.151578"><ele>28.6</ele><time>2022-03-27T07:21:20.000Z</time></trkpt><trkpt lon="5.673459" lat="51.151552"><ele>28.6</ele><time>2022-03-27T07:21:21.000Z</time></trkpt><trkpt lon="5.673347" lat="51.151525"><ele>28.6</ele><time>2022-03-27T07:21:22.000Z</time></trkpt><trkpt lon="5.673236" lat="51.151498"><ele>28.6</ele><time>2022-03-27T07:21:23.000Z</time></trkpt><trkpt lon="5.673128" lat="51.151476"><ele>28.4</ele><time>2022-03-27T07:21:24.000Z</time></trkpt><trkpt lon="5.673016" lat="51.151449"><ele>28.4</ele><time>2022-03-27T07:21:25.000Z</time></trkpt><trkpt lon="5.672911" lat="51.151422"><ele>28.4</ele><time>2022-03-27T07:21:26.000Z</time></trkpt><trkpt lon="5.67281" lat="51.151388"><ele>28.4</ele><time>2022-03-27T07:21:27.000Z</time></trkpt><trkpt lon="5.672715" lat="51.15135"><ele>28.6</ele><time>2022-03-27T07:21:28.000Z</time></trkpt><trkpt lon="5.67262" lat="51.151312"><ele>28.6</ele><time>2022-03-27T07:21:29.000Z</time></trkpt><trkpt lon="5.67253" lat="51.151271"><ele>28.8</ele><time>2022-03-27T07:21:30.000Z</time></trkpt><trkpt lon="5.672435" lat="51.151228"><ele>28.8</ele><time>2022-03-27T07:21:31.000Z</time></trkpt><trkpt lon="5.67234" lat="51.151186"><ele>29</ele><time>2022-03-27T07:21:32.000Z</time></trkpt><trkpt lon="5.672254" lat="51.151148"><ele>29</ele><time>2022-03-27T07:21:33.000Z</time></trkpt><trkpt lon="5.672151" lat="51.151102"><ele>29</ele><time>2022-03-27T07:21:34.000Z</time></trkpt><trkpt lon="5.672056" lat="51.15106"><ele>29</ele><time>2022-03-27T07:21:35.000Z</time></trkpt><trkpt lon="5.671962" lat="51.151022"><ele>29</ele><time>2022-03-27T07:21:36.000Z</time></trkpt><trkpt lon="5.671866" lat="51.15098"><ele>29</ele><time>2022-03-27T07:21:37.000Z</time></trkpt><trkpt lon="5.671772" lat="51.150938"><ele>29.2</ele><time>2022-03-27T07:21:38.000Z</time></trkpt><trkpt lon="5.671676" lat="51.150897"><ele>29.2</ele><time>2022-03-27T07:21:39.000Z</time></trkpt><trkpt lon="5.671578" lat="51.150854"><ele>29.2</ele><time>2022-03-27T07:21:40.000Z</time></trkpt><trkpt lon="5.671484" lat="51.150813"><ele>29.2</ele><time>2022-03-27T07:21:41.000Z</time></trkpt><trkpt lon="5.671386" lat="51.15077"><ele>29.4</ele><time>2022-03-27T07:21:42.000Z</time></trkpt><trkpt lon="5.671293" lat="51.150732"><ele>29.4</ele><time>2022-03-27T07:21:43.000Z</time></trkpt><trkpt lon="5.671204" lat="51.150691"><ele>29.6</ele><time>2022-03-27T07:21:44.000Z</time></trkpt><trkpt lon="5.671111" lat="51.150652"><ele>29.6</ele><time>2022-03-27T07:21:45.000Z</time></trkpt><trkpt lon="5.671019" lat="51.15061"><ele>29.8</ele><time>2022-03-27T07:21:46.000Z</time></trkpt><trkpt lon="5.670929" lat="51.150569"><ele>29.8</ele><time>2022-03-27T07:21:47.000Z</time></trkpt><trkpt lon="5.670838" lat="51.150527"><ele>30</ele><time>2022-03-27T07:21:48.000Z</time></trkpt><trkpt lon="5.670743" lat="51.150488"><ele>29.8</ele><time>2022-03-27T07:21:49.000Z</time></trkpt><trkpt lon="5.67065" lat="51.150446"><ele>29.8</ele><time>2022-03-27T07:21:50.000Z</time></trkpt><trkpt lon="5.670561" lat="51.150407"><ele>29.8</ele><time>2022-03-27T07:21:51.000Z</time></trkpt><trkpt lon="5.67046" lat="51.150362"><ele>29.8</ele><time>2022-03-27T07:21:52.000Z</time></trkpt><trkpt lon="5.670366" lat="51.15032"><ele>29.8</ele><time>2022-03-27T07:21:53.000Z</time></trkpt><trkpt lon="5.670271" lat="51.150282"><ele>30</ele><time>2022-03-27T07:21:54.000Z</time></trkpt><trkpt lon="5.670178" lat="51.15024"><ele>29.8</ele><time>2022-03-27T07:21:55.000Z</time></trkpt><trkpt lon="5.670081" lat="51.150198"><ele>29.8</ele><time>2022-03-27T07:21:56.000Z</time></trkpt><trkpt lon="5.669985" lat="51.150156"><ele>29.8</ele><time>2022-03-27T07:21:57.000Z</time></trkpt><trkpt lon="5.66989" lat="51.150111"><ele>29.8</ele><time>2022-03-27T07:21:58.000Z</time></trkpt><trkpt lon="5.669796" lat="51.150073"><ele>29.8</ele><time>2022-03-27T07:21:59.000Z</time></trkpt><trkpt lon="5.669699" lat="51.15003"><ele>29.8</ele><time>2022-03-27T07:22:00.000Z</time></trkpt><trkpt lon="5.669601" lat="51.149988"><ele>30</ele><time>2022-03-27T07:22:01.000Z</time></trkpt><trkpt lon="5.669505" lat="51.149943"><ele>29.8</ele><time>2022-03-27T07:22:02.000Z</time></trkpt><trkpt lon="5.669417" lat="51.149904"><ele>29.8</ele><time>2022-03-27T07:22:03.000Z</time></trkpt><trkpt lon="5.669313" lat="51.149859"><ele>29.8</ele><time>2022-03-27T07:22:04.000Z</time></trkpt><trkpt lon="5.669218" lat="51.149817"><ele>29.8</ele><time>2022-03-27T07:22:05.000Z</time></trkpt><trkpt lon="5.669121" lat="51.149775"><ele>30</ele><time>2022-03-27T07:22:06.000Z</time></trkpt><trkpt lon="5.669025" lat="51.149733"><ele>30</ele><time>2022-03-27T07:22:07.000Z</time></trkpt><trkpt lon="5.668938" lat="51.149696"><ele>30</ele><time>2022-03-27T07:22:08.000Z</time></trkpt><trkpt lon="5.668832" lat="51.149649"><ele>30</ele><time>2022-03-27T07:22:09.000Z</time></trkpt><trkpt lon="5.668739" lat="51.149608"><ele>30</ele><time>2022-03-27T07:22:10.000Z</time></trkpt><trkpt lon="5.66864" lat="51.149565"><ele>30.2</ele><time>2022-03-27T07:22:11.000Z</time></trkpt><trkpt lon="5.668543" lat="51.149523"><ele>30.2</ele><time>2022-03-27T07:22:12.000Z</time></trkpt><trkpt lon="5.668447" lat="51.149477"><ele>30.2</ele><time>2022-03-27T07:22:13.000Z</time></trkpt><trkpt lon="5.66835" lat="51.149435"><ele>30.2</ele><time>2022-03-27T07:22:14.000Z</time></trkpt><trkpt lon="5.668251" lat="51.149393"><ele>30.2</ele><time>2022-03-27T07:22:15.000Z</time></trkpt><trkpt lon="5.668153" lat="51.149348"><ele>30.2</ele><time>2022-03-27T07:22:16.000Z</time></trkpt><trkpt lon="5.668055" lat="51.149306"><ele>30.2</ele><time>2022-03-27T07:22:17.000Z</time></trkpt><trkpt lon="5.667957" lat="51.149264"><ele>30.2</ele><time>2022-03-27T07:22:18.000Z</time></trkpt><trkpt lon="5.667858" lat="51.149218"><ele>30.2</ele><time>2022-03-27T07:22:19.000Z</time></trkpt><trkpt lon="5.667758" lat="51.149176"><ele>30.4</ele><time>2022-03-27T07:22:20.000Z</time></trkpt><trkpt lon="5.667661" lat="51.149134"><ele>30.2</ele><time>2022-03-27T07:22:21.000Z</time></trkpt><trkpt lon="5.667562" lat="51.149092"><ele>30.4</ele><time>2022-03-27T07:22:22.000Z</time></trkpt><trkpt lon="5.667465" lat="51.149047"><ele>30.4</ele><time>2022-03-27T07:22:23.000Z</time></trkpt><trkpt lon="5.667367" lat="51.149004"><ele>30.4</ele><time>2022-03-27T07:22:24.000Z</time></trkpt><trkpt lon="5.66727" lat="51.148963"><ele>30.2</ele><time>2022-03-27T07:22:25.000Z</time></trkpt><trkpt lon="5.667173" lat="51.148921"><ele>30.2</ele><time>2022-03-27T07:22:26.000Z</time></trkpt><trkpt lon="5.667073" lat="51.148878"><ele>30.2</ele><time>2022-03-27T07:22:27.000Z</time></trkpt><trkpt lon="5.666975" lat="51.148833"><ele>30.2</ele><time>2022-03-27T07:22:28.000Z</time></trkpt><trkpt lon="5.666877" lat="51.148791"><ele>30.2</ele><time>2022-03-27T07:22:29.000Z</time></trkpt><trkpt lon="5.666779" lat="51.148749"><ele>30.2</ele><time>2022-03-27T07:22:30.000Z</time></trkpt><trkpt lon="5.66668" lat="51.148707"><ele>30.2</ele><time>2022-03-27T07:22:31.000Z</time></trkpt><trkpt lon="5.66658" lat="51.148665"><ele>30.2</ele><time>2022-03-27T07:22:32.000Z</time></trkpt><trkpt lon="5.666488" lat="51.148625"><ele>30.2</ele><time>2022-03-27T07:22:33.000Z</time></trkpt><trkpt lon="5.666386" lat="51.148577"><ele>30.2</ele><time>2022-03-27T07:22:34.000Z</time></trkpt><trkpt lon="5.66629" lat="51.148535"><ele>30.2</ele><time>2022-03-27T07:22:35.000Z</time></trkpt><trkpt lon="5.66619" lat="51.148489"><ele>30</ele><time>2022-03-27T07:22:36.000Z</time></trkpt><trkpt lon="5.666092" lat="51.148447"><ele>30</ele><time>2022-03-27T07:22:37.000Z</time></trkpt><trkpt lon="5.665997" lat="51.148405"><ele>30</ele><time>2022-03-27T07:22:38.000Z</time></trkpt><trkpt lon="5.665901" lat="51.148363"><ele>30</ele><time>2022-03-27T07:22:39.000Z</time></trkpt><trkpt lon="5.665806" lat="51.148321"><ele>30</ele><time>2022-03-27T07:22:40.000Z</time></trkpt><trkpt lon="5.665711" lat="51.148279"><ele>30.2</ele><time>2022-03-27T07:22:41.000Z</time></trkpt><trkpt lon="5.665619" lat="51.148238"><ele>30.2</ele><time>2022-03-27T07:22:42.000Z</time></trkpt><trkpt lon="5.665524" lat="51.148195"><ele>30.2</ele><time>2022-03-27T07:22:43.000Z</time></trkpt><trkpt lon="5.665434" lat="51.148154"><ele>30.2</ele><time>2022-03-27T07:22:44.000Z</time></trkpt><trkpt lon="5.66534" lat="51.148111"><ele>30.2</ele><time>2022-03-27T07:22:45.000Z</time></trkpt><trkpt lon="5.665247" lat="51.14807"><ele>30.2</ele><time>2022-03-27T07:22:46.000Z</time></trkpt><trkpt lon="5.665155" lat="51.148029"><ele>30.4</ele><time>2022-03-27T07:22:47.000Z</time></trkpt><trkpt lon="5.665057" lat="51.147986"><ele>30.4</ele><time>2022-03-27T07:22:48.000Z</time></trkpt><trkpt lon="5.664961" lat="51.147944"><ele>30.4</ele><time>2022-03-27T07:22:49.000Z</time></trkpt><trkpt lon="5.664868" lat="51.147903"><ele>30.4</ele><time>2022-03-27T07:22:50.000Z</time></trkpt><trkpt lon="5.664775" lat="51.14786"><ele>30.4</ele><time>2022-03-27T07:22:51.000Z</time></trkpt><trkpt lon="5.664681" lat="51.147818"><ele>30.4</ele><time>2022-03-27T07:22:52.000Z</time></trkpt><trkpt lon="5.664586" lat="51.147776"><ele>30.6</ele><time>2022-03-27T07:22:53.000Z</time></trkpt><trkpt lon="5.664493" lat="51.147738"><ele>30.6</ele><time>2022-03-27T07:22:54.000Z</time></trkpt><trkpt lon="5.664396" lat="51.147696"><ele>30.6</ele><time>2022-03-27T07:22:55.000Z</time></trkpt><trkpt lon="5.664301" lat="51.147654"><ele>30.6</ele><time>2022-03-27T07:22:56.000Z</time></trkpt><trkpt lon="5.66421" lat="51.147616"><ele>30.6</ele><time>2022-03-27T07:22:57.000Z</time></trkpt><trkpt lon="5.664113" lat="51.147574"><ele>30.6</ele><time>2022-03-27T07:22:58.000Z</time></trkpt><trkpt lon="5.664018" lat="51.147532"><ele>30.6</ele><time>2022-03-27T07:22:59.000Z</time></trkpt><trkpt lon="5.663926" lat="51.147491"><ele>30.6</ele><time>2022-03-27T07:23:00.000Z</time></trkpt><trkpt lon="5.663826" lat="51.147444"><ele>30.8</ele><time>2022-03-27T07:23:01.000Z</time></trkpt><trkpt lon="5.663729" lat="51.147402"><ele>30.8</ele><time>2022-03-27T07:23:02.000Z</time></trkpt><trkpt lon="5.663645" lat="51.147368"><ele>31</ele><time>2022-03-27T07:23:03.000Z</time></trkpt><trkpt lon="5.663536" lat="51.147322"><ele>31</ele><time>2022-03-27T07:23:04.000Z</time></trkpt><trkpt lon="5.663439" lat="51.14728"><ele>31</ele><time>2022-03-27T07:23:05.000Z</time></trkpt><trkpt lon="5.663342" lat="51.147234"><ele>31</ele><time>2022-03-27T07:23:06.000Z</time></trkpt><trkpt lon="5.663246" lat="51.147192"><ele>31</ele><time>2022-03-27T07:23:07.000Z</time></trkpt><trkpt lon="5.663153" lat="51.147152"><ele>31</ele><time>2022-03-27T07:23:08.000Z</time></trkpt><trkpt lon="5.663054" lat="51.147108"><ele>31</ele><time>2022-03-27T07:23:09.000Z</time></trkpt><trkpt lon="5.66296" lat="51.147067"><ele>30.8</ele><time>2022-03-27T07:23:10.000Z</time></trkpt><trkpt lon="5.662862" lat="51.147025"><ele>31</ele><time>2022-03-27T07:23:11.000Z</time></trkpt><trkpt lon="5.662765" lat="51.146979"><ele>31</ele><time>2022-03-27T07:23:12.000Z</time></trkpt><trkpt lon="5.662669" lat="51.14694"><ele>31.2</ele><time>2022-03-27T07:23:13.000Z</time></trkpt><trkpt lon="5.662579" lat="51.1469"><ele>31.2</ele><time>2022-03-27T07:23:14.000Z</time></trkpt><trkpt lon="5.662478" lat="51.146853"><ele>31.2</ele><time>2022-03-27T07:23:15.000Z</time></trkpt><trkpt lon="5.662383" lat="51.146811"><ele>31.4</ele><time>2022-03-27T07:23:16.000Z</time></trkpt><trkpt lon="5.662285" lat="51.146769"><ele>31.4</ele><time>2022-03-27T07:23:17.000Z</time></trkpt><trkpt lon="5.662188" lat="51.146727"><ele>31.6</ele><time>2022-03-27T07:23:18.000Z</time></trkpt><trkpt lon="5.662088" lat="51.146681"><ele>31.6</ele><time>2022-03-27T07:23:19.000Z</time></trkpt><trkpt lon="5.661992" lat="51.146639"><ele>31.4</ele><time>2022-03-27T07:23:20.000Z</time></trkpt><trkpt lon="5.661896" lat="51.146597"><ele>31.4</ele><time>2022-03-27T07:23:21.000Z</time></trkpt><trkpt lon="5.661803" lat="51.146555"><ele>31.4</ele><time>2022-03-27T07:23:22.000Z</time></trkpt><trkpt lon="5.66171" lat="51.146513"><ele>31.2</ele><time>2022-03-27T07:23:23.000Z</time></trkpt><trkpt lon="5.661616" lat="51.146472"><ele>31.2</ele><time>2022-03-27T07:23:24.000Z</time></trkpt><trkpt lon="5.661516" lat="51.146429"><ele>31.2</ele><time>2022-03-27T07:23:25.000Z</time></trkpt><trkpt lon="5.66142" lat="51.146388"><ele>31.2</ele><time>2022-03-27T07:23:26.000Z</time></trkpt><trkpt lon="5.661321" lat="51.146345"><ele>31.2</ele><time>2022-03-27T07:23:27.000Z</time></trkpt><trkpt lon="5.661223" lat="51.146304"><ele>31.2</ele><time>2022-03-27T07:23:28.000Z</time></trkpt><trkpt lon="5.661124" lat="51.146262"><ele>31.2</ele><time>2022-03-27T07:23:29.000Z</time></trkpt><trkpt lon="5.661024" lat="51.146216"><ele>31.2</ele><time>2022-03-27T07:23:30.000Z</time></trkpt><trkpt lon="5.660926" lat="51.146174"><ele>31.2</ele><time>2022-03-27T07:23:31.000Z</time></trkpt><trkpt lon="5.660826" lat="51.146128"><ele>31.2</ele><time>2022-03-27T07:23:32.000Z</time></trkpt><trkpt lon="5.66074" lat="51.146091"><ele>31.2</ele><time>2022-03-27T07:23:33.000Z</time></trkpt><trkpt lon="5.660627" lat="51.146044"><ele>31.2</ele><time>2022-03-27T07:23:34.000Z</time></trkpt><trkpt lon="5.660527" lat="51.145998"><ele>31.2</ele><time>2022-03-27T07:23:35.000Z</time></trkpt><trkpt lon="5.660425" lat="51.145956"><ele>31.4</ele><time>2022-03-27T07:23:36.000Z</time></trkpt><trkpt lon="5.660326" lat="51.145912"><ele>31.4</ele><time>2022-03-27T07:23:37.000Z</time></trkpt><trkpt lon="5.660222" lat="51.145869"><ele>31.4</ele><time>2022-03-27T07:23:38.000Z</time></trkpt><trkpt lon="5.660123" lat="51.145823"><ele>31.6</ele><time>2022-03-27T07:23:39.000Z</time></trkpt><trkpt lon="5.66002" lat="51.145781"><ele>31.4</ele><time>2022-03-27T07:23:40.000Z</time></trkpt><trkpt lon="5.659918" lat="51.145735"><ele>31.4</ele><time>2022-03-27T07:23:41.000Z</time></trkpt><trkpt lon="5.659818" lat="51.145693"><ele>31.4</ele><time>2022-03-27T07:23:42.000Z</time></trkpt><trkpt lon="5.659718" lat="51.145647"><ele>31.4</ele><time>2022-03-27T07:23:43.000Z</time></trkpt><trkpt lon="5.659618" lat="51.145602"><ele>31.4</ele><time>2022-03-27T07:23:44.000Z</time></trkpt><trkpt lon="5.65952" lat="51.14556"><ele>31.6</ele><time>2022-03-27T07:23:45.000Z</time></trkpt><trkpt lon="5.65942" lat="51.145514"><ele>31.6</ele><time>2022-03-27T07:23:46.000Z</time></trkpt><trkpt lon="5.659322" lat="51.145472"><ele>31.6</ele><time>2022-03-27T07:23:47.000Z</time></trkpt><trkpt lon="5.659222" lat="51.14543"><ele>31.6</ele><time>2022-03-27T07:23:48.000Z</time></trkpt><trkpt lon="5.659124" lat="51.145384"><ele>31.4</ele><time>2022-03-27T07:23:49.000Z</time></trkpt><trkpt lon="5.659028" lat="51.145343"><ele>31.4</ele><time>2022-03-27T07:23:50.000Z</time></trkpt><trkpt lon="5.658927" lat="51.145296"><ele>31.4</ele><time>2022-03-27T07:23:51.000Z</time></trkpt><trkpt lon="5.658826" lat="51.145251"><ele>31.4</ele><time>2022-03-27T07:23:52.000Z</time></trkpt><trkpt lon="5.658729" lat="51.145208"><ele>31.4</ele><time>2022-03-27T07:23:53.000Z</time></trkpt><trkpt lon="5.658635" lat="51.145164"><ele>31.4</ele><time>2022-03-27T07:23:54.000Z</time></trkpt><trkpt lon="5.658534" lat="51.145121"><ele>31.4</ele><time>2022-03-27T07:23:55.000Z</time></trkpt><trkpt lon="5.658435" lat="51.145079"><ele>31.4</ele><time>2022-03-27T07:23:56.000Z</time></trkpt><trkpt lon="5.658337" lat="51.145037"><ele>31.4</ele><time>2022-03-27T07:23:57.000Z</time></trkpt><trkpt lon="5.658239" lat="51.144992"><ele>31.4</ele><time>2022-03-27T07:23:58.000Z</time></trkpt><trkpt lon="5.65814" lat="51.144946"><ele>31.4</ele><time>2022-03-27T07:23:59.000Z</time></trkpt><trkpt lon="5.658039" lat="51.1449"><ele>31.4</ele><time>2022-03-27T07:24:00.000Z</time></trkpt><trkpt lon="5.657936" lat="51.144857"><ele>31.6</ele><time>2022-03-27T07:24:01.000Z</time></trkpt><trkpt lon="5.657837" lat="51.144816"><ele>31.6</ele><time>2022-03-27T07:24:02.000Z</time></trkpt><trkpt lon="5.657743" lat="51.144776"><ele>31.6</ele><time>2022-03-27T07:24:03.000Z</time></trkpt><trkpt lon="5.657641" lat="51.144732"><ele>31.6</ele><time>2022-03-27T07:24:04.000Z</time></trkpt><trkpt lon="5.657541" lat="51.144689"><ele>31.6</ele><time>2022-03-27T07:24:05.000Z</time></trkpt><trkpt lon="5.657445" lat="51.144644"><ele>31.6</ele><time>2022-03-27T07:24:06.000Z</time></trkpt><trkpt lon="5.657347" lat="51.144602"><ele>31.6</ele><time>2022-03-27T07:24:07.000Z</time></trkpt><trkpt lon="5.657262" lat="51.144563"><ele>31.6</ele><time>2022-03-27T07:24:08.000Z</time></trkpt><trkpt lon="5.657146" lat="51.144511"><ele>31.8</ele><time>2022-03-27T07:24:09.000Z</time></trkpt><trkpt lon="5.657044" lat="51.144469"><ele>31.6</ele><time>2022-03-27T07:24:10.000Z</time></trkpt><trkpt lon="5.656944" lat="51.144423"><ele>31.6</ele><time>2022-03-27T07:24:11.000Z</time></trkpt><trkpt lon="5.656842" lat="51.144377"><ele>31.6</ele><time>2022-03-27T07:24:12.000Z</time></trkpt><trkpt lon="5.656742" lat="51.144335"><ele>31.6</ele><time>2022-03-27T07:24:13.000Z</time></trkpt><trkpt lon="5.656643" lat="51.14429"><ele>31.8</ele><time>2022-03-27T07:24:14.000Z</time></trkpt><trkpt lon="5.656541" lat="51.144244"><ele>31.8</ele><time>2022-03-27T07:24:15.000Z</time></trkpt><trkpt lon="5.656439" lat="51.144202"><ele>32</ele><time>2022-03-27T07:24:16.000Z</time></trkpt><trkpt lon="5.65634" lat="51.144157"><ele>32</ele><time>2022-03-27T07:24:17.000Z</time></trkpt><trkpt lon="5.656239" lat="51.144114"><ele>32</ele><time>2022-03-27T07:24:18.000Z</time></trkpt><trkpt lon="5.65614" lat="51.144072"><ele>32.2</ele><time>2022-03-27T07:24:19.000Z</time></trkpt><trkpt lon="5.656042" lat="51.14403"><ele>32.2</ele><time>2022-03-27T07:24:20.000Z</time></trkpt><trkpt lon="5.655946" lat="51.143988"><ele>32</ele><time>2022-03-27T07:24:21.000Z</time></trkpt><trkpt lon="5.655853" lat="51.143946"><ele>32</ele><time>2022-03-27T07:24:22.000Z</time></trkpt><trkpt lon="5.65576" lat="51.143904"><ele>32</ele><time>2022-03-27T07:24:23.000Z</time></trkpt><trkpt lon="5.655668" lat="51.143863"><ele>32</ele><time>2022-03-27T07:24:24.000Z</time></trkpt><trkpt lon="5.655573" lat="51.143821"><ele>32</ele><time>2022-03-27T07:24:25.000Z</time></trkpt><trkpt lon="5.655475" lat="51.143778"><ele>32</ele><time>2022-03-27T07:24:26.000Z</time></trkpt><trkpt lon="5.655377" lat="51.143736"><ele>31.8</ele><time>2022-03-27T07:24:27.000Z</time></trkpt><trkpt lon="5.655276" lat="51.143691"><ele>31.8</ele><time>2022-03-27T07:24:28.000Z</time></trkpt><trkpt lon="5.655177" lat="51.143653"><ele>31.8</ele><time>2022-03-27T07:24:29.000Z</time></trkpt><trkpt lon="5.655077" lat="51.143611"><ele>31.8</ele><time>2022-03-27T07:24:30.000Z</time></trkpt><trkpt lon="5.654974" lat="51.143572"><ele>31.8</ele><time>2022-03-27T07:24:31.000Z</time></trkpt><trkpt lon="5.654868" lat="51.143534"><ele>31.8</ele><time>2022-03-27T07:24:32.000Z</time></trkpt><trkpt lon="5.654778" lat="51.143501"><ele>31.6</ele><time>2022-03-27T07:24:33.000Z</time></trkpt><trkpt lon="5.654653" lat="51.143465"><ele>31.6</ele><time>2022-03-27T07:24:34.000Z</time></trkpt><trkpt lon="5.654543" lat="51.143434"><ele>31.6</ele><time>2022-03-27T07:24:35.000Z</time></trkpt><trkpt lon="5.654434" lat="51.1434"><ele>31.6</ele><time>2022-03-27T07:24:36.000Z</time></trkpt><trkpt lon="5.654325" lat="51.143373"><ele>31.8</ele><time>2022-03-27T07:24:37.000Z</time></trkpt><trkpt lon="5.654219" lat="51.143343"><ele>31.8</ele><time>2022-03-27T07:24:38.000Z</time></trkpt><trkpt lon="5.654113" lat="51.143309"><ele>31.8</ele><time>2022-03-27T07:24:39.000Z</time></trkpt><trkpt lon="5.654005" lat="51.143278"><ele>31.8</ele><time>2022-03-27T07:24:40.000Z</time></trkpt><trkpt lon="5.653901" lat="51.143244"><ele>32</ele><time>2022-03-27T07:24:41.000Z</time></trkpt><trkpt lon="5.6538" lat="51.143206"><ele>32.2</ele><time>2022-03-27T07:24:42.000Z</time></trkpt><trkpt lon="5.653704" lat="51.143171"><ele>32.2</ele><time>2022-03-27T07:24:43.000Z</time></trkpt><trkpt lon="5.65361" lat="51.143133"><ele>32.4</ele><time>2022-03-27T07:24:44.000Z</time></trkpt><trkpt lon="5.653516" lat="51.143099"><ele>32.6</ele><time>2022-03-27T07:24:45.000Z</time></trkpt><trkpt lon="5.653421" lat="51.143061"><ele>32.6</ele><time>2022-03-27T07:24:46.000Z</time></trkpt><trkpt lon="5.653324" lat="51.14303"><ele>32.8</ele><time>2022-03-27T07:24:47.000Z</time></trkpt><trkpt lon="5.653223" lat="51.142999"><ele>32.6</ele><time>2022-03-27T07:24:48.000Z</time></trkpt><trkpt lon="5.653119" lat="51.142972"><ele>32.6</ele><time>2022-03-27T07:24:49.000Z</time></trkpt><trkpt lon="5.653008" lat="51.142957"><ele>32.4</ele><time>2022-03-27T07:24:50.000Z</time></trkpt><trkpt lon="5.652894" lat="51.142952"><ele>32.4</ele><time>2022-03-27T07:24:51.000Z</time></trkpt><trkpt lon="5.652777" lat="51.142952"><ele>32.2</ele><time>2022-03-27T07:24:52.000Z</time></trkpt><trkpt lon="5.652662" lat="51.142956"><ele>32.2</ele><time>2022-03-27T07:24:53.000Z</time></trkpt><trkpt lon="5.652547" lat="51.142959"><ele>32.2</ele><time>2022-03-27T07:24:54.000Z</time></trkpt><trkpt lon="5.652427" lat="51.142963"><ele>32.2</ele><time>2022-03-27T07:24:55.000Z</time></trkpt><trkpt lon="5.652313" lat="51.142963"><ele>32.2</ele><time>2022-03-27T07:24:56.000Z</time></trkpt><trkpt lon="5.652201" lat="51.142963"><ele>32.2</ele><time>2022-03-27T07:24:57.000Z</time></trkpt><trkpt lon="5.652091" lat="51.142963"><ele>32.4</ele><time>2022-03-27T07:24:58.000Z</time></trkpt><trkpt lon="5.651988" lat="51.14296"><ele>32.4</ele><time>2022-03-27T07:24:59.000Z</time></trkpt><trkpt lon="5.651888" lat="51.142941"><ele>32.6</ele><time>2022-03-27T07:25:00.000Z</time></trkpt><trkpt lon="5.651803" lat="51.142919"><ele>32.8</ele><time>2022-03-27T07:25:01.000Z</time></trkpt><trkpt lon="5.651731" lat="51.142892"><ele>32.8</ele><time>2022-03-27T07:25:02.000Z</time></trkpt><trkpt lon="5.651663" lat="51.142867"><ele>33</ele><time>2022-03-27T07:25:03.000Z</time></trkpt><trkpt lon="5.651583" lat="51.142842"><ele>33</ele><time>2022-03-27T07:25:04.000Z</time></trkpt><trkpt lon="5.651496" lat="51.142834"><ele>33</ele><time>2022-03-27T07:25:05.000Z</time></trkpt><trkpt lon="5.651401" lat="51.142834"><ele>32.8</ele><time>2022-03-27T07:25:06.000Z</time></trkpt><trkpt lon="5.651298" lat="51.142837"><ele>32.8</ele><time>2022-03-27T07:25:07.000Z</time></trkpt><trkpt lon="5.651193" lat="51.142841"><ele>32.8</ele><time>2022-03-27T07:25:08.000Z</time></trkpt><trkpt lon="5.651084" lat="51.142845"><ele>32.6</ele><time>2022-03-27T07:25:09.000Z</time></trkpt><trkpt lon="5.650972" lat="51.142845"><ele>32.6</ele><time>2022-03-27T07:25:10.000Z</time></trkpt><trkpt lon="5.650859" lat="51.142849"><ele>32.6</ele><time>2022-03-27T07:25:11.000Z</time></trkpt><trkpt lon="5.650744" lat="51.142849"><ele>32.4</ele><time>2022-03-27T07:25:12.000Z</time></trkpt><trkpt lon="5.650629" lat="51.142853"><ele>32.4</ele><time>2022-03-27T07:25:13.000Z</time></trkpt><trkpt lon="5.650515" lat="51.142856"><ele>32.4</ele><time>2022-03-27T07:25:14.000Z</time></trkpt><trkpt lon="5.650399" lat="51.142857"><ele>32.4</ele><time>2022-03-27T07:25:15.000Z</time></trkpt><trkpt lon="5.650284" lat="51.14286"><ele>32.4</ele><time>2022-03-27T07:25:16.000Z</time></trkpt><trkpt lon="5.650169" lat="51.142864"><ele>32.4</ele><time>2022-03-27T07:25:17.000Z</time></trkpt><trkpt lon="5.650054" lat="51.142868"><ele>32.4</ele><time>2022-03-27T07:25:18.000Z</time></trkpt><trkpt lon="5.649937" lat="51.142868"><ele>32.4</ele><time>2022-03-27T07:25:19.000Z</time></trkpt><trkpt lon="5.649821" lat="51.142872"><ele>32.4</ele><time>2022-03-27T07:25:20.000Z</time></trkpt><trkpt lon="5.649708" lat="51.142872"><ele>32.4</ele><time>2022-03-27T07:25:21.000Z</time></trkpt><trkpt lon="5.649593" lat="51.142872"><ele>32.6</ele><time>2022-03-27T07:25:22.000Z</time></trkpt><trkpt lon="5.649479" lat="51.142872"><ele>32.6</ele><time>2022-03-27T07:25:23.000Z</time></trkpt><trkpt lon="5.649366" lat="51.142872"><ele>33</ele><time>2022-03-27T07:25:24.000Z</time></trkpt><trkpt lon="5.649251" lat="51.142872"><ele>33</ele><time>2022-03-27T07:25:25.000Z</time></trkpt><trkpt lon="5.649141" lat="51.142872"><ele>33.4</ele><time>2022-03-27T07:25:26.000Z</time></trkpt><trkpt lon="5.649026" lat="51.142875"><ele>33.4</ele><time>2022-03-27T07:25:27.000Z</time></trkpt><trkpt lon="5.648914" lat="51.142876"><ele>33.6</ele><time>2022-03-27T07:25:28.000Z</time></trkpt><trkpt lon="5.648805" lat="51.142879"><ele>33.6</ele><time>2022-03-27T07:25:29.000Z</time></trkpt><trkpt lon="5.648693" lat="51.142879"><ele>33.6</ele><time>2022-03-27T07:25:30.000Z</time></trkpt><trkpt lon="5.64858" lat="51.142883"><ele>33.8</ele><time>2022-03-27T07:25:31.000Z</time></trkpt><trkpt lon="5.648467" lat="51.142883"><ele>33.8</ele><time>2022-03-27T07:25:32.000Z</time></trkpt><trkpt lon="5.648363" lat="51.142883"><ele>33.8</ele><time>2022-03-27T07:25:33.000Z</time></trkpt><trkpt lon="5.648244" lat="51.142883"><ele>33.8</ele><time>2022-03-27T07:25:34.000Z</time></trkpt><trkpt lon="5.648134" lat="51.142887"><ele>34</ele><time>2022-03-27T07:25:35.000Z</time></trkpt><trkpt lon="5.648025" lat="51.142887"><ele>34</ele><time>2022-03-27T07:25:36.000Z</time></trkpt><trkpt lon="5.647914" lat="51.142887"><ele>34</ele><time>2022-03-27T07:25:37.000Z</time></trkpt><trkpt lon="5.647803" lat="51.142891"><ele>34</ele><time>2022-03-27T07:25:38.000Z</time></trkpt><trkpt lon="5.647692" lat="51.142895"><ele>34</ele><time>2022-03-27T07:25:39.000Z</time></trkpt><trkpt lon="5.647582" lat="51.142895"><ele>33.8</ele><time>2022-03-27T07:25:40.000Z</time></trkpt><trkpt lon="5.647471" lat="51.142898"><ele>33.8</ele><time>2022-03-27T07:25:41.000Z</time></trkpt><trkpt lon="5.647359" lat="51.142899"><ele>33.8</ele><time>2022-03-27T07:25:42.000Z</time></trkpt><trkpt lon="5.647246" lat="51.142899"><ele>33.8</ele><time>2022-03-27T07:25:43.000Z</time></trkpt><trkpt lon="5.647134" lat="51.142902"><ele>34</ele><time>2022-03-27T07:25:44.000Z</time></trkpt><trkpt lon="5.647026" lat="51.142902"><ele>34</ele><time>2022-03-27T07:25:45.000Z</time></trkpt><trkpt lon="5.646913" lat="51.142906"><ele>34.2</ele><time>2022-03-27T07:25:46.000Z</time></trkpt><trkpt lon="5.646801" lat="51.142906"><ele>34.2</ele><time>2022-03-27T07:25:47.000Z</time></trkpt><trkpt lon="5.646686" lat="51.14291"><ele>34.2</ele><time>2022-03-27T07:25:48.000Z</time></trkpt><trkpt lon="5.646574" lat="51.14291"><ele>34</ele><time>2022-03-27T07:25:49.000Z</time></trkpt><trkpt lon="5.646459" lat="51.14291"><ele>34.2</ele><time>2022-03-27T07:25:50.000Z</time></trkpt><trkpt lon="5.646345" lat="51.142914"><ele>34.2</ele><time>2022-03-27T07:25:51.000Z</time></trkpt><trkpt lon="5.646231" lat="51.142914"><ele>34</ele><time>2022-03-27T07:25:52.000Z</time></trkpt><trkpt lon="5.646114" lat="51.142917"><ele>33.8</ele><time>2022-03-27T07:25:53.000Z</time></trkpt><trkpt lon="5.646003" lat="51.142921"><ele>33.8</ele><time>2022-03-27T07:25:54.000Z</time></trkpt><trkpt lon="5.64589" lat="51.142921"><ele>33.8</ele><time>2022-03-27T07:25:55.000Z</time></trkpt><trkpt lon="5.645779" lat="51.142925"><ele>33.6</ele><time>2022-03-27T07:25:56.000Z</time></trkpt><trkpt lon="5.645668" lat="51.142925"><ele>33.6</ele><time>2022-03-27T07:25:57.000Z</time></trkpt><trkpt lon="5.645557" lat="51.142925"><ele>33.8</ele><time>2022-03-27T07:25:58.000Z</time></trkpt><trkpt lon="5.645446" lat="51.142929"><ele>33.8</ele><time>2022-03-27T07:25:59.000Z</time></trkpt><trkpt lon="5.645331" lat="51.142933"><ele>33.8</ele><time>2022-03-27T07:26:00.000Z</time></trkpt><trkpt lon="5.645214" lat="51.142933"><ele>33.8</ele><time>2022-03-27T07:26:01.000Z</time></trkpt><trkpt lon="5.645099" lat="51.142936"><ele>33.8</ele><time>2022-03-27T07:26:02.000Z</time></trkpt><trkpt lon="5.644984" lat="51.142937"><ele>33.8</ele><time>2022-03-27T07:26:03.000Z</time></trkpt><trkpt lon="5.644868" lat="51.14294"><ele>33.8</ele><time>2022-03-27T07:26:04.000Z</time></trkpt><trkpt lon="5.644753" lat="51.142941"><ele>33.8</ele><time>2022-03-27T07:26:05.000Z</time></trkpt><trkpt lon="5.644638" lat="51.142941"><ele>33.8</ele><time>2022-03-27T07:26:06.000Z</time></trkpt><trkpt lon="5.644525" lat="51.142944"><ele>33.8</ele><time>2022-03-27T07:26:07.000Z</time></trkpt><trkpt lon="5.644415" lat="51.142944"><ele>33.8</ele><time>2022-03-27T07:26:08.000Z</time></trkpt><trkpt lon="5.644301" lat="51.142944"><ele>33.8</ele><time>2022-03-27T07:26:09.000Z</time></trkpt><trkpt lon="5.644191" lat="51.142948"><ele>34</ele><time>2022-03-27T07:26:10.000Z</time></trkpt><trkpt lon="5.644084" lat="51.142948"><ele>34</ele><time>2022-03-27T07:26:11.000Z</time></trkpt><trkpt lon="5.643979" lat="51.142948"><ele>34.2</ele><time>2022-03-27T07:26:12.000Z</time></trkpt><trkpt lon="5.643874" lat="51.142948"><ele>34.2</ele><time>2022-03-27T07:26:13.000Z</time></trkpt><trkpt lon="5.643773" lat="51.142952"><ele>34.4</ele><time>2022-03-27T07:26:14.000Z</time></trkpt><trkpt lon="5.643678" lat="51.142952"><ele>34.4</ele><time>2022-03-27T07:26:15.000Z</time></trkpt><trkpt lon="5.643593" lat="51.142952"><ele>34.6</ele><time>2022-03-27T07:26:16.000Z</time></trkpt><trkpt lon="5.643516" lat="51.142963"><ele>34.8</ele><time>2022-03-27T07:26:17.000Z</time></trkpt><trkpt lon="5.643451" lat="51.142992"><ele>34.8</ele><time>2022-03-27T07:26:18.000Z</time></trkpt><trkpt lon="5.643404" lat="51.143037"><ele>34.6</ele><time>2022-03-27T07:26:19.000Z</time></trkpt><trkpt lon="5.643366" lat="51.143094"><ele>34.4</ele><time>2022-03-27T07:26:20.000Z</time></trkpt><trkpt lon="5.643325" lat="51.143153"><ele>34.2</ele><time>2022-03-27T07:26:21.000Z</time></trkpt><trkpt lon="5.643279" lat="51.143216"><ele>34</ele><time>2022-03-27T07:26:22.000Z</time></trkpt><trkpt lon="5.643234" lat="51.143281"><ele>34</ele><time>2022-03-27T07:26:23.000Z</time></trkpt><trkpt lon="5.643189" lat="51.143345"><ele>33.8</ele><time>2022-03-27T07:26:24.000Z</time></trkpt><trkpt lon="5.643141" lat="51.143411"><ele>33.6</ele><time>2022-03-27T07:26:25.000Z</time></trkpt><trkpt lon="5.643092" lat="51.143475"><ele>33.6</ele><time>2022-03-27T07:26:26.000Z</time></trkpt><trkpt lon="5.643044" lat="51.14354"><ele>33.4</ele><time>2022-03-27T07:26:27.000Z</time></trkpt><trkpt lon="5.642996" lat="51.143604"><ele>33.4</ele><time>2022-03-27T07:26:28.000Z</time></trkpt><trkpt lon="5.642946" lat="51.143673"><ele>33.4</ele><time>2022-03-27T07:26:29.000Z</time></trkpt><trkpt lon="5.642899" lat="51.14374"><ele>33.4</ele><time>2022-03-27T07:26:30.000Z</time></trkpt><trkpt lon="5.642849" lat="51.143807"><ele>33.4</ele><time>2022-03-27T07:26:31.000Z</time></trkpt><trkpt lon="5.642802" lat="51.143875"><ele>33.4</ele><time>2022-03-27T07:26:32.000Z</time></trkpt><trkpt lon="5.642757" lat="51.143948"><ele>33.2</ele><time>2022-03-27T07:26:33.000Z</time></trkpt><trkpt lon="5.642713" lat="51.144017"><ele>33.2</ele><time>2022-03-27T07:26:34.000Z</time></trkpt><trkpt lon="5.64267" lat="51.144086"><ele>33.2</ele><time>2022-03-27T07:26:35.000Z</time></trkpt><trkpt lon="5.642625" lat="51.144158"><ele>33</ele><time>2022-03-27T07:26:36.000Z</time></trkpt><trkpt lon="5.642577" lat="51.144226"><ele>33</ele><time>2022-03-27T07:26:37.000Z</time></trkpt><trkpt lon="5.642529" lat="51.144295"><ele>33</ele><time>2022-03-27T07:26:38.000Z</time></trkpt><trkpt lon="5.642482" lat="51.144358"><ele>33</ele><time>2022-03-27T07:26:39.000Z</time></trkpt><trkpt lon="5.642437" lat="51.144428"><ele>33</ele><time>2022-03-27T07:26:40.000Z</time></trkpt><trkpt lon="5.642392" lat="51.144497"><ele>33</ele><time>2022-03-27T07:26:41.000Z</time></trkpt><trkpt lon="5.642349" lat="51.144569"><ele>33.2</ele><time>2022-03-27T07:26:42.000Z</time></trkpt><trkpt lon="5.642304" lat="51.144639"><ele>33</ele><time>2022-03-27T07:26:43.000Z</time></trkpt><trkpt lon="5.642259" lat="51.144706"><ele>33</ele><time>2022-03-27T07:26:44.000Z</time></trkpt><trkpt lon="5.642214" lat="51.14478"><ele>33</ele><time>2022-03-27T07:26:45.000Z</time></trkpt><trkpt lon="5.642169" lat="51.144845"><ele>33</ele><time>2022-03-27T07:26:46.000Z</time></trkpt><trkpt lon="5.642126" lat="51.144912"><ele>32.8</ele><time>2022-03-27T07:26:47.000Z</time></trkpt><trkpt lon="5.642081" lat="51.144982"><ele>32.8</ele><time>2022-03-27T07:26:48.000Z</time></trkpt><trkpt lon="5.642034" lat="51.145051"><ele>32.8</ele><time>2022-03-27T07:26:49.000Z</time></trkpt><trkpt lon="5.641991" lat="51.145119"><ele>32.6</ele><time>2022-03-27T07:26:50.000Z</time></trkpt><trkpt lon="5.641944" lat="51.145192"><ele>32.6</ele><time>2022-03-27T07:26:51.000Z</time></trkpt><trkpt lon="5.641897" lat="51.145264"><ele>32.6</ele><time>2022-03-27T07:26:52.000Z</time></trkpt><trkpt lon="5.641851" lat="51.145336"><ele>32.4</ele><time>2022-03-27T07:26:53.000Z</time></trkpt><trkpt lon="5.641805" lat="51.145405"><ele>32.4</ele><time>2022-03-27T07:26:54.000Z</time></trkpt><trkpt lon="5.641758" lat="51.145477"><ele>32.4</ele><time>2022-03-27T07:26:55.000Z</time></trkpt><trkpt lon="5.641711" lat="51.14555"><ele>32.2</ele><time>2022-03-27T07:26:56.000Z</time></trkpt><trkpt lon="5.641667" lat="51.14562"><ele>32.2</ele><time>2022-03-27T07:26:57.000Z</time></trkpt><trkpt lon="5.641619" lat="51.145695"><ele>32.2</ele><time>2022-03-27T07:26:58.000Z</time></trkpt><trkpt lon="5.641574" lat="51.145764"><ele>32.2</ele><time>2022-03-27T07:26:59.000Z</time></trkpt><trkpt lon="5.641529" lat="51.145832"><ele>32</ele><time>2022-03-27T07:27:00.000Z</time></trkpt><trkpt lon="5.641484" lat="51.145901"><ele>32</ele><time>2022-03-27T07:27:01.000Z</time></trkpt><trkpt lon="5.641439" lat="51.14597"><ele>32</ele><time>2022-03-27T07:27:02.000Z</time></trkpt><trkpt lon="5.641394" lat="51.146038"><ele>32</ele><time>2022-03-27T07:27:03.000Z</time></trkpt><trkpt lon="5.641348" lat="51.146107"><ele>32</ele><time>2022-03-27T07:27:04.000Z</time></trkpt><trkpt lon="5.641301" lat="51.146176"><ele>31.8</ele><time>2022-03-27T07:27:05.000Z</time></trkpt><trkpt lon="5.641254" lat="51.146241"><ele>31.8</ele><time>2022-03-27T07:27:06.000Z</time></trkpt><trkpt lon="5.641209" lat="51.146306"><ele>31.8</ele><time>2022-03-27T07:27:07.000Z</time></trkpt><trkpt lon="5.641175" lat="51.14637"><ele>31.8</ele><time>2022-03-27T07:27:08.000Z</time></trkpt><trkpt lon="5.641168" lat="51.146438"><ele>31.8</ele><time>2022-03-27T07:27:09.000Z</time></trkpt><trkpt lon="5.641195" lat="51.1465"><ele>31.8</ele><time>2022-03-27T07:27:10.000Z</time></trkpt><trkpt lon="5.64125" lat="51.146553"><ele>32</ele><time>2022-03-27T07:27:11.000Z</time></trkpt><trkpt lon="5.641316" lat="51.146606"><ele>32.2</ele><time>2022-03-27T07:27:12.000Z</time></trkpt><trkpt lon="5.641388" lat="51.146665"><ele>32.2</ele><time>2022-03-27T07:27:13.000Z</time></trkpt><trkpt lon="5.641458" lat="51.146724"><ele>32.2</ele><time>2022-03-27T07:27:14.000Z</time></trkpt><trkpt lon="5.641527" lat="51.146789"><ele>32.4</ele><time>2022-03-27T07:27:15.000Z</time></trkpt><trkpt lon="5.641594" lat="51.146851"><ele>32.4</ele><time>2022-03-27T07:27:16.000Z</time></trkpt><trkpt lon="5.641661" lat="51.146912"><ele>32.2</ele><time>2022-03-27T07:27:17.000Z</time></trkpt><trkpt lon="5.641727" lat="51.146973"><ele>32.2</ele><time>2022-03-27T07:27:18.000Z</time></trkpt><trkpt lon="5.641791" lat="51.147038"><ele>32.2</ele><time>2022-03-27T07:27:19.000Z</time></trkpt><trkpt lon="5.641857" lat="51.147099"><ele>32.2</ele><time>2022-03-27T07:27:20.000Z</time></trkpt><trkpt lon="5.641923" lat="51.14716"><ele>32.4</ele><time>2022-03-27T07:27:21.000Z</time></trkpt><trkpt lon="5.641989" lat="51.147225"><ele>32.2</ele><time>2022-03-27T07:27:22.000Z</time></trkpt><trkpt lon="5.642053" lat="51.147286"><ele>32.2</ele><time>2022-03-27T07:27:23.000Z</time></trkpt><trkpt lon="5.642119" lat="51.147343"><ele>32</ele><time>2022-03-27T07:27:24.000Z</time></trkpt><trkpt lon="5.642185" lat="51.147404"><ele>32</ele><time>2022-03-27T07:27:25.000Z</time></trkpt><trkpt lon="5.642251" lat="51.147465"><ele>31.8</ele><time>2022-03-27T07:27:26.000Z</time></trkpt><trkpt lon="5.642321" lat="51.147526"><ele>31.6</ele><time>2022-03-27T07:27:27.000Z</time></trkpt><trkpt lon="5.642391" lat="51.147584"><ele>31.6</ele><time>2022-03-27T07:27:28.000Z</time></trkpt><trkpt lon="5.642459" lat="51.147643"><ele>31.4</ele><time>2022-03-27T07:27:29.000Z</time></trkpt><trkpt lon="5.64253" lat="51.147701"><ele>31.4</ele><time>2022-03-27T07:27:30.000Z</time></trkpt><trkpt lon="5.6426" lat="51.147759"><ele>31.6</ele><time>2022-03-27T07:27:31.000Z</time></trkpt><trkpt lon="5.642673" lat="51.147813"><ele>31.8</ele><time>2022-03-27T07:27:32.000Z</time></trkpt><trkpt lon="5.642745" lat="51.147866"><ele>31.8</ele><time>2022-03-27T07:27:33.000Z</time></trkpt><trkpt lon="5.642814" lat="51.147928"><ele>32</ele><time>2022-03-27T07:27:34.000Z</time></trkpt><trkpt lon="5.642878" lat="51.147984"><ele>32</ele><time>2022-03-27T07:27:35.000Z</time></trkpt><trkpt lon="5.642945" lat="51.148046"><ele>32</ele><time>2022-03-27T07:27:36.000Z</time></trkpt><trkpt lon="5.643014" lat="51.148102"><ele>32.2</ele><time>2022-03-27T07:27:37.000Z</time></trkpt><trkpt lon="5.643082" lat="51.14816"><ele>32.2</ele><time>2022-03-27T07:27:38.000Z</time></trkpt><trkpt lon="5.643155" lat="51.148213"><ele>32.2</ele><time>2022-03-27T07:27:39.000Z</time></trkpt><trkpt lon="5.643226" lat="51.148262"><ele>32.2</ele><time>2022-03-27T07:27:40.000Z</time></trkpt><trkpt lon="5.643303" lat="51.148316"><ele>32.2</ele><time>2022-03-27T07:27:41.000Z</time></trkpt><trkpt lon="5.643378" lat="51.148363"><ele>32.2</ele><time>2022-03-27T07:27:42.000Z</time></trkpt><trkpt lon="5.643454" lat="51.148412"><ele>32.4</ele><time>2022-03-27T07:27:43.000Z</time></trkpt><trkpt lon="5.643532" lat="51.148462"><ele>32.4</ele><time>2022-03-27T07:27:44.000Z</time></trkpt><trkpt lon="5.643602" lat="51.148511"><ele>32.4</ele><time>2022-03-27T07:27:45.000Z</time></trkpt><trkpt lon="5.643662" lat="51.148564"><ele>32.4</ele><time>2022-03-27T07:27:46.000Z</time></trkpt><trkpt lon="5.643706" lat="51.148625"><ele>32.4</ele><time>2022-03-27T07:27:47.000Z</time></trkpt><trkpt lon="5.643749" lat="51.148686"><ele>32.4</ele><time>2022-03-27T07:27:48.000Z</time></trkpt><trkpt lon="5.643791" lat="51.148751"><ele>32.4</ele><time>2022-03-27T07:27:49.000Z</time></trkpt><trkpt lon="5.643833" lat="51.148818"><ele>32.4</ele><time>2022-03-27T07:27:50.000Z</time></trkpt><trkpt lon="5.643876" lat="51.148884"><ele>32.2</ele><time>2022-03-27T07:27:51.000Z</time></trkpt><trkpt lon="5.643927" lat="51.148946"><ele>31.8</ele><time>2022-03-27T07:27:52.000Z</time></trkpt><trkpt lon="5.643987" lat="51.149007"><ele>31.8</ele><time>2022-03-27T07:27:53.000Z</time></trkpt><trkpt lon="5.64405" lat="51.14906"><ele>31.8</ele><time>2022-03-27T07:27:54.000Z</time></trkpt><trkpt lon="5.644124" lat="51.149113"><ele>32</ele><time>2022-03-27T07:27:55.000Z</time></trkpt><trkpt lon="5.644203" lat="51.149167"><ele>32</ele><time>2022-03-27T07:27:56.000Z</time></trkpt><trkpt lon="5.644293" lat="51.14922"><ele>32.2</ele><time>2022-03-27T07:27:57.000Z</time></trkpt><trkpt lon="5.644379" lat="51.149273"><ele>32.2</ele><time>2022-03-27T07:27:58.000Z</time></trkpt><trkpt lon="5.644463" lat="51.149334"><ele>32.2</ele><time>2022-03-27T07:27:59.000Z</time></trkpt><trkpt lon="5.644544" lat="51.149395"><ele>32.4</ele><time>2022-03-27T07:28:00.000Z</time></trkpt><trkpt lon="5.64461" lat="51.149457"><ele>32.4</ele><time>2022-03-27T07:28:01.000Z</time></trkpt><trkpt lon="5.644665" lat="51.149522"><ele>32.4</ele><time>2022-03-27T07:28:02.000Z</time></trkpt><trkpt lon="5.644714" lat="51.14959"><ele>32.4</ele><time>2022-03-27T07:28:03.000Z</time></trkpt><trkpt lon="5.64476" lat="51.149659"><ele>32.4</ele><time>2022-03-27T07:28:04.000Z</time></trkpt><trkpt lon="5.644801" lat="51.149726"><ele>32.4</ele><time>2022-03-27T07:28:05.000Z</time></trkpt><trkpt lon="5.644841" lat="51.149792"><ele>32.4</ele><time>2022-03-27T07:28:06.000Z</time></trkpt><trkpt lon="5.644886" lat="51.149861"><ele>32.4</ele><time>2022-03-27T07:28:07.000Z</time></trkpt><trkpt lon="5.644935" lat="51.149928"><ele>32.2</ele><time>2022-03-27T07:28:08.000Z</time></trkpt><trkpt lon="5.644987" lat="51.149994"><ele>32</ele><time>2022-03-27T07:28:09.000Z</time></trkpt><trkpt lon="5.645041" lat="51.150059"><ele>31.8</ele><time>2022-03-27T07:28:10.000Z</time></trkpt><trkpt lon="5.645091" lat="51.150126"><ele>31.8</ele><time>2022-03-27T07:28:11.000Z</time></trkpt><trkpt lon="5.645146" lat="51.150193"><ele>31.8</ele><time>2022-03-27T07:28:12.000Z</time></trkpt><trkpt lon="5.645197" lat="51.150261"><ele>31.8</ele><time>2022-03-27T07:28:13.000Z</time></trkpt><trkpt lon="5.645252" lat="51.150325"><ele>31.8</ele><time>2022-03-27T07:28:14.000Z</time></trkpt><trkpt lon="5.64531" lat="51.150388"><ele>31.6</ele><time>2022-03-27T07:28:15.000Z</time></trkpt><trkpt lon="5.645373" lat="51.150445"><ele>31.6</ele><time>2022-03-27T07:28:16.000Z</time></trkpt><trkpt lon="5.645441" lat="51.150502"><ele>31.6</ele><time>2022-03-27T07:28:17.000Z</time></trkpt><trkpt lon="5.645505" lat="51.150554"><ele>31.8</ele><time>2022-03-27T07:28:18.000Z</time></trkpt><trkpt lon="5.645569" lat="51.150606"><ele>31.8</ele><time>2022-03-27T07:28:19.000Z</time></trkpt><trkpt lon="5.645618" lat="51.150658"><ele>31.8</ele><time>2022-03-27T07:28:20.000Z</time></trkpt><trkpt lon="5.645648" lat="51.150722"><ele>31.8</ele><time>2022-03-27T07:28:21.000Z</time></trkpt><trkpt lon="5.645639" lat="51.150787"><ele>31.8</ele><time>2022-03-27T07:28:22.000Z</time></trkpt><trkpt lon="5.645602" lat="51.150855"><ele>31.8</ele><time>2022-03-27T07:28:23.000Z</time></trkpt><trkpt lon="5.64555" lat="51.150917"><ele>31.8</ele><time>2022-03-27T07:28:24.000Z</time></trkpt><trkpt lon="5.645495" lat="51.150978"><ele>31.8</ele><time>2022-03-27T07:28:25.000Z</time></trkpt><trkpt lon="5.64544" lat="51.15104"><ele>31.8</ele><time>2022-03-27T07:28:26.000Z</time></trkpt><trkpt lon="5.645384" lat="51.151101"><ele>31.6</ele><time>2022-03-27T07:28:27.000Z</time></trkpt><trkpt lon="5.645328" lat="51.151162"><ele>31.6</ele><time>2022-03-27T07:28:28.000Z</time></trkpt><trkpt lon="5.645275" lat="51.151223"><ele>31.6</ele><time>2022-03-27T07:28:29.000Z</time></trkpt><trkpt lon="5.645219" lat="51.15128"><ele>31.6</ele><time>2022-03-27T07:28:30.000Z</time></trkpt><trkpt lon="5.645168" lat="51.151345"><ele>31.6</ele><time>2022-03-27T07:28:31.000Z</time></trkpt><trkpt lon="5.645114" lat="51.151402"><ele>31.6</ele><time>2022-03-27T07:28:32.000Z</time></trkpt><trkpt lon="5.645061" lat="51.151464"><ele>31.6</ele><time>2022-03-27T07:28:33.000Z</time></trkpt><trkpt lon="5.645009" lat="51.151525"><ele>31.6</ele><time>2022-03-27T07:28:34.000Z</time></trkpt><trkpt lon="5.644959" lat="51.151585"><ele>31.6</ele><time>2022-03-27T07:28:35.000Z</time></trkpt><trkpt lon="5.644917" lat="51.151643"><ele>31.6</ele><time>2022-03-27T07:28:36.000Z</time></trkpt><trkpt lon="5.644882" lat="51.151704"><ele>31.6</ele><time>2022-03-27T07:28:37.000Z</time></trkpt><trkpt lon="5.644849" lat="51.151766"><ele>31.6</ele><time>2022-03-27T07:28:38.000Z</time></trkpt><trkpt lon="5.644815" lat="51.15183"><ele>31.6</ele><time>2022-03-27T07:28:39.000Z</time></trkpt><trkpt lon="5.64478" lat="51.151894"><ele>31.6</ele><time>2022-03-27T07:28:40.000Z</time></trkpt><trkpt lon="5.644742" lat="51.151959"><ele>31.6</ele><time>2022-03-27T07:28:41.000Z</time></trkpt><trkpt lon="5.644692" lat="51.15202"><ele>31.8</ele><time>2022-03-27T07:28:42.000Z</time></trkpt><trkpt lon="5.644632" lat="51.152081"><ele>31.8</ele><time>2022-03-27T07:28:43.000Z</time></trkpt><trkpt lon="5.644552" lat="51.152128"><ele>31.8</ele><time>2022-03-27T07:28:44.000Z</time></trkpt><trkpt lon="5.644463" lat="51.152162"><ele>32</ele><time>2022-03-27T07:28:45.000Z</time></trkpt><trkpt lon="5.644364" lat="51.152189"><ele>32</ele><time>2022-03-27T07:28:46.000Z</time></trkpt><trkpt lon="5.644259" lat="51.152213"><ele>32</ele><time>2022-03-27T07:28:47.000Z</time></trkpt><trkpt lon="5.644154" lat="51.152235"><ele>32.2</ele><time>2022-03-27T07:28:48.000Z</time></trkpt><trkpt lon="5.644046" lat="51.152258"><ele>32.2</ele><time>2022-03-27T07:28:49.000Z</time></trkpt><trkpt lon="5.643941" lat="51.152285"><ele>32.2</ele><time>2022-03-27T07:28:50.000Z</time></trkpt><trkpt lon="5.643835" lat="51.152308"><ele>32.2</ele><time>2022-03-27T07:28:51.000Z</time></trkpt><trkpt lon="5.643732" lat="51.152334"><ele>32.4</ele><time>2022-03-27T07:28:52.000Z</time></trkpt><trkpt lon="5.643622" lat="51.152362"><ele>32.4</ele><time>2022-03-27T07:28:53.000Z</time></trkpt><trkpt lon="5.643517" lat="51.152385"><ele>32.4</ele><time>2022-03-27T07:28:54.000Z</time></trkpt><trkpt lon="5.64341" lat="51.152407"><ele>32.4</ele><time>2022-03-27T07:28:55.000Z</time></trkpt><trkpt lon="5.643303" lat="51.152434"><ele>32.4</ele><time>2022-03-27T07:28:56.000Z</time></trkpt><trkpt lon="5.643199" lat="51.152457"><ele>32.4</ele><time>2022-03-27T07:28:57.000Z</time></trkpt><trkpt lon="5.643093" lat="51.15248"><ele>32.4</ele><time>2022-03-27T07:28:58.000Z</time></trkpt><trkpt lon="5.64299" lat="51.152506"><ele>32.4</ele><time>2022-03-27T07:28:59.000Z</time></trkpt><trkpt lon="5.642885" lat="51.152533"><ele>32.4</ele><time>2022-03-27T07:29:00.000Z</time></trkpt><trkpt lon="5.642777" lat="51.15256"><ele>32.6</ele><time>2022-03-27T07:29:01.000Z</time></trkpt><trkpt lon="5.64267" lat="51.152583"><ele>32.6</ele><time>2022-03-27T07:29:02.000Z</time></trkpt><trkpt lon="5.642563" lat="51.152606"><ele>32.4</ele><time>2022-03-27T07:29:03.000Z</time></trkpt><trkpt lon="5.642456" lat="51.152629"><ele>32.6</ele><time>2022-03-27T07:29:04.000Z</time></trkpt><trkpt lon="5.642352" lat="51.152652"><ele>32.6</ele><time>2022-03-27T07:29:05.000Z</time></trkpt><trkpt lon="5.642249" lat="51.152674"><ele>32.6</ele><time>2022-03-27T07:29:06.000Z</time></trkpt><trkpt lon="5.642147" lat="51.152697"><ele>32.6</ele><time>2022-03-27T07:29:07.000Z</time></trkpt><trkpt lon="5.642048" lat="51.152724"><ele>32.6</ele><time>2022-03-27T07:29:08.000Z</time></trkpt><trkpt lon="5.641954" lat="51.152757"><ele>32.6</ele><time>2022-03-27T07:29:09.000Z</time></trkpt><trkpt lon="5.641861" lat="51.152795"><ele>32.4</ele><time>2022-03-27T07:29:10.000Z</time></trkpt><trkpt lon="5.641778" lat="51.152837"><ele>32.6</ele><time>2022-03-27T07:29:11.000Z</time></trkpt><trkpt lon="5.641698" lat="51.152883"><ele>32.6</ele><time>2022-03-27T07:29:12.000Z</time></trkpt><trkpt lon="5.641619" lat="51.152929"><ele>32.8</ele><time>2022-03-27T07:29:13.000Z</time></trkpt><trkpt lon="5.641541" lat="51.152974"><ele>32.8</ele><time>2022-03-27T07:29:14.000Z</time></trkpt><trkpt lon="5.641464" lat="51.153024"><ele>32.8</ele><time>2022-03-27T07:29:15.000Z</time></trkpt><trkpt lon="5.641384" lat="51.153074"><ele>32.6</ele><time>2022-03-27T07:29:16.000Z</time></trkpt><trkpt lon="5.641304" lat="51.153116"><ele>32.4</ele><time>2022-03-27T07:29:17.000Z</time></trkpt><trkpt lon="5.641222" lat="51.153165"><ele>32.2</ele><time>2022-03-27T07:29:18.000Z</time></trkpt><trkpt lon="5.641141" lat="51.153211"><ele>32</ele><time>2022-03-27T07:29:19.000Z</time></trkpt><trkpt lon="5.641062" lat="51.153261"><ele>32</ele><time>2022-03-27T07:29:20.000Z</time></trkpt><trkpt lon="5.640982" lat="51.153302"><ele>32</ele><time>2022-03-27T07:29:21.000Z</time></trkpt><trkpt lon="5.640902" lat="51.153348"><ele>32.2</ele><time>2022-03-27T07:29:22.000Z</time></trkpt><trkpt lon="5.640825" lat="51.153394"><ele>32</ele><time>2022-03-27T07:29:23.000Z</time></trkpt><trkpt lon="5.640747" lat="51.15344"><ele>32</ele><time>2022-03-27T07:29:24.000Z</time></trkpt><trkpt lon="5.640666" lat="51.153486"><ele>32.2</ele><time>2022-03-27T07:29:25.000Z</time></trkpt><trkpt lon="5.640586" lat="51.153532"><ele>32.2</ele><time>2022-03-27T07:29:26.000Z</time></trkpt><trkpt lon="5.640508" lat="51.153577"><ele>32.2</ele><time>2022-03-27T07:29:27.000Z</time></trkpt><trkpt lon="5.640428" lat="51.153623"><ele>32.2</ele><time>2022-03-27T07:29:28.000Z</time></trkpt><trkpt lon="5.640349" lat="51.153669"><ele>32.2</ele><time>2022-03-27T07:29:29.000Z</time></trkpt><trkpt lon="5.640275" lat="51.153709"><ele>32.4</ele><time>2022-03-27T07:29:30.000Z</time></trkpt><trkpt lon="5.640201" lat="51.153758"><ele>32.6</ele><time>2022-03-27T07:29:31.000Z</time></trkpt><trkpt lon="5.640121" lat="51.153802"><ele>32.8</ele><time>2022-03-27T07:29:32.000Z</time></trkpt><trkpt lon="5.640046" lat="51.153852"><ele>32.8</ele><time>2022-03-27T07:29:33.000Z</time></trkpt><trkpt lon="5.639969" lat="51.153894"><ele>32.6</ele><time>2022-03-27T07:29:34.000Z</time></trkpt><trkpt lon="5.639892" lat="51.15394"><ele>32.4</ele><time>2022-03-27T07:29:35.000Z</time></trkpt><trkpt lon="5.639815" lat="51.153986"><ele>32.4</ele><time>2022-03-27T07:29:36.000Z</time></trkpt><trkpt lon="5.63974" lat="51.154028"><ele>32.6</ele><time>2022-03-27T07:29:37.000Z</time></trkpt><trkpt lon="5.639667" lat="51.15407"><ele>32.6</ele><time>2022-03-27T07:29:38.000Z</time></trkpt><trkpt lon="5.639596" lat="51.154111"><ele>32.8</ele><time>2022-03-27T07:29:39.000Z</time></trkpt><trkpt lon="5.639523" lat="51.154154"><ele>32.8</ele><time>2022-03-27T07:29:40.000Z</time></trkpt><trkpt lon="5.639441" lat="51.154188"><ele>32.8</ele><time>2022-03-27T07:29:41.000Z</time></trkpt><trkpt lon="5.639345" lat="51.154211"><ele>32.8</ele><time>2022-03-27T07:29:42.000Z</time></trkpt><trkpt lon="5.639237" lat="51.154217"><ele>32.8</ele><time>2022-03-27T07:29:43.000Z</time></trkpt><trkpt lon="5.639131" lat="51.154202"><ele>32.8</ele><time>2022-03-27T07:29:44.000Z</time></trkpt><trkpt lon="5.639027" lat="51.154176"><ele>32.6</ele><time>2022-03-27T07:29:45.000Z</time></trkpt><trkpt lon="5.638928" lat="51.154138"><ele>32.4</ele><time>2022-03-27T07:29:46.000Z</time></trkpt><trkpt lon="5.638835" lat="51.154105"><ele>32.4</ele><time>2022-03-27T07:29:47.000Z</time></trkpt><trkpt lon="5.638739" lat="51.154066"><ele>32.2</ele><time>2022-03-27T07:29:48.000Z</time></trkpt><trkpt lon="5.638647" lat="51.154028"><ele>32.4</ele><time>2022-03-27T07:29:49.000Z</time></trkpt><trkpt lon="5.638554" lat="51.153994"><ele>32.4</ele><time>2022-03-27T07:29:50.000Z</time></trkpt><trkpt lon="5.638462" lat="51.153956"><ele>32.4</ele><time>2022-03-27T07:29:51.000Z</time></trkpt><trkpt lon="5.638371" lat="51.153918"><ele>32.4</ele><time>2022-03-27T07:29:52.000Z</time></trkpt><trkpt lon="5.63828" lat="51.153884"><ele>32.4</ele><time>2022-03-27T07:29:53.000Z</time></trkpt><trkpt lon="5.638187" lat="51.153849"><ele>32.4</ele><time>2022-03-27T07:29:54.000Z</time></trkpt><trkpt lon="5.638094" lat="51.153811"><ele>32.6</ele><time>2022-03-27T07:29:55.000Z</time></trkpt><trkpt lon="5.637998" lat="51.153776"><ele>32.6</ele><time>2022-03-27T07:29:56.000Z</time></trkpt><trkpt lon="5.637906" lat="51.153738"><ele>32.6</ele><time>2022-03-27T07:29:57.000Z</time></trkpt><trkpt lon="5.637815" lat="51.153701"><ele>32.6</ele><time>2022-03-27T07:29:58.000Z</time></trkpt><trkpt lon="5.637719" lat="51.153662"><ele>32.6</ele><time>2022-03-27T07:29:59.000Z</time></trkpt><trkpt lon="5.637624" lat="51.153623"><ele>32.4</ele><time>2022-03-27T07:30:00.000Z</time></trkpt><trkpt lon="5.637531" lat="51.153585"><ele>32.6</ele><time>2022-03-27T07:30:01.000Z</time></trkpt><trkpt lon="5.637438" lat="51.153544"><ele>32.6</ele><time>2022-03-27T07:30:02.000Z</time></trkpt><trkpt lon="5.637346" lat="51.153505"><ele>32.6</ele><time>2022-03-27T07:30:03.000Z</time></trkpt><trkpt lon="5.637252" lat="51.15347"><ele>32.6</ele><time>2022-03-27T07:30:04.000Z</time></trkpt><trkpt lon="5.637161" lat="51.153433"><ele>32.8</ele><time>2022-03-27T07:30:05.000Z</time></trkpt><trkpt lon="5.63707" lat="51.153399"><ele>32.8</ele><time>2022-03-27T07:30:06.000Z</time></trkpt><trkpt lon="5.636974" lat="51.153361"><ele>32.8</ele><time>2022-03-27T07:30:07.000Z</time></trkpt><trkpt lon="5.636877" lat="51.153333"><ele>32.8</ele><time>2022-03-27T07:30:08.000Z</time></trkpt><trkpt lon="5.636778" lat="51.153314"><ele>33</ele><time>2022-03-27T07:30:09.000Z</time></trkpt><trkpt lon="5.636674" lat="51.153291"><ele>33</ele><time>2022-03-27T07:30:10.000Z</time></trkpt><trkpt lon="5.636567" lat="51.153275"><ele>33</ele><time>2022-03-27T07:30:11.000Z</time></trkpt><trkpt lon="5.636459" lat="51.15326"><ele>33</ele><time>2022-03-27T07:30:12.000Z</time></trkpt><trkpt lon="5.636349" lat="51.153245"><ele>33</ele><time>2022-03-27T07:30:13.000Z</time></trkpt><trkpt lon="5.636239" lat="51.153233"><ele>33.2</ele><time>2022-03-27T07:30:14.000Z</time></trkpt><trkpt lon="5.636129" lat="51.153222"><ele>33.2</ele><time>2022-03-27T07:30:15.000Z</time></trkpt><trkpt lon="5.636017" lat="51.153214"><ele>33.2</ele><time>2022-03-27T07:30:16.000Z</time></trkpt><trkpt lon="5.635906" lat="51.15321"><ele>33.2</ele><time>2022-03-27T07:30:17.000Z</time></trkpt><trkpt lon="5.635795" lat="51.153206"><ele>33.2</ele><time>2022-03-27T07:30:18.000Z</time></trkpt><trkpt lon="5.63569" lat="51.153202"><ele>33.2</ele><time>2022-03-27T07:30:19.000Z</time></trkpt><trkpt lon="5.635581" lat="51.153202"><ele>33.2</ele><time>2022-03-27T07:30:20.000Z</time></trkpt><trkpt lon="5.635472" lat="51.153198"><ele>33.2</ele><time>2022-03-27T07:30:21.000Z</time></trkpt><trkpt lon="5.635365" lat="51.153187"><ele>33.2</ele><time>2022-03-27T07:30:22.000Z</time></trkpt><trkpt lon="5.63526" lat="51.153172"><ele>33.2</ele><time>2022-03-27T07:30:23.000Z</time></trkpt><trkpt lon="5.635155" lat="51.153154"><ele>33.2</ele><time>2022-03-27T07:30:24.000Z</time></trkpt><trkpt lon="5.635054" lat="51.153128"><ele>33.2</ele><time>2022-03-27T07:30:25.000Z</time></trkpt><trkpt lon="5.634953" lat="51.153101"><ele>33.2</ele><time>2022-03-27T07:30:26.000Z</time></trkpt><trkpt lon="5.63485" lat="51.153071"><ele>33.4</ele><time>2022-03-27T07:30:27.000Z</time></trkpt><trkpt lon="5.634747" lat="51.15304"><ele>33.4</ele><time>2022-03-27T07:30:28.000Z</time></trkpt><trkpt lon="5.634644" lat="51.153009"><ele>33.4</ele><time>2022-03-27T07:30:29.000Z</time></trkpt><trkpt lon="5.634545" lat="51.152982"><ele>33.4</ele><time>2022-03-27T07:30:30.000Z</time></trkpt><trkpt lon="5.634445" lat="51.152955"><ele>33.4</ele><time>2022-03-27T07:30:31.000Z</time></trkpt><trkpt lon="5.634352" lat="51.152926"><ele>33.4</ele><time>2022-03-27T07:30:32.000Z</time></trkpt><trkpt lon="5.634259" lat="51.152898"><ele>33.4</ele><time>2022-03-27T07:30:33.000Z</time></trkpt><trkpt lon="5.634166" lat="51.152871"><ele>33.4</ele><time>2022-03-27T07:30:34.000Z</time></trkpt><trkpt lon="5.634072" lat="51.152845"><ele>33.2</ele><time>2022-03-27T07:30:35.000Z</time></trkpt><trkpt lon="5.633973" lat="51.152815"><ele>33.4</ele><time>2022-03-27T07:30:36.000Z</time></trkpt><trkpt lon="5.633885" lat="51.152778"><ele>33.4</ele><time>2022-03-27T07:30:37.000Z</time></trkpt><trkpt lon="5.633792" lat="51.152739"><ele>33.4</ele><time>2022-03-27T07:30:38.000Z</time></trkpt><trkpt lon="5.633702" lat="51.152701"><ele>33.6</ele><time>2022-03-27T07:30:39.000Z</time></trkpt><trkpt lon="5.633613" lat="51.152662"><ele>33.8</ele><time>2022-03-27T07:30:40.000Z</time></trkpt><trkpt lon="5.633528" lat="51.152622"><ele>33.8</ele><time>2022-03-27T07:30:41.000Z</time></trkpt><trkpt lon="5.633439" lat="51.152582"><ele>34</ele><time>2022-03-27T07:30:42.000Z</time></trkpt><trkpt lon="5.633353" lat="51.152541"><ele>34</ele><time>2022-03-27T07:30:43.000Z</time></trkpt><trkpt lon="5.633266" lat="51.152495"><ele>34</ele><time>2022-03-27T07:30:44.000Z</time></trkpt><trkpt lon="5.633179" lat="51.15245"><ele>34.2</ele><time>2022-03-27T07:30:45.000Z</time></trkpt><trkpt lon="5.633091" lat="51.152407"><ele>34.2</ele><time>2022-03-27T07:30:46.000Z</time></trkpt><trkpt lon="5.633005" lat="51.152365"><ele>34.2</ele><time>2022-03-27T07:30:47.000Z</time></trkpt><trkpt lon="5.632913" lat="51.152323"><ele>34.2</ele><time>2022-03-27T07:30:48.000Z</time></trkpt><trkpt lon="5.632823" lat="51.152281"><ele>34.2</ele><time>2022-03-27T07:30:49.000Z</time></trkpt><trkpt lon="5.632736" lat="51.152236"><ele>34.4</ele><time>2022-03-27T07:30:50.000Z</time></trkpt><trkpt lon="5.632646" lat="51.152193"><ele>34.4</ele><time>2022-03-27T07:30:51.000Z</time></trkpt><trkpt lon="5.632556" lat="51.152148"><ele>34.4</ele><time>2022-03-27T07:30:52.000Z</time></trkpt><trkpt lon="5.632465" lat="51.152106"><ele>34.6</ele><time>2022-03-27T07:30:53.000Z</time></trkpt><trkpt lon="5.632371" lat="51.15206"><ele>34.6</ele><time>2022-03-27T07:30:54.000Z</time></trkpt><trkpt lon="5.632281" lat="51.152018"><ele>34.6</ele><time>2022-03-27T07:30:55.000Z</time></trkpt><trkpt lon="5.632191" lat="51.151972"><ele>34.6</ele><time>2022-03-27T07:30:56.000Z</time></trkpt><trkpt lon="5.632103" lat="51.151934"><ele>34.8</ele><time>2022-03-27T07:30:57.000Z</time></trkpt><trkpt lon="5.632014" lat="51.151888"><ele>34.8</ele><time>2022-03-27T07:30:58.000Z</time></trkpt><trkpt lon="5.631928" lat="51.151843"><ele>34.8</ele><time>2022-03-27T07:30:59.000Z</time></trkpt><trkpt lon="5.631844" lat="51.151797"><ele>34.8</ele><time>2022-03-27T07:31:00.000Z</time></trkpt><trkpt lon="5.631765" lat="51.151747"><ele>35</ele><time>2022-03-27T07:31:01.000Z</time></trkpt><trkpt lon="5.631694" lat="51.151694"><ele>35</ele><time>2022-03-27T07:31:02.000Z</time></trkpt><trkpt lon="5.631628" lat="51.151639"><ele>35</ele><time>2022-03-27T07:31:03.000Z</time></trkpt><trkpt lon="5.63156" lat="51.15158"><ele>35</ele><time>2022-03-27T07:31:04.000Z</time></trkpt><trkpt lon="5.631494" lat="51.151522"><ele>35</ele><time>2022-03-27T07:31:05.000Z</time></trkpt><trkpt lon="5.631433" lat="51.151462"><ele>35.2</ele><time>2022-03-27T07:31:06.000Z</time></trkpt><trkpt lon="5.631371" lat="51.151404"><ele>35.2</ele><time>2022-03-27T07:31:07.000Z</time></trkpt><trkpt lon="5.631311" lat="51.151349"><ele>35.2</ele><time>2022-03-27T07:31:08.000Z</time></trkpt><trkpt lon="5.631246" lat="51.15129"><ele>35.2</ele><time>2022-03-27T07:31:09.000Z</time></trkpt><trkpt lon="5.631184" lat="51.151235"><ele>35.2</ele><time>2022-03-27T07:31:10.000Z</time></trkpt><trkpt lon="5.631119" lat="51.151172"><ele>35.2</ele><time>2022-03-27T07:31:11.000Z</time></trkpt><trkpt lon="5.631057" lat="51.151115"><ele>35.4</ele><time>2022-03-27T07:31:12.000Z</time></trkpt><trkpt lon="5.630995" lat="51.151058"><ele>35.2</ele><time>2022-03-27T07:31:13.000Z</time></trkpt><trkpt lon="5.630932" lat="51.151001"><ele>35.4</ele><time>2022-03-27T07:31:14.000Z</time></trkpt><trkpt lon="5.63087" lat="51.150943"><ele>35.4</ele><time>2022-03-27T07:31:15.000Z</time></trkpt><trkpt lon="5.630811" lat="51.150889"><ele>35.4</ele><time>2022-03-27T07:31:16.000Z</time></trkpt><trkpt lon="5.630755" lat="51.150837"><ele>35.6</ele><time>2022-03-27T07:31:17.000Z</time></trkpt><trkpt lon="5.630701" lat="51.150782"><ele>35.6</ele><time>2022-03-27T07:31:18.000Z</time></trkpt><trkpt lon="5.630649" lat="51.150732"><ele>35.6</ele><time>2022-03-27T07:31:19.000Z</time></trkpt><trkpt lon="5.630596" lat="51.150683"><ele>35.6</ele><time>2022-03-27T07:31:20.000Z</time></trkpt><trkpt lon="5.630543" lat="51.150637"><ele>35.8</ele><time>2022-03-27T07:31:21.000Z</time></trkpt><trkpt lon="5.630489" lat="51.150587"><ele>35.8</ele><time>2022-03-27T07:31:22.000Z</time></trkpt><trkpt lon="5.63044" lat="51.150542"><ele>35.8</ele><time>2022-03-27T07:31:23.000Z</time></trkpt><trkpt lon="5.630393" lat="51.150496"><ele>35.8</ele><time>2022-03-27T07:31:24.000Z</time></trkpt><trkpt lon="5.630347" lat="51.150455"><ele>35.8</ele><time>2022-03-27T07:31:25.000Z</time></trkpt><trkpt lon="5.630303" lat="51.150412"><ele>35.8</ele><time>2022-03-27T07:31:26.000Z</time></trkpt><trkpt lon="5.630259" lat="51.150377"><ele>35.8</ele><time>2022-03-27T07:31:27.000Z</time></trkpt><trkpt lon="5.630212" lat="51.150357"><ele>35.8</ele><time>2022-03-27T07:31:28.000Z</time></trkpt><trkpt lon="5.630164" lat="51.150356"><ele>35.8</ele><time>2022-03-27T07:31:29.000Z</time></trkpt><trkpt lon="5.630122" lat="51.15037"><ele>35.6</ele><time>2022-03-27T07:31:30.000Z</time></trkpt><trkpt lon="5.63009" lat="51.150404"><ele>35.6</ele><time>2022-03-27T07:31:31.000Z</time></trkpt><trkpt lon="5.630076" lat="51.150449"><ele>35.2</ele><time>2022-03-27T07:31:32.000Z</time></trkpt><trkpt lon="5.630064" lat="51.150509"><ele>35</ele><time>2022-03-27T07:31:33.000Z</time></trkpt><trkpt lon="5.630051" lat="51.150575"><ele>34.8</ele><time>2022-03-27T07:31:34.000Z</time></trkpt><trkpt lon="5.630034" lat="51.150643"><ele>34.6</ele><time>2022-03-27T07:31:35.000Z</time></trkpt><trkpt lon="5.630013" lat="51.150715"><ele>34.6</ele><time>2022-03-27T07:31:36.000Z</time></trkpt><trkpt lon="5.629994" lat="51.150784"><ele>34.6</ele><time>2022-03-27T07:31:37.000Z</time></trkpt><trkpt lon="5.629977" lat="51.15085"><ele>34.6</ele><time>2022-03-27T07:31:38.000Z</time></trkpt><trkpt lon="5.629958" lat="51.150925"><ele>34.6</ele><time>2022-03-27T07:31:39.000Z</time></trkpt><trkpt lon="5.629941" lat="51.15099"><ele>34.6</ele><time>2022-03-27T07:31:40.000Z</time></trkpt><trkpt lon="5.629924" lat="51.151057"><ele>34.6</ele><time>2022-03-27T07:31:41.000Z</time></trkpt><trkpt lon="5.629908" lat="51.151123"><ele>34.6</ele><time>2022-03-27T07:31:42.000Z</time></trkpt><trkpt lon="5.629887" lat="51.151196"><ele>34.6</ele><time>2022-03-27T07:31:43.000Z</time></trkpt><trkpt lon="5.629866" lat="51.151264"><ele>34.6</ele><time>2022-03-27T07:31:44.000Z</time></trkpt><trkpt lon="5.629846" lat="51.151332"><ele>34.4</ele><time>2022-03-27T07:31:45.000Z</time></trkpt><trkpt lon="5.629826" lat="51.151402"><ele>34.2</ele><time>2022-03-27T07:31:46.000Z</time></trkpt><trkpt lon="5.629806" lat="51.15147"><ele>34.2</ele><time>2022-03-27T07:31:47.000Z</time></trkpt><trkpt lon="5.629788" lat="51.151537"><ele>34</ele><time>2022-03-27T07:31:48.000Z</time></trkpt><trkpt lon="5.629767" lat="51.151608"><ele>34</ele><time>2022-03-27T07:31:49.000Z</time></trkpt><trkpt lon="5.629749" lat="51.151677"><ele>34</ele><time>2022-03-27T07:31:50.000Z</time></trkpt><trkpt lon="5.629731" lat="51.151745"><ele>34</ele><time>2022-03-27T07:31:51.000Z</time></trkpt><trkpt lon="5.629713" lat="51.151814"><ele>34</ele><time>2022-03-27T07:31:52.000Z</time></trkpt><trkpt lon="5.629693" lat="51.151882"><ele>34.2</ele><time>2022-03-27T07:31:53.000Z</time></trkpt><trkpt lon="5.62967" lat="51.151951"><ele>34.2</ele><time>2022-03-27T07:31:54.000Z</time></trkpt><trkpt lon="5.629638" lat="51.15202"><ele>34.2</ele><time>2022-03-27T07:31:55.000Z</time></trkpt><trkpt lon="5.629594" lat="51.152085"><ele>34.2</ele><time>2022-03-27T07:31:56.000Z</time></trkpt><trkpt lon="5.629538" lat="51.15215"><ele>34.2</ele><time>2022-03-27T07:31:57.000Z</time></trkpt><trkpt lon="5.629473" lat="51.152207"><ele>34.2</ele><time>2022-03-27T07:31:58.000Z</time></trkpt><trkpt lon="5.629403" lat="51.152268"><ele>34.2</ele><time>2022-03-27T07:31:59.000Z</time></trkpt><trkpt lon="5.629325" lat="51.152322"><ele>34</ele><time>2022-03-27T07:32:00.000Z</time></trkpt><trkpt lon="5.629247" lat="51.152379"><ele>33.8</ele><time>2022-03-27T07:32:01.000Z</time></trkpt><trkpt lon="5.62917" lat="51.152433"><ele>33.6</ele><time>2022-03-27T07:32:02.000Z</time></trkpt><trkpt lon="5.629097" lat="51.152486"><ele>33.2</ele><time>2022-03-27T07:32:03.000Z</time></trkpt><trkpt lon="5.629022" lat="51.15254"><ele>33</ele><time>2022-03-27T07:32:04.000Z</time></trkpt><trkpt lon="5.628947" lat="51.152593"><ele>33</ele><time>2022-03-27T07:32:05.000Z</time></trkpt><trkpt lon="5.628871" lat="51.152647"><ele>33</ele><time>2022-03-27T07:32:06.000Z</time></trkpt><trkpt lon="5.628801" lat="51.152698"><ele>33.2</ele><time>2022-03-27T07:32:07.000Z</time></trkpt><trkpt lon="5.628728" lat="51.152748"><ele>33.4</ele><time>2022-03-27T07:32:08.000Z</time></trkpt><trkpt lon="5.628657" lat="51.152799"><ele>33.6</ele><time>2022-03-27T07:32:09.000Z</time></trkpt><trkpt lon="5.628589" lat="51.152852"><ele>33.8</ele><time>2022-03-27T07:32:10.000Z</time></trkpt><trkpt lon="5.628522" lat="51.152898"><ele>33.8</ele><time>2022-03-27T07:32:11.000Z</time></trkpt><trkpt lon="5.628453" lat="51.152948"><ele>33.8</ele><time>2022-03-27T07:32:12.000Z</time></trkpt><trkpt lon="5.628383" lat="51.152998"><ele>33.6</ele><time>2022-03-27T07:32:13.000Z</time></trkpt><trkpt lon="5.628315" lat="51.153051"><ele>33.4</ele><time>2022-03-27T07:32:14.000Z</time></trkpt><trkpt lon="5.628247" lat="51.153097"><ele>33.4</ele><time>2022-03-27T07:32:15.000Z</time></trkpt><trkpt lon="5.628178" lat="51.153146"><ele>33.6</ele><time>2022-03-27T07:32:16.000Z</time></trkpt><trkpt lon="5.628107" lat="51.153196"><ele>33.4</ele><time>2022-03-27T07:32:17.000Z</time></trkpt><trkpt lon="5.628037" lat="51.153248"><ele>33.4</ele><time>2022-03-27T07:32:18.000Z</time></trkpt><trkpt lon="5.627966" lat="51.153298"><ele>33.4</ele><time>2022-03-27T07:32:19.000Z</time></trkpt><trkpt lon="5.627895" lat="51.153349"><ele>33.4</ele><time>2022-03-27T07:32:20.000Z</time></trkpt><trkpt lon="5.627825" lat="51.153394"><ele>33.4</ele><time>2022-03-27T07:32:21.000Z</time></trkpt><trkpt lon="5.627755" lat="51.153444"><ele>33.6</ele><time>2022-03-27T07:32:22.000Z</time></trkpt><trkpt lon="5.627683" lat="51.153493"><ele>33.6</ele><time>2022-03-27T07:32:23.000Z</time></trkpt><trkpt lon="5.627616" lat="51.153543"><ele>33.4</ele><time>2022-03-27T07:32:24.000Z</time></trkpt><trkpt lon="5.627548" lat="51.153592"><ele>33.4</ele><time>2022-03-27T07:32:25.000Z</time></trkpt><trkpt lon="5.62748" lat="51.153642"><ele>33.4</ele><time>2022-03-27T07:32:26.000Z</time></trkpt><trkpt lon="5.627417" lat="51.153691"><ele>33.6</ele><time>2022-03-27T07:32:27.000Z</time></trkpt><trkpt lon="5.627352" lat="51.153745"><ele>33.6</ele><time>2022-03-27T07:32:28.000Z</time></trkpt><trkpt lon="5.62729" lat="51.153795"><ele>33.6</ele><time>2022-03-27T07:32:29.000Z</time></trkpt><trkpt lon="5.627228" lat="51.153848"><ele>33.6</ele><time>2022-03-27T07:32:30.000Z</time></trkpt><trkpt lon="5.627165" lat="51.153901"><ele>33.6</ele><time>2022-03-27T07:32:31.000Z</time></trkpt><trkpt lon="5.627103" lat="51.153954"><ele>33.8</ele><time>2022-03-27T07:32:32.000Z</time></trkpt><trkpt lon="5.627035" lat="51.154008"><ele>33.8</ele><time>2022-03-27T07:32:33.000Z</time></trkpt><trkpt lon="5.626968" lat="51.154062"><ele>33.8</ele><time>2022-03-27T07:32:34.000Z</time></trkpt><trkpt lon="5.626902" lat="51.154116"><ele>33.8</ele><time>2022-03-27T07:32:35.000Z</time></trkpt><trkpt lon="5.62684" lat="51.154168"><ele>33.8</ele><time>2022-03-27T07:32:36.000Z</time></trkpt><trkpt lon="5.626777" lat="51.154225"><ele>33.8</ele><time>2022-03-27T07:32:37.000Z</time></trkpt><trkpt lon="5.626717" lat="51.154278"><ele>34</ele><time>2022-03-27T07:32:38.000Z</time></trkpt><trkpt lon="5.62666" lat="51.154339"><ele>34</ele><time>2022-03-27T07:32:39.000Z</time></trkpt><trkpt lon="5.626606" lat="51.1544"><ele>34</ele><time>2022-03-27T07:32:40.000Z</time></trkpt><trkpt lon="5.626554" lat="51.15446"><ele>34</ele><time>2022-03-27T07:32:41.000Z</time></trkpt><trkpt lon="5.626498" lat="51.154522"><ele>34</ele><time>2022-03-27T07:32:42.000Z</time></trkpt><trkpt lon="5.626443" lat="51.154584"><ele>34</ele><time>2022-03-27T07:32:43.000Z</time></trkpt><trkpt lon="5.626389" lat="51.154644"><ele>34</ele><time>2022-03-27T07:32:44.000Z</time></trkpt><trkpt lon="5.626331" lat="51.154702"><ele>34.2</ele><time>2022-03-27T07:32:45.000Z</time></trkpt><trkpt lon="5.626273" lat="51.154763"><ele>34.2</ele><time>2022-03-27T07:32:46.000Z</time></trkpt><trkpt lon="5.62621" lat="51.15482"><ele>34.2</ele><time>2022-03-27T07:32:47.000Z</time></trkpt><trkpt lon="5.626136" lat="51.15487"><ele>34.2</ele><time>2022-03-27T07:32:48.000Z</time></trkpt><trkpt lon="5.626054" lat="51.154917"><ele>34.4</ele><time>2022-03-27T07:32:49.000Z</time></trkpt><trkpt lon="5.625967" lat="51.154962"><ele>34.4</ele><time>2022-03-27T07:32:50.000Z</time></trkpt><trkpt lon="5.625876" lat="51.155004"><ele>34.4</ele><time>2022-03-27T07:32:51.000Z</time></trkpt><trkpt lon="5.625785" lat="51.155043"><ele>34.2</ele><time>2022-03-27T07:32:52.000Z</time></trkpt><trkpt lon="5.625693" lat="51.155084"><ele>34.2</ele><time>2022-03-27T07:32:53.000Z</time></trkpt><trkpt lon="5.625604" lat="51.155122"><ele>34.2</ele><time>2022-03-27T07:32:54.000Z</time></trkpt><trkpt lon="5.62551" lat="51.155157"><ele>34.2</ele><time>2022-03-27T07:32:55.000Z</time></trkpt><trkpt lon="5.625416" lat="51.155199"><ele>34.2</ele><time>2022-03-27T07:32:56.000Z</time></trkpt><trkpt lon="5.625323" lat="51.155237"><ele>34.2</ele><time>2022-03-27T07:32:57.000Z</time></trkpt><trkpt lon="5.625232" lat="51.155271"><ele>34.4</ele><time>2022-03-27T07:32:58.000Z</time></trkpt><trkpt lon="5.62514" lat="51.155313"><ele>34.4</ele><time>2022-03-27T07:32:59.000Z</time></trkpt><trkpt lon="5.625049" lat="51.155352"><ele>34.4</ele><time>2022-03-27T07:33:00.000Z</time></trkpt><trkpt lon="5.624965" lat="51.155397"><ele>34.4</ele><time>2022-03-27T07:33:01.000Z</time></trkpt><trkpt lon="5.624892" lat="51.155446"><ele>34.4</ele><time>2022-03-27T07:33:02.000Z</time></trkpt><trkpt lon="5.624842" lat="51.155507"><ele>34.4</ele><time>2022-03-27T07:33:03.000Z</time></trkpt><trkpt lon="5.624815" lat="51.155579"><ele>34.2</ele><time>2022-03-27T07:33:04.000Z</time></trkpt><trkpt lon="5.624798" lat="51.155652"><ele>34.2</ele><time>2022-03-27T07:33:05.000Z</time></trkpt><trkpt lon="5.624787" lat="51.155724"><ele>34</ele><time>2022-03-27T07:33:06.000Z</time></trkpt><trkpt lon="5.624775" lat="51.155797"><ele>34</ele><time>2022-03-27T07:33:07.000Z</time></trkpt><trkpt lon="5.624766" lat="51.155861"><ele>33.8</ele><time>2022-03-27T07:33:08.000Z</time></trkpt><trkpt lon="5.624754" lat="51.155932"><ele>33.8</ele><time>2022-03-27T07:33:09.000Z</time></trkpt><trkpt lon="5.624744" lat="51.155997"><ele>33.8</ele><time>2022-03-27T07:33:10.000Z</time></trkpt><trkpt lon="5.624735" lat="51.156067"><ele>33.8</ele><time>2022-03-27T07:33:11.000Z</time></trkpt><trkpt lon="5.624727" lat="51.156136"><ele>33.8</ele><time>2022-03-27T07:33:12.000Z</time></trkpt><trkpt lon="5.624719" lat="51.156205"><ele>34</ele><time>2022-03-27T07:33:13.000Z</time></trkpt><trkpt lon="5.624709" lat="51.156273"><ele>34</ele><time>2022-03-27T07:33:14.000Z</time></trkpt><trkpt lon="5.624696" lat="51.156345"><ele>34</ele><time>2022-03-27T07:33:15.000Z</time></trkpt><trkpt lon="5.624682" lat="51.156417"><ele>34.2</ele><time>2022-03-27T07:33:16.000Z</time></trkpt><trkpt lon="5.624665" lat="51.156489"><ele>34</ele><time>2022-03-27T07:33:17.000Z</time></trkpt><trkpt lon="5.62464" lat="51.156563"><ele>33.8</ele><time>2022-03-27T07:33:18.000Z</time></trkpt><trkpt lon="5.624608" lat="51.156632"><ele>33.8</ele><time>2022-03-27T07:33:19.000Z</time></trkpt><trkpt lon="5.624574" lat="51.1567"><ele>33.8</ele><time>2022-03-27T07:33:20.000Z</time></trkpt><trkpt lon="5.624535" lat="51.156765"><ele>33.6</ele><time>2022-03-27T07:33:21.000Z</time></trkpt><trkpt lon="5.624492" lat="51.156834"><ele>33.6</ele><time>2022-03-27T07:33:22.000Z</time></trkpt><trkpt lon="5.624444" lat="51.156899"><ele>33.6</ele><time>2022-03-27T07:33:23.000Z</time></trkpt><trkpt lon="5.624398" lat="51.156963"><ele>33.6</ele><time>2022-03-27T07:33:24.000Z</time></trkpt><trkpt lon="5.624352" lat="51.157029"><ele>33.6</ele><time>2022-03-27T07:33:25.000Z</time></trkpt><trkpt lon="5.624309" lat="51.157094"><ele>33.6</ele><time>2022-03-27T07:33:26.000Z</time></trkpt><trkpt lon="5.624268" lat="51.157158"><ele>33.6</ele><time>2022-03-27T07:33:27.000Z</time></trkpt><trkpt lon="5.624229" lat="51.157223"><ele>33.6</ele><time>2022-03-27T07:33:28.000Z</time></trkpt><trkpt lon="5.624197" lat="51.157291"><ele>33.6</ele><time>2022-03-27T07:33:29.000Z</time></trkpt><trkpt lon="5.624169" lat="51.157359"><ele>33.6</ele><time>2022-03-27T07:33:30.000Z</time></trkpt><trkpt lon="5.624143" lat="51.157429"><ele>33.6</ele><time>2022-03-27T07:33:31.000Z</time></trkpt><trkpt lon="5.624118" lat="51.157494"><ele>33.4</ele><time>2022-03-27T07:33:32.000Z</time></trkpt><trkpt lon="5.624093" lat="51.157559"><ele>33.4</ele><time>2022-03-27T07:33:33.000Z</time></trkpt><trkpt lon="5.624068" lat="51.157627"><ele>33.4</ele><time>2022-03-27T07:33:34.000Z</time></trkpt><trkpt lon="5.624045" lat="51.157696"><ele>33.6</ele><time>2022-03-27T07:33:35.000Z</time></trkpt><trkpt lon="5.624023" lat="51.157761"><ele>33.6</ele><time>2022-03-27T07:33:36.000Z</time></trkpt><trkpt lon="5.623999" lat="51.157826"><ele>33.6</ele><time>2022-03-27T07:33:37.000Z</time></trkpt><trkpt lon="5.623976" lat="51.15789"><ele>33.8</ele><time>2022-03-27T07:33:38.000Z</time></trkpt><trkpt lon="5.623956" lat="51.157959"><ele>34</ele><time>2022-03-27T07:33:39.000Z</time></trkpt><trkpt lon="5.623933" lat="51.158027"><ele>34.2</ele><time>2022-03-27T07:33:40.000Z</time></trkpt><trkpt lon="5.623911" lat="51.158097"><ele>34.2</ele><time>2022-03-27T07:33:41.000Z</time></trkpt><trkpt lon="5.623888" lat="51.158166"><ele>34.2</ele><time>2022-03-27T07:33:42.000Z</time></trkpt><trkpt lon="5.623867" lat="51.158234"><ele>34.4</ele><time>2022-03-27T07:33:43.000Z</time></trkpt><trkpt lon="5.623848" lat="51.158302"><ele>34.4</ele><time>2022-03-27T07:33:44.000Z</time></trkpt><trkpt lon="5.623826" lat="51.158371"><ele>34.4</ele><time>2022-03-27T07:33:45.000Z</time></trkpt><trkpt lon="5.623801" lat="51.158433"><ele>34.4</ele><time>2022-03-27T07:33:46.000Z</time></trkpt><trkpt lon="5.623778" lat="51.158497"><ele>34.4</ele><time>2022-03-27T07:33:47.000Z</time></trkpt><trkpt lon="5.623755" lat="51.158566"><ele>34.4</ele><time>2022-03-27T07:33:48.000Z</time></trkpt><trkpt lon="5.623731" lat="51.158634"><ele>34.6</ele><time>2022-03-27T07:33:49.000Z</time></trkpt><trkpt lon="5.623708" lat="51.158702"><ele>34.6</ele><time>2022-03-27T07:33:50.000Z</time></trkpt><trkpt lon="5.623685" lat="51.158771"><ele>34.6</ele><time>2022-03-27T07:33:51.000Z</time></trkpt><trkpt lon="5.623664" lat="51.158841"><ele>34.4</ele><time>2022-03-27T07:33:52.000Z</time></trkpt><trkpt lon="5.623641" lat="51.15891"><ele>34.4</ele><time>2022-03-27T07:33:53.000Z</time></trkpt><trkpt lon="5.623618" lat="51.158978"><ele>34.4</ele><time>2022-03-27T07:33:54.000Z</time></trkpt><trkpt lon="5.623595" lat="51.159046"><ele>34.4</ele><time>2022-03-27T07:33:55.000Z</time></trkpt><trkpt lon="5.62357" lat="51.159112"><ele>34.4</ele><time>2022-03-27T07:33:56.000Z</time></trkpt><trkpt lon="5.623547" lat="51.159176"><ele>34.4</ele><time>2022-03-27T07:33:57.000Z</time></trkpt><trkpt lon="5.623523" lat="51.159237"><ele>34.4</ele><time>2022-03-27T07:33:58.000Z</time></trkpt><trkpt lon="5.623501" lat="51.159302"><ele>34.2</ele><time>2022-03-27T07:33:59.000Z</time></trkpt><trkpt lon="5.623481" lat="51.159367"><ele>34.2</ele><time>2022-03-27T07:34:00.000Z</time></trkpt><trkpt lon="5.623458" lat="51.159429"><ele>34.2</ele><time>2022-03-27T07:34:01.000Z</time></trkpt><trkpt lon="5.623434" lat="51.159496"><ele>34.2</ele><time>2022-03-27T07:34:02.000Z</time></trkpt><trkpt lon="5.623412" lat="51.159561"><ele>34.2</ele><time>2022-03-27T07:34:03.000Z</time></trkpt><trkpt lon="5.62339" lat="51.159623"><ele>34.2</ele><time>2022-03-27T07:34:04.000Z</time></trkpt><trkpt lon="5.623366" lat="51.159695"><ele>34.4</ele><time>2022-03-27T07:34:05.000Z</time></trkpt><trkpt lon="5.623345" lat="51.159764"><ele>34.4</ele><time>2022-03-27T07:34:06.000Z</time></trkpt><trkpt lon="5.623318" lat="51.159833"><ele>34.4</ele><time>2022-03-27T07:34:07.000Z</time></trkpt><trkpt lon="5.623292" lat="51.159893"><ele>34.4</ele><time>2022-03-27T07:34:08.000Z</time></trkpt><trkpt lon="5.623258" lat="51.159959"><ele>34.4</ele><time>2022-03-27T07:34:09.000Z</time></trkpt><trkpt lon="5.623226" lat="51.160026"><ele>34.2</ele><time>2022-03-27T07:34:10.000Z</time></trkpt><trkpt lon="5.623185" lat="51.160092"><ele>34.2</ele><time>2022-03-27T07:34:11.000Z</time></trkpt><trkpt lon="5.623142" lat="51.160157"><ele>34.2</ele><time>2022-03-27T07:34:12.000Z</time></trkpt><trkpt lon="5.623095" lat="51.160222"><ele>34</ele><time>2022-03-27T07:34:13.000Z</time></trkpt><trkpt lon="5.623049" lat="51.160287"><ele>34</ele><time>2022-03-27T07:34:14.000Z</time></trkpt><trkpt lon="5.622999" lat="51.160348"><ele>33.8</ele><time>2022-03-27T07:34:15.000Z</time></trkpt><trkpt lon="5.62295" lat="51.160413"><ele>33.8</ele><time>2022-03-27T07:34:16.000Z</time></trkpt><trkpt lon="5.622903" lat="51.160473"><ele>33.8</ele><time>2022-03-27T07:34:17.000Z</time></trkpt><trkpt lon="5.622852" lat="51.160539"><ele>33.8</ele><time>2022-03-27T07:34:18.000Z</time></trkpt><trkpt lon="5.622801" lat="51.160604"><ele>33.8</ele><time>2022-03-27T07:34:19.000Z</time></trkpt><trkpt lon="5.62275" lat="51.160664"><ele>33.8</ele><time>2022-03-27T07:34:20.000Z</time></trkpt><trkpt lon="5.622699" lat="51.160726"><ele>34</ele><time>2022-03-27T07:34:21.000Z</time></trkpt><trkpt lon="5.622648" lat="51.160786"><ele>34</ele><time>2022-03-27T07:34:22.000Z</time></trkpt><trkpt lon="5.622593" lat="51.160848"><ele>33.8</ele><time>2022-03-27T07:34:23.000Z</time></trkpt><trkpt lon="5.622532" lat="51.160901"><ele>33.8</ele><time>2022-03-27T07:34:24.000Z</time></trkpt><trkpt lon="5.622463" lat="51.160958"><ele>33.8</ele><time>2022-03-27T07:34:25.000Z</time></trkpt><trkpt lon="5.622389" lat="51.161008"><ele>33.8</ele><time>2022-03-27T07:34:26.000Z</time></trkpt><trkpt lon="5.622308" lat="51.161061"><ele>33.8</ele><time>2022-03-27T07:34:27.000Z</time></trkpt><trkpt lon="5.622221" lat="51.161108"><ele>33.6</ele><time>2022-03-27T07:34:28.000Z</time></trkpt><trkpt lon="5.622129" lat="51.16115"><ele>33.6</ele><time>2022-03-27T07:34:29.000Z</time></trkpt><trkpt lon="5.622034" lat="51.161188"><ele>33.8</ele><time>2022-03-27T07:34:30.000Z</time></trkpt><trkpt lon="5.621936" lat="51.161223"><ele>33.8</ele><time>2022-03-27T07:34:31.000Z</time></trkpt><trkpt lon="5.621837" lat="51.161253"><ele>33.8</ele><time>2022-03-27T07:34:32.000Z</time></trkpt><trkpt lon="5.621738" lat="51.161287"><ele>33.6</ele><time>2022-03-27T07:34:33.000Z</time></trkpt><trkpt lon="5.621636" lat="51.161319"><ele>33.4</ele><time>2022-03-27T07:34:34.000Z</time></trkpt><trkpt lon="5.621539" lat="51.161349"><ele>33.4</ele><time>2022-03-27T07:34:35.000Z</time></trkpt><trkpt lon="5.621442" lat="51.161383"><ele>33.4</ele><time>2022-03-27T07:34:36.000Z</time></trkpt><trkpt lon="5.621343" lat="51.161414"><ele>33.6</ele><time>2022-03-27T07:34:37.000Z</time></trkpt><trkpt lon="5.621246" lat="51.161444"><ele>33.6</ele><time>2022-03-27T07:34:38.000Z</time></trkpt><trkpt lon="5.621146" lat="51.161475"><ele>33.6</ele><time>2022-03-27T07:34:39.000Z</time></trkpt><trkpt lon="5.621048" lat="51.161501"><ele>33.8</ele><time>2022-03-27T07:34:40.000Z</time></trkpt><trkpt lon="5.620948" lat="51.161536"><ele>33.8</ele><time>2022-03-27T07:34:41.000Z</time></trkpt><trkpt lon="5.620848" lat="51.161566"><ele>33.8</ele><time>2022-03-27T07:34:42.000Z</time></trkpt><trkpt lon="5.620748" lat="51.161597"><ele>33.8</ele><time>2022-03-27T07:34:43.000Z</time></trkpt><trkpt lon="5.62065" lat="51.161627"><ele>33.8</ele><time>2022-03-27T07:34:44.000Z</time></trkpt><trkpt lon="5.620553" lat="51.161657"><ele>33.6</ele><time>2022-03-27T07:34:45.000Z</time></trkpt><trkpt lon="5.620456" lat="51.161688"><ele>33.6</ele><time>2022-03-27T07:34:46.000Z</time></trkpt><trkpt lon="5.620362" lat="51.161718"><ele>33.6</ele><time>2022-03-27T07:34:47.000Z</time></trkpt><trkpt lon="5.620262" lat="51.161749"><ele>33.6</ele><time>2022-03-27T07:34:48.000Z</time></trkpt><trkpt lon="5.620165" lat="51.16178"><ele>33.6</ele><time>2022-03-27T07:34:49.000Z</time></trkpt><trkpt lon="5.620066" lat="51.16181"><ele>33.8</ele><time>2022-03-27T07:34:50.000Z</time></trkpt><trkpt lon="5.619969" lat="51.161837"><ele>34</ele><time>2022-03-27T07:34:51.000Z</time></trkpt><trkpt lon="5.61987" lat="51.161867"><ele>34</ele><time>2022-03-27T07:34:52.000Z</time></trkpt><trkpt lon="5.619773" lat="51.161898"><ele>34.2</ele><time>2022-03-27T07:34:53.000Z</time></trkpt><trkpt lon="5.619674" lat="51.161929"><ele>34.2</ele><time>2022-03-27T07:34:54.000Z</time></trkpt><trkpt lon="5.619579" lat="51.161967"><ele>34.2</ele><time>2022-03-27T07:34:55.000Z</time></trkpt><trkpt lon="5.619486" lat="51.162"><ele>34.2</ele><time>2022-03-27T07:34:56.000Z</time></trkpt><trkpt lon="5.619389" lat="51.162035"><ele>34.2</ele><time>2022-03-27T07:34:57.000Z</time></trkpt><trkpt lon="5.619294" lat="51.162073"><ele>34.2</ele><time>2022-03-27T07:34:58.000Z</time></trkpt><trkpt lon="5.619204" lat="51.162111"><ele>34</ele><time>2022-03-27T07:34:59.000Z</time></trkpt><trkpt lon="5.619114" lat="51.162149"><ele>34</ele><time>2022-03-27T07:35:00.000Z</time></trkpt><trkpt lon="5.619023" lat="51.162188"><ele>34</ele><time>2022-03-27T07:35:01.000Z</time></trkpt><trkpt lon="5.618933" lat="51.162226"><ele>34</ele><time>2022-03-27T07:35:02.000Z</time></trkpt><trkpt lon="5.618843" lat="51.16226"><ele>34</ele><time>2022-03-27T07:35:03.000Z</time></trkpt><trkpt lon="5.618762" lat="51.162294"><ele>34</ele><time>2022-03-27T07:35:04.000Z</time></trkpt><trkpt lon="5.618664" lat="51.162337"><ele>34.2</ele><time>2022-03-27T07:35:05.000Z</time></trkpt><trkpt lon="5.618572" lat="51.162375"><ele>34.4</ele><time>2022-03-27T07:35:06.000Z</time></trkpt><trkpt lon="5.618482" lat="51.162413"><ele>34.4</ele><time>2022-03-27T07:35:07.000Z</time></trkpt><trkpt lon="5.618402" lat="51.162442"><ele>34.6</ele><time>2022-03-27T07:35:08.000Z</time></trkpt><trkpt lon="5.618298" lat="51.162484"><ele>34.8</ele><time>2022-03-27T07:35:09.000Z</time></trkpt><trkpt lon="5.618203" lat="51.162523"><ele>34.8</ele><time>2022-03-27T07:35:10.000Z</time></trkpt><trkpt lon="5.61811" lat="51.162565"><ele>35</ele><time>2022-03-27T07:35:11.000Z</time></trkpt><trkpt lon="5.618016" lat="51.162603"><ele>35</ele><time>2022-03-27T07:35:12.000Z</time></trkpt><trkpt lon="5.617923" lat="51.162638"><ele>35</ele><time>2022-03-27T07:35:13.000Z</time></trkpt><trkpt lon="5.617832" lat="51.162675"><ele>35</ele><time>2022-03-27T07:35:14.000Z</time></trkpt><trkpt lon="5.617742" lat="51.162709"><ele>35</ele><time>2022-03-27T07:35:15.000Z</time></trkpt><trkpt lon="5.617647" lat="51.162752"><ele>35</ele><time>2022-03-27T07:35:16.000Z</time></trkpt><trkpt lon="5.617557" lat="51.162786"><ele>35</ele><time>2022-03-27T07:35:17.000Z</time></trkpt><trkpt lon="5.617468" lat="51.162832"><ele>35</ele><time>2022-03-27T07:35:18.000Z</time></trkpt><trkpt lon="5.617381" lat="51.162874"><ele>35</ele><time>2022-03-27T07:35:19.000Z</time></trkpt><trkpt lon="5.617293" lat="51.162916"><ele>35</ele><time>2022-03-27T07:35:20.000Z</time></trkpt><trkpt lon="5.617207" lat="51.162958"><ele>35</ele><time>2022-03-27T07:35:21.000Z</time></trkpt><trkpt lon="5.617122" lat="51.163007"><ele>35</ele><time>2022-03-27T07:35:22.000Z</time></trkpt><trkpt lon="5.617036" lat="51.163049"><ele>34.8</ele><time>2022-03-27T07:35:23.000Z</time></trkpt><trkpt lon="5.616948" lat="51.163095"><ele>34.6</ele><time>2022-03-27T07:35:24.000Z</time></trkpt><trkpt lon="5.616862" lat="51.16314"><ele>34.4</ele><time>2022-03-27T07:35:25.000Z</time></trkpt><trkpt lon="5.616776" lat="51.163187"><ele>34.2</ele><time>2022-03-27T07:35:26.000Z</time></trkpt><trkpt lon="5.616691" lat="51.163229"><ele>34.2</ele><time>2022-03-27T07:35:27.000Z</time></trkpt><trkpt lon="5.616607" lat="51.163275"><ele>34.2</ele><time>2022-03-27T07:35:28.000Z</time></trkpt><trkpt lon="5.616527" lat="51.163315"><ele>34.2</ele><time>2022-03-27T07:35:29.000Z</time></trkpt><trkpt lon="5.616439" lat="51.163358"><ele>34</ele><time>2022-03-27T07:35:30.000Z</time></trkpt><trkpt lon="5.616354" lat="51.163404"><ele>34</ele><time>2022-03-27T07:35:31.000Z</time></trkpt><trkpt lon="5.616273" lat="51.163446"><ele>34</ele><time>2022-03-27T07:35:32.000Z</time></trkpt><trkpt lon="5.61619" lat="51.163492"><ele>34</ele><time>2022-03-27T07:35:33.000Z</time></trkpt><trkpt lon="5.616112" lat="51.163533"><ele>34.2</ele><time>2022-03-27T07:35:34.000Z</time></trkpt><trkpt lon="5.616033" lat="51.16358"><ele>34</ele><time>2022-03-27T07:35:35.000Z</time></trkpt><trkpt lon="5.615962" lat="51.163629"><ele>34.2</ele><time>2022-03-27T07:35:36.000Z</time></trkpt><trkpt lon="5.615896" lat="51.163683"><ele>34.2</ele><time>2022-03-27T07:35:37.000Z</time></trkpt><trkpt lon="5.615841" lat="51.163739"><ele>34.4</ele><time>2022-03-27T07:35:38.000Z</time></trkpt><trkpt lon="5.615794" lat="51.1638"><ele>34.6</ele><time>2022-03-27T07:35:39.000Z</time></trkpt><trkpt lon="5.615755" lat="51.163861"><ele>34.8</ele><time>2022-03-27T07:35:40.000Z</time></trkpt><trkpt lon="5.615722" lat="51.163922"><ele>34.8</ele><time>2022-03-27T07:35:41.000Z</time></trkpt><trkpt lon="5.61569" lat="51.163983"><ele>34.8</ele><time>2022-03-27T07:35:42.000Z</time></trkpt><trkpt lon="5.615658" lat="51.164041"><ele>35</ele><time>2022-03-27T07:35:43.000Z</time></trkpt><trkpt lon="5.615628" lat="51.164098"><ele>34.8</ele><time>2022-03-27T07:35:44.000Z</time></trkpt><trkpt lon="5.615599" lat="51.164151"><ele>34.8</ele><time>2022-03-27T07:35:45.000Z</time></trkpt><trkpt lon="5.61557" lat="51.164201"><ele>34.8</ele><time>2022-03-27T07:35:46.000Z</time></trkpt><trkpt lon="5.615543" lat="51.164251"><ele>35</ele><time>2022-03-27T07:35:47.000Z</time></trkpt><trkpt lon="5.615514" lat="51.164303"><ele>35</ele><time>2022-03-27T07:35:48.000Z</time></trkpt><trkpt lon="5.615469" lat="51.164343"><ele>35</ele><time>2022-03-27T07:35:49.000Z</time></trkpt><trkpt lon="5.615404" lat="51.16437"><ele>35</ele><time>2022-03-27T07:35:50.000Z</time></trkpt><trkpt lon="5.615319" lat="51.164386"><ele>35.2</ele><time>2022-03-27T07:35:51.000Z</time></trkpt><trkpt lon="5.615226" lat="51.164383"><ele>35.2</ele><time>2022-03-27T07:35:52.000Z</time></trkpt><trkpt lon="5.615127" lat="51.164368"><ele>35.4</ele><time>2022-03-27T07:35:53.000Z</time></trkpt><trkpt lon="5.615025" lat="51.16435"><ele>35.6</ele><time>2022-03-27T07:35:54.000Z</time></trkpt><trkpt lon="5.614918" lat="51.164331"><ele>35.6</ele><time>2022-03-27T07:35:55.000Z</time></trkpt><trkpt lon="5.61481" lat="51.164312"><ele>35.6</ele><time>2022-03-27T07:35:56.000Z</time></trkpt><trkpt lon="5.614697" lat="51.164292"><ele>35.6</ele><time>2022-03-27T07:35:57.000Z</time></trkpt><trkpt lon="5.614586" lat="51.164273"><ele>35.6</ele><time>2022-03-27T07:35:58.000Z</time></trkpt><trkpt lon="5.614475" lat="51.164251"><ele>35.6</ele><time>2022-03-27T07:35:59.000Z</time></trkpt><trkpt lon="5.614364" lat="51.164228"><ele>35.6</ele><time>2022-03-27T07:36:00.000Z</time></trkpt><trkpt lon="5.614258" lat="51.164201"><ele>35.8</ele><time>2022-03-27T07:36:01.000Z</time></trkpt><trkpt lon="5.614151" lat="51.164178"><ele>36</ele><time>2022-03-27T07:36:02.000Z</time></trkpt><trkpt lon="5.614047" lat="51.164152"><ele>36.2</ele><time>2022-03-27T07:36:03.000Z</time></trkpt><trkpt lon="5.613947" lat="51.164126"><ele>36.4</ele><time>2022-03-27T07:36:04.000Z</time></trkpt><trkpt lon="5.613839" lat="51.164102"><ele>36.6</ele><time>2022-03-27T07:36:05.000Z</time></trkpt><trkpt lon="5.613738" lat="51.164072"><ele>36.6</ele><time>2022-03-27T07:36:06.000Z</time></trkpt><trkpt lon="5.613639" lat="51.164044"><ele>36.8</ele><time>2022-03-27T07:36:07.000Z</time></trkpt><trkpt lon="5.613545" lat="51.164022"><ele>37</ele><time>2022-03-27T07:36:08.000Z</time></trkpt><trkpt lon="5.61345" lat="51.163995"><ele>37.2</ele><time>2022-03-27T07:36:09.000Z</time></trkpt><trkpt lon="5.61336" lat="51.163969"><ele>37.4</ele><time>2022-03-27T07:36:10.000Z</time></trkpt><trkpt lon="5.613261" lat="51.163942"><ele>37.6</ele><time>2022-03-27T07:36:11.000Z</time></trkpt><trkpt lon="5.613166" lat="51.163916"><ele>37.8</ele><time>2022-03-27T07:36:12.000Z</time></trkpt><trkpt lon="5.613067" lat="51.163888"><ele>38</ele><time>2022-03-27T07:36:13.000Z</time></trkpt><trkpt lon="5.612971" lat="51.163862"><ele>38.2</ele><time>2022-03-27T07:36:14.000Z</time></trkpt><trkpt lon="5.612876" lat="51.163839"><ele>38.4</ele><time>2022-03-27T07:36:15.000Z</time></trkpt><trkpt lon="5.612783" lat="51.163813"><ele>38.6</ele><time>2022-03-27T07:36:16.000Z</time></trkpt><trkpt lon="5.612687" lat="51.163786"><ele>38.8</ele><time>2022-03-27T07:36:17.000Z</time></trkpt><trkpt lon="5.612588" lat="51.163756"><ele>39</ele><time>2022-03-27T07:36:18.000Z</time></trkpt><trkpt lon="5.612489" lat="51.163728"><ele>39.2</ele><time>2022-03-27T07:36:19.000Z</time></trkpt><trkpt lon="5.612391" lat="51.163701"><ele>39.4</ele><time>2022-03-27T07:36:20.000Z</time></trkpt><trkpt lon="5.612294" lat="51.163675"><ele>39.8</ele><time>2022-03-27T07:36:21.000Z</time></trkpt><trkpt lon="5.612201" lat="51.163648"><ele>40</ele><time>2022-03-27T07:36:22.000Z</time></trkpt><trkpt lon="5.612112" lat="51.163625"><ele>40.2</ele><time>2022-03-27T07:36:23.000Z</time></trkpt><trkpt lon="5.612021" lat="51.163598"><ele>40.4</ele><time>2022-03-27T07:36:24.000Z</time></trkpt><trkpt lon="5.611931" lat="51.163572"><ele>40.8</ele><time>2022-03-27T07:36:25.000Z</time></trkpt><trkpt lon="5.611843" lat="51.163549"><ele>41</ele><time>2022-03-27T07:36:26.000Z</time></trkpt><trkpt lon="5.611753" lat="51.163526"><ele>41.2</ele><time>2022-03-27T07:36:27.000Z</time></trkpt><trkpt lon="5.611665" lat="51.163499"><ele>41.4</ele><time>2022-03-27T07:36:28.000Z</time></trkpt><trkpt lon="5.611577" lat="51.163477"><ele>41.8</ele><time>2022-03-27T07:36:29.000Z</time></trkpt><trkpt lon="5.611488" lat="51.16345"><ele>42</ele><time>2022-03-27T07:36:30.000Z</time></trkpt><trkpt lon="5.611399" lat="51.163426"><ele>42.2</ele><time>2022-03-27T07:36:31.000Z</time></trkpt><trkpt lon="5.611311" lat="51.163408"><ele>42.4</ele><time>2022-03-27T07:36:32.000Z</time></trkpt><trkpt lon="5.611219" lat="51.163385"><ele>42.8</ele><time>2022-03-27T07:36:33.000Z</time></trkpt><trkpt lon="5.611131" lat="51.163362"><ele>43</ele><time>2022-03-27T07:36:34.000Z</time></trkpt><trkpt lon="5.611038" lat="51.163342"><ele>43.2</ele><time>2022-03-27T07:36:35.000Z</time></trkpt><trkpt lon="5.610949" lat="51.163323"><ele>43.4</ele><time>2022-03-27T07:36:36.000Z</time></trkpt><trkpt lon="5.610863" lat="51.163311"><ele>43.8</ele><time>2022-03-27T07:36:37.000Z</time></trkpt><trkpt lon="5.610785" lat="51.163296"><ele>44</ele><time>2022-03-27T07:36:38.000Z</time></trkpt><trkpt lon="5.610709" lat="51.163282"><ele>44.2</ele><time>2022-03-27T07:36:39.000Z</time></trkpt><trkpt lon="5.610628" lat="51.16327"><ele>44.4</ele><time>2022-03-27T07:36:40.000Z</time></trkpt><trkpt lon="5.610547" lat="51.163255"><ele>44.8</ele><time>2022-03-27T07:36:41.000Z</time></trkpt><trkpt lon="5.61047" lat="51.163239"><ele>45</ele><time>2022-03-27T07:36:42.000Z</time></trkpt><trkpt lon="5.610393" lat="51.163228"><ele>45.2</ele><time>2022-03-27T07:36:43.000Z</time></trkpt><trkpt lon="5.610309" lat="51.163216"><ele>45.4</ele><time>2022-03-27T07:36:44.000Z</time></trkpt><trkpt lon="5.610226" lat="51.163201"><ele>45.6</ele><time>2022-03-27T07:36:45.000Z</time></trkpt><trkpt lon="5.610141" lat="51.16319"><ele>45.8</ele><time>2022-03-27T07:36:46.000Z</time></trkpt><trkpt lon="5.610054" lat="51.163175"><ele>46</ele><time>2022-03-27T07:36:47.000Z</time></trkpt><trkpt lon="5.609961" lat="51.163156"><ele>46.2</ele><time>2022-03-27T07:36:48.000Z</time></trkpt><trkpt lon="5.609871" lat="51.16314"><ele>46.4</ele><time>2022-03-27T07:36:49.000Z</time></trkpt><trkpt lon="5.609782" lat="51.163121"><ele>46.6</ele><time>2022-03-27T07:36:50.000Z</time></trkpt><trkpt lon="5.609691" lat="51.163106"><ele>46.6</ele><time>2022-03-27T07:36:51.000Z</time></trkpt><trkpt lon="5.609602" lat="51.16309"><ele>46.8</ele><time>2022-03-27T07:36:52.000Z</time></trkpt><trkpt lon="5.609517" lat="51.163075"><ele>46.8</ele><time>2022-03-27T07:36:53.000Z</time></trkpt><trkpt lon="5.609432" lat="51.16306"><ele>46.8</ele><time>2022-03-27T07:36:54.000Z</time></trkpt><trkpt lon="5.609345" lat="51.163045"><ele>46.8</ele><time>2022-03-27T07:36:55.000Z</time></trkpt><trkpt lon="5.609256" lat="51.163029"><ele>46.6</ele><time>2022-03-27T07:36:56.000Z</time></trkpt><trkpt lon="5.609163" lat="51.163014"><ele>46.6</ele><time>2022-03-27T07:36:57.000Z</time></trkpt><trkpt lon="5.609064" lat="51.162996"><ele>46.6</ele><time>2022-03-27T07:36:58.000Z</time></trkpt><trkpt lon="5.60896" lat="51.162973"><ele>46.4</ele><time>2022-03-27T07:36:59.000Z</time></trkpt><trkpt lon="5.608853" lat="51.162946"><ele>46.2</ele><time>2022-03-27T07:37:00.000Z</time></trkpt><trkpt lon="5.608742" lat="51.162913"><ele>46</ele><time>2022-03-27T07:37:01.000Z</time></trkpt><trkpt lon="5.608633" lat="51.162875"><ele>46</ele><time>2022-03-27T07:37:02.000Z</time></trkpt><trkpt lon="5.608526" lat="51.162833"><ele>45.8</ele><time>2022-03-27T07:37:03.000Z</time></trkpt><trkpt lon="5.608433" lat="51.162783"><ele>45.6</ele><time>2022-03-27T07:37:04.000Z</time></trkpt><trkpt lon="5.608338" lat="51.162723"><ele>45.2</ele><time>2022-03-27T07:37:05.000Z</time></trkpt><trkpt lon="5.608259" lat="51.162655"><ele>45</ele><time>2022-03-27T07:37:06.000Z</time></trkpt><trkpt lon="5.608191" lat="51.162585"><ele>44.8</ele><time>2022-03-27T07:37:07.000Z</time></trkpt><trkpt lon="5.60814" lat="51.162518"><ele>44.6</ele><time>2022-03-27T07:37:08.000Z</time></trkpt><trkpt lon="5.608102" lat="51.162449"><ele>44.4</ele><time>2022-03-27T07:37:09.000Z</time></trkpt><trkpt lon="5.608078" lat="51.162376"><ele>44.2</ele><time>2022-03-27T07:37:10.000Z</time></trkpt><trkpt lon="5.608064" lat="51.162303"><ele>44</ele><time>2022-03-27T07:37:11.000Z</time></trkpt><trkpt lon="5.608059" lat="51.162235"><ele>43.8</ele><time>2022-03-27T07:37:12.000Z</time></trkpt><trkpt lon="5.608057" lat="51.162163"><ele>43.6</ele><time>2022-03-27T07:37:13.000Z</time></trkpt><trkpt lon="5.608053" lat="51.162091"><ele>43.4</ele><time>2022-03-27T07:37:14.000Z</time></trkpt><trkpt lon="5.608043" lat="51.162022"><ele>43.2</ele><time>2022-03-27T07:37:15.000Z</time></trkpt><trkpt lon="5.608018" lat="51.161949"><ele>42.8</ele><time>2022-03-27T07:37:16.000Z</time></trkpt><trkpt lon="5.607983" lat="51.16188"><ele>42.6</ele><time>2022-03-27T07:37:17.000Z</time></trkpt><trkpt lon="5.607937" lat="51.161808"><ele>42.4</ele><time>2022-03-27T07:37:18.000Z</time></trkpt><trkpt lon="5.607884" lat="51.161739"><ele>42.2</ele><time>2022-03-27T07:37:19.000Z</time></trkpt><trkpt lon="5.607826" lat="51.161667"><ele>42</ele><time>2022-03-27T07:37:20.000Z</time></trkpt><trkpt lon="5.607769" lat="51.161595"><ele>41.8</ele><time>2022-03-27T07:37:21.000Z</time></trkpt><trkpt lon="5.607707" lat="51.161527"><ele>41.4</ele><time>2022-03-27T07:37:22.000Z</time></trkpt><trkpt lon="5.60764" lat="51.161458"><ele>41.2</ele><time>2022-03-27T07:37:23.000Z</time></trkpt><trkpt lon="5.60758" lat="51.161391"><ele>41</ele><time>2022-03-27T07:37:24.000Z</time></trkpt><trkpt lon="5.607521" lat="51.161323"><ele>40.8</ele><time>2022-03-27T07:37:25.000Z</time></trkpt><trkpt lon="5.607464" lat="51.161255"><ele>40.6</ele><time>2022-03-27T07:37:26.000Z</time></trkpt><trkpt lon="5.607407" lat="51.16119"><ele>40.4</ele><time>2022-03-27T07:37:27.000Z</time></trkpt><trkpt lon="5.60735" lat="51.161125"><ele>40.2</ele><time>2022-03-27T07:37:28.000Z</time></trkpt><trkpt lon="5.607296" lat="51.16106"><ele>40</ele><time>2022-03-27T07:37:29.000Z</time></trkpt><trkpt lon="5.607241" lat="51.160999"><ele>40</ele><time>2022-03-27T07:37:30.000Z</time></trkpt><trkpt lon="5.607186" lat="51.160941"><ele>39.8</ele><time>2022-03-27T07:37:31.000Z</time></trkpt><trkpt lon="5.60713" lat="51.160877"><ele>39.6</ele><time>2022-03-27T07:37:32.000Z</time></trkpt><trkpt lon="5.607076" lat="51.160815"><ele>39.2</ele><time>2022-03-27T07:37:33.000Z</time></trkpt><trkpt lon="5.607025" lat="51.160757"><ele>39.2</ele><time>2022-03-27T07:37:34.000Z</time></trkpt><trkpt lon="5.606972" lat="51.160697"><ele>39</ele><time>2022-03-27T07:37:35.000Z</time></trkpt><trkpt lon="5.606928" lat="51.160647"><ele>39</ele><time>2022-03-27T07:37:36.000Z</time></trkpt><trkpt lon="5.606893" lat="51.160604"><ele>38.8</ele><time>2022-03-27T07:37:37.000Z</time></trkpt><trkpt lon="5.606862" lat="51.160566"><ele>38.6</ele><time>2022-03-27T07:37:38.000Z</time></trkpt><trkpt lon="5.606828" lat="51.160528"><ele>38.6</ele><time>2022-03-27T07:37:39.000Z</time></trkpt><trkpt lon="5.606792" lat="51.160487"><ele>38.4</ele><time>2022-03-27T07:37:40.000Z</time></trkpt><trkpt lon="5.606749" lat="51.160438"><ele>38.2</ele><time>2022-03-27T07:37:41.000Z</time></trkpt><trkpt lon="5.606698" lat="51.160377"><ele>38</ele><time>2022-03-27T07:37:42.000Z</time></trkpt><trkpt lon="5.606638" lat="51.160312"><ele>37.8</ele><time>2022-03-27T07:37:43.000Z</time></trkpt><trkpt lon="5.606574" lat="51.160252"><ele>37.8</ele><time>2022-03-27T07:37:44.000Z</time></trkpt><trkpt lon="5.60651" lat="51.160187"><ele>37.6</ele><time>2022-03-27T07:37:45.000Z</time></trkpt><trkpt lon="5.606446" lat="51.160121"><ele>37.6</ele><time>2022-03-27T07:37:46.000Z</time></trkpt><trkpt lon="5.60638" lat="51.160068"><ele>37.6</ele><time>2022-03-27T07:37:47.000Z</time></trkpt><trkpt lon="5.606311" lat="51.160011"><ele>37.6</ele><time>2022-03-27T07:37:48.000Z</time></trkpt><trkpt lon="5.606243" lat="51.159957"><ele>37.6</ele><time>2022-03-27T07:37:49.000Z</time></trkpt><trkpt lon="5.606174" lat="51.159903"><ele>37.6</ele><time>2022-03-27T07:37:50.000Z</time></trkpt><trkpt lon="5.606106" lat="51.159851"><ele>37.4</ele><time>2022-03-27T07:37:51.000Z</time></trkpt><trkpt lon="5.606035" lat="51.159793"><ele>37.6</ele><time>2022-03-27T07:37:52.000Z</time></trkpt><trkpt lon="5.605964" lat="51.15974"><ele>37.6</ele><time>2022-03-27T07:37:53.000Z</time></trkpt><trkpt lon="5.605896" lat="51.159683"><ele>37.6</ele><time>2022-03-27T07:37:54.000Z</time></trkpt><trkpt lon="5.605827" lat="51.159621"><ele>37.8</ele><time>2022-03-27T07:37:55.000Z</time></trkpt><trkpt lon="5.605761" lat="51.159557"><ele>37.8</ele><time>2022-03-27T07:37:56.000Z</time></trkpt><trkpt lon="5.6057" lat="51.159492"><ele>37.8</ele><time>2022-03-27T07:37:57.000Z</time></trkpt><trkpt lon="5.605647" lat="51.159424"><ele>38</ele><time>2022-03-27T07:37:58.000Z</time></trkpt><trkpt lon="5.605599" lat="51.159355"><ele>38</ele><time>2022-03-27T07:37:59.000Z</time></trkpt><trkpt lon="5.60556" lat="51.159282"><ele>38</ele><time>2022-03-27T07:38:00.000Z</time></trkpt><trkpt lon="5.605523" lat="51.159213"><ele>38</ele><time>2022-03-27T07:38:01.000Z</time></trkpt><trkpt lon="5.605486" lat="51.159139"><ele>38</ele><time>2022-03-27T07:38:02.000Z</time></trkpt><trkpt lon="5.605449" lat="51.159061"><ele>38.2</ele><time>2022-03-27T07:38:03.000Z</time></trkpt><trkpt lon="5.605414" lat="51.158982"><ele>38</ele><time>2022-03-27T07:38:04.000Z</time></trkpt><trkpt lon="5.605377" lat="51.158905"><ele>38</ele><time>2022-03-27T07:38:05.000Z</time></trkpt><trkpt lon="5.605342" lat="51.158828"><ele>38.2</ele><time>2022-03-27T07:38:06.000Z</time></trkpt><trkpt lon="5.605306" lat="51.158748"><ele>38.2</ele><time>2022-03-27T07:38:07.000Z</time></trkpt><trkpt lon="5.605271" lat="51.15867"><ele>38.2</ele><time>2022-03-27T07:38:08.000Z</time></trkpt><trkpt lon="5.605231" lat="51.158585"><ele>38.4</ele><time>2022-03-27T07:38:09.000Z</time></trkpt><trkpt lon="5.605192" lat="51.158502"><ele>38.4</ele><time>2022-03-27T07:38:10.000Z</time></trkpt><trkpt lon="5.605157" lat="51.158417"><ele>38.4</ele><time>2022-03-27T07:38:11.000Z</time></trkpt><trkpt lon="5.605122" lat="51.158334"><ele>38.4</ele><time>2022-03-27T07:38:12.000Z</time></trkpt><trkpt lon="5.605087" lat="51.158253"><ele>38.4</ele><time>2022-03-27T07:38:13.000Z</time></trkpt><trkpt lon="5.60505" lat="51.158173"><ele>38.4</ele><time>2022-03-27T07:38:14.000Z</time></trkpt><trkpt lon="5.605015" lat="51.158093"><ele>38.4</ele><time>2022-03-27T07:38:15.000Z</time></trkpt><trkpt lon="5.604981" lat="51.158013"><ele>38.4</ele><time>2022-03-27T07:38:16.000Z</time></trkpt><trkpt lon="5.604944" lat="51.157933"><ele>38.4</ele><time>2022-03-27T07:38:17.000Z</time></trkpt><trkpt lon="5.604907" lat="51.157857"><ele>38.4</ele><time>2022-03-27T07:38:18.000Z</time></trkpt><trkpt lon="5.604872" lat="51.157781"><ele>38.4</ele><time>2022-03-27T07:38:19.000Z</time></trkpt><trkpt lon="5.604835" lat="51.157704"><ele>38.4</ele><time>2022-03-27T07:38:20.000Z</time></trkpt><trkpt lon="5.604802" lat="51.157627"><ele>38.6</ele><time>2022-03-27T07:38:21.000Z</time></trkpt><trkpt lon="5.60477" lat="51.157555"><ele>38.6</ele><time>2022-03-27T07:38:22.000Z</time></trkpt><trkpt lon="5.604738" lat="51.157486"><ele>38.6</ele><time>2022-03-27T07:38:23.000Z</time></trkpt><trkpt lon="5.604702" lat="51.157417"><ele>38.6</ele><time>2022-03-27T07:38:24.000Z</time></trkpt><trkpt lon="5.604667" lat="51.157352"><ele>38.6</ele><time>2022-03-27T07:38:25.000Z</time></trkpt><trkpt lon="5.604632" lat="51.157287"><ele>38.8</ele><time>2022-03-27T07:38:26.000Z</time></trkpt><trkpt lon="5.604597" lat="51.157218"><ele>38.8</ele><time>2022-03-27T07:38:27.000Z</time></trkpt><trkpt lon="5.60456" lat="51.157154"><ele>38.8</ele><time>2022-03-27T07:38:28.000Z</time></trkpt><trkpt lon="5.60452" lat="51.157089"><ele>38.8</ele><time>2022-03-27T07:38:29.000Z</time></trkpt><trkpt lon="5.604477" lat="51.157021"><ele>38.8</ele><time>2022-03-27T07:38:30.000Z</time></trkpt><trkpt lon="5.604435" lat="51.156957"><ele>38.8</ele><time>2022-03-27T07:38:31.000Z</time></trkpt><trkpt lon="5.604389" lat="51.156887"><ele>38.8</ele><time>2022-03-27T07:38:32.000Z</time></trkpt><trkpt lon="5.604344" lat="51.156822"><ele>38.8</ele><time>2022-03-27T07:38:33.000Z</time></trkpt><trkpt lon="5.604299" lat="51.156757"><ele>38.8</ele><time>2022-03-27T07:38:34.000Z</time></trkpt><trkpt lon="5.604249" lat="51.156688"><ele>38.8</ele><time>2022-03-27T07:38:35.000Z</time></trkpt><trkpt lon="5.604201" lat="51.156623"><ele>38.8</ele><time>2022-03-27T07:38:36.000Z</time></trkpt><trkpt lon="5.604152" lat="51.156558"><ele>38.8</ele><time>2022-03-27T07:38:37.000Z</time></trkpt><trkpt lon="5.604103" lat="51.156494"><ele>38.8</ele><time>2022-03-27T07:38:38.000Z</time></trkpt><trkpt lon="5.604053" lat="51.156433"><ele>38.8</ele><time>2022-03-27T07:38:39.000Z</time></trkpt><trkpt lon="5.604001" lat="51.156371"><ele>38.8</ele><time>2022-03-27T07:38:40.000Z</time></trkpt><trkpt lon="5.603948" lat="51.15631"><ele>38.8</ele><time>2022-03-27T07:38:41.000Z</time></trkpt><trkpt lon="5.603894" lat="51.15625"><ele>38.8</ele><time>2022-03-27T07:38:42.000Z</time></trkpt><trkpt lon="5.603833" lat="51.156188"><ele>38.6</ele><time>2022-03-27T07:38:43.000Z</time></trkpt><trkpt lon="5.603772" lat="51.156135"><ele>38.6</ele><time>2022-03-27T07:38:44.000Z</time></trkpt><trkpt lon="5.603707" lat="51.156074"><ele>38.6</ele><time>2022-03-27T07:38:45.000Z</time></trkpt><trkpt lon="5.60364" lat="51.15602"><ele>38.6</ele><time>2022-03-27T07:38:46.000Z</time></trkpt><trkpt lon="5.603571" lat="51.155967"><ele>38.6</ele><time>2022-03-27T07:38:47.000Z</time></trkpt><trkpt lon="5.603501" lat="51.155914"><ele>38.6</ele><time>2022-03-27T07:38:48.000Z</time></trkpt><trkpt lon="5.603425" lat="51.15586"><ele>38.6</ele><time>2022-03-27T07:38:49.000Z</time></trkpt><trkpt lon="5.603353" lat="51.155811"><ele>38.6</ele><time>2022-03-27T07:38:50.000Z</time></trkpt><trkpt lon="5.603276" lat="51.155764"><ele>38.6</ele><time>2022-03-27T07:38:51.000Z</time></trkpt><trkpt lon="5.603199" lat="51.155719"><ele>38.6</ele><time>2022-03-27T07:38:52.000Z</time></trkpt><trkpt lon="5.603119" lat="51.155673"><ele>38.6</ele><time>2022-03-27T07:38:53.000Z</time></trkpt><trkpt lon="5.603044" lat="51.15563"><ele>38.6</ele><time>2022-03-27T07:38:54.000Z</time></trkpt><trkpt lon="5.602974" lat="51.155589"><ele>38.6</ele><time>2022-03-27T07:38:55.000Z</time></trkpt><trkpt lon="5.602908" lat="51.155546"><ele>38.6</ele><time>2022-03-27T07:38:56.000Z</time></trkpt><trkpt lon="5.602854" lat="51.155501"><ele>38.6</ele><time>2022-03-27T07:38:57.000Z</time></trkpt><trkpt lon="5.602814" lat="51.155455"><ele>38.6</ele><time>2022-03-27T07:38:58.000Z</time></trkpt><trkpt lon="5.60278" lat="51.15541"><ele>38.6</ele><time>2022-03-27T07:38:59.000Z</time></trkpt><trkpt lon="5.602748" lat="51.155367"><ele>38.6</ele><time>2022-03-27T07:39:00.000Z</time></trkpt><trkpt lon="5.602707" lat="51.155325"><ele>38.6</ele><time>2022-03-27T07:39:01.000Z</time></trkpt><trkpt lon="5.602646" lat="51.155294"><ele>38.4</ele><time>2022-03-27T07:39:02.000Z</time></trkpt><trkpt lon="5.602565" lat="51.155278"><ele>38.4</ele><time>2022-03-27T07:39:03.000Z</time></trkpt><trkpt lon="5.602475" lat="51.155277"><ele>38.4</ele><time>2022-03-27T07:39:04.000Z</time></trkpt><trkpt lon="5.602382" lat="51.155284"><ele>38.6</ele><time>2022-03-27T07:39:05.000Z</time></trkpt><trkpt lon="5.602305" lat="51.155292"><ele>38.6</ele><time>2022-03-27T07:39:06.000Z</time></trkpt><trkpt lon="5.602246" lat="51.1553"><ele>38.6</ele><time>2022-03-27T07:39:07.000Z</time></trkpt><trkpt lon="5.602202" lat="51.155307"><ele>38.6</ele><time>2022-03-27T07:39:08.000Z</time></trkpt><trkpt lon="5.602145" lat="51.155315"><ele>38.6</ele><time>2022-03-27T07:39:09.000Z</time></trkpt><trkpt lon="5.602085" lat="51.155312"><ele>38.6</ele><time>2022-03-27T07:39:10.000Z</time></trkpt><trkpt lon="5.602022" lat="51.155294"><ele>38.6</ele><time>2022-03-27T07:39:11.000Z</time></trkpt><trkpt lon="5.601958" lat="51.155271"><ele>38.6</ele><time>2022-03-27T07:39:12.000Z</time></trkpt><trkpt lon="5.601883" lat="51.155248"><ele>38.6</ele><time>2022-03-27T07:39:13.000Z</time></trkpt><trkpt lon="5.601803" lat="51.155226"><ele>38.6</ele><time>2022-03-27T07:39:14.000Z</time></trkpt><trkpt lon="5.601707" lat="51.155206"><ele>38.8</ele><time>2022-03-27T07:39:15.000Z</time></trkpt><trkpt lon="5.60161" lat="51.155194"><ele>38.8</ele><time>2022-03-27T07:39:16.000Z</time></trkpt><trkpt lon="5.60151" lat="51.155176"><ele>38.8</ele><time>2022-03-27T07:39:17.000Z</time></trkpt><trkpt lon="5.601409" lat="51.155156"><ele>38.8</ele><time>2022-03-27T07:39:18.000Z</time></trkpt><trkpt lon="5.601307" lat="51.155141"><ele>38.8</ele><time>2022-03-27T07:39:19.000Z</time></trkpt><trkpt lon="5.601207" lat="51.155122"><ele>39</ele><time>2022-03-27T07:39:20.000Z</time></trkpt><trkpt lon="5.601105" lat="51.155103"><ele>39</ele><time>2022-03-27T07:39:21.000Z</time></trkpt><trkpt lon="5.601002" lat="51.155084"><ele>39</ele><time>2022-03-27T07:39:22.000Z</time></trkpt><trkpt lon="5.600896" lat="51.155061"><ele>39</ele><time>2022-03-27T07:39:23.000Z</time></trkpt><trkpt lon="5.600789" lat="51.155042"><ele>39</ele><time>2022-03-27T07:39:24.000Z</time></trkpt><trkpt lon="5.600682" lat="51.155023"><ele>39</ele><time>2022-03-27T07:39:25.000Z</time></trkpt><trkpt lon="5.60058" lat="51.154997"><ele>39</ele><time>2022-03-27T07:39:26.000Z</time></trkpt><trkpt lon="5.600477" lat="51.154973"><ele>39</ele><time>2022-03-27T07:39:27.000Z</time></trkpt><trkpt lon="5.600373" lat="51.154954"><ele>39</ele><time>2022-03-27T07:39:28.000Z</time></trkpt><trkpt lon="5.600272" lat="51.154932"><ele>39</ele><time>2022-03-27T07:39:29.000Z</time></trkpt><trkpt lon="5.600167" lat="51.154908"><ele>39</ele><time>2022-03-27T07:39:30.000Z</time></trkpt><trkpt lon="5.600064" lat="51.154882"><ele>39.2</ele><time>2022-03-27T07:39:31.000Z</time></trkpt><trkpt lon="5.599967" lat="51.154859"><ele>39.2</ele><time>2022-03-27T07:39:32.000Z</time></trkpt><trkpt lon="5.599866" lat="51.154836"><ele>39.2</ele><time>2022-03-27T07:39:33.000Z</time></trkpt><trkpt lon="5.599779" lat="51.154816"><ele>39.2</ele><time>2022-03-27T07:39:34.000Z</time></trkpt><trkpt lon="5.599672" lat="51.154791"><ele>39.2</ele><time>2022-03-27T07:39:35.000Z</time></trkpt><trkpt lon="5.59956" lat="51.154763"><ele>39.2</ele><time>2022-03-27T07:39:36.000Z</time></trkpt><trkpt lon="5.599457" lat="51.154737"><ele>39.2</ele><time>2022-03-27T07:39:37.000Z</time></trkpt><trkpt lon="5.599358" lat="51.154714"><ele>39.2</ele><time>2022-03-27T07:39:38.000Z</time></trkpt><trkpt lon="5.599254" lat="51.154687"><ele>39.2</ele><time>2022-03-27T07:39:39.000Z</time></trkpt><trkpt lon="5.599152" lat="51.154664"><ele>39.2</ele><time>2022-03-27T07:39:40.000Z</time></trkpt><trkpt lon="5.599052" lat="51.154642"><ele>39.2</ele><time>2022-03-27T07:39:41.000Z</time></trkpt><trkpt lon="5.59895" lat="51.154616"><ele>39.4</ele><time>2022-03-27T07:39:42.000Z</time></trkpt><trkpt lon="5.598842" lat="51.154595"><ele>39.4</ele><time>2022-03-27T07:39:43.000Z</time></trkpt><trkpt lon="5.598741" lat="51.154573"><ele>39.4</ele><time>2022-03-27T07:39:44.000Z</time></trkpt><trkpt lon="5.598638" lat="51.154553"><ele>39.4</ele><time>2022-03-27T07:39:45.000Z</time></trkpt><trkpt lon="5.598538" lat="51.154534"><ele>39.4</ele><time>2022-03-27T07:39:46.000Z</time></trkpt><trkpt lon="5.598437" lat="51.154512"><ele>39.4</ele><time>2022-03-27T07:39:47.000Z</time></trkpt><trkpt lon="5.59833" lat="51.154496"><ele>39.4</ele><time>2022-03-27T07:39:48.000Z</time></trkpt><trkpt lon="5.598225" lat="51.154481"><ele>39.4</ele><time>2022-03-27T07:39:49.000Z</time></trkpt><trkpt lon="5.598114" lat="51.154466"><ele>39.4</ele><time>2022-03-27T07:39:50.000Z</time></trkpt><trkpt lon="5.598004" lat="51.15445"><ele>39.4</ele><time>2022-03-27T07:39:51.000Z</time></trkpt><trkpt lon="5.597895" lat="51.154435"><ele>39.6</ele><time>2022-03-27T07:39:52.000Z</time></trkpt><trkpt lon="5.597787" lat="51.154416"><ele>39.6</ele><time>2022-03-27T07:39:53.000Z</time></trkpt><trkpt lon="5.59768" lat="51.154401"><ele>39.6</ele><time>2022-03-27T07:39:54.000Z</time></trkpt><trkpt lon="5.597569" lat="51.154389"><ele>39.4</ele><time>2022-03-27T07:39:55.000Z</time></trkpt><trkpt lon="5.59746" lat="51.154374"><ele>39.6</ele><time>2022-03-27T07:39:56.000Z</time></trkpt><trkpt lon="5.597355" lat="51.154355"><ele>39.6</ele><time>2022-03-27T07:39:57.000Z</time></trkpt><trkpt lon="5.597247" lat="51.15434"><ele>39.6</ele><time>2022-03-27T07:39:58.000Z</time></trkpt><trkpt lon="5.597143" lat="51.154325"><ele>39.6</ele><time>2022-03-27T07:39:59.000Z</time></trkpt><trkpt lon="5.597036" lat="51.154309"><ele>39.6</ele><time>2022-03-27T07:40:00.000Z</time></trkpt><trkpt lon="5.59693" lat="51.154294"><ele>39.6</ele><time>2022-03-27T07:40:01.000Z</time></trkpt><trkpt lon="5.596829" lat="51.154279"><ele>39.8</ele><time>2022-03-27T07:40:02.000Z</time></trkpt><trkpt lon="5.596729" lat="51.154263"><ele>39.8</ele><time>2022-03-27T07:40:03.000Z</time></trkpt><trkpt lon="5.596628" lat="51.154248"><ele>39.8</ele><time>2022-03-27T07:40:04.000Z</time></trkpt><trkpt lon="5.596527" lat="51.154233"><ele>39.8</ele><time>2022-03-27T07:40:05.000Z</time></trkpt><trkpt lon="5.596427" lat="51.154218"><ele>39.8</ele><time>2022-03-27T07:40:06.000Z</time></trkpt><trkpt lon="5.596327" lat="51.154202"><ele>39.8</ele><time>2022-03-27T07:40:07.000Z</time></trkpt><trkpt lon="5.596232" lat="51.154191"><ele>39.8</ele><time>2022-03-27T07:40:08.000Z</time></trkpt><trkpt lon="5.596134" lat="51.154176"><ele>39.8</ele><time>2022-03-27T07:40:09.000Z</time></trkpt><trkpt lon="5.596038" lat="51.15416"><ele>40</ele><time>2022-03-27T07:40:10.000Z</time></trkpt><trkpt lon="5.595948" lat="51.154142"><ele>40</ele><time>2022-03-27T07:40:11.000Z</time></trkpt><trkpt lon="5.595865" lat="51.154123"><ele>40</ele><time>2022-03-27T07:40:12.000Z</time></trkpt><trkpt lon="5.595787" lat="51.154096"><ele>40</ele><time>2022-03-27T07:40:13.000Z</time></trkpt><trkpt lon="5.595713" lat="51.154073"><ele>40</ele><time>2022-03-27T07:40:14.000Z</time></trkpt><trkpt lon="5.595644" lat="51.154054"><ele>40</ele><time>2022-03-27T07:40:15.000Z</time></trkpt><trkpt lon="5.595581" lat="51.154046"><ele>40</ele><time>2022-03-27T07:40:16.000Z</time></trkpt><trkpt lon="5.595525" lat="51.154042"><ele>40</ele><time>2022-03-27T07:40:17.000Z</time></trkpt><trkpt lon="5.595468" lat="51.154038"><ele>40</ele><time>2022-03-27T07:40:18.000Z</time></trkpt><trkpt lon="5.595406" lat="51.15403"><ele>40</ele><time>2022-03-27T07:40:19.000Z</time></trkpt><trkpt lon="5.595332" lat="51.154023"><ele>40</ele><time>2022-03-27T07:40:20.000Z</time></trkpt><trkpt lon="5.595248" lat="51.154015"><ele>40</ele><time>2022-03-27T07:40:21.000Z</time></trkpt><trkpt lon="5.59515" lat="51.154004"><ele>40</ele><time>2022-03-27T07:40:22.000Z</time></trkpt><trkpt lon="5.595046" lat="51.153996"><ele>40</ele><time>2022-03-27T07:40:23.000Z</time></trkpt><trkpt lon="5.594939" lat="51.153985"><ele>40</ele><time>2022-03-27T07:40:24.000Z</time></trkpt><trkpt lon="5.594827" lat="51.153977"><ele>40.2</ele><time>2022-03-27T07:40:25.000Z</time></trkpt><trkpt lon="5.594715" lat="51.153969"><ele>40.2</ele><time>2022-03-27T07:40:26.000Z</time></trkpt><trkpt lon="5.594607" lat="51.153965"><ele>40.2</ele><time>2022-03-27T07:40:27.000Z</time></trkpt><trkpt lon="5.594495" lat="51.153958"><ele>40.2</ele><time>2022-03-27T07:40:28.000Z</time></trkpt><trkpt lon="5.594388" lat="51.153954"><ele>40.2</ele><time>2022-03-27T07:40:29.000Z</time></trkpt><trkpt lon="5.594284" lat="51.153954"><ele>40.2</ele><time>2022-03-27T07:40:30.000Z</time></trkpt><trkpt lon="5.594173" lat="51.153954"><ele>40.2</ele><time>2022-03-27T07:40:31.000Z</time></trkpt><trkpt lon="5.594066" lat="51.153954"><ele>40.4</ele><time>2022-03-27T07:40:32.000Z</time></trkpt><trkpt lon="5.593959" lat="51.153954"><ele>40.4</ele><time>2022-03-27T07:40:33.000Z</time></trkpt><trkpt lon="5.593852" lat="51.153954"><ele>40.4</ele><time>2022-03-27T07:40:34.000Z</time></trkpt><trkpt lon="5.593744" lat="51.153954"><ele>40.4</ele><time>2022-03-27T07:40:35.000Z</time></trkpt><trkpt lon="5.593641" lat="51.153954"><ele>40.4</ele><time>2022-03-27T07:40:36.000Z</time></trkpt><trkpt lon="5.593537" lat="51.153954"><ele>40.4</ele><time>2022-03-27T07:40:37.000Z</time></trkpt><trkpt lon="5.593431" lat="51.153954"><ele>40.2</ele><time>2022-03-27T07:40:38.000Z</time></trkpt><trkpt lon="5.593322" lat="51.153957"><ele>40.2</ele><time>2022-03-27T07:40:39.000Z</time></trkpt><trkpt lon="5.593215" lat="51.153961"><ele>40.2</ele><time>2022-03-27T07:40:40.000Z</time></trkpt><trkpt lon="5.593106" lat="51.153965"><ele>40.2</ele><time>2022-03-27T07:40:41.000Z</time></trkpt><trkpt lon="5.592992" lat="51.153969"><ele>40.2</ele><time>2022-03-27T07:40:42.000Z</time></trkpt><trkpt lon="5.592882" lat="51.153976"><ele>40.4</ele><time>2022-03-27T07:40:43.000Z</time></trkpt><trkpt lon="5.592776" lat="51.153987"><ele>40.2</ele><time>2022-03-27T07:40:44.000Z</time></trkpt><trkpt lon="5.592665" lat="51.154002"><ele>40.2</ele><time>2022-03-27T07:40:45.000Z</time></trkpt><trkpt lon="5.592559" lat="51.154021"><ele>40.2</ele><time>2022-03-27T07:40:46.000Z</time></trkpt><trkpt lon="5.592454" lat="51.154044"><ele>40.4</ele><time>2022-03-27T07:40:47.000Z</time></trkpt><trkpt lon="5.592348" lat="51.154063"><ele>40.4</ele><time>2022-03-27T07:40:48.000Z</time></trkpt><trkpt lon="5.592245" lat="51.154086"><ele>40.4</ele><time>2022-03-27T07:40:49.000Z</time></trkpt><trkpt lon="5.592145" lat="51.154108"><ele>40.4</ele><time>2022-03-27T07:40:50.000Z</time></trkpt><trkpt lon="5.592042" lat="51.154132"><ele>40.4</ele><time>2022-03-27T07:40:51.000Z</time></trkpt><trkpt lon="5.591943" lat="51.154154"><ele>40.4</ele><time>2022-03-27T07:40:52.000Z</time></trkpt><trkpt lon="5.591838" lat="51.154174"><ele>40.6</ele><time>2022-03-27T07:40:53.000Z</time></trkpt><trkpt lon="5.591737" lat="51.154196"><ele>40.6</ele><time>2022-03-27T07:40:54.000Z</time></trkpt><trkpt lon="5.591638" lat="51.15422"><ele>40.8</ele><time>2022-03-27T07:40:55.000Z</time></trkpt><trkpt lon="5.591539" lat="51.154238"><ele>40.8</ele><time>2022-03-27T07:40:56.000Z</time></trkpt><trkpt lon="5.591435" lat="51.154254"><ele>40.8</ele><time>2022-03-27T07:40:57.000Z</time></trkpt><trkpt lon="5.591325" lat="51.154262"><ele>41</ele><time>2022-03-27T07:40:58.000Z</time></trkpt><trkpt lon="5.591218" lat="51.154263"><ele>41</ele><time>2022-03-27T07:40:59.000Z</time></trkpt><trkpt lon="5.591115" lat="51.154248"><ele>41</ele><time>2022-03-27T07:41:00.000Z</time></trkpt><trkpt lon="5.591013" lat="51.154229"><ele>41.2</ele><time>2022-03-27T07:41:01.000Z</time></trkpt><trkpt lon="5.590915" lat="51.154206"><ele>41.2</ele><time>2022-03-27T07:41:02.000Z</time></trkpt><trkpt lon="5.590815" lat="51.154176"><ele>41.2</ele><time>2022-03-27T07:41:03.000Z</time></trkpt><trkpt lon="5.590718" lat="51.154146"><ele>41.2</ele><time>2022-03-27T07:41:04.000Z</time></trkpt><trkpt lon="5.590621" lat="51.154112"><ele>41.4</ele><time>2022-03-27T07:41:05.000Z</time></trkpt><trkpt lon="5.590523" lat="51.154081"><ele>41.4</ele><time>2022-03-27T07:41:06.000Z</time></trkpt><trkpt lon="5.590424" lat="51.154047"><ele>41.4</ele><time>2022-03-27T07:41:07.000Z</time></trkpt><trkpt lon="5.590333" lat="51.154022"><ele>41.2</ele><time>2022-03-27T07:41:08.000Z</time></trkpt><trkpt lon="5.590221" lat="51.15399"><ele>41.2</ele><time>2022-03-27T07:41:09.000Z</time></trkpt><trkpt lon="5.590111" lat="51.153966"><ele>41.2</ele><time>2022-03-27T07:41:10.000Z</time></trkpt><trkpt lon="5.590002" lat="51.153951"><ele>41.2</ele><time>2022-03-27T07:41:11.000Z</time></trkpt><trkpt lon="5.58989" lat="51.153935"><ele>41</ele><time>2022-03-27T07:41:12.000Z</time></trkpt><trkpt lon="5.589775" lat="51.153927"><ele>41</ele><time>2022-03-27T07:41:13.000Z</time></trkpt><trkpt lon="5.589662" lat="51.153923"><ele>41</ele><time>2022-03-27T07:41:14.000Z</time></trkpt><trkpt lon="5.589546" lat="51.153927"><ele>40.8</ele><time>2022-03-27T07:41:15.000Z</time></trkpt><trkpt lon="5.589429" lat="51.153938"><ele>40.8</ele><time>2022-03-27T07:41:16.000Z</time></trkpt><trkpt lon="5.589317" lat="51.153953"><ele>40.8</ele><time>2022-03-27T07:41:17.000Z</time></trkpt><trkpt lon="5.589208" lat="51.153975"><ele>40.8</ele><time>2022-03-27T07:41:18.000Z</time></trkpt><trkpt lon="5.589098" lat="51.153998"><ele>40.6</ele><time>2022-03-27T07:41:19.000Z</time></trkpt><trkpt lon="5.588993" lat="51.154024"><ele>40.6</ele><time>2022-03-27T07:41:20.000Z</time></trkpt><trkpt lon="5.588885" lat="51.154051"><ele>40.6</ele><time>2022-03-27T07:41:21.000Z</time></trkpt><trkpt lon="5.588778" lat="51.154078"><ele>40.6</ele><time>2022-03-27T07:41:22.000Z</time></trkpt><trkpt lon="5.588672" lat="51.154104"><ele>40.4</ele><time>2022-03-27T07:41:23.000Z</time></trkpt><trkpt lon="5.588567" lat="51.154132"><ele>40.4</ele><time>2022-03-27T07:41:24.000Z</time></trkpt><trkpt lon="5.588465" lat="51.154155"><ele>40.4</ele><time>2022-03-27T07:41:25.000Z</time></trkpt><trkpt lon="5.58837" lat="51.154181"><ele>40.4</ele><time>2022-03-27T07:41:26.000Z</time></trkpt><trkpt lon="5.58828" lat="51.154212"><ele>40.4</ele><time>2022-03-27T07:41:27.000Z</time></trkpt><trkpt lon="5.588189" lat="51.154238"><ele>40.4</ele><time>2022-03-27T07:41:28.000Z</time></trkpt><trkpt lon="5.588091" lat="51.154258"><ele>40.4</ele><time>2022-03-27T07:41:29.000Z</time></trkpt><trkpt lon="5.587997" lat="51.15428"><ele>40.4</ele><time>2022-03-27T07:41:30.000Z</time></trkpt><trkpt lon="5.587899" lat="51.154307"><ele>40.4</ele><time>2022-03-27T07:41:31.000Z</time></trkpt><trkpt lon="5.587805" lat="51.154341"><ele>40.4</ele><time>2022-03-27T07:41:32.000Z</time></trkpt><trkpt lon="5.587716" lat="51.154382"><ele>40.6</ele><time>2022-03-27T07:41:33.000Z</time></trkpt><trkpt lon="5.587633" lat="51.15443"><ele>40.6</ele><time>2022-03-27T07:41:34.000Z</time></trkpt><trkpt lon="5.587548" lat="51.154485"><ele>40.4</ele><time>2022-03-27T07:41:35.000Z</time></trkpt><trkpt lon="5.587464" lat="51.154542"><ele>40.4</ele><time>2022-03-27T07:41:36.000Z</time></trkpt><trkpt lon="5.58738" lat="51.154592"><ele>40.4</ele><time>2022-03-27T07:41:37.000Z</time></trkpt><trkpt lon="5.587295" lat="51.154635"><ele>40.2</ele><time>2022-03-27T07:41:38.000Z</time></trkpt><trkpt lon="5.587206" lat="51.154676"><ele>40.2</ele><time>2022-03-27T07:41:39.000Z</time></trkpt><trkpt lon="5.587113" lat="51.154711"><ele>40.2</ele><time>2022-03-27T07:41:40.000Z</time></trkpt><trkpt lon="5.587018" lat="51.154745"><ele>40.2</ele><time>2022-03-27T07:41:41.000Z</time></trkpt><trkpt lon="5.586924" lat="51.154783"><ele>40</ele><time>2022-03-27T07:41:42.000Z</time></trkpt><trkpt lon="5.586828" lat="51.154814"><ele>39.8</ele><time>2022-03-27T07:41:43.000Z</time></trkpt><trkpt lon="5.586728" lat="51.154845"><ele>40</ele><time>2022-03-27T07:41:44.000Z</time></trkpt><trkpt lon="5.586625" lat="51.154872"><ele>40</ele><time>2022-03-27T07:41:45.000Z</time></trkpt><trkpt lon="5.586519" lat="51.154891"><ele>40</ele><time>2022-03-27T07:41:46.000Z</time></trkpt><trkpt lon="5.586411" lat="51.154903"><ele>40</ele><time>2022-03-27T07:41:47.000Z</time></trkpt><trkpt lon="5.586307" lat="51.15491"><ele>40</ele><time>2022-03-27T07:41:48.000Z</time></trkpt><trkpt lon="5.586196" lat="51.154907"><ele>40</ele><time>2022-03-27T07:41:49.000Z</time></trkpt><trkpt lon="5.586088" lat="51.1549"><ele>40.2</ele><time>2022-03-27T07:41:50.000Z</time></trkpt><trkpt lon="5.585983" lat="51.154882"><ele>40.2</ele><time>2022-03-27T07:41:51.000Z</time></trkpt><trkpt lon="5.58588" lat="51.154863"><ele>40.2</ele><time>2022-03-27T07:41:52.000Z</time></trkpt><trkpt lon="5.585776" lat="51.154836"><ele>40.2</ele><time>2022-03-27T07:41:53.000Z</time></trkpt><trkpt lon="5.585677" lat="51.154809"><ele>40.4</ele><time>2022-03-27T07:41:54.000Z</time></trkpt><trkpt lon="5.585581" lat="51.154786"><ele>40.4</ele><time>2022-03-27T07:41:55.000Z</time></trkpt><trkpt lon="5.585491" lat="51.154771"><ele>40.4</ele><time>2022-03-27T07:41:56.000Z</time></trkpt><trkpt lon="5.585397" lat="51.154763"><ele>40.4</ele><time>2022-03-27T07:41:57.000Z</time></trkpt><trkpt lon="5.58531" lat="51.154769"><ele>40.6</ele><time>2022-03-27T07:41:58.000Z</time></trkpt><trkpt lon="5.585234" lat="51.154795"><ele>40.6</ele><time>2022-03-27T07:41:59.000Z</time></trkpt><trkpt lon="5.585165" lat="51.154837"><ele>40.4</ele><time>2022-03-27T07:42:00.000Z</time></trkpt><trkpt lon="5.585104" lat="51.154892"><ele>40.4</ele><time>2022-03-27T07:42:01.000Z</time></trkpt><trkpt lon="5.585046" lat="51.154952"><ele>40.4</ele><time>2022-03-27T07:42:02.000Z</time></trkpt><trkpt lon="5.584991" lat="51.155015"><ele>40.2</ele><time>2022-03-27T07:42:03.000Z</time></trkpt><trkpt lon="5.584935" lat="51.155072"><ele>40</ele><time>2022-03-27T07:42:04.000Z</time></trkpt><trkpt lon="5.584876" lat="51.155133"><ele>40</ele><time>2022-03-27T07:42:05.000Z</time></trkpt><trkpt lon="5.584817" lat="51.155191"><ele>40</ele><time>2022-03-27T07:42:06.000Z</time></trkpt><trkpt lon="5.584758" lat="51.155252"><ele>39.8</ele><time>2022-03-27T07:42:07.000Z</time></trkpt><trkpt lon="5.584699" lat="51.155308"><ele>39.8</ele><time>2022-03-27T07:42:08.000Z</time></trkpt><trkpt lon="5.584641" lat="51.155369"><ele>39.8</ele><time>2022-03-27T07:42:09.000Z</time></trkpt><trkpt lon="5.584584" lat="51.155427"><ele>39.8</ele><time>2022-03-27T07:42:10.000Z</time></trkpt><trkpt lon="5.58453" lat="51.155483"><ele>39.8</ele><time>2022-03-27T07:42:11.000Z</time></trkpt><trkpt lon="5.584477" lat="51.155537"><ele>39.8</ele><time>2022-03-27T07:42:12.000Z</time></trkpt><trkpt lon="5.584423" lat="51.155595"><ele>39.8</ele><time>2022-03-27T07:42:13.000Z</time></trkpt><trkpt lon="5.584373" lat="51.155644"><ele>40</ele><time>2022-03-27T07:42:14.000Z</time></trkpt><trkpt lon="5.584325" lat="51.155693"><ele>40</ele><time>2022-03-27T07:42:15.000Z</time></trkpt><trkpt lon="5.584274" lat="51.155729"><ele>40.2</ele><time>2022-03-27T07:42:16.000Z</time></trkpt><trkpt lon="5.584215" lat="51.155746"><ele>40.4</ele><time>2022-03-27T07:42:17.000Z</time></trkpt><trkpt lon="5.584153" lat="51.155743"><ele>40.6</ele><time>2022-03-27T07:42:18.000Z</time></trkpt><trkpt lon="5.584094" lat="51.155721"><ele>40.8</ele><time>2022-03-27T07:42:19.000Z</time></trkpt><trkpt lon="5.584035" lat="51.155687"><ele>41</ele><time>2022-03-27T07:42:20.000Z</time></trkpt><trkpt lon="5.583964" lat="51.15565"><ele>41</ele><time>2022-03-27T07:42:21.000Z</time></trkpt><trkpt lon="5.583884" lat="51.155612"><ele>41.2</ele><time>2022-03-27T07:42:22.000Z</time></trkpt><trkpt lon="5.583802" lat="51.155573"><ele>41.2</ele><time>2022-03-27T07:42:23.000Z</time></trkpt><trkpt lon="5.583724" lat="51.155535"><ele>41.2</ele><time>2022-03-27T07:42:24.000Z</time></trkpt><trkpt lon="5.583642" lat="51.155497"><ele>41.2</ele><time>2022-03-27T07:42:25.000Z</time></trkpt><trkpt lon="5.583558" lat="51.155455"><ele>41.4</ele><time>2022-03-27T07:42:26.000Z</time></trkpt><trkpt lon="5.583471" lat="51.155413"><ele>41.4</ele><time>2022-03-27T07:42:27.000Z</time></trkpt><trkpt lon="5.583382" lat="51.155371"><ele>41.4</ele><time>2022-03-27T07:42:28.000Z</time></trkpt><trkpt lon="5.583294" lat="51.15533"><ele>41.4</ele><time>2022-03-27T07:42:29.000Z</time></trkpt><trkpt lon="5.583198" lat="51.155287"><ele>41.4</ele><time>2022-03-27T07:42:30.000Z</time></trkpt><trkpt lon="5.583107" lat="51.155243"><ele>41.4</ele><time>2022-03-27T07:42:31.000Z</time></trkpt><trkpt lon="5.583012" lat="51.155197"><ele>41.6</ele><time>2022-03-27T07:42:32.000Z</time></trkpt><trkpt lon="5.582916" lat="51.155153"><ele>41.6</ele><time>2022-03-27T07:42:33.000Z</time></trkpt><trkpt lon="5.582822" lat="51.155108"><ele>41.6</ele><time>2022-03-27T07:42:34.000Z</time></trkpt><trkpt lon="5.58273" lat="51.155066"><ele>41.6</ele><time>2022-03-27T07:42:35.000Z</time></trkpt><trkpt lon="5.582638" lat="51.155024"><ele>41.8</ele><time>2022-03-27T07:42:36.000Z</time></trkpt><trkpt lon="5.582547" lat="51.154978"><ele>41.8</ele><time>2022-03-27T07:42:37.000Z</time></trkpt><trkpt lon="5.582459" lat="51.154937"><ele>41.8</ele><time>2022-03-27T07:42:38.000Z</time></trkpt><trkpt lon="5.582372" lat="51.154895"><ele>41.8</ele><time>2022-03-27T07:42:39.000Z</time></trkpt><trkpt lon="5.582285" lat="51.154856"><ele>41.8</ele><time>2022-03-27T07:42:40.000Z</time></trkpt><trkpt lon="5.582196" lat="51.154814"><ele>41.8</ele><time>2022-03-27T07:42:41.000Z</time></trkpt><trkpt lon="5.582107" lat="51.154772"><ele>42</ele><time>2022-03-27T07:42:42.000Z</time></trkpt><trkpt lon="5.582016" lat="51.15473"><ele>42</ele><time>2022-03-27T07:42:43.000Z</time></trkpt><trkpt lon="5.581929" lat="51.154689"><ele>42</ele><time>2022-03-27T07:42:44.000Z</time></trkpt><trkpt lon="5.581846" lat="51.154647"><ele>42.2</ele><time>2022-03-27T07:42:45.000Z</time></trkpt><trkpt lon="5.581758" lat="51.154608"><ele>42.2</ele><time>2022-03-27T07:42:46.000Z</time></trkpt><trkpt lon="5.581671" lat="51.15457"><ele>42.2</ele><time>2022-03-27T07:42:47.000Z</time></trkpt><trkpt lon="5.581587" lat="51.154532"><ele>42.4</ele><time>2022-03-27T07:42:48.000Z</time></trkpt><trkpt lon="5.581503" lat="51.15449"><ele>42.4</ele><time>2022-03-27T07:42:49.000Z</time></trkpt><trkpt lon="5.581419" lat="51.154448"><ele>42.4</ele><time>2022-03-27T07:42:50.000Z</time></trkpt><trkpt lon="5.581334" lat="51.154409"><ele>42.6</ele><time>2022-03-27T07:42:51.000Z</time></trkpt><trkpt lon="5.581252" lat="51.154364"><ele>42.6</ele><time>2022-03-27T07:42:52.000Z</time></trkpt><trkpt lon="5.581168" lat="51.154322"><ele>42.8</ele><time>2022-03-27T07:42:53.000Z</time></trkpt><trkpt lon="5.581085" lat="51.154281"><ele>42.8</ele><time>2022-03-27T07:42:54.000Z</time></trkpt><trkpt lon="5.581002" lat="51.154239"><ele>42.8</ele><time>2022-03-27T07:42:55.000Z</time></trkpt><trkpt lon="5.580913" lat="51.154196"><ele>43</ele><time>2022-03-27T07:42:56.000Z</time></trkpt><trkpt lon="5.580826" lat="51.15415"><ele>43</ele><time>2022-03-27T07:42:57.000Z</time></trkpt><trkpt lon="5.580738" lat="51.154108"><ele>43</ele><time>2022-03-27T07:42:58.000Z</time></trkpt><trkpt lon="5.580652" lat="51.154063"><ele>43</ele><time>2022-03-27T07:42:59.000Z</time></trkpt><trkpt lon="5.580563" lat="51.154021"><ele>43</ele><time>2022-03-27T07:43:00.000Z</time></trkpt><trkpt lon="5.580475" lat="51.153979"><ele>43</ele><time>2022-03-27T07:43:01.000Z</time></trkpt><trkpt lon="5.580388" lat="51.153937"><ele>43</ele><time>2022-03-27T07:43:02.000Z</time></trkpt><trkpt lon="5.580296" lat="51.153891"><ele>43</ele><time>2022-03-27T07:43:03.000Z</time></trkpt><trkpt lon="5.580209" lat="51.153849"><ele>43</ele><time>2022-03-27T07:43:04.000Z</time></trkpt><trkpt lon="5.580118" lat="51.153807"><ele>43</ele><time>2022-03-27T07:43:05.000Z</time></trkpt><trkpt lon="5.580026" lat="51.153761"><ele>43</ele><time>2022-03-27T07:43:06.000Z</time></trkpt><trkpt lon="5.579932" lat="51.153719"><ele>43</ele><time>2022-03-27T07:43:07.000Z</time></trkpt><trkpt lon="5.579848" lat="51.153684"><ele>43</ele><time>2022-03-27T07:43:08.000Z</time></trkpt><trkpt lon="5.579748" lat="51.15364"><ele>43</ele><time>2022-03-27T07:43:09.000Z</time></trkpt><trkpt lon="5.579656" lat="51.153597"><ele>42.8</ele><time>2022-03-27T07:43:10.000Z</time></trkpt><trkpt lon="5.579568" lat="51.153556"><ele>42.8</ele><time>2022-03-27T07:43:11.000Z</time></trkpt><trkpt lon="5.579486" lat="51.15352"><ele>42.8</ele><time>2022-03-27T07:43:12.000Z</time></trkpt><trkpt lon="5.579395" lat="51.153475"><ele>42.8</ele><time>2022-03-27T07:43:13.000Z</time></trkpt><trkpt lon="5.579314" lat="51.15344"><ele>42.8</ele><time>2022-03-27T07:43:14.000Z</time></trkpt><trkpt lon="5.579233" lat="51.153402"><ele>42.8</ele><time>2022-03-27T07:43:15.000Z</time></trkpt><trkpt lon="5.579155" lat="51.153368"><ele>42.8</ele><time>2022-03-27T07:43:16.000Z</time></trkpt><trkpt lon="5.579082" lat="51.153334"><ele>42.8</ele><time>2022-03-27T07:43:17.000Z</time></trkpt><trkpt lon="5.579011" lat="51.153296"><ele>42.8</ele><time>2022-03-27T07:43:18.000Z</time></trkpt><trkpt lon="5.578946" lat="51.153265"><ele>42.8</ele><time>2022-03-27T07:43:19.000Z</time></trkpt><trkpt lon="5.578873" lat="51.153241"><ele>42.8</ele><time>2022-03-27T07:43:20.000Z</time></trkpt><trkpt lon="5.578798" lat="51.153233"><ele>42.6</ele><time>2022-03-27T07:43:21.000Z</time></trkpt><trkpt lon="5.578724" lat="51.153246"><ele>42.6</ele><time>2022-03-27T07:43:22.000Z</time></trkpt><trkpt lon="5.578655" lat="51.15328"><ele>42.6</ele><time>2022-03-27T07:43:23.000Z</time></trkpt><trkpt lon="5.578597" lat="51.153332"><ele>42.4</ele><time>2022-03-27T07:43:24.000Z</time></trkpt><trkpt lon="5.578546" lat="51.153393"><ele>42.2</ele><time>2022-03-27T07:43:25.000Z</time></trkpt><trkpt lon="5.578497" lat="51.153458"><ele>42</ele><time>2022-03-27T07:43:26.000Z</time></trkpt><trkpt lon="5.578449" lat="51.15352"><ele>42</ele><time>2022-03-27T07:43:27.000Z</time></trkpt><trkpt lon="5.578398" lat="51.153576"><ele>42</ele><time>2022-03-27T07:43:28.000Z</time></trkpt><trkpt lon="5.578347" lat="51.153634"><ele>42.2</ele><time>2022-03-27T07:43:29.000Z</time></trkpt><trkpt lon="5.578298" lat="51.153688"><ele>42.2</ele><time>2022-03-27T07:43:30.000Z</time></trkpt><trkpt lon="5.578249" lat="51.153739"><ele>42.2</ele><time>2022-03-27T07:43:31.000Z</time></trkpt><trkpt lon="5.57819" lat="51.15379"><ele>42.2</ele><time>2022-03-27T07:43:32.000Z</time></trkpt><trkpt lon="5.578123" lat="51.15383"><ele>42</ele><time>2022-03-27T07:43:33.000Z</time></trkpt><trkpt lon="5.578048" lat="51.153857"><ele>42</ele><time>2022-03-27T07:43:34.000Z</time></trkpt><trkpt lon="5.577964" lat="51.153865"><ele>41.8</ele><time>2022-03-27T07:43:35.000Z</time></trkpt><trkpt lon="5.577882" lat="51.153851"><ele>41.6</ele><time>2022-03-27T07:43:36.000Z</time></trkpt><trkpt lon="5.577803" lat="51.153825"><ele>41.6</ele><time>2022-03-27T07:43:37.000Z</time></trkpt><trkpt lon="5.577721" lat="51.153791"><ele>41.4</ele><time>2022-03-27T07:43:38.000Z</time></trkpt><trkpt lon="5.577633" lat="51.153746"><ele>41.4</ele><time>2022-03-27T07:43:39.000Z</time></trkpt><trkpt lon="5.577543" lat="51.153693"><ele>41.4</ele><time>2022-03-27T07:43:40.000Z</time></trkpt><trkpt lon="5.577455" lat="51.153644"><ele>41.2</ele><time>2022-03-27T07:43:41.000Z</time></trkpt><trkpt lon="5.577366" lat="51.153594"><ele>41.4</ele><time>2022-03-27T07:43:42.000Z</time></trkpt><trkpt lon="5.577276" lat="51.153544"><ele>41.4</ele><time>2022-03-27T07:43:43.000Z</time></trkpt><trkpt lon="5.57719" lat="51.153492"><ele>41.4</ele><time>2022-03-27T07:43:44.000Z</time></trkpt><trkpt lon="5.577101" lat="51.153445"><ele>41.2</ele><time>2022-03-27T07:43:45.000Z</time></trkpt><trkpt lon="5.577007" lat="51.15341"><ele>41.4</ele><time>2022-03-27T07:43:46.000Z</time></trkpt><trkpt lon="5.576903" lat="51.153387"><ele>41.2</ele><time>2022-03-27T07:43:47.000Z</time></trkpt><trkpt lon="5.576793" lat="51.153368"><ele>41.2</ele><time>2022-03-27T07:43:48.000Z</time></trkpt><trkpt lon="5.57668" lat="51.153355"><ele>41.2</ele><time>2022-03-27T07:43:49.000Z</time></trkpt><trkpt lon="5.576576" lat="51.15334"><ele>41.4</ele><time>2022-03-27T07:43:50.000Z</time></trkpt><trkpt lon="5.576476" lat="51.153329"><ele>41.4</ele><time>2022-03-27T07:43:51.000Z</time></trkpt><trkpt lon="5.57637" lat="51.153317"><ele>41.4</ele><time>2022-03-27T07:43:52.000Z</time></trkpt><trkpt lon="5.576267" lat="51.153306"><ele>41.4</ele><time>2022-03-27T07:43:53.000Z</time></trkpt><trkpt lon="5.576154" lat="51.153294"><ele>41.6</ele><time>2022-03-27T07:43:54.000Z</time></trkpt><trkpt lon="5.576039" lat="51.153286"><ele>41.6</ele><time>2022-03-27T07:43:55.000Z</time></trkpt><trkpt lon="5.575923" lat="51.153275"><ele>41.6</ele><time>2022-03-27T07:43:56.000Z</time></trkpt><trkpt lon="5.57581" lat="51.153267"><ele>41.6</ele><time>2022-03-27T07:43:57.000Z</time></trkpt><trkpt lon="5.575697" lat="51.153263"><ele>41.6</ele><time>2022-03-27T07:43:58.000Z</time></trkpt><trkpt lon="5.575584" lat="51.153256"><ele>41.6</ele><time>2022-03-27T07:43:59.000Z</time></trkpt><trkpt lon="5.57547" lat="51.153252"><ele>41.6</ele><time>2022-03-27T07:44:00.000Z</time></trkpt><trkpt lon="5.575357" lat="51.153241"><ele>41.8</ele><time>2022-03-27T07:44:01.000Z</time></trkpt><trkpt lon="5.575246" lat="51.153237"><ele>41.8</ele><time>2022-03-27T07:44:02.000Z</time></trkpt><trkpt lon="5.575136" lat="51.153226"><ele>41.8</ele><time>2022-03-27T07:44:03.000Z</time></trkpt><trkpt lon="5.575025" lat="51.153214"><ele>42</ele><time>2022-03-27T07:44:04.000Z</time></trkpt><trkpt lon="5.57492" lat="51.153203"><ele>42</ele><time>2022-03-27T07:44:05.000Z</time></trkpt><trkpt lon="5.574827" lat="51.153187"><ele>41.8</ele><time>2022-03-27T07:44:06.000Z</time></trkpt><trkpt lon="5.574744" lat="51.153169"><ele>41.8</ele><time>2022-03-27T07:44:07.000Z</time></trkpt><trkpt lon="5.574668" lat="51.153142"><ele>42</ele><time>2022-03-27T07:44:08.000Z</time></trkpt><trkpt lon="5.574595" lat="51.153116"><ele>42.2</ele><time>2022-03-27T07:44:09.000Z</time></trkpt><trkpt lon="5.574516" lat="51.153089"><ele>42.2</ele><time>2022-03-27T07:44:10.000Z</time></trkpt><trkpt lon="5.574432" lat="51.153066"><ele>42.2</ele><time>2022-03-27T07:44:11.000Z</time></trkpt><trkpt lon="5.574332" lat="51.153065"><ele>42.2</ele><time>2022-03-27T07:44:12.000Z</time></trkpt><trkpt lon="5.574227" lat="51.153079"><ele>42.2</ele><time>2022-03-27T07:44:13.000Z</time></trkpt><trkpt lon="5.574118" lat="51.153091"><ele>42.2</ele><time>2022-03-27T07:44:14.000Z</time></trkpt><trkpt lon="5.574007" lat="51.153106"><ele>42.4</ele><time>2022-03-27T07:44:15.000Z</time></trkpt><trkpt lon="5.573894" lat="51.153114"><ele>42.4</ele><time>2022-03-27T07:44:16.000Z</time></trkpt><trkpt lon="5.573785" lat="51.153118"><ele>42.2</ele><time>2022-03-27T07:44:17.000Z</time></trkpt><trkpt lon="5.573681" lat="51.153118"><ele>42.2</ele><time>2022-03-27T07:44:18.000Z</time></trkpt><trkpt lon="5.573568" lat="51.153118"><ele>42.2</ele><time>2022-03-27T07:44:19.000Z</time></trkpt><trkpt lon="5.573459" lat="51.153115"><ele>42.2</ele><time>2022-03-27T07:44:20.000Z</time></trkpt><trkpt lon="5.573352" lat="51.153111"><ele>42.2</ele><time>2022-03-27T07:44:21.000Z</time></trkpt><trkpt lon="5.573237" lat="51.153107"><ele>42.4</ele><time>2022-03-27T07:44:22.000Z</time></trkpt><trkpt lon="5.573124" lat="51.1531"><ele>42.4</ele><time>2022-03-27T07:44:23.000Z</time></trkpt><trkpt lon="5.573008" lat="51.153095"><ele>42.4</ele><time>2022-03-27T07:44:24.000Z</time></trkpt><trkpt lon="5.572892" lat="51.153092"><ele>42.4</ele><time>2022-03-27T07:44:25.000Z</time></trkpt><trkpt lon="5.572778" lat="51.153091"><ele>42.4</ele><time>2022-03-27T07:44:26.000Z</time></trkpt><trkpt lon="5.572662" lat="51.153088"><ele>42.4</ele><time>2022-03-27T07:44:27.000Z</time></trkpt><trkpt lon="5.572554" lat="51.153084"><ele>42.4</ele><time>2022-03-27T07:44:28.000Z</time></trkpt><trkpt lon="5.572445" lat="51.153077"><ele>42.4</ele><time>2022-03-27T07:44:29.000Z</time></trkpt><trkpt lon="5.572329" lat="51.153069"><ele>42.4</ele><time>2022-03-27T07:44:30.000Z</time></trkpt><trkpt lon="5.572217" lat="51.153065"><ele>42.4</ele><time>2022-03-27T07:44:31.000Z</time></trkpt><trkpt lon="5.572106" lat="51.153061"><ele>42.4</ele><time>2022-03-27T07:44:32.000Z</time></trkpt><trkpt lon="5.571989" lat="51.153054"><ele>42.2</ele><time>2022-03-27T07:44:33.000Z</time></trkpt><trkpt lon="5.571881" lat="51.153046"><ele>42.2</ele><time>2022-03-27T07:44:34.000Z</time></trkpt><trkpt lon="5.571766" lat="51.153042"><ele>42.2</ele><time>2022-03-27T07:44:35.000Z</time></trkpt><trkpt lon="5.571649" lat="51.153038"><ele>42.2</ele><time>2022-03-27T07:44:36.000Z</time></trkpt><trkpt lon="5.571532" lat="51.153034"><ele>42.2</ele><time>2022-03-27T07:44:37.000Z</time></trkpt><trkpt lon="5.571416" lat="51.153027"><ele>42.2</ele><time>2022-03-27T07:44:38.000Z</time></trkpt><trkpt lon="5.571301" lat="51.153023"><ele>42</ele><time>2022-03-27T07:44:39.000Z</time></trkpt><trkpt lon="5.571182" lat="51.153016"><ele>42</ele><time>2022-03-27T07:44:40.000Z</time></trkpt><trkpt lon="5.571068" lat="51.153012"><ele>42</ele><time>2022-03-27T07:44:41.000Z</time></trkpt><trkpt lon="5.570951" lat="51.153008"><ele>42</ele><time>2022-03-27T07:44:42.000Z</time></trkpt><trkpt lon="5.570837" lat="51.153"><ele>42</ele><time>2022-03-27T07:44:43.000Z</time></trkpt><trkpt lon="5.570728" lat="51.152996"><ele>41.8</ele><time>2022-03-27T07:44:44.000Z</time></trkpt><trkpt lon="5.570609" lat="51.152993"><ele>41.8</ele><time>2022-03-27T07:44:45.000Z</time></trkpt><trkpt lon="5.570491" lat="51.152989"><ele>41.8</ele><time>2022-03-27T07:44:46.000Z</time></trkpt><trkpt lon="5.570381" lat="51.152988"><ele>41.8</ele><time>2022-03-27T07:44:47.000Z</time></trkpt><trkpt lon="5.570268" lat="51.152981"><ele>41.8</ele><time>2022-03-27T07:44:48.000Z</time></trkpt><trkpt lon="5.570159" lat="51.152981"><ele>42</ele><time>2022-03-27T07:44:49.000Z</time></trkpt><trkpt lon="5.570049" lat="51.152977"><ele>42</ele><time>2022-03-27T07:44:50.000Z</time></trkpt><trkpt lon="5.569943" lat="51.152973"><ele>42</ele><time>2022-03-27T07:44:51.000Z</time></trkpt><trkpt lon="5.569837" lat="51.152973"><ele>42.2</ele><time>2022-03-27T07:44:52.000Z</time></trkpt><trkpt lon="5.569727" lat="51.15297"><ele>42.2</ele><time>2022-03-27T07:44:53.000Z</time></trkpt><trkpt lon="5.569619" lat="51.152962"><ele>42.2</ele><time>2022-03-27T07:44:54.000Z</time></trkpt><trkpt lon="5.569506" lat="51.152954"><ele>42.2</ele><time>2022-03-27T07:44:55.000Z</time></trkpt><trkpt lon="5.569395" lat="51.152951"><ele>42.2</ele><time>2022-03-27T07:44:56.000Z</time></trkpt><trkpt lon="5.569285" lat="51.152947"><ele>42.2</ele><time>2022-03-27T07:44:57.000Z</time></trkpt><trkpt lon="5.569173" lat="51.152939"><ele>42.2</ele><time>2022-03-27T07:44:58.000Z</time></trkpt><trkpt lon="5.569062" lat="51.152935"><ele>42.2</ele><time>2022-03-27T07:44:59.000Z</time></trkpt><trkpt lon="5.568954" lat="51.152931"><ele>42.4</ele><time>2022-03-27T07:45:00.000Z</time></trkpt><trkpt lon="5.568846" lat="51.152928"><ele>42.4</ele><time>2022-03-27T07:45:01.000Z</time></trkpt><trkpt lon="5.568734" lat="51.15292"><ele>42.4</ele><time>2022-03-27T07:45:02.000Z</time></trkpt><trkpt lon="5.568623" lat="51.152909"><ele>42.4</ele><time>2022-03-27T07:45:03.000Z</time></trkpt><trkpt lon="5.568506" lat="51.152905"><ele>42.4</ele><time>2022-03-27T07:45:04.000Z</time></trkpt><trkpt lon="5.568394" lat="51.152901"><ele>42.4</ele><time>2022-03-27T07:45:05.000Z</time></trkpt><trkpt lon="5.568282" lat="51.152897"><ele>42.4</ele><time>2022-03-27T07:45:06.000Z</time></trkpt><trkpt lon="5.568168" lat="51.152893"><ele>42.4</ele><time>2022-03-27T07:45:07.000Z</time></trkpt><trkpt lon="5.568064" lat="51.15289"><ele>42.4</ele><time>2022-03-27T07:45:08.000Z</time></trkpt><trkpt lon="5.567943" lat="51.152886"><ele>42.4</ele><time>2022-03-27T07:45:09.000Z</time></trkpt><trkpt lon="5.567834" lat="51.152885"><ele>42.6</ele><time>2022-03-27T07:45:10.000Z</time></trkpt><trkpt lon="5.567725" lat="51.152885"><ele>42.6</ele><time>2022-03-27T07:45:11.000Z</time></trkpt><trkpt lon="5.567614" lat="51.152885"><ele>42.6</ele><time>2022-03-27T07:45:12.000Z</time></trkpt><trkpt lon="5.567504" lat="51.152882"><ele>42.6</ele><time>2022-03-27T07:45:13.000Z</time></trkpt><trkpt lon="5.567394" lat="51.152882"><ele>42.6</ele><time>2022-03-27T07:45:14.000Z</time></trkpt><trkpt lon="5.567282" lat="51.152882"><ele>42.6</ele><time>2022-03-27T07:45:15.000Z</time></trkpt><trkpt lon="5.567173" lat="51.152882"><ele>42.8</ele><time>2022-03-27T07:45:16.000Z</time></trkpt><trkpt lon="5.567059" lat="51.152878"><ele>42.8</ele><time>2022-03-27T07:45:17.000Z</time></trkpt><trkpt lon="5.566946" lat="51.152871"><ele>42.8</ele><time>2022-03-27T07:45:18.000Z</time></trkpt><trkpt lon="5.566833" lat="51.152863"><ele>42.8</ele><time>2022-03-27T07:45:19.000Z</time></trkpt><trkpt lon="5.566721" lat="51.152855"><ele>42.8</ele><time>2022-03-27T07:45:20.000Z</time></trkpt><trkpt lon="5.56661" lat="51.152848"><ele>43</ele><time>2022-03-27T07:45:21.000Z</time></trkpt><trkpt lon="5.566496" lat="51.152836"><ele>43</ele><time>2022-03-27T07:45:22.000Z</time></trkpt><trkpt lon="5.566385" lat="51.152825"><ele>43</ele><time>2022-03-27T07:45:23.000Z</time></trkpt><trkpt lon="5.566275" lat="51.15281"><ele>43</ele><time>2022-03-27T07:45:24.000Z</time></trkpt><trkpt lon="5.566167" lat="51.152791"><ele>43</ele><time>2022-03-27T07:45:25.000Z</time></trkpt><trkpt lon="5.566059" lat="51.152776"><ele>43</ele><time>2022-03-27T07:45:26.000Z</time></trkpt><trkpt lon="5.565951" lat="51.15276"><ele>43.2</ele><time>2022-03-27T07:45:27.000Z</time></trkpt><trkpt lon="5.565842" lat="51.152742"><ele>43.2</ele><time>2022-03-27T07:45:28.000Z</time></trkpt><trkpt lon="5.565731" lat="51.152726"><ele>43.2</ele><time>2022-03-27T07:45:29.000Z</time></trkpt><trkpt lon="5.565621" lat="51.152707"><ele>43.2</ele><time>2022-03-27T07:45:30.000Z</time></trkpt><trkpt lon="5.565514" lat="51.152688"><ele>43.2</ele><time>2022-03-27T07:45:31.000Z</time></trkpt><trkpt lon="5.565406" lat="51.152673"><ele>43.4</ele><time>2022-03-27T07:45:32.000Z</time></trkpt><trkpt lon="5.565297" lat="51.152657"><ele>43.4</ele><time>2022-03-27T07:45:33.000Z</time></trkpt><trkpt lon="5.565188" lat="51.152638"><ele>43.4</ele><time>2022-03-27T07:45:34.000Z</time></trkpt><trkpt lon="5.565084" lat="51.152623"><ele>43.4</ele><time>2022-03-27T07:45:35.000Z</time></trkpt><trkpt lon="5.564978" lat="51.152604"><ele>43.6</ele><time>2022-03-27T07:45:36.000Z</time></trkpt><trkpt lon="5.564872" lat="51.152589"><ele>43.4</ele><time>2022-03-27T07:45:37.000Z</time></trkpt><trkpt lon="5.564764" lat="51.152573"><ele>43.2</ele><time>2022-03-27T07:45:38.000Z</time></trkpt><trkpt lon="5.56466" lat="51.152555"><ele>43.2</ele><time>2022-03-27T07:45:39.000Z</time></trkpt><trkpt lon="5.56455" lat="51.152539"><ele>43.2</ele><time>2022-03-27T07:45:40.000Z</time></trkpt><trkpt lon="5.564436" lat="51.152524"><ele>43.2</ele><time>2022-03-27T07:45:41.000Z</time></trkpt><trkpt lon="5.564329" lat="51.152509"><ele>43.2</ele><time>2022-03-27T07:45:42.000Z</time></trkpt><trkpt lon="5.564216" lat="51.152493"><ele>43.2</ele><time>2022-03-27T07:45:43.000Z</time></trkpt><trkpt lon="5.564107" lat="51.152478"><ele>43.2</ele><time>2022-03-27T07:45:44.000Z</time></trkpt><trkpt lon="5.564" lat="51.152459"><ele>43.2</ele><time>2022-03-27T07:45:45.000Z</time></trkpt><trkpt lon="5.563891" lat="51.152444"><ele>43.4</ele><time>2022-03-27T07:45:46.000Z</time></trkpt><trkpt lon="5.563784" lat="51.152428"><ele>43.4</ele><time>2022-03-27T07:45:47.000Z</time></trkpt><trkpt lon="5.563679" lat="51.15241"><ele>43.6</ele><time>2022-03-27T07:45:48.000Z</time></trkpt><trkpt lon="5.563572" lat="51.152394"><ele>43.6</ele><time>2022-03-27T07:45:49.000Z</time></trkpt><trkpt lon="5.563464" lat="51.152375"><ele>43.6</ele><time>2022-03-27T07:45:50.000Z</time></trkpt><trkpt lon="5.56336" lat="51.15236"><ele>43.6</ele><time>2022-03-27T07:45:51.000Z</time></trkpt><trkpt lon="5.563256" lat="51.152345"><ele>43.6</ele><time>2022-03-27T07:45:52.000Z</time></trkpt><trkpt lon="5.56315" lat="51.152329"><ele>43.6</ele><time>2022-03-27T07:45:53.000Z</time></trkpt><trkpt lon="5.563051" lat="51.152314"><ele>43.4</ele><time>2022-03-27T07:45:54.000Z</time></trkpt><trkpt lon="5.562956" lat="51.152295"><ele>43.4</ele><time>2022-03-27T07:45:55.000Z</time></trkpt><trkpt lon="5.562868" lat="51.152276"><ele>43.4</ele><time>2022-03-27T07:45:56.000Z</time></trkpt><trkpt lon="5.562787" lat="51.152261"><ele>43.4</ele><time>2022-03-27T07:45:57.000Z</time></trkpt><trkpt lon="5.562716" lat="51.152249"><ele>43.4</ele><time>2022-03-27T07:45:58.000Z</time></trkpt><trkpt lon="5.562655" lat="51.152245"><ele>43.6</ele><time>2022-03-27T07:45:59.000Z</time></trkpt><trkpt lon="5.562605" lat="51.152252"><ele>43.6</ele><time>2022-03-27T07:46:00.000Z</time></trkpt><trkpt lon="5.562562" lat="51.152274"><ele>43.6</ele><time>2022-03-27T07:46:01.000Z</time></trkpt><trkpt lon="5.562533" lat="51.152311"><ele>43.6</ele><time>2022-03-27T07:46:02.000Z</time></trkpt><trkpt lon="5.562511" lat="51.152357"><ele>43.6</ele><time>2022-03-27T07:46:03.000Z</time></trkpt><trkpt lon="5.562491" lat="51.152412"><ele>43.4</ele><time>2022-03-27T07:46:04.000Z</time></trkpt><trkpt lon="5.562466" lat="51.152471"><ele>43.4</ele><time>2022-03-27T07:46:05.000Z</time></trkpt><trkpt lon="5.562436" lat="51.152532"><ele>43</ele><time>2022-03-27T07:46:06.000Z</time></trkpt><trkpt lon="5.562403" lat="51.152589"><ele>42.8</ele><time>2022-03-27T07:46:07.000Z</time></trkpt><trkpt lon="5.562371" lat="51.152652"><ele>42.8</ele><time>2022-03-27T07:46:08.000Z</time></trkpt><trkpt lon="5.562337" lat="51.152714"><ele>42.8</ele><time>2022-03-27T07:46:09.000Z</time></trkpt><trkpt lon="5.562307" lat="51.152775"><ele>42.8</ele><time>2022-03-27T07:46:10.000Z</time></trkpt><trkpt lon="5.562275" lat="51.15284"><ele>42.8</ele><time>2022-03-27T07:46:11.000Z</time></trkpt><trkpt lon="5.562246" lat="51.152903"><ele>42.8</ele><time>2022-03-27T07:46:12.000Z</time></trkpt><trkpt lon="5.56221" lat="51.15297"><ele>42.6</ele><time>2022-03-27T07:46:13.000Z</time></trkpt><trkpt lon="5.562174" lat="51.153034"><ele>42.6</ele><time>2022-03-27T07:46:14.000Z</time></trkpt><trkpt lon="5.562138" lat="51.1531"><ele>42.4</ele><time>2022-03-27T07:46:15.000Z</time></trkpt><trkpt lon="5.5621" lat="51.153165"><ele>42.4</ele><time>2022-03-27T07:46:16.000Z</time></trkpt><trkpt lon="5.562061" lat="51.153229"><ele>42.2</ele><time>2022-03-27T07:46:17.000Z</time></trkpt><trkpt lon="5.56202" lat="51.153294"><ele>41.8</ele><time>2022-03-27T07:46:18.000Z</time></trkpt><trkpt lon="5.561983" lat="51.153363"><ele>41.8</ele><time>2022-03-27T07:46:19.000Z</time></trkpt><trkpt lon="5.561945" lat="51.153431"><ele>41.6</ele><time>2022-03-27T07:46:20.000Z</time></trkpt><trkpt lon="5.561912" lat="51.153496"><ele>41.8</ele><time>2022-03-27T07:46:21.000Z</time></trkpt><trkpt lon="5.561882" lat="51.153564"><ele>42</ele><time>2022-03-27T07:46:22.000Z</time></trkpt><trkpt lon="5.561849" lat="51.15363"><ele>42</ele><time>2022-03-27T07:46:23.000Z</time></trkpt><trkpt lon="5.561817" lat="51.153694"><ele>41.8</ele><time>2022-03-27T07:46:24.000Z</time></trkpt><trkpt lon="5.561785" lat="51.15376"><ele>41.8</ele><time>2022-03-27T07:46:25.000Z</time></trkpt><trkpt lon="5.561757" lat="51.153827"><ele>42</ele><time>2022-03-27T07:46:26.000Z</time></trkpt><trkpt lon="5.56173" lat="51.153892"><ele>42.2</ele><time>2022-03-27T07:46:27.000Z</time></trkpt><trkpt lon="5.561705" lat="51.153961"><ele>42.2</ele><time>2022-03-27T07:46:28.000Z</time></trkpt><trkpt lon="5.561683" lat="51.154026"><ele>42.2</ele><time>2022-03-27T07:46:29.000Z</time></trkpt><trkpt lon="5.561661" lat="51.154091"><ele>42.2</ele><time>2022-03-27T07:46:30.000Z</time></trkpt><trkpt lon="5.561638" lat="51.154152"><ele>42</ele><time>2022-03-27T07:46:31.000Z</time></trkpt><trkpt lon="5.561616" lat="51.154211"><ele>42</ele><time>2022-03-27T07:46:32.000Z</time></trkpt><trkpt lon="5.561596" lat="51.154271"><ele>42</ele><time>2022-03-27T07:46:33.000Z</time></trkpt><trkpt lon="5.561581" lat="51.154328"><ele>42</ele><time>2022-03-27T07:46:34.000Z</time></trkpt><trkpt lon="5.561567" lat="51.154382"><ele>42</ele><time>2022-03-27T07:46:35.000Z</time></trkpt><trkpt lon="5.561549" lat="51.154436"><ele>42</ele><time>2022-03-27T07:46:36.000Z</time></trkpt><trkpt lon="5.561518" lat="51.154478"><ele>42.2</ele><time>2022-03-27T07:46:37.000Z</time></trkpt><trkpt lon="5.56147" lat="51.154505"><ele>42.4</ele><time>2022-03-27T07:46:38.000Z</time></trkpt><trkpt lon="5.561404" lat="51.154507"><ele>42.6</ele><time>2022-03-27T07:46:39.000Z</time></trkpt><trkpt lon="5.561327" lat="51.154489"><ele>42.8</ele><time>2022-03-27T07:46:40.000Z</time></trkpt><trkpt lon="5.561239" lat="51.154466"><ele>43</ele><time>2022-03-27T07:46:41.000Z</time></trkpt><trkpt lon="5.561145" lat="51.154447"><ele>43</ele><time>2022-03-27T07:46:42.000Z</time></trkpt><trkpt lon="5.561041" lat="51.154431"><ele>43</ele><time>2022-03-27T07:46:43.000Z</time></trkpt><trkpt lon="5.560935" lat="51.15442"><ele>43</ele><time>2022-03-27T07:46:44.000Z</time></trkpt><trkpt lon="5.560828" lat="51.154408"><ele>43</ele><time>2022-03-27T07:46:45.000Z</time></trkpt><trkpt lon="5.560719" lat="51.154397"><ele>43</ele><time>2022-03-27T07:46:46.000Z</time></trkpt><trkpt lon="5.560612" lat="51.154382"><ele>43</ele><time>2022-03-27T07:46:47.000Z</time></trkpt><trkpt lon="5.560505" lat="51.15437"><ele>43</ele><time>2022-03-27T07:46:48.000Z</time></trkpt><trkpt lon="5.560398" lat="51.154359"><ele>43</ele><time>2022-03-27T07:46:49.000Z</time></trkpt><trkpt lon="5.560293" lat="51.154347"><ele>43</ele><time>2022-03-27T07:46:50.000Z</time></trkpt><trkpt lon="5.560188" lat="51.154336"><ele>42.8</ele><time>2022-03-27T07:46:51.000Z</time></trkpt><trkpt lon="5.560085" lat="51.154321"><ele>43</ele><time>2022-03-27T07:46:52.000Z</time></trkpt><trkpt lon="5.559981" lat="51.154309"><ele>43</ele><time>2022-03-27T07:46:53.000Z</time></trkpt><trkpt lon="5.559878" lat="51.15429"><ele>42.8</ele><time>2022-03-27T07:46:54.000Z</time></trkpt><trkpt lon="5.559779" lat="51.154271"><ele>43</ele><time>2022-03-27T07:46:55.000Z</time></trkpt><trkpt lon="5.559685" lat="51.154256"><ele>42.8</ele><time>2022-03-27T07:46:56.000Z</time></trkpt><trkpt lon="5.559589" lat="51.15423"><ele>42.8</ele><time>2022-03-27T07:46:57.000Z</time></trkpt><trkpt lon="5.559495" lat="51.154204"><ele>42.8</ele><time>2022-03-27T07:46:58.000Z</time></trkpt><trkpt lon="5.559395" lat="51.154176"><ele>42.8</ele><time>2022-03-27T07:46:59.000Z</time></trkpt><trkpt lon="5.559301" lat="51.154154"><ele>42.6</ele><time>2022-03-27T07:47:00.000Z</time></trkpt><trkpt lon="5.559198" lat="51.15413"><ele>42.6</ele><time>2022-03-27T07:47:01.000Z</time></trkpt><trkpt lon="5.559097" lat="51.154104"><ele>42.6</ele><time>2022-03-27T07:47:02.000Z</time></trkpt><trkpt lon="5.558994" lat="51.154077"><ele>42.8</ele><time>2022-03-27T07:47:03.000Z</time></trkpt><trkpt lon="5.558895" lat="51.154054"><ele>43</ele><time>2022-03-27T07:47:04.000Z</time></trkpt><trkpt lon="5.558793" lat="51.154032"><ele>43</ele><time>2022-03-27T07:47:05.000Z</time></trkpt><trkpt lon="5.558683" lat="51.154015"><ele>43</ele><time>2022-03-27T07:47:06.000Z</time></trkpt><trkpt lon="5.558573" lat="51.154004"><ele>42.8</ele><time>2022-03-27T07:47:07.000Z</time></trkpt><trkpt lon="5.558473" lat="51.153996"><ele>42.8</ele><time>2022-03-27T07:47:08.000Z</time></trkpt><trkpt lon="5.558353" lat="51.153992"><ele>42.8</ele><time>2022-03-27T07:47:09.000Z</time></trkpt><trkpt lon="5.55824" lat="51.153988"><ele>43</ele><time>2022-03-27T07:47:10.000Z</time></trkpt><trkpt lon="5.558129" lat="51.153988"><ele>43</ele><time>2022-03-27T07:47:11.000Z</time></trkpt><trkpt lon="5.558019" lat="51.153984"><ele>43</ele><time>2022-03-27T07:47:12.000Z</time></trkpt><trkpt lon="5.557907" lat="51.153977"><ele>43</ele><time>2022-03-27T07:47:13.000Z</time></trkpt><trkpt lon="5.5578" lat="51.153976"><ele>43.2</ele><time>2022-03-27T07:47:14.000Z</time></trkpt><trkpt lon="5.557692" lat="51.153973"><ele>43.4</ele><time>2022-03-27T07:47:15.000Z</time></trkpt><trkpt lon="5.557587" lat="51.153965"><ele>43.4</ele><time>2022-03-27T07:47:16.000Z</time></trkpt><trkpt lon="5.557481" lat="51.153961"><ele>43.6</ele><time>2022-03-27T07:47:17.000Z</time></trkpt><trkpt lon="5.557375" lat="51.153958"><ele>43.8</ele><time>2022-03-27T07:47:18.000Z</time></trkpt><trkpt lon="5.557262" lat="51.153954"><ele>43.8</ele><time>2022-03-27T07:47:19.000Z</time></trkpt><trkpt lon="5.557157" lat="51.15395"><ele>44</ele><time>2022-03-27T07:47:20.000Z</time></trkpt><trkpt lon="5.55705" lat="51.153943"><ele>44</ele><time>2022-03-27T07:47:21.000Z</time></trkpt><trkpt lon="5.556942" lat="51.153938"><ele>44</ele><time>2022-03-27T07:47:22.000Z</time></trkpt><trkpt lon="5.556832" lat="51.153935"><ele>44</ele><time>2022-03-27T07:47:23.000Z</time></trkpt><trkpt lon="5.556723" lat="51.153931"><ele>44</ele><time>2022-03-27T07:47:24.000Z</time></trkpt><trkpt lon="5.556612" lat="51.153927"><ele>43.8</ele><time>2022-03-27T07:47:25.000Z</time></trkpt><trkpt lon="5.556505" lat="51.153927"><ele>44</ele><time>2022-03-27T07:47:26.000Z</time></trkpt><trkpt lon="5.556401" lat="51.15392"><ele>44</ele><time>2022-03-27T07:47:27.000Z</time></trkpt><trkpt lon="5.5563" lat="51.153912"><ele>44</ele><time>2022-03-27T07:47:28.000Z</time></trkpt><trkpt lon="5.556186" lat="51.153904"><ele>44.2</ele><time>2022-03-27T07:47:29.000Z</time></trkpt><trkpt lon="5.55607" lat="51.1539"><ele>44.2</ele><time>2022-03-27T07:47:30.000Z</time></trkpt><trkpt lon="5.555955" lat="51.1539"><ele>44.4</ele><time>2022-03-27T07:47:31.000Z</time></trkpt><trkpt lon="5.55582" lat="51.153921"><ele>44.4</ele><time>2022-03-27T07:47:32.000Z</time></trkpt><trkpt lon="5.555684" lat="51.153942"><ele>44.4</ele><time>2022-03-27T07:47:33.000Z</time></trkpt><trkpt lon="5.555548" lat="51.153964"><ele>44.4</ele><time>2022-03-27T07:47:34.000Z</time></trkpt><trkpt lon="5.555415" lat="51.153975"><ele>44.4</ele><time>2022-03-27T07:47:35.000Z</time></trkpt><trkpt lon="5.555298" lat="51.153967"><ele>44.2</ele><time>2022-03-27T07:47:36.000Z</time></trkpt><trkpt lon="5.555192" lat="51.153954"><ele>44.2</ele><time>2022-03-27T07:47:37.000Z</time></trkpt><trkpt lon="5.555088" lat="51.15395"><ele>44.2</ele><time>2022-03-27T07:47:38.000Z</time></trkpt><trkpt lon="5.554986" lat="51.153953"><ele>44.4</ele><time>2022-03-27T07:47:39.000Z</time></trkpt><trkpt lon="5.55488" lat="51.153964"><ele>44.4</ele><time>2022-03-27T07:47:40.000Z</time></trkpt><trkpt lon="5.55478" lat="51.153979"><ele>44.4</ele><time>2022-03-27T07:47:41.000Z</time></trkpt><trkpt lon="5.554682" lat="51.153991"><ele>44.4</ele><time>2022-03-27T07:47:42.000Z</time></trkpt><trkpt lon="5.554576" lat="51.154006"><ele>44.6</ele><time>2022-03-27T07:47:43.000Z</time></trkpt><trkpt lon="5.554476" lat="51.154021"><ele>44.6</ele><time>2022-03-27T07:47:44.000Z</time></trkpt><trkpt lon="5.554371" lat="51.154033"><ele>44.4</ele><time>2022-03-27T07:47:45.000Z</time></trkpt><trkpt lon="5.554266" lat="51.154048"><ele>44.4</ele><time>2022-03-27T07:47:46.000Z</time></trkpt><trkpt lon="5.554169" lat="51.154067"><ele>44.4</ele><time>2022-03-27T07:47:47.000Z</time></trkpt><trkpt lon="5.554081" lat="51.154097"><ele>44.4</ele><time>2022-03-27T07:47:48.000Z</time></trkpt><trkpt lon="5.55401" lat="51.154142"><ele>44.4</ele><time>2022-03-27T07:47:49.000Z</time></trkpt><trkpt lon="5.553961" lat="51.154195"><ele>44.4</ele><time>2022-03-27T07:47:50.000Z</time></trkpt><trkpt lon="5.553931" lat="51.154258"><ele>44.4</ele><time>2022-03-27T07:47:51.000Z</time></trkpt><trkpt lon="5.553906" lat="51.154324"><ele>44.2</ele><time>2022-03-27T07:47:52.000Z</time></trkpt><trkpt lon="5.553899" lat="51.154396"><ele>44.2</ele><time>2022-03-27T07:47:53.000Z</time></trkpt><trkpt lon="5.553878" lat="51.154465"><ele>44.2</ele><time>2022-03-27T07:47:54.000Z</time></trkpt><trkpt lon="5.553856" lat="51.15453"><ele>44</ele><time>2022-03-27T07:47:55.000Z</time></trkpt><trkpt lon="5.553833" lat="51.154595"><ele>44</ele><time>2022-03-27T07:47:56.000Z</time></trkpt><trkpt lon="5.553808" lat="51.15466"><ele>44</ele><time>2022-03-27T07:47:57.000Z</time></trkpt><trkpt lon="5.553781" lat="51.154728"><ele>44</ele><time>2022-03-27T07:47:58.000Z</time></trkpt><trkpt lon="5.553753" lat="51.154793"><ele>44</ele><time>2022-03-27T07:47:59.000Z</time></trkpt><trkpt lon="5.553726" lat="51.154862"><ele>44</ele><time>2022-03-27T07:48:00.000Z</time></trkpt><trkpt lon="5.553701" lat="51.154927"><ele>44</ele><time>2022-03-27T07:48:01.000Z</time></trkpt><trkpt lon="5.553674" lat="51.154992"><ele>44</ele><time>2022-03-27T07:48:02.000Z</time></trkpt><trkpt lon="5.553647" lat="51.155053"><ele>44.2</ele><time>2022-03-27T07:48:03.000Z</time></trkpt><trkpt lon="5.55362" lat="51.155114"><ele>44.2</ele><time>2022-03-27T07:48:04.000Z</time></trkpt><trkpt lon="5.553595" lat="51.155178"><ele>44.2</ele><time>2022-03-27T07:48:05.000Z</time></trkpt><trkpt lon="5.553569" lat="51.155237"><ele>44.4</ele><time>2022-03-27T07:48:06.000Z</time></trkpt><trkpt lon="5.553545" lat="51.155298"><ele>44.4</ele><time>2022-03-27T07:48:07.000Z</time></trkpt><trkpt lon="5.553513" lat="51.155351"><ele>44.4</ele><time>2022-03-27T07:48:08.000Z</time></trkpt><trkpt lon="5.55347" lat="51.155401"><ele>44.4</ele><time>2022-03-27T07:48:09.000Z</time></trkpt><trkpt lon="5.553412" lat="51.155443"><ele>44.6</ele><time>2022-03-27T07:48:10.000Z</time></trkpt><trkpt lon="5.553334" lat="51.15547"><ele>44.6</ele><time>2022-03-27T07:48:11.000Z</time></trkpt><trkpt lon="5.553242" lat="51.155482"><ele>44.6</ele><time>2022-03-27T07:48:12.000Z</time></trkpt><trkpt lon="5.553139" lat="51.155494"><ele>44.8</ele><time>2022-03-27T07:48:13.000Z</time></trkpt><trkpt lon="5.553039" lat="51.155498"><ele>45</ele><time>2022-03-27T07:48:14.000Z</time></trkpt><trkpt lon="5.552933" lat="51.155502"><ele>45</ele><time>2022-03-27T07:48:15.000Z</time></trkpt><trkpt lon="5.552829" lat="51.155506"><ele>45.2</ele><time>2022-03-27T07:48:16.000Z</time></trkpt><trkpt lon="5.552726" lat="51.155506"><ele>45.2</ele><time>2022-03-27T07:48:17.000Z</time></trkpt><trkpt lon="5.55262" lat="51.155506"><ele>45.4</ele><time>2022-03-27T07:48:18.000Z</time></trkpt><trkpt lon="5.55251" lat="51.15551"><ele>45.6</ele><time>2022-03-27T07:48:19.000Z</time></trkpt><trkpt lon="5.552402" lat="51.15551"><ele>45.8</ele><time>2022-03-27T07:48:20.000Z</time></trkpt><trkpt lon="5.552293" lat="51.15551"><ele>45.8</ele><time>2022-03-27T07:48:21.000Z</time></trkpt><trkpt lon="5.552184" lat="51.15551"><ele>45.8</ele><time>2022-03-27T07:48:22.000Z</time></trkpt><trkpt lon="5.552077" lat="51.15551"><ele>45.8</ele><time>2022-03-27T07:48:23.000Z</time></trkpt><trkpt lon="5.551969" lat="51.15551"><ele>45.8</ele><time>2022-03-27T07:48:24.000Z</time></trkpt><trkpt lon="5.551859" lat="51.15551"><ele>45.8</ele><time>2022-03-27T07:48:25.000Z</time></trkpt><trkpt lon="5.55175" lat="51.155506"><ele>45.8</ele><time>2022-03-27T07:48:26.000Z</time></trkpt><trkpt lon="5.55164" lat="51.155506"><ele>45.8</ele><time>2022-03-27T07:48:27.000Z</time></trkpt><trkpt lon="5.55153" lat="51.155499"><ele>45.8</ele><time>2022-03-27T07:48:28.000Z</time></trkpt><trkpt lon="5.551419" lat="51.155491"><ele>45.6</ele><time>2022-03-27T07:48:29.000Z</time></trkpt><trkpt lon="5.55131" lat="51.155484"><ele>45.6</ele><time>2022-03-27T07:48:30.000Z</time></trkpt><trkpt lon="5.551202" lat="51.155469"><ele>45.6</ele><time>2022-03-27T07:48:31.000Z</time></trkpt><trkpt lon="5.551098" lat="51.155454"><ele>45.6</ele><time>2022-03-27T07:48:32.000Z</time></trkpt><trkpt lon="5.550992" lat="51.155438"><ele>45.6</ele><time>2022-03-27T07:48:33.000Z</time></trkpt><trkpt lon="5.550888" lat="51.155419"><ele>45.8</ele><time>2022-03-27T07:48:34.000Z</time></trkpt><trkpt lon="5.550783" lat="51.155401"><ele>45.8</ele><time>2022-03-27T07:48:35.000Z</time></trkpt><trkpt lon="5.550676" lat="51.155374"><ele>45.6</ele><time>2022-03-27T07:48:36.000Z</time></trkpt><trkpt lon="5.550575" lat="51.155347"><ele>45.6</ele><time>2022-03-27T07:48:37.000Z</time></trkpt><trkpt lon="5.550473" lat="51.155313"><ele>45.8</ele><time>2022-03-27T07:48:38.000Z</time></trkpt><trkpt lon="5.550372" lat="51.155286"><ele>45.8</ele><time>2022-03-27T07:48:39.000Z</time></trkpt><trkpt lon="5.550273" lat="51.155257"><ele>45.8</ele><time>2022-03-27T07:48:40.000Z</time></trkpt><trkpt lon="5.550161" lat="51.155232"><ele>45.8</ele><time>2022-03-27T07:48:41.000Z</time></trkpt><trkpt lon="5.550054" lat="51.155213"><ele>45.8</ele><time>2022-03-27T07:48:42.000Z</time></trkpt><trkpt lon="5.54994" lat="51.155194"><ele>45.8</ele><time>2022-03-27T07:48:43.000Z</time></trkpt><trkpt lon="5.549831" lat="51.155179"><ele>45.8</ele><time>2022-03-27T07:48:44.000Z</time></trkpt><trkpt lon="5.54972" lat="51.15516"><ele>45.8</ele><time>2022-03-27T07:48:45.000Z</time></trkpt><trkpt lon="5.549605" lat="51.155141"><ele>45.8</ele><time>2022-03-27T07:48:46.000Z</time></trkpt><trkpt lon="5.549497" lat="51.155125"><ele>45.8</ele><time>2022-03-27T07:48:47.000Z</time></trkpt><trkpt lon="5.549389" lat="51.155103"><ele>45.6</ele><time>2022-03-27T07:48:48.000Z</time></trkpt><trkpt lon="5.549283" lat="51.155084"><ele>45.6</ele><time>2022-03-27T07:48:49.000Z</time></trkpt><trkpt lon="5.549178" lat="51.155061"><ele>45.6</ele><time>2022-03-27T07:48:50.000Z</time></trkpt><trkpt lon="5.549078" lat="51.155035"><ele>45.6</ele><time>2022-03-27T07:48:51.000Z</time></trkpt><trkpt lon="5.548975" lat="51.155012"><ele>45.6</ele><time>2022-03-27T07:48:52.000Z</time></trkpt><trkpt lon="5.54887" lat="51.154985"><ele>45.6</ele><time>2022-03-27T07:48:53.000Z</time></trkpt><trkpt lon="5.548766" lat="51.154962"><ele>45.6</ele><time>2022-03-27T07:48:54.000Z</time></trkpt><trkpt lon="5.54866" lat="51.154935"><ele>45.6</ele><time>2022-03-27T07:48:55.000Z</time></trkpt><trkpt lon="5.548556" lat="51.154908"><ele>45.6</ele><time>2022-03-27T07:48:56.000Z</time></trkpt><trkpt lon="5.548453" lat="51.154882"><ele>45.6</ele><time>2022-03-27T07:48:57.000Z</time></trkpt><trkpt lon="5.54835" lat="51.154859"><ele>45.6</ele><time>2022-03-27T07:48:58.000Z</time></trkpt><trkpt lon="5.548243" lat="51.154832"><ele>45.6</ele><time>2022-03-27T07:48:59.000Z</time></trkpt><trkpt lon="5.548138" lat="51.154813"><ele>45.6</ele><time>2022-03-27T07:49:00.000Z</time></trkpt><trkpt lon="5.548034" lat="51.154787"><ele>45.6</ele><time>2022-03-27T07:49:01.000Z</time></trkpt><trkpt lon="5.54793" lat="51.154767"><ele>45.6</ele><time>2022-03-27T07:49:02.000Z</time></trkpt><trkpt lon="5.547823" lat="51.154744"><ele>45.6</ele><time>2022-03-27T07:49:03.000Z</time></trkpt><trkpt lon="5.547719" lat="51.154725"><ele>45.6</ele><time>2022-03-27T07:49:04.000Z</time></trkpt><trkpt lon="5.547609" lat="51.154706"><ele>45.6</ele><time>2022-03-27T07:49:05.000Z</time></trkpt><trkpt lon="5.547502" lat="51.154687"><ele>45.6</ele><time>2022-03-27T07:49:06.000Z</time></trkpt><trkpt lon="5.547395" lat="51.154668"><ele>45.6</ele><time>2022-03-27T07:49:07.000Z</time></trkpt><trkpt lon="5.547291" lat="51.154652"><ele>45.6</ele><time>2022-03-27T07:49:08.000Z</time></trkpt><trkpt lon="5.547184" lat="51.154634"><ele>45.6</ele><time>2022-03-27T07:49:09.000Z</time></trkpt><trkpt lon="5.54708" lat="51.154618"><ele>45.6</ele><time>2022-03-27T07:49:10.000Z</time></trkpt><trkpt lon="5.546974" lat="51.154607"><ele>45.6</ele><time>2022-03-27T07:49:11.000Z</time></trkpt><trkpt lon="5.546862" lat="51.154595"><ele>45.6</ele><time>2022-03-27T07:49:12.000Z</time></trkpt><trkpt lon="5.546756" lat="51.154587"><ele>45.6</ele><time>2022-03-27T07:49:13.000Z</time></trkpt><trkpt lon="5.546642" lat="51.154576"><ele>45.6</ele><time>2022-03-27T07:49:14.000Z</time></trkpt><trkpt lon="5.546531" lat="51.154572"><ele>45.6</ele><time>2022-03-27T07:49:15.000Z</time></trkpt><trkpt lon="5.54642" lat="51.154564"><ele>45.6</ele><time>2022-03-27T07:49:16.000Z</time></trkpt><trkpt lon="5.546311" lat="51.154557"><ele>45.8</ele><time>2022-03-27T07:49:17.000Z</time></trkpt><trkpt lon="5.546203" lat="51.154553"><ele>45.8</ele><time>2022-03-27T07:49:18.000Z</time></trkpt><trkpt lon="5.546096" lat="51.154545"><ele>45.8</ele><time>2022-03-27T07:49:19.000Z</time></trkpt><trkpt lon="5.545988" lat="51.154538"><ele>46</ele><time>2022-03-27T07:49:20.000Z</time></trkpt><trkpt lon="5.545881" lat="51.15453"><ele>46</ele><time>2022-03-27T07:49:21.000Z</time></trkpt><trkpt lon="5.545775" lat="51.154515"><ele>46</ele><time>2022-03-27T07:49:22.000Z</time></trkpt><trkpt lon="5.545669" lat="51.1545"><ele>46.2</ele><time>2022-03-27T07:49:23.000Z</time></trkpt><trkpt lon="5.545565" lat="51.154481"><ele>46.2</ele><time>2022-03-27T07:49:24.000Z</time></trkpt><trkpt lon="5.545463" lat="51.154466"><ele>46.2</ele><time>2022-03-27T07:49:25.000Z</time></trkpt><trkpt lon="5.545357" lat="51.154443"><ele>46.2</ele><time>2022-03-27T07:49:26.000Z</time></trkpt><trkpt lon="5.545253" lat="51.154424"><ele>46.2</ele><time>2022-03-27T07:49:27.000Z</time></trkpt><trkpt lon="5.54515" lat="51.154401"><ele>46.2</ele><time>2022-03-27T07:49:28.000Z</time></trkpt><trkpt lon="5.545048" lat="51.154382"><ele>46.4</ele><time>2022-03-27T07:49:29.000Z</time></trkpt><trkpt lon="5.544943" lat="51.154359"><ele>46.4</ele><time>2022-03-27T07:49:30.000Z</time></trkpt><trkpt lon="5.544839" lat="51.15434"><ele>46.6</ele><time>2022-03-27T07:49:31.000Z</time></trkpt><trkpt lon="5.544738" lat="51.154321"><ele>46.6</ele><time>2022-03-27T07:49:32.000Z</time></trkpt><trkpt lon="5.544632" lat="51.154298"><ele>46.8</ele><time>2022-03-27T07:49:33.000Z</time></trkpt><trkpt lon="5.544528" lat="51.154279"><ele>46.8</ele><time>2022-03-27T07:49:34.000Z</time></trkpt><trkpt lon="5.544431" lat="51.154258"><ele>46.8</ele><time>2022-03-27T07:49:35.000Z</time></trkpt><trkpt lon="5.544319" lat="51.154237"><ele>46.8</ele><time>2022-03-27T07:49:36.000Z</time></trkpt><trkpt lon="5.544216" lat="51.154214"><ele>46.8</ele><time>2022-03-27T07:49:37.000Z</time></trkpt><trkpt lon="5.544111" lat="51.154191"><ele>47</ele><time>2022-03-27T07:49:38.000Z</time></trkpt><trkpt lon="5.54401" lat="51.154168"><ele>47</ele><time>2022-03-27T07:49:39.000Z</time></trkpt><trkpt lon="5.543908" lat="51.154145"><ele>47</ele><time>2022-03-27T07:49:40.000Z</time></trkpt><trkpt lon="5.543808" lat="51.154126"><ele>47</ele><time>2022-03-27T07:49:41.000Z</time></trkpt><trkpt lon="5.543714" lat="51.154108"><ele>47.2</ele><time>2022-03-27T07:49:42.000Z</time></trkpt><trkpt lon="5.543612" lat="51.154085"><ele>47.2</ele><time>2022-03-27T07:49:43.000Z</time></trkpt><trkpt lon="5.543518" lat="51.154069"><ele>47.2</ele><time>2022-03-27T07:49:44.000Z</time></trkpt><trkpt lon="5.543427" lat="51.154054"><ele>47.4</ele><time>2022-03-27T07:49:45.000Z</time></trkpt><trkpt lon="5.543336" lat="51.154038"><ele>47.4</ele><time>2022-03-27T07:49:46.000Z</time></trkpt><trkpt lon="5.543243" lat="51.154027"><ele>47.4</ele><time>2022-03-27T07:49:47.000Z</time></trkpt><trkpt lon="5.543156" lat="51.15403"><ele>47.4</ele><time>2022-03-27T07:49:48.000Z</time></trkpt><trkpt lon="5.543067" lat="51.154051"><ele>47.4</ele><time>2022-03-27T07:49:49.000Z</time></trkpt><trkpt lon="5.54299" lat="51.154082"><ele>47.4</ele><time>2022-03-27T07:49:50.000Z</time></trkpt><trkpt lon="5.542937" lat="51.154123"><ele>47.4</ele><time>2022-03-27T07:49:51.000Z</time></trkpt><trkpt lon="5.5429" lat="51.154172"><ele>47.2</ele><time>2022-03-27T07:49:52.000Z</time></trkpt><trkpt lon="5.54287" lat="51.154237"><ele>47.2</ele><time>2022-03-27T07:49:53.000Z</time></trkpt><trkpt lon="5.542837" lat="51.154291"><ele>47.2</ele><time>2022-03-27T07:49:54.000Z</time></trkpt><trkpt lon="5.542799" lat="51.154344"><ele>47.2</ele><time>2022-03-27T07:49:55.000Z</time></trkpt><trkpt lon="5.542744" lat="51.15439"><ele>47.2</ele><time>2022-03-27T07:49:56.000Z</time></trkpt><trkpt lon="5.542672" lat="51.154425"><ele>47.2</ele><time>2022-03-27T07:49:57.000Z</time></trkpt><trkpt lon="5.54259" lat="51.154452"><ele>47.2</ele><time>2022-03-27T07:49:58.000Z</time></trkpt><trkpt lon="5.542497" lat="51.154468"><ele>47.2</ele><time>2022-03-27T07:49:59.000Z</time></trkpt><trkpt lon="5.542398" lat="51.154469"><ele>47.2</ele><time>2022-03-27T07:50:00.000Z</time></trkpt><trkpt lon="5.542303" lat="51.154469"><ele>47.2</ele><time>2022-03-27T07:50:01.000Z</time></trkpt><trkpt lon="5.54221" lat="51.154472"><ele>47.4</ele><time>2022-03-27T07:50:02.000Z</time></trkpt><trkpt lon="5.542119" lat="51.15448"><ele>47.6</ele><time>2022-03-27T07:50:03.000Z</time></trkpt><trkpt lon="5.542033" lat="51.154484"><ele>47.6</ele><time>2022-03-27T07:50:04.000Z</time></trkpt><trkpt lon="5.541949" lat="51.154487"><ele>47.4</ele><time>2022-03-27T07:50:05.000Z</time></trkpt><trkpt lon="5.541849" lat="51.154491"><ele>47.4</ele><time>2022-03-27T07:50:06.000Z</time></trkpt><trkpt lon="5.541751" lat="51.154495"><ele>47.4</ele><time>2022-03-27T07:50:07.000Z</time></trkpt><trkpt lon="5.541652" lat="51.154495"><ele>47.6</ele><time>2022-03-27T07:50:08.000Z</time></trkpt><trkpt lon="5.541548" lat="51.154495"><ele>47.8</ele><time>2022-03-27T07:50:09.000Z</time></trkpt><trkpt lon="5.541446" lat="51.154492"><ele>47.8</ele><time>2022-03-27T07:50:10.000Z</time></trkpt><trkpt lon="5.54134" lat="51.154488"><ele>48</ele><time>2022-03-27T07:50:11.000Z</time></trkpt><trkpt lon="5.54123" lat="51.154484"><ele>48</ele><time>2022-03-27T07:50:12.000Z</time></trkpt><trkpt lon="5.541128" lat="51.15448"><ele>48</ele><time>2022-03-27T07:50:13.000Z</time></trkpt><trkpt lon="5.541025" lat="51.154476"><ele>48</ele><time>2022-03-27T07:50:14.000Z</time></trkpt><trkpt lon="5.54093" lat="51.154465"><ele>48.2</ele><time>2022-03-27T07:50:15.000Z</time></trkpt><trkpt lon="5.540836" lat="51.154454"><ele>48.2</ele><time>2022-03-27T07:50:16.000Z</time></trkpt><trkpt lon="5.54074" lat="51.154435"><ele>48.4</ele><time>2022-03-27T07:50:17.000Z</time></trkpt><trkpt lon="5.540645" lat="51.15442"><ele>48.4</ele><time>2022-03-27T07:50:18.000Z</time></trkpt><trkpt lon="5.540535" lat="51.154404"><ele>48.4</ele><time>2022-03-27T07:50:19.000Z</time></trkpt><trkpt lon="5.540441" lat="51.154389"><ele>48.4</ele><time>2022-03-27T07:50:20.000Z</time></trkpt><trkpt lon="5.540355" lat="51.154374"><ele>48.2</ele><time>2022-03-27T07:50:21.000Z</time></trkpt><trkpt lon="5.54027" lat="51.154359"><ele>48.2</ele><time>2022-03-27T07:50:22.000Z</time></trkpt><trkpt lon="5.540181" lat="51.154343"><ele>48</ele><time>2022-03-27T07:50:23.000Z</time></trkpt><trkpt lon="5.540102" lat="51.154332"><ele>48</ele><time>2022-03-27T07:50:24.000Z</time></trkpt><trkpt lon="5.540012" lat="51.15432"><ele>48</ele><time>2022-03-27T07:50:25.000Z</time></trkpt><trkpt lon="5.539929" lat="51.154302"><ele>48</ele><time>2022-03-27T07:50:26.000Z</time></trkpt><trkpt lon="5.539851" lat="51.154286"><ele>48</ele><time>2022-03-27T07:50:27.000Z</time></trkpt><trkpt lon="5.539774" lat="51.154271"><ele>47.8</ele><time>2022-03-27T07:50:28.000Z</time></trkpt><trkpt lon="5.53969" lat="51.154259"><ele>47.8</ele><time>2022-03-27T07:50:29.000Z</time></trkpt><trkpt lon="5.539603" lat="51.154248"><ele>47.8</ele><time>2022-03-27T07:50:30.000Z</time></trkpt><trkpt lon="5.539504" lat="51.154237"><ele>48</ele><time>2022-03-27T07:50:31.000Z</time></trkpt><trkpt lon="5.539396" lat="51.154225"><ele>47.8</ele><time>2022-03-27T07:50:32.000Z</time></trkpt><trkpt lon="5.539276" lat="51.154206"><ele>47.8</ele><time>2022-03-27T07:50:33.000Z</time></trkpt><trkpt lon="5.539161" lat="51.154191"><ele>47.6</ele><time>2022-03-27T07:50:34.000Z</time></trkpt><trkpt lon="5.539048" lat="51.154168"><ele>47.6</ele><time>2022-03-27T07:50:35.000Z</time></trkpt><trkpt lon="5.538927" lat="51.154142"><ele>47.6</ele><time>2022-03-27T07:50:36.000Z</time></trkpt><trkpt lon="5.538809" lat="51.154118"><ele>47.6</ele><time>2022-03-27T07:50:37.000Z</time></trkpt><trkpt lon="5.538706" lat="51.154085"><ele>47.6</ele><time>2022-03-27T07:50:38.000Z</time></trkpt><trkpt lon="5.538598" lat="51.154047"><ele>47.6</ele><time>2022-03-27T07:50:39.000Z</time></trkpt><trkpt lon="5.538486" lat="51.154014"><ele>47.6</ele><time>2022-03-27T07:50:40.000Z</time></trkpt><trkpt lon="5.53837" lat="51.153979"><ele>47.6</ele><time>2022-03-27T07:50:41.000Z</time></trkpt><trkpt lon="5.538231" lat="51.153934"><ele>47.6</ele><time>2022-03-27T07:50:42.000Z</time></trkpt><trkpt lon="5.53811" lat="51.153894"><ele>47.6</ele><time>2022-03-27T07:50:43.000Z</time></trkpt><trkpt lon="5.538011" lat="51.153867"><ele>47.8</ele><time>2022-03-27T07:50:44.000Z</time></trkpt><trkpt lon="5.537906" lat="51.153837"><ele>48</ele><time>2022-03-27T07:50:45.000Z</time></trkpt><trkpt lon="5.537791" lat="51.153803"><ele>48</ele><time>2022-03-27T07:50:46.000Z</time></trkpt><trkpt lon="5.537681" lat="51.153772"><ele>48.2</ele><time>2022-03-27T07:50:47.000Z</time></trkpt><trkpt lon="5.537567" lat="51.153745"><ele>48.2</ele><time>2022-03-27T07:50:48.000Z</time></trkpt><trkpt lon="5.537453" lat="51.153722"><ele>48.2</ele><time>2022-03-27T07:50:49.000Z</time></trkpt><trkpt lon="5.537339" lat="51.153706"><ele>48.2</ele><time>2022-03-27T07:50:50.000Z</time></trkpt><trkpt lon="5.537228" lat="51.153695"><ele>48.2</ele><time>2022-03-27T07:50:51.000Z</time></trkpt><trkpt lon="5.537107" lat="51.15368"><ele>48</ele><time>2022-03-27T07:50:52.000Z</time></trkpt><trkpt lon="5.536985" lat="51.153668"><ele>48</ele><time>2022-03-27T07:50:53.000Z</time></trkpt><trkpt lon="5.536866" lat="51.153667"><ele>48</ele><time>2022-03-27T07:50:54.000Z</time></trkpt><trkpt lon="5.536747" lat="51.153671"><ele>47.8</ele><time>2022-03-27T07:50:55.000Z</time></trkpt><trkpt lon="5.536626" lat="51.153678"><ele>47.8</ele><time>2022-03-27T07:50:56.000Z</time></trkpt><trkpt lon="5.536512" lat="51.153679"><ele>47.8</ele><time>2022-03-27T07:50:57.000Z</time></trkpt><trkpt lon="5.536397" lat="51.153675"><ele>47.8</ele><time>2022-03-27T07:50:58.000Z</time></trkpt><trkpt lon="5.53629" lat="51.153675"><ele>47.8</ele><time>2022-03-27T07:50:59.000Z</time></trkpt><trkpt lon="5.536166" lat="51.153675"><ele>47.6</ele><time>2022-03-27T07:51:00.000Z</time></trkpt><trkpt lon="5.536048" lat="51.153675"><ele>47.4</ele><time>2022-03-27T07:51:01.000Z</time></trkpt><trkpt lon="5.53593" lat="51.153675"><ele>47.4</ele><time>2022-03-27T07:51:02.000Z</time></trkpt><trkpt lon="5.535814" lat="51.153675"><ele>47.6</ele><time>2022-03-27T07:51:03.000Z</time></trkpt><trkpt lon="5.5357" lat="51.153671"><ele>47.6</ele><time>2022-03-27T07:51:04.000Z</time></trkpt><trkpt lon="5.535599" lat="51.153665"><ele>47.6</ele><time>2022-03-27T07:51:05.000Z</time></trkpt><trkpt lon="5.53548" lat="51.15366"><ele>47.6</ele><time>2022-03-27T07:51:06.000Z</time></trkpt><trkpt lon="5.535371" lat="51.153653"><ele>47.8</ele><time>2022-03-27T07:51:07.000Z</time></trkpt><trkpt lon="5.535259" lat="51.153649"><ele>47.8</ele><time>2022-03-27T07:51:08.000Z</time></trkpt><trkpt lon="5.53514" lat="51.153641"><ele>47.8</ele><time>2022-03-27T07:51:09.000Z</time></trkpt><trkpt lon="5.535025" lat="51.153637"><ele>47.8</ele><time>2022-03-27T07:51:10.000Z</time></trkpt><trkpt lon="5.534901" lat="51.153633"><ele>47.6</ele><time>2022-03-27T07:51:11.000Z</time></trkpt><trkpt lon="5.534781" lat="51.15363"><ele>47.6</ele><time>2022-03-27T07:51:12.000Z</time></trkpt><trkpt lon="5.534657" lat="51.153629"><ele>47.4</ele><time>2022-03-27T07:51:13.000Z</time></trkpt><trkpt lon="5.534543" lat="51.153633"><ele>47.2</ele><time>2022-03-27T07:51:14.000Z</time></trkpt><trkpt lon="5.534427" lat="51.153633"><ele>47</ele><time>2022-03-27T07:51:15.000Z</time></trkpt><trkpt lon="5.53431" lat="51.153637"><ele>46.8</ele><time>2022-03-27T07:51:16.000Z</time></trkpt><trkpt lon="5.53419" lat="51.153641"><ele>46.6</ele><time>2022-03-27T07:51:17.000Z</time></trkpt><trkpt lon="5.534071" lat="51.153641"><ele>46.6</ele><time>2022-03-27T07:51:18.000Z</time></trkpt><trkpt lon="5.533959" lat="51.153641"><ele>46.6</ele><time>2022-03-27T07:51:19.000Z</time></trkpt><trkpt lon="5.533847" lat="51.153637"><ele>46.4</ele><time>2022-03-27T07:51:20.000Z</time></trkpt><trkpt lon="5.533731" lat="51.153637"><ele>46.4</ele><time>2022-03-27T07:51:21.000Z</time></trkpt><trkpt lon="5.533615" lat="51.153633"><ele>46.4</ele><time>2022-03-27T07:51:22.000Z</time></trkpt><trkpt lon="5.533494" lat="51.153629"><ele>46.6</ele><time>2022-03-27T07:51:23.000Z</time></trkpt><trkpt lon="5.533379" lat="51.153626"><ele>46.6</ele><time>2022-03-27T07:51:24.000Z</time></trkpt><trkpt lon="5.53326" lat="51.153622"><ele>46.6</ele><time>2022-03-27T07:51:25.000Z</time></trkpt><trkpt lon="5.533141" lat="51.153618"><ele>46.8</ele><time>2022-03-27T07:51:26.000Z</time></trkpt><trkpt lon="5.533024" lat="51.153611"><ele>46.8</ele><time>2022-03-27T07:51:27.000Z</time></trkpt><trkpt lon="5.532907" lat="51.153603"><ele>47</ele><time>2022-03-27T07:51:28.000Z</time></trkpt><trkpt lon="5.532791" lat="51.153592"><ele>47</ele><time>2022-03-27T07:51:29.000Z</time></trkpt><trkpt lon="5.532677" lat="51.153577"><ele>47</ele><time>2022-03-27T07:51:30.000Z</time></trkpt><trkpt lon="5.53257" lat="51.153562"><ele>47.2</ele><time>2022-03-27T07:51:31.000Z</time></trkpt><trkpt lon="5.532467" lat="51.153543"><ele>47.2</ele><time>2022-03-27T07:51:32.000Z</time></trkpt><trkpt lon="5.532364" lat="51.153524"><ele>47.2</ele><time>2022-03-27T07:51:33.000Z</time></trkpt><trkpt lon="5.532259" lat="51.153505"><ele>47.2</ele><time>2022-03-27T07:51:34.000Z</time></trkpt><trkpt lon="5.532153" lat="51.153489"><ele>47.2</ele><time>2022-03-27T07:51:35.000Z</time></trkpt><trkpt lon="5.532047" lat="51.153474"><ele>47.4</ele><time>2022-03-27T07:51:36.000Z</time></trkpt><trkpt lon="5.531937" lat="51.153462"><ele>47.4</ele><time>2022-03-27T07:51:37.000Z</time></trkpt><trkpt lon="5.531834" lat="51.153447"><ele>47.4</ele><time>2022-03-27T07:51:38.000Z</time></trkpt><trkpt lon="5.531726" lat="51.153439"><ele>47.4</ele><time>2022-03-27T07:51:39.000Z</time></trkpt><trkpt lon="5.531619" lat="51.153424"><ele>47.4</ele><time>2022-03-27T07:51:40.000Z</time></trkpt><trkpt lon="5.531506" lat="51.153409"><ele>47.4</ele><time>2022-03-27T07:51:41.000Z</time></trkpt><trkpt lon="5.531398" lat="51.153394"><ele>47.2</ele><time>2022-03-27T07:51:42.000Z</time></trkpt><trkpt lon="5.531278" lat="51.153378"><ele>47.2</ele><time>2022-03-27T07:51:43.000Z</time></trkpt><trkpt lon="5.531165" lat="51.153363"><ele>47.2</ele><time>2022-03-27T07:51:44.000Z</time></trkpt><trkpt lon="5.531054" lat="51.153355"><ele>47.2</ele><time>2022-03-27T07:51:45.000Z</time></trkpt><trkpt lon="5.530948" lat="51.153344"><ele>47.2</ele><time>2022-03-27T07:51:46.000Z</time></trkpt><trkpt lon="5.530851" lat="51.153332"><ele>47.4</ele><time>2022-03-27T07:51:47.000Z</time></trkpt><trkpt lon="5.530766" lat="51.153325"><ele>47.4</ele><time>2022-03-27T07:51:48.000Z</time></trkpt><trkpt lon="5.530676" lat="51.153317"><ele>47.4</ele><time>2022-03-27T07:51:49.000Z</time></trkpt><trkpt lon="5.53059" lat="51.153309"><ele>47.4</ele><time>2022-03-27T07:51:50.000Z</time></trkpt><trkpt lon="5.530506" lat="51.153305"><ele>47.6</ele><time>2022-03-27T07:51:51.000Z</time></trkpt><trkpt lon="5.530423" lat="51.153305"><ele>47.6</ele><time>2022-03-27T07:51:52.000Z</time></trkpt><trkpt lon="5.530332" lat="51.153301"><ele>47.8</ele><time>2022-03-27T07:51:53.000Z</time></trkpt><trkpt lon="5.530244" lat="51.153301"><ele>48</ele><time>2022-03-27T07:51:54.000Z</time></trkpt><trkpt lon="5.530153" lat="51.153298"><ele>48</ele><time>2022-03-27T07:51:55.000Z</time></trkpt><trkpt lon="5.530035" lat="51.153287"><ele>48</ele><time>2022-03-27T07:51:56.000Z</time></trkpt><trkpt lon="5.529927" lat="51.153279"><ele>48.2</ele><time>2022-03-27T07:51:57.000Z</time></trkpt><trkpt lon="5.529816" lat="51.153271"><ele>48.2</ele><time>2022-03-27T07:51:58.000Z</time></trkpt><trkpt lon="5.529705" lat="51.153267"><ele>48.2</ele><time>2022-03-27T07:51:59.000Z</time></trkpt><trkpt lon="5.529597" lat="51.153263"><ele>48.2</ele><time>2022-03-27T07:52:00.000Z</time></trkpt><trkpt lon="5.529484" lat="51.153263"><ele>48.4</ele><time>2022-03-27T07:52:01.000Z</time></trkpt><trkpt lon="5.529375" lat="51.153263"><ele>48.4</ele><time>2022-03-27T07:52:02.000Z</time></trkpt><trkpt lon="5.529264" lat="51.153263"><ele>48.6</ele><time>2022-03-27T07:52:03.000Z</time></trkpt><trkpt lon="5.529162" lat="51.15327"><ele>48.6</ele><time>2022-03-27T07:52:04.000Z</time></trkpt><trkpt lon="5.529072" lat="51.153285"><ele>48.8</ele><time>2022-03-27T07:52:05.000Z</time></trkpt><trkpt lon="5.528986" lat="51.153297"><ele>48.8</ele><time>2022-03-27T07:52:06.000Z</time></trkpt><trkpt lon="5.528916" lat="51.153305"><ele>48.8</ele><time>2022-03-27T07:52:07.000Z</time></trkpt><trkpt lon="5.528854" lat="51.153309"><ele>48.6</ele><time>2022-03-27T07:52:08.000Z</time></trkpt><trkpt lon="5.528782" lat="51.153316"><ele>48.6</ele><time>2022-03-27T07:52:09.000Z</time></trkpt><trkpt lon="5.528723" lat="51.153324"><ele>48.6</ele><time>2022-03-27T07:52:10.000Z</time></trkpt><trkpt lon="5.528677" lat="51.153346"><ele>48.6</ele><time>2022-03-27T07:52:11.000Z</time></trkpt><trkpt lon="5.528655" lat="51.153376"><ele>48.4</ele><time>2022-03-27T07:52:12.000Z</time></trkpt><trkpt lon="5.528649" lat="51.153407"><ele>48.4</ele><time>2022-03-27T07:52:13.000Z</time></trkpt><trkpt lon="5.528664" lat="51.153444"><ele>48.4</ele><time>2022-03-27T07:52:14.000Z</time></trkpt><trkpt lon="5.528682" lat="51.153486"><ele>48.2</ele><time>2022-03-27T07:52:15.000Z</time></trkpt><trkpt lon="5.528704" lat="51.153528"><ele>48.2</ele><time>2022-03-27T07:52:16.000Z</time></trkpt><trkpt lon="5.528738" lat="51.153577"><ele>48</ele><time>2022-03-27T07:52:17.000Z</time></trkpt><trkpt lon="5.528783" lat="51.153626"><ele>48</ele><time>2022-03-27T07:52:18.000Z</time></trkpt><trkpt lon="5.528837" lat="51.153687"><ele>47.8</ele><time>2022-03-27T07:52:19.000Z</time></trkpt><trkpt lon="5.528897" lat="51.153737"><ele>47.8</ele><time>2022-03-27T07:52:20.000Z</time></trkpt><trkpt lon="5.528962" lat="51.153791"><ele>47.6</ele><time>2022-03-27T07:52:21.000Z</time></trkpt><trkpt lon="5.529028" lat="51.153844"><ele>47.6</ele><time>2022-03-27T07:52:22.000Z</time></trkpt><trkpt lon="5.529095" lat="51.153901"><ele>47.4</ele><time>2022-03-27T07:52:23.000Z</time></trkpt><trkpt lon="5.529155" lat="51.153954"><ele>47</ele><time>2022-03-27T07:52:24.000Z</time></trkpt><trkpt lon="5.529208" lat="51.154007"><ele>46.8</ele><time>2022-03-27T07:52:25.000Z</time></trkpt><trkpt lon="5.529273" lat="51.154065"><ele>46.8</ele><time>2022-03-27T07:52:26.000Z</time></trkpt><trkpt lon="5.529336" lat="51.154123"><ele>46.8</ele><time>2022-03-27T07:52:27.000Z</time></trkpt><trkpt lon="5.529399" lat="51.154183"><ele>46.8</ele><time>2022-03-27T07:52:28.000Z</time></trkpt><trkpt lon="5.52946" lat="51.154237"><ele>47</ele><time>2022-03-27T07:52:29.000Z</time></trkpt><trkpt lon="5.52952" lat="51.15429"><ele>47</ele><time>2022-03-27T07:52:30.000Z</time></trkpt><trkpt lon="5.52958" lat="51.154344"><ele>47</ele><time>2022-03-27T07:52:31.000Z</time></trkpt><trkpt lon="5.529639" lat="51.154412"><ele>47.2</ele><time>2022-03-27T07:52:32.000Z</time></trkpt><trkpt lon="5.529695" lat="51.15448"><ele>47.2</ele><time>2022-03-27T07:52:33.000Z</time></trkpt><trkpt lon="5.529756" lat="51.154551"><ele>47.2</ele><time>2022-03-27T07:52:34.000Z</time></trkpt><trkpt lon="5.529819" lat="51.154622"><ele>47.2</ele><time>2022-03-27T07:52:35.000Z</time></trkpt><trkpt lon="5.529882" lat="51.154694"><ele>47</ele><time>2022-03-27T07:52:36.000Z</time></trkpt><trkpt lon="5.529944" lat="51.154767"><ele>47</ele><time>2022-03-27T07:52:37.000Z</time></trkpt><trkpt lon="5.530004" lat="51.154837"><ele>46.8</ele><time>2022-03-27T07:52:38.000Z</time></trkpt><trkpt lon="5.53007" lat="51.154904"><ele>46.6</ele><time>2022-03-27T07:52:39.000Z</time></trkpt><trkpt lon="5.530135" lat="51.154972"><ele>46.4</ele><time>2022-03-27T07:52:40.000Z</time></trkpt><trkpt lon="5.530202" lat="51.155034"><ele>46.4</ele><time>2022-03-27T07:52:41.000Z</time></trkpt><trkpt lon="5.530264" lat="51.155098"><ele>46.4</ele><time>2022-03-27T07:52:42.000Z</time></trkpt><trkpt lon="5.530326" lat="51.155153"><ele>46.6</ele><time>2022-03-27T07:52:43.000Z</time></trkpt><trkpt lon="5.530389" lat="51.155213"><ele>46.6</ele><time>2022-03-27T07:52:44.000Z</time></trkpt><trkpt lon="5.530448" lat="51.155262"><ele>46.6</ele><time>2022-03-27T07:52:45.000Z</time></trkpt><trkpt lon="5.530511" lat="51.155316"><ele>46.6</ele><time>2022-03-27T07:52:46.000Z</time></trkpt><trkpt lon="5.530576" lat="51.155373"><ele>46.6</ele><time>2022-03-27T07:52:47.000Z</time></trkpt><trkpt lon="5.530638" lat="51.155431"><ele>46.6</ele><time>2022-03-27T07:52:48.000Z</time></trkpt><trkpt lon="5.530707" lat="51.155488"><ele>46.6</ele><time>2022-03-27T07:52:49.000Z</time></trkpt><trkpt lon="5.53078" lat="51.155545"><ele>46.4</ele><time>2022-03-27T07:52:50.000Z</time></trkpt><trkpt lon="5.53086" lat="51.155602"><ele>46.4</ele><time>2022-03-27T07:52:51.000Z</time></trkpt><trkpt lon="5.530936" lat="51.155659"><ele>46.4</ele><time>2022-03-27T07:52:52.000Z</time></trkpt><trkpt lon="5.531017" lat="51.155713"><ele>46.2</ele><time>2022-03-27T07:52:53.000Z</time></trkpt><trkpt lon="5.531101" lat="51.155774"><ele>46</ele><time>2022-03-27T07:52:54.000Z</time></trkpt><trkpt lon="5.531181" lat="51.155831"><ele>45.8</ele><time>2022-03-27T07:52:55.000Z</time></trkpt><trkpt lon="5.531259" lat="51.155886"><ele>45.8</ele><time>2022-03-27T07:52:56.000Z</time></trkpt><trkpt lon="5.531347" lat="51.155946"><ele>45.6</ele><time>2022-03-27T07:52:57.000Z</time></trkpt><trkpt lon="5.53143" lat="51.156006"><ele>45.6</ele><time>2022-03-27T07:52:58.000Z</time></trkpt><trkpt lon="5.531511" lat="51.156071"><ele>45.6</ele><time>2022-03-27T07:52:59.000Z</time></trkpt><trkpt lon="5.531585" lat="51.156133"><ele>45.6</ele><time>2022-03-27T07:53:00.000Z</time></trkpt><trkpt lon="5.531657" lat="51.156193"><ele>45.8</ele><time>2022-03-27T07:53:01.000Z</time></trkpt><trkpt lon="5.531724" lat="51.156257"><ele>45.8</ele><time>2022-03-27T07:53:02.000Z</time></trkpt><trkpt lon="5.53179" lat="51.156323"><ele>46</ele><time>2022-03-27T07:53:03.000Z</time></trkpt><trkpt lon="5.531853" lat="51.156387"><ele>46.2</ele><time>2022-03-27T07:53:04.000Z</time></trkpt><trkpt lon="5.53191" lat="51.156449"><ele>46.2</ele><time>2022-03-27T07:53:05.000Z</time></trkpt><trkpt lon="5.531975" lat="51.15651"><ele>46</ele><time>2022-03-27T07:53:06.000Z</time></trkpt><trkpt lon="5.532044" lat="51.156576"><ele>46.2</ele><time>2022-03-27T07:53:07.000Z</time></trkpt><trkpt lon="5.532109" lat="51.15664"><ele>46.2</ele><time>2022-03-27T07:53:08.000Z</time></trkpt><trkpt lon="5.53217" lat="51.156704"><ele>46</ele><time>2022-03-27T07:53:09.000Z</time></trkpt><trkpt lon="5.532227" lat="51.156764"><ele>45.8</ele><time>2022-03-27T07:53:10.000Z</time></trkpt><trkpt lon="5.532289" lat="51.156827"><ele>45.8</ele><time>2022-03-27T07:53:11.000Z</time></trkpt><trkpt lon="5.532347" lat="51.156887"><ele>45.6</ele><time>2022-03-27T07:53:12.000Z</time></trkpt><trkpt lon="5.532407" lat="51.156949"><ele>45.6</ele><time>2022-03-27T07:53:13.000Z</time></trkpt><trkpt lon="5.532465" lat="51.157006"><ele>45.4</ele><time>2022-03-27T07:53:14.000Z</time></trkpt><trkpt lon="5.532521" lat="51.157063"><ele>45.4</ele><time>2022-03-27T07:53:15.000Z</time></trkpt><trkpt lon="5.532578" lat="51.157124"><ele>45.4</ele><time>2022-03-27T07:53:16.000Z</time></trkpt><trkpt lon="5.532635" lat="51.157181"><ele>45.4</ele><time>2022-03-27T07:53:17.000Z</time></trkpt><trkpt lon="5.532691" lat="51.157242"><ele>45.2</ele><time>2022-03-27T07:53:18.000Z</time></trkpt><trkpt lon="5.532751" lat="51.1573"><ele>45</ele><time>2022-03-27T07:53:19.000Z</time></trkpt><trkpt lon="5.53281" lat="51.157356"><ele>45</ele><time>2022-03-27T07:53:20.000Z</time></trkpt><trkpt lon="5.532869" lat="51.157417"><ele>45</ele><time>2022-03-27T07:53:21.000Z</time></trkpt><trkpt lon="5.532928" lat="51.157478"><ele>45.2</ele><time>2022-03-27T07:53:22.000Z</time></trkpt><trkpt lon="5.532986" lat="51.157539"><ele>45.4</ele><time>2022-03-27T07:53:23.000Z</time></trkpt><trkpt lon="5.533042" lat="51.157596"><ele>45.4</ele><time>2022-03-27T07:53:24.000Z</time></trkpt><trkpt lon="5.533102" lat="51.157658"><ele>45.6</ele><time>2022-03-27T07:53:25.000Z</time></trkpt><trkpt lon="5.533157" lat="51.157719"><ele>45.8</ele><time>2022-03-27T07:53:26.000Z</time></trkpt><trkpt lon="5.533216" lat="51.157781"><ele>45.8</ele><time>2022-03-27T07:53:27.000Z</time></trkpt><trkpt lon="5.533273" lat="51.157837"><ele>45.8</ele><time>2022-03-27T07:53:28.000Z</time></trkpt><trkpt lon="5.533331" lat="51.157897"><ele>46</ele><time>2022-03-27T07:53:29.000Z</time></trkpt><trkpt lon="5.53339" lat="51.157956"><ele>46</ele><time>2022-03-27T07:53:30.000Z</time></trkpt><trkpt lon="5.533444" lat="51.158017"><ele>46</ele><time>2022-03-27T07:53:31.000Z</time></trkpt><trkpt lon="5.533492" lat="51.158077"><ele>46</ele><time>2022-03-27T07:53:32.000Z</time></trkpt><trkpt lon="5.533542" lat="51.158138"><ele>46</ele><time>2022-03-27T07:53:33.000Z</time></trkpt><trkpt lon="5.533596" lat="51.158196"><ele>46</ele><time>2022-03-27T07:53:34.000Z</time></trkpt><trkpt lon="5.53365" lat="51.158256"><ele>46</ele><time>2022-03-27T07:53:35.000Z</time></trkpt><trkpt lon="5.533701" lat="51.158315"><ele>46.2</ele><time>2022-03-27T07:53:36.000Z</time></trkpt><trkpt lon="5.533751" lat="51.158372"><ele>46.4</ele><time>2022-03-27T07:53:37.000Z</time></trkpt><trkpt lon="5.533806" lat="51.158432"><ele>46.4</ele><time>2022-03-27T07:53:38.000Z</time></trkpt><trkpt lon="5.533864" lat="51.15849"><ele>46.6</ele><time>2022-03-27T07:53:39.000Z</time></trkpt><trkpt lon="5.533917" lat="51.158551"><ele>46.8</ele><time>2022-03-27T07:53:40.000Z</time></trkpt><trkpt lon="5.533972" lat="51.158612"><ele>46.6</ele><time>2022-03-27T07:53:41.000Z</time></trkpt><trkpt lon="5.534029" lat="51.158673"><ele>46.6</ele><time>2022-03-27T07:53:42.000Z</time></trkpt><trkpt lon="5.534087" lat="51.158734"><ele>46.4</ele><time>2022-03-27T07:53:43.000Z</time></trkpt><trkpt lon="5.534142" lat="51.158795"><ele>46.4</ele><time>2022-03-27T07:53:44.000Z</time></trkpt><trkpt lon="5.534196" lat="51.158851"><ele>46.2</ele><time>2022-03-27T07:53:45.000Z</time></trkpt><trkpt lon="5.534253" lat="51.158912"><ele>46.2</ele><time>2022-03-27T07:53:46.000Z</time></trkpt><trkpt lon="5.534307" lat="51.158971"><ele>46.2</ele><time>2022-03-27T07:53:47.000Z</time></trkpt><trkpt lon="5.534367" lat="51.159032"><ele>46.2</ele><time>2022-03-27T07:53:48.000Z</time></trkpt><trkpt lon="5.534425" lat="51.159092"><ele>46.4</ele><time>2022-03-27T07:53:49.000Z</time></trkpt><trkpt lon="5.534485" lat="51.159153"><ele>46.4</ele><time>2022-03-27T07:53:50.000Z</time></trkpt><trkpt lon="5.534543" lat="51.159212"><ele>46.4</ele><time>2022-03-27T07:53:51.000Z</time></trkpt><trkpt lon="5.534605" lat="51.159276"><ele>46.4</ele><time>2022-03-27T07:53:52.000Z</time></trkpt><trkpt lon="5.534663" lat="51.159337"><ele>46.4</ele><time>2022-03-27T07:53:53.000Z</time></trkpt><trkpt lon="5.534722" lat="51.159397"><ele>46.6</ele><time>2022-03-27T07:53:54.000Z</time></trkpt><trkpt lon="5.534783" lat="51.159455"><ele>46.6</ele><time>2022-03-27T07:53:55.000Z</time></trkpt><trkpt lon="5.534845" lat="51.159516"><ele>46.6</ele><time>2022-03-27T07:53:56.000Z</time></trkpt><trkpt lon="5.534907" lat="51.159573"><ele>46.8</ele><time>2022-03-27T07:53:57.000Z</time></trkpt><trkpt lon="5.534968" lat="51.15963"><ele>46.8</ele><time>2022-03-27T07:53:58.000Z</time></trkpt><trkpt lon="5.535032" lat="51.159691"><ele>46.8</ele><time>2022-03-27T07:53:59.000Z</time></trkpt><trkpt lon="5.535094" lat="51.159748"><ele>46.8</ele><time>2022-03-27T07:54:00.000Z</time></trkpt><trkpt lon="5.535157" lat="51.159807"><ele>46.6</ele><time>2022-03-27T07:54:01.000Z</time></trkpt><trkpt lon="5.535221" lat="51.159865"><ele>46.4</ele><time>2022-03-27T07:54:02.000Z</time></trkpt><trkpt lon="5.535281" lat="51.15992"><ele>46.6</ele><time>2022-03-27T07:54:03.000Z</time></trkpt><trkpt lon="5.535332" lat="51.159977"><ele>46.8</ele><time>2022-03-27T07:54:04.000Z</time></trkpt><trkpt lon="5.535376" lat="51.160031"><ele>47</ele><time>2022-03-27T07:54:05.000Z</time></trkpt><trkpt lon="5.535417" lat="51.160089"><ele>47.2</ele><time>2022-03-27T07:54:06.000Z</time></trkpt><trkpt lon="5.53545" lat="51.160146"><ele>47</ele><time>2022-03-27T07:54:07.000Z</time></trkpt><trkpt lon="5.535477" lat="51.160206"><ele>46.8</ele><time>2022-03-27T07:54:08.000Z</time></trkpt><trkpt lon="5.535489" lat="51.160271"><ele>46.6</ele><time>2022-03-27T07:54:09.000Z</time></trkpt><trkpt lon="5.535485" lat="51.160335"><ele>46.4</ele><time>2022-03-27T07:54:10.000Z</time></trkpt><trkpt lon="5.535469" lat="51.160403"><ele>46.2</ele><time>2022-03-27T07:54:11.000Z</time></trkpt><trkpt lon="5.535445" lat="51.160468"><ele>46.2</ele><time>2022-03-27T07:54:12.000Z</time></trkpt><trkpt lon="5.535417" lat="51.160534"><ele>46.2</ele><time>2022-03-27T07:54:13.000Z</time></trkpt><trkpt lon="5.535383" lat="51.160599"><ele>46.2</ele><time>2022-03-27T07:54:14.000Z</time></trkpt><trkpt lon="5.53535" lat="51.160664"><ele>46.2</ele><time>2022-03-27T07:54:15.000Z</time></trkpt><trkpt lon="5.535318" lat="51.160728"><ele>46.2</ele><time>2022-03-27T07:54:16.000Z</time></trkpt><trkpt lon="5.535287" lat="51.160796"><ele>46.2</ele><time>2022-03-27T07:54:17.000Z</time></trkpt><trkpt lon="5.535254" lat="51.160861"><ele>46.2</ele><time>2022-03-27T07:54:18.000Z</time></trkpt><trkpt lon="5.53522" lat="51.160925"><ele>46.2</ele><time>2022-03-27T07:54:19.000Z</time></trkpt><trkpt lon="5.535182" lat="51.160995"><ele>46</ele><time>2022-03-27T07:54:20.000Z</time></trkpt><trkpt lon="5.535144" lat="51.16106"><ele>46</ele><time>2022-03-27T07:54:21.000Z</time></trkpt><trkpt lon="5.535106" lat="51.161124"><ele>46</ele><time>2022-03-27T07:54:22.000Z</time></trkpt><trkpt lon="5.535071" lat="51.161194"><ele>46</ele><time>2022-03-27T07:54:23.000Z</time></trkpt><trkpt lon="5.535036" lat="51.161258"><ele>46</ele><time>2022-03-27T07:54:24.000Z</time></trkpt><trkpt lon="5.534999" lat="51.161323"><ele>46</ele><time>2022-03-27T07:54:25.000Z</time></trkpt><trkpt lon="5.534965" lat="51.161392"><ele>46</ele><time>2022-03-27T07:54:26.000Z</time></trkpt><trkpt lon="5.534933" lat="51.161458"><ele>46</ele><time>2022-03-27T07:54:27.000Z</time></trkpt><trkpt lon="5.534902" lat="51.161526"><ele>46</ele><time>2022-03-27T07:54:28.000Z</time></trkpt><trkpt lon="5.53487" lat="51.16159"><ele>46</ele><time>2022-03-27T07:54:29.000Z</time></trkpt><trkpt lon="5.53484" lat="51.161655"><ele>46</ele><time>2022-03-27T07:54:30.000Z</time></trkpt><trkpt lon="5.534807" lat="51.161721"><ele>46.2</ele><time>2022-03-27T07:54:31.000Z</time></trkpt><trkpt lon="5.534774" lat="51.161781"><ele>46</ele><time>2022-03-27T07:54:32.000Z</time></trkpt><trkpt lon="5.534745" lat="51.161843"><ele>46</ele><time>2022-03-27T07:54:33.000Z</time></trkpt><trkpt lon="5.534717" lat="51.161899"><ele>46</ele><time>2022-03-27T07:54:34.000Z</time></trkpt><trkpt lon="5.534689" lat="51.161953"><ele>46</ele><time>2022-03-27T07:54:35.000Z</time></trkpt><trkpt lon="5.534661" lat="51.162007"><ele>46</ele><time>2022-03-27T07:54:36.000Z</time></trkpt><trkpt lon="5.534636" lat="51.162058"><ele>46.2</ele><time>2022-03-27T07:54:37.000Z</time></trkpt><trkpt lon="5.534613" lat="51.162107"><ele>46.2</ele><time>2022-03-27T07:54:38.000Z</time></trkpt><trkpt lon="5.534588" lat="51.162152"><ele>46.4</ele><time>2022-03-27T07:54:39.000Z</time></trkpt><trkpt lon="5.534566" lat="51.162189"><ele>46.8</ele><time>2022-03-27T07:54:40.000Z</time></trkpt><trkpt lon="5.534536" lat="51.162219"><ele>47</ele><time>2022-03-27T07:54:41.000Z</time></trkpt><trkpt lon="5.534492" lat="51.162235"><ele>47.2</ele><time>2022-03-27T07:54:42.000Z</time></trkpt><trkpt lon="5.534431" lat="51.162235"><ele>47.2</ele><time>2022-03-27T07:54:43.000Z</time></trkpt><trkpt lon="5.534363" lat="51.162232"><ele>47.4</ele><time>2022-03-27T07:54:44.000Z</time></trkpt><trkpt lon="5.534297" lat="51.162221"><ele>47.4</ele><time>2022-03-27T07:54:45.000Z</time></trkpt><trkpt lon="5.534235" lat="51.162192"><ele>47.4</ele><time>2022-03-27T07:54:46.000Z</time></trkpt><trkpt lon="5.534167" lat="51.162155"><ele>47.4</ele><time>2022-03-27T07:54:47.000Z</time></trkpt><trkpt lon="5.534088" lat="51.162112"><ele>47.6</ele><time>2022-03-27T07:54:48.000Z</time></trkpt><trkpt lon="5.534009" lat="51.162067"><ele>47.6</ele><time>2022-03-27T07:54:49.000Z</time></trkpt><trkpt lon="5.533929" lat="51.162025"><ele>47.6</ele><time>2022-03-27T07:54:50.000Z</time></trkpt><trkpt lon="5.533851" lat="51.161978"><ele>47.6</ele><time>2022-03-27T07:54:51.000Z</time></trkpt><trkpt lon="5.533776" lat="51.161937"><ele>47.6</ele><time>2022-03-27T07:54:52.000Z</time></trkpt><trkpt lon="5.533705" lat="51.161898"><ele>47.6</ele><time>2022-03-27T07:54:53.000Z</time></trkpt><trkpt lon="5.53364" lat="51.16186"><ele>47.6</ele><time>2022-03-27T07:54:54.000Z</time></trkpt><trkpt lon="5.53358" lat="51.161829"><ele>47.6</ele><time>2022-03-27T07:54:55.000Z</time></trkpt><trkpt lon="5.533514" lat="51.161813"><ele>47.6</ele><time>2022-03-27T07:54:56.000Z</time></trkpt><trkpt lon="5.533448" lat="51.161815"><ele>47.4</ele><time>2022-03-27T07:54:57.000Z</time></trkpt><trkpt lon="5.533391" lat="51.161837"><ele>47.4</ele><time>2022-03-27T07:54:58.000Z</time></trkpt><trkpt lon="5.533337" lat="51.161874"><ele>47.2</ele><time>2022-03-27T07:54:59.000Z</time></trkpt><trkpt lon="5.533287" lat="51.161926"><ele>47.2</ele><time>2022-03-27T07:55:00.000Z</time></trkpt><trkpt lon="5.533235" lat="51.161991"><ele>47.2</ele><time>2022-03-27T07:55:01.000Z</time></trkpt><trkpt lon="5.533179" lat="51.162059"><ele>47.4</ele><time>2022-03-27T07:55:02.000Z</time></trkpt><trkpt lon="5.533121" lat="51.162128"><ele>47.2</ele><time>2022-03-27T07:55:03.000Z</time></trkpt><trkpt lon="5.533059" lat="51.162196"><ele>47.2</ele><time>2022-03-27T07:55:04.000Z</time></trkpt><trkpt lon="5.532999" lat="51.162265"><ele>46.8</ele><time>2022-03-27T07:55:05.000Z</time></trkpt><trkpt lon="5.532943" lat="51.162331"><ele>46.6</ele><time>2022-03-27T07:55:06.000Z</time></trkpt><trkpt lon="5.532886" lat="51.1624"><ele>46.4</ele><time>2022-03-27T07:55:07.000Z</time></trkpt><trkpt lon="5.532833" lat="51.162465"><ele>46.2</ele><time>2022-03-27T07:55:08.000Z</time></trkpt><trkpt lon="5.532779" lat="51.162528"><ele>46.2</ele><time>2022-03-27T07:55:09.000Z</time></trkpt><trkpt lon="5.532724" lat="51.162593"><ele>46.4</ele><time>2022-03-27T07:55:10.000Z</time></trkpt><trkpt lon="5.53267" lat="51.162659"><ele>46.4</ele><time>2022-03-27T07:55:11.000Z</time></trkpt><trkpt lon="5.532617" lat="51.162719"><ele>46.6</ele><time>2022-03-27T07:55:12.000Z</time></trkpt><trkpt lon="5.532562" lat="51.162784"><ele>46.8</ele><time>2022-03-27T07:55:13.000Z</time></trkpt><trkpt lon="5.532507" lat="51.162845"><ele>46.8</ele><time>2022-03-27T07:55:14.000Z</time></trkpt><trkpt lon="5.532456" lat="51.162902"><ele>46.8</ele><time>2022-03-27T07:55:15.000Z</time></trkpt><trkpt lon="5.532399" lat="51.162967"><ele>46.6</ele><time>2022-03-27T07:55:16.000Z</time></trkpt><trkpt lon="5.532348" lat="51.163032"><ele>46.4</ele><time>2022-03-27T07:55:17.000Z</time></trkpt><trkpt lon="5.532296" lat="51.163093"><ele>46.4</ele><time>2022-03-27T07:55:18.000Z</time></trkpt><trkpt lon="5.532242" lat="51.163154"><ele>46.2</ele><time>2022-03-27T07:55:19.000Z</time></trkpt><trkpt lon="5.532189" lat="51.163215"><ele>46.2</ele><time>2022-03-27T07:55:20.000Z</time></trkpt><trkpt lon="5.532137" lat="51.163276"><ele>46.2</ele><time>2022-03-27T07:55:21.000Z</time></trkpt><trkpt lon="5.532087" lat="51.163334"><ele>46.2</ele><time>2022-03-27T07:55:22.000Z</time></trkpt><trkpt lon="5.532035" lat="51.163391"><ele>46.2</ele><time>2022-03-27T07:55:23.000Z</time></trkpt><trkpt lon="5.531981" lat="51.163452"><ele>46.2</ele><time>2022-03-27T07:55:24.000Z</time></trkpt><trkpt lon="5.531929" lat="51.163513"><ele>46.4</ele><time>2022-03-27T07:55:25.000Z</time></trkpt><trkpt lon="5.531874" lat="51.163577"><ele>46.6</ele><time>2022-03-27T07:55:26.000Z</time></trkpt><trkpt lon="5.531818" lat="51.163638"><ele>46.6</ele><time>2022-03-27T07:55:27.000Z</time></trkpt><trkpt lon="5.531759" lat="51.163703"><ele>46.8</ele><time>2022-03-27T07:55:28.000Z</time></trkpt><trkpt lon="5.531699" lat="51.163768"><ele>47</ele><time>2022-03-27T07:55:29.000Z</time></trkpt><trkpt lon="5.531642" lat="51.163828"><ele>47.2</ele><time>2022-03-27T07:55:30.000Z</time></trkpt><trkpt lon="5.531584" lat="51.163894"><ele>47.2</ele><time>2022-03-27T07:55:31.000Z</time></trkpt><trkpt lon="5.531527" lat="51.163955"><ele>47.4</ele><time>2022-03-27T07:55:32.000Z</time></trkpt><trkpt lon="5.531474" lat="51.164013"><ele>47.4</ele><time>2022-03-27T07:55:33.000Z</time></trkpt><trkpt lon="5.531424" lat="51.164074"><ele>47.4</ele><time>2022-03-27T07:55:34.000Z</time></trkpt><trkpt lon="5.531375" lat="51.164134"><ele>47.2</ele><time>2022-03-27T07:55:35.000Z</time></trkpt><trkpt lon="5.53133" lat="51.164195"><ele>47.4</ele><time>2022-03-27T07:55:36.000Z</time></trkpt><trkpt lon="5.531285" lat="51.164254"><ele>47.4</ele><time>2022-03-27T07:55:37.000Z</time></trkpt><trkpt lon="5.531239" lat="51.164307"><ele>47.6</ele><time>2022-03-27T07:55:38.000Z</time></trkpt><trkpt lon="5.531189" lat="51.16436"><ele>47.6</ele><time>2022-03-27T07:55:39.000Z</time></trkpt><trkpt lon="5.531141" lat="51.16441"><ele>47.6</ele><time>2022-03-27T07:55:40.000Z</time></trkpt><trkpt lon="5.531099" lat="51.164458"><ele>47.6</ele><time>2022-03-27T07:55:41.000Z</time></trkpt><trkpt lon="5.531056" lat="51.164503"><ele>47.6</ele><time>2022-03-27T07:55:42.000Z</time></trkpt><trkpt lon="5.531011" lat="51.164558"><ele>47.8</ele><time>2022-03-27T07:55:43.000Z</time></trkpt><trkpt lon="5.530967" lat="51.164611"><ele>47.8</ele><time>2022-03-27T07:55:44.000Z</time></trkpt><trkpt lon="5.530915" lat="51.164665"><ele>47.8</ele><time>2022-03-27T07:55:45.000Z</time></trkpt><trkpt lon="5.530863" lat="51.164726"><ele>47.8</ele><time>2022-03-27T07:55:46.000Z</time></trkpt><trkpt lon="5.530814" lat="51.164779"><ele>47.8</ele><time>2022-03-27T07:55:47.000Z</time></trkpt><trkpt lon="5.530765" lat="51.16484"><ele>47.8</ele><time>2022-03-27T07:55:48.000Z</time></trkpt><trkpt lon="5.530715" lat="51.164901"><ele>47.6</ele><time>2022-03-27T07:55:49.000Z</time></trkpt><trkpt lon="5.530665" lat="51.164961"><ele>47.6</ele><time>2022-03-27T07:55:50.000Z</time></trkpt><trkpt lon="5.530617" lat="51.165016"><ele>47.6</ele><time>2022-03-27T07:55:51.000Z</time></trkpt><trkpt lon="5.530575" lat="51.165065"><ele>47.4</ele><time>2022-03-27T07:55:52.000Z</time></trkpt><trkpt lon="5.530528" lat="51.165113"><ele>47.4</ele><time>2022-03-27T07:55:53.000Z</time></trkpt><trkpt lon="5.530471" lat="51.165155"><ele>47.2</ele><time>2022-03-27T07:55:54.000Z</time></trkpt><trkpt lon="5.530401" lat="51.165193"><ele>47</ele><time>2022-03-27T07:55:55.000Z</time></trkpt><trkpt lon="5.530316" lat="51.16521"><ele>47</ele><time>2022-03-27T07:55:56.000Z</time></trkpt><trkpt lon="5.530233" lat="51.165207"><ele>47</ele><time>2022-03-27T07:55:57.000Z</time></trkpt><trkpt lon="5.53015" lat="51.165196"><ele>47</ele><time>2022-03-27T07:55:58.000Z</time></trkpt><trkpt lon="5.530072" lat="51.165181"><ele>47.2</ele><time>2022-03-27T07:55:59.000Z</time></trkpt><trkpt lon="5.529996" lat="51.165166"><ele>47.2</ele><time>2022-03-27T07:56:00.000Z</time></trkpt><trkpt lon="5.529916" lat="51.165154"><ele>47.2</ele><time>2022-03-27T07:56:01.000Z</time></trkpt><trkpt lon="5.529832" lat="51.16515"><ele>47.2</ele><time>2022-03-27T07:56:02.000Z</time></trkpt><trkpt lon="5.529753" lat="51.165157"><ele>47.2</ele><time>2022-03-27T07:56:03.000Z</time></trkpt><trkpt lon="5.529667" lat="51.165178"><ele>47</ele><time>2022-03-27T07:56:04.000Z</time></trkpt><trkpt lon="5.529581" lat="51.165201"><ele>46.8</ele><time>2022-03-27T07:56:05.000Z</time></trkpt><trkpt lon="5.5295" lat="51.165228"><ele>46.8</ele><time>2022-03-27T07:56:06.000Z</time></trkpt><trkpt lon="5.529428" lat="51.165263"><ele>47</ele><time>2022-03-27T07:56:07.000Z</time></trkpt><trkpt lon="5.529358" lat="51.165304"><ele>47</ele><time>2022-03-27T07:56:08.000Z</time></trkpt><trkpt lon="5.529294" lat="51.165348"><ele>47</ele><time>2022-03-27T07:56:09.000Z</time></trkpt><trkpt lon="5.52923" lat="51.165393"><ele>47</ele><time>2022-03-27T07:56:10.000Z</time></trkpt><trkpt lon="5.529159" lat="51.16545"><ele>47</ele><time>2022-03-27T07:56:11.000Z</time></trkpt><trkpt lon="5.529096" lat="51.165501"><ele>47</ele><time>2022-03-27T07:56:12.000Z</time></trkpt><trkpt lon="5.529046" lat="51.165547"><ele>47</ele><time>2022-03-27T07:56:13.000Z</time></trkpt><trkpt lon="5.529" lat="51.165585"><ele>47</ele><time>2022-03-27T07:56:14.000Z</time></trkpt><trkpt lon="5.528948" lat="51.165627"><ele>47</ele><time>2022-03-27T07:56:15.000Z</time></trkpt><trkpt lon="5.5289" lat="51.165673"><ele>46.8</ele><time>2022-03-27T07:56:16.000Z</time></trkpt><trkpt lon="5.528856" lat="51.165719"><ele>46.8</ele><time>2022-03-27T07:56:17.000Z</time></trkpt><trkpt lon="5.528811" lat="51.165775"><ele>46.8</ele><time>2022-03-27T07:56:18.000Z</time></trkpt><trkpt lon="5.528776" lat="51.165833"><ele>46.6</ele><time>2022-03-27T07:56:19.000Z</time></trkpt><trkpt lon="5.528741" lat="51.165889"><ele>46.6</ele><time>2022-03-27T07:56:20.000Z</time></trkpt><trkpt lon="5.528705" lat="51.165955"><ele>46.6</ele><time>2022-03-27T07:56:21.000Z</time></trkpt><trkpt lon="5.528671" lat="51.166018"><ele>46.6</ele><time>2022-03-27T07:56:22.000Z</time></trkpt><trkpt lon="5.52864" lat="51.16608"><ele>46.6</ele><time>2022-03-27T07:56:23.000Z</time></trkpt><trkpt lon="5.528608" lat="51.166142"><ele>46.2</ele><time>2022-03-27T07:56:24.000Z</time></trkpt><trkpt lon="5.528575" lat="51.166207"><ele>46</ele><time>2022-03-27T07:56:25.000Z</time></trkpt><trkpt lon="5.528539" lat="51.166274"><ele>46</ele><time>2022-03-27T07:56:26.000Z</time></trkpt><trkpt lon="5.528502" lat="51.166341"><ele>46</ele><time>2022-03-27T07:56:27.000Z</time></trkpt><trkpt lon="5.528467" lat="51.166412"><ele>46</ele><time>2022-03-27T07:56:28.000Z</time></trkpt><trkpt lon="5.528434" lat="51.166481"><ele>46</ele><time>2022-03-27T07:56:29.000Z</time></trkpt><trkpt lon="5.528403" lat="51.16655"><ele>46.2</ele><time>2022-03-27T07:56:30.000Z</time></trkpt><trkpt lon="5.528376" lat="51.166619"><ele>46.2</ele><time>2022-03-27T07:56:31.000Z</time></trkpt><trkpt lon="5.52835" lat="51.166687"><ele>46.2</ele><time>2022-03-27T07:56:32.000Z</time></trkpt><trkpt lon="5.528323" lat="51.166755"><ele>46.2</ele><time>2022-03-27T07:56:33.000Z</time></trkpt><trkpt lon="5.528303" lat="51.166824"><ele>46</ele><time>2022-03-27T07:56:34.000Z</time></trkpt><trkpt lon="5.528281" lat="51.166893"><ele>46.2</ele><time>2022-03-27T07:56:35.000Z</time></trkpt><trkpt lon="5.528261" lat="51.166962"><ele>46.2</ele><time>2022-03-27T07:56:36.000Z</time></trkpt><trkpt lon="5.528238" lat="51.167031"><ele>46</ele><time>2022-03-27T07:56:37.000Z</time></trkpt><trkpt lon="5.528213" lat="51.167104"><ele>45.8</ele><time>2022-03-27T07:56:38.000Z</time></trkpt><trkpt lon="5.528193" lat="51.167171"><ele>45.4</ele><time>2022-03-27T07:56:39.000Z</time></trkpt><trkpt lon="5.528172" lat="51.167241"><ele>45.4</ele><time>2022-03-27T07:56:40.000Z</time></trkpt><trkpt lon="5.528156" lat="51.167308"><ele>45.2</ele><time>2022-03-27T07:56:41.000Z</time></trkpt><trkpt lon="5.528144" lat="51.167379"><ele>45</ele><time>2022-03-27T07:56:42.000Z</time></trkpt><trkpt lon="5.528132" lat="51.16745"><ele>44.8</ele><time>2022-03-27T07:56:43.000Z</time></trkpt><trkpt lon="5.528127" lat="51.167523"><ele>44.8</ele><time>2022-03-27T07:56:44.000Z</time></trkpt><trkpt lon="5.528124" lat="51.167591"><ele>45</ele><time>2022-03-27T07:56:45.000Z</time></trkpt><trkpt lon="5.528118" lat="51.167664"><ele>45.2</ele><time>2022-03-27T07:56:46.000Z</time></trkpt><trkpt lon="5.528114" lat="51.167736"><ele>45.4</ele><time>2022-03-27T07:56:47.000Z</time></trkpt><trkpt lon="5.52811" lat="51.167808"><ele>45.6</ele><time>2022-03-27T07:56:48.000Z</time></trkpt><trkpt lon="5.528105" lat="51.167881"><ele>45.6</ele><time>2022-03-27T07:56:49.000Z</time></trkpt><trkpt lon="5.528098" lat="51.167957"><ele>45.6</ele><time>2022-03-27T07:56:50.000Z</time></trkpt><trkpt lon="5.528092" lat="51.16803"><ele>45.8</ele><time>2022-03-27T07:56:51.000Z</time></trkpt><trkpt lon="5.528084" lat="51.168099"><ele>45.8</ele><time>2022-03-27T07:56:52.000Z</time></trkpt><trkpt lon="5.528079" lat="51.168175"><ele>46</ele><time>2022-03-27T07:56:53.000Z</time></trkpt><trkpt lon="5.528069" lat="51.168244"><ele>45.8</ele><time>2022-03-27T07:56:54.000Z</time></trkpt><trkpt lon="5.528059" lat="51.168315"><ele>45.8</ele><time>2022-03-27T07:56:55.000Z</time></trkpt><trkpt lon="5.528046" lat="51.168385"><ele>45.8</ele><time>2022-03-27T07:56:56.000Z</time></trkpt><trkpt lon="5.528032" lat="51.168454"><ele>45.8</ele><time>2022-03-27T07:56:57.000Z</time></trkpt><trkpt lon="5.528017" lat="51.168518"><ele>46</ele><time>2022-03-27T07:56:58.000Z</time></trkpt><trkpt lon="5.528006" lat="51.16858"><ele>46</ele><time>2022-03-27T07:56:59.000Z</time></trkpt><trkpt lon="5.527996" lat="51.16863"><ele>46</ele><time>2022-03-27T07:57:00.000Z</time></trkpt><trkpt lon="5.52799" lat="51.168676"><ele>46</ele><time>2022-03-27T07:57:01.000Z</time></trkpt><trkpt lon="5.527989" lat="51.168713"><ele>46.2</ele><time>2022-03-27T07:57:02.000Z</time></trkpt><trkpt lon="5.527982" lat="51.16876"><ele>46.2</ele><time>2022-03-27T07:57:03.000Z</time></trkpt><trkpt lon="5.527974" lat="51.16882"><ele>46.2</ele><time>2022-03-27T07:57:04.000Z</time></trkpt><trkpt lon="5.527965" lat="51.168874"><ele>46.2</ele><time>2022-03-27T07:57:05.000Z</time></trkpt><trkpt lon="5.527959" lat="51.168935"><ele>46.2</ele><time>2022-03-27T07:57:06.000Z</time></trkpt><trkpt lon="5.52795" lat="51.168996"><ele>46.2</ele><time>2022-03-27T07:57:07.000Z</time></trkpt><trkpt lon="5.52794" lat="51.169065"><ele>46.2</ele><time>2022-03-27T07:57:08.000Z</time></trkpt><trkpt lon="5.527929" lat="51.169133"><ele>46.2</ele><time>2022-03-27T07:57:09.000Z</time></trkpt><trkpt lon="5.527919" lat="51.169195"><ele>46</ele><time>2022-03-27T07:57:10.000Z</time></trkpt><trkpt lon="5.527904" lat="51.169255"><ele>45.8</ele><time>2022-03-27T07:57:11.000Z</time></trkpt><trkpt lon="5.527881" lat="51.169302"><ele>45.8</ele><time>2022-03-27T07:57:12.000Z</time></trkpt><trkpt lon="5.527842" lat="51.169347"><ele>45.6</ele><time>2022-03-27T07:57:13.000Z</time></trkpt><trkpt lon="5.527788" lat="51.169382"><ele>45.6</ele><time>2022-03-27T07:57:14.000Z</time></trkpt><trkpt lon="5.527717" lat="51.169405"><ele>45.6</ele><time>2022-03-27T07:57:15.000Z</time></trkpt><trkpt lon="5.527624" lat="51.169407"><ele>45.6</ele><time>2022-03-27T07:57:16.000Z</time></trkpt><trkpt lon="5.527531" lat="51.169396"><ele>45.6</ele><time>2022-03-27T07:57:17.000Z</time></trkpt><trkpt lon="5.527428" lat="51.169377"><ele>45.6</ele><time>2022-03-27T07:57:18.000Z</time></trkpt><trkpt lon="5.527325" lat="51.169358"><ele>45.8</ele><time>2022-03-27T07:57:19.000Z</time></trkpt><trkpt lon="5.527217" lat="51.169339"><ele>45.8</ele><time>2022-03-27T07:57:20.000Z</time></trkpt><trkpt lon="5.527113" lat="51.169327"><ele>45.8</ele><time>2022-03-27T07:57:21.000Z</time></trkpt><trkpt lon="5.527009" lat="51.169309"><ele>45.8</ele><time>2022-03-27T07:57:22.000Z</time></trkpt><trkpt lon="5.526906" lat="51.16929"><ele>45.8</ele><time>2022-03-27T07:57:23.000Z</time></trkpt><trkpt lon="5.526797" lat="51.169278"><ele>45.8</ele><time>2022-03-27T07:57:24.000Z</time></trkpt><trkpt lon="5.526685" lat="51.16927"><ele>45.8</ele><time>2022-03-27T07:57:25.000Z</time></trkpt><trkpt lon="5.526572" lat="51.169251"><ele>45.8</ele><time>2022-03-27T07:57:26.000Z</time></trkpt><trkpt lon="5.52646" lat="51.169236"><ele>45.8</ele><time>2022-03-27T07:57:27.000Z</time></trkpt><trkpt lon="5.526352" lat="51.169217"><ele>45.8</ele><time>2022-03-27T07:57:28.000Z</time></trkpt><trkpt lon="5.526241" lat="51.169198"><ele>45.8</ele><time>2022-03-27T07:57:29.000Z</time></trkpt><trkpt lon="5.526129" lat="51.169183"><ele>45.8</ele><time>2022-03-27T07:57:30.000Z</time></trkpt><trkpt lon="5.526018" lat="51.169161"><ele>45.8</ele><time>2022-03-27T07:57:31.000Z</time></trkpt><trkpt lon="5.525904" lat="51.169141"><ele>45.6</ele><time>2022-03-27T07:57:32.000Z</time></trkpt><trkpt lon="5.525792" lat="51.169125"><ele>45.6</ele><time>2022-03-27T07:57:33.000Z</time></trkpt><trkpt lon="5.525671" lat="51.169106"><ele>45.4</ele><time>2022-03-27T07:57:34.000Z</time></trkpt><trkpt lon="5.525557" lat="51.169088"><ele>45.4</ele><time>2022-03-27T07:57:35.000Z</time></trkpt><trkpt lon="5.525451" lat="51.169076"><ele>45.4</ele><time>2022-03-27T07:57:36.000Z</time></trkpt><trkpt lon="5.525333" lat="51.16906"><ele>45.4</ele><time>2022-03-27T07:57:37.000Z</time></trkpt><trkpt lon="5.525225" lat="51.169049"><ele>45.4</ele><time>2022-03-27T07:57:38.000Z</time></trkpt><trkpt lon="5.525112" lat="51.169034"><ele>45.4</ele><time>2022-03-27T07:57:39.000Z</time></trkpt><trkpt lon="5.524991" lat="51.169019"><ele>45.6</ele><time>2022-03-27T07:57:40.000Z</time></trkpt><trkpt lon="5.524874" lat="51.169003"><ele>45.6</ele><time>2022-03-27T07:57:41.000Z</time></trkpt><trkpt lon="5.52476" lat="51.168985"><ele>45.6</ele><time>2022-03-27T07:57:42.000Z</time></trkpt><trkpt lon="5.52465" lat="51.168969"><ele>45.8</ele><time>2022-03-27T07:57:43.000Z</time></trkpt><trkpt lon="5.524539" lat="51.16895"><ele>45.8</ele><time>2022-03-27T07:57:44.000Z</time></trkpt><trkpt lon="5.524427" lat="51.168935"><ele>45.8</ele><time>2022-03-27T07:57:45.000Z</time></trkpt><trkpt lon="5.524314" lat="51.168916"><ele>45.8</ele><time>2022-03-27T07:57:46.000Z</time></trkpt><trkpt lon="5.524203" lat="51.168893"><ele>45.8</ele><time>2022-03-27T07:57:47.000Z</time></trkpt><trkpt lon="5.524091" lat="51.168867"><ele>45.8</ele><time>2022-03-27T07:57:48.000Z</time></trkpt><trkpt lon="5.523983" lat="51.168836"><ele>46</ele><time>2022-03-27T07:57:49.000Z</time></trkpt><trkpt lon="5.523883" lat="51.168799"><ele>46</ele><time>2022-03-27T07:57:50.000Z</time></trkpt><trkpt lon="5.52379" lat="51.168757"><ele>46</ele><time>2022-03-27T07:57:51.000Z</time></trkpt><trkpt lon="5.5237" lat="51.168715"><ele>46.2</ele><time>2022-03-27T07:57:52.000Z</time></trkpt><trkpt lon="5.523611" lat="51.168673"><ele>46.2</ele><time>2022-03-27T07:57:53.000Z</time></trkpt><trkpt lon="5.523529" lat="51.168636"><ele>46.2</ele><time>2022-03-27T07:57:54.000Z</time></trkpt><trkpt lon="5.523439" lat="51.1686"><ele>46.2</ele><time>2022-03-27T07:57:55.000Z</time></trkpt><trkpt lon="5.523349" lat="51.168573"><ele>46</ele><time>2022-03-27T07:57:56.000Z</time></trkpt><trkpt lon="5.52325" lat="51.168557"><ele>45.8</ele><time>2022-03-27T07:57:57.000Z</time></trkpt><trkpt lon="5.523155" lat="51.168553"><ele>45.6</ele><time>2022-03-27T07:57:58.000Z</time></trkpt><trkpt lon="5.523054" lat="51.16857"><ele>45.4</ele><time>2022-03-27T07:57:59.000Z</time></trkpt><trkpt lon="5.522954" lat="51.1686"><ele>45</ele><time>2022-03-27T07:58:00.000Z</time></trkpt><trkpt lon="5.522853" lat="51.168641"><ele>44.6</ele><time>2022-03-27T07:58:01.000Z</time></trkpt><trkpt lon="5.522752" lat="51.168691"><ele>44.4</ele><time>2022-03-27T07:58:02.000Z</time></trkpt><trkpt lon="5.522652" lat="51.16873"><ele>44.2</ele><time>2022-03-27T07:58:03.000Z</time></trkpt><trkpt lon="5.522554" lat="51.16877"><ele>44.2</ele><time>2022-03-27T07:58:04.000Z</time></trkpt><trkpt lon="5.522447" lat="51.168813"><ele>44.2</ele><time>2022-03-27T07:58:05.000Z</time></trkpt><trkpt lon="5.522347" lat="51.168856"><ele>44.2</ele><time>2022-03-27T07:58:06.000Z</time></trkpt><trkpt lon="5.522247" lat="51.168902"><ele>44</ele><time>2022-03-27T07:58:07.000Z</time></trkpt><trkpt lon="5.522151" lat="51.16894"><ele>44</ele><time>2022-03-27T07:58:08.000Z</time></trkpt><trkpt lon="5.522051" lat="51.168967"><ele>44</ele><time>2022-03-27T07:58:09.000Z</time></trkpt><trkpt lon="5.521947" lat="51.168986"><ele>44.2</ele><time>2022-03-27T07:58:10.000Z</time></trkpt><trkpt lon="5.52184" lat="51.168994"><ele>44.4</ele><time>2022-03-27T07:58:11.000Z</time></trkpt><trkpt lon="5.521734" lat="51.168988"><ele>44.6</ele><time>2022-03-27T07:58:12.000Z</time></trkpt><trkpt lon="5.521627" lat="51.168976"><ele>44.8</ele><time>2022-03-27T07:58:13.000Z</time></trkpt><trkpt lon="5.521519" lat="51.168965"><ele>45</ele><time>2022-03-27T07:58:14.000Z</time></trkpt><trkpt lon="5.52141" lat="51.16895"><ele>45</ele><time>2022-03-27T07:58:15.000Z</time></trkpt><trkpt lon="5.521304" lat="51.168938"><ele>45</ele><time>2022-03-27T07:58:16.000Z</time></trkpt><trkpt lon="5.521191" lat="51.168927"><ele>45.2</ele><time>2022-03-27T07:58:17.000Z</time></trkpt><trkpt lon="5.521077" lat="51.168915"><ele>45.2</ele><time>2022-03-27T07:58:18.000Z</time></trkpt><trkpt lon="5.520964" lat="51.168904"><ele>45.2</ele><time>2022-03-27T07:58:19.000Z</time></trkpt><trkpt lon="5.52085" lat="51.168892"><ele>45.2</ele><time>2022-03-27T07:58:20.000Z</time></trkpt><trkpt lon="5.520735" lat="51.168878"><ele>45.4</ele><time>2022-03-27T07:58:21.000Z</time></trkpt><trkpt lon="5.520616" lat="51.168862"><ele>45.4</ele><time>2022-03-27T07:58:22.000Z</time></trkpt><trkpt lon="5.520507" lat="51.168847"><ele>45.6</ele><time>2022-03-27T07:58:23.000Z</time></trkpt><trkpt lon="5.520404" lat="51.168835"><ele>45.6</ele><time>2022-03-27T07:58:24.000Z</time></trkpt><trkpt lon="5.520303" lat="51.168824"><ele>45.6</ele><time>2022-03-27T07:58:25.000Z</time></trkpt><trkpt lon="5.520204" lat="51.168813"><ele>45.8</ele><time>2022-03-27T07:58:26.000Z</time></trkpt><trkpt lon="5.520106" lat="51.168805"><ele>45.8</ele><time>2022-03-27T07:58:27.000Z</time></trkpt><trkpt lon="5.520006" lat="51.16879"><ele>45.8</ele><time>2022-03-27T07:58:28.000Z</time></trkpt><trkpt lon="5.519905" lat="51.168771"><ele>45.8</ele><time>2022-03-27T07:58:29.000Z</time></trkpt><trkpt lon="5.51981" lat="51.168756"><ele>45.8</ele><time>2022-03-27T07:58:30.000Z</time></trkpt><trkpt lon="5.519717" lat="51.16874"><ele>46</ele><time>2022-03-27T07:58:31.000Z</time></trkpt><trkpt lon="5.519625" lat="51.168725"><ele>46</ele><time>2022-03-27T07:58:32.000Z</time></trkpt><trkpt lon="5.519518" lat="51.16871"><ele>46.2</ele><time>2022-03-27T07:58:33.000Z</time></trkpt><trkpt lon="5.519415" lat="51.168694"><ele>46.2</ele><time>2022-03-27T07:58:34.000Z</time></trkpt><trkpt lon="5.519317" lat="51.168683"><ele>46.2</ele><time>2022-03-27T07:58:35.000Z</time></trkpt><trkpt lon="5.519216" lat="51.168671"><ele>46.2</ele><time>2022-03-27T07:58:36.000Z</time></trkpt><trkpt lon="5.519105" lat="51.168656"><ele>46.4</ele><time>2022-03-27T07:58:37.000Z</time></trkpt><trkpt lon="5.519002" lat="51.168644"><ele>46.4</ele><time>2022-03-27T07:58:38.000Z</time></trkpt><trkpt lon="5.518879" lat="51.168626"><ele>46.4</ele><time>2022-03-27T07:58:39.000Z</time></trkpt><trkpt lon="5.51876" lat="51.168607"><ele>46.4</ele><time>2022-03-27T07:58:40.000Z</time></trkpt><trkpt lon="5.518647" lat="51.168591"><ele>46.6</ele><time>2022-03-27T07:58:41.000Z</time></trkpt><trkpt lon="5.518543" lat="51.168576"><ele>46.6</ele><time>2022-03-27T07:58:42.000Z</time></trkpt><trkpt lon="5.518419" lat="51.168557"><ele>46.6</ele><time>2022-03-27T07:58:43.000Z</time></trkpt><trkpt lon="5.518296" lat="51.168538"><ele>46.6</ele><time>2022-03-27T07:58:44.000Z</time></trkpt><trkpt lon="5.518174" lat="51.168526"><ele>46.6</ele><time>2022-03-27T07:58:45.000Z</time></trkpt><trkpt lon="5.518058" lat="51.168508"><ele>46.6</ele><time>2022-03-27T07:58:46.000Z</time></trkpt><trkpt lon="5.51795" lat="51.168489"><ele>46.8</ele><time>2022-03-27T07:58:47.000Z</time></trkpt><trkpt lon="5.517843" lat="51.16847"><ele>46.8</ele><time>2022-03-27T07:58:48.000Z</time></trkpt><trkpt lon="5.51773" lat="51.168454"><ele>47</ele><time>2022-03-27T07:58:49.000Z</time></trkpt><trkpt lon="5.517624" lat="51.168443"><ele>47</ele><time>2022-03-27T07:58:50.000Z</time></trkpt><trkpt lon="5.517519" lat="51.168438"><ele>47</ele><time>2022-03-27T07:58:51.000Z</time></trkpt><trkpt lon="5.517405" lat="51.168431"><ele>47.2</ele><time>2022-03-27T07:58:52.000Z</time></trkpt><trkpt lon="5.517288" lat="51.16843"><ele>47.2</ele><time>2022-03-27T07:58:53.000Z</time></trkpt><trkpt lon="5.517179" lat="51.168434"><ele>47.2</ele><time>2022-03-27T07:58:54.000Z</time></trkpt><trkpt lon="5.517065" lat="51.168445"><ele>47.2</ele><time>2022-03-27T07:58:55.000Z</time></trkpt><trkpt lon="5.516953" lat="51.168453"><ele>47.4</ele><time>2022-03-27T07:58:56.000Z</time></trkpt><trkpt lon="5.516837" lat="51.168457"><ele>47.4</ele><time>2022-03-27T07:58:57.000Z</time></trkpt><trkpt lon="5.516722" lat="51.168464"><ele>47.4</ele><time>2022-03-27T07:58:58.000Z</time></trkpt><trkpt lon="5.51661" lat="51.168468"><ele>47.4</ele><time>2022-03-27T07:58:59.000Z</time></trkpt><trkpt lon="5.516492" lat="51.168472"><ele>47.6</ele><time>2022-03-27T07:59:00.000Z</time></trkpt><trkpt lon="5.516379" lat="51.16848"><ele>47.4</ele><time>2022-03-27T07:59:01.000Z</time></trkpt><trkpt lon="5.51626" lat="51.168487"><ele>47.4</ele><time>2022-03-27T07:59:02.000Z</time></trkpt><trkpt lon="5.516141" lat="51.168495"><ele>47.4</ele><time>2022-03-27T07:59:03.000Z</time></trkpt><trkpt lon="5.516027" lat="51.168502"><ele>47.4</ele><time>2022-03-27T07:59:04.000Z</time></trkpt><trkpt lon="5.515911" lat="51.168506"><ele>47.4</ele><time>2022-03-27T07:59:05.000Z</time></trkpt><trkpt lon="5.515801" lat="51.16851"><ele>47.4</ele><time>2022-03-27T07:59:06.000Z</time></trkpt><trkpt lon="5.515695" lat="51.16851"><ele>47.4</ele><time>2022-03-27T07:59:07.000Z</time></trkpt><trkpt lon="5.515594" lat="51.168514"><ele>47.4</ele><time>2022-03-27T07:59:08.000Z</time></trkpt><trkpt lon="5.515495" lat="51.168518"><ele>47.4</ele><time>2022-03-27T07:59:09.000Z</time></trkpt><trkpt lon="5.515403" lat="51.168522"><ele>47.4</ele><time>2022-03-27T07:59:10.000Z</time></trkpt><trkpt lon="5.515311" lat="51.168526"><ele>47.2</ele><time>2022-03-27T07:59:11.000Z</time></trkpt><trkpt lon="5.515226" lat="51.168533"><ele>47.2</ele><time>2022-03-27T07:59:12.000Z</time></trkpt><trkpt lon="5.515142" lat="51.168537"><ele>47.4</ele><time>2022-03-27T07:59:13.000Z</time></trkpt><trkpt lon="5.515064" lat="51.168537"><ele>47.4</ele><time>2022-03-27T07:59:14.000Z</time></trkpt><trkpt lon="5.514988" lat="51.168541"><ele>47.4</ele><time>2022-03-27T07:59:15.000Z</time></trkpt><trkpt lon="5.514915" lat="51.168545"><ele>47.4</ele><time>2022-03-27T07:59:16.000Z</time></trkpt><trkpt lon="5.514848" lat="51.168545"><ele>47.4</ele><time>2022-03-27T07:59:17.000Z</time></trkpt><trkpt lon="5.514787" lat="51.168545"><ele>47.6</ele><time>2022-03-27T07:59:18.000Z</time></trkpt><trkpt lon="5.514738" lat="51.168538"><ele>47.6</ele><time>2022-03-27T07:59:19.000Z</time></trkpt><trkpt lon="5.514696" lat="51.168516"><ele>47.6</ele><time>2022-03-27T07:59:20.000Z</time></trkpt><trkpt lon="5.514661" lat="51.168483"><ele>47.6</ele><time>2022-03-27T07:59:21.000Z</time></trkpt><trkpt lon="5.51463" lat="51.16844"><ele>47.6</ele><time>2022-03-27T07:59:22.000Z</time></trkpt><trkpt lon="5.514608" lat="51.168391"><ele>47.6</ele><time>2022-03-27T07:59:23.000Z</time></trkpt><trkpt lon="5.514594" lat="51.168334"><ele>47.6</ele><time>2022-03-27T07:59:24.000Z</time></trkpt><trkpt lon="5.514574" lat="51.168269"><ele>47.6</ele><time>2022-03-27T07:59:25.000Z</time></trkpt><trkpt lon="5.514555" lat="51.168205"><ele>47.6</ele><time>2022-03-27T07:59:26.000Z</time></trkpt><trkpt lon="5.514529" lat="51.16814"><ele>47.6</ele><time>2022-03-27T07:59:27.000Z</time></trkpt><trkpt lon="5.514503" lat="51.168075"><ele>47.6</ele><time>2022-03-27T07:59:28.000Z</time></trkpt><trkpt lon="5.514478" lat="51.168007"><ele>47.6</ele><time>2022-03-27T07:59:29.000Z</time></trkpt><trkpt lon="5.514456" lat="51.167942"><ele>47.6</ele><time>2022-03-27T07:59:30.000Z</time></trkpt><trkpt lon="5.514429" lat="51.167879"><ele>47.6</ele><time>2022-03-27T07:59:31.000Z</time></trkpt><trkpt lon="5.514395" lat="51.167812"><ele>47.6</ele><time>2022-03-27T07:59:32.000Z</time></trkpt><trkpt lon="5.514362" lat="51.167747"><ele>47.6</ele><time>2022-03-27T07:59:33.000Z</time></trkpt><trkpt lon="5.514327" lat="51.167686"><ele>47.4</ele><time>2022-03-27T07:59:34.000Z</time></trkpt><trkpt lon="5.514292" lat="51.167621"><ele>47.4</ele><time>2022-03-27T07:59:35.000Z</time></trkpt><trkpt lon="5.514254" lat="51.16756"><ele>47.4</ele><time>2022-03-27T07:59:36.000Z</time></trkpt><trkpt lon="5.514212" lat="51.167495"><ele>47.4</ele><time>2022-03-27T07:59:37.000Z</time></trkpt><trkpt lon="5.514172" lat="51.16743"><ele>47.4</ele><time>2022-03-27T07:59:38.000Z</time></trkpt><trkpt lon="5.514135" lat="51.167368"><ele>47.4</ele><time>2022-03-27T07:59:39.000Z</time></trkpt><trkpt lon="5.514097" lat="51.167308"><ele>47.4</ele><time>2022-03-27T07:59:40.000Z</time></trkpt><trkpt lon="5.514059" lat="51.167247"><ele>47.4</ele><time>2022-03-27T07:59:41.000Z</time></trkpt><trkpt lon="5.514022" lat="51.167189"><ele>47.4</ele><time>2022-03-27T07:59:42.000Z</time></trkpt><trkpt lon="5.513984" lat="51.167126"><ele>47.4</ele><time>2022-03-27T07:59:43.000Z</time></trkpt><trkpt lon="5.513952" lat="51.167068"><ele>47.4</ele><time>2022-03-27T07:59:44.000Z</time></trkpt><trkpt lon="5.513915" lat="51.167007"><ele>47.4</ele><time>2022-03-27T07:59:45.000Z</time></trkpt><trkpt lon="5.513879" lat="51.16695"><ele>47.4</ele><time>2022-03-27T07:59:46.000Z</time></trkpt><trkpt lon="5.513841" lat="51.166893"><ele>47.4</ele><time>2022-03-27T07:59:47.000Z</time></trkpt><trkpt lon="5.513802" lat="51.166835"><ele>47.4</ele><time>2022-03-27T07:59:48.000Z</time></trkpt><trkpt lon="5.513767" lat="51.166781"><ele>47.4</ele><time>2022-03-27T07:59:49.000Z</time></trkpt><trkpt lon="5.513732" lat="51.166729"><ele>47.4</ele><time>2022-03-27T07:59:50.000Z</time></trkpt><trkpt lon="5.513699" lat="51.166679"><ele>47.4</ele><time>2022-03-27T07:59:51.000Z</time></trkpt><trkpt lon="5.513671" lat="51.166633"><ele>47.4</ele><time>2022-03-27T07:59:52.000Z</time></trkpt><trkpt lon="5.51364" lat="51.166586"><ele>47.4</ele><time>2022-03-27T07:59:53.000Z</time></trkpt><trkpt lon="5.513607" lat="51.166541"><ele>47.4</ele><time>2022-03-27T07:59:54.000Z</time></trkpt><trkpt lon="5.513565" lat="51.166509"><ele>47.4</ele><time>2022-03-27T07:59:55.000Z</time></trkpt><trkpt lon="5.513505" lat="51.166497"><ele>47.2</ele><time>2022-03-27T07:59:56.000Z</time></trkpt><trkpt lon="5.513429" lat="51.166496"><ele>47.2</ele><time>2022-03-27T07:59:57.000Z</time></trkpt><trkpt lon="5.513339" lat="51.166503"><ele>47</ele><time>2022-03-27T07:59:58.000Z</time></trkpt><trkpt lon="5.513234" lat="51.166515"><ele>47</ele><time>2022-03-27T07:59:59.000Z</time></trkpt><trkpt lon="5.513122" lat="51.166526"><ele>47</ele><time>2022-03-27T08:00:00.000Z</time></trkpt><trkpt lon="5.513006" lat="51.166538"><ele>46.8</ele><time>2022-03-27T08:00:01.000Z</time></trkpt><trkpt lon="5.512888" lat="51.166549"><ele>46.6</ele><time>2022-03-27T08:00:02.000Z</time></trkpt><trkpt lon="5.512772" lat="51.166564"><ele>46.4</ele><time>2022-03-27T08:00:03.000Z</time></trkpt><trkpt lon="5.512662" lat="51.166579"><ele>46.4</ele><time>2022-03-27T08:00:04.000Z</time></trkpt><trkpt lon="5.512561" lat="51.166591"><ele>46.2</ele><time>2022-03-27T08:00:05.000Z</time></trkpt><trkpt lon="5.51245" lat="51.166603"><ele>46.2</ele><time>2022-03-27T08:00:06.000Z</time></trkpt><trkpt lon="5.512339" lat="51.166618"><ele>46.4</ele><time>2022-03-27T08:00:07.000Z</time></trkpt><trkpt lon="5.512229" lat="51.166626"><ele>46.4</ele><time>2022-03-27T08:00:08.000Z</time></trkpt><trkpt lon="5.512117" lat="51.166637"><ele>46.4</ele><time>2022-03-27T08:00:09.000Z</time></trkpt><trkpt lon="5.512006" lat="51.166652"><ele>46.4</ele><time>2022-03-27T08:00:10.000Z</time></trkpt><trkpt lon="5.511893" lat="51.166663"><ele>46.4</ele><time>2022-03-27T08:00:11.000Z</time></trkpt><trkpt lon="5.51178" lat="51.166671"><ele>46.4</ele><time>2022-03-27T08:00:12.000Z</time></trkpt><trkpt lon="5.511671" lat="51.166683"><ele>46.6</ele><time>2022-03-27T08:00:13.000Z</time></trkpt><trkpt lon="5.511567" lat="51.16669"><ele>46.6</ele><time>2022-03-27T08:00:14.000Z</time></trkpt><trkpt lon="5.511464" lat="51.166702"><ele>46.6</ele><time>2022-03-27T08:00:15.000Z</time></trkpt><trkpt lon="5.511363" lat="51.166709"><ele>46.6</ele><time>2022-03-27T08:00:16.000Z</time></trkpt><trkpt lon="5.51126" lat="51.166717"><ele>46.4</ele><time>2022-03-27T08:00:17.000Z</time></trkpt><trkpt lon="5.511155" lat="51.166728"><ele>46.4</ele><time>2022-03-27T08:00:18.000Z</time></trkpt><trkpt lon="5.511052" lat="51.166736"><ele>46.4</ele><time>2022-03-27T08:00:19.000Z</time></trkpt><trkpt lon="5.510955" lat="51.166744"><ele>46.4</ele><time>2022-03-27T08:00:20.000Z</time></trkpt><trkpt lon="5.510859" lat="51.166751"><ele>46.4</ele><time>2022-03-27T08:00:21.000Z</time></trkpt><trkpt lon="5.510758" lat="51.166763"><ele>46.6</ele><time>2022-03-27T08:00:22.000Z</time></trkpt><trkpt lon="5.510654" lat="51.166767"><ele>46.6</ele><time>2022-03-27T08:00:23.000Z</time></trkpt><trkpt lon="5.510554" lat="51.166771"><ele>46.6</ele><time>2022-03-27T08:00:24.000Z</time></trkpt><trkpt lon="5.510458" lat="51.166778"><ele>46.6</ele><time>2022-03-27T08:00:25.000Z</time></trkpt><trkpt lon="5.510358" lat="51.166786"><ele>46.6</ele><time>2022-03-27T08:00:26.000Z</time></trkpt><trkpt lon="5.510262" lat="51.166793"><ele>46.6</ele><time>2022-03-27T08:00:27.000Z</time></trkpt><trkpt lon="5.510155" lat="51.166801"><ele>46.8</ele><time>2022-03-27T08:00:28.000Z</time></trkpt><trkpt lon="5.510045" lat="51.166801"><ele>47</ele><time>2022-03-27T08:00:29.000Z</time></trkpt><trkpt lon="5.509934" lat="51.166801"><ele>47</ele><time>2022-03-27T08:00:30.000Z</time></trkpt><trkpt lon="5.509825" lat="51.166809"><ele>47</ele><time>2022-03-27T08:00:31.000Z</time></trkpt><trkpt lon="5.509717" lat="51.166816"><ele>47</ele><time>2022-03-27T08:00:32.000Z</time></trkpt><trkpt lon="5.509609" lat="51.166824"><ele>47</ele><time>2022-03-27T08:00:33.000Z</time></trkpt><trkpt lon="5.509495" lat="51.166832"><ele>46.6</ele><time>2022-03-27T08:00:34.000Z</time></trkpt><trkpt lon="5.509384" lat="51.166843"><ele>46.4</ele><time>2022-03-27T08:00:35.000Z</time></trkpt><trkpt lon="5.50928" lat="51.166854"><ele>46.4</ele><time>2022-03-27T08:00:36.000Z</time></trkpt><trkpt lon="5.509159" lat="51.166859"><ele>46.4</ele><time>2022-03-27T08:00:37.000Z</time></trkpt><trkpt lon="5.509047" lat="51.16687"><ele>46.6</ele><time>2022-03-27T08:00:38.000Z</time></trkpt><trkpt lon="5.508933" lat="51.166881"><ele>46.6</ele><time>2022-03-27T08:00:39.000Z</time></trkpt><trkpt lon="5.508819" lat="51.166889"><ele>46.6</ele><time>2022-03-27T08:00:40.000Z</time></trkpt><trkpt lon="5.508707" lat="51.166896"><ele>46.6</ele><time>2022-03-27T08:00:41.000Z</time></trkpt><trkpt lon="5.508597" lat="51.166908"><ele>46.6</ele><time>2022-03-27T08:00:42.000Z</time></trkpt><trkpt lon="5.508482" lat="51.166923"><ele>46.6</ele><time>2022-03-27T08:00:43.000Z</time></trkpt><trkpt lon="5.508371" lat="51.166934"><ele>46.6</ele><time>2022-03-27T08:00:44.000Z</time></trkpt><trkpt lon="5.508257" lat="51.166949"><ele>46.4</ele><time>2022-03-27T08:00:45.000Z</time></trkpt><trkpt lon="5.508146" lat="51.166961"><ele>46.2</ele><time>2022-03-27T08:00:46.000Z</time></trkpt><trkpt lon="5.508031" lat="51.166976"><ele>46.2</ele><time>2022-03-27T08:00:47.000Z</time></trkpt><trkpt lon="5.507916" lat="51.166991"><ele>46</ele><time>2022-03-27T08:00:48.000Z</time></trkpt><trkpt lon="5.507797" lat="51.16701"><ele>46</ele><time>2022-03-27T08:00:49.000Z</time></trkpt><trkpt lon="5.507683" lat="51.167026"><ele>45.8</ele><time>2022-03-27T08:00:50.000Z</time></trkpt><trkpt lon="5.507569" lat="51.167041"><ele>46</ele><time>2022-03-27T08:00:51.000Z</time></trkpt><trkpt lon="5.507455" lat="51.167056"><ele>45.8</ele><time>2022-03-27T08:00:52.000Z</time></trkpt><trkpt lon="5.507337" lat="51.167071"><ele>45.4</ele><time>2022-03-27T08:00:53.000Z</time></trkpt><trkpt lon="5.507221" lat="51.16709"><ele>45.2</ele><time>2022-03-27T08:00:54.000Z</time></trkpt><trkpt lon="5.507101" lat="51.167113"><ele>45.2</ele><time>2022-03-27T08:00:55.000Z</time></trkpt><trkpt lon="5.506978" lat="51.167132"><ele>45.2</ele><time>2022-03-27T08:00:56.000Z</time></trkpt><trkpt lon="5.506861" lat="51.167159"><ele>45.2</ele><time>2022-03-27T08:00:57.000Z</time></trkpt><trkpt lon="5.50675" lat="51.167178"><ele>45.2</ele><time>2022-03-27T08:00:58.000Z</time></trkpt><trkpt lon="5.506645" lat="51.167197"><ele>45.2</ele><time>2022-03-27T08:00:59.000Z</time></trkpt><trkpt lon="5.506539" lat="51.167223"><ele>45</ele><time>2022-03-27T08:01:00.000Z</time></trkpt><trkpt lon="5.506432" lat="51.167254"><ele>45</ele><time>2022-03-27T08:01:01.000Z</time></trkpt><trkpt lon="5.506329" lat="51.167284"><ele>45</ele><time>2022-03-27T08:01:02.000Z</time></trkpt><trkpt lon="5.506231" lat="51.167315"><ele>45</ele><time>2022-03-27T08:01:03.000Z</time></trkpt><trkpt lon="5.506136" lat="51.167342"><ele>45</ele><time>2022-03-27T08:01:04.000Z</time></trkpt><trkpt lon="5.506036" lat="51.167368"><ele>45.2</ele><time>2022-03-27T08:01:05.000Z</time></trkpt><trkpt lon="5.505942" lat="51.167395"><ele>45.2</ele><time>2022-03-27T08:01:06.000Z</time></trkpt><trkpt lon="5.505845" lat="51.16743"><ele>45.2</ele><time>2022-03-27T08:01:07.000Z</time></trkpt><trkpt lon="5.505755" lat="51.167467"><ele>45.2</ele><time>2022-03-27T08:01:08.000Z</time></trkpt><trkpt lon="5.505676" lat="51.167517"><ele>45</ele><time>2022-03-27T08:01:09.000Z</time></trkpt><trkpt lon="5.505607" lat="51.167569"><ele>45</ele><time>2022-03-27T08:01:10.000Z</time></trkpt><trkpt lon="5.505541" lat="51.167622"><ele>45</ele><time>2022-03-27T08:01:11.000Z</time></trkpt><trkpt lon="5.505471" lat="51.167683"><ele>45</ele><time>2022-03-27T08:01:12.000Z</time></trkpt><trkpt lon="5.505386" lat="51.167734"><ele>44.8</ele><time>2022-03-27T08:01:13.000Z</time></trkpt><trkpt lon="5.50529" lat="51.167779"><ele>44.8</ele><time>2022-03-27T08:01:14.000Z</time></trkpt><trkpt lon="5.50519" lat="51.167818"><ele>44.8</ele><time>2022-03-27T08:01:15.000Z</time></trkpt><trkpt lon="5.505092" lat="51.167856"><ele>44.8</ele><time>2022-03-27T08:01:16.000Z</time></trkpt><trkpt lon="5.504995" lat="51.167894"><ele>44.8</ele><time>2022-03-27T08:01:17.000Z</time></trkpt><trkpt lon="5.504901" lat="51.167925"><ele>45</ele><time>2022-03-27T08:01:18.000Z</time></trkpt><trkpt lon="5.504804" lat="51.16796"><ele>44.8</ele><time>2022-03-27T08:01:19.000Z</time></trkpt><trkpt lon="5.504707" lat="51.16799"><ele>44.8</ele><time>2022-03-27T08:01:20.000Z</time></trkpt><trkpt lon="5.504605" lat="51.168013"><ele>44.8</ele><time>2022-03-27T08:01:21.000Z</time></trkpt><trkpt lon="5.504501" lat="51.168025"><ele>44.6</ele><time>2022-03-27T08:01:22.000Z</time></trkpt><trkpt lon="5.504389" lat="51.168033"><ele>44.6</ele><time>2022-03-27T08:01:23.000Z</time></trkpt><trkpt lon="5.504278" lat="51.168041"><ele>44.6</ele><time>2022-03-27T08:01:24.000Z</time></trkpt><trkpt lon="5.504171" lat="51.168045"><ele>44.6</ele><time>2022-03-27T08:01:25.000Z</time></trkpt><trkpt lon="5.504068" lat="51.168052"><ele>44.6</ele><time>2022-03-27T08:01:26.000Z</time></trkpt><trkpt lon="5.503963" lat="51.168056"><ele>44.6</ele><time>2022-03-27T08:01:27.000Z</time></trkpt><trkpt lon="5.503862" lat="51.168056"><ele>44.6</ele><time>2022-03-27T08:01:28.000Z</time></trkpt><trkpt lon="5.503764" lat="51.168056"><ele>44.8</ele><time>2022-03-27T08:01:29.000Z</time></trkpt><trkpt lon="5.503673" lat="51.16806"><ele>44.8</ele><time>2022-03-27T08:01:30.000Z</time></trkpt><trkpt lon="5.503583" lat="51.16806"><ele>44.8</ele><time>2022-03-27T08:01:31.000Z</time></trkpt><trkpt lon="5.503496" lat="51.16805"><ele>44.8</ele><time>2022-03-27T08:01:32.000Z</time></trkpt><trkpt lon="5.503419" lat="51.16802"><ele>44.8</ele><time>2022-03-27T08:01:33.000Z</time></trkpt><trkpt lon="5.503351" lat="51.167975"><ele>45</ele><time>2022-03-27T08:01:34.000Z</time></trkpt><trkpt lon="5.503288" lat="51.167922"><ele>45</ele><time>2022-03-27T08:01:35.000Z</time></trkpt><trkpt lon="5.503227" lat="51.167863"><ele>45.2</ele><time>2022-03-27T08:01:36.000Z</time></trkpt><trkpt lon="5.503161" lat="51.167803"><ele>45.2</ele><time>2022-03-27T08:01:37.000Z</time></trkpt><trkpt lon="5.503092" lat="51.167743"><ele>45.2</ele><time>2022-03-27T08:01:38.000Z</time></trkpt><trkpt lon="5.50302" lat="51.167678"><ele>45.2</ele><time>2022-03-27T08:01:39.000Z</time></trkpt><trkpt lon="5.502951" lat="51.167613"><ele>45.4</ele><time>2022-03-27T08:01:40.000Z</time></trkpt><trkpt lon="5.502885" lat="51.167553"><ele>45.4</ele><time>2022-03-27T08:01:41.000Z</time></trkpt><trkpt lon="5.502817" lat="51.167491"><ele>45.2</ele><time>2022-03-27T08:01:42.000Z</time></trkpt><trkpt lon="5.502753" lat="51.16743"><ele>45.2</ele><time>2022-03-27T08:01:43.000Z</time></trkpt><trkpt lon="5.50269" lat="51.167369"><ele>45.2</ele><time>2022-03-27T08:01:44.000Z</time></trkpt><trkpt lon="5.502628" lat="51.167312"><ele>45.2</ele><time>2022-03-27T08:01:45.000Z</time></trkpt><trkpt lon="5.502569" lat="51.167255"><ele>45.2</ele><time>2022-03-27T08:01:46.000Z</time></trkpt><trkpt lon="5.50251" lat="51.167194"><ele>45.2</ele><time>2022-03-27T08:01:47.000Z</time></trkpt><trkpt lon="5.502455" lat="51.167137"><ele>45.4</ele><time>2022-03-27T08:01:48.000Z</time></trkpt><trkpt lon="5.502397" lat="51.167076"><ele>45.4</ele><time>2022-03-27T08:01:49.000Z</time></trkpt><trkpt lon="5.502341" lat="51.167015"><ele>45.4</ele><time>2022-03-27T08:01:50.000Z</time></trkpt><trkpt lon="5.50229" lat="51.166954"><ele>45.4</ele><time>2022-03-27T08:01:51.000Z</time></trkpt><trkpt lon="5.502235" lat="51.166893"><ele>45.4</ele><time>2022-03-27T08:01:52.000Z</time></trkpt><trkpt lon="5.502178" lat="51.166831"><ele>45.4</ele><time>2022-03-27T08:01:53.000Z</time></trkpt><trkpt lon="5.502121" lat="51.166774"><ele>45.4</ele><time>2022-03-27T08:01:54.000Z</time></trkpt><trkpt lon="5.502061" lat="51.166713"><ele>45.4</ele><time>2022-03-27T08:01:55.000Z</time></trkpt><trkpt lon="5.502003" lat="51.166652"><ele>45.4</ele><time>2022-03-27T08:01:56.000Z</time></trkpt><trkpt lon="5.501946" lat="51.166591"><ele>45.6</ele><time>2022-03-27T08:01:57.000Z</time></trkpt><trkpt lon="5.50189" lat="51.16653"><ele>45.6</ele><time>2022-03-27T08:01:58.000Z</time></trkpt><trkpt lon="5.501832" lat="51.166469"><ele>45.6</ele><time>2022-03-27T08:01:59.000Z</time></trkpt><trkpt lon="5.501774" lat="51.166411"><ele>45.6</ele><time>2022-03-27T08:02:00.000Z</time></trkpt><trkpt lon="5.501718" lat="51.166347"><ele>45.4</ele><time>2022-03-27T08:02:01.000Z</time></trkpt><trkpt lon="5.501658" lat="51.166286"><ele>45.4</ele><time>2022-03-27T08:02:02.000Z</time></trkpt><trkpt lon="5.501599" lat="51.166225"><ele>45.4</ele><time>2022-03-27T08:02:03.000Z</time></trkpt><trkpt lon="5.501542" lat="51.166164"><ele>45.4</ele><time>2022-03-27T08:02:04.000Z</time></trkpt><trkpt lon="5.501485" lat="51.1661"><ele>45.4</ele><time>2022-03-27T08:02:05.000Z</time></trkpt><trkpt lon="5.501426" lat="51.166038"><ele>45.4</ele><time>2022-03-27T08:02:06.000Z</time></trkpt><trkpt lon="5.501367" lat="51.165972"><ele>45.6</ele><time>2022-03-27T08:02:07.000Z</time></trkpt><trkpt lon="5.501309" lat="51.165915"><ele>45.6</ele><time>2022-03-27T08:02:08.000Z</time></trkpt><trkpt lon="5.501252" lat="51.165851"><ele>45.6</ele><time>2022-03-27T08:02:09.000Z</time></trkpt><trkpt lon="5.501198" lat="51.16579"><ele>45.6</ele><time>2022-03-27T08:02:10.000Z</time></trkpt><trkpt lon="5.50114" lat="51.165725"><ele>45.6</ele><time>2022-03-27T08:02:11.000Z</time></trkpt><trkpt lon="5.501083" lat="51.165664"><ele>45.6</ele><time>2022-03-27T08:02:12.000Z</time></trkpt><trkpt lon="5.501023" lat="51.165599"><ele>45.6</ele><time>2022-03-27T08:02:13.000Z</time></trkpt><trkpt lon="5.500963" lat="51.165534"><ele>45.6</ele><time>2022-03-27T08:02:14.000Z</time></trkpt><trkpt lon="5.500902" lat="51.165472"><ele>45.6</ele><time>2022-03-27T08:02:15.000Z</time></trkpt><trkpt lon="5.500844" lat="51.165411"><ele>45.4</ele><time>2022-03-27T08:02:16.000Z</time></trkpt><trkpt lon="5.500784" lat="51.165354"><ele>45.4</ele><time>2022-03-27T08:02:17.000Z</time></trkpt><trkpt lon="5.500722" lat="51.165297"><ele>45.4</ele><time>2022-03-27T08:02:18.000Z</time></trkpt><trkpt lon="5.500664" lat="51.16524"><ele>45.4</ele><time>2022-03-27T08:02:19.000Z</time></trkpt><trkpt lon="5.500606" lat="51.165183"><ele>45.4</ele><time>2022-03-27T08:02:20.000Z</time></trkpt><trkpt lon="5.500545" lat="51.165125"><ele>45.4</ele><time>2022-03-27T08:02:21.000Z</time></trkpt><trkpt lon="5.500488" lat="51.165069"><ele>45.4</ele><time>2022-03-27T08:02:22.000Z</time></trkpt><trkpt lon="5.500428" lat="51.165013"><ele>45.4</ele><time>2022-03-27T08:02:23.000Z</time></trkpt><trkpt lon="5.500366" lat="51.164951"><ele>45.4</ele><time>2022-03-27T08:02:24.000Z</time></trkpt><trkpt lon="5.500305" lat="51.164893"><ele>45.4</ele><time>2022-03-27T08:02:25.000Z</time></trkpt><trkpt lon="5.500245" lat="51.164836"><ele>45.4</ele><time>2022-03-27T08:02:26.000Z</time></trkpt><trkpt lon="5.500184" lat="51.164775"><ele>45.4</ele><time>2022-03-27T08:02:27.000Z</time></trkpt><trkpt lon="5.500128" lat="51.164717"><ele>45.4</ele><time>2022-03-27T08:02:28.000Z</time></trkpt><trkpt lon="5.500063" lat="51.164653"><ele>45.4</ele><time>2022-03-27T08:02:29.000Z</time></trkpt><trkpt lon="5.500003" lat="51.164593"><ele>45.4</ele><time>2022-03-27T08:02:30.000Z</time></trkpt><trkpt lon="5.49994" lat="51.164535"><ele>45.4</ele><time>2022-03-27T08:02:31.000Z</time></trkpt><trkpt lon="5.49988" lat="51.164471"><ele>45.4</ele><time>2022-03-27T08:02:32.000Z</time></trkpt><trkpt lon="5.499822" lat="51.164413"><ele>45.4</ele><time>2022-03-27T08:02:33.000Z</time></trkpt><trkpt lon="5.49976" lat="51.164351"><ele>45.4</ele><time>2022-03-27T08:02:34.000Z</time></trkpt><trkpt lon="5.499694" lat="51.164294"><ele>45.4</ele><time>2022-03-27T08:02:35.000Z</time></trkpt><trkpt lon="5.499633" lat="51.164238"><ele>45.4</ele><time>2022-03-27T08:02:36.000Z</time></trkpt><trkpt lon="5.499562" lat="51.164183"><ele>45.6</ele><time>2022-03-27T08:02:37.000Z</time></trkpt><trkpt lon="5.499485" lat="51.164133"><ele>45.6</ele><time>2022-03-27T08:02:38.000Z</time></trkpt><trkpt lon="5.4994" lat="51.164084"><ele>45.6</ele><time>2022-03-27T08:02:39.000Z</time></trkpt><trkpt lon="5.499314" lat="51.164042"><ele>45.6</ele><time>2022-03-27T08:02:40.000Z</time></trkpt><trkpt lon="5.499224" lat="51.164004"><ele>45.6</ele><time>2022-03-27T08:02:41.000Z</time></trkpt><trkpt lon="5.499129" lat="51.163961"><ele>45.8</ele><time>2022-03-27T08:02:42.000Z</time></trkpt><trkpt lon="5.499036" lat="51.163919"><ele>45.8</ele><time>2022-03-27T08:02:43.000Z</time></trkpt><trkpt lon="5.498947" lat="51.163874"><ele>45.8</ele><time>2022-03-27T08:02:44.000Z</time></trkpt><trkpt lon="5.498866" lat="51.163826"><ele>46</ele><time>2022-03-27T08:02:45.000Z</time></trkpt><trkpt lon="5.498787" lat="51.163771"><ele>46</ele><time>2022-03-27T08:02:46.000Z</time></trkpt><trkpt lon="5.498718" lat="51.163714"><ele>46</ele><time>2022-03-27T08:02:47.000Z</time></trkpt><trkpt lon="5.498655" lat="51.163658"><ele>46</ele><time>2022-03-27T08:02:48.000Z</time></trkpt><trkpt lon="5.498597" lat="51.163597"><ele>46</ele><time>2022-03-27T08:02:49.000Z</time></trkpt><trkpt lon="5.49854" lat="51.163543"><ele>46.2</ele><time>2022-03-27T08:02:50.000Z</time></trkpt><trkpt lon="5.498485" lat="51.163482"><ele>46.2</ele><time>2022-03-27T08:02:51.000Z</time></trkpt><trkpt lon="5.498427" lat="51.163424"><ele>46.2</ele><time>2022-03-27T08:02:52.000Z</time></trkpt><trkpt lon="5.498371" lat="51.163367"><ele>46.2</ele><time>2022-03-27T08:02:53.000Z</time></trkpt><trkpt lon="5.498316" lat="51.16331"><ele>46.2</ele><time>2022-03-27T08:02:54.000Z</time></trkpt><trkpt lon="5.498262" lat="51.163254"><ele>46.2</ele><time>2022-03-27T08:02:55.000Z</time></trkpt><trkpt lon="5.498207" lat="51.163193"><ele>46.4</ele><time>2022-03-27T08:02:56.000Z</time></trkpt><trkpt lon="5.498156" lat="51.163135"><ele>46.4</ele><time>2022-03-27T08:02:57.000Z</time></trkpt><trkpt lon="5.498106" lat="51.163073"><ele>46.4</ele><time>2022-03-27T08:02:58.000Z</time></trkpt><trkpt lon="5.498054" lat="51.163009"><ele>46.4</ele><time>2022-03-27T08:02:59.000Z</time></trkpt><trkpt lon="5.498004" lat="51.162944"><ele>46.4</ele><time>2022-03-27T08:03:00.000Z</time></trkpt><trkpt lon="5.497954" lat="51.162883"><ele>46.6</ele><time>2022-03-27T08:03:01.000Z</time></trkpt><trkpt lon="5.497906" lat="51.162819"><ele>46.6</ele><time>2022-03-27T08:03:02.000Z</time></trkpt><trkpt lon="5.497859" lat="51.16275"><ele>46.8</ele><time>2022-03-27T08:03:03.000Z</time></trkpt><trkpt lon="5.497816" lat="51.162685"><ele>46.8</ele><time>2022-03-27T08:03:04.000Z</time></trkpt><trkpt lon="5.497773" lat="51.162621"><ele>47</ele><time>2022-03-27T08:03:05.000Z</time></trkpt><trkpt lon="5.497727" lat="51.162557"><ele>47</ele><time>2022-03-27T08:03:06.000Z</time></trkpt><trkpt lon="5.497682" lat="51.162486"><ele>47.2</ele><time>2022-03-27T08:03:07.000Z</time></trkpt><trkpt lon="5.49764" lat="51.162421"><ele>47.2</ele><time>2022-03-27T08:03:08.000Z</time></trkpt><trkpt lon="5.497599" lat="51.162357"><ele>47.2</ele><time>2022-03-27T08:03:09.000Z</time></trkpt><trkpt lon="5.497559" lat="51.162289"><ele>47.2</ele><time>2022-03-27T08:03:10.000Z</time></trkpt><trkpt lon="5.497519" lat="51.162224"><ele>47.2</ele><time>2022-03-27T08:03:11.000Z</time></trkpt><trkpt lon="5.49748" lat="51.162158"><ele>47.2</ele><time>2022-03-27T08:03:12.000Z</time></trkpt><trkpt lon="5.497442" lat="51.16209"><ele>47.2</ele><time>2022-03-27T08:03:13.000Z</time></trkpt><trkpt lon="5.497405" lat="51.162022"><ele>47</ele><time>2022-03-27T08:03:14.000Z</time></trkpt><trkpt lon="5.49737" lat="51.161953"><ele>47</ele><time>2022-03-27T08:03:15.000Z</time></trkpt><trkpt lon="5.497333" lat="51.161888"><ele>47</ele><time>2022-03-27T08:03:16.000Z</time></trkpt><trkpt lon="5.497298" lat="51.161821"><ele>47</ele><time>2022-03-27T08:03:17.000Z</time></trkpt><trkpt lon="5.497265" lat="51.161751"><ele>46.8</ele><time>2022-03-27T08:03:18.000Z</time></trkpt><trkpt lon="5.497236" lat="51.161681"><ele>46.8</ele><time>2022-03-27T08:03:19.000Z</time></trkpt><trkpt lon="5.497213" lat="51.161613"><ele>46.8</ele><time>2022-03-27T08:03:20.000Z</time></trkpt><trkpt lon="5.497191" lat="51.161541"><ele>46.6</ele><time>2022-03-27T08:03:21.000Z</time></trkpt><trkpt lon="5.497173" lat="51.161472"><ele>46.8</ele><time>2022-03-27T08:03:22.000Z</time></trkpt><trkpt lon="5.497153" lat="51.161403"><ele>46.8</ele><time>2022-03-27T08:03:23.000Z</time></trkpt><trkpt lon="5.497134" lat="51.161335"><ele>47</ele><time>2022-03-27T08:03:24.000Z</time></trkpt><trkpt lon="5.497119" lat="51.161267"><ele>47</ele><time>2022-03-27T08:03:25.000Z</time></trkpt><trkpt lon="5.497107" lat="51.161198"><ele>47</ele><time>2022-03-27T08:03:26.000Z</time></trkpt><trkpt lon="5.497099" lat="51.161133"><ele>47</ele><time>2022-03-27T08:03:27.000Z</time></trkpt><trkpt lon="5.497098" lat="51.161064"><ele>47</ele><time>2022-03-27T08:03:28.000Z</time></trkpt><trkpt lon="5.497102" lat="51.160997"><ele>47</ele><time>2022-03-27T08:03:29.000Z</time></trkpt><trkpt lon="5.497108" lat="51.16093"><ele>47</ele><time>2022-03-27T08:03:30.000Z</time></trkpt><trkpt lon="5.497115" lat="51.160866"><ele>47.2</ele><time>2022-03-27T08:03:31.000Z</time></trkpt><trkpt lon="5.49712" lat="51.160801"><ele>47.2</ele><time>2022-03-27T08:03:32.000Z</time></trkpt><trkpt lon="5.497125" lat="51.160732"><ele>47.2</ele><time>2022-03-27T08:03:33.000Z</time></trkpt><trkpt lon="5.497128" lat="51.160667"><ele>47.2</ele><time>2022-03-27T08:03:34.000Z</time></trkpt><trkpt lon="5.497127" lat="51.160598"><ele>47.2</ele><time>2022-03-27T08:03:35.000Z</time></trkpt><trkpt lon="5.497122" lat="51.160534"><ele>47.2</ele><time>2022-03-27T08:03:36.000Z</time></trkpt><trkpt lon="5.497114" lat="51.160464"><ele>47.4</ele><time>2022-03-27T08:03:37.000Z</time></trkpt><trkpt lon="5.497105" lat="51.1604"><ele>47.4</ele><time>2022-03-27T08:03:38.000Z</time></trkpt><trkpt lon="5.497097" lat="51.160331"><ele>47.6</ele><time>2022-03-27T08:03:39.000Z</time></trkpt><trkpt lon="5.497084" lat="51.160267"><ele>47.6</ele><time>2022-03-27T08:03:40.000Z</time></trkpt><trkpt lon="5.497069" lat="51.160198"><ele>47.6</ele><time>2022-03-27T08:03:41.000Z</time></trkpt><trkpt lon="5.497049" lat="51.160133"><ele>47.8</ele><time>2022-03-27T08:03:42.000Z</time></trkpt><trkpt lon="5.497029" lat="51.160064"><ele>47.8</ele><time>2022-03-27T08:03:43.000Z</time></trkpt><trkpt lon="5.497011" lat="51.159999"><ele>47.8</ele><time>2022-03-27T08:03:44.000Z</time></trkpt><trkpt lon="5.496991" lat="51.159931"><ele>47.8</ele><time>2022-03-27T08:03:45.000Z</time></trkpt><trkpt lon="5.496969" lat="51.159862"><ele>47.8</ele><time>2022-03-27T08:03:46.000Z</time></trkpt><trkpt lon="5.496945" lat="51.159793"><ele>48</ele><time>2022-03-27T08:03:47.000Z</time></trkpt><trkpt lon="5.496916" lat="51.159724"><ele>48</ele><time>2022-03-27T08:03:48.000Z</time></trkpt><trkpt lon="5.496891" lat="51.159653"><ele>48</ele><time>2022-03-27T08:03:49.000Z</time></trkpt><trkpt lon="5.496869" lat="51.159583"><ele>48.2</ele><time>2022-03-27T08:03:50.000Z</time></trkpt><trkpt lon="5.496851" lat="51.159511"><ele>48.2</ele><time>2022-03-27T08:03:51.000Z</time></trkpt><trkpt lon="5.496836" lat="51.159443"><ele>48.2</ele><time>2022-03-27T08:03:52.000Z</time></trkpt><trkpt lon="5.496826" lat="51.159374"><ele>48.2</ele><time>2022-03-27T08:03:53.000Z</time></trkpt><trkpt lon="5.496814" lat="51.159309"><ele>48.2</ele><time>2022-03-27T08:03:54.000Z</time></trkpt><trkpt lon="5.496807" lat="51.159244"><ele>48.2</ele><time>2022-03-27T08:03:55.000Z</time></trkpt><trkpt lon="5.496805" lat="51.159179"><ele>48.2</ele><time>2022-03-27T08:03:56.000Z</time></trkpt><trkpt lon="5.496808" lat="51.159119"><ele>48.2</ele><time>2022-03-27T08:03:57.000Z</time></trkpt><trkpt lon="5.49681" lat="51.159057"><ele>48.2</ele><time>2022-03-27T08:03:58.000Z</time></trkpt><trkpt lon="5.496815" lat="51.158997"><ele>48.2</ele><time>2022-03-27T08:03:59.000Z</time></trkpt><trkpt lon="5.496813" lat="51.158935"><ele>48.2</ele><time>2022-03-27T08:04:00.000Z</time></trkpt><trkpt lon="5.496813" lat="51.158877"><ele>48.2</ele><time>2022-03-27T08:04:01.000Z</time></trkpt><trkpt lon="5.496816" lat="51.15882"><ele>48.2</ele><time>2022-03-27T08:04:02.000Z</time></trkpt><trkpt lon="5.496822" lat="51.158764"><ele>48.2</ele><time>2022-03-27T08:04:03.000Z</time></trkpt><trkpt lon="5.496828" lat="51.158713"><ele>48.2</ele><time>2022-03-27T08:04:04.000Z</time></trkpt><trkpt lon="5.49683" lat="51.158667"><ele>48.2</ele><time>2022-03-27T08:04:05.000Z</time></trkpt><trkpt lon="5.496816" lat="51.158623"><ele>48.2</ele><time>2022-03-27T08:04:06.000Z</time></trkpt><trkpt lon="5.496769" lat="51.158593"><ele>48.2</ele><time>2022-03-27T08:04:07.000Z</time></trkpt><trkpt lon="5.496698" lat="51.158589"><ele>48.2</ele><time>2022-03-27T08:04:08.000Z</time></trkpt><trkpt lon="5.496613" lat="51.158603"><ele>48</ele><time>2022-03-27T08:04:09.000Z</time></trkpt><trkpt lon="5.496517" lat="51.158622"><ele>47.6</ele><time>2022-03-27T08:04:10.000Z</time></trkpt><trkpt lon="5.496414" lat="51.158637"><ele>47.4</ele><time>2022-03-27T08:04:11.000Z</time></trkpt><trkpt lon="5.49631" lat="51.158652"><ele>47.4</ele><time>2022-03-27T08:04:12.000Z</time></trkpt><trkpt lon="5.496201" lat="51.158668"><ele>47.2</ele><time>2022-03-27T08:04:13.000Z</time></trkpt><trkpt lon="5.496095" lat="51.158687"><ele>47.2</ele><time>2022-03-27T08:04:14.000Z</time></trkpt><trkpt lon="5.495988" lat="51.158705"><ele>47.2</ele><time>2022-03-27T08:04:15.000Z</time></trkpt><trkpt lon="5.495875" lat="51.158725"><ele>47.2</ele><time>2022-03-27T08:04:16.000Z</time></trkpt><trkpt lon="5.495766" lat="51.158744"><ele>47.2</ele><time>2022-03-27T08:04:17.000Z</time></trkpt><trkpt lon="5.495658" lat="51.158763"><ele>47.2</ele><time>2022-03-27T08:04:18.000Z</time></trkpt><trkpt lon="5.495552" lat="51.158782"><ele>47.2</ele><time>2022-03-27T08:04:19.000Z</time></trkpt><trkpt lon="5.495448" lat="51.158801"><ele>47.2</ele><time>2022-03-27T08:04:20.000Z</time></trkpt><trkpt lon="5.495342" lat="51.15882"><ele>47.2</ele><time>2022-03-27T08:04:21.000Z</time></trkpt><trkpt lon="5.495237" lat="51.158839"><ele>47.2</ele><time>2022-03-27T08:04:22.000Z</time></trkpt><trkpt lon="5.495129" lat="51.158854"><ele>47.2</ele><time>2022-03-27T08:04:23.000Z</time></trkpt><trkpt lon="5.495023" lat="51.158873"><ele>47.2</ele><time>2022-03-27T08:04:24.000Z</time></trkpt><trkpt lon="5.494918" lat="51.158889"><ele>47</ele><time>2022-03-27T08:04:25.000Z</time></trkpt><trkpt lon="5.49481" lat="51.158908"><ele>47</ele><time>2022-03-27T08:04:26.000Z</time></trkpt><trkpt lon="5.494704" lat="51.158931"><ele>47</ele><time>2022-03-27T08:04:27.000Z</time></trkpt><trkpt lon="5.494596" lat="51.15895"><ele>47</ele><time>2022-03-27T08:04:28.000Z</time></trkpt><trkpt lon="5.494487" lat="51.158969"><ele>46.8</ele><time>2022-03-27T08:04:29.000Z</time></trkpt><trkpt lon="5.494379" lat="51.158992"><ele>46.8</ele><time>2022-03-27T08:04:30.000Z</time></trkpt><trkpt lon="5.494274" lat="51.159015"><ele>46.8</ele><time>2022-03-27T08:04:31.000Z</time></trkpt><trkpt lon="5.494168" lat="51.159041"><ele>46.8</ele><time>2022-03-27T08:04:32.000Z</time></trkpt><trkpt lon="5.494063" lat="51.159071"><ele>46.8</ele><time>2022-03-27T08:04:33.000Z</time></trkpt><trkpt lon="5.493963" lat="51.159098"><ele>46.6</ele><time>2022-03-27T08:04:34.000Z</time></trkpt><trkpt lon="5.493866" lat="51.159128"><ele>46.6</ele><time>2022-03-27T08:04:35.000Z</time></trkpt><trkpt lon="5.493766" lat="51.159157"><ele>46.8</ele><time>2022-03-27T08:04:36.000Z</time></trkpt><trkpt lon="5.493665" lat="51.159186"><ele>47</ele><time>2022-03-27T08:04:37.000Z</time></trkpt><trkpt lon="5.493564" lat="51.159216"><ele>47</ele><time>2022-03-27T08:04:38.000Z</time></trkpt><trkpt lon="5.493465" lat="51.159247"><ele>47.2</ele><time>2022-03-27T08:04:39.000Z</time></trkpt><trkpt lon="5.493364" lat="51.159273"><ele>47.4</ele><time>2022-03-27T08:04:40.000Z</time></trkpt><trkpt lon="5.493263" lat="51.159304"><ele>47.6</ele><time>2022-03-27T08:04:41.000Z</time></trkpt><trkpt lon="5.493164" lat="51.159331"><ele>47.6</ele><time>2022-03-27T08:04:42.000Z</time></trkpt><trkpt lon="5.493064" lat="51.159361"><ele>47.8</ele><time>2022-03-27T08:04:43.000Z</time></trkpt><trkpt lon="5.492966" lat="51.159388"><ele>47.8</ele><time>2022-03-27T08:04:44.000Z</time></trkpt><trkpt lon="5.492868" lat="51.159419"><ele>48</ele><time>2022-03-27T08:04:45.000Z</time></trkpt><trkpt lon="5.492769" lat="51.159449"><ele>48</ele><time>2022-03-27T08:04:46.000Z</time></trkpt><trkpt lon="5.492672" lat="51.159479"><ele>48.2</ele><time>2022-03-27T08:04:47.000Z</time></trkpt><trkpt lon="5.492574" lat="51.15951"><ele>48.2</ele><time>2022-03-27T08:04:48.000Z</time></trkpt><trkpt lon="5.492475" lat="51.159537"><ele>48.2</ele><time>2022-03-27T08:04:49.000Z</time></trkpt><trkpt lon="5.492379" lat="51.159567"><ele>48.4</ele><time>2022-03-27T08:04:50.000Z</time></trkpt><trkpt lon="5.49228" lat="51.159594"><ele>48.4</ele><time>2022-03-27T08:04:51.000Z</time></trkpt><trkpt lon="5.492177" lat="51.159621"><ele>48.2</ele><time>2022-03-27T08:04:52.000Z</time></trkpt><trkpt lon="5.492079" lat="51.159651"><ele>48.4</ele><time>2022-03-27T08:04:53.000Z</time></trkpt><trkpt lon="5.49198" lat="51.159685"><ele>48.4</ele><time>2022-03-27T08:04:54.000Z</time></trkpt><trkpt lon="5.491885" lat="51.159712"><ele>48.4</ele><time>2022-03-27T08:04:55.000Z</time></trkpt><trkpt lon="5.491799" lat="51.159735"><ele>48.4</ele><time>2022-03-27T08:04:56.000Z</time></trkpt><trkpt lon="5.491719" lat="51.159762"><ele>48.4</ele><time>2022-03-27T08:04:57.000Z</time></trkpt><trkpt lon="5.491637" lat="51.159788"><ele>48.6</ele><time>2022-03-27T08:04:58.000Z</time></trkpt><trkpt lon="5.491543" lat="51.159815"><ele>48.6</ele><time>2022-03-27T08:04:59.000Z</time></trkpt><trkpt lon="5.491445" lat="51.159842"><ele>48.6</ele><time>2022-03-27T08:05:00.000Z</time></trkpt><trkpt lon="5.491348" lat="51.159875"><ele>48.8</ele><time>2022-03-27T08:05:01.000Z</time></trkpt><trkpt lon="5.491249" lat="51.159907"><ele>48.8</ele><time>2022-03-27T08:05:02.000Z</time></trkpt><trkpt lon="5.491149" lat="51.159937"><ele>48.8</ele><time>2022-03-27T08:05:03.000Z</time></trkpt><trkpt lon="5.491048" lat="51.159971"><ele>48.8</ele><time>2022-03-27T08:05:04.000Z</time></trkpt><trkpt lon="5.490954" lat="51.160004"><ele>48.8</ele><time>2022-03-27T08:05:05.000Z</time></trkpt><trkpt lon="5.49086" lat="51.160036"><ele>48.8</ele><time>2022-03-27T08:05:06.000Z</time></trkpt><trkpt lon="5.490743" lat="51.160067"><ele>48.6</ele><time>2022-03-27T08:05:07.000Z</time></trkpt><trkpt lon="5.490639" lat="51.160098"><ele>48.6</ele><time>2022-03-27T08:05:08.000Z</time></trkpt><trkpt lon="5.490539" lat="51.160128"><ele>48.6</ele><time>2022-03-27T08:05:09.000Z</time></trkpt><trkpt lon="5.490446" lat="51.160155"><ele>48.6</ele><time>2022-03-27T08:05:10.000Z</time></trkpt><trkpt lon="5.490358" lat="51.160182"><ele>48.4</ele><time>2022-03-27T08:05:11.000Z</time></trkpt><trkpt lon="5.490278" lat="51.160205"><ele>48.4</ele><time>2022-03-27T08:05:12.000Z</time></trkpt><trkpt lon="5.490208" lat="51.160224"><ele>48.6</ele><time>2022-03-27T08:05:13.000Z</time></trkpt><trkpt lon="5.490146" lat="51.160243"><ele>48.6</ele><time>2022-03-27T08:05:14.000Z</time></trkpt><trkpt lon="5.490093" lat="51.160258"><ele>48.6</ele><time>2022-03-27T08:05:15.000Z</time></trkpt><trkpt lon="5.490054" lat="51.16027"><ele>48.6</ele><time>2022-03-27T08:05:16.000Z</time></trkpt><trkpt lon="5.490025" lat="51.160282"><ele>48.6</ele><time>2022-03-27T08:05:17.000Z</time></trkpt><trkpt lon="5.489802" lat="51.160339"><ele>48.6</ele><time>2022-03-27T08:11:17.000Z</time></trkpt><trkpt lon="5.489761" lat="51.16035"><ele>48.6</ele><time>2022-03-27T08:11:18.000Z</time></trkpt><trkpt lon="5.489714" lat="51.160365"><ele>48.6</ele><time>2022-03-27T08:11:19.000Z</time></trkpt><trkpt lon="5.489661" lat="51.160381"><ele>48.6</ele><time>2022-03-27T08:11:20.000Z</time></trkpt><trkpt lon="5.489604" lat="51.160396"><ele>48.6</ele><time>2022-03-27T08:11:21.000Z</time></trkpt><trkpt lon="5.489542" lat="51.160411"><ele>48.4</ele><time>2022-03-27T08:11:22.000Z</time></trkpt><trkpt lon="5.489475" lat="51.16043"><ele>48.4</ele><time>2022-03-27T08:11:23.000Z</time></trkpt><trkpt lon="5.489407" lat="51.160449"><ele>48.4</ele><time>2022-03-27T08:11:24.000Z</time></trkpt><trkpt lon="5.489337" lat="51.160468"><ele>48.4</ele><time>2022-03-27T08:11:25.000Z</time></trkpt><trkpt lon="5.489257" lat="51.160491"><ele>48.4</ele><time>2022-03-27T08:11:26.000Z</time></trkpt><trkpt lon="5.489172" lat="51.160513"><ele>48.4</ele><time>2022-03-27T08:11:27.000Z</time></trkpt><trkpt lon="5.489081" lat="51.160537"><ele>48.4</ele><time>2022-03-27T08:11:28.000Z</time></trkpt><trkpt lon="5.488987" lat="51.160563"><ele>48.4</ele><time>2022-03-27T08:11:29.000Z</time></trkpt><trkpt lon="5.488887" lat="51.16059"><ele>48.4</ele><time>2022-03-27T08:11:30.000Z</time></trkpt><trkpt lon="5.48878" lat="51.16062"><ele>48.2</ele><time>2022-03-27T08:11:31.000Z</time></trkpt><trkpt lon="5.48867" lat="51.160654"><ele>48.2</ele><time>2022-03-27T08:11:32.000Z</time></trkpt><trkpt lon="5.48856" lat="51.160685"><ele>48</ele><time>2022-03-27T08:11:33.000Z</time></trkpt><trkpt lon="5.488452" lat="51.160719"><ele>47.8</ele><time>2022-03-27T08:11:34.000Z</time></trkpt><trkpt lon="5.488349" lat="51.160753"><ele>47.6</ele><time>2022-03-27T08:11:35.000Z</time></trkpt><trkpt lon="5.488246" lat="51.160781"><ele>47.6</ele><time>2022-03-27T08:11:36.000Z</time></trkpt><trkpt lon="5.48815" lat="51.16081"><ele>47.6</ele><time>2022-03-27T08:11:37.000Z</time></trkpt><trkpt lon="5.488049" lat="51.160842"><ele>47.8</ele><time>2022-03-27T08:11:38.000Z</time></trkpt><trkpt lon="5.487953" lat="51.160868"><ele>47.8</ele><time>2022-03-27T08:11:39.000Z</time></trkpt><trkpt lon="5.487856" lat="51.160899"><ele>47.8</ele><time>2022-03-27T08:11:40.000Z</time></trkpt><trkpt lon="5.48776" lat="51.160925"><ele>47.8</ele><time>2022-03-27T08:11:41.000Z</time></trkpt><trkpt lon="5.487664" lat="51.160955"><ele>48</ele><time>2022-03-27T08:11:42.000Z</time></trkpt><trkpt lon="5.487569" lat="51.160982"><ele>48</ele><time>2022-03-27T08:11:43.000Z</time></trkpt><trkpt lon="5.487474" lat="51.161009"><ele>48.2</ele><time>2022-03-27T08:11:44.000Z</time></trkpt><trkpt lon="5.487379" lat="51.161039"><ele>48.4</ele><time>2022-03-27T08:11:45.000Z</time></trkpt><trkpt lon="5.487285" lat="51.161067"><ele>48.4</ele><time>2022-03-27T08:11:46.000Z</time></trkpt><trkpt lon="5.487191" lat="51.161093"><ele>48.4</ele><time>2022-03-27T08:11:47.000Z</time></trkpt><trkpt lon="5.4871" lat="51.161124"><ele>48.6</ele><time>2022-03-27T08:11:48.000Z</time></trkpt><trkpt lon="5.487009" lat="51.161151"><ele>48.6</ele><time>2022-03-27T08:11:49.000Z</time></trkpt><trkpt lon="5.486918" lat="51.161177"><ele>48.6</ele><time>2022-03-27T08:11:50.000Z</time></trkpt><trkpt lon="5.486827" lat="51.161207"><ele>48.8</ele><time>2022-03-27T08:11:51.000Z</time></trkpt><trkpt lon="5.486734" lat="51.161234"><ele>48.8</ele><time>2022-03-27T08:11:52.000Z</time></trkpt><trkpt lon="5.486641" lat="51.161261"><ele>48.8</ele><time>2022-03-27T08:11:53.000Z</time></trkpt><trkpt lon="5.48655" lat="51.161288"><ele>48.8</ele><time>2022-03-27T08:11:54.000Z</time></trkpt><trkpt lon="5.486457" lat="51.161314"><ele>49</ele><time>2022-03-27T08:11:55.000Z</time></trkpt><trkpt lon="5.486363" lat="51.161345"><ele>49</ele><time>2022-03-27T08:11:56.000Z</time></trkpt><trkpt lon="5.486267" lat="51.161372"><ele>49</ele><time>2022-03-27T08:11:57.000Z</time></trkpt><trkpt lon="5.486171" lat="51.161402"><ele>49</ele><time>2022-03-27T08:11:58.000Z</time></trkpt><trkpt lon="5.486072" lat="51.161433"><ele>49</ele><time>2022-03-27T08:11:59.000Z</time></trkpt><trkpt lon="5.485972" lat="51.161463"><ele>49</ele><time>2022-03-27T08:12:00.000Z</time></trkpt><trkpt lon="5.485875" lat="51.161494"><ele>49</ele><time>2022-03-27T08:12:01.000Z</time></trkpt><trkpt lon="5.485779" lat="51.16152"><ele>49</ele><time>2022-03-27T08:12:02.000Z</time></trkpt><trkpt lon="5.485682" lat="51.161547"><ele>49</ele><time>2022-03-27T08:12:03.000Z</time></trkpt><trkpt lon="5.485587" lat="51.161577"><ele>49</ele><time>2022-03-27T08:12:04.000Z</time></trkpt><trkpt lon="5.485491" lat="51.161605"><ele>49.2</ele><time>2022-03-27T08:12:05.000Z</time></trkpt><trkpt lon="5.485399" lat="51.161634"><ele>49.2</ele><time>2022-03-27T08:12:06.000Z</time></trkpt><trkpt lon="5.485306" lat="51.161662"><ele>49.2</ele><time>2022-03-27T08:12:07.000Z</time></trkpt><trkpt lon="5.485214" lat="51.161689"><ele>49.2</ele><time>2022-03-27T08:12:08.000Z</time></trkpt><trkpt lon="5.485124" lat="51.161715"><ele>49.2</ele><time>2022-03-27T08:12:09.000Z</time></trkpt><trkpt lon="5.485034" lat="51.161741"><ele>49.2</ele><time>2022-03-27T08:12:10.000Z</time></trkpt><trkpt lon="5.484944" lat="51.161768"><ele>49.2</ele><time>2022-03-27T08:12:11.000Z</time></trkpt><trkpt lon="5.484851" lat="51.161795"><ele>49.2</ele><time>2022-03-27T08:12:12.000Z</time></trkpt><trkpt lon="5.484763" lat="51.161826"><ele>49.2</ele><time>2022-03-27T08:12:13.000Z</time></trkpt><trkpt lon="5.484677" lat="51.161849"><ele>49.2</ele><time>2022-03-27T08:12:14.000Z</time></trkpt><trkpt lon="5.484591" lat="51.161875"><ele>49.2</ele><time>2022-03-27T08:12:15.000Z</time></trkpt><trkpt lon="5.484508" lat="51.161902"><ele>49.4</ele><time>2022-03-27T08:12:16.000Z</time></trkpt><trkpt lon="5.484427" lat="51.161929"><ele>49.4</ele><time>2022-03-27T08:12:17.000Z</time></trkpt><trkpt lon="5.484345" lat="51.161952"><ele>49.2</ele><time>2022-03-27T08:12:18.000Z</time></trkpt><trkpt lon="5.48426" lat="51.161964"><ele>49.2</ele><time>2022-03-27T08:12:19.000Z</time></trkpt><trkpt lon="5.484177" lat="51.161954"><ele>49.2</ele><time>2022-03-27T08:12:20.000Z</time></trkpt><trkpt lon="5.484101" lat="51.161928"><ele>49.2</ele><time>2022-03-27T08:12:21.000Z</time></trkpt><trkpt lon="5.48403" lat="51.16189"><ele>49.2</ele><time>2022-03-27T08:12:22.000Z</time></trkpt><trkpt lon="5.483958" lat="51.161841"><ele>49.2</ele><time>2022-03-27T08:12:23.000Z</time></trkpt><trkpt lon="5.483887" lat="51.161788"><ele>49.2</ele><time>2022-03-27T08:12:24.000Z</time></trkpt><trkpt lon="5.483814" lat="51.161735"><ele>49.2</ele><time>2022-03-27T08:12:25.000Z</time></trkpt><trkpt lon="5.483738" lat="51.161684"><ele>49.4</ele><time>2022-03-27T08:12:26.000Z</time></trkpt><trkpt lon="5.483665" lat="51.161631"><ele>49.4</ele><time>2022-03-27T08:12:27.000Z</time></trkpt><trkpt lon="5.483595" lat="51.161582"><ele>49.4</ele><time>2022-03-27T08:12:28.000Z</time></trkpt><trkpt lon="5.483523" lat="51.161533"><ele>49.6</ele><time>2022-03-27T08:12:29.000Z</time></trkpt><trkpt lon="5.48345" lat="51.161479"><ele>49.6</ele><time>2022-03-27T08:12:30.000Z</time></trkpt><trkpt lon="5.483376" lat="51.161429"><ele>49.6</ele><time>2022-03-27T08:12:31.000Z</time></trkpt><trkpt lon="5.483301" lat="51.161376"><ele>49.6</ele><time>2022-03-27T08:12:32.000Z</time></trkpt><trkpt lon="5.483227" lat="51.161326"><ele>49.8</ele><time>2022-03-27T08:12:33.000Z</time></trkpt><trkpt lon="5.483154" lat="51.161276"><ele>49.8</ele><time>2022-03-27T08:12:34.000Z</time></trkpt><trkpt lon="5.483082" lat="51.161227"><ele>49.8</ele><time>2022-03-27T08:12:35.000Z</time></trkpt><trkpt lon="5.483008" lat="51.161173"><ele>49.8</ele><time>2022-03-27T08:12:36.000Z</time></trkpt><trkpt lon="5.482935" lat="51.161124"><ele>49.6</ele><time>2022-03-27T08:12:37.000Z</time></trkpt><trkpt lon="5.482862" lat="51.16107"><ele>49.6</ele><time>2022-03-27T08:12:38.000Z</time></trkpt><trkpt lon="5.482788" lat="51.161018"><ele>49.6</ele><time>2022-03-27T08:12:39.000Z</time></trkpt><trkpt lon="5.48271" lat="51.160967"><ele>49.6</ele><time>2022-03-27T08:12:40.000Z</time></trkpt><trkpt lon="5.482634" lat="51.160914"><ele>49.6</ele><time>2022-03-27T08:12:41.000Z</time></trkpt><trkpt lon="5.482557" lat="51.160861"><ele>49.6</ele><time>2022-03-27T08:12:42.000Z</time></trkpt><trkpt lon="5.482482" lat="51.160807"><ele>49.4</ele><time>2022-03-27T08:12:43.000Z</time></trkpt><trkpt lon="5.48241" lat="51.160758"><ele>49.4</ele><time>2022-03-27T08:12:44.000Z</time></trkpt><trkpt lon="5.482334" lat="51.160704"><ele>49.4</ele><time>2022-03-27T08:12:45.000Z</time></trkpt><trkpt lon="5.48226" lat="51.160655"><ele>49.4</ele><time>2022-03-27T08:12:46.000Z</time></trkpt><trkpt lon="5.482186" lat="51.160606"><ele>49.4</ele><time>2022-03-27T08:12:47.000Z</time></trkpt><trkpt lon="5.482112" lat="51.160556"><ele>49.4</ele><time>2022-03-27T08:12:48.000Z</time></trkpt><trkpt lon="5.482035" lat="51.160502"><ele>49.4</ele><time>2022-03-27T08:12:49.000Z</time></trkpt><trkpt lon="5.48196" lat="51.160449"><ele>49.4</ele><time>2022-03-27T08:12:50.000Z</time></trkpt><trkpt lon="5.481888" lat="51.160397"><ele>49.4</ele><time>2022-03-27T08:12:51.000Z</time></trkpt><trkpt lon="5.481812" lat="51.160343"><ele>49.6</ele><time>2022-03-27T08:12:52.000Z</time></trkpt><trkpt lon="5.481738" lat="51.160293"><ele>49.6</ele><time>2022-03-27T08:12:53.000Z</time></trkpt><trkpt lon="5.481665" lat="51.160243"><ele>49.6</ele><time>2022-03-27T08:12:54.000Z</time></trkpt><trkpt lon="5.481593" lat="51.160189"><ele>49.6</ele><time>2022-03-27T08:12:55.000Z</time></trkpt><trkpt lon="5.481523" lat="51.16014"><ele>49.6</ele><time>2022-03-27T08:12:56.000Z</time></trkpt><trkpt lon="5.481452" lat="51.160091"><ele>49.6</ele><time>2022-03-27T08:12:57.000Z</time></trkpt><trkpt lon="5.48138" lat="51.160041"><ele>49.6</ele><time>2022-03-27T08:12:58.000Z</time></trkpt><trkpt lon="5.48131" lat="51.159992"><ele>49.6</ele><time>2022-03-27T08:12:59.000Z</time></trkpt><trkpt lon="5.481234" lat="51.159938"><ele>49.6</ele><time>2022-03-27T08:13:00.000Z</time></trkpt><trkpt lon="5.48116" lat="51.159884"><ele>49.8</ele><time>2022-03-27T08:13:01.000Z</time></trkpt><trkpt lon="5.481085" lat="51.159834"><ele>49.8</ele><time>2022-03-27T08:13:02.000Z</time></trkpt><trkpt lon="5.481012" lat="51.159781"><ele>49.8</ele><time>2022-03-27T08:13:03.000Z</time></trkpt><trkpt lon="5.480937" lat="51.159728"><ele>49.8</ele><time>2022-03-27T08:13:04.000Z</time></trkpt><trkpt lon="5.480862" lat="51.159678"><ele>49.8</ele><time>2022-03-27T08:13:05.000Z</time></trkpt><trkpt lon="5.48079" lat="51.159629"><ele>49.8</ele><time>2022-03-27T08:13:06.000Z</time></trkpt><trkpt lon="5.480714" lat="51.159579"><ele>49.8</ele><time>2022-03-27T08:13:07.000Z</time></trkpt><trkpt lon="5.480642" lat="51.159529"><ele>50</ele><time>2022-03-27T08:13:08.000Z</time></trkpt><trkpt lon="5.480571" lat="51.15948"><ele>50</ele><time>2022-03-27T08:13:09.000Z</time></trkpt><trkpt lon="5.4805" lat="51.15943"><ele>50</ele><time>2022-03-27T08:13:10.000Z</time></trkpt><trkpt lon="5.480431" lat="51.159381"><ele>50.2</ele><time>2022-03-27T08:13:11.000Z</time></trkpt><trkpt lon="5.480358" lat="51.159327"><ele>50.2</ele><time>2022-03-27T08:13:12.000Z</time></trkpt><trkpt lon="5.480286" lat="51.159278"><ele>50.2</ele><time>2022-03-27T08:13:13.000Z</time></trkpt><trkpt lon="5.480214" lat="51.159225"><ele>50.4</ele><time>2022-03-27T08:13:14.000Z</time></trkpt><trkpt lon="5.480142" lat="51.159175"><ele>50.4</ele><time>2022-03-27T08:13:15.000Z</time></trkpt><trkpt lon="5.480068" lat="51.159121"><ele>50.4</ele><time>2022-03-27T08:13:16.000Z</time></trkpt><trkpt lon="5.479998" lat="51.159072"><ele>50.4</ele><time>2022-03-27T08:13:17.000Z</time></trkpt><trkpt lon="5.479923" lat="51.159023"><ele>50.6</ele><time>2022-03-27T08:13:18.000Z</time></trkpt><trkpt lon="5.479847" lat="51.158972"><ele>50.6</ele><time>2022-03-27T08:13:19.000Z</time></trkpt><trkpt lon="5.479774" lat="51.158919"><ele>50.8</ele><time>2022-03-27T08:13:20.000Z</time></trkpt><trkpt lon="5.479702" lat="51.158871"><ele>50.8</ele><time>2022-03-27T08:13:21.000Z</time></trkpt><trkpt lon="5.479623" lat="51.15882"><ele>51</ele><time>2022-03-27T08:13:22.000Z</time></trkpt><trkpt lon="5.47955" lat="51.15877"><ele>51</ele><time>2022-03-27T08:13:23.000Z</time></trkpt><trkpt lon="5.479477" lat="51.158721"><ele>51</ele><time>2022-03-27T08:13:24.000Z</time></trkpt><trkpt lon="5.479404" lat="51.158671"><ele>51</ele><time>2022-03-27T08:13:25.000Z</time></trkpt><trkpt lon="5.479329" lat="51.158618"><ele>51</ele><time>2022-03-27T08:13:26.000Z</time></trkpt><trkpt lon="5.479254" lat="51.158568"><ele>51</ele><time>2022-03-27T08:13:27.000Z</time></trkpt><trkpt lon="5.479181" lat="51.158515"><ele>51</ele><time>2022-03-27T08:13:28.000Z</time></trkpt><trkpt lon="5.479108" lat="51.158465"><ele>51</ele><time>2022-03-27T08:13:29.000Z</time></trkpt><trkpt lon="5.479035" lat="51.158419"><ele>51</ele><time>2022-03-27T08:13:30.000Z</time></trkpt><trkpt lon="5.478963" lat="51.158369"><ele>51</ele><time>2022-03-27T08:13:31.000Z</time></trkpt><trkpt lon="5.478893" lat="51.15832"><ele>51</ele><time>2022-03-27T08:13:32.000Z</time></trkpt><trkpt lon="5.478824" lat="51.158274"><ele>51</ele><time>2022-03-27T08:13:33.000Z</time></trkpt><trkpt lon="5.478758" lat="51.15823"><ele>51</ele><time>2022-03-27T08:13:34.000Z</time></trkpt><trkpt lon="5.47869" lat="51.158183"><ele>51</ele><time>2022-03-27T08:13:35.000Z</time></trkpt><trkpt lon="5.478632" lat="51.158137"><ele>51</ele><time>2022-03-27T08:13:36.000Z</time></trkpt><trkpt lon="5.478572" lat="51.158095"><ele>51</ele><time>2022-03-27T08:13:37.000Z</time></trkpt><trkpt lon="5.478505" lat="51.158056"><ele>51</ele><time>2022-03-27T08:13:38.000Z</time></trkpt><trkpt lon="5.478427" lat="51.158029"><ele>51</ele><time>2022-03-27T08:13:39.000Z</time></trkpt><trkpt lon="5.478344" lat="51.158017"><ele>50.8</ele><time>2022-03-27T08:13:40.000Z</time></trkpt><trkpt lon="5.478262" lat="51.15802"><ele>50.8</ele><time>2022-03-27T08:13:41.000Z</time></trkpt><trkpt lon="5.478182" lat="51.158031"><ele>50.8</ele><time>2022-03-27T08:13:42.000Z</time></trkpt><trkpt lon="5.478101" lat="51.158046"><ele>50.8</ele><time>2022-03-27T08:13:43.000Z</time></trkpt><trkpt lon="5.478007" lat="51.158069"><ele>50.8</ele><time>2022-03-27T08:13:44.000Z</time></trkpt><trkpt lon="5.477912" lat="51.158091"><ele>50.8</ele><time>2022-03-27T08:13:45.000Z</time></trkpt><trkpt lon="5.477814" lat="51.158118"><ele>51</ele><time>2022-03-27T08:13:46.000Z</time></trkpt><trkpt lon="5.477712" lat="51.158141"><ele>51</ele><time>2022-03-27T08:13:47.000Z</time></trkpt><trkpt lon="5.477611" lat="51.158164"><ele>51.2</ele><time>2022-03-27T08:13:48.000Z</time></trkpt><trkpt lon="5.477503" lat="51.158176"><ele>51.2</ele><time>2022-03-27T08:13:49.000Z</time></trkpt><trkpt lon="5.477395" lat="51.158191"><ele>51.4</ele><time>2022-03-27T08:13:50.000Z</time></trkpt><trkpt lon="5.477285" lat="51.158206"><ele>51.4</ele><time>2022-03-27T08:13:51.000Z</time></trkpt><trkpt lon="5.477176" lat="51.158218"><ele>51.4</ele><time>2022-03-27T08:13:52.000Z</time></trkpt><trkpt lon="5.477065" lat="51.158229"><ele>51.4</ele><time>2022-03-27T08:13:53.000Z</time></trkpt><trkpt lon="5.476956" lat="51.158237"><ele>51.4</ele><time>2022-03-27T08:13:54.000Z</time></trkpt><trkpt lon="5.476843" lat="51.158248"><ele>51.6</ele><time>2022-03-27T08:13:55.000Z</time></trkpt><trkpt lon="5.476731" lat="51.15826"><ele>51.6</ele><time>2022-03-27T08:13:56.000Z</time></trkpt><trkpt lon="5.476619" lat="51.158271"><ele>51.6</ele><time>2022-03-27T08:13:57.000Z</time></trkpt><trkpt lon="5.476509" lat="51.158286"><ele>51.8</ele><time>2022-03-27T08:13:58.000Z</time></trkpt><trkpt lon="5.476401" lat="51.158301"><ele>51.8</ele><time>2022-03-27T08:13:59.000Z</time></trkpt><trkpt lon="5.476294" lat="51.15832"><ele>51.8</ele><time>2022-03-27T08:14:00.000Z</time></trkpt><trkpt lon="5.476193" lat="51.158336"><ele>51.8</ele><time>2022-03-27T08:14:01.000Z</time></trkpt><trkpt lon="5.47609" lat="51.158354"><ele>51.8</ele><time>2022-03-27T08:14:02.000Z</time></trkpt><trkpt lon="5.475985" lat="51.158374"><ele>51.8</ele><time>2022-03-27T08:14:03.000Z</time></trkpt><trkpt lon="5.475882" lat="51.158397"><ele>51.8</ele><time>2022-03-27T08:14:04.000Z</time></trkpt><trkpt lon="5.475779" lat="51.158419"><ele>51.8</ele><time>2022-03-27T08:14:05.000Z</time></trkpt><trkpt lon="5.475676" lat="51.158446"><ele>51.8</ele><time>2022-03-27T08:14:06.000Z</time></trkpt><trkpt lon="5.475576" lat="51.15848"><ele>51.8</ele><time>2022-03-27T08:14:07.000Z</time></trkpt><trkpt lon="5.475479" lat="51.158515"><ele>51.8</ele><time>2022-03-27T08:14:08.000Z</time></trkpt><trkpt lon="5.475388" lat="51.158552"><ele>51.8</ele><time>2022-03-27T08:14:09.000Z</time></trkpt><trkpt lon="5.475296" lat="51.158591"><ele>51.8</ele><time>2022-03-27T08:14:10.000Z</time></trkpt><trkpt lon="5.475209" lat="51.158625"><ele>51.8</ele><time>2022-03-27T08:14:11.000Z</time></trkpt><trkpt lon="5.475124" lat="51.158659"><ele>51.8</ele><time>2022-03-27T08:14:12.000Z</time></trkpt><trkpt lon="5.47504" lat="51.158693"><ele>51.8</ele><time>2022-03-27T08:14:13.000Z</time></trkpt><trkpt lon="5.474953" lat="51.158728"><ele>51.6</ele><time>2022-03-27T08:14:14.000Z</time></trkpt><trkpt lon="5.474867" lat="51.158762"><ele>51.4</ele><time>2022-03-27T08:14:15.000Z</time></trkpt><trkpt lon="5.474784" lat="51.158804"><ele>51.4</ele><time>2022-03-27T08:14:16.000Z</time></trkpt><trkpt lon="5.474703" lat="51.158842"><ele>51.4</ele><time>2022-03-27T08:14:17.000Z</time></trkpt><trkpt lon="5.47462" lat="51.158883"><ele>51.4</ele><time>2022-03-27T08:14:18.000Z</time></trkpt><trkpt lon="5.474534" lat="51.158922"><ele>51.4</ele><time>2022-03-27T08:14:19.000Z</time></trkpt><trkpt lon="5.474446" lat="51.158964"><ele>51.4</ele><time>2022-03-27T08:14:20.000Z</time></trkpt><trkpt lon="5.474357" lat="51.159005"><ele>51.4</ele><time>2022-03-27T08:14:21.000Z</time></trkpt><trkpt lon="5.474263" lat="51.15904"><ele>51.4</ele><time>2022-03-27T08:14:22.000Z</time></trkpt><trkpt lon="5.474162" lat="51.159075"><ele>51.4</ele><time>2022-03-27T08:14:23.000Z</time></trkpt><trkpt lon="5.474057" lat="51.159098"><ele>51.4</ele><time>2022-03-27T08:14:24.000Z</time></trkpt><trkpt lon="5.473951" lat="51.159114"><ele>51.4</ele><time>2022-03-27T08:14:25.000Z</time></trkpt><trkpt lon="5.473842" lat="51.159126"><ele>51.4</ele><time>2022-03-27T08:14:26.000Z</time></trkpt><trkpt lon="5.473732" lat="51.159134"><ele>51.4</ele><time>2022-03-27T08:14:27.000Z</time></trkpt><trkpt lon="5.473625" lat="51.159137"><ele>51.4</ele><time>2022-03-27T08:14:28.000Z</time></trkpt><trkpt lon="5.473511" lat="51.159141"><ele>51.4</ele><time>2022-03-27T08:14:29.000Z</time></trkpt><trkpt lon="5.4734" lat="51.159142"><ele>51.4</ele><time>2022-03-27T08:14:30.000Z</time></trkpt><trkpt lon="5.473294" lat="51.159145"><ele>51.4</ele><time>2022-03-27T08:14:31.000Z</time></trkpt><trkpt lon="5.473188" lat="51.159153"><ele>51.6</ele><time>2022-03-27T08:14:32.000Z</time></trkpt><trkpt lon="5.473089" lat="51.15916"><ele>51.6</ele><time>2022-03-27T08:14:33.000Z</time></trkpt><trkpt lon="5.472995" lat="51.159171"><ele>51.6</ele><time>2022-03-27T08:14:34.000Z</time></trkpt><trkpt lon="5.472907" lat="51.159186"><ele>51.8</ele><time>2022-03-27T08:14:35.000Z</time></trkpt><trkpt lon="5.47282" lat="51.159202"><ele>51.8</ele><time>2022-03-27T08:14:36.000Z</time></trkpt><trkpt lon="5.472739" lat="51.159217"><ele>51.8</ele><time>2022-03-27T08:14:37.000Z</time></trkpt><trkpt lon="5.472667" lat="51.159225"><ele>51.8</ele><time>2022-03-27T08:14:38.000Z</time></trkpt><trkpt lon="5.472603" lat="51.159225"><ele>52</ele><time>2022-03-27T08:14:39.000Z</time></trkpt><trkpt lon="5.472549" lat="51.159207"><ele>52</ele><time>2022-03-27T08:14:40.000Z</time></trkpt><trkpt lon="5.472508" lat="51.159171"><ele>52</ele><time>2022-03-27T08:14:41.000Z</time></trkpt><trkpt lon="5.472469" lat="51.159125"><ele>52</ele><time>2022-03-27T08:14:42.000Z</time></trkpt><trkpt lon="5.472426" lat="51.159076"><ele>51.8</ele><time>2022-03-27T08:14:43.000Z</time></trkpt><trkpt lon="5.472384" lat="51.159016"><ele>51.8</ele><time>2022-03-27T08:14:44.000Z</time></trkpt><trkpt lon="5.472344" lat="51.158958"><ele>51.8</ele><time>2022-03-27T08:14:45.000Z</time></trkpt><trkpt lon="5.4723" lat="51.158896"><ele>51.8</ele><time>2022-03-27T08:14:46.000Z</time></trkpt><trkpt lon="5.472253" lat="51.158833"><ele>51.8</ele><time>2022-03-27T08:14:47.000Z</time></trkpt><trkpt lon="5.472202" lat="51.15877"><ele>51.8</ele><time>2022-03-27T08:14:48.000Z</time></trkpt><trkpt lon="5.472155" lat="51.158707"><ele>51.6</ele><time>2022-03-27T08:14:49.000Z</time></trkpt><trkpt lon="5.47211" lat="51.158641"><ele>51.6</ele><time>2022-03-27T08:14:50.000Z</time></trkpt><trkpt lon="5.472064" lat="51.158573"><ele>51.6</ele><time>2022-03-27T08:14:51.000Z</time></trkpt><trkpt lon="5.472014" lat="51.158508"><ele>51.8</ele><time>2022-03-27T08:14:52.000Z</time></trkpt><trkpt lon="5.471967" lat="51.158443"><ele>51.8</ele><time>2022-03-27T08:14:53.000Z</time></trkpt><trkpt lon="5.471926" lat="51.158378"><ele>51.8</ele><time>2022-03-27T08:14:54.000Z</time></trkpt><trkpt lon="5.471883" lat="51.158318"><ele>51.8</ele><time>2022-03-27T08:14:55.000Z</time></trkpt><trkpt lon="5.471841" lat="51.158256"><ele>52</ele><time>2022-03-27T08:14:56.000Z</time></trkpt><trkpt lon="5.471799" lat="51.158195"><ele>52</ele><time>2022-03-27T08:14:57.000Z</time></trkpt><trkpt lon="5.471752" lat="51.158134"><ele>52</ele><time>2022-03-27T08:14:58.000Z</time></trkpt><trkpt lon="5.471706" lat="51.158077"><ele>52</ele><time>2022-03-27T08:14:59.000Z</time></trkpt><trkpt lon="5.471656" lat="51.158012"><ele>52.2</ele><time>2022-03-27T08:15:00.000Z</time></trkpt><trkpt lon="5.471608" lat="51.157951"><ele>52.2</ele><time>2022-03-27T08:15:01.000Z</time></trkpt><trkpt lon="5.471562" lat="51.15789"><ele>52.2</ele><time>2022-03-27T08:15:02.000Z</time></trkpt><trkpt lon="5.471518" lat="51.157829"><ele>52.4</ele><time>2022-03-27T08:15:03.000Z</time></trkpt><trkpt lon="5.471474" lat="51.157771"><ele>52.4</ele><time>2022-03-27T08:15:04.000Z</time></trkpt><trkpt lon="5.471431" lat="51.157713"><ele>52.4</ele><time>2022-03-27T08:15:05.000Z</time></trkpt><trkpt lon="5.471381" lat="51.157649"><ele>52.4</ele><time>2022-03-27T08:15:06.000Z</time></trkpt><trkpt lon="5.471333" lat="51.157591"><ele>52.4</ele><time>2022-03-27T08:15:07.000Z</time></trkpt><trkpt lon="5.47128" lat="51.157528"><ele>52.4</ele><time>2022-03-27T08:15:08.000Z</time></trkpt><trkpt lon="5.471227" lat="51.15747"><ele>52.4</ele><time>2022-03-27T08:15:09.000Z</time></trkpt><trkpt lon="5.471169" lat="51.15741"><ele>52.6</ele><time>2022-03-27T08:15:10.000Z</time></trkpt><trkpt lon="5.471111" lat="51.157352"><ele>52.6</ele><time>2022-03-27T08:15:11.000Z</time></trkpt><trkpt lon="5.471046" lat="51.157298"><ele>52.6</ele><time>2022-03-27T08:15:12.000Z</time></trkpt><trkpt lon="5.470979" lat="51.157247"><ele>52.6</ele><time>2022-03-27T08:15:13.000Z</time></trkpt><trkpt lon="5.470905" lat="51.157192"><ele>52.8</ele><time>2022-03-27T08:15:14.000Z</time></trkpt><trkpt lon="5.470833" lat="51.157138"><ele>52.8</ele><time>2022-03-27T08:15:15.000Z</time></trkpt><trkpt lon="5.470764" lat="51.157093"><ele>52.8</ele><time>2022-03-27T08:15:16.000Z</time></trkpt><trkpt lon="5.470688" lat="51.157046"><ele>53</ele><time>2022-03-27T08:15:17.000Z</time></trkpt><trkpt lon="5.470612" lat="51.156996"><ele>53</ele><time>2022-03-27T08:15:18.000Z</time></trkpt><trkpt lon="5.470537" lat="51.15695"><ele>53.2</ele><time>2022-03-27T08:15:19.000Z</time></trkpt><trkpt lon="5.470467" lat="51.156905"><ele>53.2</ele><time>2022-03-27T08:15:20.000Z</time></trkpt><trkpt lon="5.470394" lat="51.156859"><ele>53.2</ele><time>2022-03-27T08:15:21.000Z</time></trkpt><trkpt lon="5.470322" lat="51.15682"><ele>53.4</ele><time>2022-03-27T08:15:22.000Z</time></trkpt><trkpt lon="5.470256" lat="51.156779"><ele>53.4</ele><time>2022-03-27T08:15:23.000Z</time></trkpt><trkpt lon="5.470189" lat="51.156738"><ele>53.6</ele><time>2022-03-27T08:15:24.000Z</time></trkpt><trkpt lon="5.470123" lat="51.156691"><ele>53.8</ele><time>2022-03-27T08:15:25.000Z</time></trkpt><trkpt lon="5.470068" lat="51.156649"><ele>54</ele><time>2022-03-27T08:15:26.000Z</time></trkpt><trkpt lon="5.470025" lat="51.156596"><ele>54.2</ele><time>2022-03-27T08:15:27.000Z</time></trkpt><trkpt lon="5.469996" lat="51.156542"><ele>54.4</ele><time>2022-03-27T08:15:28.000Z</time></trkpt><trkpt lon="5.469981" lat="51.156479"><ele>54.6</ele><time>2022-03-27T08:15:29.000Z</time></trkpt><trkpt lon="5.469972" lat="51.15641"><ele>54.6</ele><time>2022-03-27T08:15:30.000Z</time></trkpt><trkpt lon="5.469965" lat="51.156343"><ele>54.8</ele><time>2022-03-27T08:15:31.000Z</time></trkpt><trkpt lon="5.469964" lat="51.156273"><ele>54.8</ele><time>2022-03-27T08:15:32.000Z</time></trkpt><trkpt lon="5.46996" lat="51.1562"><ele>55</ele><time>2022-03-27T08:15:33.000Z</time></trkpt><trkpt lon="5.469958" lat="51.156131"><ele>55</ele><time>2022-03-27T08:15:34.000Z</time></trkpt><trkpt lon="5.469957" lat="51.156063"><ele>55</ele><time>2022-03-27T08:15:35.000Z</time></trkpt><trkpt lon="5.469954" lat="51.155997"><ele>55</ele><time>2022-03-27T08:15:36.000Z</time></trkpt><trkpt lon="5.469952" lat="51.155932"><ele>55</ele><time>2022-03-27T08:15:37.000Z</time></trkpt><trkpt lon="5.46995" lat="51.155864"><ele>55</ele><time>2022-03-27T08:15:38.000Z</time></trkpt><trkpt lon="5.46995" lat="51.155796"><ele>55</ele><time>2022-03-27T08:15:39.000Z</time></trkpt><trkpt lon="5.469948" lat="51.15573"><ele>55</ele><time>2022-03-27T08:15:40.000Z</time></trkpt><trkpt lon="5.469945" lat="51.155662"><ele>55</ele><time>2022-03-27T08:15:41.000Z</time></trkpt><trkpt lon="5.469944" lat="51.155597"><ele>55</ele><time>2022-03-27T08:15:42.000Z</time></trkpt><trkpt lon="5.469945" lat="51.155532"><ele>55.2</ele><time>2022-03-27T08:15:43.000Z</time></trkpt><trkpt lon="5.469945" lat="51.155468"><ele>55.2</ele><time>2022-03-27T08:15:44.000Z</time></trkpt><trkpt lon="5.469942" lat="51.155402"><ele>55.2</ele><time>2022-03-27T08:15:45.000Z</time></trkpt><trkpt lon="5.469938" lat="51.155334"><ele>55.2</ele><time>2022-03-27T08:15:46.000Z</time></trkpt><trkpt lon="5.469937" lat="51.155266"><ele>55.2</ele><time>2022-03-27T08:15:47.000Z</time></trkpt><trkpt lon="5.469937" lat="51.155197"><ele>55.2</ele><time>2022-03-27T08:15:48.000Z</time></trkpt><trkpt lon="5.469935" lat="51.155132"><ele>55.2</ele><time>2022-03-27T08:15:49.000Z</time></trkpt><trkpt lon="5.469935" lat="51.155067"><ele>55.2</ele><time>2022-03-27T08:15:50.000Z</time></trkpt><trkpt lon="5.469934" lat="51.154999"><ele>55.2</ele><time>2022-03-27T08:15:51.000Z</time></trkpt><trkpt lon="5.46993" lat="51.15493"><ele>55.4</ele><time>2022-03-27T08:15:52.000Z</time></trkpt><trkpt lon="5.469927" lat="51.154865"><ele>55.4</ele><time>2022-03-27T08:15:53.000Z</time></trkpt><trkpt lon="5.469924" lat="51.154797"><ele>55.4</ele><time>2022-03-27T08:15:54.000Z</time></trkpt><trkpt lon="5.469922" lat="51.154732"><ele>55.4</ele><time>2022-03-27T08:15:55.000Z</time></trkpt><trkpt lon="5.469922" lat="51.154666"><ele>55.4</ele><time>2022-03-27T08:15:56.000Z</time></trkpt><trkpt lon="5.469922" lat="51.154602"><ele>55.6</ele><time>2022-03-27T08:15:57.000Z</time></trkpt><trkpt lon="5.469918" lat="51.154537"><ele>55.6</ele><time>2022-03-27T08:15:58.000Z</time></trkpt><trkpt lon="5.469912" lat="51.154472"><ele>55.6</ele><time>2022-03-27T08:15:59.000Z</time></trkpt><trkpt lon="5.469905" lat="51.154404"><ele>55.6</ele><time>2022-03-27T08:16:00.000Z</time></trkpt><trkpt lon="5.469904" lat="51.15434"><ele>55.6</ele><time>2022-03-27T08:16:01.000Z</time></trkpt><trkpt lon="5.4699" lat="51.154271"><ele>55.8</ele><time>2022-03-27T08:16:02.000Z</time></trkpt><trkpt lon="5.469897" lat="51.154201"><ele>55.8</ele><time>2022-03-27T08:16:03.000Z</time></trkpt><trkpt lon="5.469894" lat="51.154134"><ele>55.8</ele><time>2022-03-27T08:16:04.000Z</time></trkpt><trkpt lon="5.469892" lat="51.154068"><ele>55.8</ele><time>2022-03-27T08:16:05.000Z</time></trkpt><trkpt lon="5.46989" lat="51.154"><ele>55.8</ele><time>2022-03-27T08:16:06.000Z</time></trkpt><trkpt lon="5.469887" lat="51.153933"><ele>55.8</ele><time>2022-03-27T08:16:07.000Z</time></trkpt><trkpt lon="5.469884" lat="51.153861"><ele>55.8</ele><time>2022-03-27T08:16:08.000Z</time></trkpt><trkpt lon="5.469882" lat="51.153797"><ele>55.8</ele><time>2022-03-27T08:16:09.000Z</time></trkpt><trkpt lon="5.469882" lat="51.153732"><ele>55.8</ele><time>2022-03-27T08:16:10.000Z</time></trkpt><trkpt lon="5.469878" lat="51.153665"><ele>55.8</ele><time>2022-03-27T08:16:11.000Z</time></trkpt><trkpt lon="5.469877" lat="51.153598"><ele>56</ele><time>2022-03-27T08:16:12.000Z</time></trkpt><trkpt lon="5.469874" lat="51.15353"><ele>56</ele><time>2022-03-27T08:16:13.000Z</time></trkpt><trkpt lon="5.469873" lat="51.153461"><ele>56</ele><time>2022-03-27T08:16:14.000Z</time></trkpt><trkpt lon="5.46987" lat="51.153392"><ele>56.2</ele><time>2022-03-27T08:16:15.000Z</time></trkpt><trkpt lon="5.469867" lat="51.153321"><ele>56.2</ele><time>2022-03-27T08:16:16.000Z</time></trkpt><trkpt lon="5.469862" lat="51.153256"><ele>56.2</ele><time>2022-03-27T08:16:17.000Z</time></trkpt><trkpt lon="5.469858" lat="51.153184"><ele>56.2</ele><time>2022-03-27T08:16:18.000Z</time></trkpt><trkpt lon="5.469857" lat="51.15311"><ele>56.2</ele><time>2022-03-27T08:16:19.000Z</time></trkpt><trkpt lon="5.469855" lat="51.153042"><ele>56.4</ele><time>2022-03-27T08:16:20.000Z</time></trkpt><trkpt lon="5.469855" lat="51.152973"><ele>56.4</ele><time>2022-03-27T08:16:21.000Z</time></trkpt><trkpt lon="5.469863" lat="51.152904"><ele>56.4</ele><time>2022-03-27T08:16:22.000Z</time></trkpt><trkpt lon="5.469877" lat="51.152839"><ele>56.4</ele><time>2022-03-27T08:16:23.000Z</time></trkpt><trkpt lon="5.469896" lat="51.152774"><ele>56.4</ele><time>2022-03-27T08:16:24.000Z</time></trkpt><trkpt lon="5.469917" lat="51.152709"><ele>56.4</ele><time>2022-03-27T08:16:25.000Z</time></trkpt><trkpt lon="5.46994" lat="51.152645"><ele>56.4</ele><time>2022-03-27T08:16:26.000Z</time></trkpt><trkpt lon="5.469965" lat="51.15258"><ele>56.4</ele><time>2022-03-27T08:16:27.000Z</time></trkpt><trkpt lon="5.469989" lat="51.152515"><ele>56.4</ele><time>2022-03-27T08:16:28.000Z</time></trkpt><trkpt lon="5.470014" lat="51.15245"><ele>56.2</ele><time>2022-03-27T08:16:29.000Z</time></trkpt><trkpt lon="5.470037" lat="51.152382"><ele>56.4</ele><time>2022-03-27T08:16:30.000Z</time></trkpt><trkpt lon="5.470059" lat="51.152313"><ele>56.4</ele><time>2022-03-27T08:16:31.000Z</time></trkpt><trkpt lon="5.470081" lat="51.152248"><ele>56.4</ele><time>2022-03-27T08:16:32.000Z</time></trkpt><trkpt lon="5.470104" lat="51.152179"><ele>56.4</ele><time>2022-03-27T08:16:33.000Z</time></trkpt><trkpt lon="5.470126" lat="51.152114"><ele>56.4</ele><time>2022-03-27T08:16:34.000Z</time></trkpt><trkpt lon="5.470146" lat="51.152046"><ele>56.4</ele><time>2022-03-27T08:16:35.000Z</time></trkpt><trkpt lon="5.470166" lat="51.151977"><ele>56.4</ele><time>2022-03-27T08:16:36.000Z</time></trkpt><trkpt lon="5.470186" lat="51.151912"><ele>56.4</ele><time>2022-03-27T08:16:37.000Z</time></trkpt><trkpt lon="5.47021" lat="51.151843"><ele>56.4</ele><time>2022-03-27T08:16:38.000Z</time></trkpt><trkpt lon="5.470232" lat="51.151775"><ele>56.4</ele><time>2022-03-27T08:16:39.000Z</time></trkpt><trkpt lon="5.470255" lat="51.151714"><ele>56.4</ele><time>2022-03-27T08:16:40.000Z</time></trkpt><trkpt lon="5.470279" lat="51.151649"><ele>56.6</ele><time>2022-03-27T08:16:41.000Z</time></trkpt><trkpt lon="5.470301" lat="51.151584"><ele>56.6</ele><time>2022-03-27T08:16:42.000Z</time></trkpt><trkpt lon="5.470323" lat="51.151522"><ele>56.6</ele><time>2022-03-27T08:16:43.000Z</time></trkpt><trkpt lon="5.470345" lat="51.15146"><ele>56.6</ele><time>2022-03-27T08:16:44.000Z</time></trkpt><trkpt lon="5.47037" lat="51.151393"><ele>56.6</ele><time>2022-03-27T08:16:45.000Z</time></trkpt><trkpt lon="5.470397" lat="51.151329"><ele>56.6</ele><time>2022-03-27T08:16:46.000Z</time></trkpt><trkpt lon="5.470421" lat="51.15126"><ele>56.4</ele><time>2022-03-27T08:16:47.000Z</time></trkpt><trkpt lon="5.470442" lat="51.1512"><ele>56.4</ele><time>2022-03-27T08:16:48.000Z</time></trkpt><trkpt lon="5.470467" lat="51.151137"><ele>56.6</ele><time>2022-03-27T08:16:49.000Z</time></trkpt><trkpt lon="5.470492" lat="51.151076"><ele>56.4</ele><time>2022-03-27T08:16:50.000Z</time></trkpt><trkpt lon="5.470517" lat="51.151019"><ele>56.4</ele><time>2022-03-27T08:16:51.000Z</time></trkpt><trkpt lon="5.470534" lat="51.150966"><ele>56.4</ele><time>2022-03-27T08:16:52.000Z</time></trkpt><trkpt lon="5.470535" lat="51.150917"><ele>56.4</ele><time>2022-03-27T08:16:53.000Z</time></trkpt><trkpt lon="5.470501" lat="51.150874"><ele>56.4</ele><time>2022-03-27T08:16:54.000Z</time></trkpt><trkpt lon="5.470436" lat="51.150839"><ele>56.4</ele><time>2022-03-27T08:16:55.000Z</time></trkpt><trkpt lon="5.470347" lat="51.150815"><ele>56.4</ele><time>2022-03-27T08:16:56.000Z</time></trkpt><trkpt lon="5.470246" lat="51.150796"><ele>56.4</ele><time>2022-03-27T08:16:57.000Z</time></trkpt><trkpt lon="5.470137" lat="51.15077"><ele>56.4</ele><time>2022-03-27T08:16:58.000Z</time></trkpt><trkpt lon="5.470027" lat="51.150747"><ele>56.2</ele><time>2022-03-27T08:16:59.000Z</time></trkpt><trkpt lon="5.469917" lat="51.15072"><ele>56.2</ele><time>2022-03-27T08:17:00.000Z</time></trkpt><trkpt lon="5.469807" lat="51.150697"><ele>56.2</ele><time>2022-03-27T08:17:01.000Z</time></trkpt><trkpt lon="5.469695" lat="51.15067"><ele>56</ele><time>2022-03-27T08:17:02.000Z</time></trkpt><trkpt lon="5.469586" lat="51.150644"><ele>56.2</ele><time>2022-03-27T08:17:03.000Z</time></trkpt><trkpt lon="5.469475" lat="51.150617"><ele>56.2</ele><time>2022-03-27T08:17:04.000Z</time></trkpt><trkpt lon="5.469362" lat="51.150594"><ele>56</ele><time>2022-03-27T08:17:05.000Z</time></trkpt><trkpt lon="5.469252" lat="51.150567"><ele>56</ele><time>2022-03-27T08:17:06.000Z</time></trkpt><trkpt lon="5.469163" lat="51.150548"><ele>56</ele><time>2022-03-27T08:17:07.000Z</time></trkpt><trkpt lon="5.469049" lat="51.150523"><ele>56</ele><time>2022-03-27T08:17:08.000Z</time></trkpt><trkpt lon="5.468924" lat="51.150495"><ele>56.2</ele><time>2022-03-27T08:17:09.000Z</time></trkpt><trkpt lon="5.468813" lat="51.150472"><ele>56.2</ele><time>2022-03-27T08:17:10.000Z</time></trkpt><trkpt lon="5.468706" lat="51.150449"><ele>56.2</ele><time>2022-03-27T08:17:11.000Z</time></trkpt><trkpt lon="5.468596" lat="51.150426"><ele>56</ele><time>2022-03-27T08:17:12.000Z</time></trkpt><trkpt lon="5.468483" lat="51.150403"><ele>56</ele><time>2022-03-27T08:17:13.000Z</time></trkpt><trkpt lon="5.468372" lat="51.15038"><ele>56</ele><time>2022-03-27T08:17:14.000Z</time></trkpt><trkpt lon="5.468265" lat="51.150358"><ele>55.8</ele><time>2022-03-27T08:17:15.000Z</time></trkpt><trkpt lon="5.468152" lat="51.150335"><ele>56</ele><time>2022-03-27T08:17:16.000Z</time></trkpt><trkpt lon="5.468042" lat="51.150315"><ele>56</ele><time>2022-03-27T08:17:17.000Z</time></trkpt><trkpt lon="5.467935" lat="51.150293"><ele>56</ele><time>2022-03-27T08:17:18.000Z</time></trkpt><trkpt lon="5.467822" lat="51.15027"><ele>56</ele><time>2022-03-27T08:17:19.000Z</time></trkpt><trkpt lon="5.467713" lat="51.150247"><ele>56</ele><time>2022-03-27T08:17:20.000Z</time></trkpt><trkpt lon="5.467601" lat="51.150224"><ele>56.2</ele><time>2022-03-27T08:17:21.000Z</time></trkpt><trkpt lon="5.467493" lat="51.150201"><ele>56.2</ele><time>2022-03-27T08:17:22.000Z</time></trkpt><trkpt lon="5.467383" lat="51.150182"><ele>56.4</ele><time>2022-03-27T08:17:23.000Z</time></trkpt><trkpt lon="5.467273" lat="51.150163"><ele>56.4</ele><time>2022-03-27T08:17:24.000Z</time></trkpt><trkpt lon="5.467164" lat="51.150144"><ele>56.4</ele><time>2022-03-27T08:17:25.000Z</time></trkpt><trkpt lon="5.467055" lat="51.150121"><ele>56.4</ele><time>2022-03-27T08:17:26.000Z</time></trkpt><trkpt lon="5.466949" lat="51.150098"><ele>56.4</ele><time>2022-03-27T08:17:27.000Z</time></trkpt><trkpt lon="5.46684" lat="51.150079"><ele>56.4</ele><time>2022-03-27T08:17:28.000Z</time></trkpt><trkpt lon="5.466735" lat="51.15006"><ele>56.4</ele><time>2022-03-27T08:17:29.000Z</time></trkpt><trkpt lon="5.466625" lat="51.150041"><ele>56.4</ele><time>2022-03-27T08:17:30.000Z</time></trkpt><trkpt lon="5.466514" lat="51.150022"><ele>56.4</ele><time>2022-03-27T08:17:31.000Z</time></trkpt><trkpt lon="5.466405" lat="51.150003"><ele>56.2</ele><time>2022-03-27T08:17:32.000Z</time></trkpt><trkpt lon="5.466296" lat="51.149983"><ele>56.2</ele><time>2022-03-27T08:17:33.000Z</time></trkpt><trkpt lon="5.466187" lat="51.149965"><ele>56.2</ele><time>2022-03-27T08:17:34.000Z</time></trkpt><trkpt lon="5.466079" lat="51.149942"><ele>56.2</ele><time>2022-03-27T08:17:35.000Z</time></trkpt><trkpt lon="5.465977" lat="51.149919"><ele>56</ele><time>2022-03-27T08:17:36.000Z</time></trkpt><trkpt lon="5.465877" lat="51.149901"><ele>56</ele><time>2022-03-27T08:17:37.000Z</time></trkpt><trkpt lon="5.465769" lat="51.14988"><ele>56</ele><time>2022-03-27T08:17:38.000Z</time></trkpt><trkpt lon="5.465667" lat="51.149858"><ele>55.8</ele><time>2022-03-27T08:17:39.000Z</time></trkpt><trkpt lon="5.465567" lat="51.149838"><ele>55.8</ele><time>2022-03-27T08:17:40.000Z</time></trkpt><trkpt lon="5.465468" lat="51.149819"><ele>55.8</ele><time>2022-03-27T08:17:41.000Z</time></trkpt><trkpt lon="5.465369" lat="51.149804"><ele>56</ele><time>2022-03-27T08:17:42.000Z</time></trkpt><trkpt lon="5.465271" lat="51.149785"><ele>56</ele><time>2022-03-27T08:17:43.000Z</time></trkpt><trkpt lon="5.465174" lat="51.14977"><ele>56.2</ele><time>2022-03-27T08:17:44.000Z</time></trkpt><trkpt lon="5.465077" lat="51.149751"><ele>56.2</ele><time>2022-03-27T08:17:45.000Z</time></trkpt><trkpt lon="5.464982" lat="51.149728"><ele>56.2</ele><time>2022-03-27T08:17:46.000Z</time></trkpt><trkpt lon="5.464891" lat="51.149709"><ele>56.2</ele><time>2022-03-27T08:17:47.000Z</time></trkpt><trkpt lon="5.464808" lat="51.149679"><ele>56.2</ele><time>2022-03-27T08:17:48.000Z</time></trkpt><trkpt lon="5.464735" lat="51.149641"><ele>56.2</ele><time>2022-03-27T08:17:49.000Z</time></trkpt><trkpt lon="5.464659" lat="51.149596"><ele>56.2</ele><time>2022-03-27T08:17:50.000Z</time></trkpt><trkpt lon="5.464571" lat="51.149557"><ele>56.2</ele><time>2022-03-27T08:17:51.000Z</time></trkpt><trkpt lon="5.464472" lat="51.149523"><ele>56.2</ele><time>2022-03-27T08:17:52.000Z</time></trkpt><trkpt lon="5.464363" lat="51.149503"><ele>56</ele><time>2022-03-27T08:17:53.000Z</time></trkpt><trkpt lon="5.464252" lat="51.149484"><ele>56</ele><time>2022-03-27T08:17:54.000Z</time></trkpt><trkpt lon="5.464143" lat="51.149461"><ele>56</ele><time>2022-03-27T08:17:55.000Z</time></trkpt><trkpt lon="5.464034" lat="51.149442"><ele>56</ele><time>2022-03-27T08:17:56.000Z</time></trkpt><trkpt lon="5.463924" lat="51.149423"><ele>56</ele><time>2022-03-27T08:17:57.000Z</time></trkpt><trkpt lon="5.463811" lat="51.1494"><ele>56</ele><time>2022-03-27T08:17:58.000Z</time></trkpt><trkpt lon="5.463698" lat="51.149381"><ele>56</ele><time>2022-03-27T08:17:59.000Z</time></trkpt><trkpt lon="5.463586" lat="51.149362"><ele>56</ele><time>2022-03-27T08:18:00.000Z</time></trkpt><trkpt lon="5.463475" lat="51.149343"><ele>56</ele><time>2022-03-27T08:18:01.000Z</time></trkpt><trkpt lon="5.463362" lat="51.14932"><ele>56</ele><time>2022-03-27T08:18:02.000Z</time></trkpt><trkpt lon="5.463252" lat="51.149301"><ele>56</ele><time>2022-03-27T08:18:03.000Z</time></trkpt><trkpt lon="5.463145" lat="51.149282"><ele>56</ele><time>2022-03-27T08:18:04.000Z</time></trkpt><trkpt lon="5.463032" lat="51.149262"><ele>56.2</ele><time>2022-03-27T08:18:05.000Z</time></trkpt><trkpt lon="5.462924" lat="51.149244"><ele>56.2</ele><time>2022-03-27T08:18:06.000Z</time></trkpt><trkpt lon="5.462831" lat="51.149228"><ele>56.2</ele><time>2022-03-27T08:18:07.000Z</time></trkpt><trkpt lon="5.462704" lat="51.149202"><ele>56.4</ele><time>2022-03-27T08:18:08.000Z</time></trkpt><trkpt lon="5.462593" lat="51.149186"><ele>56.4</ele><time>2022-03-27T08:18:09.000Z</time></trkpt><trkpt lon="5.462483" lat="51.149167"><ele>56.4</ele><time>2022-03-27T08:18:10.000Z</time></trkpt><trkpt lon="5.46238" lat="51.149145"><ele>56.4</ele><time>2022-03-27T08:18:11.000Z</time></trkpt><trkpt lon="5.462269" lat="51.149125"><ele>56.6</ele><time>2022-03-27T08:18:12.000Z</time></trkpt><trkpt lon="5.462157" lat="51.149106"><ele>56.4</ele><time>2022-03-27T08:18:13.000Z</time></trkpt><trkpt lon="5.46205" lat="51.149087"><ele>56.4</ele><time>2022-03-27T08:18:14.000Z</time></trkpt><trkpt lon="5.461939" lat="51.149064"><ele>56.4</ele><time>2022-03-27T08:18:15.000Z</time></trkpt><trkpt lon="5.461829" lat="51.149045"><ele>56.4</ele><time>2022-03-27T08:18:16.000Z</time></trkpt><trkpt lon="5.461721" lat="51.149026"><ele>56.2</ele><time>2022-03-27T08:18:17.000Z</time></trkpt><trkpt lon="5.461615" lat="51.149007"><ele>56.2</ele><time>2022-03-27T08:18:18.000Z</time></trkpt><trkpt lon="5.461506" lat="51.148988"><ele>56.2</ele><time>2022-03-27T08:18:19.000Z</time></trkpt><trkpt lon="5.461398" lat="51.148969"><ele>56.2</ele><time>2022-03-27T08:18:20.000Z</time></trkpt><trkpt lon="5.461289" lat="51.14895"><ele>56.2</ele><time>2022-03-27T08:18:21.000Z</time></trkpt><trkpt lon="5.461181" lat="51.148931"><ele>56.2</ele><time>2022-03-27T08:18:22.000Z</time></trkpt><trkpt lon="5.461073" lat="51.148908"><ele>56.2</ele><time>2022-03-27T08:18:23.000Z</time></trkpt><trkpt lon="5.460965" lat="51.148889"><ele>56.2</ele><time>2022-03-27T08:18:24.000Z</time></trkpt><trkpt lon="5.460857" lat="51.148869"><ele>56.4</ele><time>2022-03-27T08:18:25.000Z</time></trkpt><trkpt lon="5.460749" lat="51.14885"><ele>56.4</ele><time>2022-03-27T08:18:26.000Z</time></trkpt><trkpt lon="5.46064" lat="51.148828"><ele>56.2</ele><time>2022-03-27T08:18:27.000Z</time></trkpt><trkpt lon="5.460532" lat="51.148809"><ele>56.2</ele><time>2022-03-27T08:18:28.000Z</time></trkpt><trkpt lon="5.460424" lat="51.14879"><ele>56.2</ele><time>2022-03-27T08:18:29.000Z</time></trkpt><trkpt lon="5.460312" lat="51.14877"><ele>56.4</ele><time>2022-03-27T08:18:30.000Z</time></trkpt><trkpt lon="5.460202" lat="51.148748"><ele>56.4</ele><time>2022-03-27T08:18:31.000Z</time></trkpt><trkpt lon="5.460095" lat="51.148729"><ele>56.4</ele><time>2022-03-27T08:18:32.000Z</time></trkpt><trkpt lon="5.459983" lat="51.148709"><ele>56.2</ele><time>2022-03-27T08:18:33.000Z</time></trkpt><trkpt lon="5.459872" lat="51.14869"><ele>56.2</ele><time>2022-03-27T08:18:34.000Z</time></trkpt><trkpt lon="5.459763" lat="51.148671"><ele>56.2</ele><time>2022-03-27T08:18:35.000Z</time></trkpt><trkpt lon="5.459657" lat="51.148653"><ele>56.2</ele><time>2022-03-27T08:18:36.000Z</time></trkpt><trkpt lon="5.459561" lat="51.148636"><ele>56.2</ele><time>2022-03-27T08:18:37.000Z</time></trkpt><trkpt lon="5.459437" lat="51.148614"><ele>56.2</ele><time>2022-03-27T08:18:38.000Z</time></trkpt><trkpt lon="5.459328" lat="51.148591"><ele>56.2</ele><time>2022-03-27T08:18:39.000Z</time></trkpt><trkpt lon="5.459219" lat="51.148572"><ele>56.2</ele><time>2022-03-27T08:18:40.000Z</time></trkpt><trkpt lon="5.459109" lat="51.148553"><ele>56.2</ele><time>2022-03-27T08:18:41.000Z</time></trkpt><trkpt lon="5.458999" lat="51.148534"><ele>56.4</ele><time>2022-03-27T08:18:42.000Z</time></trkpt><trkpt lon="5.458888" lat="51.148511"><ele>56.2</ele><time>2022-03-27T08:18:43.000Z</time></trkpt><trkpt lon="5.458777" lat="51.148492"><ele>56</ele><time>2022-03-27T08:18:44.000Z</time></trkpt><trkpt lon="5.458668" lat="51.148469"><ele>56</ele><time>2022-03-27T08:18:45.000Z</time></trkpt><trkpt lon="5.458562" lat="51.14845"><ele>56</ele><time>2022-03-27T08:18:46.000Z</time></trkpt><trkpt lon="5.458454" lat="51.148431"><ele>56</ele><time>2022-03-27T08:18:47.000Z</time></trkpt><trkpt lon="5.458348" lat="51.148412"><ele>55.8</ele><time>2022-03-27T08:18:48.000Z</time></trkpt><trkpt lon="5.458241" lat="51.148393"><ele>55.8</ele><time>2022-03-27T08:18:49.000Z</time></trkpt><trkpt lon="5.458136" lat="51.148378"><ele>55.8</ele><time>2022-03-27T08:18:50.000Z</time></trkpt><trkpt lon="5.458029" lat="51.148358"><ele>55.8</ele><time>2022-03-27T08:18:51.000Z</time></trkpt><trkpt lon="5.457924" lat="51.148339"><ele>55.8</ele><time>2022-03-27T08:18:52.000Z</time></trkpt><trkpt lon="5.457819" lat="51.148324"><ele>55.6</ele><time>2022-03-27T08:18:53.000Z</time></trkpt><trkpt lon="5.457709" lat="51.148305"><ele>55.6</ele><time>2022-03-27T08:18:54.000Z</time></trkpt><trkpt lon="5.457608" lat="51.148286"><ele>55.6</ele><time>2022-03-27T08:18:55.000Z</time></trkpt><trkpt lon="5.457504" lat="51.14827"><ele>55.6</ele><time>2022-03-27T08:18:56.000Z</time></trkpt><trkpt lon="5.457399" lat="51.148252"><ele>55.6</ele><time>2022-03-27T08:18:57.000Z</time></trkpt><trkpt lon="5.457297" lat="51.148232"><ele>55.4</ele><time>2022-03-27T08:18:58.000Z</time></trkpt><trkpt lon="5.457195" lat="51.148213"><ele>55.4</ele><time>2022-03-27T08:18:59.000Z</time></trkpt><trkpt lon="5.457112" lat="51.148191"><ele>55.4</ele><time>2022-03-27T08:19:00.000Z</time></trkpt><trkpt lon="5.457043" lat="51.148153"><ele>55.4</ele><time>2022-03-27T08:19:01.000Z</time></trkpt><trkpt lon="5.456997" lat="51.148104"><ele>55.4</ele><time>2022-03-27T08:19:02.000Z</time></trkpt><trkpt lon="5.456972" lat="51.148051"><ele>55.4</ele><time>2022-03-27T08:19:03.000Z</time></trkpt><trkpt lon="5.456961" lat="51.147995"><ele>55.4</ele><time>2022-03-27T08:19:04.000Z</time></trkpt><trkpt lon="5.45696" lat="51.147928"><ele>55.4</ele><time>2022-03-27T08:19:05.000Z</time></trkpt><trkpt lon="5.456952" lat="51.147858"><ele>55.2</ele><time>2022-03-27T08:19:06.000Z</time></trkpt><trkpt lon="5.45694" lat="51.147793"><ele>55.2</ele><time>2022-03-27T08:19:07.000Z</time></trkpt><trkpt lon="5.456929" lat="51.14772"><ele>55.2</ele><time>2022-03-27T08:19:08.000Z</time></trkpt><trkpt lon="5.456919" lat="51.147655"><ele>55.2</ele><time>2022-03-27T08:19:09.000Z</time></trkpt><trkpt lon="5.456902" lat="51.147594"><ele>55.2</ele><time>2022-03-27T08:19:10.000Z</time></trkpt><trkpt lon="5.456867" lat="51.147537"><ele>55</ele><time>2022-03-27T08:19:11.000Z</time></trkpt><trkpt lon="5.456811" lat="51.147498"><ele>55</ele><time>2022-03-27T08:19:12.000Z</time></trkpt><trkpt lon="5.456741" lat="51.147477"><ele>55</ele><time>2022-03-27T08:19:13.000Z</time></trkpt><trkpt lon="5.456661" lat="51.147462"><ele>54.8</ele><time>2022-03-27T08:19:14.000Z</time></trkpt><trkpt lon="5.456571" lat="51.147457"><ele>54.6</ele><time>2022-03-27T08:19:15.000Z</time></trkpt><trkpt lon="5.456472" lat="51.147464"><ele>54.6</ele><time>2022-03-27T08:19:16.000Z</time></trkpt><trkpt lon="5.456367" lat="51.147479"><ele>54.4</ele><time>2022-03-27T08:19:17.000Z</time></trkpt><trkpt lon="5.456258" lat="51.147491"><ele>54.2</ele><time>2022-03-27T08:19:18.000Z</time></trkpt><trkpt lon="5.456151" lat="51.147506"><ele>54</ele><time>2022-03-27T08:19:19.000Z</time></trkpt><trkpt lon="5.456047" lat="51.147525"><ele>54</ele><time>2022-03-27T08:19:20.000Z</time></trkpt><trkpt lon="5.455943" lat="51.147537"><ele>54</ele><time>2022-03-27T08:19:21.000Z</time></trkpt><trkpt lon="5.455834" lat="51.147548"><ele>54</ele><time>2022-03-27T08:19:22.000Z</time></trkpt><trkpt lon="5.455719" lat="51.14756"><ele>54</ele><time>2022-03-27T08:19:23.000Z</time></trkpt><trkpt lon="5.455616" lat="51.147571"><ele>53.8</ele><time>2022-03-27T08:19:24.000Z</time></trkpt><trkpt lon="5.455512" lat="51.147582"><ele>53.6</ele><time>2022-03-27T08:19:25.000Z</time></trkpt><trkpt lon="5.455399" lat="51.147594"><ele>53.6</ele><time>2022-03-27T08:19:26.000Z</time></trkpt><trkpt lon="5.455275" lat="51.147605"><ele>53.6</ele><time>2022-03-27T08:19:27.000Z</time></trkpt><trkpt lon="5.455148" lat="51.14762"><ele>53.6</ele><time>2022-03-27T08:19:28.000Z</time></trkpt><trkpt lon="5.455023" lat="51.147632"><ele>53.6</ele><time>2022-03-27T08:19:29.000Z</time></trkpt><trkpt lon="5.454895" lat="51.147651"><ele>53.6</ele><time>2022-03-27T08:19:30.000Z</time></trkpt><trkpt lon="5.454767" lat="51.14767"><ele>53.8</ele><time>2022-03-27T08:19:31.000Z</time></trkpt><trkpt lon="5.454647" lat="51.147689"><ele>53.8</ele><time>2022-03-27T08:19:32.000Z</time></trkpt><trkpt lon="5.45452" lat="51.147704"><ele>53.8</ele><time>2022-03-27T08:19:33.000Z</time></trkpt><trkpt lon="5.454398" lat="51.147723"><ele>53.8</ele><time>2022-03-27T08:19:34.000Z</time></trkpt><trkpt lon="5.454271" lat="51.147742"><ele>53.8</ele><time>2022-03-27T08:19:35.000Z</time></trkpt><trkpt lon="5.454153" lat="51.147757"><ele>53.8</ele><time>2022-03-27T08:19:36.000Z</time></trkpt><trkpt lon="5.454044" lat="51.147772"><ele>53.8</ele><time>2022-03-27T08:19:37.000Z</time></trkpt><trkpt lon="5.453921" lat="51.147788"><ele>54</ele><time>2022-03-27T08:19:38.000Z</time></trkpt><trkpt lon="5.453808" lat="51.147804"><ele>54</ele><time>2022-03-27T08:19:39.000Z</time></trkpt><trkpt lon="5.4537" lat="51.147819"><ele>54</ele><time>2022-03-27T08:19:40.000Z</time></trkpt><trkpt lon="5.453591" lat="51.14783"><ele>54.2</ele><time>2022-03-27T08:19:41.000Z</time></trkpt><trkpt lon="5.453482" lat="51.147838"><ele>54.2</ele><time>2022-03-27T08:19:42.000Z</time></trkpt><trkpt lon="5.453376" lat="51.147846"><ele>54.4</ele><time>2022-03-27T08:19:43.000Z</time></trkpt><trkpt lon="5.453267" lat="51.14785"><ele>54.4</ele><time>2022-03-27T08:19:44.000Z</time></trkpt><trkpt lon="5.453162" lat="51.147854"><ele>54.4</ele><time>2022-03-27T08:19:45.000Z</time></trkpt><trkpt lon="5.453054" lat="51.147854"><ele>54.6</ele><time>2022-03-27T08:19:46.000Z</time></trkpt><trkpt lon="5.452943" lat="51.147854"><ele>54.6</ele><time>2022-03-27T08:19:47.000Z</time></trkpt><trkpt lon="5.45283" lat="51.147854"><ele>54.6</ele><time>2022-03-27T08:19:48.000Z</time></trkpt><trkpt lon="5.452722" lat="51.147854"><ele>54.6</ele><time>2022-03-27T08:19:49.000Z</time></trkpt><trkpt lon="5.452611" lat="51.14785"><ele>54.6</ele><time>2022-03-27T08:19:50.000Z</time></trkpt><trkpt lon="5.452503" lat="51.14785"><ele>54.6</ele><time>2022-03-27T08:19:51.000Z</time></trkpt><trkpt lon="5.452395" lat="51.14785"><ele>54.6</ele><time>2022-03-27T08:19:52.000Z</time></trkpt><trkpt lon="5.452289" lat="51.147846"><ele>54.4</ele><time>2022-03-27T08:19:53.000Z</time></trkpt><trkpt lon="5.452187" lat="51.147846"><ele>54.6</ele><time>2022-03-27T08:19:54.000Z</time></trkpt><trkpt lon="5.452084" lat="51.147843"><ele>54.6</ele><time>2022-03-27T08:19:55.000Z</time></trkpt><trkpt lon="5.451983" lat="51.147842"><ele>54.8</ele><time>2022-03-27T08:19:56.000Z</time></trkpt><trkpt lon="5.451883" lat="51.147839"><ele>54.8</ele><time>2022-03-27T08:19:57.000Z</time></trkpt><trkpt lon="5.451782" lat="51.147835"><ele>54.8</ele><time>2022-03-27T08:19:58.000Z</time></trkpt><trkpt lon="5.451687" lat="51.147835"><ele>54.8</ele><time>2022-03-27T08:19:59.000Z</time></trkpt><trkpt lon="5.451596" lat="51.147835"><ele>55</ele><time>2022-03-27T08:20:00.000Z</time></trkpt><trkpt lon="5.451507" lat="51.147835"><ele>55</ele><time>2022-03-27T08:20:01.000Z</time></trkpt><trkpt lon="5.451415" lat="51.147831"><ele>55</ele><time>2022-03-27T08:20:02.000Z</time></trkpt><trkpt lon="5.451327" lat="51.147831"><ele>55</ele><time>2022-03-27T08:20:03.000Z</time></trkpt><trkpt lon="5.451237" lat="51.147827"><ele>55</ele><time>2022-03-27T08:20:04.000Z</time></trkpt><trkpt lon="5.451149" lat="51.147827"><ele>55.2</ele><time>2022-03-27T08:20:05.000Z</time></trkpt><trkpt lon="5.451065" lat="51.147824"><ele>55.2</ele><time>2022-03-27T08:20:06.000Z</time></trkpt><trkpt lon="5.450985" lat="51.147823"><ele>55.2</ele><time>2022-03-27T08:20:07.000Z</time></trkpt><trkpt lon="5.450909" lat="51.147816"><ele>55.4</ele><time>2022-03-27T08:20:08.000Z</time></trkpt><trkpt lon="5.450843" lat="51.147812"><ele>55.4</ele><time>2022-03-27T08:20:09.000Z</time></trkpt><trkpt lon="5.450785" lat="51.147816"><ele>55.6</ele><time>2022-03-27T08:20:10.000Z</time></trkpt><trkpt lon="5.450731" lat="51.147823"><ele>55.6</ele><time>2022-03-27T08:20:11.000Z</time></trkpt><trkpt lon="5.450688" lat="51.147848"><ele>55.6</ele><time>2022-03-27T08:20:12.000Z</time></trkpt><trkpt lon="5.450655" lat="51.14789"><ele>55.6</ele><time>2022-03-27T08:20:13.000Z</time></trkpt><trkpt lon="5.45063" lat="51.147942"><ele>55.4</ele><time>2022-03-27T08:20:14.000Z</time></trkpt><trkpt lon="5.450598" lat="51.148003"><ele>55.4</ele><time>2022-03-27T08:20:15.000Z</time></trkpt><trkpt lon="5.450564" lat="51.148064"><ele>55.2</ele><time>2022-03-27T08:20:16.000Z</time></trkpt><trkpt lon="5.450529" lat="51.148128"><ele>55.4</ele><time>2022-03-27T08:20:17.000Z</time></trkpt><trkpt lon="5.45049" lat="51.148191"><ele>55.4</ele><time>2022-03-27T08:20:18.000Z</time></trkpt><trkpt lon="5.450452" lat="51.148254"><ele>55.2</ele><time>2022-03-27T08:20:19.000Z</time></trkpt><trkpt lon="5.450414" lat="51.148316"><ele>55.2</ele><time>2022-03-27T08:20:20.000Z</time></trkpt><trkpt lon="5.450378" lat="51.148376"><ele>55.2</ele><time>2022-03-27T08:20:21.000Z</time></trkpt><trkpt lon="5.450339" lat="51.148441"><ele>55.2</ele><time>2022-03-27T08:20:22.000Z</time></trkpt><trkpt lon="5.450302" lat="51.148507"><ele>55.2</ele><time>2022-03-27T08:20:23.000Z</time></trkpt><trkpt lon="5.450264" lat="51.148571"><ele>55.4</ele><time>2022-03-27T08:20:24.000Z</time></trkpt><trkpt lon="5.450223" lat="51.148631"><ele>55.4</ele><time>2022-03-27T08:20:25.000Z</time></trkpt><trkpt lon="5.45018" lat="51.148697"><ele>55.4</ele><time>2022-03-27T08:20:26.000Z</time></trkpt><trkpt lon="5.450141" lat="51.148761"><ele>55.4</ele><time>2022-03-27T08:20:27.000Z</time></trkpt><trkpt lon="5.450101" lat="51.148827"><ele>55.2</ele><time>2022-03-27T08:20:28.000Z</time></trkpt><trkpt lon="5.450063" lat="51.148886"><ele>55.2</ele><time>2022-03-27T08:20:29.000Z</time></trkpt><trkpt lon="5.450024" lat="51.148953"><ele>55</ele><time>2022-03-27T08:20:30.000Z</time></trkpt><trkpt lon="5.449984" lat="51.149021"><ele>55</ele><time>2022-03-27T08:20:31.000Z</time></trkpt><trkpt lon="5.449946" lat="51.149083"><ele>54.8</ele><time>2022-03-27T08:20:32.000Z</time></trkpt><trkpt lon="5.449909" lat="51.149147"><ele>54.6</ele><time>2022-03-27T08:20:33.000Z</time></trkpt><trkpt lon="5.449869" lat="51.149208"><ele>54.4</ele><time>2022-03-27T08:20:34.000Z</time></trkpt><trkpt lon="5.44983" lat="51.149273"><ele>54.2</ele><time>2022-03-27T08:20:35.000Z</time></trkpt><trkpt lon="5.449796" lat="51.149336"><ele>54</ele><time>2022-03-27T08:20:36.000Z</time></trkpt><trkpt lon="5.449762" lat="51.149399"><ele>53.8</ele><time>2022-03-27T08:20:37.000Z</time></trkpt><trkpt lon="5.44973" lat="51.149461"><ele>53.8</ele><time>2022-03-27T08:20:38.000Z</time></trkpt><trkpt lon="5.449698" lat="51.149522"><ele>53.8</ele><time>2022-03-27T08:20:39.000Z</time></trkpt><trkpt lon="5.449671" lat="51.149577"><ele>53.8</ele><time>2022-03-27T08:20:40.000Z</time></trkpt><trkpt lon="5.449641" lat="51.149636"><ele>53.8</ele><time>2022-03-27T08:20:41.000Z</time></trkpt><trkpt lon="5.449612" lat="51.149689"><ele>53.8</ele><time>2022-03-27T08:20:42.000Z</time></trkpt><trkpt lon="5.449576" lat="51.149746"><ele>53.8</ele><time>2022-03-27T08:20:43.000Z</time></trkpt><trkpt lon="5.449534" lat="51.1498"><ele>54</ele><time>2022-03-27T08:20:44.000Z</time></trkpt><trkpt lon="5.449489" lat="51.149857"><ele>54</ele><time>2022-03-27T08:20:45.000Z</time></trkpt><trkpt lon="5.449437" lat="51.149917"><ele>54</ele><time>2022-03-27T08:20:46.000Z</time></trkpt><trkpt lon="5.449377" lat="51.149975"><ele>54</ele><time>2022-03-27T08:20:47.000Z</time></trkpt><trkpt lon="5.449317" lat="51.150032"><ele>54</ele><time>2022-03-27T08:20:48.000Z</time></trkpt><trkpt lon="5.449257" lat="51.150094"><ele>53.8</ele><time>2022-03-27T08:20:49.000Z</time></trkpt><trkpt lon="5.449203" lat="51.150161"><ele>53.8</ele><time>2022-03-27T08:20:50.000Z</time></trkpt><trkpt lon="5.449156" lat="51.150231"><ele>53.8</ele><time>2022-03-27T08:20:51.000Z</time></trkpt><trkpt lon="5.449114" lat="51.150299"><ele>53.8</ele><time>2022-03-27T08:20:52.000Z</time></trkpt><trkpt lon="5.449074" lat="51.150368"><ele>53.6</ele><time>2022-03-27T08:20:53.000Z</time></trkpt><trkpt lon="5.449034" lat="51.150436"><ele>53.2</ele><time>2022-03-27T08:20:54.000Z</time></trkpt><trkpt lon="5.448996" lat="51.150501"><ele>53</ele><time>2022-03-27T08:20:55.000Z</time></trkpt><trkpt lon="5.448956" lat="51.150567"><ele>52.8</ele><time>2022-03-27T08:20:56.000Z</time></trkpt><trkpt lon="5.448913" lat="51.150634"><ele>52.8</ele><time>2022-03-27T08:20:57.000Z</time></trkpt><trkpt lon="5.448871" lat="51.150703"><ele>52.6</ele><time>2022-03-27T08:20:58.000Z</time></trkpt><trkpt lon="5.448831" lat="51.150772"><ele>52.6</ele><time>2022-03-27T08:20:59.000Z</time></trkpt><trkpt lon="5.44879" lat="51.150837"><ele>52.4</ele><time>2022-03-27T08:21:00.000Z</time></trkpt><trkpt lon="5.448751" lat="51.150905"><ele>52.4</ele><time>2022-03-27T08:21:01.000Z</time></trkpt><trkpt lon="5.448708" lat="51.150973"><ele>52.2</ele><time>2022-03-27T08:21:02.000Z</time></trkpt><trkpt lon="5.448666" lat="51.151039"><ele>52.2</ele><time>2022-03-27T08:21:03.000Z</time></trkpt><trkpt lon="5.448622" lat="51.151104"><ele>52.2</ele><time>2022-03-27T08:21:04.000Z</time></trkpt><trkpt lon="5.448579" lat="51.151168"><ele>52</ele><time>2022-03-27T08:21:05.000Z</time></trkpt><trkpt lon="5.448537" lat="51.151236"><ele>52</ele><time>2022-03-27T08:21:06.000Z</time></trkpt><trkpt lon="5.448491" lat="51.151306"><ele>51.8</ele><time>2022-03-27T08:21:07.000Z</time></trkpt><trkpt lon="5.448443" lat="51.151371"><ele>51.8</ele><time>2022-03-27T08:21:08.000Z</time></trkpt><trkpt lon="5.448394" lat="51.151436"><ele>51.6</ele><time>2022-03-27T08:21:09.000Z</time></trkpt><trkpt lon="5.448345" lat="51.151502"><ele>51.6</ele><time>2022-03-27T08:21:10.000Z</time></trkpt><trkpt lon="5.448298" lat="51.151565"><ele>51.6</ele><time>2022-03-27T08:21:11.000Z</time></trkpt><trkpt lon="5.448246" lat="51.151631"><ele>51.6</ele><time>2022-03-27T08:21:12.000Z</time></trkpt><trkpt lon="5.448196" lat="51.151695"><ele>51.4</ele><time>2022-03-27T08:21:13.000Z</time></trkpt><trkpt lon="5.448143" lat="51.15176"><ele>51.4</ele><time>2022-03-27T08:21:14.000Z</time></trkpt><trkpt lon="5.448091" lat="51.151826"><ele>51.2</ele><time>2022-03-27T08:21:15.000Z</time></trkpt><trkpt lon="5.448036" lat="51.151886"><ele>51.2</ele><time>2022-03-27T08:21:16.000Z</time></trkpt><trkpt lon="5.447978" lat="51.151948"><ele>51.2</ele><time>2022-03-27T08:21:17.000Z</time></trkpt><trkpt lon="5.447918" lat="51.152009"><ele>51.4</ele><time>2022-03-27T08:21:18.000Z</time></trkpt><trkpt lon="5.447853" lat="51.15207"><ele>51.4</ele><time>2022-03-27T08:21:19.000Z</time></trkpt><trkpt lon="5.447786" lat="51.152126"><ele>51.2</ele><time>2022-03-27T08:21:20.000Z</time></trkpt><trkpt lon="5.447711" lat="51.15218"><ele>51.2</ele><time>2022-03-27T08:21:21.000Z</time></trkpt><trkpt lon="5.44764" lat="51.15223"><ele>51.2</ele><time>2022-03-27T08:21:22.000Z</time></trkpt><trkpt lon="5.447555" lat="51.152291"><ele>51.2</ele><time>2022-03-27T08:21:23.000Z</time></trkpt><trkpt lon="5.447476" lat="51.152341"><ele>51</ele><time>2022-03-27T08:21:24.000Z</time></trkpt><trkpt lon="5.447399" lat="51.152395"><ele>51</ele><time>2022-03-27T08:21:25.000Z</time></trkpt><trkpt lon="5.447324" lat="51.152448"><ele>51</ele><time>2022-03-27T08:21:26.000Z</time></trkpt><trkpt lon="5.44725" lat="51.152505"><ele>51</ele><time>2022-03-27T08:21:27.000Z</time></trkpt><trkpt lon="5.447182" lat="51.152562"><ele>51</ele><time>2022-03-27T08:21:28.000Z</time></trkpt><trkpt lon="5.447121" lat="51.152618"><ele>51</ele><time>2022-03-27T08:21:29.000Z</time></trkpt><trkpt lon="5.44706" lat="51.152677"><ele>50.8</ele><time>2022-03-27T08:21:30.000Z</time></trkpt><trkpt lon="5.447002" lat="51.152737"><ele>50.8</ele><time>2022-03-27T08:21:31.000Z</time></trkpt><trkpt lon="5.446948" lat="51.152798"><ele>51</ele><time>2022-03-27T08:21:32.000Z</time></trkpt><trkpt lon="5.446901" lat="51.152861"><ele>51</ele><time>2022-03-27T08:21:33.000Z</time></trkpt><trkpt lon="5.446853" lat="51.152929"><ele>51.2</ele><time>2022-03-27T08:21:34.000Z</time></trkpt><trkpt lon="5.446809" lat="51.152989"><ele>51.2</ele><time>2022-03-27T08:21:35.000Z</time></trkpt><trkpt lon="5.44677" lat="51.15305"><ele>51.4</ele><time>2022-03-27T08:21:36.000Z</time></trkpt><trkpt lon="5.446732" lat="51.153111"><ele>51.4</ele><time>2022-03-27T08:21:37.000Z</time></trkpt><trkpt lon="5.44669" lat="51.153173"><ele>51.2</ele><time>2022-03-27T08:21:38.000Z</time></trkpt><trkpt lon="5.446649" lat="51.153233"><ele>51</ele><time>2022-03-27T08:21:39.000Z</time></trkpt><trkpt lon="5.446602" lat="51.153291"><ele>51.2</ele><time>2022-03-27T08:21:40.000Z</time></trkpt><trkpt lon="5.446561" lat="51.153343"><ele>51.2</ele><time>2022-03-27T08:21:41.000Z</time></trkpt><trkpt lon="5.446525" lat="51.153397"><ele>51.2</ele><time>2022-03-27T08:21:42.000Z</time></trkpt><trkpt lon="5.446488" lat="51.153451"><ele>51.2</ele><time>2022-03-27T08:21:43.000Z</time></trkpt><trkpt lon="5.44645" lat="51.15351"><ele>51</ele><time>2022-03-27T08:21:44.000Z</time></trkpt><trkpt lon="5.446406" lat="51.15358"><ele>51</ele><time>2022-03-27T08:21:45.000Z</time></trkpt><trkpt lon="5.446361" lat="51.153645"><ele>50.8</ele><time>2022-03-27T08:21:46.000Z</time></trkpt><trkpt lon="5.446316" lat="51.153713"><ele>50.8</ele><time>2022-03-27T08:21:47.000Z</time></trkpt><trkpt lon="5.446273" lat="51.15378"><ele>50.8</ele><time>2022-03-27T08:21:48.000Z</time></trkpt><trkpt lon="5.446232" lat="51.153849"><ele>50.8</ele><time>2022-03-27T08:21:49.000Z</time></trkpt><trkpt lon="5.446187" lat="51.153919"><ele>50.8</ele><time>2022-03-27T08:21:50.000Z</time></trkpt><trkpt lon="5.446145" lat="51.153983"><ele>50.8</ele><time>2022-03-27T08:21:51.000Z</time></trkpt><trkpt lon="5.446101" lat="51.154048"><ele>51</ele><time>2022-03-27T08:21:52.000Z</time></trkpt><trkpt lon="5.44606" lat="51.154107"><ele>51.2</ele><time>2022-03-27T08:21:53.000Z</time></trkpt><trkpt lon="5.446021" lat="51.154171"><ele>51.2</ele><time>2022-03-27T08:21:54.000Z</time></trkpt><trkpt lon="5.445979" lat="51.154236"><ele>51.2</ele><time>2022-03-27T08:21:55.000Z</time></trkpt><trkpt lon="5.445933" lat="51.1543"><ele>51.2</ele><time>2022-03-27T08:21:56.000Z</time></trkpt><trkpt lon="5.445891" lat="51.154366"><ele>51</ele><time>2022-03-27T08:21:57.000Z</time></trkpt><trkpt lon="5.445847" lat="51.154431"><ele>50.8</ele><time>2022-03-27T08:21:58.000Z</time></trkpt><trkpt lon="5.445797" lat="51.154497"><ele>50.6</ele><time>2022-03-27T08:21:59.000Z</time></trkpt><trkpt lon="5.445743" lat="51.154568"><ele>50.6</ele><time>2022-03-27T08:22:00.000Z</time></trkpt><trkpt lon="5.445691" lat="51.154636"><ele>50.6</ele><time>2022-03-27T08:22:01.000Z</time></trkpt><trkpt lon="5.445641" lat="51.154705"><ele>50.6</ele><time>2022-03-27T08:22:02.000Z</time></trkpt><trkpt lon="5.445593" lat="51.15477"><ele>50.4</ele><time>2022-03-27T08:22:03.000Z</time></trkpt><trkpt lon="5.44555" lat="51.154838"><ele>50.4</ele><time>2022-03-27T08:22:04.000Z</time></trkpt><trkpt lon="5.445508" lat="51.154907"><ele>50.4</ele><time>2022-03-27T08:22:05.000Z</time></trkpt><trkpt lon="5.445465" lat="51.154971"><ele>50.4</ele><time>2022-03-27T08:22:06.000Z</time></trkpt><trkpt lon="5.445419" lat="51.155041"><ele>50.4</ele><time>2022-03-27T08:22:07.000Z</time></trkpt><trkpt lon="5.445373" lat="51.155109"><ele>50.2</ele><time>2022-03-27T08:22:08.000Z</time></trkpt><trkpt lon="5.445327" lat="51.155179"><ele>50.2</ele><time>2022-03-27T08:22:09.000Z</time></trkpt><trkpt lon="5.445283" lat="51.155243"><ele>50.2</ele><time>2022-03-27T08:22:10.000Z</time></trkpt><trkpt lon="5.445234" lat="51.155311"><ele>50.2</ele><time>2022-03-27T08:22:11.000Z</time></trkpt><trkpt lon="5.445188" lat="51.155376"><ele>50</ele><time>2022-03-27T08:22:12.000Z</time></trkpt><trkpt lon="5.445139" lat="51.155445"><ele>50</ele><time>2022-03-27T08:22:13.000Z</time></trkpt><trkpt lon="5.445095" lat="51.155513"><ele>49.8</ele><time>2022-03-27T08:22:14.000Z</time></trkpt><trkpt lon="5.445049" lat="51.155577"><ele>49.8</ele><time>2022-03-27T08:22:15.000Z</time></trkpt><trkpt lon="5.445003" lat="51.155642"><ele>49.6</ele><time>2022-03-27T08:22:16.000Z</time></trkpt><trkpt lon="5.444954" lat="51.155712"><ele>49.4</ele><time>2022-03-27T08:22:17.000Z</time></trkpt><trkpt lon="5.44491" lat="51.155777"><ele>49.6</ele><time>2022-03-27T08:22:18.000Z</time></trkpt><trkpt lon="5.444866" lat="51.155842"><ele>49.6</ele><time>2022-03-27T08:22:19.000Z</time></trkpt><trkpt lon="5.444821" lat="51.155907"><ele>49.6</ele><time>2022-03-27T08:22:20.000Z</time></trkpt><trkpt lon="5.444778" lat="51.155975"><ele>49.6</ele><time>2022-03-27T08:22:21.000Z</time></trkpt><trkpt lon="5.444736" lat="51.156044"><ele>49.4</ele><time>2022-03-27T08:22:22.000Z</time></trkpt><trkpt lon="5.444693" lat="51.156105"><ele>49.6</ele><time>2022-03-27T08:22:23.000Z</time></trkpt><trkpt lon="5.444651" lat="51.15617"><ele>49.6</ele><time>2022-03-27T08:22:24.000Z</time></trkpt><trkpt lon="5.444607" lat="51.156235"><ele>49.4</ele><time>2022-03-27T08:22:25.000Z</time></trkpt><trkpt lon="5.444563" lat="51.156299"><ele>49.6</ele><time>2022-03-27T08:22:26.000Z</time></trkpt><trkpt lon="5.444521" lat="51.156361"><ele>49.6</ele><time>2022-03-27T08:22:27.000Z</time></trkpt><trkpt lon="5.444478" lat="51.156426"><ele>49.6</ele><time>2022-03-27T08:22:28.000Z</time></trkpt><trkpt lon="5.444432" lat="51.156486"><ele>49.6</ele><time>2022-03-27T08:22:29.000Z</time></trkpt><trkpt lon="5.444389" lat="51.156549"><ele>49.6</ele><time>2022-03-27T08:22:30.000Z</time></trkpt><trkpt lon="5.444345" lat="51.156616"><ele>49.6</ele><time>2022-03-27T08:22:31.000Z</time></trkpt><trkpt lon="5.444299" lat="51.156685"><ele>49.6</ele><time>2022-03-27T08:22:32.000Z</time></trkpt><trkpt lon="5.444253" lat="51.156747"><ele>49.8</ele><time>2022-03-27T08:22:33.000Z</time></trkpt><trkpt lon="5.444204" lat="51.156813"><ele>49.8</ele><time>2022-03-27T08:22:34.000Z</time></trkpt><trkpt lon="5.444157" lat="51.156878"><ele>50</ele><time>2022-03-27T08:22:35.000Z</time></trkpt><trkpt lon="5.444108" lat="51.156944"><ele>50</ele><time>2022-03-27T08:22:36.000Z</time></trkpt><trkpt lon="5.444063" lat="51.157009"><ele>50</ele><time>2022-03-27T08:22:37.000Z</time></trkpt><trkpt lon="5.444016" lat="51.157074"><ele>50</ele><time>2022-03-27T08:22:38.000Z</time></trkpt><trkpt lon="5.443969" lat="51.157143"><ele>50.2</ele><time>2022-03-27T08:22:39.000Z</time></trkpt><trkpt lon="5.44392" lat="51.157209"><ele>50.2</ele><time>2022-03-27T08:22:40.000Z</time></trkpt><trkpt lon="5.443873" lat="51.157272"><ele>50.2</ele><time>2022-03-27T08:22:41.000Z</time></trkpt><trkpt lon="5.443827" lat="51.157336"><ele>50.4</ele><time>2022-03-27T08:22:42.000Z</time></trkpt><trkpt lon="5.44378" lat="51.157401"><ele>50.4</ele><time>2022-03-27T08:22:43.000Z</time></trkpt><trkpt lon="5.443733" lat="51.157465"><ele>50.4</ele><time>2022-03-27T08:22:44.000Z</time></trkpt><trkpt lon="5.443682" lat="51.157531"><ele>50.4</ele><time>2022-03-27T08:22:45.000Z</time></trkpt><trkpt lon="5.443635" lat="51.157599"><ele>50.4</ele><time>2022-03-27T08:22:46.000Z</time></trkpt><trkpt lon="5.443588" lat="51.157665"><ele>50.2</ele><time>2022-03-27T08:22:47.000Z</time></trkpt><trkpt lon="5.443539" lat="51.157729"><ele>50.2</ele><time>2022-03-27T08:22:48.000Z</time></trkpt><trkpt lon="5.443489" lat="51.157795"><ele>50.2</ele><time>2022-03-27T08:22:49.000Z</time></trkpt><trkpt lon="5.44344" lat="51.157859"><ele>50.2</ele><time>2022-03-27T08:22:50.000Z</time></trkpt><trkpt lon="5.44339" lat="51.157924"><ele>50.2</ele><time>2022-03-27T08:22:51.000Z</time></trkpt><trkpt lon="5.443342" lat="51.157989"><ele>50.2</ele><time>2022-03-27T08:22:52.000Z</time></trkpt><trkpt lon="5.443293" lat="51.158058"><ele>50.2</ele><time>2022-03-27T08:22:53.000Z</time></trkpt><trkpt lon="5.443246" lat="51.158126"><ele>50</ele><time>2022-03-27T08:22:54.000Z</time></trkpt><trkpt lon="5.443202" lat="51.158191"><ele>50</ele><time>2022-03-27T08:22:55.000Z</time></trkpt><trkpt lon="5.443158" lat="51.158259"><ele>50</ele><time>2022-03-27T08:22:56.000Z</time></trkpt><trkpt lon="5.44311" lat="51.158328"><ele>50</ele><time>2022-03-27T08:22:57.000Z</time></trkpt><trkpt lon="5.44306" lat="51.158397"><ele>49.8</ele><time>2022-03-27T08:22:58.000Z</time></trkpt><trkpt lon="5.443013" lat="51.158466"><ele>49.8</ele><time>2022-03-27T08:22:59.000Z</time></trkpt><trkpt lon="5.442968" lat="51.158531"><ele>49.8</ele><time>2022-03-27T08:23:00.000Z</time></trkpt><trkpt lon="5.44292" lat="51.158596"><ele>49.6</ele><time>2022-03-27T08:23:01.000Z</time></trkpt><trkpt lon="5.44287" lat="51.158664"><ele>49.6</ele><time>2022-03-27T08:23:02.000Z</time></trkpt><trkpt lon="5.442821" lat="51.158733"><ele>49.6</ele><time>2022-03-27T08:23:03.000Z</time></trkpt><trkpt lon="5.442773" lat="51.158801"><ele>49.4</ele><time>2022-03-27T08:23:04.000Z</time></trkpt><trkpt lon="5.442724" lat="51.158866"><ele>49.4</ele><time>2022-03-27T08:23:05.000Z</time></trkpt><trkpt lon="5.442674" lat="51.158934"><ele>49.2</ele><time>2022-03-27T08:23:06.000Z</time></trkpt><trkpt lon="5.442625" lat="51.159003"><ele>49.2</ele><time>2022-03-27T08:23:07.000Z</time></trkpt><trkpt lon="5.442579" lat="51.15907"><ele>49.2</ele><time>2022-03-27T08:23:08.000Z</time></trkpt><trkpt lon="5.442531" lat="51.159134"><ele>49</ele><time>2022-03-27T08:23:09.000Z</time></trkpt><trkpt lon="5.442484" lat="51.159203"><ele>49</ele><time>2022-03-27T08:23:10.000Z</time></trkpt><trkpt lon="5.442438" lat="51.159271"><ele>49</ele><time>2022-03-27T08:23:11.000Z</time></trkpt><trkpt lon="5.442392" lat="51.159335"><ele>49</ele><time>2022-03-27T08:23:12.000Z</time></trkpt><trkpt lon="5.442341" lat="51.159404"><ele>48.8</ele><time>2022-03-27T08:23:13.000Z</time></trkpt><trkpt lon="5.442296" lat="51.159469"><ele>48.8</ele><time>2022-03-27T08:23:14.000Z</time></trkpt><trkpt lon="5.442249" lat="51.159537"><ele>48.6</ele><time>2022-03-27T08:23:15.000Z</time></trkpt><trkpt lon="5.442203" lat="51.159603"><ele>48.6</ele><time>2022-03-27T08:23:16.000Z</time></trkpt><trkpt lon="5.442159" lat="51.159668"><ele>48.6</ele><time>2022-03-27T08:23:17.000Z</time></trkpt><trkpt lon="5.442118" lat="51.159736"><ele>48.6</ele><time>2022-03-27T08:23:18.000Z</time></trkpt><trkpt lon="5.442073" lat="51.159797"><ele>48.4</ele><time>2022-03-27T08:23:19.000Z</time></trkpt><trkpt lon="5.44203" lat="51.159862"><ele>48.2</ele><time>2022-03-27T08:23:20.000Z</time></trkpt><trkpt lon="5.441986" lat="51.159927"><ele>48.4</ele><time>2022-03-27T08:23:21.000Z</time></trkpt><trkpt lon="5.441944" lat="51.159987"><ele>48.2</ele><time>2022-03-27T08:23:22.000Z</time></trkpt><trkpt lon="5.441902" lat="51.160048"><ele>48.2</ele><time>2022-03-27T08:23:23.000Z</time></trkpt><trkpt lon="5.441854" lat="51.160113"><ele>48.2</ele><time>2022-03-27T08:23:24.000Z</time></trkpt><trkpt lon="5.441804" lat="51.160175"><ele>48.2</ele><time>2022-03-27T08:23:25.000Z</time></trkpt><trkpt lon="5.441756" lat="51.16024"><ele>48</ele><time>2022-03-27T08:23:26.000Z</time></trkpt><trkpt lon="5.441707" lat="51.160308"><ele>48</ele><time>2022-03-27T08:23:27.000Z</time></trkpt><trkpt lon="5.441658" lat="51.160373"><ele>47.8</ele><time>2022-03-27T08:23:28.000Z</time></trkpt><trkpt lon="5.44161" lat="51.160438"><ele>47.8</ele><time>2022-03-27T08:23:29.000Z</time></trkpt><trkpt lon="5.441563" lat="51.160503"><ele>47.8</ele><time>2022-03-27T08:23:30.000Z</time></trkpt><trkpt lon="5.441517" lat="51.160569"><ele>47.8</ele><time>2022-03-27T08:23:31.000Z</time></trkpt><trkpt lon="5.441474" lat="51.160635"><ele>47.8</ele><time>2022-03-27T08:23:32.000Z</time></trkpt><trkpt lon="5.441428" lat="51.160702"><ele>47.6</ele><time>2022-03-27T08:23:33.000Z</time></trkpt><trkpt lon="5.44138" lat="51.160766"><ele>47.6</ele><time>2022-03-27T08:23:34.000Z</time></trkpt><trkpt lon="5.441333" lat="51.160834"><ele>47.6</ele><time>2022-03-27T08:23:35.000Z</time></trkpt><trkpt lon="5.441289" lat="51.160899"><ele>47.6</ele><time>2022-03-27T08:23:36.000Z</time></trkpt><trkpt lon="5.441242" lat="51.160967"><ele>47.8</ele><time>2022-03-27T08:23:37.000Z</time></trkpt><trkpt lon="5.441194" lat="51.161034"><ele>47.8</ele><time>2022-03-27T08:23:38.000Z</time></trkpt><trkpt lon="5.441147" lat="51.161096"><ele>47.8</ele><time>2022-03-27T08:23:39.000Z</time></trkpt><trkpt lon="5.441097" lat="51.16116"><ele>47.8</ele><time>2022-03-27T08:23:40.000Z</time></trkpt><trkpt lon="5.441044" lat="51.16123"><ele>47.8</ele><time>2022-03-27T08:23:41.000Z</time></trkpt><trkpt lon="5.440999" lat="51.161291"><ele>47.8</ele><time>2022-03-27T08:23:42.000Z</time></trkpt><trkpt lon="5.440955" lat="51.161354"><ele>47.8</ele><time>2022-03-27T08:23:43.000Z</time></trkpt><trkpt lon="5.44091" lat="51.161414"><ele>47.8</ele><time>2022-03-27T08:23:44.000Z</time></trkpt><trkpt lon="5.440867" lat="51.161475"><ele>47.6</ele><time>2022-03-27T08:23:45.000Z</time></trkpt><trkpt lon="5.440825" lat="51.16154"><ele>47.6</ele><time>2022-03-27T08:23:46.000Z</time></trkpt><trkpt lon="5.440783" lat="51.161609"><ele>47.6</ele><time>2022-03-27T08:23:47.000Z</time></trkpt><trkpt lon="5.440739" lat="51.161673"><ele>47.6</ele><time>2022-03-27T08:23:48.000Z</time></trkpt><trkpt lon="5.440691" lat="51.161739"><ele>47.6</ele><time>2022-03-27T08:23:49.000Z</time></trkpt><trkpt lon="5.440648" lat="51.161804"><ele>47.8</ele><time>2022-03-27T08:23:50.000Z</time></trkpt><trkpt lon="5.440609" lat="51.161858"><ele>47.8</ele><time>2022-03-27T08:23:51.000Z</time></trkpt><trkpt lon="5.440572" lat="51.161909"><ele>47.8</ele><time>2022-03-27T08:23:52.000Z</time></trkpt><trkpt lon="5.440528" lat="51.161957"><ele>48</ele><time>2022-03-27T08:23:53.000Z</time></trkpt><trkpt lon="5.440482" lat="51.161982"><ele>48.2</ele><time>2022-03-27T08:23:54.000Z</time></trkpt><trkpt lon="5.440436" lat="51.161984"><ele>48.4</ele><time>2022-03-27T08:23:55.000Z</time></trkpt><trkpt lon="5.440402" lat="51.161973"><ele>48.6</ele><time>2022-03-27T08:23:56.000Z</time></trkpt><trkpt lon="5.440379" lat="51.161954"><ele>48.6</ele><time>2022-03-27T08:23:57.000Z</time></trkpt><trkpt lon="5.440355" lat="51.161925"><ele>48.8</ele><time>2022-03-27T08:23:58.000Z</time></trkpt><trkpt lon="5.440333" lat="51.161887"><ele>48.8</ele><time>2022-03-27T08:23:59.000Z</time></trkpt><trkpt lon="5.440313" lat="51.161842"><ele>48.8</ele><time>2022-03-27T08:24:00.000Z</time></trkpt><trkpt lon="5.440291" lat="51.161799"><ele>49</ele><time>2022-03-27T08:24:01.000Z</time></trkpt><trkpt lon="5.440266" lat="51.161748"><ele>49</ele><time>2022-03-27T08:24:02.000Z</time></trkpt><trkpt lon="5.440236" lat="51.161694"><ele>49.2</ele><time>2022-03-27T08:24:03.000Z</time></trkpt><trkpt lon="5.440207" lat="51.16164"><ele>49.2</ele><time>2022-03-27T08:24:04.000Z</time></trkpt><trkpt lon="5.440174" lat="51.16158"><ele>49.2</ele><time>2022-03-27T08:24:05.000Z</time></trkpt><trkpt lon="5.440142" lat="51.161521"><ele>49.2</ele><time>2022-03-27T08:24:06.000Z</time></trkpt><trkpt lon="5.440103" lat="51.161457"><ele>49.2</ele><time>2022-03-27T08:24:07.000Z</time></trkpt><trkpt lon="5.440063" lat="51.161391"><ele>49.4</ele><time>2022-03-27T08:24:08.000Z</time></trkpt><trkpt lon="5.44003" lat="51.161334"><ele>49.4</ele><time>2022-03-27T08:24:09.000Z</time></trkpt><trkpt lon="5.439999" lat="51.161269"><ele>49.4</ele><time>2022-03-27T08:24:10.000Z</time></trkpt><trkpt lon="5.439973" lat="51.16121"><ele>49.4</ele><time>2022-03-27T08:24:11.000Z</time></trkpt><trkpt lon="5.439949" lat="51.161149"><ele>49.4</ele><time>2022-03-27T08:24:12.000Z</time></trkpt><trkpt lon="5.439923" lat="51.16109"><ele>49.4</ele><time>2022-03-27T08:24:13.000Z</time></trkpt><trkpt lon="5.439894" lat="51.161034"><ele>49.4</ele><time>2022-03-27T08:24:14.000Z</time></trkpt><trkpt lon="5.439863" lat="51.160977"><ele>49.4</ele><time>2022-03-27T08:24:15.000Z</time></trkpt><trkpt lon="5.439828" lat="51.160913"><ele>49.4</ele><time>2022-03-27T08:24:16.000Z</time></trkpt><trkpt lon="5.439793" lat="51.160851"><ele>49.2</ele><time>2022-03-27T08:24:17.000Z</time></trkpt><trkpt lon="5.439753" lat="51.160783"><ele>49.2</ele><time>2022-03-27T08:24:18.000Z</time></trkpt><trkpt lon="5.439721" lat="51.160725"><ele>49</ele><time>2022-03-27T08:24:19.000Z</time></trkpt><trkpt lon="5.439692" lat="51.160667"><ele>49</ele><time>2022-03-27T08:24:20.000Z</time></trkpt><trkpt lon="5.439665" lat="51.160614"><ele>49.2</ele><time>2022-03-27T08:24:21.000Z</time></trkpt><trkpt lon="5.439636" lat="51.160561"><ele>49.4</ele><time>2022-03-27T08:24:22.000Z</time></trkpt><trkpt lon="5.439605" lat="51.160509"><ele>49.4</ele><time>2022-03-27T08:24:23.000Z</time></trkpt><trkpt lon="5.439564" lat="51.16045"><ele>49.4</ele><time>2022-03-27T08:24:24.000Z</time></trkpt><trkpt lon="5.439526" lat="51.160393"><ele>49.4</ele><time>2022-03-27T08:24:25.000Z</time></trkpt><trkpt lon="5.439485" lat="51.16033"><ele>49.4</ele><time>2022-03-27T08:24:26.000Z</time></trkpt><trkpt lon="5.439454" lat="51.160265"><ele>49.6</ele><time>2022-03-27T08:24:27.000Z</time></trkpt><trkpt lon="5.439417" lat="51.160199"><ele>49.6</ele><time>2022-03-27T08:24:28.000Z</time></trkpt><trkpt lon="5.439377" lat="51.160128"><ele>49.6</ele><time>2022-03-27T08:24:29.000Z</time></trkpt><trkpt lon="5.439338" lat="51.160059"><ele>49.4</ele><time>2022-03-27T08:24:30.000Z</time></trkpt><trkpt lon="5.439302" lat="51.159989"><ele>49.6</ele><time>2022-03-27T08:24:31.000Z</time></trkpt><trkpt lon="5.439263" lat="51.159917"><ele>49.6</ele><time>2022-03-27T08:24:32.000Z</time></trkpt><trkpt lon="5.439223" lat="51.159849"><ele>49.6</ele><time>2022-03-27T08:24:33.000Z</time></trkpt><trkpt lon="5.439187" lat="51.159784"><ele>49.6</ele><time>2022-03-27T08:24:34.000Z</time></trkpt><trkpt lon="5.439149" lat="51.159712"><ele>49.6</ele><time>2022-03-27T08:24:35.000Z</time></trkpt><trkpt lon="5.439118" lat="51.159641"><ele>49.6</ele><time>2022-03-27T08:24:36.000Z</time></trkpt><trkpt lon="5.439086" lat="51.15957"><ele>49.6</ele><time>2022-03-27T08:24:37.000Z</time></trkpt><trkpt lon="5.439053" lat="51.159499"><ele>49.8</ele><time>2022-03-27T08:24:38.000Z</time></trkpt><trkpt lon="5.439023" lat="51.15942"><ele>49.8</ele><time>2022-03-27T08:24:39.000Z</time></trkpt><trkpt lon="5.438992" lat="51.159349"><ele>50</ele><time>2022-03-27T08:24:40.000Z</time></trkpt><trkpt lon="5.438967" lat="51.159281"><ele>50</ele><time>2022-03-27T08:24:41.000Z</time></trkpt><trkpt lon="5.438941" lat="51.159213"><ele>50</ele><time>2022-03-27T08:24:42.000Z</time></trkpt><trkpt lon="5.438907" lat="51.15915"><ele>50</ele><time>2022-03-27T08:24:43.000Z</time></trkpt><trkpt lon="5.438876" lat="51.159082"><ele>50</ele><time>2022-03-27T08:24:44.000Z</time></trkpt><trkpt lon="5.438842" lat="51.159013"><ele>50</ele><time>2022-03-27T08:24:45.000Z</time></trkpt><trkpt lon="5.438813" lat="51.158949"><ele>50</ele><time>2022-03-27T08:24:46.000Z</time></trkpt><trkpt lon="5.438778" lat="51.158876"><ele>50</ele><time>2022-03-27T08:24:47.000Z</time></trkpt><trkpt lon="5.438746" lat="51.158815"><ele>50</ele><time>2022-03-27T08:24:48.000Z</time></trkpt><trkpt lon="5.438707" lat="51.15875"><ele>50</ele><time>2022-03-27T08:24:49.000Z</time></trkpt><trkpt lon="5.43867" lat="51.15868"><ele>50</ele><time>2022-03-27T08:24:50.000Z</time></trkpt><trkpt lon="5.438636" lat="51.15861"><ele>50.2</ele><time>2022-03-27T08:24:51.000Z</time></trkpt><trkpt lon="5.4386" lat="51.158537"><ele>50.2</ele><time>2022-03-27T08:24:52.000Z</time></trkpt><trkpt lon="5.438575" lat="51.158461"><ele>50.2</ele><time>2022-03-27T08:24:53.000Z</time></trkpt><trkpt lon="5.438545" lat="51.158393"><ele>50.2</ele><time>2022-03-27T08:24:54.000Z</time></trkpt><trkpt lon="5.438509" lat="51.158326"><ele>50.2</ele><time>2022-03-27T08:24:55.000Z</time></trkpt><trkpt lon="5.438478" lat="51.158252"><ele>50.4</ele><time>2022-03-27T08:24:56.000Z</time></trkpt><trkpt lon="5.438448" lat="51.158179"><ele>50.4</ele><time>2022-03-27T08:24:57.000Z</time></trkpt><trkpt lon="5.438421" lat="51.158106"><ele>50.4</ele><time>2022-03-27T08:24:58.000Z</time></trkpt><trkpt lon="5.438392" lat="51.15803"><ele>50.2</ele><time>2022-03-27T08:24:59.000Z</time></trkpt><trkpt lon="5.438359" lat="51.157961"><ele>50.2</ele><time>2022-03-27T08:25:00.000Z</time></trkpt><trkpt lon="5.43833" lat="51.157892"><ele>50.2</ele><time>2022-03-27T08:25:01.000Z</time></trkpt><trkpt lon="5.438306" lat="51.15782"><ele>50.2</ele><time>2022-03-27T08:25:02.000Z</time></trkpt><trkpt lon="5.438283" lat="51.157751"><ele>50.2</ele><time>2022-03-27T08:25:03.000Z</time></trkpt><trkpt lon="5.43826" lat="51.157693"><ele>50.2</ele><time>2022-03-27T08:25:04.000Z</time></trkpt><trkpt lon="5.438226" lat="51.157628"><ele>50</ele><time>2022-03-27T08:25:05.000Z</time></trkpt><trkpt lon="5.438182" lat="51.157563"><ele>50</ele><time>2022-03-27T08:25:06.000Z</time></trkpt><trkpt lon="5.438144" lat="51.157497"><ele>50</ele><time>2022-03-27T08:25:07.000Z</time></trkpt><trkpt lon="5.438108" lat="51.157421"><ele>50</ele><time>2022-03-27T08:25:08.000Z</time></trkpt><trkpt lon="5.438077" lat="51.157353"><ele>50</ele><time>2022-03-27T08:25:09.000Z</time></trkpt><trkpt lon="5.438048" lat="51.157285"><ele>49.8</ele><time>2022-03-27T08:25:10.000Z</time></trkpt><trkpt lon="5.438024" lat="51.157217"><ele>50</ele><time>2022-03-27T08:25:11.000Z</time></trkpt><trkpt lon="5.437994" lat="51.157153"><ele>50</ele><time>2022-03-27T08:25:12.000Z</time></trkpt><trkpt lon="5.437967" lat="51.157083"><ele>50</ele><time>2022-03-27T08:25:13.000Z</time></trkpt><trkpt lon="5.437941" lat="51.157016"><ele>50.2</ele><time>2022-03-27T08:25:14.000Z</time></trkpt><trkpt lon="5.437918" lat="51.156946"><ele>50.2</ele><time>2022-03-27T08:25:15.000Z</time></trkpt><trkpt lon="5.437891" lat="51.156885"><ele>50.2</ele><time>2022-03-27T08:25:16.000Z</time></trkpt><trkpt lon="5.437853" lat="51.156813"><ele>50.4</ele><time>2022-03-27T08:25:17.000Z</time></trkpt><trkpt lon="5.437818" lat="51.156741"><ele>50.4</ele><time>2022-03-27T08:25:18.000Z</time></trkpt><trkpt lon="5.437774" lat="51.156668"><ele>50.4</ele><time>2022-03-27T08:25:19.000Z</time></trkpt><trkpt lon="5.437734" lat="51.1566"><ele>50.2</ele><time>2022-03-27T08:25:20.000Z</time></trkpt><trkpt lon="5.437697" lat="51.156531"><ele>50.4</ele><time>2022-03-27T08:25:21.000Z</time></trkpt><trkpt lon="5.43766" lat="51.156465"><ele>50.4</ele><time>2022-03-27T08:25:22.000Z</time></trkpt><trkpt lon="5.437623" lat="51.156397"><ele>50.6</ele><time>2022-03-27T08:25:23.000Z</time></trkpt><trkpt lon="5.437585" lat="51.156325"><ele>50.6</ele><time>2022-03-27T08:25:24.000Z</time></trkpt><trkpt lon="5.437548" lat="51.156255"><ele>50.6</ele><time>2022-03-27T08:25:25.000Z</time></trkpt><trkpt lon="5.437515" lat="51.156188"><ele>50.6</ele><time>2022-03-27T08:25:26.000Z</time></trkpt><trkpt lon="5.43748" lat="51.156118"><ele>50.4</ele><time>2022-03-27T08:25:27.000Z</time></trkpt><trkpt lon="5.437448" lat="51.15605"><ele>50.4</ele><time>2022-03-27T08:25:28.000Z</time></trkpt><trkpt lon="5.437418" lat="51.155977"><ele>50.6</ele><time>2022-03-27T08:25:29.000Z</time></trkpt><trkpt lon="5.437385" lat="51.155909"><ele>50.6</ele><time>2022-03-27T08:25:30.000Z</time></trkpt><trkpt lon="5.437358" lat="51.15584"><ele>50.6</ele><time>2022-03-27T08:25:31.000Z</time></trkpt><trkpt lon="5.437329" lat="51.155772"><ele>50.6</ele><time>2022-03-27T08:25:32.000Z</time></trkpt><trkpt lon="5.437303" lat="51.155704"><ele>50.8</ele><time>2022-03-27T08:25:33.000Z</time></trkpt><trkpt lon="5.437271" lat="51.155634"><ele>50.8</ele><time>2022-03-27T08:25:34.000Z</time></trkpt><trkpt lon="5.437245" lat="51.155571"><ele>51</ele><time>2022-03-27T08:25:35.000Z</time></trkpt><trkpt lon="5.437214" lat="51.155504"><ele>51</ele><time>2022-03-27T08:25:36.000Z</time></trkpt><trkpt lon="5.437181" lat="51.155436"><ele>51.2</ele><time>2022-03-27T08:25:37.000Z</time></trkpt><trkpt lon="5.437151" lat="51.155381"><ele>51.2</ele><time>2022-03-27T08:25:38.000Z</time></trkpt><trkpt lon="5.437107" lat="51.155302"><ele>51.2</ele><time>2022-03-27T08:25:39.000Z</time></trkpt><trkpt lon="5.437072" lat="51.155236"><ele>51.2</ele><time>2022-03-27T08:25:40.000Z</time></trkpt><trkpt lon="5.437035" lat="51.155168"><ele>51.2</ele><time>2022-03-27T08:25:41.000Z</time></trkpt><trkpt lon="5.436996" lat="51.1551"><ele>51.2</ele><time>2022-03-27T08:25:42.000Z</time></trkpt><trkpt lon="5.436963" lat="51.155036"><ele>51.2</ele><time>2022-03-27T08:25:43.000Z</time></trkpt><trkpt lon="5.436924" lat="51.154965"><ele>51.2</ele><time>2022-03-27T08:25:44.000Z</time></trkpt><trkpt lon="5.43689" lat="51.154901"><ele>51.2</ele><time>2022-03-27T08:25:45.000Z</time></trkpt><trkpt lon="5.436858" lat="51.154833"><ele>51.2</ele><time>2022-03-27T08:25:46.000Z</time></trkpt><trkpt lon="5.436828" lat="51.154765"><ele>51.2</ele><time>2022-03-27T08:25:47.000Z</time></trkpt><trkpt lon="5.436799" lat="51.154699"><ele>51.2</ele><time>2022-03-27T08:25:48.000Z</time></trkpt><trkpt lon="5.436772" lat="51.154641"><ele>51.2</ele><time>2022-03-27T08:25:49.000Z</time></trkpt><trkpt lon="5.436747" lat="51.154577"><ele>51.2</ele><time>2022-03-27T08:25:50.000Z</time></trkpt><trkpt lon="5.436727" lat="51.154519"><ele>51.2</ele><time>2022-03-27T08:25:51.000Z</time></trkpt><trkpt lon="5.43671" lat="51.154459"><ele>51.2</ele><time>2022-03-27T08:25:52.000Z</time></trkpt><trkpt lon="5.436689" lat="51.154398"><ele>51.2</ele><time>2022-03-27T08:25:53.000Z</time></trkpt><trkpt lon="5.436667" lat="51.15433"><ele>51.2</ele><time>2022-03-27T08:25:54.000Z</time></trkpt><trkpt lon="5.436641" lat="51.154264"><ele>51.2</ele><time>2022-03-27T08:25:55.000Z</time></trkpt><trkpt lon="5.436616" lat="51.1542"><ele>51.2</ele><time>2022-03-27T08:25:56.000Z</time></trkpt><trkpt lon="5.436592" lat="51.154142"><ele>51.2</ele><time>2022-03-27T08:25:57.000Z</time></trkpt><trkpt lon="5.436567" lat="51.154079"><ele>51.2</ele><time>2022-03-27T08:25:58.000Z</time></trkpt><trkpt lon="5.436533" lat="51.154009"><ele>51.2</ele><time>2022-03-27T08:25:59.000Z</time></trkpt><trkpt lon="5.436492" lat="51.15394"><ele>51.4</ele><time>2022-03-27T08:26:00.000Z</time></trkpt><trkpt lon="5.436457" lat="51.153871"><ele>51.4</ele><time>2022-03-27T08:26:01.000Z</time></trkpt><trkpt lon="5.436426" lat="51.1538"><ele>51.4</ele><time>2022-03-27T08:26:02.000Z</time></trkpt><trkpt lon="5.436393" lat="51.153732"><ele>51.6</ele><time>2022-03-27T08:26:03.000Z</time></trkpt><trkpt lon="5.436354" lat="51.153657"><ele>51.6</ele><time>2022-03-27T08:26:04.000Z</time></trkpt><trkpt lon="5.436317" lat="51.153586"><ele>51.6</ele><time>2022-03-27T08:26:05.000Z</time></trkpt><trkpt lon="5.436281" lat="51.15351"><ele>51.4</ele><time>2022-03-27T08:26:06.000Z</time></trkpt><trkpt lon="5.436248" lat="51.153434"><ele>51.4</ele><time>2022-03-27T08:26:07.000Z</time></trkpt><trkpt lon="5.436217" lat="51.15336"><ele>51.4</ele><time>2022-03-27T08:26:08.000Z</time></trkpt><trkpt lon="5.436198" lat="51.153287"><ele>51.4</ele><time>2022-03-27T08:26:09.000Z</time></trkpt><trkpt lon="5.436172" lat="51.153214"><ele>51.2</ele><time>2022-03-27T08:26:10.000Z</time></trkpt><trkpt lon="5.436135" lat="51.153141"><ele>51.2</ele><time>2022-03-27T08:26:11.000Z</time></trkpt><trkpt lon="5.436101" lat="51.153064"><ele>51.2</ele><time>2022-03-27T08:26:12.000Z</time></trkpt><trkpt lon="5.436068" lat="51.152985"><ele>51</ele><time>2022-03-27T08:26:13.000Z</time></trkpt><trkpt lon="5.436033" lat="51.152908"><ele>51</ele><time>2022-03-27T08:26:14.000Z</time></trkpt><trkpt lon="5.436003" lat="51.152835"><ele>50.8</ele><time>2022-03-27T08:26:15.000Z</time></trkpt><trkpt lon="5.435973" lat="51.152763"><ele>50.8</ele><time>2022-03-27T08:26:16.000Z</time></trkpt><trkpt lon="5.435941" lat="51.15269"><ele>50.6</ele><time>2022-03-27T08:26:17.000Z</time></trkpt><trkpt lon="5.435909" lat="51.152623"><ele>50.6</ele><time>2022-03-27T08:26:18.000Z</time></trkpt><trkpt lon="5.435878" lat="51.152549"><ele>50.4</ele><time>2022-03-27T08:26:19.000Z</time></trkpt><trkpt lon="5.435847" lat="51.15248"><ele>50.4</ele><time>2022-03-27T08:26:20.000Z</time></trkpt><trkpt lon="5.435813" lat="51.152408"><ele>50.4</ele><time>2022-03-27T08:26:21.000Z</time></trkpt><trkpt lon="5.435778" lat="51.152335"><ele>50.4</ele><time>2022-03-27T08:26:22.000Z</time></trkpt><trkpt lon="5.435743" lat="51.152266"><ele>50.4</ele><time>2022-03-27T08:26:23.000Z</time></trkpt><trkpt lon="5.435709" lat="51.152197"><ele>50.4</ele><time>2022-03-27T08:26:24.000Z</time></trkpt><trkpt lon="5.435676" lat="51.152125"><ele>50.2</ele><time>2022-03-27T08:26:25.000Z</time></trkpt><trkpt lon="5.435646" lat="51.152053"><ele>50.2</ele><time>2022-03-27T08:26:26.000Z</time></trkpt><trkpt lon="5.435611" lat="51.151982"><ele>50.2</ele><time>2022-03-27T08:26:27.000Z</time></trkpt><trkpt lon="5.435578" lat="51.151911"><ele>50.2</ele><time>2022-03-27T08:26:28.000Z</time></trkpt><trkpt lon="5.435543" lat="51.151846"><ele>50.2</ele><time>2022-03-27T08:26:29.000Z</time></trkpt><trkpt lon="5.435514" lat="51.151781"><ele>50.2</ele><time>2022-03-27T08:26:30.000Z</time></trkpt><trkpt lon="5.435486" lat="51.151716"><ele>50.2</ele><time>2022-03-27T08:26:31.000Z</time></trkpt><trkpt lon="5.435454" lat="51.151648"><ele>50.4</ele><time>2022-03-27T08:26:32.000Z</time></trkpt><trkpt lon="5.43542" lat="51.15158"><ele>50.6</ele><time>2022-03-27T08:26:33.000Z</time></trkpt><trkpt lon="5.435382" lat="51.151511"><ele>50.4</ele><time>2022-03-27T08:26:34.000Z</time></trkpt><trkpt lon="5.435339" lat="51.151442"><ele>50.4</ele><time>2022-03-27T08:26:35.000Z</time></trkpt><trkpt lon="5.435299" lat="51.15137"><ele>50.4</ele><time>2022-03-27T08:26:36.000Z</time></trkpt><trkpt lon="5.435257" lat="51.151302"><ele>50.6</ele><time>2022-03-27T08:26:37.000Z</time></trkpt><trkpt lon="5.435216" lat="51.15123"><ele>50.6</ele><time>2022-03-27T08:26:38.000Z</time></trkpt><trkpt lon="5.435173" lat="51.151158"><ele>50.4</ele><time>2022-03-27T08:26:39.000Z</time></trkpt><trkpt lon="5.43513" lat="51.151093"><ele>50.4</ele><time>2022-03-27T08:26:40.000Z</time></trkpt><trkpt lon="5.435088" lat="51.15102"><ele>50.6</ele><time>2022-03-27T08:26:41.000Z</time></trkpt><trkpt lon="5.43505" lat="51.15095"><ele>50.6</ele><time>2022-03-27T08:26:42.000Z</time></trkpt><trkpt lon="5.435013" lat="51.150881"><ele>50.6</ele><time>2022-03-27T08:26:43.000Z</time></trkpt><trkpt lon="5.434975" lat="51.150809"><ele>50.6</ele><time>2022-03-27T08:26:44.000Z</time></trkpt><trkpt lon="5.434934" lat="51.150737"><ele>50.6</ele><time>2022-03-27T08:26:45.000Z</time></trkpt><trkpt lon="5.434898" lat="51.150665"><ele>50.8</ele><time>2022-03-27T08:26:46.000Z</time></trkpt><trkpt lon="5.434864" lat="51.150599"><ele>51</ele><time>2022-03-27T08:26:47.000Z</time></trkpt><trkpt lon="5.434829" lat="51.150531"><ele>51</ele><time>2022-03-27T08:26:48.000Z</time></trkpt><trkpt lon="5.434795" lat="51.15046"><ele>51.2</ele><time>2022-03-27T08:26:49.000Z</time></trkpt><trkpt lon="5.434763" lat="51.150393"><ele>51.4</ele><time>2022-03-27T08:26:50.000Z</time></trkpt><trkpt lon="5.434731" lat="51.150324"><ele>51.4</ele><time>2022-03-27T08:26:51.000Z</time></trkpt><trkpt lon="5.434698" lat="51.150253"><ele>51.4</ele><time>2022-03-27T08:26:52.000Z</time></trkpt><trkpt lon="5.434664" lat="51.150181"><ele>51.4</ele><time>2022-03-27T08:26:53.000Z</time></trkpt><trkpt lon="5.43463" lat="51.150115"><ele>51.4</ele><time>2022-03-27T08:26:54.000Z</time></trkpt><trkpt lon="5.434596" lat="51.150044"><ele>51.6</ele><time>2022-03-27T08:26:55.000Z</time></trkpt><trkpt lon="5.43456" lat="51.149974"><ele>51.6</ele><time>2022-03-27T08:26:56.000Z</time></trkpt><trkpt lon="5.434527" lat="51.149906"><ele>51.8</ele><time>2022-03-27T08:26:57.000Z</time></trkpt><trkpt lon="5.434494" lat="51.149836"><ele>52</ele><time>2022-03-27T08:26:58.000Z</time></trkpt><trkpt lon="5.434463" lat="51.149764"><ele>52.2</ele><time>2022-03-27T08:26:59.000Z</time></trkpt><trkpt lon="5.434434" lat="51.149695"><ele>52.2</ele><time>2022-03-27T08:27:00.000Z</time></trkpt><trkpt lon="5.434403" lat="51.149627"><ele>52.4</ele><time>2022-03-27T08:27:01.000Z</time></trkpt><trkpt lon="5.43437" lat="51.149555"><ele>52.6</ele><time>2022-03-27T08:27:02.000Z</time></trkpt><trkpt lon="5.434335" lat="51.149482"><ele>52.6</ele><time>2022-03-27T08:27:03.000Z</time></trkpt><trkpt lon="5.4343" lat="51.14941"><ele>52.6</ele><time>2022-03-27T08:27:04.000Z</time></trkpt><trkpt lon="5.434263" lat="51.149334"><ele>52.8</ele><time>2022-03-27T08:27:05.000Z</time></trkpt><trkpt lon="5.434226" lat="51.149261"><ele>52.8</ele><time>2022-03-27T08:27:06.000Z</time></trkpt><trkpt lon="5.434187" lat="51.149188"><ele>52.8</ele><time>2022-03-27T08:27:07.000Z</time></trkpt><trkpt lon="5.434149" lat="51.149116"><ele>52.8</ele><time>2022-03-27T08:27:08.000Z</time></trkpt><trkpt lon="5.434108" lat="51.149042"><ele>52.8</ele><time>2022-03-27T08:27:09.000Z</time></trkpt><trkpt lon="5.434067" lat="51.148967"><ele>52.8</ele><time>2022-03-27T08:27:10.000Z</time></trkpt><trkpt lon="5.434033" lat="51.148897"><ele>52.8</ele><time>2022-03-27T08:27:11.000Z</time></trkpt><trkpt lon="5.433997" lat="51.148822"><ele>52.8</ele><time>2022-03-27T08:27:12.000Z</time></trkpt><trkpt lon="5.433963" lat="51.14875"><ele>52.6</ele><time>2022-03-27T08:27:13.000Z</time></trkpt><trkpt lon="5.433931" lat="51.148677"><ele>52.6</ele><time>2022-03-27T08:27:14.000Z</time></trkpt><trkpt lon="5.433903" lat="51.148609"><ele>52.6</ele><time>2022-03-27T08:27:15.000Z</time></trkpt><trkpt lon="5.433874" lat="51.148539"><ele>52.6</ele><time>2022-03-27T08:27:16.000Z</time></trkpt><trkpt lon="5.433847" lat="51.14847"><ele>52.4</ele><time>2022-03-27T08:27:17.000Z</time></trkpt><trkpt lon="5.433822" lat="51.148402"><ele>52.4</ele><time>2022-03-27T08:27:18.000Z</time></trkpt><trkpt lon="5.433796" lat="51.148337"><ele>52.4</ele><time>2022-03-27T08:27:19.000Z</time></trkpt><trkpt lon="5.433769" lat="51.148265"><ele>52.2</ele><time>2022-03-27T08:27:20.000Z</time></trkpt><trkpt lon="5.433749" lat="51.148199"><ele>52.2</ele><time>2022-03-27T08:27:21.000Z</time></trkpt><trkpt lon="5.433724" lat="51.148132"><ele>52.2</ele><time>2022-03-27T08:27:22.000Z</time></trkpt><trkpt lon="5.433699" lat="51.148064"><ele>52.2</ele><time>2022-03-27T08:27:23.000Z</time></trkpt><trkpt lon="5.433676" lat="51.147991"><ele>52</ele><time>2022-03-27T08:27:24.000Z</time></trkpt><trkpt lon="5.433648" lat="51.147918"><ele>52</ele><time>2022-03-27T08:27:25.000Z</time></trkpt><trkpt lon="5.433626" lat="51.147853"><ele>51.8</ele><time>2022-03-27T08:27:26.000Z</time></trkpt><trkpt lon="5.433605" lat="51.147781"><ele>51.8</ele><time>2022-03-27T08:27:27.000Z</time></trkpt><trkpt lon="5.433584" lat="51.14771"><ele>51.8</ele><time>2022-03-27T08:27:28.000Z</time></trkpt><trkpt lon="5.433558" lat="51.147633"><ele>51.8</ele><time>2022-03-27T08:27:29.000Z</time></trkpt><trkpt lon="5.433525" lat="51.147556"><ele>51.8</ele><time>2022-03-27T08:27:30.000Z</time></trkpt><trkpt lon="5.43349" lat="51.14748"><ele>51.8</ele><time>2022-03-27T08:27:31.000Z</time></trkpt><trkpt lon="5.433455" lat="51.147411"><ele>51.8</ele><time>2022-03-27T08:27:32.000Z</time></trkpt><trkpt lon="5.433416" lat="51.147339"><ele>51.8</ele><time>2022-03-27T08:27:33.000Z</time></trkpt><trkpt lon="5.433373" lat="51.147263"><ele>51.6</ele><time>2022-03-27T08:27:34.000Z</time></trkpt><trkpt lon="5.433329" lat="51.147183"><ele>51.6</ele><time>2022-03-27T08:27:35.000Z</time></trkpt><trkpt lon="5.433287" lat="51.14711"><ele>51.6</ele><time>2022-03-27T08:27:36.000Z</time></trkpt><trkpt lon="5.433244" lat="51.147037"><ele>51.4</ele><time>2022-03-27T08:27:37.000Z</time></trkpt><trkpt lon="5.433198" lat="51.146964"><ele>51.4</ele><time>2022-03-27T08:27:38.000Z</time></trkpt><trkpt lon="5.43315" lat="51.146892"><ele>51.4</ele><time>2022-03-27T08:27:39.000Z</time></trkpt><trkpt lon="5.4331" lat="51.146819"><ele>51.4</ele><time>2022-03-27T08:27:40.000Z</time></trkpt><trkpt lon="5.433053" lat="51.146755"><ele>51.4</ele><time>2022-03-27T08:27:41.000Z</time></trkpt><trkpt lon="5.433004" lat="51.146686"><ele>51.4</ele><time>2022-03-27T08:27:42.000Z</time></trkpt><trkpt lon="5.432949" lat="51.146621"><ele>51.2</ele><time>2022-03-27T08:27:43.000Z</time></trkpt><trkpt lon="5.432893" lat="51.146556"><ele>51.2</ele><time>2022-03-27T08:27:44.000Z</time></trkpt><trkpt lon="5.432831" lat="51.146491"><ele>51</ele><time>2022-03-27T08:27:45.000Z</time></trkpt><trkpt lon="5.432764" lat="51.146434"><ele>51</ele><time>2022-03-27T08:27:46.000Z</time></trkpt><trkpt lon="5.432688" lat="51.146377"><ele>51</ele><time>2022-03-27T08:27:47.000Z</time></trkpt><trkpt lon="5.432603" lat="51.14633"><ele>51</ele><time>2022-03-27T08:27:48.000Z</time></trkpt><trkpt lon="5.432513" lat="51.146285"><ele>51</ele><time>2022-03-27T08:27:49.000Z</time></trkpt><trkpt lon="5.43242" lat="51.146242"><ele>50.8</ele><time>2022-03-27T08:27:50.000Z</time></trkpt><trkpt lon="5.432334" lat="51.146205"><ele>50.6</ele><time>2022-03-27T08:27:51.000Z</time></trkpt><trkpt lon="5.432238" lat="51.146161"><ele>50.6</ele><time>2022-03-27T08:27:52.000Z</time></trkpt><trkpt lon="5.432143" lat="51.146116"><ele>50.6</ele><time>2022-03-27T08:27:53.000Z</time></trkpt><trkpt lon="5.432055" lat="51.146075"><ele>50.6</ele><time>2022-03-27T08:27:54.000Z</time></trkpt><trkpt lon="5.431968" lat="51.146029"><ele>50.6</ele><time>2022-03-27T08:27:55.000Z</time></trkpt><trkpt lon="5.431883" lat="51.145987"><ele>50.8</ele><time>2022-03-27T08:27:56.000Z</time></trkpt><trkpt lon="5.431801" lat="51.145945"><ele>50.6</ele><time>2022-03-27T08:27:57.000Z</time></trkpt><trkpt lon="5.431722" lat="51.145896"><ele>50.8</ele><time>2022-03-27T08:27:58.000Z</time></trkpt><trkpt lon="5.431648" lat="51.14585"><ele>50.8</ele><time>2022-03-27T08:27:59.000Z</time></trkpt><trkpt lon="5.431574" lat="51.1458"><ele>50.8</ele><time>2022-03-27T08:28:00.000Z</time></trkpt><trkpt lon="5.431495" lat="51.14575"><ele>50.6</ele><time>2022-03-27T08:28:01.000Z</time></trkpt><trkpt lon="5.431422" lat="51.145698"><ele>50.6</ele><time>2022-03-27T08:28:02.000Z</time></trkpt><trkpt lon="5.431355" lat="51.145651"><ele>50.8</ele><time>2022-03-27T08:28:03.000Z</time></trkpt><trkpt lon="5.431279" lat="51.145595"><ele>50.8</ele><time>2022-03-27T08:28:04.000Z</time></trkpt><trkpt lon="5.431207" lat="51.145541"><ele>51</ele><time>2022-03-27T08:28:05.000Z</time></trkpt><trkpt lon="5.431136" lat="51.145488"><ele>51</ele><time>2022-03-27T08:28:06.000Z</time></trkpt><trkpt lon="5.431062" lat="51.145438"><ele>51.2</ele><time>2022-03-27T08:28:07.000Z</time></trkpt><trkpt lon="5.430991" lat="51.145389"><ele>51.2</ele><time>2022-03-27T08:28:08.000Z</time></trkpt><trkpt lon="5.430922" lat="51.145342"><ele>51.4</ele><time>2022-03-27T08:28:09.000Z</time></trkpt><trkpt lon="5.430854" lat="51.145293"><ele>51.6</ele><time>2022-03-27T08:28:10.000Z</time></trkpt><trkpt lon="5.430786" lat="51.145244"><ele>51.6</ele><time>2022-03-27T08:28:11.000Z</time></trkpt><trkpt lon="5.430714" lat="51.145194"><ele>51.8</ele><time>2022-03-27T08:28:12.000Z</time></trkpt><trkpt lon="5.430644" lat="51.145144"><ele>51.8</ele><time>2022-03-27T08:28:13.000Z</time></trkpt><trkpt lon="5.430574" lat="51.145095"><ele>52</ele><time>2022-03-27T08:28:14.000Z</time></trkpt><trkpt lon="5.430504" lat="51.145042"><ele>52</ele><time>2022-03-27T08:28:15.000Z</time></trkpt><trkpt lon="5.43044" lat="51.144988"><ele>52.2</ele><time>2022-03-27T08:28:16.000Z</time></trkpt><trkpt lon="5.43038" lat="51.144931"><ele>52.2</ele><time>2022-03-27T08:28:17.000Z</time></trkpt><trkpt lon="5.430323" lat="51.144866"><ele>52.4</ele><time>2022-03-27T08:28:18.000Z</time></trkpt><trkpt lon="5.430273" lat="51.144809"><ele>52.4</ele><time>2022-03-27T08:28:19.000Z</time></trkpt><trkpt lon="5.43023" lat="51.144749"><ele>52.6</ele><time>2022-03-27T08:28:20.000Z</time></trkpt><trkpt lon="5.430192" lat="51.144684"><ele>52.8</ele><time>2022-03-27T08:28:21.000Z</time></trkpt><trkpt lon="5.43016" lat="51.144618"><ele>53</ele><time>2022-03-27T08:28:22.000Z</time></trkpt><trkpt lon="5.430133" lat="51.14455"><ele>53</ele><time>2022-03-27T08:28:23.000Z</time></trkpt><trkpt lon="5.430113" lat="51.144485"><ele>53</ele><time>2022-03-27T08:28:24.000Z</time></trkpt><trkpt lon="5.430097" lat="51.144416"><ele>52.8</ele><time>2022-03-27T08:28:25.000Z</time></trkpt><trkpt lon="5.430081" lat="51.144348"><ele>52.8</ele><time>2022-03-27T08:28:26.000Z</time></trkpt><trkpt lon="5.430069" lat="51.144283"><ele>52.8</ele><time>2022-03-27T08:28:27.000Z</time></trkpt><trkpt lon="5.430064" lat="51.144211"><ele>52.8</ele><time>2022-03-27T08:28:28.000Z</time></trkpt><trkpt lon="5.430057" lat="51.144142"><ele>52.8</ele><time>2022-03-27T08:28:29.000Z</time></trkpt><trkpt lon="5.430049" lat="51.144073"><ele>52.8</ele><time>2022-03-27T08:28:30.000Z</time></trkpt><trkpt lon="5.430039" lat="51.143997"><ele>52.6</ele><time>2022-03-27T08:28:31.000Z</time></trkpt><trkpt lon="5.430032" lat="51.143925"><ele>52.4</ele><time>2022-03-27T08:28:32.000Z</time></trkpt><trkpt lon="5.430022" lat="51.143848"><ele>52.2</ele><time>2022-03-27T08:28:33.000Z</time></trkpt><trkpt lon="5.430012" lat="51.143772"><ele>52.2</ele><time>2022-03-27T08:28:34.000Z</time></trkpt><trkpt lon="5.430005" lat="51.143699"><ele>52</ele><time>2022-03-27T08:28:35.000Z</time></trkpt><trkpt lon="5.429996" lat="51.143624"><ele>52</ele><time>2022-03-27T08:28:36.000Z</time></trkpt><trkpt lon="5.429987" lat="51.143551"><ele>52</ele><time>2022-03-27T08:28:37.000Z</time></trkpt><trkpt lon="5.429982" lat="51.143475"><ele>52</ele><time>2022-03-27T08:28:38.000Z</time></trkpt><trkpt lon="5.429977" lat="51.143398"><ele>51.8</ele><time>2022-03-27T08:28:39.000Z</time></trkpt><trkpt lon="5.42997" lat="51.143322"><ele>51.8</ele><time>2022-03-27T08:28:40.000Z</time></trkpt><trkpt lon="5.429965" lat="51.143246"><ele>51.8</ele><time>2022-03-27T08:28:41.000Z</time></trkpt><trkpt lon="5.42996" lat="51.143173"><ele>51.8</ele><time>2022-03-27T08:28:42.000Z</time></trkpt><trkpt lon="5.429955" lat="51.143097"><ele>51.6</ele><time>2022-03-27T08:28:43.000Z</time></trkpt><trkpt lon="5.429949" lat="51.143024"><ele>51.4</ele><time>2022-03-27T08:28:44.000Z</time></trkpt><trkpt lon="5.429941" lat="51.142953"><ele>51.4</ele><time>2022-03-27T08:28:45.000Z</time></trkpt><trkpt lon="5.429932" lat="51.142878"><ele>51.4</ele><time>2022-03-27T08:28:46.000Z</time></trkpt><trkpt lon="5.429922" lat="51.142803"><ele>51.4</ele><time>2022-03-27T08:28:47.000Z</time></trkpt><trkpt lon="5.429911" lat="51.142731"><ele>51.4</ele><time>2022-03-27T08:28:48.000Z</time></trkpt><trkpt lon="5.429899" lat="51.142658"><ele>51.4</ele><time>2022-03-27T08:28:49.000Z</time></trkpt><trkpt lon="5.429886" lat="51.14259"><ele>51.4</ele><time>2022-03-27T08:28:50.000Z</time></trkpt><trkpt lon="5.429874" lat="51.142518"><ele>51.6</ele><time>2022-03-27T08:28:51.000Z</time></trkpt><trkpt lon="5.429862" lat="51.142448"><ele>51.6</ele><time>2022-03-27T08:28:52.000Z</time></trkpt><trkpt lon="5.429854" lat="51.142379"><ele>51.8</ele><time>2022-03-27T08:28:53.000Z</time></trkpt><trkpt lon="5.429853" lat="51.142311"><ele>51.8</ele><time>2022-03-27T08:28:54.000Z</time></trkpt><trkpt lon="5.42986" lat="51.142238"><ele>51.6</ele><time>2022-03-27T08:28:55.000Z</time></trkpt><trkpt lon="5.429872" lat="51.142171"><ele>51.6</ele><time>2022-03-27T08:28:56.000Z</time></trkpt><trkpt lon="5.429889" lat="51.142102"><ele>51.6</ele><time>2022-03-27T08:28:57.000Z</time></trkpt><trkpt lon="5.429909" lat="51.142033"><ele>51.6</ele><time>2022-03-27T08:28:58.000Z</time></trkpt><trkpt lon="5.429934" lat="51.141964"><ele>51.8</ele><time>2022-03-27T08:28:59.000Z</time></trkpt><trkpt lon="5.42996" lat="51.141895"><ele>51.8</ele><time>2022-03-27T08:29:00.000Z</time></trkpt><trkpt lon="5.429987" lat="51.14183"><ele>52</ele><time>2022-03-27T08:29:01.000Z</time></trkpt><trkpt lon="5.430012" lat="51.141765"><ele>52</ele><time>2022-03-27T08:29:02.000Z</time></trkpt><trkpt lon="5.430039" lat="51.141696"><ele>52</ele><time>2022-03-27T08:29:03.000Z</time></trkpt><trkpt lon="5.430069" lat="51.141631"><ele>52</ele><time>2022-03-27T08:29:04.000Z</time></trkpt><trkpt lon="5.430098" lat="51.141567"><ele>52</ele><time>2022-03-27T08:29:05.000Z</time></trkpt><trkpt lon="5.430128" lat="51.141502"><ele>52</ele><time>2022-03-27T08:29:06.000Z</time></trkpt><trkpt lon="5.430162" lat="51.141437"><ele>52.2</ele><time>2022-03-27T08:29:07.000Z</time></trkpt><trkpt lon="5.430196" lat="51.141384"><ele>52.2</ele><time>2022-03-27T08:29:08.000Z</time></trkpt><trkpt lon="5.430237" lat="51.141318"><ele>52.4</ele><time>2022-03-27T08:29:09.000Z</time></trkpt><trkpt lon="5.43027" lat="51.141261"><ele>52.2</ele><time>2022-03-27T08:29:10.000Z</time></trkpt><trkpt lon="5.430297" lat="51.1412"><ele>52.4</ele><time>2022-03-27T08:29:11.000Z</time></trkpt><trkpt lon="5.430328" lat="51.141143"><ele>52.4</ele><time>2022-03-27T08:29:12.000Z</time></trkpt><trkpt lon="5.430363" lat="51.141079"><ele>52.2</ele><time>2022-03-27T08:29:13.000Z</time></trkpt><trkpt lon="5.430398" lat="51.141013"><ele>52.4</ele><time>2022-03-27T08:29:14.000Z</time></trkpt><trkpt lon="5.430433" lat="51.140952"><ele>52.4</ele><time>2022-03-27T08:29:15.000Z</time></trkpt><trkpt lon="5.43047" lat="51.140888"><ele>52.4</ele><time>2022-03-27T08:29:16.000Z</time></trkpt><trkpt lon="5.430506" lat="51.140819"><ele>52.4</ele><time>2022-03-27T08:29:17.000Z</time></trkpt><trkpt lon="5.430545" lat="51.14075"><ele>52.6</ele><time>2022-03-27T08:29:18.000Z</time></trkpt><trkpt lon="5.430579" lat="51.140688"><ele>52.6</ele><time>2022-03-27T08:29:19.000Z</time></trkpt><trkpt lon="5.430612" lat="51.140617"><ele>52.6</ele><time>2022-03-27T08:29:20.000Z</time></trkpt><trkpt lon="5.43064" lat="51.14055"><ele>52.4</ele><time>2022-03-27T08:29:21.000Z</time></trkpt><trkpt lon="5.430673" lat="51.140476"><ele>52.4</ele><time>2022-03-27T08:29:22.000Z</time></trkpt><trkpt lon="5.430704" lat="51.140411"><ele>52.4</ele><time>2022-03-27T08:29:23.000Z</time></trkpt><trkpt lon="5.430729" lat="51.140346"><ele>52.6</ele><time>2022-03-27T08:29:24.000Z</time></trkpt><trkpt lon="5.430755" lat="51.140277"><ele>52.6</ele><time>2022-03-27T08:29:25.000Z</time></trkpt><trkpt lon="5.430787" lat="51.140209"><ele>52.6</ele><time>2022-03-27T08:29:26.000Z</time></trkpt><trkpt lon="5.43082" lat="51.14014"><ele>52.6</ele><time>2022-03-27T08:29:27.000Z</time></trkpt><trkpt lon="5.430858" lat="51.140075"><ele>52.6</ele><time>2022-03-27T08:29:28.000Z</time></trkpt><trkpt lon="5.430904" lat="51.140011"><ele>52.6</ele><time>2022-03-27T08:29:29.000Z</time></trkpt><trkpt lon="5.430956" lat="51.139947"><ele>52.6</ele><time>2022-03-27T08:29:30.000Z</time></trkpt><trkpt lon="5.431016" lat="51.139888"><ele>52.6</ele><time>2022-03-27T08:29:31.000Z</time></trkpt><trkpt lon="5.431078" lat="51.139834"><ele>52.6</ele><time>2022-03-27T08:29:32.000Z</time></trkpt><trkpt lon="5.431148" lat="51.139784"><ele>52.4</ele><time>2022-03-27T08:29:33.000Z</time></trkpt><trkpt lon="5.431223" lat="51.139735"><ele>52.4</ele><time>2022-03-27T08:29:34.000Z</time></trkpt><trkpt lon="5.431302" lat="51.139686"><ele>52.2</ele><time>2022-03-27T08:29:35.000Z</time></trkpt><trkpt lon="5.431384" lat="51.139639"><ele>52.2</ele><time>2022-03-27T08:29:36.000Z</time></trkpt><trkpt lon="5.431467" lat="51.139594"><ele>52.2</ele><time>2022-03-27T08:29:37.000Z</time></trkpt><trkpt lon="5.431547" lat="51.139549"><ele>52.2</ele><time>2022-03-27T08:29:38.000Z</time></trkpt><trkpt lon="5.43164" lat="51.139505"><ele>52.2</ele><time>2022-03-27T08:29:39.000Z</time></trkpt><trkpt lon="5.43173" lat="51.139464"><ele>52</ele><time>2022-03-27T08:29:40.000Z</time></trkpt><trkpt lon="5.431825" lat="51.139425"><ele>52</ele><time>2022-03-27T08:29:41.000Z</time></trkpt><trkpt lon="5.431918" lat="51.139388"><ele>52</ele><time>2022-03-27T08:29:42.000Z</time></trkpt><trkpt lon="5.432014" lat="51.139353"><ele>52</ele><time>2022-03-27T08:29:43.000Z</time></trkpt><trkpt lon="5.432103" lat="51.139319"><ele>52</ele><time>2022-03-27T08:29:44.000Z</time></trkpt><trkpt lon="5.432195" lat="51.139281"><ele>52.2</ele><time>2022-03-27T08:29:45.000Z</time></trkpt><trkpt lon="5.432285" lat="51.139242"><ele>52.2</ele><time>2022-03-27T08:29:46.000Z</time></trkpt><trkpt lon="5.432374" lat="51.139208"><ele>52.2</ele><time>2022-03-27T08:29:47.000Z</time></trkpt><trkpt lon="5.432458" lat="51.13917"><ele>52.4</ele><time>2022-03-27T08:29:48.000Z</time></trkpt><trkpt lon="5.432541" lat="51.139132"><ele>52.6</ele><time>2022-03-27T08:29:49.000Z</time></trkpt><trkpt lon="5.432624" lat="51.13909"><ele>52.8</ele><time>2022-03-27T08:29:50.000Z</time></trkpt><trkpt lon="5.432706" lat="51.139048"><ele>52.8</ele><time>2022-03-27T08:29:51.000Z</time></trkpt><trkpt lon="5.432789" lat="51.139002"><ele>52.8</ele><time>2022-03-27T08:29:52.000Z</time></trkpt><trkpt lon="5.432872" lat="51.13896"><ele>53</ele><time>2022-03-27T08:29:53.000Z</time></trkpt><trkpt lon="5.432952" lat="51.138915"><ele>53.2</ele><time>2022-03-27T08:29:54.000Z</time></trkpt><trkpt lon="5.433029" lat="51.138873"><ele>53.2</ele><time>2022-03-27T08:29:55.000Z</time></trkpt><trkpt lon="5.433109" lat="51.13883"><ele>53.2</ele><time>2022-03-27T08:29:56.000Z</time></trkpt><trkpt lon="5.433191" lat="51.138785"><ele>53.4</ele><time>2022-03-27T08:29:57.000Z</time></trkpt><trkpt lon="5.433273" lat="51.138739"><ele>53.4</ele><time>2022-03-27T08:29:58.000Z</time></trkpt><trkpt lon="5.433355" lat="51.138697"><ele>53.4</ele><time>2022-03-27T08:29:59.000Z</time></trkpt><trkpt lon="5.43344" lat="51.138655"><ele>53.2</ele><time>2022-03-27T08:30:00.000Z</time></trkpt><trkpt lon="5.433526" lat="51.138614"><ele>53.2</ele><time>2022-03-27T08:30:01.000Z</time></trkpt><trkpt lon="5.433612" lat="51.138575"><ele>53.4</ele><time>2022-03-27T08:30:02.000Z</time></trkpt><trkpt lon="5.433693" lat="51.138533"><ele>53.4</ele><time>2022-03-27T08:30:03.000Z</time></trkpt><trkpt lon="5.43376" lat="51.138482"><ele>53.6</ele><time>2022-03-27T08:30:04.000Z</time></trkpt><trkpt lon="5.43382" lat="51.138423"><ele>53.8</ele><time>2022-03-27T08:30:05.000Z</time></trkpt><trkpt lon="5.433867" lat="51.138362"><ele>54</ele><time>2022-03-27T08:30:06.000Z</time></trkpt><trkpt lon="5.433913" lat="51.138298"><ele>54</ele><time>2022-03-27T08:30:07.000Z</time></trkpt><trkpt lon="5.433952" lat="51.138241"><ele>54.2</ele><time>2022-03-27T08:30:08.000Z</time></trkpt><trkpt lon="5.433999" lat="51.138172"><ele>54.2</ele><time>2022-03-27T08:30:09.000Z</time></trkpt><trkpt lon="5.434042" lat="51.138106"><ele>54.2</ele><time>2022-03-27T08:30:10.000Z</time></trkpt><trkpt lon="5.434085" lat="51.138049"><ele>54.2</ele><time>2022-03-27T08:30:11.000Z</time></trkpt><trkpt lon="5.434128" lat="51.137989"><ele>54</ele><time>2022-03-27T08:30:12.000Z</time></trkpt><trkpt lon="5.434173" lat="51.137927"><ele>54.2</ele><time>2022-03-27T08:30:13.000Z</time></trkpt><trkpt lon="5.434219" lat="51.137863"><ele>54.2</ele><time>2022-03-27T08:30:14.000Z</time></trkpt><trkpt lon="5.434263" lat="51.137801"><ele>54.2</ele><time>2022-03-27T08:30:15.000Z</time></trkpt><trkpt lon="5.434307" lat="51.137737"><ele>54.2</ele><time>2022-03-27T08:30:16.000Z</time></trkpt><trkpt lon="5.434352" lat="51.137676"><ele>54.2</ele><time>2022-03-27T08:30:17.000Z</time></trkpt><trkpt lon="5.434396" lat="51.137615"><ele>54.2</ele><time>2022-03-27T08:30:18.000Z</time></trkpt><trkpt lon="5.434441" lat="51.13755"><ele>54.2</ele><time>2022-03-27T08:30:19.000Z</time></trkpt><trkpt lon="5.434486" lat="51.137485"><ele>54.2</ele><time>2022-03-27T08:30:20.000Z</time></trkpt><trkpt lon="5.434529" lat="51.137421"><ele>54.2</ele><time>2022-03-27T08:30:21.000Z</time></trkpt><trkpt lon="5.434574" lat="51.137356"><ele>54.2</ele><time>2022-03-27T08:30:22.000Z</time></trkpt><trkpt lon="5.434619" lat="51.137294"><ele>54.4</ele><time>2022-03-27T08:30:23.000Z</time></trkpt><trkpt lon="5.434664" lat="51.13723"><ele>54.4</ele><time>2022-03-27T08:30:24.000Z</time></trkpt><trkpt lon="5.434711" lat="51.137168"><ele>54.4</ele><time>2022-03-27T08:30:25.000Z</time></trkpt><trkpt lon="5.434758" lat="51.137104"><ele>54.4</ele><time>2022-03-27T08:30:26.000Z</time></trkpt><trkpt lon="5.434805" lat="51.137042"><ele>54.6</ele><time>2022-03-27T08:30:27.000Z</time></trkpt><trkpt lon="5.434851" lat="51.136981"><ele>54.6</ele><time>2022-03-27T08:30:28.000Z</time></trkpt><trkpt lon="5.434896" lat="51.136917"><ele>54.6</ele><time>2022-03-27T08:30:29.000Z</time></trkpt><trkpt lon="5.434941" lat="51.136856"><ele>54.6</ele><time>2022-03-27T08:30:30.000Z</time></trkpt><trkpt lon="5.434985" lat="51.136794"><ele>54.8</ele><time>2022-03-27T08:30:31.000Z</time></trkpt><trkpt lon="5.435029" lat="51.136734"><ele>54.8</ele><time>2022-03-27T08:30:32.000Z</time></trkpt><trkpt lon="5.435076" lat="51.136669"><ele>54.8</ele><time>2022-03-27T08:30:33.000Z</time></trkpt><trkpt lon="5.435119" lat="51.136608"><ele>54.8</ele><time>2022-03-27T08:30:34.000Z</time></trkpt><trkpt lon="5.435164" lat="51.136547"><ele>54.8</ele><time>2022-03-27T08:30:35.000Z</time></trkpt><trkpt lon="5.435209" lat="51.136483"><ele>55</ele><time>2022-03-27T08:30:36.000Z</time></trkpt><trkpt lon="5.435254" lat="51.136417"><ele>55</ele><time>2022-03-27T08:30:37.000Z</time></trkpt><trkpt lon="5.435299" lat="51.136356"><ele>55</ele><time>2022-03-27T08:30:38.000Z</time></trkpt><trkpt lon="5.435343" lat="51.13629"><ele>55</ele><time>2022-03-27T08:30:39.000Z</time></trkpt><trkpt lon="5.43539" lat="51.136226"><ele>55</ele><time>2022-03-27T08:30:40.000Z</time></trkpt><trkpt lon="5.435439" lat="51.136164"><ele>55</ele><time>2022-03-27T08:30:41.000Z</time></trkpt><trkpt lon="5.435489" lat="51.1361"><ele>55</ele><time>2022-03-27T08:30:42.000Z</time></trkpt><trkpt lon="5.435538" lat="51.136039"><ele>55</ele><time>2022-03-27T08:30:43.000Z</time></trkpt><trkpt lon="5.435583" lat="51.135978"><ele>55</ele><time>2022-03-27T08:30:44.000Z</time></trkpt><trkpt lon="5.435629" lat="51.135918"><ele>55</ele><time>2022-03-27T08:30:45.000Z</time></trkpt><trkpt lon="5.435677" lat="51.135852"><ele>55</ele><time>2022-03-27T08:30:46.000Z</time></trkpt><trkpt lon="5.435723" lat="51.135789"><ele>54.8</ele><time>2022-03-27T08:30:47.000Z</time></trkpt><trkpt lon="5.435771" lat="51.135723"><ele>54.8</ele><time>2022-03-27T08:30:48.000Z</time></trkpt><trkpt lon="5.435813" lat="51.135661"><ele>54.6</ele><time>2022-03-27T08:30:49.000Z</time></trkpt><trkpt lon="5.435849" lat="51.135594"><ele>54.6</ele><time>2022-03-27T08:30:50.000Z</time></trkpt><trkpt lon="5.435881" lat="51.135526"><ele>54.6</ele><time>2022-03-27T08:30:51.000Z</time></trkpt><trkpt lon="5.435909" lat="51.13546"><ele>54.6</ele><time>2022-03-27T08:30:52.000Z</time></trkpt><trkpt lon="5.435934" lat="51.135391"><ele>54.6</ele><time>2022-03-27T08:30:53.000Z</time></trkpt><trkpt lon="5.43596" lat="51.135322"><ele>54.6</ele><time>2022-03-27T08:30:54.000Z</time></trkpt><trkpt lon="5.435984" lat="51.135253"><ele>54.4</ele><time>2022-03-27T08:30:55.000Z</time></trkpt><trkpt lon="5.436004" lat="51.135192"><ele>54.4</ele><time>2022-03-27T08:30:56.000Z</time></trkpt><trkpt lon="5.436021" lat="51.135131"><ele>54.4</ele><time>2022-03-27T08:30:57.000Z</time></trkpt><trkpt lon="5.436039" lat="51.135068"><ele>54.2</ele><time>2022-03-27T08:30:58.000Z</time></trkpt><trkpt lon="5.436052" lat="51.135003"><ele>54.2</ele><time>2022-03-27T08:30:59.000Z</time></trkpt><trkpt lon="5.436065" lat="51.134937"><ele>54.2</ele><time>2022-03-27T08:31:00.000Z</time></trkpt><trkpt lon="5.436078" lat="51.134876"><ele>54.2</ele><time>2022-03-27T08:31:01.000Z</time></trkpt><trkpt lon="5.436094" lat="51.134815"><ele>54</ele><time>2022-03-27T08:31:02.000Z</time></trkpt><trkpt lon="5.43611" lat="51.134751"><ele>54</ele><time>2022-03-27T08:31:03.000Z</time></trkpt><trkpt lon="5.436123" lat="51.134689"><ele>53.8</ele><time>2022-03-27T08:31:04.000Z</time></trkpt><trkpt lon="5.436134" lat="51.134635"><ele>53.8</ele><time>2022-03-27T08:31:05.000Z</time></trkpt><trkpt lon="5.436144" lat="51.134589"><ele>53.6</ele><time>2022-03-27T08:31:06.000Z</time></trkpt><trkpt lon="5.436148" lat="51.134547"><ele>53.4</ele><time>2022-03-27T08:31:07.000Z</time></trkpt><trkpt lon="5.436147" lat="51.134506"><ele>53.4</ele><time>2022-03-27T08:31:08.000Z</time></trkpt><trkpt lon="5.436132" lat="51.134474"><ele>53.2</ele><time>2022-03-27T08:31:09.000Z</time></trkpt><trkpt lon="5.436106" lat="51.134443"><ele>53</ele><time>2022-03-27T08:31:10.000Z</time></trkpt><trkpt lon="5.436066" lat="51.134431"><ele>52.8</ele><time>2022-03-27T08:31:11.000Z</time></trkpt><trkpt lon="5.436005" lat="51.13443"><ele>52.6</ele><time>2022-03-27T08:31:12.000Z</time></trkpt><trkpt lon="5.435928" lat="51.13443"><ele>52.6</ele><time>2022-03-27T08:31:13.000Z</time></trkpt><trkpt lon="5.43584" lat="51.134437"><ele>52.4</ele><time>2022-03-27T08:31:14.000Z</time></trkpt><trkpt lon="5.435739" lat="51.134445"><ele>52.2</ele><time>2022-03-27T08:31:15.000Z</time></trkpt><trkpt lon="5.435624" lat="51.134445"><ele>52</ele><time>2022-03-27T08:31:16.000Z</time></trkpt><trkpt lon="5.435505" lat="51.134452"><ele>51.8</ele><time>2022-03-27T08:31:17.000Z</time></trkpt><trkpt lon="5.435381" lat="51.134456"><ele>51.8</ele><time>2022-03-27T08:31:18.000Z</time></trkpt><trkpt lon="5.435259" lat="51.134457"><ele>51.6</ele><time>2022-03-27T08:31:19.000Z</time></trkpt><trkpt lon="5.435136" lat="51.134457"><ele>51.6</ele><time>2022-03-27T08:31:20.000Z</time></trkpt><trkpt lon="5.435008" lat="51.134457"><ele>51.4</ele><time>2022-03-27T08:31:21.000Z</time></trkpt><trkpt lon="5.434886" lat="51.134446"><ele>51.4</ele><time>2022-03-27T08:31:22.000Z</time></trkpt><trkpt lon="5.434767" lat="51.134438"><ele>51.2</ele><time>2022-03-27T08:31:23.000Z</time></trkpt><trkpt lon="5.434647" lat="51.134434"><ele>51.2</ele><time>2022-03-27T08:31:24.000Z</time></trkpt><trkpt lon="5.434535" lat="51.13443"><ele>51.2</ele><time>2022-03-27T08:31:25.000Z</time></trkpt><trkpt lon="5.434424" lat="51.134419"><ele>51</ele><time>2022-03-27T08:31:26.000Z</time></trkpt><trkpt lon="5.434313" lat="51.134404"><ele>51</ele><time>2022-03-27T08:31:27.000Z</time></trkpt><trkpt lon="5.434208" lat="51.134392"><ele>50.8</ele><time>2022-03-27T08:31:28.000Z</time></trkpt><trkpt lon="5.4341" lat="51.134377"><ele>50.8</ele><time>2022-03-27T08:31:29.000Z</time></trkpt><trkpt lon="5.433987" lat="51.134366"><ele>50.6</ele><time>2022-03-27T08:31:30.000Z</time></trkpt><trkpt lon="5.433869" lat="51.134351"><ele>50.4</ele><time>2022-03-27T08:31:31.000Z</time></trkpt><trkpt lon="5.433754" lat="51.134332"><ele>50.2</ele><time>2022-03-27T08:31:32.000Z</time></trkpt><trkpt lon="5.433637" lat="51.134313"><ele>50.2</ele><time>2022-03-27T08:31:33.000Z</time></trkpt><trkpt lon="5.433524" lat="51.134294"><ele>50</ele><time>2022-03-27T08:31:34.000Z</time></trkpt><trkpt lon="5.433411" lat="51.134271"><ele>50</ele><time>2022-03-27T08:31:35.000Z</time></trkpt><trkpt lon="5.433296" lat="51.134248"><ele>50</ele><time>2022-03-27T08:31:36.000Z</time></trkpt><trkpt lon="5.433185" lat="51.134225"><ele>50</ele><time>2022-03-27T08:31:37.000Z</time></trkpt><trkpt lon="5.433073" lat="51.134203"><ele>49.8</ele><time>2022-03-27T08:31:38.000Z</time></trkpt><trkpt lon="5.432959" lat="51.134176"><ele>50</ele><time>2022-03-27T08:31:39.000Z</time></trkpt><trkpt lon="5.432855" lat="51.134149"><ele>50</ele><time>2022-03-27T08:31:40.000Z</time></trkpt><trkpt lon="5.43275" lat="51.134119"><ele>50</ele><time>2022-03-27T08:31:41.000Z</time></trkpt><trkpt lon="5.432648" lat="51.134092"><ele>50</ele><time>2022-03-27T08:31:42.000Z</time></trkpt><trkpt lon="5.432544" lat="51.134069"><ele>50</ele><time>2022-03-27T08:31:43.000Z</time></trkpt><trkpt lon="5.432444" lat="51.134046"><ele>50</ele><time>2022-03-27T08:31:44.000Z</time></trkpt><trkpt lon="5.432343" lat="51.134023"><ele>50</ele><time>2022-03-27T08:31:45.000Z</time></trkpt><trkpt lon="5.432242" lat="51.134004"><ele>50</ele><time>2022-03-27T08:31:46.000Z</time></trkpt><trkpt lon="5.432136" lat="51.133988"><ele>50.2</ele><time>2022-03-27T08:31:47.000Z</time></trkpt><trkpt lon="5.432027" lat="51.133973"><ele>50.2</ele><time>2022-03-27T08:31:48.000Z</time></trkpt><trkpt lon="5.431917" lat="51.133961"><ele>50.4</ele><time>2022-03-27T08:31:49.000Z</time></trkpt><trkpt lon="5.431805" lat="51.133946"><ele>50.6</ele><time>2022-03-27T08:31:50.000Z</time></trkpt><trkpt lon="5.431696" lat="51.133935"><ele>50.6</ele><time>2022-03-27T08:31:51.000Z</time></trkpt><trkpt lon="5.431581" lat="51.133923"><ele>50.6</ele><time>2022-03-27T08:31:52.000Z</time></trkpt><trkpt lon="5.431473" lat="51.133915"><ele>50.8</ele><time>2022-03-27T08:31:53.000Z</time></trkpt><trkpt lon="5.431362" lat="51.133911"><ele>50.8</ele><time>2022-03-27T08:31:54.000Z</time></trkpt><trkpt lon="5.431251" lat="51.133904"><ele>51</ele><time>2022-03-27T08:31:55.000Z</time></trkpt><trkpt lon="5.431141" lat="51.1339"><ele>51</ele><time>2022-03-27T08:31:56.000Z</time></trkpt><trkpt lon="5.431029" lat="51.133896"><ele>51</ele><time>2022-03-27T08:31:57.000Z</time></trkpt><trkpt lon="5.430921" lat="51.133892"><ele>51</ele><time>2022-03-27T08:31:58.000Z</time></trkpt><trkpt lon="5.430811" lat="51.133888"><ele>51.2</ele><time>2022-03-27T08:31:59.000Z</time></trkpt><trkpt lon="5.430703" lat="51.133888"><ele>51.2</ele><time>2022-03-27T08:32:00.000Z</time></trkpt><trkpt lon="5.430598" lat="51.133888"><ele>51.2</ele><time>2022-03-27T08:32:01.000Z</time></trkpt><trkpt lon="5.430491" lat="51.133888"><ele>51.2</ele><time>2022-03-27T08:32:02.000Z</time></trkpt><trkpt lon="5.430382" lat="51.133885"><ele>51.2</ele><time>2022-03-27T08:32:03.000Z</time></trkpt><trkpt lon="5.430275" lat="51.133884"><ele>51.2</ele><time>2022-03-27T08:32:04.000Z</time></trkpt><trkpt lon="5.430166" lat="51.133884"><ele>51.2</ele><time>2022-03-27T08:32:05.000Z</time></trkpt><trkpt lon="5.430058" lat="51.133884"><ele>51.2</ele><time>2022-03-27T08:32:06.000Z</time></trkpt><trkpt lon="5.42995" lat="51.133884"><ele>51.2</ele><time>2022-03-27T08:32:07.000Z</time></trkpt><trkpt lon="5.429853" lat="51.133884"><ele>51.4</ele><time>2022-03-27T08:32:08.000Z</time></trkpt><trkpt lon="5.429745" lat="51.133884"><ele>51.4</ele><time>2022-03-27T08:32:09.000Z</time></trkpt><trkpt lon="5.42965" lat="51.133881"><ele>51.6</ele><time>2022-03-27T08:32:10.000Z</time></trkpt><trkpt lon="5.429556" lat="51.133881"><ele>51.8</ele><time>2022-03-27T08:32:11.000Z</time></trkpt><trkpt lon="5.429466" lat="51.133877"><ele>51.8</ele><time>2022-03-27T08:32:12.000Z</time></trkpt><trkpt lon="5.429379" lat="51.133877"><ele>51.8</ele><time>2022-03-27T08:32:13.000Z</time></trkpt><trkpt lon="5.429288" lat="51.133873"><ele>52</ele><time>2022-03-27T08:32:14.000Z</time></trkpt><trkpt lon="5.429193" lat="51.133869"><ele>52</ele><time>2022-03-27T08:32:15.000Z</time></trkpt><trkpt lon="5.429093" lat="51.133869"><ele>52.2</ele><time>2022-03-27T08:32:16.000Z</time></trkpt><trkpt lon="5.428995" lat="51.133873"><ele>52.4</ele><time>2022-03-27T08:32:17.000Z</time></trkpt><trkpt lon="5.428897" lat="51.133873"><ele>52.4</ele><time>2022-03-27T08:32:18.000Z</time></trkpt><trkpt lon="5.428806" lat="51.133862"><ele>52.6</ele><time>2022-03-27T08:32:19.000Z</time></trkpt><trkpt lon="5.428723" lat="51.133843"><ele>52.8</ele><time>2022-03-27T08:32:20.000Z</time></trkpt><trkpt lon="5.428662" lat="51.133811"><ele>53</ele><time>2022-03-27T08:32:21.000Z</time></trkpt><trkpt lon="5.428622" lat="51.133765"><ele>53</ele><time>2022-03-27T08:32:22.000Z</time></trkpt><trkpt lon="5.42861" lat="51.133709"><ele>53.2</ele><time>2022-03-27T08:32:23.000Z</time></trkpt><trkpt lon="5.42861" lat="51.133647"><ele>53.2</ele><time>2022-03-27T08:32:24.000Z</time></trkpt><trkpt lon="5.428615" lat="51.133589"><ele>53.2</ele><time>2022-03-27T08:32:25.000Z</time></trkpt><trkpt lon="5.428621" lat="51.133527"><ele>53.2</ele><time>2022-03-27T08:32:26.000Z</time></trkpt><trkpt lon="5.428633" lat="51.133468"><ele>53.4</ele><time>2022-03-27T08:32:27.000Z</time></trkpt><trkpt lon="5.428646" lat="51.13341"><ele>53.4</ele><time>2022-03-27T08:32:28.000Z</time></trkpt><trkpt lon="5.428658" lat="51.133354"><ele>53.4</ele><time>2022-03-27T08:32:29.000Z</time></trkpt><trkpt lon="5.428676" lat="51.133296"><ele>53.4</ele><time>2022-03-27T08:32:30.000Z</time></trkpt><trkpt lon="5.428692" lat="51.133243"><ele>53.6</ele><time>2022-03-27T08:32:31.000Z</time></trkpt><trkpt lon="5.428708" lat="51.133185"><ele>53.6</ele><time>2022-03-27T08:32:32.000Z</time></trkpt><trkpt lon="5.428727" lat="51.133129"><ele>53.6</ele><time>2022-03-27T08:32:33.000Z</time></trkpt><trkpt lon="5.428746" lat="51.133071"><ele>53.6</ele><time>2022-03-27T08:32:34.000Z</time></trkpt><trkpt lon="5.428767" lat="51.13301"><ele>53.6</ele><time>2022-03-27T08:32:35.000Z</time></trkpt><trkpt lon="5.42879" lat="51.13295"><ele>53.6</ele><time>2022-03-27T08:32:36.000Z</time></trkpt><trkpt lon="5.428816" lat="51.132888"><ele>53.6</ele><time>2022-03-27T08:32:37.000Z</time></trkpt><trkpt lon="5.428839" lat="51.132824"><ele>53.4</ele><time>2022-03-27T08:32:38.000Z</time></trkpt><trkpt lon="5.428863" lat="51.132758"><ele>53.4</ele><time>2022-03-27T08:32:39.000Z</time></trkpt><trkpt lon="5.428886" lat="51.13269"><ele>53.4</ele><time>2022-03-27T08:32:40.000Z</time></trkpt><trkpt lon="5.42891" lat="51.132626"><ele>53.6</ele><time>2022-03-27T08:32:41.000Z</time></trkpt><trkpt lon="5.428935" lat="51.132557"><ele>53.4</ele><time>2022-03-27T08:32:42.000Z</time></trkpt><trkpt lon="5.42896" lat="51.132488"><ele>53.4</ele><time>2022-03-27T08:32:43.000Z</time></trkpt><trkpt lon="5.428987" lat="51.13242"><ele>53.4</ele><time>2022-03-27T08:32:44.000Z</time></trkpt><trkpt lon="5.429014" lat="51.132348"><ele>53.4</ele><time>2022-03-27T08:32:45.000Z</time></trkpt><trkpt lon="5.42904" lat="51.132278"><ele>53.4</ele><time>2022-03-27T08:32:46.000Z</time></trkpt><trkpt lon="5.429067" lat="51.13221"><ele>53.4</ele><time>2022-03-27T08:32:47.000Z</time></trkpt><trkpt lon="5.429095" lat="51.132137"><ele>53.4</ele><time>2022-03-27T08:32:48.000Z</time></trkpt><trkpt lon="5.429122" lat="51.132068"><ele>53.4</ele><time>2022-03-27T08:32:49.000Z</time></trkpt><trkpt lon="5.429147" lat="51.132"><ele>53.2</ele><time>2022-03-27T08:32:50.000Z</time></trkpt><trkpt lon="5.429172" lat="51.131927"><ele>53.2</ele><time>2022-03-27T08:32:51.000Z</time></trkpt><trkpt lon="5.429197" lat="51.131859"><ele>53.2</ele><time>2022-03-27T08:32:52.000Z</time></trkpt><trkpt lon="5.42922" lat="51.131788"><ele>53.2</ele><time>2022-03-27T08:32:53.000Z</time></trkpt><trkpt lon="5.429247" lat="51.131717"><ele>53.2</ele><time>2022-03-27T08:32:54.000Z</time></trkpt><trkpt lon="5.42928" lat="51.131652"><ele>53.2</ele><time>2022-03-27T08:32:55.000Z</time></trkpt><trkpt lon="5.429314" lat="51.131585"><ele>53.2</ele><time>2022-03-27T08:32:56.000Z</time></trkpt><trkpt lon="5.429353" lat="51.131523"><ele>53.2</ele><time>2022-03-27T08:32:57.000Z</time></trkpt><trkpt lon="5.429393" lat="51.131461"><ele>53.2</ele><time>2022-03-27T08:32:58.000Z</time></trkpt><trkpt lon="5.429435" lat="51.1314"><ele>53</ele><time>2022-03-27T08:32:59.000Z</time></trkpt><trkpt lon="5.429476" lat="51.131343"><ele>53</ele><time>2022-03-27T08:33:00.000Z</time></trkpt><trkpt lon="5.429515" lat="51.131289"><ele>53</ele><time>2022-03-27T08:33:01.000Z</time></trkpt><trkpt lon="5.42955" lat="51.131232"><ele>53</ele><time>2022-03-27T08:33:02.000Z</time></trkpt><trkpt lon="5.429586" lat="51.131179"><ele>53</ele><time>2022-03-27T08:33:03.000Z</time></trkpt><trkpt lon="5.429617" lat="51.131129"><ele>53.2</ele><time>2022-03-27T08:33:04.000Z</time></trkpt><trkpt lon="5.429644" lat="51.131087"><ele>53.2</ele><time>2022-03-27T08:33:05.000Z</time></trkpt><trkpt lon="5.429669" lat="51.131045"><ele>53.4</ele><time>2022-03-27T08:33:06.000Z</time></trkpt><trkpt lon="5.429704" lat="51.13101"><ele>53.4</ele><time>2022-03-27T08:33:07.000Z</time></trkpt><trkpt lon="5.429754" lat="51.130979"><ele>53.4</ele><time>2022-03-27T08:33:08.000Z</time></trkpt><trkpt lon="5.429818" lat="51.130961"><ele>53.6</ele><time>2022-03-27T08:33:09.000Z</time></trkpt><trkpt lon="5.429906" lat="51.130951"><ele>53.6</ele><time>2022-03-27T08:33:10.000Z</time></trkpt><trkpt lon="5.429996" lat="51.130947"><ele>53.4</ele><time>2022-03-27T08:33:11.000Z</time></trkpt><trkpt lon="5.430091" lat="51.130943"><ele>53.6</ele><time>2022-03-27T08:33:12.000Z</time></trkpt><trkpt lon="5.430193" lat="51.13094"><ele>53.4</ele><time>2022-03-27T08:33:13.000Z</time></trkpt><trkpt lon="5.430295" lat="51.130943"><ele>53.4</ele><time>2022-03-27T08:33:14.000Z</time></trkpt><trkpt lon="5.430397" lat="51.130954"><ele>53.2</ele><time>2022-03-27T08:33:15.000Z</time></trkpt><trkpt lon="5.430495" lat="51.130969"><ele>53</ele><time>2022-03-27T08:33:16.000Z</time></trkpt><trkpt lon="5.430584" lat="51.130988"><ele>53</ele><time>2022-03-27T08:33:17.000Z</time></trkpt><trkpt lon="5.430669" lat="51.131014"><ele>52.8</ele><time>2022-03-27T08:33:18.000Z</time></trkpt><trkpt lon="5.430754" lat="51.131034"><ele>52.8</ele><time>2022-03-27T08:33:19.000Z</time></trkpt><trkpt lon="5.430845" lat="51.131046"><ele>52.6</ele><time>2022-03-27T08:33:20.000Z</time></trkpt><trkpt lon="5.430939" lat="51.131053"><ele>52.4</ele><time>2022-03-27T08:33:21.000Z</time></trkpt><trkpt lon="5.431037" lat="51.131061"><ele>52.4</ele><time>2022-03-27T08:33:22.000Z</time></trkpt><trkpt lon="5.431135" lat="51.131072"><ele>52.4</ele><time>2022-03-27T08:33:23.000Z</time></trkpt><trkpt lon="5.431236" lat="51.131084"><ele>52.4</ele><time>2022-03-27T08:33:24.000Z</time></trkpt><trkpt lon="5.43134" lat="51.131095"><ele>52.4</ele><time>2022-03-27T08:33:25.000Z</time></trkpt><trkpt lon="5.431446" lat="51.131103"><ele>52.2</ele><time>2022-03-27T08:33:26.000Z</time></trkpt><trkpt lon="5.431552" lat="51.131114"><ele>52.2</ele><time>2022-03-27T08:33:27.000Z</time></trkpt><trkpt lon="5.431653" lat="51.131122"><ele>52.2</ele><time>2022-03-27T08:33:28.000Z</time></trkpt><trkpt lon="5.431756" lat="51.131133"><ele>52.2</ele><time>2022-03-27T08:33:29.000Z</time></trkpt><trkpt lon="5.43186" lat="51.131145"><ele>52</ele><time>2022-03-27T08:33:30.000Z</time></trkpt><trkpt lon="5.431961" lat="51.131156"><ele>52</ele><time>2022-03-27T08:33:31.000Z</time></trkpt><trkpt lon="5.432063" lat="51.131168"><ele>52</ele><time>2022-03-27T08:33:32.000Z</time></trkpt><trkpt lon="5.432162" lat="51.131179"><ele>51.8</ele><time>2022-03-27T08:33:33.000Z</time></trkpt><trkpt lon="5.432257" lat="51.131191"><ele>51.8</ele><time>2022-03-27T08:33:34.000Z</time></trkpt><trkpt lon="5.43235" lat="51.131206"><ele>51.8</ele><time>2022-03-27T08:33:35.000Z</time></trkpt><trkpt lon="5.432448" lat="51.131221"><ele>51.6</ele><time>2022-03-27T08:33:36.000Z</time></trkpt><trkpt lon="5.43255" lat="51.131233"><ele>51.6</ele><time>2022-03-27T08:33:37.000Z</time></trkpt><trkpt lon="5.432653" lat="51.131248"><ele>51.6</ele><time>2022-03-27T08:33:38.000Z</time></trkpt><trkpt lon="5.432752" lat="51.131259"><ele>51.6</ele><time>2022-03-27T08:33:39.000Z</time></trkpt><trkpt lon="5.432845" lat="51.131274"><ele>51.8</ele><time>2022-03-27T08:33:40.000Z</time></trkpt><trkpt lon="5.432936" lat="51.13129"><ele>51.8</ele><time>2022-03-27T08:33:41.000Z</time></trkpt><trkpt lon="5.433027" lat="51.131301"><ele>51.8</ele><time>2022-03-27T08:33:42.000Z</time></trkpt><trkpt lon="5.433121" lat="51.131313"><ele>52</ele><time>2022-03-27T08:33:43.000Z</time></trkpt><trkpt lon="5.433215" lat="51.131317"><ele>52.2</ele><time>2022-03-27T08:33:44.000Z</time></trkpt><trkpt lon="5.433301" lat="51.131324"><ele>52.2</ele><time>2022-03-27T08:33:45.000Z</time></trkpt><trkpt lon="5.433377" lat="51.131339"><ele>52.4</ele><time>2022-03-27T08:33:46.000Z</time></trkpt><trkpt lon="5.43345" lat="51.131351"><ele>52.4</ele><time>2022-03-27T08:33:47.000Z</time></trkpt><trkpt lon="5.43352" lat="51.131366"><ele>52.6</ele><time>2022-03-27T08:33:48.000Z</time></trkpt><trkpt lon="5.433579" lat="51.131381"><ele>52.6</ele><time>2022-03-27T08:33:49.000Z</time></trkpt><trkpt lon="5.43363" lat="51.131396"><ele>52.8</ele><time>2022-03-27T08:33:50.000Z</time></trkpt><trkpt lon="5.433679" lat="51.131408"><ele>52.8</ele><time>2022-03-27T08:33:51.000Z</time></trkpt><trkpt lon="5.433721" lat="51.131401"><ele>53</ele><time>2022-03-27T08:33:52.000Z</time></trkpt><trkpt lon="5.433742" lat="51.131376"><ele>53</ele><time>2022-03-27T08:33:53.000Z</time></trkpt><trkpt lon="5.43375" lat="51.131335"><ele>53.2</ele><time>2022-03-27T08:33:54.000Z</time></trkpt><trkpt lon="5.433748" lat="51.131293"><ele>53.2</ele><time>2022-03-27T08:33:55.000Z</time></trkpt><trkpt lon="5.433736" lat="51.131247"><ele>53.4</ele><time>2022-03-27T08:33:56.000Z</time></trkpt><trkpt lon="5.433721" lat="51.131198"><ele>53.4</ele><time>2022-03-27T08:33:57.000Z</time></trkpt><trkpt lon="5.433706" lat="51.131146"><ele>53.4</ele><time>2022-03-27T08:33:58.000Z</time></trkpt><trkpt lon="5.433688" lat="51.131091"><ele>53.2</ele><time>2022-03-27T08:33:59.000Z</time></trkpt><trkpt lon="5.433671" lat="51.131031"><ele>53.4</ele><time>2022-03-27T08:34:00.000Z</time></trkpt><trkpt lon="5.433655" lat="51.130973"><ele>53.4</ele><time>2022-03-27T08:34:01.000Z</time></trkpt><trkpt lon="5.433639" lat="51.130908"><ele>53.4</ele><time>2022-03-27T08:34:02.000Z</time></trkpt><trkpt lon="5.433629" lat="51.130848"><ele>53.4</ele><time>2022-03-27T08:34:03.000Z</time></trkpt><trkpt lon="5.433622" lat="51.130779"><ele>53.6</ele><time>2022-03-27T08:34:04.000Z</time></trkpt><trkpt lon="5.433616" lat="51.130715"><ele>53.6</ele><time>2022-03-27T08:34:05.000Z</time></trkpt><trkpt lon="5.433607" lat="51.130649"><ele>53.6</ele><time>2022-03-27T08:34:06.000Z</time></trkpt><trkpt lon="5.433599" lat="51.130584"><ele>53.6</ele><time>2022-03-27T08:34:07.000Z</time></trkpt><trkpt lon="5.433587" lat="51.130517"><ele>53.8</ele><time>2022-03-27T08:34:08.000Z</time></trkpt><trkpt lon="5.433577" lat="51.13045"><ele>53.8</ele><time>2022-03-27T08:34:09.000Z</time></trkpt><trkpt lon="5.433567" lat="51.130382"><ele>53.8</ele><time>2022-03-27T08:34:10.000Z</time></trkpt><trkpt lon="5.433557" lat="51.130314"><ele>53.8</ele><time>2022-03-27T08:34:11.000Z</time></trkpt><trkpt lon="5.433544" lat="51.130244"><ele>53.8</ele><time>2022-03-27T08:34:12.000Z</time></trkpt><trkpt lon="5.433534" lat="51.130169"><ele>53.8</ele><time>2022-03-27T08:34:13.000Z</time></trkpt><trkpt lon="5.433523" lat="51.130102"><ele>53.8</ele><time>2022-03-27T08:34:14.000Z</time></trkpt><trkpt lon="5.433509" lat="51.130028"><ele>53.8</ele><time>2022-03-27T08:34:15.000Z</time></trkpt><trkpt lon="5.433497" lat="51.129955"><ele>53.8</ele><time>2022-03-27T08:34:16.000Z</time></trkpt><trkpt lon="5.433486" lat="51.129886"><ele>53.8</ele><time>2022-03-27T08:34:17.000Z</time></trkpt><trkpt lon="5.433472" lat="51.129814"><ele>53.8</ele><time>2022-03-27T08:34:18.000Z</time></trkpt><trkpt lon="5.433462" lat="51.129745"><ele>53.8</ele><time>2022-03-27T08:34:19.000Z</time></trkpt><trkpt lon="5.433452" lat="51.129673"><ele>53.8</ele><time>2022-03-27T08:34:20.000Z</time></trkpt><trkpt lon="5.433442" lat="51.1296"><ele>53.8</ele><time>2022-03-27T08:34:21.000Z</time></trkpt><trkpt lon="5.433431" lat="51.129532"><ele>53.8</ele><time>2022-03-27T08:34:22.000Z</time></trkpt><trkpt lon="5.433421" lat="51.129459"><ele>53.8</ele><time>2022-03-27T08:34:23.000Z</time></trkpt><trkpt lon="5.433407" lat="51.12939"><ele>53.8</ele><time>2022-03-27T08:34:24.000Z</time></trkpt><trkpt lon="5.433394" lat="51.129322"><ele>53.8</ele><time>2022-03-27T08:34:25.000Z</time></trkpt><trkpt lon="5.433381" lat="51.129255"><ele>53.6</ele><time>2022-03-27T08:34:26.000Z</time></trkpt><trkpt lon="5.433368" lat="51.129185"><ele>53.8</ele><time>2022-03-27T08:34:27.000Z</time></trkpt><trkpt lon="5.433346" lat="51.129116"><ele>53.8</ele><time>2022-03-27T08:34:28.000Z</time></trkpt><trkpt lon="5.433321" lat="51.129043"><ele>53.8</ele><time>2022-03-27T08:34:29.000Z</time></trkpt><trkpt lon="5.433289" lat="51.128975"><ele>53.8</ele><time>2022-03-27T08:34:30.000Z</time></trkpt><trkpt lon="5.433254" lat="51.128906"><ele>53.6</ele><time>2022-03-27T08:34:31.000Z</time></trkpt><trkpt lon="5.433219" lat="51.128834"><ele>53.6</ele><time>2022-03-27T08:34:32.000Z</time></trkpt><trkpt lon="5.433185" lat="51.128765"><ele>53.6</ele><time>2022-03-27T08:34:33.000Z</time></trkpt><trkpt lon="5.433155" lat="51.128696"><ele>53.6</ele><time>2022-03-27T08:34:34.000Z</time></trkpt><trkpt lon="5.433128" lat="51.128628"><ele>53.6</ele><time>2022-03-27T08:34:35.000Z</time></trkpt><trkpt lon="5.433108" lat="51.128556"><ele>53.6</ele><time>2022-03-27T08:34:36.000Z</time></trkpt><trkpt lon="5.433091" lat="51.128486"><ele>53.6</ele><time>2022-03-27T08:34:37.000Z</time></trkpt><trkpt lon="5.433079" lat="51.128418"><ele>53.6</ele><time>2022-03-27T08:34:38.000Z</time></trkpt><trkpt lon="5.433069" lat="51.128348"><ele>53.6</ele><time>2022-03-27T08:34:39.000Z</time></trkpt><trkpt lon="5.433064" lat="51.128284"><ele>53.6</ele><time>2022-03-27T08:34:40.000Z</time></trkpt><trkpt lon="5.433062" lat="51.128216"><ele>53.8</ele><time>2022-03-27T08:34:41.000Z</time></trkpt><trkpt lon="5.433063" lat="51.128147"><ele>53.8</ele><time>2022-03-27T08:34:42.000Z</time></trkpt><trkpt lon="5.433071" lat="51.128078"><ele>53.8</ele><time>2022-03-27T08:34:43.000Z</time></trkpt><trkpt lon="5.433081" lat="51.128013"><ele>53.8</ele><time>2022-03-27T08:34:44.000Z</time></trkpt><trkpt lon="5.433094" lat="51.127945"><ele>53.8</ele><time>2022-03-27T08:34:45.000Z</time></trkpt><trkpt lon="5.433114" lat="51.127876"><ele>53.8</ele><time>2022-03-27T08:34:46.000Z</time></trkpt><trkpt lon="5.433137" lat="51.127807"><ele>53.8</ele><time>2022-03-27T08:34:47.000Z</time></trkpt><trkpt lon="5.433167" lat="51.127738"><ele>53.8</ele><time>2022-03-27T08:34:48.000Z</time></trkpt><trkpt lon="5.4332" lat="51.12767"><ele>53.8</ele><time>2022-03-27T08:34:49.000Z</time></trkpt><trkpt lon="5.433236" lat="51.127606"><ele>54</ele><time>2022-03-27T08:34:50.000Z</time></trkpt><trkpt lon="5.433277" lat="51.12754"><ele>54</ele><time>2022-03-27T08:34:51.000Z</time></trkpt><trkpt lon="5.433318" lat="51.127475"><ele>54</ele><time>2022-03-27T08:34:52.000Z</time></trkpt><trkpt lon="5.433363" lat="51.127414"><ele>54</ele><time>2022-03-27T08:34:53.000Z</time></trkpt><trkpt lon="5.433408" lat="51.127353"><ele>54.2</ele><time>2022-03-27T08:34:54.000Z</time></trkpt><trkpt lon="5.433452" lat="51.127292"><ele>54.2</ele><time>2022-03-27T08:34:55.000Z</time></trkpt><trkpt lon="5.433496" lat="51.127235"><ele>54.2</ele><time>2022-03-27T08:34:56.000Z</time></trkpt><trkpt lon="5.433538" lat="51.127174"><ele>54.2</ele><time>2022-03-27T08:34:57.000Z</time></trkpt><trkpt lon="5.43358" lat="51.127114"><ele>54.2</ele><time>2022-03-27T08:34:58.000Z</time></trkpt><trkpt lon="5.433624" lat="51.127052"><ele>54.4</ele><time>2022-03-27T08:34:59.000Z</time></trkpt><trkpt lon="5.433669" lat="51.126987"><ele>54.4</ele><time>2022-03-27T08:35:00.000Z</time></trkpt><trkpt lon="5.433714" lat="51.126926"><ele>54.4</ele><time>2022-03-27T08:35:01.000Z</time></trkpt><trkpt lon="5.433765" lat="51.126862"><ele>54.4</ele><time>2022-03-27T08:35:02.000Z</time></trkpt><trkpt lon="5.433813" lat="51.1268"><ele>54.4</ele><time>2022-03-27T08:35:03.000Z</time></trkpt><trkpt lon="5.433857" lat="51.126735"><ele>54.4</ele><time>2022-03-27T08:35:04.000Z</time></trkpt><trkpt lon="5.433904" lat="51.126671"><ele>54.6</ele><time>2022-03-27T08:35:05.000Z</time></trkpt><trkpt lon="5.433952" lat="51.126606"><ele>54.6</ele><time>2022-03-27T08:35:06.000Z</time></trkpt><trkpt lon="5.433998" lat="51.126545"><ele>54.6</ele><time>2022-03-27T08:35:07.000Z</time></trkpt><trkpt lon="5.434046" lat="51.12648"><ele>54.6</ele><time>2022-03-27T08:35:08.000Z</time></trkpt><trkpt lon="5.434082" lat="51.126433"><ele>54.6</ele><time>2022-03-27T08:35:09.000Z</time></trkpt><trkpt lon="5.434137" lat="51.126354"><ele>54.8</ele><time>2022-03-27T08:35:10.000Z</time></trkpt><trkpt lon="5.434181" lat="51.126289"><ele>54.6</ele><time>2022-03-27T08:35:11.000Z</time></trkpt><trkpt lon="5.434227" lat="51.126223"><ele>54.8</ele><time>2022-03-27T08:35:12.000Z</time></trkpt><trkpt lon="5.43427" lat="51.126163"><ele>54.8</ele><time>2022-03-27T08:35:13.000Z</time></trkpt><trkpt lon="5.434314" lat="51.126098"><ele>54.8</ele><time>2022-03-27T08:35:14.000Z</time></trkpt><trkpt lon="5.434362" lat="51.126037"><ele>54.8</ele><time>2022-03-27T08:35:15.000Z</time></trkpt><trkpt lon="5.434409" lat="51.12598"><ele>54.8</ele><time>2022-03-27T08:35:16.000Z</time></trkpt><trkpt lon="5.434456" lat="51.125921"><ele>55</ele><time>2022-03-27T08:35:17.000Z</time></trkpt><trkpt lon="5.434501" lat="51.125861"><ele>55</ele><time>2022-03-27T08:35:18.000Z</time></trkpt><trkpt lon="5.434546" lat="51.125805"><ele>54.8</ele><time>2022-03-27T08:35:19.000Z</time></trkpt><trkpt lon="5.434589" lat="51.125747"><ele>55</ele><time>2022-03-27T08:35:20.000Z</time></trkpt><trkpt lon="5.434631" lat="51.12569"><ele>55</ele><time>2022-03-27T08:35:21.000Z</time></trkpt><trkpt lon="5.434674" lat="51.125626"><ele>55</ele><time>2022-03-27T08:35:22.000Z</time></trkpt><trkpt lon="5.434719" lat="51.125568"><ele>55</ele><time>2022-03-27T08:35:23.000Z</time></trkpt><trkpt lon="5.434761" lat="51.125507"><ele>55</ele><time>2022-03-27T08:35:24.000Z</time></trkpt><trkpt lon="5.434806" lat="51.125446"><ele>55</ele><time>2022-03-27T08:35:25.000Z</time></trkpt><trkpt lon="5.434851" lat="51.125385"><ele>55.2</ele><time>2022-03-27T08:35:26.000Z</time></trkpt><trkpt lon="5.434896" lat="51.12532"><ele>55.2</ele><time>2022-03-27T08:35:27.000Z</time></trkpt><trkpt lon="5.434938" lat="51.125259"><ele>55.4</ele><time>2022-03-27T08:35:28.000Z</time></trkpt><trkpt lon="5.434983" lat="51.125205"><ele>55.4</ele><time>2022-03-27T08:35:29.000Z</time></trkpt><trkpt lon="5.435026" lat="51.125148"><ele>55.4</ele><time>2022-03-27T08:35:30.000Z</time></trkpt><trkpt lon="5.435066" lat="51.12509"><ele>55.4</ele><time>2022-03-27T08:35:31.000Z</time></trkpt><trkpt lon="5.435103" lat="51.125027"><ele>55.4</ele><time>2022-03-27T08:35:32.000Z</time></trkpt><trkpt lon="5.435137" lat="51.124965"><ele>55.4</ele><time>2022-03-27T08:35:33.000Z</time></trkpt><trkpt lon="5.435168" lat="51.124904"><ele>55.4</ele><time>2022-03-27T08:35:34.000Z</time></trkpt><trkpt lon="5.435197" lat="51.124845"><ele>55.4</ele><time>2022-03-27T08:35:35.000Z</time></trkpt><trkpt lon="5.435233" lat="51.124776"><ele>55.4</ele><time>2022-03-27T08:35:36.000Z</time></trkpt><trkpt lon="5.435268" lat="51.12471"><ele>55.6</ele><time>2022-03-27T08:35:37.000Z</time></trkpt><trkpt lon="5.435303" lat="51.124645"><ele>55.6</ele><time>2022-03-27T08:35:38.000Z</time></trkpt><trkpt lon="5.43534" lat="51.12458"><ele>55.6</ele><time>2022-03-27T08:35:39.000Z</time></trkpt><trkpt lon="5.435378" lat="51.124507"><ele>55.6</ele><time>2022-03-27T08:35:40.000Z</time></trkpt><trkpt lon="5.435419" lat="51.124435"><ele>55.6</ele><time>2022-03-27T08:35:41.000Z</time></trkpt><trkpt lon="5.435459" lat="51.124371"><ele>55.8</ele><time>2022-03-27T08:35:42.000Z</time></trkpt><trkpt lon="5.435496" lat="51.124295"><ele>55.8</ele><time>2022-03-27T08:35:43.000Z</time></trkpt><trkpt lon="5.435533" lat="51.124226"><ele>55.8</ele><time>2022-03-27T08:35:44.000Z</time></trkpt><trkpt lon="5.43557" lat="51.124153"><ele>56</ele><time>2022-03-27T08:35:45.000Z</time></trkpt><trkpt lon="5.435604" lat="51.124081"><ele>56</ele><time>2022-03-27T08:35:46.000Z</time></trkpt><trkpt lon="5.435639" lat="51.124009"><ele>56.2</ele><time>2022-03-27T08:35:47.000Z</time></trkpt><trkpt lon="5.435672" lat="51.123939"><ele>56</ele><time>2022-03-27T08:35:48.000Z</time></trkpt><trkpt lon="5.435705" lat="51.123868"><ele>56.2</ele><time>2022-03-27T08:35:49.000Z</time></trkpt><trkpt lon="5.435741" lat="51.123794"><ele>56.2</ele><time>2022-03-27T08:35:50.000Z</time></trkpt><trkpt lon="5.435778" lat="51.123727"><ele>56.2</ele><time>2022-03-27T08:35:51.000Z</time></trkpt><trkpt lon="5.435815" lat="51.123657"><ele>56.2</ele><time>2022-03-27T08:35:52.000Z</time></trkpt><trkpt lon="5.435848" lat="51.123592"><ele>56.2</ele><time>2022-03-27T08:35:53.000Z</time></trkpt><trkpt lon="5.435882" lat="51.123524"><ele>56.2</ele><time>2022-03-27T08:35:54.000Z</time></trkpt><trkpt lon="5.435918" lat="51.123459"><ele>56.2</ele><time>2022-03-27T08:35:55.000Z</time></trkpt><trkpt lon="5.435953" lat="51.123394"><ele>56</ele><time>2022-03-27T08:35:56.000Z</time></trkpt><trkpt lon="5.435987" lat="51.123325"><ele>56</ele><time>2022-03-27T08:35:57.000Z</time></trkpt><trkpt lon="5.43602" lat="51.123261"><ele>56.2</ele><time>2022-03-27T08:35:58.000Z</time></trkpt><trkpt lon="5.436055" lat="51.123192"><ele>56.2</ele><time>2022-03-27T08:35:59.000Z</time></trkpt><trkpt lon="5.436093" lat="51.123127"><ele>56.2</ele><time>2022-03-27T08:36:00.000Z</time></trkpt><trkpt lon="5.436127" lat="51.12306"><ele>56.2</ele><time>2022-03-27T08:36:01.000Z</time></trkpt><trkpt lon="5.436168" lat="51.12299"><ele>56.2</ele><time>2022-03-27T08:36:02.000Z</time></trkpt><trkpt lon="5.436208" lat="51.122921"><ele>56.2</ele><time>2022-03-27T08:36:03.000Z</time></trkpt><trkpt lon="5.436246" lat="51.122853"><ele>56.2</ele><time>2022-03-27T08:36:04.000Z</time></trkpt><trkpt lon="5.436284" lat="51.122784"><ele>56.2</ele><time>2022-03-27T08:36:05.000Z</time></trkpt><trkpt lon="5.43632" lat="51.122718"><ele>56.2</ele><time>2022-03-27T08:36:06.000Z</time></trkpt><trkpt lon="5.436358" lat="51.122653"><ele>56.2</ele><time>2022-03-27T08:36:07.000Z</time></trkpt><trkpt lon="5.436395" lat="51.122585"><ele>56.4</ele><time>2022-03-27T08:36:08.000Z</time></trkpt><trkpt lon="5.436431" lat="51.122516"><ele>56.4</ele><time>2022-03-27T08:36:09.000Z</time></trkpt><trkpt lon="5.436468" lat="51.122451"><ele>56.4</ele><time>2022-03-27T08:36:10.000Z</time></trkpt><trkpt lon="5.436503" lat="51.122386"><ele>56.4</ele><time>2022-03-27T08:36:11.000Z</time></trkpt><trkpt lon="5.436541" lat="51.122318"><ele>56.6</ele><time>2022-03-27T08:36:12.000Z</time></trkpt><trkpt lon="5.436576" lat="51.122254"><ele>56.6</ele><time>2022-03-27T08:36:13.000Z</time></trkpt><trkpt lon="5.436605" lat="51.122192"><ele>56.6</ele><time>2022-03-27T08:36:14.000Z</time></trkpt><trkpt lon="5.43664" lat="51.122132"><ele>56.6</ele><time>2022-03-27T08:36:15.000Z</time></trkpt><trkpt lon="5.436683" lat="51.122062"><ele>56.6</ele><time>2022-03-27T08:36:16.000Z</time></trkpt><trkpt lon="5.436724" lat="51.121998"><ele>56.6</ele><time>2022-03-27T08:36:17.000Z</time></trkpt><trkpt lon="5.436768" lat="51.121936"><ele>56.6</ele><time>2022-03-27T08:36:18.000Z</time></trkpt><trkpt lon="5.436818" lat="51.121871"><ele>56.6</ele><time>2022-03-27T08:36:19.000Z</time></trkpt><trkpt lon="5.436867" lat="51.121815"><ele>56.6</ele><time>2022-03-27T08:36:20.000Z</time></trkpt><trkpt lon="5.436918" lat="51.121757"><ele>56.6</ele><time>2022-03-27T08:36:21.000Z</time></trkpt><trkpt lon="5.436968" lat="51.1217"><ele>56.6</ele><time>2022-03-27T08:36:22.000Z</time></trkpt><trkpt lon="5.437018" lat="51.121638"><ele>56.6</ele><time>2022-03-27T08:36:23.000Z</time></trkpt><trkpt lon="5.437063" lat="51.121579"><ele>56.6</ele><time>2022-03-27T08:36:24.000Z</time></trkpt><trkpt lon="5.437106" lat="51.121517"><ele>56.8</ele><time>2022-03-27T08:36:25.000Z</time></trkpt><trkpt lon="5.437145" lat="51.121452"><ele>56.8</ele><time>2022-03-27T08:36:26.000Z</time></trkpt><trkpt lon="5.437184" lat="51.121385"><ele>56.8</ele><time>2022-03-27T08:36:27.000Z</time></trkpt><trkpt lon="5.437222" lat="51.121319"><ele>56.8</ele><time>2022-03-27T08:36:28.000Z</time></trkpt><trkpt lon="5.437259" lat="51.121254"><ele>56.8</ele><time>2022-03-27T08:36:29.000Z</time></trkpt><trkpt lon="5.437296" lat="51.121189"><ele>56.8</ele><time>2022-03-27T08:36:30.000Z</time></trkpt><trkpt lon="5.437331" lat="51.12112"><ele>57</ele><time>2022-03-27T08:36:31.000Z</time></trkpt><trkpt lon="5.437373" lat="51.121055"><ele>57</ele><time>2022-03-27T08:36:32.000Z</time></trkpt><trkpt lon="5.43741" lat="51.120989"><ele>57</ele><time>2022-03-27T08:36:33.000Z</time></trkpt><trkpt lon="5.437451" lat="51.120922"><ele>57</ele><time>2022-03-27T08:36:34.000Z</time></trkpt><trkpt lon="5.43749" lat="51.120858"><ele>57.2</ele><time>2022-03-27T08:36:35.000Z</time></trkpt><trkpt lon="5.437531" lat="51.120793"><ele>57.2</ele><time>2022-03-27T08:36:36.000Z</time></trkpt><trkpt lon="5.437576" lat="51.120724"><ele>57.2</ele><time>2022-03-27T08:36:37.000Z</time></trkpt><trkpt lon="5.437622" lat="51.120663"><ele>57.2</ele><time>2022-03-27T08:36:38.000Z</time></trkpt><trkpt lon="5.437669" lat="51.120601"><ele>57.2</ele><time>2022-03-27T08:36:39.000Z</time></trkpt><trkpt lon="5.437719" lat="51.12054"><ele>57.2</ele><time>2022-03-27T08:36:40.000Z</time></trkpt><trkpt lon="5.437773" lat="51.12048"><ele>57.2</ele><time>2022-03-27T08:36:41.000Z</time></trkpt><trkpt lon="5.437831" lat="51.120421"><ele>57.4</ele><time>2022-03-27T08:36:42.000Z</time></trkpt><trkpt lon="5.437891" lat="51.120364"><ele>57.4</ele><time>2022-03-27T08:36:43.000Z</time></trkpt><trkpt lon="5.437954" lat="51.120307"><ele>57.4</ele><time>2022-03-27T08:36:44.000Z</time></trkpt><trkpt lon="5.438022" lat="51.12025"><ele>57.4</ele><time>2022-03-27T08:36:45.000Z</time></trkpt><trkpt lon="5.438089" lat="51.120192"><ele>57.4</ele><time>2022-03-27T08:36:46.000Z</time></trkpt><trkpt lon="5.438152" lat="51.120139"><ele>57.4</ele><time>2022-03-27T08:36:47.000Z</time></trkpt><trkpt lon="5.438212" lat="51.120086"><ele>57.4</ele><time>2022-03-27T08:36:48.000Z</time></trkpt><trkpt lon="5.438274" lat="51.120036"><ele>57.4</ele><time>2022-03-27T08:36:49.000Z</time></trkpt><trkpt lon="5.438334" lat="51.119983"><ele>57.4</ele><time>2022-03-27T08:36:50.000Z</time></trkpt><trkpt lon="5.438397" lat="51.11993"><ele>57.4</ele><time>2022-03-27T08:36:51.000Z</time></trkpt><trkpt lon="5.438462" lat="51.11988"><ele>57.4</ele><time>2022-03-27T08:36:52.000Z</time></trkpt><trkpt lon="5.438521" lat="51.119827"><ele>57.4</ele><time>2022-03-27T08:36:53.000Z</time></trkpt><trkpt lon="5.438583" lat="51.119781"><ele>57.4</ele><time>2022-03-27T08:36:54.000Z</time></trkpt><trkpt lon="5.438643" lat="51.119735"><ele>57.4</ele><time>2022-03-27T08:36:55.000Z</time></trkpt><trkpt lon="5.438707" lat="51.119696"><ele>57.4</ele><time>2022-03-27T08:36:56.000Z</time></trkpt><trkpt lon="5.438781" lat="51.119661"><ele>57.6</ele><time>2022-03-27T08:36:57.000Z</time></trkpt><trkpt lon="5.438868" lat="51.119642"><ele>57.6</ele><time>2022-03-27T08:36:58.000Z</time></trkpt><trkpt lon="5.43897" lat="51.119637"><ele>57.6</ele><time>2022-03-27T08:36:59.000Z</time></trkpt><trkpt lon="5.439075" lat="51.119655"><ele>57.6</ele><time>2022-03-27T08:37:00.000Z</time></trkpt><trkpt lon="5.439171" lat="51.119685"><ele>57.6</ele><time>2022-03-27T08:37:01.000Z</time></trkpt><trkpt lon="5.439263" lat="51.119726"><ele>57.4</ele><time>2022-03-27T08:37:02.000Z</time></trkpt><trkpt lon="5.43935" lat="51.119772"><ele>57.4</ele><time>2022-03-27T08:37:03.000Z</time></trkpt><trkpt lon="5.439434" lat="51.119817"><ele>57.4</ele><time>2022-03-27T08:37:04.000Z</time></trkpt><trkpt lon="5.439515" lat="51.119866"><ele>57.4</ele><time>2022-03-27T08:37:05.000Z</time></trkpt><trkpt lon="5.439596" lat="51.119913"><ele>57.4</ele><time>2022-03-27T08:37:06.000Z</time></trkpt><trkpt lon="5.439676" lat="51.119959"><ele>57.6</ele><time>2022-03-27T08:37:07.000Z</time></trkpt><trkpt lon="5.439754" lat="51.120004"><ele>57.6</ele><time>2022-03-27T08:37:08.000Z</time></trkpt><trkpt lon="5.439825" lat="51.120046"><ele>57.6</ele><time>2022-03-27T08:37:09.000Z</time></trkpt><trkpt lon="5.439914" lat="51.120092"><ele>57.8</ele><time>2022-03-27T08:37:10.000Z</time></trkpt><trkpt lon="5.439994" lat="51.120134"><ele>57.8</ele><time>2022-03-27T08:37:11.000Z</time></trkpt><trkpt lon="5.440075" lat="51.120177"><ele>57.8</ele><time>2022-03-27T08:37:12.000Z</time></trkpt><trkpt lon="5.440147" lat="51.120218"><ele>57.6</ele><time>2022-03-27T08:37:13.000Z</time></trkpt><trkpt lon="5.440226" lat="51.120263"><ele>57.8</ele><time>2022-03-27T08:37:14.000Z</time></trkpt><trkpt lon="5.440306" lat="51.120309"><ele>57.8</ele><time>2022-03-27T08:37:15.000Z</time></trkpt><trkpt lon="5.440386" lat="51.120359"><ele>57.8</ele><time>2022-03-27T08:37:16.000Z</time></trkpt><trkpt lon="5.440464" lat="51.120408"><ele>57.8</ele><time>2022-03-27T08:37:17.000Z</time></trkpt><trkpt lon="5.440538" lat="51.120462"><ele>57.8</ele><time>2022-03-27T08:37:18.000Z</time></trkpt><trkpt lon="5.440608" lat="51.120514"><ele>57.8</ele><time>2022-03-27T08:37:19.000Z</time></trkpt><trkpt lon="5.440677" lat="51.120572"><ele>57.8</ele><time>2022-03-27T08:37:20.000Z</time></trkpt><trkpt lon="5.440737" lat="51.120629"><ele>57.8</ele><time>2022-03-27T08:37:21.000Z</time></trkpt><trkpt lon="5.440791" lat="51.120687"><ele>57.8</ele><time>2022-03-27T08:37:22.000Z</time></trkpt><trkpt lon="5.440836" lat="51.120744"><ele>57.6</ele><time>2022-03-27T08:37:23.000Z</time></trkpt><trkpt lon="5.440878" lat="51.120805"><ele>57.6</ele><time>2022-03-27T08:37:24.000Z</time></trkpt><trkpt lon="5.440917" lat="51.120872"><ele>57.6</ele><time>2022-03-27T08:37:25.000Z</time></trkpt><trkpt lon="5.440953" lat="51.120938"><ele>57.6</ele><time>2022-03-27T08:37:26.000Z</time></trkpt><trkpt lon="5.440985" lat="51.121006"><ele>57.6</ele><time>2022-03-27T08:37:27.000Z</time></trkpt><trkpt lon="5.441009" lat="51.121075"><ele>57.6</ele><time>2022-03-27T08:37:28.000Z</time></trkpt><trkpt lon="5.441026" lat="51.121147"><ele>57.6</ele><time>2022-03-27T08:37:29.000Z</time></trkpt><trkpt lon="5.441034" lat="51.121219"><ele>57.6</ele><time>2022-03-27T08:37:30.000Z</time></trkpt><trkpt lon="5.441035" lat="51.121289"><ele>57.4</ele><time>2022-03-27T08:37:31.000Z</time></trkpt><trkpt lon="5.441032" lat="51.121364"><ele>57.4</ele><time>2022-03-27T08:37:32.000Z</time></trkpt><trkpt lon="5.441028" lat="51.121435"><ele>57.4</ele><time>2022-03-27T08:37:33.000Z</time></trkpt><trkpt lon="5.441028" lat="51.121506"><ele>57.4</ele><time>2022-03-27T08:37:34.000Z</time></trkpt><trkpt lon="5.441025" lat="51.121573"><ele>57.2</ele><time>2022-03-27T08:37:35.000Z</time></trkpt><trkpt lon="5.441015" lat="51.121643"><ele>57.2</ele><time>2022-03-27T08:37:36.000Z</time></trkpt><trkpt lon="5.441003" lat="51.121712"><ele>57.2</ele><time>2022-03-27T08:37:37.000Z</time></trkpt><trkpt lon="5.440991" lat="51.121781"><ele>57</ele><time>2022-03-27T08:37:38.000Z</time></trkpt><trkpt lon="5.440981" lat="51.121852"><ele>57</ele><time>2022-03-27T08:37:39.000Z</time></trkpt><trkpt lon="5.44097" lat="51.121922"><ele>57</ele><time>2022-03-27T08:37:40.000Z</time></trkpt><trkpt lon="5.44096" lat="51.121995"><ele>57</ele><time>2022-03-27T08:37:41.000Z</time></trkpt><trkpt lon="5.44095" lat="51.122067"><ele>56.8</ele><time>2022-03-27T08:37:42.000Z</time></trkpt><trkpt lon="5.44094" lat="51.122136"><ele>56.8</ele><time>2022-03-27T08:37:43.000Z</time></trkpt><trkpt lon="5.440929" lat="51.122207"><ele>56.8</ele><time>2022-03-27T08:37:44.000Z</time></trkpt><trkpt lon="5.440921" lat="51.122275"><ele>56.8</ele><time>2022-03-27T08:37:45.000Z</time></trkpt><trkpt lon="5.440912" lat="51.122341"><ele>56.8</ele><time>2022-03-27T08:37:46.000Z</time></trkpt><trkpt lon="5.440902" lat="51.122413"><ele>56.6</ele><time>2022-03-27T08:37:47.000Z</time></trkpt><trkpt lon="5.440894" lat="51.122484"><ele>56.6</ele><time>2022-03-27T08:37:48.000Z</time></trkpt><trkpt lon="5.440884" lat="51.122555"><ele>56.4</ele><time>2022-03-27T08:37:49.000Z</time></trkpt><trkpt lon="5.440871" lat="51.122623"><ele>56.4</ele><time>2022-03-27T08:37:50.000Z</time></trkpt><trkpt lon="5.440859" lat="51.122696"><ele>56.6</ele><time>2022-03-27T08:37:51.000Z</time></trkpt><trkpt lon="5.440847" lat="51.122765"><ele>56.6</ele><time>2022-03-27T08:37:52.000Z</time></trkpt><trkpt lon="5.440837" lat="51.122833"><ele>56.6</ele><time>2022-03-27T08:37:53.000Z</time></trkpt><trkpt lon="5.440826" lat="51.122906"><ele>56.6</ele><time>2022-03-27T08:37:54.000Z</time></trkpt><trkpt lon="5.440814" lat="51.122971"><ele>56.6</ele><time>2022-03-27T08:37:55.000Z</time></trkpt><trkpt lon="5.440802" lat="51.123038"><ele>56.6</ele><time>2022-03-27T08:37:56.000Z</time></trkpt><trkpt lon="5.440789" lat="51.123108"><ele>56.6</ele><time>2022-03-27T08:37:57.000Z</time></trkpt><trkpt lon="5.440777" lat="51.123177"><ele>56.4</ele><time>2022-03-27T08:37:58.000Z</time></trkpt><trkpt lon="5.440768" lat="51.123243"><ele>56.4</ele><time>2022-03-27T08:37:59.000Z</time></trkpt><trkpt lon="5.440759" lat="51.123318"><ele>56.6</ele><time>2022-03-27T08:38:00.000Z</time></trkpt><trkpt lon="5.440752" lat="51.12339"><ele>56.6</ele><time>2022-03-27T08:38:01.000Z</time></trkpt><trkpt lon="5.440745" lat="51.123462"><ele>56.6</ele><time>2022-03-27T08:38:02.000Z</time></trkpt><trkpt lon="5.440735" lat="51.123535"><ele>56.6</ele><time>2022-03-27T08:38:03.000Z</time></trkpt><trkpt lon="5.440727" lat="51.123608"><ele>56.6</ele><time>2022-03-27T08:38:04.000Z</time></trkpt><trkpt lon="5.440716" lat="51.123676"><ele>56.6</ele><time>2022-03-27T08:38:05.000Z</time></trkpt><trkpt lon="5.440709" lat="51.123745"><ele>56.4</ele><time>2022-03-27T08:38:06.000Z</time></trkpt><trkpt lon="5.440697" lat="51.123814"><ele>56.4</ele><time>2022-03-27T08:38:07.000Z</time></trkpt><trkpt lon="5.440687" lat="51.123886"><ele>56.4</ele><time>2022-03-27T08:38:08.000Z</time></trkpt><trkpt lon="5.440677" lat="51.123956"><ele>56.4</ele><time>2022-03-27T08:38:09.000Z</time></trkpt><trkpt lon="5.440669" lat="51.124028"><ele>56.6</ele><time>2022-03-27T08:38:10.000Z</time></trkpt><trkpt lon="5.44066" lat="51.1241"><ele>56.6</ele><time>2022-03-27T08:38:11.000Z</time></trkpt><trkpt lon="5.440652" lat="51.124169"><ele>56.6</ele><time>2022-03-27T08:38:12.000Z</time></trkpt><trkpt lon="5.440644" lat="51.124241"><ele>56.4</ele><time>2022-03-27T08:38:13.000Z</time></trkpt><trkpt lon="5.440634" lat="51.12431"><ele>56.4</ele><time>2022-03-27T08:38:14.000Z</time></trkpt><trkpt lon="5.440623" lat="51.124376"><ele>56.4</ele><time>2022-03-27T08:38:15.000Z</time></trkpt><trkpt lon="5.440614" lat="51.124447"><ele>56.4</ele><time>2022-03-27T08:38:16.000Z</time></trkpt><trkpt lon="5.440604" lat="51.124519"><ele>56.4</ele><time>2022-03-27T08:38:17.000Z</time></trkpt><trkpt lon="5.440592" lat="51.124588"><ele>56.4</ele><time>2022-03-27T08:38:18.000Z</time></trkpt><trkpt lon="5.440584" lat="51.124653"><ele>56.6</ele><time>2022-03-27T08:38:19.000Z</time></trkpt><trkpt lon="5.440574" lat="51.124722"><ele>56.6</ele><time>2022-03-27T08:38:20.000Z</time></trkpt><trkpt lon="5.440564" lat="51.124789"><ele>56.6</ele><time>2022-03-27T08:38:21.000Z</time></trkpt><trkpt lon="5.440559" lat="51.124858"><ele>56.6</ele><time>2022-03-27T08:38:22.000Z</time></trkpt><trkpt lon="5.44055" lat="51.124927"><ele>56.6</ele><time>2022-03-27T08:38:23.000Z</time></trkpt><trkpt lon="5.440545" lat="51.124996"><ele>56.4</ele><time>2022-03-27T08:38:24.000Z</time></trkpt><trkpt lon="5.44055" lat="51.125065"><ele>56.4</ele><time>2022-03-27T08:38:25.000Z</time></trkpt><trkpt lon="5.440564" lat="51.12513"><ele>56.4</ele><time>2022-03-27T08:38:26.000Z</time></trkpt><trkpt lon="5.440581" lat="51.125199"><ele>56.2</ele><time>2022-03-27T08:38:27.000Z</time></trkpt><trkpt lon="5.440602" lat="51.125262"><ele>56.2</ele><time>2022-03-27T08:38:28.000Z</time></trkpt><trkpt lon="5.440625" lat="51.125328"><ele>56.2</ele><time>2022-03-27T08:38:29.000Z</time></trkpt><trkpt lon="5.440654" lat="51.125396"><ele>56</ele><time>2022-03-27T08:38:30.000Z</time></trkpt><trkpt lon="5.440682" lat="51.125462"><ele>56</ele><time>2022-03-27T08:38:31.000Z</time></trkpt><trkpt lon="5.440712" lat="51.125525"><ele>56</ele><time>2022-03-27T08:38:32.000Z</time></trkpt><trkpt lon="5.440745" lat="51.125592"><ele>55.8</ele><time>2022-03-27T08:38:33.000Z</time></trkpt><trkpt lon="5.440775" lat="51.125656"><ele>55.8</ele><time>2022-03-27T08:38:34.000Z</time></trkpt><trkpt lon="5.440805" lat="51.125721"><ele>55.6</ele><time>2022-03-27T08:38:35.000Z</time></trkpt><trkpt lon="5.440832" lat="51.125789"><ele>55.4</ele><time>2022-03-27T08:38:36.000Z</time></trkpt><trkpt lon="5.440858" lat="51.125858"><ele>55</ele><time>2022-03-27T08:38:37.000Z</time></trkpt><trkpt lon="5.440885" lat="51.125927"><ele>54.8</ele><time>2022-03-27T08:38:38.000Z</time></trkpt><trkpt lon="5.440907" lat="51.125995"><ele>55</ele><time>2022-03-27T08:38:39.000Z</time></trkpt><trkpt lon="5.440932" lat="51.126065"><ele>55</ele><time>2022-03-27T08:38:40.000Z</time></trkpt><trkpt lon="5.440956" lat="51.126134"><ele>55.2</ele><time>2022-03-27T08:38:41.000Z</time></trkpt><trkpt lon="5.440981" lat="51.126202"><ele>55.2</ele><time>2022-03-27T08:38:42.000Z</time></trkpt><trkpt lon="5.441001" lat="51.126267"><ele>55.2</ele><time>2022-03-27T08:38:43.000Z</time></trkpt><trkpt lon="5.441025" lat="51.126339"><ele>55.2</ele><time>2022-03-27T08:38:44.000Z</time></trkpt><trkpt lon="5.441049" lat="51.126407"><ele>55.2</ele><time>2022-03-27T08:38:45.000Z</time></trkpt><trkpt lon="5.441074" lat="51.126477"><ele>55.2</ele><time>2022-03-27T08:38:46.000Z</time></trkpt><trkpt lon="5.441099" lat="51.126546"><ele>55</ele><time>2022-03-27T08:38:47.000Z</time></trkpt><trkpt lon="5.441123" lat="51.126613"><ele>55</ele><time>2022-03-27T08:38:48.000Z</time></trkpt><trkpt lon="5.441149" lat="51.126674"><ele>55</ele><time>2022-03-27T08:38:49.000Z</time></trkpt><trkpt lon="5.441175" lat="51.126736"><ele>55</ele><time>2022-03-27T08:38:50.000Z</time></trkpt><trkpt lon="5.441199" lat="51.126794"><ele>54.8</ele><time>2022-03-27T08:38:51.000Z</time></trkpt><trkpt lon="5.441225" lat="51.126844"><ele>54.8</ele><time>2022-03-27T08:38:52.000Z</time></trkpt><trkpt lon="5.441249" lat="51.126894"><ele>54.6</ele><time>2022-03-27T08:38:53.000Z</time></trkpt><trkpt lon="5.441267" lat="51.126946"><ele>54.6</ele><time>2022-03-27T08:38:54.000Z</time></trkpt><trkpt lon="5.441286" lat="51.127008"><ele>54.6</ele><time>2022-03-27T08:38:55.000Z</time></trkpt><trkpt lon="5.441307" lat="51.127068"><ele>54.6</ele><time>2022-03-27T08:38:56.000Z</time></trkpt><trkpt lon="5.441332" lat="51.127136"><ele>54.6</ele><time>2022-03-27T08:38:57.000Z</time></trkpt><trkpt lon="5.441362" lat="51.127202"><ele>54.4</ele><time>2022-03-27T08:38:58.000Z</time></trkpt><trkpt lon="5.441392" lat="51.12727"><ele>54.2</ele><time>2022-03-27T08:38:59.000Z</time></trkpt><trkpt lon="5.441421" lat="51.12734"><ele>54</ele><time>2022-03-27T08:39:00.000Z</time></trkpt><trkpt lon="5.441449" lat="51.127417"><ele>53.8</ele><time>2022-03-27T08:39:01.000Z</time></trkpt><trkpt lon="5.44148" lat="51.127491"><ele>53.8</ele><time>2022-03-27T08:39:02.000Z</time></trkpt><trkpt lon="5.441508" lat="51.127566"><ele>53.8</ele><time>2022-03-27T08:39:03.000Z</time></trkpt><trkpt lon="5.441534" lat="51.12764"><ele>53.8</ele><time>2022-03-27T08:39:04.000Z</time></trkpt><trkpt lon="5.441561" lat="51.127715"><ele>53.8</ele><time>2022-03-27T08:39:05.000Z</time></trkpt><trkpt lon="5.441593" lat="51.127788"><ele>53.6</ele><time>2022-03-27T08:39:06.000Z</time></trkpt><trkpt lon="5.441624" lat="51.127862"><ele>53.8</ele><time>2022-03-27T08:39:07.000Z</time></trkpt><trkpt lon="5.441652" lat="51.127937"><ele>53.8</ele><time>2022-03-27T08:39:08.000Z</time></trkpt><trkpt lon="5.441682" lat="51.12801"><ele>53.6</ele><time>2022-03-27T08:39:09.000Z</time></trkpt><trkpt lon="5.441711" lat="51.128079"><ele>53.6</ele><time>2022-03-27T08:39:10.000Z</time></trkpt><trkpt lon="5.441735" lat="51.128146"><ele>53.4</ele><time>2022-03-27T08:39:11.000Z</time></trkpt><trkpt lon="5.441765" lat="51.128216"><ele>53.4</ele><time>2022-03-27T08:39:12.000Z</time></trkpt><trkpt lon="5.441802" lat="51.128284"><ele>53.4</ele><time>2022-03-27T08:39:13.000Z</time></trkpt><trkpt lon="5.441851" lat="51.128349"><ele>53.2</ele><time>2022-03-27T08:39:14.000Z</time></trkpt><trkpt lon="5.441907" lat="51.128411"><ele>53.2</ele><time>2022-03-27T08:39:15.000Z</time></trkpt><trkpt lon="5.441968" lat="51.128468"><ele>53.2</ele><time>2022-03-27T08:39:16.000Z</time></trkpt><trkpt lon="5.442036" lat="51.128522"><ele>53.2</ele><time>2022-03-27T08:39:17.000Z</time></trkpt><trkpt lon="5.442104" lat="51.128575"><ele>53.2</ele><time>2022-03-27T08:39:18.000Z</time></trkpt><trkpt lon="5.442174" lat="51.128633"><ele>53</ele><time>2022-03-27T08:39:19.000Z</time></trkpt><trkpt lon="5.44224" lat="51.128693"><ele>53</ele><time>2022-03-27T08:39:20.000Z</time></trkpt><trkpt lon="5.442309" lat="51.128751"><ele>52.8</ele><time>2022-03-27T08:39:21.000Z</time></trkpt><trkpt lon="5.442383" lat="51.128812"><ele>52.8</ele><time>2022-03-27T08:39:22.000Z</time></trkpt><trkpt lon="5.442454" lat="51.128872"><ele>52.6</ele><time>2022-03-27T08:39:23.000Z</time></trkpt><trkpt lon="5.442526" lat="51.128934"><ele>52.6</ele><time>2022-03-27T08:39:24.000Z</time></trkpt><trkpt lon="5.442598" lat="51.128994"><ele>52.6</ele><time>2022-03-27T08:39:25.000Z</time></trkpt><trkpt lon="5.442672" lat="51.129052"><ele>52.6</ele><time>2022-03-27T08:39:26.000Z</time></trkpt><trkpt lon="5.442746" lat="51.129113"><ele>52.6</ele><time>2022-03-27T08:39:27.000Z</time></trkpt><trkpt lon="5.442816" lat="51.129173"><ele>52.6</ele><time>2022-03-27T08:39:28.000Z</time></trkpt><trkpt lon="5.442884" lat="51.129231"><ele>52.6</ele><time>2022-03-27T08:39:29.000Z</time></trkpt><trkpt lon="5.442951" lat="51.129281"><ele>52.4</ele><time>2022-03-27T08:39:30.000Z</time></trkpt><trkpt lon="5.443015" lat="51.129331"><ele>52.4</ele><time>2022-03-27T08:39:31.000Z</time></trkpt><trkpt lon="5.44308" lat="51.129388"><ele>52.2</ele><time>2022-03-27T08:39:32.000Z</time></trkpt><trkpt lon="5.44314" lat="51.129441"><ele>52</ele><time>2022-03-27T08:39:33.000Z</time></trkpt><trkpt lon="5.443194" lat="51.129487"><ele>51.8</ele><time>2022-03-27T08:39:34.000Z</time></trkpt><trkpt lon="5.443249" lat="51.12954"><ele>51.8</ele><time>2022-03-27T08:39:35.000Z</time></trkpt><trkpt lon="5.44331" lat="51.12959"><ele>51.6</ele><time>2022-03-27T08:39:36.000Z</time></trkpt><trkpt lon="5.443386" lat="51.129636"><ele>51.6</ele><time>2022-03-27T08:39:37.000Z</time></trkpt><trkpt lon="5.443461" lat="51.129682"><ele>51.6</ele><time>2022-03-27T08:39:38.000Z</time></trkpt><trkpt lon="5.443539" lat="51.129727"><ele>51.6</ele><time>2022-03-27T08:39:39.000Z</time></trkpt><trkpt lon="5.44362" lat="51.129774"><ele>51.6</ele><time>2022-03-27T08:39:40.000Z</time></trkpt><trkpt lon="5.443706" lat="51.129816"><ele>51.6</ele><time>2022-03-27T08:39:41.000Z</time></trkpt><trkpt lon="5.443795" lat="51.129854"><ele>51.6</ele><time>2022-03-27T08:39:42.000Z</time></trkpt><trkpt lon="5.443892" lat="51.129896"><ele>51.8</ele><time>2022-03-27T08:39:43.000Z</time></trkpt><trkpt lon="5.443993" lat="51.129934"><ele>51.8</ele><time>2022-03-27T08:39:44.000Z</time></trkpt><trkpt lon="5.44409" lat="51.129968"><ele>52</ele><time>2022-03-27T08:39:45.000Z</time></trkpt><trkpt lon="5.444193" lat="51.129999"><ele>52</ele><time>2022-03-27T08:39:46.000Z</time></trkpt><trkpt lon="5.444295" lat="51.13003"><ele>52</ele><time>2022-03-27T08:39:47.000Z</time></trkpt><trkpt lon="5.444392" lat="51.130057"><ele>52.2</ele><time>2022-03-27T08:39:48.000Z</time></trkpt><trkpt lon="5.444495" lat="51.130087"><ele>52.4</ele><time>2022-03-27T08:39:49.000Z</time></trkpt><trkpt lon="5.444596" lat="51.130121"><ele>52.6</ele><time>2022-03-27T08:39:50.000Z</time></trkpt><trkpt lon="5.444694" lat="51.130148"><ele>52.8</ele><time>2022-03-27T08:39:51.000Z</time></trkpt><trkpt lon="5.444793" lat="51.130186"><ele>53</ele><time>2022-03-27T08:39:52.000Z</time></trkpt><trkpt lon="5.444892" lat="51.13022"><ele>53</ele><time>2022-03-27T08:39:53.000Z</time></trkpt><trkpt lon="5.444995" lat="51.130255"><ele>53.2</ele><time>2022-03-27T08:39:54.000Z</time></trkpt><trkpt lon="5.445089" lat="51.130285"><ele>53.2</ele><time>2022-03-27T08:39:55.000Z</time></trkpt><trkpt lon="5.445185" lat="51.130316"><ele>53.4</ele><time>2022-03-27T08:39:56.000Z</time></trkpt><trkpt lon="5.445277" lat="51.130347"><ele>53.4</ele><time>2022-03-27T08:39:57.000Z</time></trkpt><trkpt lon="5.445372" lat="51.130381"><ele>53.6</ele><time>2022-03-27T08:39:58.000Z</time></trkpt><trkpt lon="5.445466" lat="51.130411"><ele>53.8</ele><time>2022-03-27T08:39:59.000Z</time></trkpt><trkpt lon="5.445559" lat="51.130438"><ele>54</ele><time>2022-03-27T08:40:00.000Z</time></trkpt><trkpt lon="5.445653" lat="51.130469"><ele>54</ele><time>2022-03-27T08:40:01.000Z</time></trkpt><trkpt lon="5.445746" lat="51.130495"><ele>54.2</ele><time>2022-03-27T08:40:02.000Z</time></trkpt><trkpt lon="5.445837" lat="51.130525"><ele>54.4</ele><time>2022-03-27T08:40:03.000Z</time></trkpt><trkpt lon="5.445932" lat="51.130553"><ele>54.4</ele><time>2022-03-27T08:40:04.000Z</time></trkpt><trkpt lon="5.446022" lat="51.130583"><ele>54.4</ele><time>2022-03-27T08:40:05.000Z</time></trkpt><trkpt lon="5.446114" lat="51.130609"><ele>54.6</ele><time>2022-03-27T08:40:06.000Z</time></trkpt><trkpt lon="5.446204" lat="51.130635"><ele>54.6</ele><time>2022-03-27T08:40:07.000Z</time></trkpt><trkpt lon="5.446302" lat="51.130667"><ele>54.6</ele><time>2022-03-27T08:40:08.000Z</time></trkpt><trkpt lon="5.446394" lat="51.130694"><ele>54.6</ele><time>2022-03-27T08:40:09.000Z</time></trkpt><trkpt lon="5.446487" lat="51.130724"><ele>54.8</ele><time>2022-03-27T08:40:10.000Z</time></trkpt><trkpt lon="5.446578" lat="51.130755"><ele>54.8</ele><time>2022-03-27T08:40:11.000Z</time></trkpt><trkpt lon="5.446672" lat="51.130785"><ele>54.8</ele><time>2022-03-27T08:40:12.000Z</time></trkpt><trkpt lon="5.446764" lat="51.130811"><ele>55</ele><time>2022-03-27T08:40:13.000Z</time></trkpt><trkpt lon="5.446861" lat="51.130842"><ele>55.2</ele><time>2022-03-27T08:40:14.000Z</time></trkpt><trkpt lon="5.446954" lat="51.130873"><ele>55.2</ele><time>2022-03-27T08:40:15.000Z</time></trkpt><trkpt lon="5.447048" lat="51.1309"><ele>55.2</ele><time>2022-03-27T08:40:16.000Z</time></trkpt><trkpt lon="5.447139" lat="51.13093"><ele>55.4</ele><time>2022-03-27T08:40:17.000Z</time></trkpt><trkpt lon="5.447233" lat="51.130957"><ele>55.2</ele><time>2022-03-27T08:40:18.000Z</time></trkpt><trkpt lon="5.447325" lat="51.130984"><ele>55.2</ele><time>2022-03-27T08:40:19.000Z</time></trkpt><trkpt lon="5.447422" lat="51.131014"><ele>55.2</ele><time>2022-03-27T08:40:20.000Z</time></trkpt><trkpt lon="5.44752" lat="51.131041"><ele>55.2</ele><time>2022-03-27T08:40:21.000Z</time></trkpt><trkpt lon="5.447618" lat="51.131071"><ele>55.2</ele><time>2022-03-27T08:40:22.000Z</time></trkpt><trkpt lon="5.447717" lat="51.131098"><ele>55.2</ele><time>2022-03-27T08:40:23.000Z</time></trkpt><trkpt lon="5.447818" lat="51.131125"><ele>55.2</ele><time>2022-03-27T08:40:24.000Z</time></trkpt><trkpt lon="5.447917" lat="51.131152"><ele>55.2</ele><time>2022-03-27T08:40:25.000Z</time></trkpt><trkpt lon="5.448015" lat="51.131178"><ele>55.2</ele><time>2022-03-27T08:40:26.000Z</time></trkpt><trkpt lon="5.448114" lat="51.131205"><ele>55.2</ele><time>2022-03-27T08:40:27.000Z</time></trkpt><trkpt lon="5.44821" lat="51.131232"><ele>55.2</ele><time>2022-03-27T08:40:28.000Z</time></trkpt><trkpt lon="5.448307" lat="51.131258"><ele>55.2</ele><time>2022-03-27T08:40:29.000Z</time></trkpt><trkpt lon="5.448406" lat="51.131285"><ele>55.2</ele><time>2022-03-27T08:40:30.000Z</time></trkpt><trkpt lon="5.448506" lat="51.131305"><ele>55.2</ele><time>2022-03-27T08:40:31.000Z</time></trkpt><trkpt lon="5.448602" lat="51.131335"><ele>55.2</ele><time>2022-03-27T08:40:32.000Z</time></trkpt><trkpt lon="5.448696" lat="51.131358"><ele>55.2</ele><time>2022-03-27T08:40:33.000Z</time></trkpt><trkpt lon="5.44879" lat="51.131384"><ele>55</ele><time>2022-03-27T08:40:34.000Z</time></trkpt><trkpt lon="5.448884" lat="51.131407"><ele>55</ele><time>2022-03-27T08:40:35.000Z</time></trkpt><trkpt lon="5.44898" lat="51.13143"><ele>55</ele><time>2022-03-27T08:40:36.000Z</time></trkpt><trkpt lon="5.449077" lat="51.131453"><ele>55.2</ele><time>2022-03-27T08:40:37.000Z</time></trkpt><trkpt lon="5.449175" lat="51.131473"><ele>55.2</ele><time>2022-03-27T08:40:38.000Z</time></trkpt><trkpt lon="5.449271" lat="51.131495"><ele>55.4</ele><time>2022-03-27T08:40:39.000Z</time></trkpt><trkpt lon="5.449369" lat="51.131518"><ele>55.4</ele><time>2022-03-27T08:40:40.000Z</time></trkpt><trkpt lon="5.449464" lat="51.131541"><ele>55.4</ele><time>2022-03-27T08:40:41.000Z</time></trkpt><trkpt lon="5.44956" lat="51.131564"><ele>55.4</ele><time>2022-03-27T08:40:42.000Z</time></trkpt><trkpt lon="5.449651" lat="51.131583"><ele>55.6</ele><time>2022-03-27T08:40:43.000Z</time></trkpt><trkpt lon="5.449747" lat="51.131602"><ele>55.6</ele><time>2022-03-27T08:40:44.000Z</time></trkpt><trkpt lon="5.449839" lat="51.131625"><ele>55.6</ele><time>2022-03-27T08:40:45.000Z</time></trkpt><trkpt lon="5.449927" lat="51.131644"><ele>55.6</ele><time>2022-03-27T08:40:46.000Z</time></trkpt><trkpt lon="5.450011" lat="51.131667"><ele>55.8</ele><time>2022-03-27T08:40:47.000Z</time></trkpt><trkpt lon="5.450094" lat="51.131689"><ele>55.6</ele><time>2022-03-27T08:40:48.000Z</time></trkpt><trkpt lon="5.450179" lat="51.131713"><ele>55.8</ele><time>2022-03-27T08:40:49.000Z</time></trkpt><trkpt lon="5.450263" lat="51.131735"><ele>55.8</ele><time>2022-03-27T08:40:50.000Z</time></trkpt><trkpt lon="5.450346" lat="51.131758"><ele>55.8</ele><time>2022-03-27T08:40:51.000Z</time></trkpt><trkpt lon="5.450424" lat="51.131778"><ele>55.8</ele><time>2022-03-27T08:40:52.000Z</time></trkpt><trkpt lon="5.450504" lat="51.1318"><ele>56</ele><time>2022-03-27T08:40:53.000Z</time></trkpt><trkpt lon="5.450578" lat="51.13182"><ele>56</ele><time>2022-03-27T08:40:54.000Z</time></trkpt><trkpt lon="5.450648" lat="51.131842"><ele>56</ele><time>2022-03-27T08:40:55.000Z</time></trkpt><trkpt lon="5.45072" lat="51.131858"><ele>56</ele><time>2022-03-27T08:40:56.000Z</time></trkpt><trkpt lon="5.450788" lat="51.131866"><ele>56</ele><time>2022-03-27T08:40:57.000Z</time></trkpt><trkpt lon="5.450847" lat="51.131866"><ele>56</ele><time>2022-03-27T08:40:58.000Z</time></trkpt><trkpt lon="5.450902" lat="51.131841"><ele>56</ele><time>2022-03-27T08:40:59.000Z</time></trkpt><trkpt lon="5.450948" lat="51.131801"><ele>55.8</ele><time>2022-03-27T08:41:00.000Z</time></trkpt><trkpt lon="5.450994" lat="51.131748"><ele>55.8</ele><time>2022-03-27T08:41:01.000Z</time></trkpt><trkpt lon="5.451038" lat="51.13169"><ele>55.8</ele><time>2022-03-27T08:41:02.000Z</time></trkpt><trkpt lon="5.451087" lat="51.131633"><ele>55.8</ele><time>2022-03-27T08:41:03.000Z</time></trkpt><trkpt lon="5.451139" lat="51.131576"><ele>55.8</ele><time>2022-03-27T08:41:04.000Z</time></trkpt><trkpt lon="5.451193" lat="51.131523"><ele>55.8</ele><time>2022-03-27T08:41:05.000Z</time></trkpt><trkpt lon="5.451251" lat="51.131465"><ele>55.8</ele><time>2022-03-27T08:41:06.000Z</time></trkpt><trkpt lon="5.451308" lat="51.131412"><ele>55.6</ele><time>2022-03-27T08:41:07.000Z</time></trkpt><trkpt lon="5.451367" lat="51.131358"><ele>55.6</ele><time>2022-03-27T08:41:08.000Z</time></trkpt><trkpt lon="5.451425" lat="51.13131"><ele>55.6</ele><time>2022-03-27T08:41:09.000Z</time></trkpt><trkpt lon="5.451487" lat="51.131259"><ele>55.4</ele><time>2022-03-27T08:41:10.000Z</time></trkpt><trkpt lon="5.451549" lat="51.131209"><ele>55.4</ele><time>2022-03-27T08:41:11.000Z</time></trkpt><trkpt lon="5.451611" lat="51.131159"><ele>55.4</ele><time>2022-03-27T08:41:12.000Z</time></trkpt><trkpt lon="5.451667" lat="51.131115"><ele>55.4</ele><time>2022-03-27T08:41:13.000Z</time></trkpt><trkpt lon="5.451722" lat="51.131064"><ele>55.4</ele><time>2022-03-27T08:41:14.000Z</time></trkpt><trkpt lon="5.451761" lat="51.131011"><ele>55.4</ele><time>2022-03-27T08:41:15.000Z</time></trkpt><trkpt lon="5.45176" lat="51.130958"><ele>55.4</ele><time>2022-03-27T08:41:16.000Z</time></trkpt><trkpt lon="5.451731" lat="51.130908"><ele>55.4</ele><time>2022-03-27T08:41:17.000Z</time></trkpt><trkpt lon="5.451681" lat="51.130862"><ele>55.4</ele><time>2022-03-27T08:41:18.000Z</time></trkpt><trkpt lon="5.451608" lat="51.13082"><ele>55.4</ele><time>2022-03-27T08:41:19.000Z</time></trkpt><trkpt lon="5.451517" lat="51.130781"><ele>55.4</ele><time>2022-03-27T08:41:20.000Z</time></trkpt><trkpt lon="5.451423" lat="51.13074"><ele>55.4</ele><time>2022-03-27T08:41:21.000Z</time></trkpt><trkpt lon="5.451329" lat="51.130694"><ele>55.4</ele><time>2022-03-27T08:41:22.000Z</time></trkpt><trkpt lon="5.451238" lat="51.130648"><ele>55.4</ele><time>2022-03-27T08:41:23.000Z</time></trkpt><trkpt lon="5.451154" lat="51.130599"><ele>55.4</ele><time>2022-03-27T08:41:24.000Z</time></trkpt><trkpt lon="5.451076" lat="51.13055"><ele>55.4</ele><time>2022-03-27T08:41:25.000Z</time></trkpt><trkpt lon="5.451" lat="51.130497"><ele>55.4</ele><time>2022-03-27T08:41:26.000Z</time></trkpt><trkpt lon="5.450925" lat="51.130443"><ele>55.2</ele><time>2022-03-27T08:41:27.000Z</time></trkpt><trkpt lon="5.450848" lat="51.13039"><ele>55.2</ele><time>2022-03-27T08:41:28.000Z</time></trkpt><trkpt lon="5.450766" lat="51.130339"><ele>55.2</ele><time>2022-03-27T08:41:29.000Z</time></trkpt><trkpt lon="5.450685" lat="51.130294"><ele>55.2</ele><time>2022-03-27T08:41:30.000Z</time></trkpt><trkpt lon="5.450599" lat="51.130248"><ele>55.2</ele><time>2022-03-27T08:41:31.000Z</time></trkpt><trkpt lon="5.450514" lat="51.130209"><ele>55.2</ele><time>2022-03-27T08:41:32.000Z</time></trkpt><trkpt lon="5.450424" lat="51.130171"><ele>55.2</ele><time>2022-03-27T08:41:33.000Z</time></trkpt><trkpt lon="5.450329" lat="51.130133"><ele>55</ele><time>2022-03-27T08:41:34.000Z</time></trkpt><trkpt lon="5.450229" lat="51.130098"><ele>55</ele><time>2022-03-27T08:41:35.000Z</time></trkpt><trkpt lon="5.450129" lat="51.13006"><ele>55</ele><time>2022-03-27T08:41:36.000Z</time></trkpt><trkpt lon="5.450025" lat="51.130022"><ele>55</ele><time>2022-03-27T08:41:37.000Z</time></trkpt><trkpt lon="5.449921" lat="51.12998"><ele>55</ele><time>2022-03-27T08:41:38.000Z</time></trkpt><trkpt lon="5.449827" lat="51.129946"><ele>54.8</ele><time>2022-03-27T08:41:39.000Z</time></trkpt><trkpt lon="5.449721" lat="51.129901"><ele>54.8</ele><time>2022-03-27T08:41:40.000Z</time></trkpt><trkpt lon="5.449627" lat="51.129859"><ele>54.6</ele><time>2022-03-27T08:41:41.000Z</time></trkpt><trkpt lon="5.449532" lat="51.129821"><ele>54.6</ele><time>2022-03-27T08:41:42.000Z</time></trkpt><trkpt lon="5.44943" lat="51.129782"><ele>54.6</ele><time>2022-03-27T08:41:43.000Z</time></trkpt><trkpt lon="5.449329" lat="51.129747"><ele>54.8</ele><time>2022-03-27T08:41:44.000Z</time></trkpt><trkpt lon="5.449227" lat="51.129713"><ele>54.8</ele><time>2022-03-27T08:41:45.000Z</time></trkpt><trkpt lon="5.449127" lat="51.129675"><ele>54.6</ele><time>2022-03-27T08:41:46.000Z</time></trkpt><trkpt lon="5.449028" lat="51.129637"><ele>54.6</ele><time>2022-03-27T08:41:47.000Z</time></trkpt><trkpt lon="5.448936" lat="51.129603"><ele>54.6</ele><time>2022-03-27T08:41:48.000Z</time></trkpt><trkpt lon="5.448843" lat="51.129572"><ele>54.6</ele><time>2022-03-27T08:41:49.000Z</time></trkpt><trkpt lon="5.448762" lat="51.129534"><ele>54.6</ele><time>2022-03-27T08:41:50.000Z</time></trkpt><trkpt lon="5.448692" lat="51.129492"><ele>54.6</ele><time>2022-03-27T08:41:51.000Z</time></trkpt><trkpt lon="5.448649" lat="51.129446"><ele>54.6</ele><time>2022-03-27T08:41:52.000Z</time></trkpt><trkpt lon="5.448647" lat="51.129394"><ele>54.6</ele><time>2022-03-27T08:41:53.000Z</time></trkpt><trkpt lon="5.44868" lat="51.129337"><ele>54.6</ele><time>2022-03-27T08:41:54.000Z</time></trkpt><trkpt lon="5.448728" lat="51.12928"><ele>54.6</ele><time>2022-03-27T08:41:55.000Z</time></trkpt><trkpt lon="5.448785" lat="51.129218"><ele>54.6</ele><time>2022-03-27T08:41:56.000Z</time></trkpt><trkpt lon="5.448842" lat="51.129157"><ele>54.6</ele><time>2022-03-27T08:41:57.000Z</time></trkpt><trkpt lon="5.448897" lat="51.129096"><ele>54.8</ele><time>2022-03-27T08:41:58.000Z</time></trkpt><trkpt lon="5.448955" lat="51.129032"><ele>54.8</ele><time>2022-03-27T08:41:59.000Z</time></trkpt><trkpt lon="5.449013" lat="51.128971"><ele>54.8</ele><time>2022-03-27T08:42:00.000Z</time></trkpt><trkpt lon="5.449074" lat="51.128913"><ele>54.8</ele><time>2022-03-27T08:42:01.000Z</time></trkpt><trkpt lon="5.449132" lat="51.128852"><ele>54.8</ele><time>2022-03-27T08:42:02.000Z</time></trkpt><trkpt lon="5.449186" lat="51.128793"><ele>54.8</ele><time>2022-03-27T08:42:03.000Z</time></trkpt><trkpt lon="5.449244" lat="51.12873"><ele>54.8</ele><time>2022-03-27T08:42:04.000Z</time></trkpt><trkpt lon="5.449308" lat="51.128669"><ele>55</ele><time>2022-03-27T08:42:05.000Z</time></trkpt><trkpt lon="5.449368" lat="51.128609"><ele>55</ele><time>2022-03-27T08:42:06.000Z</time></trkpt><trkpt lon="5.44943" lat="51.128543"><ele>55</ele><time>2022-03-27T08:42:07.000Z</time></trkpt><trkpt lon="5.44949" lat="51.128482"><ele>55</ele><time>2022-03-27T08:42:08.000Z</time></trkpt><trkpt lon="5.449548" lat="51.128423"><ele>55</ele><time>2022-03-27T08:42:09.000Z</time></trkpt><trkpt lon="5.449609" lat="51.12836"><ele>55.2</ele><time>2022-03-27T08:42:10.000Z</time></trkpt><trkpt lon="5.449667" lat="51.128303"><ele>55.2</ele><time>2022-03-27T08:42:11.000Z</time></trkpt><trkpt lon="5.449722" lat="51.128245"><ele>55.2</ele><time>2022-03-27T08:42:12.000Z</time></trkpt><trkpt lon="5.449779" lat="51.128192"><ele>55.2</ele><time>2022-03-27T08:42:13.000Z</time></trkpt><trkpt lon="5.449831" lat="51.128138"><ele>55.4</ele><time>2022-03-27T08:42:14.000Z</time></trkpt><trkpt lon="5.449882" lat="51.128089"><ele>55.4</ele><time>2022-03-27T08:42:15.000Z</time></trkpt><trkpt lon="5.449931" lat="51.128039"><ele>55.4</ele><time>2022-03-27T08:42:16.000Z</time></trkpt><trkpt lon="5.449979" lat="51.127993"><ele>55.4</ele><time>2022-03-27T08:42:17.000Z</time></trkpt><trkpt lon="5.450027" lat="51.127955"><ele>55.6</ele><time>2022-03-27T08:42:18.000Z</time></trkpt><trkpt lon="5.450081" lat="51.127925"><ele>55.6</ele><time>2022-03-27T08:42:19.000Z</time></trkpt><trkpt lon="5.45015" lat="51.127908"><ele>55.6</ele><time>2022-03-27T08:42:20.000Z</time></trkpt><trkpt lon="5.45023" lat="51.127918"><ele>55.6</ele><time>2022-03-27T08:42:21.000Z</time></trkpt><trkpt lon="5.450308" lat="51.127943"><ele>55.6</ele><time>2022-03-27T08:42:22.000Z</time></trkpt><trkpt lon="5.450388" lat="51.127981"><ele>55.6</ele><time>2022-03-27T08:42:23.000Z</time></trkpt><trkpt lon="5.450466" lat="51.128026"><ele>55.6</ele><time>2022-03-27T08:42:24.000Z</time></trkpt><trkpt lon="5.450544" lat="51.128079"><ele>55.4</ele><time>2022-03-27T08:42:25.000Z</time></trkpt><trkpt lon="5.450626" lat="51.128133"><ele>55.4</ele><time>2022-03-27T08:42:26.000Z</time></trkpt><trkpt lon="5.450706" lat="51.128181"><ele>55.4</ele><time>2022-03-27T08:42:27.000Z</time></trkpt><trkpt lon="5.450791" lat="51.128231"><ele>55.4</ele><time>2022-03-27T08:42:28.000Z</time></trkpt><trkpt lon="5.450879" lat="51.128281"><ele>55.6</ele><time>2022-03-27T08:42:29.000Z</time></trkpt><trkpt lon="5.450975" lat="51.128324"><ele>55.6</ele><time>2022-03-27T08:42:30.000Z</time></trkpt><trkpt lon="5.451073" lat="51.128363"><ele>55.4</ele><time>2022-03-27T08:42:31.000Z</time></trkpt><trkpt lon="5.451169" lat="51.128401"><ele>55.4</ele><time>2022-03-27T08:42:32.000Z</time></trkpt><trkpt lon="5.45126" lat="51.128439"><ele>55.4</ele><time>2022-03-27T08:42:33.000Z</time></trkpt><trkpt lon="5.451352" lat="51.128477"><ele>55.4</ele><time>2022-03-27T08:42:34.000Z</time></trkpt><trkpt lon="5.451443" lat="51.128518"><ele>55.4</ele><time>2022-03-27T08:42:35.000Z</time></trkpt><trkpt lon="5.451535" lat="51.128557"><ele>55.4</ele><time>2022-03-27T08:42:36.000Z</time></trkpt><trkpt lon="5.451625" lat="51.128594"><ele>55.4</ele><time>2022-03-27T08:42:37.000Z</time></trkpt><trkpt lon="5.451716" lat="51.128633"><ele>55.4</ele><time>2022-03-27T08:42:38.000Z</time></trkpt><trkpt lon="5.451792" lat="51.128665"><ele>55.4</ele><time>2022-03-27T08:42:39.000Z</time></trkpt><trkpt lon="5.451905" lat="51.128703"><ele>55.4</ele><time>2022-03-27T08:42:40.000Z</time></trkpt><trkpt lon="5.452003" lat="51.128737"><ele>55.4</ele><time>2022-03-27T08:42:41.000Z</time></trkpt><trkpt lon="5.452101" lat="51.128764"><ele>55.4</ele><time>2022-03-27T08:42:42.000Z</time></trkpt><trkpt lon="5.452197" lat="51.128794"><ele>55.4</ele><time>2022-03-27T08:42:43.000Z</time></trkpt><trkpt lon="5.452293" lat="51.128824"><ele>55.4</ele><time>2022-03-27T08:42:44.000Z</time></trkpt><trkpt lon="5.452391" lat="51.128855"><ele>55.4</ele><time>2022-03-27T08:42:45.000Z</time></trkpt><trkpt lon="5.45249" lat="51.128882"><ele>55.6</ele><time>2022-03-27T08:42:46.000Z</time></trkpt><trkpt lon="5.452587" lat="51.128916"><ele>55.6</ele><time>2022-03-27T08:42:47.000Z</time></trkpt><trkpt lon="5.452685" lat="51.128947"><ele>55.6</ele><time>2022-03-27T08:42:48.000Z</time></trkpt><trkpt lon="5.452779" lat="51.128973"><ele>55.6</ele><time>2022-03-27T08:42:49.000Z</time></trkpt><trkpt lon="5.452873" lat="51.129003"><ele>55.6</ele><time>2022-03-27T08:42:50.000Z</time></trkpt><trkpt lon="5.452969" lat="51.129031"><ele>55.6</ele><time>2022-03-27T08:42:51.000Z</time></trkpt><trkpt lon="5.453062" lat="51.129057"><ele>55.6</ele><time>2022-03-27T08:42:52.000Z</time></trkpt><trkpt lon="5.453152" lat="51.129084"><ele>55.6</ele><time>2022-03-27T08:42:53.000Z</time></trkpt><trkpt lon="5.453247" lat="51.129111"><ele>55.6</ele><time>2022-03-27T08:42:54.000Z</time></trkpt><trkpt lon="5.453341" lat="51.129134"><ele>55.6</ele><time>2022-03-27T08:42:55.000Z</time></trkpt><trkpt lon="5.453434" lat="51.12916"><ele>55.8</ele><time>2022-03-27T08:42:56.000Z</time></trkpt><trkpt lon="5.453526" lat="51.129183"><ele>55.8</ele><time>2022-03-27T08:42:57.000Z</time></trkpt><trkpt lon="5.453621" lat="51.12921"><ele>55.8</ele><time>2022-03-27T08:42:58.000Z</time></trkpt><trkpt lon="5.453715" lat="51.129237"><ele>55.8</ele><time>2022-03-27T08:42:59.000Z</time></trkpt><trkpt lon="5.453809" lat="51.12926"><ele>55.8</ele><time>2022-03-27T08:43:00.000Z</time></trkpt><trkpt lon="5.453901" lat="51.129283"><ele>55.8</ele><time>2022-03-27T08:43:01.000Z</time></trkpt><trkpt lon="5.453989" lat="51.129305"><ele>56</ele><time>2022-03-27T08:43:02.000Z</time></trkpt><trkpt lon="5.454079" lat="51.129317"><ele>56</ele><time>2022-03-27T08:43:03.000Z</time></trkpt><trkpt lon="5.45417" lat="51.129333"><ele>56</ele><time>2022-03-27T08:43:04.000Z</time></trkpt><trkpt lon="5.454256" lat="51.129344"><ele>56</ele><time>2022-03-27T08:43:05.000Z</time></trkpt><trkpt lon="5.45434" lat="51.129356"><ele>56.2</ele><time>2022-03-27T08:43:06.000Z</time></trkpt><trkpt lon="5.454423" lat="51.129367"><ele>56.2</ele><time>2022-03-27T08:43:07.000Z</time></trkpt><trkpt lon="5.454498" lat="51.129379"><ele>56.2</ele><time>2022-03-27T08:43:08.000Z</time></trkpt><trkpt lon="5.454564" lat="51.12939"><ele>56.2</ele><time>2022-03-27T08:43:09.000Z</time></trkpt><trkpt lon="5.45463" lat="51.129409"><ele>56.2</ele><time>2022-03-27T08:43:10.000Z</time></trkpt><trkpt lon="5.454683" lat="51.129435"><ele>56.2</ele><time>2022-03-27T08:43:11.000Z</time></trkpt><trkpt lon="5.454724" lat="51.129472"><ele>56.2</ele><time>2022-03-27T08:43:12.000Z</time></trkpt><trkpt lon="5.454742" lat="51.129518"><ele>56.2</ele><time>2022-03-27T08:43:13.000Z</time></trkpt><trkpt lon="5.454734" lat="51.129574"><ele>56.2</ele><time>2022-03-27T08:43:14.000Z</time></trkpt><trkpt lon="5.454713" lat="51.129635"><ele>56.2</ele><time>2022-03-27T08:43:15.000Z</time></trkpt><trkpt lon="5.45469" lat="51.1297"><ele>56.2</ele><time>2022-03-27T08:43:16.000Z</time></trkpt><trkpt lon="5.454668" lat="51.129764"><ele>56.2</ele><time>2022-03-27T08:43:17.000Z</time></trkpt><trkpt lon="5.454646" lat="51.12983"><ele>56.4</ele><time>2022-03-27T08:43:18.000Z</time></trkpt><trkpt lon="5.454624" lat="51.129895"><ele>56.4</ele><time>2022-03-27T08:43:19.000Z</time></trkpt><trkpt lon="5.454603" lat="51.12996"><ele>56.4</ele><time>2022-03-27T08:43:20.000Z</time></trkpt><trkpt lon="5.454584" lat="51.130016"><ele>56.4</ele><time>2022-03-27T08:43:21.000Z</time></trkpt><trkpt lon="5.454564" lat="51.130074"><ele>56.4</ele><time>2022-03-27T08:43:22.000Z</time></trkpt><trkpt lon="5.454544" lat="51.130131"><ele>56.4</ele><time>2022-03-27T08:43:23.000Z</time></trkpt><trkpt lon="5.454526" lat="51.130189"><ele>56.2</ele><time>2022-03-27T08:43:24.000Z</time></trkpt><trkpt lon="5.454512" lat="51.130239"><ele>56.2</ele><time>2022-03-27T08:43:25.000Z</time></trkpt><trkpt lon="5.454508" lat="51.130288"><ele>56</ele><time>2022-03-27T08:43:26.000Z</time></trkpt><trkpt lon="5.454519" lat="51.130337"><ele>56.2</ele><time>2022-03-27T08:43:27.000Z</time></trkpt><trkpt lon="5.454545" lat="51.130383"><ele>56.2</ele><time>2022-03-27T08:43:28.000Z</time></trkpt><trkpt lon="5.454594" lat="51.130419"><ele>56.2</ele><time>2022-03-27T08:43:29.000Z</time></trkpt><trkpt lon="5.454674" lat="51.130432"><ele>56.2</ele><time>2022-03-27T08:43:30.000Z</time></trkpt><trkpt lon="5.454772" lat="51.130429"><ele>56.2</ele><time>2022-03-27T08:43:31.000Z</time></trkpt><trkpt lon="5.454874" lat="51.130425"><ele>56.2</ele><time>2022-03-27T08:43:32.000Z</time></trkpt><trkpt lon="5.454993" lat="51.130417"><ele>56.2</ele><time>2022-03-27T08:43:33.000Z</time></trkpt><trkpt lon="5.455114" lat="51.130413"><ele>56</ele><time>2022-03-27T08:43:34.000Z</time></trkpt><trkpt lon="5.45523" lat="51.130413"><ele>56</ele><time>2022-03-27T08:43:35.000Z</time></trkpt><trkpt lon="5.45535" lat="51.130413"><ele>56</ele><time>2022-03-27T08:43:36.000Z</time></trkpt><trkpt lon="5.455466" lat="51.130417"><ele>56</ele><time>2022-03-27T08:43:37.000Z</time></trkpt><trkpt lon="5.455581" lat="51.13042"><ele>56</ele><time>2022-03-27T08:43:38.000Z</time></trkpt><trkpt lon="5.455686" lat="51.130424"><ele>56</ele><time>2022-03-27T08:43:39.000Z</time></trkpt><trkpt lon="5.455809" lat="51.130428"><ele>56</ele><time>2022-03-27T08:43:40.000Z</time></trkpt><trkpt lon="5.455922" lat="51.130432"><ele>56</ele><time>2022-03-27T08:43:41.000Z</time></trkpt><trkpt lon="5.456031" lat="51.130439"><ele>56</ele><time>2022-03-27T08:43:42.000Z</time></trkpt><trkpt lon="5.456137" lat="51.130443"><ele>56</ele><time>2022-03-27T08:43:43.000Z</time></trkpt><trkpt lon="5.456242" lat="51.130454"><ele>56</ele><time>2022-03-27T08:43:44.000Z</time></trkpt><trkpt lon="5.456349" lat="51.130462"><ele>56</ele><time>2022-03-27T08:43:45.000Z</time></trkpt><trkpt lon="5.456454" lat="51.13047"><ele>56</ele><time>2022-03-27T08:43:46.000Z</time></trkpt><trkpt lon="5.456563" lat="51.130478"><ele>56</ele><time>2022-03-27T08:43:47.000Z</time></trkpt><trkpt lon="5.456668" lat="51.130482"><ele>56</ele><time>2022-03-27T08:43:48.000Z</time></trkpt><trkpt lon="5.456771" lat="51.130489"><ele>56</ele><time>2022-03-27T08:43:49.000Z</time></trkpt><trkpt lon="5.456873" lat="51.130493"><ele>56</ele><time>2022-03-27T08:43:50.000Z</time></trkpt><trkpt lon="5.456976" lat="51.1305"><ele>56</ele><time>2022-03-27T08:43:51.000Z</time></trkpt><trkpt lon="5.457076" lat="51.130508"><ele>55.8</ele><time>2022-03-27T08:43:52.000Z</time></trkpt><trkpt lon="5.457174" lat="51.130526"><ele>55.8</ele><time>2022-03-27T08:43:53.000Z</time></trkpt><trkpt lon="5.457262" lat="51.130556"><ele>55.8</ele><time>2022-03-27T08:43:54.000Z</time></trkpt><trkpt lon="5.457335" lat="51.130598"><ele>55.6</ele><time>2022-03-27T08:43:55.000Z</time></trkpt><trkpt lon="5.45739" lat="51.130647"><ele>55.6</ele><time>2022-03-27T08:43:56.000Z</time></trkpt><trkpt lon="5.457436" lat="51.130697"><ele>55.6</ele><time>2022-03-27T08:43:57.000Z</time></trkpt><trkpt lon="5.45747" lat="51.130749"><ele>55.6</ele><time>2022-03-27T08:43:58.000Z</time></trkpt><trkpt lon="5.457495" lat="51.130799"><ele>55.4</ele><time>2022-03-27T08:43:59.000Z</time></trkpt><trkpt lon="5.457514" lat="51.130849"><ele>55.4</ele><time>2022-03-27T08:44:00.000Z</time></trkpt><trkpt lon="5.457529" lat="51.130902"><ele>55.4</ele><time>2022-03-27T08:44:01.000Z</time></trkpt><trkpt lon="5.457549" lat="51.130949"><ele>55.2</ele><time>2022-03-27T08:44:02.000Z</time></trkpt><trkpt lon="5.457583" lat="51.13099"><ele>55.2</ele><time>2022-03-27T08:44:03.000Z</time></trkpt><trkpt lon="5.457639" lat="51.131029"><ele>55.2</ele><time>2022-03-27T08:44:04.000Z</time></trkpt><trkpt lon="5.457716" lat="51.131053"><ele>55.2</ele><time>2022-03-27T08:44:05.000Z</time></trkpt><trkpt lon="5.457805" lat="51.131065"><ele>55.2</ele><time>2022-03-27T08:44:06.000Z</time></trkpt><trkpt lon="5.457899" lat="51.131073"><ele>55.2</ele><time>2022-03-27T08:44:07.000Z</time></trkpt><trkpt lon="5.457995" lat="51.131077"><ele>55.2</ele><time>2022-03-27T08:44:08.000Z</time></trkpt><trkpt lon="5.458095" lat="51.131077"><ele>55.2</ele><time>2022-03-27T08:44:09.000Z</time></trkpt><trkpt lon="5.458201" lat="51.13108"><ele>55.2</ele><time>2022-03-27T08:44:10.000Z</time></trkpt><trkpt lon="5.458297" lat="51.131088"><ele>55.2</ele><time>2022-03-27T08:44:11.000Z</time></trkpt><trkpt lon="5.458388" lat="51.131103"><ele>55</ele><time>2022-03-27T08:44:12.000Z</time></trkpt><trkpt lon="5.458478" lat="51.131114"><ele>55</ele><time>2022-03-27T08:44:13.000Z</time></trkpt><trkpt lon="5.458573" lat="51.131122"><ele>55</ele><time>2022-03-27T08:44:14.000Z</time></trkpt><trkpt lon="5.458666" lat="51.131123"><ele>55</ele><time>2022-03-27T08:44:15.000Z</time></trkpt><trkpt lon="5.458758" lat="51.131115"><ele>55</ele><time>2022-03-27T08:44:16.000Z</time></trkpt><trkpt lon="5.45885" lat="51.131104"><ele>55</ele><time>2022-03-27T08:44:17.000Z</time></trkpt><trkpt lon="5.458944" lat="51.1311"><ele>55</ele><time>2022-03-27T08:44:18.000Z</time></trkpt><trkpt lon="5.459037" lat="51.131096"><ele>55</ele><time>2022-03-27T08:44:19.000Z</time></trkpt><trkpt lon="5.459126" lat="51.131096"><ele>55</ele><time>2022-03-27T08:44:20.000Z</time></trkpt><trkpt lon="5.459215" lat="51.131099"><ele>55</ele><time>2022-03-27T08:44:21.000Z</time></trkpt><trkpt lon="5.459303" lat="51.131107"><ele>54.8</ele><time>2022-03-27T08:44:22.000Z</time></trkpt><trkpt lon="5.459393" lat="51.131125"><ele>54.8</ele><time>2022-03-27T08:44:23.000Z</time></trkpt><trkpt lon="5.459478" lat="51.131148"><ele>54.8</ele><time>2022-03-27T08:44:24.000Z</time></trkpt><trkpt lon="5.459558" lat="51.131171"><ele>54.8</ele><time>2022-03-27T08:44:25.000Z</time></trkpt><trkpt lon="5.459646" lat="51.131198"><ele>54.8</ele><time>2022-03-27T08:44:26.000Z</time></trkpt><trkpt lon="5.459733" lat="51.131217"><ele>54.8</ele><time>2022-03-27T08:44:27.000Z</time></trkpt><trkpt lon="5.459828" lat="51.131225"><ele>54.8</ele><time>2022-03-27T08:44:28.000Z</time></trkpt><trkpt lon="5.459935" lat="51.131229"><ele>54.8</ele><time>2022-03-27T08:44:29.000Z</time></trkpt><trkpt lon="5.460045" lat="51.131233"><ele>54.6</ele><time>2022-03-27T08:44:30.000Z</time></trkpt><trkpt lon="5.46016" lat="51.131244"><ele>54.6</ele><time>2022-03-27T08:44:31.000Z</time></trkpt><trkpt lon="5.460271" lat="51.131259"><ele>54.4</ele><time>2022-03-27T08:44:32.000Z</time></trkpt><trkpt lon="5.460379" lat="51.131277"><ele>54.4</ele><time>2022-03-27T08:44:33.000Z</time></trkpt><trkpt lon="5.460493" lat="51.131297"><ele>54.6</ele><time>2022-03-27T08:44:34.000Z</time></trkpt><trkpt lon="5.460603" lat="51.13132"><ele>54.6</ele><time>2022-03-27T08:44:35.000Z</time></trkpt><trkpt lon="5.460711" lat="51.131339"><ele>54.6</ele><time>2022-03-27T08:44:36.000Z</time></trkpt><trkpt lon="5.46082" lat="51.131354"><ele>54.6</ele><time>2022-03-27T08:44:37.000Z</time></trkpt><trkpt lon="5.460928" lat="51.131372"><ele>54.6</ele><time>2022-03-27T08:44:38.000Z</time></trkpt><trkpt lon="5.461042" lat="51.131392"><ele>54.4</ele><time>2022-03-27T08:44:39.000Z</time></trkpt><trkpt lon="5.461157" lat="51.131415"><ele>54.4</ele><time>2022-03-27T08:44:40.000Z</time></trkpt><trkpt lon="5.461262" lat="51.131435"><ele>54.4</ele><time>2022-03-27T08:44:41.000Z</time></trkpt><trkpt lon="5.461364" lat="51.131453"><ele>54.4</ele><time>2022-03-27T08:44:42.000Z</time></trkpt><trkpt lon="5.461466" lat="51.131469"><ele>54.6</ele><time>2022-03-27T08:44:43.000Z</time></trkpt><trkpt lon="5.461568" lat="51.131488"><ele>54.6</ele><time>2022-03-27T08:44:44.000Z</time></trkpt><trkpt lon="5.461664" lat="51.131503"><ele>54.4</ele><time>2022-03-27T08:44:45.000Z</time></trkpt><trkpt lon="5.461763" lat="51.131519"><ele>54.6</ele><time>2022-03-27T08:44:46.000Z</time></trkpt><trkpt lon="5.461858" lat="51.131541"><ele>54.6</ele><time>2022-03-27T08:44:47.000Z</time></trkpt><trkpt lon="5.461954" lat="51.131564"><ele>54.6</ele><time>2022-03-27T08:44:48.000Z</time></trkpt><trkpt lon="5.46205" lat="51.131583"><ele>54.8</ele><time>2022-03-27T08:44:49.000Z</time></trkpt><trkpt lon="5.462148" lat="51.131602"><ele>55</ele><time>2022-03-27T08:44:50.000Z</time></trkpt><trkpt lon="5.462246" lat="51.131621"><ele>55</ele><time>2022-03-27T08:44:51.000Z</time></trkpt><trkpt lon="5.462341" lat="51.13164"><ele>55</ele><time>2022-03-27T08:44:52.000Z</time></trkpt><trkpt lon="5.462436" lat="51.131663"><ele>55</ele><time>2022-03-27T08:44:53.000Z</time></trkpt><trkpt lon="5.462537" lat="51.131682"><ele>55</ele><time>2022-03-27T08:44:54.000Z</time></trkpt><trkpt lon="5.462637" lat="51.131698"><ele>55</ele><time>2022-03-27T08:44:55.000Z</time></trkpt><trkpt lon="5.462729" lat="51.131728"><ele>55</ele><time>2022-03-27T08:44:56.000Z</time></trkpt><trkpt lon="5.462825" lat="51.131751"><ele>55</ele><time>2022-03-27T08:44:57.000Z</time></trkpt><trkpt lon="5.462925" lat="51.131774"><ele>55</ele><time>2022-03-27T08:44:58.000Z</time></trkpt><trkpt lon="5.463023" lat="51.131797"><ele>55</ele><time>2022-03-27T08:44:59.000Z</time></trkpt><trkpt lon="5.463124" lat="51.131816"><ele>55</ele><time>2022-03-27T08:45:00.000Z</time></trkpt><trkpt lon="5.463225" lat="51.131835"><ele>55</ele><time>2022-03-27T08:45:01.000Z</time></trkpt><trkpt lon="5.463323" lat="51.131854"><ele>55</ele><time>2022-03-27T08:45:02.000Z</time></trkpt><trkpt lon="5.463418" lat="51.131872"><ele>55</ele><time>2022-03-27T08:45:03.000Z</time></trkpt><trkpt lon="5.463518" lat="51.131892"><ele>55</ele><time>2022-03-27T08:45:04.000Z</time></trkpt><trkpt lon="5.463618" lat="51.131907"><ele>55</ele><time>2022-03-27T08:45:05.000Z</time></trkpt><trkpt lon="5.463721" lat="51.13193"><ele>55</ele><time>2022-03-27T08:45:06.000Z</time></trkpt><trkpt lon="5.463824" lat="51.131946"><ele>55</ele><time>2022-03-27T08:45:07.000Z</time></trkpt><trkpt lon="5.46393" lat="51.131965"><ele>55</ele><time>2022-03-27T08:45:08.000Z</time></trkpt><trkpt lon="5.464027" lat="51.131982"><ele>55.2</ele><time>2022-03-27T08:45:09.000Z</time></trkpt><trkpt lon="5.464138" lat="51.132003"><ele>55.2</ele><time>2022-03-27T08:45:10.000Z</time></trkpt><trkpt lon="5.464241" lat="51.132022"><ele>55.2</ele><time>2022-03-27T08:45:11.000Z</time></trkpt><trkpt lon="5.464345" lat="51.132041"><ele>55.2</ele><time>2022-03-27T08:45:12.000Z</time></trkpt><trkpt lon="5.464451" lat="51.13206"><ele>55.2</ele><time>2022-03-27T08:45:13.000Z</time></trkpt><trkpt lon="5.464558" lat="51.132079"><ele>55.2</ele><time>2022-03-27T08:45:14.000Z</time></trkpt><trkpt lon="5.464663" lat="51.132098"><ele>55.2</ele><time>2022-03-27T08:45:15.000Z</time></trkpt><trkpt lon="5.46477" lat="51.132117"><ele>55.2</ele><time>2022-03-27T08:45:16.000Z</time></trkpt><trkpt lon="5.464874" lat="51.132133"><ele>55.2</ele><time>2022-03-27T08:45:17.000Z</time></trkpt><trkpt lon="5.464979" lat="51.132152"><ele>55.2</ele><time>2022-03-27T08:45:18.000Z</time></trkpt><trkpt lon="5.465083" lat="51.132171"><ele>55.2</ele><time>2022-03-27T08:45:19.000Z</time></trkpt><trkpt lon="5.465187" lat="51.132193"><ele>55.2</ele><time>2022-03-27T08:45:20.000Z</time></trkpt><trkpt lon="5.465293" lat="51.132213"><ele>55</ele><time>2022-03-27T08:45:21.000Z</time></trkpt><trkpt lon="5.465397" lat="51.132231"><ele>55</ele><time>2022-03-27T08:45:22.000Z</time></trkpt><trkpt lon="5.4655" lat="51.132254"><ele>55</ele><time>2022-03-27T08:45:23.000Z</time></trkpt><trkpt lon="5.465604" lat="51.132273"><ele>55</ele><time>2022-03-27T08:45:24.000Z</time></trkpt><trkpt lon="5.465706" lat="51.132296"><ele>55.2</ele><time>2022-03-27T08:45:25.000Z</time></trkpt><trkpt lon="5.465813" lat="51.132316"><ele>55.4</ele><time>2022-03-27T08:45:26.000Z</time></trkpt><trkpt lon="5.465916" lat="51.132334"><ele>55.4</ele><time>2022-03-27T08:45:27.000Z</time></trkpt><trkpt lon="5.466016" lat="51.132353"><ele>55.4</ele><time>2022-03-27T08:45:28.000Z</time></trkpt><trkpt lon="5.46612" lat="51.132369"><ele>55.6</ele><time>2022-03-27T08:45:29.000Z</time></trkpt><trkpt lon="5.466221" lat="51.132392"><ele>55.6</ele><time>2022-03-27T08:45:30.000Z</time></trkpt><trkpt lon="5.466322" lat="51.132407"><ele>55.6</ele><time>2022-03-27T08:45:31.000Z</time></trkpt><trkpt lon="5.466421" lat="51.132429"><ele>55.4</ele><time>2022-03-27T08:45:32.000Z</time></trkpt><trkpt lon="5.466524" lat="51.132449"><ele>55.4</ele><time>2022-03-27T08:45:33.000Z</time></trkpt><trkpt lon="5.466627" lat="51.132465"><ele>55.4</ele><time>2022-03-27T08:45:34.000Z</time></trkpt><trkpt lon="5.46673" lat="51.132484"><ele>55.4</ele><time>2022-03-27T08:45:35.000Z</time></trkpt><trkpt lon="5.466833" lat="51.132503"><ele>55.4</ele><time>2022-03-27T08:45:36.000Z</time></trkpt><trkpt lon="5.466935" lat="51.132522"><ele>55.6</ele><time>2022-03-27T08:45:37.000Z</time></trkpt><trkpt lon="5.467035" lat="51.13254"><ele>55.6</ele><time>2022-03-27T08:45:38.000Z</time></trkpt><trkpt lon="5.46714" lat="51.13256"><ele>55.6</ele><time>2022-03-27T08:45:39.000Z</time></trkpt><trkpt lon="5.467246" lat="51.132579"><ele>55.6</ele><time>2022-03-27T08:45:40.000Z</time></trkpt><trkpt lon="5.467349" lat="51.132594"><ele>55.6</ele><time>2022-03-27T08:45:41.000Z</time></trkpt><trkpt lon="5.467453" lat="51.132617"><ele>55.6</ele><time>2022-03-27T08:45:42.000Z</time></trkpt><trkpt lon="5.467555" lat="51.132636"><ele>55.6</ele><time>2022-03-27T08:45:43.000Z</time></trkpt><trkpt lon="5.46766" lat="51.132655"><ele>55.6</ele><time>2022-03-27T08:45:44.000Z</time></trkpt><trkpt lon="5.467762" lat="51.132674"><ele>55.8</ele><time>2022-03-27T08:45:45.000Z</time></trkpt><trkpt lon="5.467868" lat="51.13269"><ele>55.8</ele><time>2022-03-27T08:45:46.000Z</time></trkpt><trkpt lon="5.467972" lat="51.132712"><ele>55.6</ele><time>2022-03-27T08:45:47.000Z</time></trkpt><trkpt lon="5.468078" lat="51.132731"><ele>55.4</ele><time>2022-03-27T08:45:48.000Z</time></trkpt><trkpt lon="5.46818" lat="51.13275"><ele>55.4</ele><time>2022-03-27T08:45:49.000Z</time></trkpt><trkpt lon="5.468286" lat="51.132769"><ele>55.2</ele><time>2022-03-27T08:45:50.000Z</time></trkpt><trkpt lon="5.46839" lat="51.132789"><ele>55.2</ele><time>2022-03-27T08:45:51.000Z</time></trkpt><trkpt lon="5.46849" lat="51.132807"><ele>55.4</ele><time>2022-03-27T08:45:52.000Z</time></trkpt><trkpt lon="5.468591" lat="51.132823"><ele>55.4</ele><time>2022-03-27T08:45:53.000Z</time></trkpt><trkpt lon="5.468692" lat="51.132842"><ele>55.4</ele><time>2022-03-27T08:45:54.000Z</time></trkpt><trkpt lon="5.468794" lat="51.132865"><ele>55.6</ele><time>2022-03-27T08:45:55.000Z</time></trkpt><trkpt lon="5.468894" lat="51.132884"><ele>55.6</ele><time>2022-03-27T08:45:56.000Z</time></trkpt><trkpt lon="5.468998" lat="51.132899"><ele>55.6</ele><time>2022-03-27T08:45:57.000Z</time></trkpt><trkpt lon="5.4691" lat="51.132918"><ele>55.8</ele><time>2022-03-27T08:45:58.000Z</time></trkpt><trkpt lon="5.4692" lat="51.132933"><ele>55.6</ele><time>2022-03-27T08:45:59.000Z</time></trkpt><trkpt lon="5.469306" lat="51.132953"><ele>55.8</ele><time>2022-03-27T08:46:00.000Z</time></trkpt><trkpt lon="5.46941" lat="51.132975"><ele>55.8</ele><time>2022-03-27T08:46:01.000Z</time></trkpt><trkpt lon="5.469512" lat="51.132991"><ele>55.8</ele><time>2022-03-27T08:46:02.000Z</time></trkpt><trkpt lon="5.469614" lat="51.133009"><ele>55.8</ele><time>2022-03-27T08:46:03.000Z</time></trkpt><trkpt lon="5.46972" lat="51.133029"><ele>55.8</ele><time>2022-03-27T08:46:04.000Z</time></trkpt><trkpt lon="5.469822" lat="51.133048"><ele>56</ele><time>2022-03-27T08:46:05.000Z</time></trkpt><trkpt lon="5.469926" lat="51.133067"><ele>56</ele><time>2022-03-27T08:46:06.000Z</time></trkpt><trkpt lon="5.470029" lat="51.133082"><ele>56</ele><time>2022-03-27T08:46:07.000Z</time></trkpt><trkpt lon="5.470133" lat="51.133101"><ele>55.8</ele><time>2022-03-27T08:46:08.000Z</time></trkpt><trkpt lon="5.470236" lat="51.13312"><ele>55.8</ele><time>2022-03-27T08:46:09.000Z</time></trkpt><trkpt lon="5.47034" lat="51.13314"><ele>55.8</ele><time>2022-03-27T08:46:10.000Z</time></trkpt><trkpt lon="5.470444" lat="51.133162"><ele>55.6</ele><time>2022-03-27T08:46:11.000Z</time></trkpt><trkpt lon="5.47055" lat="51.133178"><ele>55.8</ele><time>2022-03-27T08:46:12.000Z</time></trkpt><trkpt lon="5.47065" lat="51.1332"><ele>55.8</ele><time>2022-03-27T08:46:13.000Z</time></trkpt><trkpt lon="5.470753" lat="51.133216"><ele>55.8</ele><time>2022-03-27T08:46:14.000Z</time></trkpt><trkpt lon="5.470851" lat="51.133235"><ele>55.8</ele><time>2022-03-27T08:46:15.000Z</time></trkpt><trkpt lon="5.470948" lat="51.133253"><ele>55.8</ele><time>2022-03-27T08:46:16.000Z</time></trkpt><trkpt lon="5.47105" lat="51.133273"><ele>55.8</ele><time>2022-03-27T08:46:17.000Z</time></trkpt><trkpt lon="5.471152" lat="51.133292"><ele>55.6</ele><time>2022-03-27T08:46:18.000Z</time></trkpt><trkpt lon="5.471256" lat="51.133311"><ele>55.8</ele><time>2022-03-27T08:46:19.000Z</time></trkpt><trkpt lon="5.471358" lat="51.13333"><ele>55.8</ele><time>2022-03-27T08:46:20.000Z</time></trkpt><trkpt lon="5.471461" lat="51.133349"><ele>55.8</ele><time>2022-03-27T08:46:21.000Z</time></trkpt><trkpt lon="5.471565" lat="51.133368"><ele>55.8</ele><time>2022-03-27T08:46:22.000Z</time></trkpt><trkpt lon="5.471668" lat="51.133387"><ele>55.8</ele><time>2022-03-27T08:46:23.000Z</time></trkpt><trkpt lon="5.471773" lat="51.133403"><ele>55.8</ele><time>2022-03-27T08:46:24.000Z</time></trkpt><trkpt lon="5.471877" lat="51.133422"><ele>55.8</ele><time>2022-03-27T08:46:25.000Z</time></trkpt><trkpt lon="5.47198" lat="51.13344"><ele>55.8</ele><time>2022-03-27T08:46:26.000Z</time></trkpt><trkpt lon="5.472084" lat="51.13346"><ele>55.8</ele><time>2022-03-27T08:46:27.000Z</time></trkpt><trkpt lon="5.472188" lat="51.133479"><ele>55.8</ele><time>2022-03-27T08:46:28.000Z</time></trkpt><trkpt lon="5.47229" lat="51.133494"><ele>55.8</ele><time>2022-03-27T08:46:29.000Z</time></trkpt><trkpt lon="5.472395" lat="51.133517"><ele>55.8</ele><time>2022-03-27T08:46:30.000Z</time></trkpt><trkpt lon="5.472496" lat="51.133536"><ele>55.8</ele><time>2022-03-27T08:46:31.000Z</time></trkpt><trkpt lon="5.4726" lat="51.133559"><ele>55.8</ele><time>2022-03-27T08:46:32.000Z</time></trkpt><trkpt lon="5.472703" lat="51.133578"><ele>55.8</ele><time>2022-03-27T08:46:33.000Z</time></trkpt><trkpt lon="5.472806" lat="51.133597"><ele>55.8</ele><time>2022-03-27T08:46:34.000Z</time></trkpt><trkpt lon="5.472909" lat="51.133616"><ele>55.8</ele><time>2022-03-27T08:46:35.000Z</time></trkpt><trkpt lon="5.473011" lat="51.133635"><ele>55.8</ele><time>2022-03-27T08:46:36.000Z</time></trkpt><trkpt lon="5.473113" lat="51.133651"><ele>55.8</ele><time>2022-03-27T08:46:37.000Z</time></trkpt><trkpt lon="5.473214" lat="51.13367"><ele>55.6</ele><time>2022-03-27T08:46:38.000Z</time></trkpt><trkpt lon="5.473315" lat="51.133689"><ele>55.6</ele><time>2022-03-27T08:46:39.000Z</time></trkpt><trkpt lon="5.473415" lat="51.133708"><ele>55.6</ele><time>2022-03-27T08:46:40.000Z</time></trkpt><trkpt lon="5.473515" lat="51.133727"><ele>55.8</ele><time>2022-03-27T08:46:41.000Z</time></trkpt><trkpt lon="5.473611" lat="51.133746"><ele>55.8</ele><time>2022-03-27T08:46:42.000Z</time></trkpt><trkpt lon="5.473704" lat="51.133765"><ele>55.8</ele><time>2022-03-27T08:46:43.000Z</time></trkpt><trkpt lon="5.473796" lat="51.133781"><ele>55.8</ele><time>2022-03-27T08:46:44.000Z</time></trkpt><trkpt lon="5.473883" lat="51.133796"><ele>55.8</ele><time>2022-03-27T08:46:45.000Z</time></trkpt><trkpt lon="5.473968" lat="51.133815"><ele>55.8</ele><time>2022-03-27T08:46:46.000Z</time></trkpt><trkpt lon="5.474046" lat="51.13383"><ele>56</ele><time>2022-03-27T08:46:47.000Z</time></trkpt><trkpt lon="5.474124" lat="51.133845"><ele>56</ele><time>2022-03-27T08:46:48.000Z</time></trkpt><trkpt lon="5.474195" lat="51.133857"><ele>56</ele><time>2022-03-27T08:46:49.000Z</time></trkpt><trkpt lon="5.474261" lat="51.133865"><ele>56</ele><time>2022-03-27T08:46:50.000Z</time></trkpt><trkpt lon="5.47432" lat="51.133876"><ele>56</ele><time>2022-03-27T08:46:51.000Z</time></trkpt><trkpt lon="5.474371" lat="51.133888"><ele>56</ele><time>2022-03-27T08:46:52.000Z</time></trkpt><trkpt lon="5.47441" lat="51.133902"><ele>56</ele><time>2022-03-27T08:46:53.000Z</time></trkpt><trkpt lon="5.474451" lat="51.133914"><ele>56</ele><time>2022-03-27T08:46:54.000Z</time></trkpt><trkpt lon="5.47449" lat="51.133929"><ele>56</ele><time>2022-03-27T08:46:55.000Z</time></trkpt><trkpt lon="5.474529" lat="51.133945"><ele>56</ele><time>2022-03-27T08:46:56.000Z</time></trkpt><trkpt lon="5.474566" lat="51.133963"><ele>56</ele><time>2022-03-27T08:46:57.000Z</time></trkpt><trkpt lon="5.474604" lat="51.133983"><ele>56</ele><time>2022-03-27T08:46:58.000Z</time></trkpt><trkpt lon="5.474639" lat="51.134009"><ele>56</ele><time>2022-03-27T08:46:59.000Z</time></trkpt><trkpt lon="5.474667" lat="51.134039"><ele>55.8</ele><time>2022-03-27T08:47:00.000Z</time></trkpt><trkpt lon="5.474682" lat="51.134073"><ele>55.8</ele><time>2022-03-27T08:47:01.000Z</time></trkpt><trkpt lon="5.474708" lat="51.134104"><ele>55.8</ele><time>2022-03-27T08:47:02.000Z</time></trkpt><trkpt lon="5.474758" lat="51.134124"><ele>55.8</ele><time>2022-03-27T08:47:03.000Z</time></trkpt><trkpt lon="5.474823" lat="51.134136"><ele>56</ele><time>2022-03-27T08:47:04.000Z</time></trkpt><trkpt lon="5.474891" lat="51.134147"><ele>56</ele><time>2022-03-27T08:47:05.000Z</time></trkpt><trkpt lon="5.474963" lat="51.134159"><ele>56</ele><time>2022-03-27T08:47:06.000Z</time></trkpt><trkpt lon="5.475036" lat="51.134166"><ele>56</ele><time>2022-03-27T08:47:07.000Z</time></trkpt><trkpt lon="5.475111" lat="51.134177"><ele>56.2</ele><time>2022-03-27T08:47:08.000Z</time></trkpt><trkpt lon="5.475193" lat="51.134182"><ele>56.2</ele><time>2022-03-27T08:47:09.000Z</time></trkpt><trkpt lon="5.475276" lat="51.134182"><ele>56.2</ele><time>2022-03-27T08:47:10.000Z</time></trkpt><trkpt lon="5.475361" lat="51.134175"><ele>56.4</ele><time>2022-03-27T08:47:11.000Z</time></trkpt><trkpt lon="5.475453" lat="51.134164"><ele>56.2</ele><time>2022-03-27T08:47:12.000Z</time></trkpt><trkpt lon="5.475553" lat="51.134152"><ele>56.2</ele><time>2022-03-27T08:47:13.000Z</time></trkpt><trkpt lon="5.475658" lat="51.134144"><ele>55.8</ele><time>2022-03-27T08:47:14.000Z</time></trkpt><trkpt lon="5.475764" lat="51.134147"><ele>55.8</ele><time>2022-03-27T08:47:15.000Z</time></trkpt><trkpt lon="5.475871" lat="51.134151"><ele>55.6</ele><time>2022-03-27T08:47:16.000Z</time></trkpt><trkpt lon="5.475982" lat="51.134155"><ele>55.4</ele><time>2022-03-27T08:47:17.000Z</time></trkpt><trkpt lon="5.476093" lat="51.134159"><ele>55.2</ele><time>2022-03-27T08:47:18.000Z</time></trkpt><trkpt lon="5.476203" lat="51.134163"><ele>55.2</ele><time>2022-03-27T08:47:19.000Z</time></trkpt><trkpt lon="5.476304" lat="51.134166"><ele>55</ele><time>2022-03-27T08:47:20.000Z</time></trkpt><trkpt lon="5.476413" lat="51.13417"><ele>55</ele><time>2022-03-27T08:47:21.000Z</time></trkpt><trkpt lon="5.476516" lat="51.134178"><ele>55</ele><time>2022-03-27T08:47:22.000Z</time></trkpt><trkpt lon="5.476617" lat="51.134182"><ele>55</ele><time>2022-03-27T08:47:23.000Z</time></trkpt><trkpt lon="5.476718" lat="51.134189"><ele>55</ele><time>2022-03-27T08:47:24.000Z</time></trkpt><trkpt lon="5.476822" lat="51.134193"><ele>54.8</ele><time>2022-03-27T08:47:25.000Z</time></trkpt><trkpt lon="5.476928" lat="51.134201"><ele>54.8</ele><time>2022-03-27T08:47:26.000Z</time></trkpt><trkpt lon="5.477038" lat="51.134205"><ele>55</ele><time>2022-03-27T08:47:27.000Z</time></trkpt><trkpt lon="5.477147" lat="51.134212"><ele>54.8</ele><time>2022-03-27T08:47:28.000Z</time></trkpt><trkpt lon="5.477256" lat="51.134216"><ele>54.8</ele><time>2022-03-27T08:47:29.000Z</time></trkpt><trkpt lon="5.477366" lat="51.134224"><ele>54.8</ele><time>2022-03-27T08:47:30.000Z</time></trkpt><trkpt lon="5.477474" lat="51.134228"><ele>55</ele><time>2022-03-27T08:47:31.000Z</time></trkpt><trkpt lon="5.47758" lat="51.134235"><ele>55</ele><time>2022-03-27T08:47:32.000Z</time></trkpt><trkpt lon="5.477706" lat="51.13423"><ele>54.8</ele><time>2022-03-27T08:47:33.000Z</time></trkpt><trkpt lon="5.477834" lat="51.134224"><ele>54.8</ele><time>2022-03-27T08:47:34.000Z</time></trkpt><trkpt lon="5.477962" lat="51.134219"><ele>54.8</ele><time>2022-03-27T08:47:35.000Z</time></trkpt><trkpt lon="5.478064" lat="51.134225"><ele>54.6</ele><time>2022-03-27T08:47:36.000Z</time></trkpt><trkpt lon="5.478134" lat="51.134241"><ele>54.6</ele><time>2022-03-27T08:47:37.000Z</time></trkpt><trkpt lon="5.478196" lat="51.134258"><ele>54.6</ele><time>2022-03-27T08:47:38.000Z</time></trkpt><trkpt lon="5.478341" lat="51.134244"><ele>54.4</ele><time>2022-03-27T08:47:39.000Z</time></trkpt><trkpt lon="5.478468" lat="51.134229"><ele>54.4</ele><time>2022-03-27T08:47:40.000Z</time></trkpt><trkpt lon="5.478587" lat="51.13422"><ele>54.4</ele><time>2022-03-27T08:47:41.000Z</time></trkpt><trkpt lon="5.478703" lat="51.134216"><ele>54.2</ele><time>2022-03-27T08:47:42.000Z</time></trkpt><trkpt lon="5.478815" lat="51.134216"><ele>54</ele><time>2022-03-27T08:47:43.000Z</time></trkpt><trkpt lon="5.478931" lat="51.13422"><ele>54</ele><time>2022-03-27T08:47:44.000Z</time></trkpt><trkpt lon="5.479041" lat="51.134224"><ele>54</ele><time>2022-03-27T08:47:45.000Z</time></trkpt><trkpt lon="5.479149" lat="51.134231"><ele>54</ele><time>2022-03-27T08:47:46.000Z</time></trkpt><trkpt lon="5.479255" lat="51.134239"><ele>54</ele><time>2022-03-27T08:47:47.000Z</time></trkpt><trkpt lon="5.479368" lat="51.134243"><ele>54</ele><time>2022-03-27T08:47:48.000Z</time></trkpt><trkpt lon="5.479478" lat="51.134247"><ele>53.8</ele><time>2022-03-27T08:47:49.000Z</time></trkpt><trkpt lon="5.47959" lat="51.134254"><ele>53.8</ele><time>2022-03-27T08:47:50.000Z</time></trkpt><trkpt lon="5.479699" lat="51.134258"><ele>53.6</ele><time>2022-03-27T08:47:51.000Z</time></trkpt><trkpt lon="5.47981" lat="51.134265"><ele>53.6</ele><time>2022-03-27T08:47:52.000Z</time></trkpt><trkpt lon="5.47992" lat="51.134273"><ele>53.6</ele><time>2022-03-27T08:47:53.000Z</time></trkpt><trkpt lon="5.480025" lat="51.134277"><ele>53.4</ele><time>2022-03-27T08:47:54.000Z</time></trkpt><trkpt lon="5.480131" lat="51.134285"><ele>53.4</ele><time>2022-03-27T08:47:55.000Z</time></trkpt><trkpt lon="5.480235" lat="51.134285"><ele>53.4</ele><time>2022-03-27T08:47:56.000Z</time></trkpt><trkpt lon="5.480342" lat="51.134292"><ele>53.4</ele><time>2022-03-27T08:47:57.000Z</time></trkpt><trkpt lon="5.480451" lat="51.1343"><ele>53.4</ele><time>2022-03-27T08:47:58.000Z</time></trkpt><trkpt lon="5.48056" lat="51.134304"><ele>53.4</ele><time>2022-03-27T08:47:59.000Z</time></trkpt><trkpt lon="5.480668" lat="51.134311"><ele>53.2</ele><time>2022-03-27T08:48:00.000Z</time></trkpt><trkpt lon="5.480778" lat="51.134319"><ele>53.2</ele><time>2022-03-27T08:48:01.000Z</time></trkpt><trkpt lon="5.480887" lat="51.134323"><ele>53.2</ele><time>2022-03-27T08:48:02.000Z</time></trkpt><trkpt lon="5.480991" lat="51.13433"><ele>53</ele><time>2022-03-27T08:48:03.000Z</time></trkpt><trkpt lon="5.481103" lat="51.134338"><ele>53</ele><time>2022-03-27T08:48:04.000Z</time></trkpt><trkpt lon="5.481208" lat="51.134345"><ele>53</ele><time>2022-03-27T08:48:05.000Z</time></trkpt><trkpt lon="5.481317" lat="51.13435"><ele>53</ele><time>2022-03-27T08:48:06.000Z</time></trkpt><trkpt lon="5.481424" lat="51.134357"><ele>52.8</ele><time>2022-03-27T08:48:07.000Z</time></trkpt><trkpt lon="5.481531" lat="51.134361"><ele>52.8</ele><time>2022-03-27T08:48:08.000Z</time></trkpt><trkpt lon="5.48164" lat="51.134369"><ele>52.8</ele><time>2022-03-27T08:48:09.000Z</time></trkpt><trkpt lon="5.481747" lat="51.134376"><ele>52.8</ele><time>2022-03-27T08:48:10.000Z</time></trkpt><trkpt lon="5.481854" lat="51.13438"><ele>52.8</ele><time>2022-03-27T08:48:11.000Z</time></trkpt><trkpt lon="5.481958" lat="51.134384"><ele>53</ele><time>2022-03-27T08:48:12.000Z</time></trkpt><trkpt lon="5.482052" lat="51.134391"><ele>53</ele><time>2022-03-27T08:48:13.000Z</time></trkpt><trkpt lon="5.482149" lat="51.134403"><ele>53.2</ele><time>2022-03-27T08:48:14.000Z</time></trkpt><trkpt lon="5.482254" lat="51.134414"><ele>53.2</ele><time>2022-03-27T08:48:15.000Z</time></trkpt><trkpt lon="5.482352" lat="51.134422"><ele>53.4</ele><time>2022-03-27T08:48:16.000Z</time></trkpt><trkpt lon="5.482452" lat="51.13443"><ele>53.4</ele><time>2022-03-27T08:48:17.000Z</time></trkpt><trkpt lon="5.482552" lat="51.134441"><ele>53.4</ele><time>2022-03-27T08:48:18.000Z</time></trkpt><trkpt lon="5.482654" lat="51.134445"><ele>53.4</ele><time>2022-03-27T08:48:19.000Z</time></trkpt><trkpt lon="5.482755" lat="51.134456"><ele>53.4</ele><time>2022-03-27T08:48:20.000Z</time></trkpt><trkpt lon="5.482858" lat="51.134464"><ele>53.4</ele><time>2022-03-27T08:48:21.000Z</time></trkpt><trkpt lon="5.482959" lat="51.134471"><ele>53.4</ele><time>2022-03-27T08:48:22.000Z</time></trkpt><trkpt lon="5.483056" lat="51.134482"><ele>53.4</ele><time>2022-03-27T08:48:23.000Z</time></trkpt><trkpt lon="5.48316" lat="51.134498"><ele>53.4</ele><time>2022-03-27T08:48:24.000Z</time></trkpt><trkpt lon="5.48327" lat="51.134509"><ele>53.4</ele><time>2022-03-27T08:48:25.000Z</time></trkpt><trkpt lon="5.483381" lat="51.134521"><ele>53.6</ele><time>2022-03-27T08:48:26.000Z</time></trkpt><trkpt lon="5.483492" lat="51.134529"><ele>53.6</ele><time>2022-03-27T08:48:27.000Z</time></trkpt><trkpt lon="5.483598" lat="51.134536"><ele>53.4</ele><time>2022-03-27T08:48:28.000Z</time></trkpt><trkpt lon="5.483707" lat="51.13454"><ele>53.6</ele><time>2022-03-27T08:48:29.000Z</time></trkpt><trkpt lon="5.483814" lat="51.134544"><ele>53.6</ele><time>2022-03-27T08:48:30.000Z</time></trkpt><trkpt lon="5.483918" lat="51.134548"><ele>53.6</ele><time>2022-03-27T08:48:31.000Z</time></trkpt><trkpt lon="5.484024" lat="51.134556"><ele>53.6</ele><time>2022-03-27T08:48:32.000Z</time></trkpt><trkpt lon="5.484127" lat="51.134563"><ele>53.6</ele><time>2022-03-27T08:48:33.000Z</time></trkpt><trkpt lon="5.484227" lat="51.134567"><ele>53.4</ele><time>2022-03-27T08:48:34.000Z</time></trkpt><trkpt lon="5.484331" lat="51.134574"><ele>53.6</ele><time>2022-03-27T08:48:35.000Z</time></trkpt><trkpt lon="5.484435" lat="51.134582"><ele>53.6</ele><time>2022-03-27T08:48:36.000Z</time></trkpt><trkpt lon="5.48454" lat="51.134586"><ele>53.6</ele><time>2022-03-27T08:48:37.000Z</time></trkpt><trkpt lon="5.484644" lat="51.134594"><ele>53.4</ele><time>2022-03-27T08:48:38.000Z</time></trkpt><trkpt lon="5.484751" lat="51.134598"><ele>53.4</ele><time>2022-03-27T08:48:39.000Z</time></trkpt><trkpt lon="5.484852" lat="51.134605"><ele>53.4</ele><time>2022-03-27T08:48:40.000Z</time></trkpt><trkpt lon="5.484954" lat="51.134605"><ele>53.6</ele><time>2022-03-27T08:48:41.000Z</time></trkpt><trkpt lon="5.485054" lat="51.134602"><ele>53.6</ele><time>2022-03-27T08:48:42.000Z</time></trkpt><trkpt lon="5.485159" lat="51.134594"><ele>53.6</ele><time>2022-03-27T08:48:43.000Z</time></trkpt><trkpt lon="5.485268" lat="51.134598"><ele>53.4</ele><time>2022-03-27T08:48:44.000Z</time></trkpt><trkpt lon="5.485378" lat="51.134601"><ele>53.4</ele><time>2022-03-27T08:48:45.000Z</time></trkpt><trkpt lon="5.485491" lat="51.134609"><ele>53.2</ele><time>2022-03-27T08:48:46.000Z</time></trkpt><trkpt lon="5.4856" lat="51.134616"><ele>53.2</ele><time>2022-03-27T08:48:47.000Z</time></trkpt><trkpt lon="5.485715" lat="51.134624"><ele>52.8</ele><time>2022-03-27T08:48:48.000Z</time></trkpt><trkpt lon="5.485827" lat="51.134628"><ele>52.6</ele><time>2022-03-27T08:48:49.000Z</time></trkpt><trkpt lon="5.485943" lat="51.134635"><ele>52.6</ele><time>2022-03-27T08:48:50.000Z</time></trkpt><trkpt lon="5.486058" lat="51.134643"><ele>52.6</ele><time>2022-03-27T08:48:51.000Z</time></trkpt><trkpt lon="5.486173" lat="51.134647"><ele>52.6</ele><time>2022-03-27T08:48:52.000Z</time></trkpt><trkpt lon="5.486287" lat="51.134651"><ele>52.6</ele><time>2022-03-27T08:48:53.000Z</time></trkpt><trkpt lon="5.4864" lat="51.134655"><ele>52.4</ele><time>2022-03-27T08:48:54.000Z</time></trkpt><trkpt lon="5.48651" lat="51.134662"><ele>52.2</ele><time>2022-03-27T08:48:55.000Z</time></trkpt><trkpt lon="5.486624" lat="51.134666"><ele>52</ele><time>2022-03-27T08:48:56.000Z</time></trkpt><trkpt lon="5.486735" lat="51.134674"><ele>52</ele><time>2022-03-27T08:48:57.000Z</time></trkpt><trkpt lon="5.486844" lat="51.134681"><ele>51.8</ele><time>2022-03-27T08:48:58.000Z</time></trkpt><trkpt lon="5.486947" lat="51.134689"><ele>51.6</ele><time>2022-03-27T08:48:59.000Z</time></trkpt><trkpt lon="5.487047" lat="51.134693"><ele>51.6</ele><time>2022-03-27T08:49:00.000Z</time></trkpt><trkpt lon="5.487152" lat="51.1347"><ele>51.4</ele><time>2022-03-27T08:49:01.000Z</time></trkpt><trkpt lon="5.487257" lat="51.134708"><ele>51.2</ele><time>2022-03-27T08:49:02.000Z</time></trkpt><trkpt lon="5.48736" lat="51.134712"><ele>51.2</ele><time>2022-03-27T08:49:03.000Z</time></trkpt><trkpt lon="5.487465" lat="51.134716"><ele>51.2</ele><time>2022-03-27T08:49:04.000Z</time></trkpt><trkpt lon="5.487567" lat="51.13472"><ele>51.2</ele><time>2022-03-27T08:49:05.000Z</time></trkpt><trkpt lon="5.48767" lat="51.134723"><ele>51</ele><time>2022-03-27T08:49:06.000Z</time></trkpt><trkpt lon="5.487775" lat="51.134731"><ele>51</ele><time>2022-03-27T08:49:07.000Z</time></trkpt><trkpt lon="5.487881" lat="51.134735"><ele>51</ele><time>2022-03-27T08:49:08.000Z</time></trkpt><trkpt lon="5.487986" lat="51.134739"><ele>51</ele><time>2022-03-27T08:49:09.000Z</time></trkpt><trkpt lon="5.488092" lat="51.134746"><ele>50.8</ele><time>2022-03-27T08:49:10.000Z</time></trkpt><trkpt lon="5.488197" lat="51.13475"><ele>50.8</ele><time>2022-03-27T08:49:11.000Z</time></trkpt><trkpt lon="5.488303" lat="51.134758"><ele>50.8</ele><time>2022-03-27T08:49:12.000Z</time></trkpt><trkpt lon="5.488405" lat="51.134762"><ele>50.8</ele><time>2022-03-27T08:49:13.000Z</time></trkpt><trkpt lon="5.488512" lat="51.134769"><ele>50.8</ele><time>2022-03-27T08:49:14.000Z</time></trkpt><trkpt lon="5.488615" lat="51.134773"><ele>50.8</ele><time>2022-03-27T08:49:15.000Z</time></trkpt><trkpt lon="5.488717" lat="51.134777"><ele>50.8</ele><time>2022-03-27T08:49:16.000Z</time></trkpt><trkpt lon="5.488819" lat="51.134784"><ele>50.8</ele><time>2022-03-27T08:49:17.000Z</time></trkpt><trkpt lon="5.488926" lat="51.134788"><ele>50.8</ele><time>2022-03-27T08:49:18.000Z</time></trkpt><trkpt lon="5.48903" lat="51.134796"><ele>50.8</ele><time>2022-03-27T08:49:19.000Z</time></trkpt><trkpt lon="5.489132" lat="51.1348"><ele>50.8</ele><time>2022-03-27T08:49:20.000Z</time></trkpt><trkpt lon="5.489237" lat="51.134807"><ele>51</ele><time>2022-03-27T08:49:21.000Z</time></trkpt><trkpt lon="5.489338" lat="51.134815"><ele>51</ele><time>2022-03-27T08:49:22.000Z</time></trkpt><trkpt lon="5.48944" lat="51.134819"><ele>51</ele><time>2022-03-27T08:49:23.000Z</time></trkpt><trkpt lon="5.489545" lat="51.134826"><ele>51</ele><time>2022-03-27T08:49:24.000Z</time></trkpt><trkpt lon="5.489648" lat="51.134827"><ele>51.2</ele><time>2022-03-27T08:49:25.000Z</time></trkpt><trkpt lon="5.489754" lat="51.13483"><ele>51.2</ele><time>2022-03-27T08:49:26.000Z</time></trkpt><trkpt lon="5.489862" lat="51.134838"><ele>51</ele><time>2022-03-27T08:49:27.000Z</time></trkpt><trkpt lon="5.489967" lat="51.134838"><ele>51</ele><time>2022-03-27T08:49:28.000Z</time></trkpt><trkpt lon="5.490075" lat="51.134845"><ele>51</ele><time>2022-03-27T08:49:29.000Z</time></trkpt><trkpt lon="5.490182" lat="51.134849"><ele>50.8</ele><time>2022-03-27T08:49:30.000Z</time></trkpt><trkpt lon="5.49029" lat="51.134857"><ele>50.8</ele><time>2022-03-27T08:49:31.000Z</time></trkpt><trkpt lon="5.490398" lat="51.134861"><ele>51</ele><time>2022-03-27T08:49:32.000Z</time></trkpt><trkpt lon="5.490506" lat="51.134865"><ele>51</ele><time>2022-03-27T08:49:33.000Z</time></trkpt><trkpt lon="5.490612" lat="51.134872"><ele>51</ele><time>2022-03-27T08:49:34.000Z</time></trkpt><trkpt lon="5.490714" lat="51.13488"><ele>51.2</ele><time>2022-03-27T08:49:35.000Z</time></trkpt><trkpt lon="5.490814" lat="51.13489"><ele>51.2</ele><time>2022-03-27T08:49:36.000Z</time></trkpt><trkpt lon="5.490915" lat="51.134902"><ele>51.4</ele><time>2022-03-27T08:49:37.000Z</time></trkpt><trkpt lon="5.491009" lat="51.134914"><ele>51.6</ele><time>2022-03-27T08:49:38.000Z</time></trkpt><trkpt lon="5.491101" lat="51.134925"><ele>51.6</ele><time>2022-03-27T08:49:39.000Z</time></trkpt><trkpt lon="5.491195" lat="51.134933"><ele>51.6</ele><time>2022-03-27T08:49:40.000Z</time></trkpt><trkpt lon="5.491284" lat="51.134937"><ele>51.8</ele><time>2022-03-27T08:49:41.000Z</time></trkpt><trkpt lon="5.491373" lat="51.134945"><ele>52</ele><time>2022-03-27T08:49:42.000Z</time></trkpt><trkpt lon="5.491458" lat="51.134949"><ele>52.2</ele><time>2022-03-27T08:49:43.000Z</time></trkpt><trkpt lon="5.491543" lat="51.134952"><ele>52.2</ele><time>2022-03-27T08:49:44.000Z</time></trkpt><trkpt lon="5.491617" lat="51.134945"><ele>52.4</ele><time>2022-03-27T08:49:45.000Z</time></trkpt><trkpt lon="5.491679" lat="51.134924"><ele>52.4</ele><time>2022-03-27T08:49:46.000Z</time></trkpt><trkpt lon="5.491729" lat="51.134882"><ele>52.6</ele><time>2022-03-27T08:49:47.000Z</time></trkpt><trkpt lon="5.49177" lat="51.134834"><ele>52.6</ele><time>2022-03-27T08:49:48.000Z</time></trkpt><trkpt lon="5.491807" lat="51.134776"><ele>52.6</ele><time>2022-03-27T08:49:49.000Z</time></trkpt><trkpt lon="5.491838" lat="51.134716"><ele>52.6</ele><time>2022-03-27T08:49:50.000Z</time></trkpt><trkpt lon="5.491867" lat="51.134654"><ele>52.6</ele><time>2022-03-27T08:49:51.000Z</time></trkpt><trkpt lon="5.49189" lat="51.134594"><ele>52.6</ele><time>2022-03-27T08:49:52.000Z</time></trkpt><trkpt lon="5.491912" lat="51.134534"><ele>52.8</ele><time>2022-03-27T08:49:53.000Z</time></trkpt><trkpt lon="5.491932" lat="51.134471"><ele>52.8</ele><time>2022-03-27T08:49:54.000Z</time></trkpt><trkpt lon="5.491949" lat="51.134407"><ele>53</ele><time>2022-03-27T08:49:55.000Z</time></trkpt><trkpt lon="5.491962" lat="51.134344"><ele>53</ele><time>2022-03-27T08:49:56.000Z</time></trkpt><trkpt lon="5.491984" lat="51.134288"><ele>53</ele><time>2022-03-27T08:49:57.000Z</time></trkpt><trkpt lon="5.492018" lat="51.134249"><ele>53.2</ele><time>2022-03-27T08:49:58.000Z</time></trkpt><trkpt lon="5.492067" lat="51.134218"><ele>53.2</ele><time>2022-03-27T08:49:59.000Z</time></trkpt><trkpt lon="5.492135" lat="51.134202"><ele>53.4</ele><time>2022-03-27T08:50:00.000Z</time></trkpt><trkpt lon="5.492216" lat="51.13419"><ele>53.2</ele><time>2022-03-27T08:50:01.000Z</time></trkpt><trkpt lon="5.492311" lat="51.134172"><ele>53.2</ele><time>2022-03-27T08:50:02.000Z</time></trkpt><trkpt lon="5.492411" lat="51.134157"><ele>53.2</ele><time>2022-03-27T08:50:03.000Z</time></trkpt><trkpt lon="5.492521" lat="51.134141"><ele>53.2</ele><time>2022-03-27T08:50:04.000Z</time></trkpt><trkpt lon="5.492624" lat="51.134129"><ele>53.2</ele><time>2022-03-27T08:50:05.000Z</time></trkpt><trkpt lon="5.492726" lat="51.134114"><ele>53.2</ele><time>2022-03-27T08:50:06.000Z</time></trkpt><trkpt lon="5.492824" lat="51.134099"><ele>53.2</ele><time>2022-03-27T08:50:07.000Z</time></trkpt><trkpt lon="5.49292" lat="51.134084"><ele>53.2</ele><time>2022-03-27T08:50:08.000Z</time></trkpt><trkpt lon="5.493015" lat="51.134068"><ele>53.4</ele><time>2022-03-27T08:50:09.000Z</time></trkpt><trkpt lon="5.493108" lat="51.134053"><ele>53.4</ele><time>2022-03-27T08:50:10.000Z</time></trkpt><trkpt lon="5.493199" lat="51.134038"><ele>53.6</ele><time>2022-03-27T08:50:11.000Z</time></trkpt><trkpt lon="5.493286" lat="51.134022"><ele>53.8</ele><time>2022-03-27T08:50:12.000Z</time></trkpt><trkpt lon="5.493371" lat="51.134008"><ele>54</ele><time>2022-03-27T08:50:13.000Z</time></trkpt><trkpt lon="5.49346" lat="51.133996"><ele>54</ele><time>2022-03-27T08:50:14.000Z</time></trkpt><trkpt lon="5.493544" lat="51.133981"><ele>54.2</ele><time>2022-03-27T08:50:15.000Z</time></trkpt><trkpt lon="5.493631" lat="51.133966"><ele>54.2</ele><time>2022-03-27T08:50:16.000Z</time></trkpt><trkpt lon="5.493719" lat="51.13395"><ele>54.4</ele><time>2022-03-27T08:50:17.000Z</time></trkpt><trkpt lon="5.493804" lat="51.133938"><ele>54.4</ele><time>2022-03-27T08:50:18.000Z</time></trkpt><trkpt lon="5.49389" lat="51.133924"><ele>54.4</ele><time>2022-03-27T08:50:19.000Z</time></trkpt><trkpt lon="5.493981" lat="51.133905"><ele>54.6</ele><time>2022-03-27T08:50:20.000Z</time></trkpt><trkpt lon="5.494073" lat="51.133889"><ele>54.6</ele><time>2022-03-27T08:50:21.000Z</time></trkpt><trkpt lon="5.494165" lat="51.133874"><ele>54.8</ele><time>2022-03-27T08:50:22.000Z</time></trkpt><trkpt lon="5.494256" lat="51.133859"><ele>55</ele><time>2022-03-27T08:50:23.000Z</time></trkpt><trkpt lon="5.494351" lat="51.133843"><ele>55</ele><time>2022-03-27T08:50:24.000Z</time></trkpt><trkpt lon="5.49445" lat="51.133828"><ele>55</ele><time>2022-03-27T08:50:25.000Z</time></trkpt><trkpt lon="5.494546" lat="51.133813"><ele>55.2</ele><time>2022-03-27T08:50:26.000Z</time></trkpt><trkpt lon="5.494646" lat="51.133801"><ele>55.2</ele><time>2022-03-27T08:50:27.000Z</time></trkpt><trkpt lon="5.494744" lat="51.13379"><ele>55.2</ele><time>2022-03-27T08:50:28.000Z</time></trkpt><trkpt lon="5.494853" lat="51.133775"><ele>55.2</ele><time>2022-03-27T08:50:29.000Z</time></trkpt><trkpt lon="5.494955" lat="51.133759"><ele>55.2</ele><time>2022-03-27T08:50:30.000Z</time></trkpt><trkpt lon="5.495058" lat="51.133748"><ele>55</ele><time>2022-03-27T08:50:31.000Z</time></trkpt><trkpt lon="5.495158" lat="51.133733"><ele>55</ele><time>2022-03-27T08:50:32.000Z</time></trkpt><trkpt lon="5.49526" lat="51.133718"><ele>55</ele><time>2022-03-27T08:50:33.000Z</time></trkpt><trkpt lon="5.495366" lat="51.133699"><ele>55</ele><time>2022-03-27T08:50:34.000Z</time></trkpt><trkpt lon="5.495468" lat="51.133679"><ele>55</ele><time>2022-03-27T08:50:35.000Z</time></trkpt><trkpt lon="5.495569" lat="51.13366"><ele>55</ele><time>2022-03-27T08:50:36.000Z</time></trkpt><trkpt lon="5.495669" lat="51.133638"><ele>55.2</ele><time>2022-03-27T08:50:37.000Z</time></trkpt><trkpt lon="5.495768" lat="51.133622"><ele>55.2</ele><time>2022-03-27T08:50:38.000Z</time></trkpt><trkpt lon="5.495866" lat="51.1336"><ele>55.2</ele><time>2022-03-27T08:50:39.000Z</time></trkpt><trkpt lon="5.495959" lat="51.133581"><ele>55.4</ele><time>2022-03-27T08:50:40.000Z</time></trkpt><trkpt lon="5.49605" lat="51.133561"><ele>55.4</ele><time>2022-03-27T08:50:41.000Z</time></trkpt><trkpt lon="5.496142" lat="51.133546"><ele>55.4</ele><time>2022-03-27T08:50:42.000Z</time></trkpt><trkpt lon="5.496231" lat="51.133534"><ele>55.2</ele><time>2022-03-27T08:50:43.000Z</time></trkpt><trkpt lon="5.496318" lat="51.133526"><ele>55.4</ele><time>2022-03-27T08:50:44.000Z</time></trkpt><trkpt lon="5.496401" lat="51.133519"><ele>55.4</ele><time>2022-03-27T08:50:45.000Z</time></trkpt><trkpt lon="5.496475" lat="51.133515"><ele>55.4</ele><time>2022-03-27T08:50:46.000Z</time></trkpt><trkpt lon="5.496547" lat="51.133504"><ele>55.4</ele><time>2022-03-27T08:50:47.000Z</time></trkpt><trkpt lon="5.49662" lat="51.133492"><ele>55.2</ele><time>2022-03-27T08:50:48.000Z</time></trkpt><trkpt lon="5.496687" lat="51.133481"><ele>55.2</ele><time>2022-03-27T08:50:49.000Z</time></trkpt><trkpt lon="5.496758" lat="51.133473"><ele>55.2</ele><time>2022-03-27T08:50:50.000Z</time></trkpt><trkpt lon="5.49682" lat="51.133465"><ele>55.4</ele><time>2022-03-27T08:50:51.000Z</time></trkpt><trkpt lon="5.496889" lat="51.133458"><ele>55.4</ele><time>2022-03-27T08:50:52.000Z</time></trkpt><trkpt lon="5.496973" lat="51.133447"><ele>55.4</ele><time>2022-03-27T08:50:53.000Z</time></trkpt><trkpt lon="5.497064" lat="51.133439"><ele>55.6</ele><time>2022-03-27T08:50:54.000Z</time></trkpt><trkpt lon="5.49715" lat="51.133431"><ele>55.4</ele><time>2022-03-27T08:50:55.000Z</time></trkpt><trkpt lon="5.497239" lat="51.133423"><ele>55.2</ele><time>2022-03-27T08:50:56.000Z</time></trkpt><trkpt lon="5.497329" lat="51.133412"><ele>55</ele><time>2022-03-27T08:50:57.000Z</time></trkpt><trkpt lon="5.497409" lat="51.133404"><ele>54.8</ele><time>2022-03-27T08:50:58.000Z</time></trkpt><trkpt lon="5.497491" lat="51.1334"><ele>54.6</ele><time>2022-03-27T08:50:59.000Z</time></trkpt><trkpt lon="5.497576" lat="51.133393"><ele>54.6</ele><time>2022-03-27T08:51:00.000Z</time></trkpt><trkpt lon="5.497677" lat="51.133385"><ele>54.6</ele><time>2022-03-27T08:51:01.000Z</time></trkpt><trkpt lon="5.497789" lat="51.133374"><ele>54.6</ele><time>2022-03-27T08:51:02.000Z</time></trkpt><trkpt lon="5.497888" lat="51.133366"><ele>54.6</ele><time>2022-03-27T08:51:03.000Z</time></trkpt><trkpt lon="5.49799" lat="51.133358"><ele>54.8</ele><time>2022-03-27T08:51:04.000Z</time></trkpt><trkpt lon="5.498119" lat="51.133351"><ele>54.6</ele><time>2022-03-27T08:51:05.000Z</time></trkpt><trkpt lon="5.498228" lat="51.133347"><ele>54.6</ele><time>2022-03-27T08:51:06.000Z</time></trkpt><trkpt lon="5.498322" lat="51.133339"><ele>54.4</ele><time>2022-03-27T08:51:07.000Z</time></trkpt><trkpt lon="5.498413" lat="51.133335"><ele>54.4</ele><time>2022-03-27T08:51:08.000Z</time></trkpt><trkpt lon="5.498501" lat="51.133328"><ele>54.4</ele><time>2022-03-27T08:51:09.000Z</time></trkpt><trkpt lon="5.498592" lat="51.133313"><ele>54.6</ele><time>2022-03-27T08:51:10.000Z</time></trkpt><trkpt lon="5.498683" lat="51.133301"><ele>54.6</ele><time>2022-03-27T08:51:11.000Z</time></trkpt><trkpt lon="5.498783" lat="51.13329"><ele>54.6</ele><time>2022-03-27T08:51:12.000Z</time></trkpt><trkpt lon="5.498872" lat="51.133279"><ele>54.8</ele><time>2022-03-27T08:51:13.000Z</time></trkpt><trkpt lon="5.498973" lat="51.133267"><ele>54.8</ele><time>2022-03-27T08:51:14.000Z</time></trkpt><trkpt lon="5.49906" lat="51.133252"><ele>54.8</ele><time>2022-03-27T08:51:15.000Z</time></trkpt><trkpt lon="5.499151" lat="51.13324"><ele>54.8</ele><time>2022-03-27T08:51:16.000Z</time></trkpt><trkpt lon="5.499259" lat="51.133229"><ele>54.6</ele><time>2022-03-27T08:51:17.000Z</time></trkpt><trkpt lon="5.49935" lat="51.133221"><ele>54.6</ele><time>2022-03-27T08:51:18.000Z</time></trkpt><trkpt lon="5.499444" lat="51.133214"><ele>54.6</ele><time>2022-03-27T08:51:19.000Z</time></trkpt><trkpt lon="5.499548" lat="51.133202"><ele>54.4</ele><time>2022-03-27T08:51:20.000Z</time></trkpt><trkpt lon="5.499665" lat="51.133187"><ele>54.4</ele><time>2022-03-27T08:51:21.000Z</time></trkpt><trkpt lon="5.499768" lat="51.133176"><ele>54.4</ele><time>2022-03-27T08:51:22.000Z</time></trkpt><trkpt lon="5.499881" lat="51.133161"><ele>54.2</ele><time>2022-03-27T08:51:23.000Z</time></trkpt><trkpt lon="5.500005" lat="51.133134"><ele>54</ele><time>2022-03-27T08:51:24.000Z</time></trkpt><trkpt lon="5.500112" lat="51.133115"><ele>54</ele><time>2022-03-27T08:51:25.000Z</time></trkpt><trkpt lon="5.500206" lat="51.13311"><ele>53.8</ele><time>2022-03-27T08:51:26.000Z</time></trkpt><trkpt lon="5.500319" lat="51.133099"><ele>53.8</ele><time>2022-03-27T08:51:27.000Z</time></trkpt><trkpt lon="5.500435" lat="51.133088"><ele>53.8</ele><time>2022-03-27T08:51:28.000Z</time></trkpt><trkpt lon="5.500564" lat="51.133076"><ele>53.8</ele><time>2022-03-27T08:51:29.000Z</time></trkpt><trkpt lon="5.500694" lat="51.133061"><ele>54</ele><time>2022-03-27T08:51:30.000Z</time></trkpt><trkpt lon="5.500815" lat="51.133042"><ele>54</ele><time>2022-03-27T08:51:31.000Z</time></trkpt><trkpt lon="5.500945" lat="51.133027"><ele>54</ele><time>2022-03-27T08:51:32.000Z</time></trkpt><trkpt lon="5.501062" lat="51.133015"><ele>53.8</ele><time>2022-03-27T08:51:33.000Z</time></trkpt><trkpt lon="5.501179" lat="51.133"><ele>53.8</ele><time>2022-03-27T08:51:34.000Z</time></trkpt><trkpt lon="5.501306" lat="51.132981"><ele>53.6</ele><time>2022-03-27T08:51:35.000Z</time></trkpt><trkpt lon="5.50143" lat="51.132966"><ele>53.6</ele><time>2022-03-27T08:51:36.000Z</time></trkpt><trkpt lon="5.501547" lat="51.132947"><ele>53.6</ele><time>2022-03-27T08:51:37.000Z</time></trkpt><trkpt lon="5.501665" lat="51.132928"><ele>53.6</ele><time>2022-03-27T08:51:38.000Z</time></trkpt><trkpt lon="5.501797" lat="51.132902"><ele>53.6</ele><time>2022-03-27T08:51:39.000Z</time></trkpt><trkpt lon="5.501926" lat="51.132878"><ele>53.6</ele><time>2022-03-27T08:51:40.000Z</time></trkpt><trkpt lon="5.502055" lat="51.132855"><ele>53.4</ele><time>2022-03-27T08:51:41.000Z</time></trkpt><trkpt lon="5.502185" lat="51.132833"><ele>53.6</ele><time>2022-03-27T08:51:42.000Z</time></trkpt><trkpt lon="5.502305" lat="51.132813"><ele>53.6</ele><time>2022-03-27T08:51:43.000Z</time></trkpt><trkpt lon="5.50242" lat="51.132794"><ele>53.8</ele><time>2022-03-27T08:51:44.000Z</time></trkpt><trkpt lon="5.502534" lat="51.132779"><ele>53.8</ele><time>2022-03-27T08:51:45.000Z</time></trkpt><trkpt lon="5.502646" lat="51.132764"><ele>53.8</ele><time>2022-03-27T08:51:46.000Z</time></trkpt><trkpt lon="5.502759" lat="51.132745"><ele>53.6</ele><time>2022-03-27T08:51:47.000Z</time></trkpt><trkpt lon="5.502866" lat="51.13273"><ele>53.6</ele><time>2022-03-27T08:51:48.000Z</time></trkpt><trkpt lon="5.502975" lat="51.132715"><ele>53.6</ele><time>2022-03-27T08:51:49.000Z</time></trkpt><trkpt lon="5.503092" lat="51.132696"><ele>53.4</ele><time>2022-03-27T08:51:50.000Z</time></trkpt><trkpt lon="5.503216" lat="51.132673"><ele>53.4</ele><time>2022-03-27T08:51:51.000Z</time></trkpt><trkpt lon="5.503328" lat="51.13265"><ele>53.4</ele><time>2022-03-27T08:51:52.000Z</time></trkpt><trkpt lon="5.503436" lat="51.13263"><ele>53.4</ele><time>2022-03-27T08:51:53.000Z</time></trkpt><trkpt lon="5.503527" lat="51.132611"><ele>53.4</ele><time>2022-03-27T08:51:54.000Z</time></trkpt><trkpt lon="5.503632" lat="51.132589"><ele>53.6</ele><time>2022-03-27T08:51:55.000Z</time></trkpt><trkpt lon="5.503725" lat="51.132573"><ele>53.6</ele><time>2022-03-27T08:51:56.000Z</time></trkpt><trkpt lon="5.503817" lat="51.132558"><ele>53.6</ele><time>2022-03-27T08:51:57.000Z</time></trkpt><trkpt lon="5.503912" lat="51.132546"><ele>53.4</ele><time>2022-03-27T08:51:58.000Z</time></trkpt><trkpt lon="5.504011" lat="51.132535"><ele>53.4</ele><time>2022-03-27T08:51:59.000Z</time></trkpt><trkpt lon="5.504105" lat="51.132527"><ele>53.4</ele><time>2022-03-27T08:52:00.000Z</time></trkpt><trkpt lon="5.504197" lat="51.132519"><ele>53.4</ele><time>2022-03-27T08:52:01.000Z</time></trkpt><trkpt lon="5.504282" lat="51.132515"><ele>53.2</ele><time>2022-03-27T08:52:02.000Z</time></trkpt><trkpt lon="5.504372" lat="51.132515"><ele>53.4</ele><time>2022-03-27T08:52:03.000Z</time></trkpt><trkpt lon="5.504467" lat="51.132508"><ele>53.4</ele><time>2022-03-27T08:52:04.000Z</time></trkpt><trkpt lon="5.504565" lat="51.132504"><ele>53.4</ele><time>2022-03-27T08:52:05.000Z</time></trkpt><trkpt lon="5.504672" lat="51.132496"><ele>53.4</ele><time>2022-03-27T08:52:06.000Z</time></trkpt><trkpt lon="5.504771" lat="51.132492"><ele>53.4</ele><time>2022-03-27T08:52:07.000Z</time></trkpt><trkpt lon="5.504872" lat="51.132492"><ele>53.4</ele><time>2022-03-27T08:52:08.000Z</time></trkpt><trkpt lon="5.504977" lat="51.132488"><ele>53.4</ele><time>2022-03-27T08:52:09.000Z</time></trkpt><trkpt lon="5.505088" lat="51.132481"><ele>53.4</ele><time>2022-03-27T08:52:10.000Z</time></trkpt><trkpt lon="5.505195" lat="51.132477"><ele>53.4</ele><time>2022-03-27T08:52:11.000Z</time></trkpt><trkpt lon="5.505306" lat="51.132473"><ele>53.2</ele><time>2022-03-27T08:52:12.000Z</time></trkpt><trkpt lon="5.505416" lat="51.132466"><ele>53.2</ele><time>2022-03-27T08:52:13.000Z</time></trkpt><trkpt lon="5.505532" lat="51.132462"><ele>53</ele><time>2022-03-27T08:52:14.000Z</time></trkpt><trkpt lon="5.505643" lat="51.132458"><ele>52.8</ele><time>2022-03-27T08:52:15.000Z</time></trkpt><trkpt lon="5.50576" lat="51.132451"><ele>52.6</ele><time>2022-03-27T08:52:16.000Z</time></trkpt><trkpt lon="5.50587" lat="51.132447"><ele>52.4</ele><time>2022-03-27T08:52:17.000Z</time></trkpt><trkpt lon="5.505984" lat="51.132443"><ele>52.4</ele><time>2022-03-27T08:52:18.000Z</time></trkpt><trkpt lon="5.506096" lat="51.132439"><ele>52.2</ele><time>2022-03-27T08:52:19.000Z</time></trkpt><trkpt lon="5.50621" lat="51.132435"><ele>52.2</ele><time>2022-03-27T08:52:20.000Z</time></trkpt><trkpt lon="5.506324" lat="51.132431"><ele>52</ele><time>2022-03-27T08:52:21.000Z</time></trkpt><trkpt lon="5.506433" lat="51.132428"><ele>51.8</ele><time>2022-03-27T08:52:22.000Z</time></trkpt><trkpt lon="5.506547" lat="51.13242"><ele>51.8</ele><time>2022-03-27T08:52:23.000Z</time></trkpt><trkpt lon="5.506663" lat="51.132412"><ele>51.6</ele><time>2022-03-27T08:52:24.000Z</time></trkpt><trkpt lon="5.506771" lat="51.132408"><ele>51.6</ele><time>2022-03-27T08:52:25.000Z</time></trkpt><trkpt lon="5.506884" lat="51.132397"><ele>51.6</ele><time>2022-03-27T08:52:26.000Z</time></trkpt><trkpt lon="5.506992" lat="51.132386"><ele>51.6</ele><time>2022-03-27T08:52:27.000Z</time></trkpt><trkpt lon="5.507101" lat="51.132375"><ele>51.6</ele><time>2022-03-27T08:52:28.000Z</time></trkpt><trkpt lon="5.507211" lat="51.132359"><ele>51.6</ele><time>2022-03-27T08:52:29.000Z</time></trkpt><trkpt lon="5.50732" lat="51.132341"><ele>51.4</ele><time>2022-03-27T08:52:30.000Z</time></trkpt><trkpt lon="5.507429" lat="51.132318"><ele>51.4</ele><time>2022-03-27T08:52:31.000Z</time></trkpt><trkpt lon="5.507538" lat="51.132295"><ele>51.4</ele><time>2022-03-27T08:52:32.000Z</time></trkpt><trkpt lon="5.507649" lat="51.132265"><ele>51.2</ele><time>2022-03-27T08:52:33.000Z</time></trkpt><trkpt lon="5.507753" lat="51.132234"><ele>51</ele><time>2022-03-27T08:52:34.000Z</time></trkpt><trkpt lon="5.507847" lat="51.132197"><ele>51</ele><time>2022-03-27T08:52:35.000Z</time></trkpt><trkpt lon="5.507938" lat="51.132162"><ele>51</ele><time>2022-03-27T08:52:36.000Z</time></trkpt><trkpt lon="5.508028" lat="51.13212"><ele>51</ele><time>2022-03-27T08:52:37.000Z</time></trkpt><trkpt lon="5.508116" lat="51.132083"><ele>51</ele><time>2022-03-27T08:52:38.000Z</time></trkpt><trkpt lon="5.508207" lat="51.132037"><ele>51</ele><time>2022-03-27T08:52:39.000Z</time></trkpt><trkpt lon="5.508295" lat="51.131991"><ele>50.8</ele><time>2022-03-27T08:52:40.000Z</time></trkpt><trkpt lon="5.508381" lat="51.131948"><ele>50.6</ele><time>2022-03-27T08:52:41.000Z</time></trkpt><trkpt lon="5.508466" lat="51.131903"><ele>50.6</ele><time>2022-03-27T08:52:42.000Z</time></trkpt><trkpt lon="5.508551" lat="51.131857"><ele>50.6</ele><time>2022-03-27T08:52:43.000Z</time></trkpt><trkpt lon="5.508637" lat="51.131812"><ele>50.6</ele><time>2022-03-27T08:52:44.000Z</time></trkpt><trkpt lon="5.508729" lat="51.13177"><ele>50.6</ele><time>2022-03-27T08:52:45.000Z</time></trkpt><trkpt lon="5.50882" lat="51.131724"><ele>50.4</ele><time>2022-03-27T08:52:46.000Z</time></trkpt><trkpt lon="5.508908" lat="51.131678"><ele>50.4</ele><time>2022-03-27T08:52:47.000Z</time></trkpt><trkpt lon="5.508995" lat="51.131632"><ele>50.2</ele><time>2022-03-27T08:52:48.000Z</time></trkpt><trkpt lon="5.509081" lat="51.131587"><ele>50.2</ele><time>2022-03-27T08:52:49.000Z</time></trkpt><trkpt lon="5.509164" lat="51.131542"><ele>50.2</ele><time>2022-03-27T08:52:50.000Z</time></trkpt><trkpt lon="5.509251" lat="51.131498"><ele>50.2</ele><time>2022-03-27T08:52:51.000Z</time></trkpt><trkpt lon="5.509329" lat="51.131452"><ele>50</ele><time>2022-03-27T08:52:52.000Z</time></trkpt><trkpt lon="5.509414" lat="51.131407"><ele>50</ele><time>2022-03-27T08:52:53.000Z</time></trkpt><trkpt lon="5.509493" lat="51.131365"><ele>50</ele><time>2022-03-27T08:52:54.000Z</time></trkpt><trkpt lon="5.50957" lat="51.13132"><ele>50</ele><time>2022-03-27T08:52:55.000Z</time></trkpt><trkpt lon="5.50965" lat="51.131277"><ele>50</ele><time>2022-03-27T08:52:56.000Z</time></trkpt><trkpt lon="5.509725" lat="51.131236"><ele>50</ele><time>2022-03-27T08:52:57.000Z</time></trkpt><trkpt lon="5.5098" lat="51.131191"><ele>50.2</ele><time>2022-03-27T08:52:58.000Z</time></trkpt><trkpt lon="5.509877" lat="51.131148"><ele>50.4</ele><time>2022-03-27T08:52:59.000Z</time></trkpt><trkpt lon="5.509954" lat="51.131106"><ele>50.4</ele><time>2022-03-27T08:53:00.000Z</time></trkpt><trkpt lon="5.510031" lat="51.131061"><ele>50.6</ele><time>2022-03-27T08:53:01.000Z</time></trkpt><trkpt lon="5.510112" lat="51.131014"><ele>50.6</ele><time>2022-03-27T08:53:02.000Z</time></trkpt><trkpt lon="5.510193" lat="51.130972"><ele>50.8</ele><time>2022-03-27T08:53:03.000Z</time></trkpt><trkpt lon="5.510269" lat="51.130927"><ele>50.8</ele><time>2022-03-27T08:53:04.000Z</time></trkpt><trkpt lon="5.510347" lat="51.130881"><ele>50.8</ele><time>2022-03-27T08:53:05.000Z</time></trkpt><trkpt lon="5.510428" lat="51.130839"><ele>50.8</ele><time>2022-03-27T08:53:06.000Z</time></trkpt><trkpt lon="5.510506" lat="51.130793"><ele>50.8</ele><time>2022-03-27T08:53:07.000Z</time></trkpt><trkpt lon="5.510583" lat="51.130748"><ele>50.8</ele><time>2022-03-27T08:53:08.000Z</time></trkpt><trkpt lon="5.510661" lat="51.130702"><ele>50.6</ele><time>2022-03-27T08:53:09.000Z</time></trkpt><trkpt lon="5.510738" lat="51.130656"><ele>50.8</ele><time>2022-03-27T08:53:10.000Z</time></trkpt><trkpt lon="5.510816" lat="51.13061"><ele>50.8</ele><time>2022-03-27T08:53:11.000Z</time></trkpt><trkpt lon="5.510895" lat="51.130566"><ele>51</ele><time>2022-03-27T08:53:12.000Z</time></trkpt><trkpt lon="5.510975" lat="51.130515"><ele>51</ele><time>2022-03-27T08:53:13.000Z</time></trkpt><trkpt lon="5.511056" lat="51.130469"><ele>51</ele><time>2022-03-27T08:53:14.000Z</time></trkpt><trkpt lon="5.511133" lat="51.130423"><ele>51</ele><time>2022-03-27T08:53:15.000Z</time></trkpt><trkpt lon="5.511211" lat="51.130377"><ele>51.2</ele><time>2022-03-27T08:53:16.000Z</time></trkpt><trkpt lon="5.511289" lat="51.130339"><ele>51.2</ele><time>2022-03-27T08:53:17.000Z</time></trkpt><trkpt lon="5.511365" lat="51.130298"><ele>51.4</ele><time>2022-03-27T08:53:18.000Z</time></trkpt><trkpt lon="5.511447" lat="51.130255"><ele>51.4</ele><time>2022-03-27T08:53:19.000Z</time></trkpt><trkpt lon="5.511529" lat="51.130217"><ele>51.6</ele><time>2022-03-27T08:53:20.000Z</time></trkpt><trkpt lon="5.511614" lat="51.130183"><ele>51.8</ele><time>2022-03-27T08:53:21.000Z</time></trkpt><trkpt lon="5.511706" lat="51.130148"><ele>51.8</ele><time>2022-03-27T08:53:22.000Z</time></trkpt><trkpt lon="5.5118" lat="51.130114"><ele>51.8</ele><time>2022-03-27T08:53:23.000Z</time></trkpt><trkpt lon="5.511898" lat="51.130083"><ele>51.8</ele><time>2022-03-27T08:53:24.000Z</time></trkpt><trkpt lon="5.511997" lat="51.130053"><ele>51.8</ele><time>2022-03-27T08:53:25.000Z</time></trkpt><trkpt lon="5.512105" lat="51.130029"><ele>51.6</ele><time>2022-03-27T08:53:26.000Z</time></trkpt><trkpt lon="5.512211" lat="51.130006"><ele>51.6</ele><time>2022-03-27T08:53:27.000Z</time></trkpt><trkpt lon="5.512318" lat="51.129987"><ele>51.4</ele><time>2022-03-27T08:53:28.000Z</time></trkpt><trkpt lon="5.512427" lat="51.129972"><ele>51.4</ele><time>2022-03-27T08:53:29.000Z</time></trkpt><trkpt lon="5.512538" lat="51.129956"><ele>51.6</ele><time>2022-03-27T08:53:30.000Z</time></trkpt><trkpt lon="5.512651" lat="51.129944"><ele>51.4</ele><time>2022-03-27T08:53:31.000Z</time></trkpt><trkpt lon="5.512765" lat="51.129933"><ele>51.4</ele><time>2022-03-27T08:53:32.000Z</time></trkpt><trkpt lon="5.512882" lat="51.129922"><ele>51.4</ele><time>2022-03-27T08:53:33.000Z</time></trkpt><trkpt lon="5.513002" lat="51.12991"><ele>51.2</ele><time>2022-03-27T08:53:34.000Z</time></trkpt><trkpt lon="5.51312" lat="51.129902"><ele>51</ele><time>2022-03-27T08:53:35.000Z</time></trkpt><trkpt lon="5.513236" lat="51.129891"><ele>51</ele><time>2022-03-27T08:53:36.000Z</time></trkpt><trkpt lon="5.513352" lat="51.129883"><ele>50.8</ele><time>2022-03-27T08:53:37.000Z</time></trkpt><trkpt lon="5.513467" lat="51.129876"><ele>50.8</ele><time>2022-03-27T08:53:38.000Z</time></trkpt><trkpt lon="5.513582" lat="51.129868"><ele>50.8</ele><time>2022-03-27T08:53:39.000Z</time></trkpt><trkpt lon="5.513694" lat="51.129857"><ele>50.6</ele><time>2022-03-27T08:53:40.000Z</time></trkpt><trkpt lon="5.513816" lat="51.129849"><ele>50.4</ele><time>2022-03-27T08:53:41.000Z</time></trkpt><trkpt lon="5.513933" lat="51.129838"><ele>50.4</ele><time>2022-03-27T08:53:42.000Z</time></trkpt><trkpt lon="5.514048" lat="51.12983"><ele>50.4</ele><time>2022-03-27T08:53:43.000Z</time></trkpt><trkpt lon="5.514162" lat="51.129822"><ele>50.4</ele><time>2022-03-27T08:53:44.000Z</time></trkpt><trkpt lon="5.514275" lat="51.129811"><ele>50.6</ele><time>2022-03-27T08:53:45.000Z</time></trkpt><trkpt lon="5.514392" lat="51.129803"><ele>50.4</ele><time>2022-03-27T08:53:46.000Z</time></trkpt><trkpt lon="5.514508" lat="51.129796"><ele>50.2</ele><time>2022-03-27T08:53:47.000Z</time></trkpt><trkpt lon="5.514627" lat="51.129784"><ele>50</ele><time>2022-03-27T08:53:48.000Z</time></trkpt><trkpt lon="5.514741" lat="51.129776"><ele>49.8</ele><time>2022-03-27T08:53:49.000Z</time></trkpt><trkpt lon="5.514858" lat="51.129765"><ele>49.6</ele><time>2022-03-27T08:53:50.000Z</time></trkpt><trkpt lon="5.514971" lat="51.129754"><ele>49.6</ele><time>2022-03-27T08:53:51.000Z</time></trkpt><trkpt lon="5.515086" lat="51.129742"><ele>49.4</ele><time>2022-03-27T08:53:52.000Z</time></trkpt><trkpt lon="5.515204" lat="51.129731"><ele>49.2</ele><time>2022-03-27T08:53:53.000Z</time></trkpt><trkpt lon="5.515323" lat="51.129716"><ele>49</ele><time>2022-03-27T08:53:54.000Z</time></trkpt><trkpt lon="5.515436" lat="51.129704"><ele>49</ele><time>2022-03-27T08:53:55.000Z</time></trkpt><trkpt lon="5.515552" lat="51.129693"><ele>49</ele><time>2022-03-27T08:53:56.000Z</time></trkpt><trkpt lon="5.515666" lat="51.129681"><ele>49</ele><time>2022-03-27T08:53:57.000Z</time></trkpt><trkpt lon="5.515778" lat="51.12967"><ele>48.8</ele><time>2022-03-27T08:53:58.000Z</time></trkpt><trkpt lon="5.515886" lat="51.129655"><ele>48.8</ele><time>2022-03-27T08:53:59.000Z</time></trkpt><trkpt lon="5.515996" lat="51.129643"><ele>48.8</ele><time>2022-03-27T08:54:00.000Z</time></trkpt><trkpt lon="5.516104" lat="51.129628"><ele>48.6</ele><time>2022-03-27T08:54:01.000Z</time></trkpt><trkpt lon="5.516215" lat="51.129616"><ele>48.2</ele><time>2022-03-27T08:54:02.000Z</time></trkpt><trkpt lon="5.516321" lat="51.129605"><ele>48</ele><time>2022-03-27T08:54:03.000Z</time></trkpt><trkpt lon="5.516431" lat="51.129597"><ele>47.8</ele><time>2022-03-27T08:54:04.000Z</time></trkpt><trkpt lon="5.516541" lat="51.129586"><ele>47.6</ele><time>2022-03-27T08:54:05.000Z</time></trkpt><trkpt lon="5.516654" lat="51.129571"><ele>47.4</ele><time>2022-03-27T08:54:06.000Z</time></trkpt><trkpt lon="5.51677" lat="51.129559"><ele>47.4</ele><time>2022-03-27T08:54:07.000Z</time></trkpt><trkpt lon="5.516884" lat="51.129544"><ele>47.2</ele><time>2022-03-27T08:54:08.000Z</time></trkpt><trkpt lon="5.517001" lat="51.129529"><ele>47</ele><time>2022-03-27T08:54:09.000Z</time></trkpt><trkpt lon="5.517104" lat="51.129518"><ele>47</ele><time>2022-03-27T08:54:10.000Z</time></trkpt><trkpt lon="5.517221" lat="51.129507"><ele>46.8</ele><time>2022-03-27T08:54:11.000Z</time></trkpt><trkpt lon="5.517341" lat="51.129494"><ele>46.8</ele><time>2022-03-27T08:54:12.000Z</time></trkpt><trkpt lon="5.517453" lat="51.129483"><ele>46.6</ele><time>2022-03-27T08:54:13.000Z</time></trkpt><trkpt lon="5.517564" lat="51.129468"><ele>46.6</ele><time>2022-03-27T08:54:14.000Z</time></trkpt><trkpt lon="5.517673" lat="51.129456"><ele>46.6</ele><time>2022-03-27T08:54:15.000Z</time></trkpt><trkpt lon="5.517782" lat="51.129445"><ele>46.4</ele><time>2022-03-27T08:54:16.000Z</time></trkpt><trkpt lon="5.517888" lat="51.129433"><ele>46.4</ele><time>2022-03-27T08:54:17.000Z</time></trkpt><trkpt lon="5.517992" lat="51.129422"><ele>46.2</ele><time>2022-03-27T08:54:18.000Z</time></trkpt><trkpt lon="5.518099" lat="51.129418"><ele>46.2</ele><time>2022-03-27T08:54:19.000Z</time></trkpt><trkpt lon="5.518201" lat="51.129428"><ele>46.2</ele><time>2022-03-27T08:54:20.000Z</time></trkpt><trkpt lon="5.518297" lat="51.129447"><ele>46</ele><time>2022-03-27T08:54:21.000Z</time></trkpt><trkpt lon="5.518397" lat="51.129473"><ele>45.8</ele><time>2022-03-27T08:54:22.000Z</time></trkpt><trkpt lon="5.518487" lat="51.129502"><ele>45.6</ele><time>2022-03-27T08:54:23.000Z</time></trkpt><trkpt lon="5.518579" lat="51.129541"><ele>45.4</ele><time>2022-03-27T08:54:24.000Z</time></trkpt><trkpt lon="5.51866" lat="51.129579"><ele>45.4</ele><time>2022-03-27T08:54:25.000Z</time></trkpt><trkpt lon="5.51875" lat="51.129618"><ele>45.2</ele><time>2022-03-27T08:54:26.000Z</time></trkpt><trkpt lon="5.518843" lat="51.129652"><ele>45.2</ele><time>2022-03-27T08:54:27.000Z</time></trkpt><trkpt lon="5.518948" lat="51.129686"><ele>45</ele><time>2022-03-27T08:54:28.000Z</time></trkpt><trkpt lon="5.519059" lat="51.129721"><ele>44.8</ele><time>2022-03-27T08:54:29.000Z</time></trkpt><trkpt lon="5.519157" lat="51.129755"><ele>44.8</ele><time>2022-03-27T08:54:30.000Z</time></trkpt><trkpt lon="5.519257" lat="51.129797"><ele>44.8</ele><time>2022-03-27T08:54:31.000Z</time></trkpt><trkpt lon="5.519352" lat="51.129835"><ele>44.4</ele><time>2022-03-27T08:54:32.000Z</time></trkpt><trkpt lon="5.519459" lat="51.129872"><ele>44.4</ele><time>2022-03-27T08:54:33.000Z</time></trkpt><trkpt lon="5.519563" lat="51.129908"><ele>44.2</ele><time>2022-03-27T08:54:34.000Z</time></trkpt><trkpt lon="5.519655" lat="51.129942"><ele>44</ele><time>2022-03-27T08:54:35.000Z</time></trkpt><trkpt lon="5.519749" lat="51.129976"><ele>44</ele><time>2022-03-27T08:54:36.000Z</time></trkpt><trkpt lon="5.519848" lat="51.130014"><ele>44</ele><time>2022-03-27T08:54:37.000Z</time></trkpt><trkpt lon="5.519944" lat="51.130045"><ele>43.8</ele><time>2022-03-27T08:54:38.000Z</time></trkpt><trkpt lon="5.520039" lat="51.130072"><ele>43.6</ele><time>2022-03-27T08:54:39.000Z</time></trkpt><trkpt lon="5.520128" lat="51.130094"><ele>43.6</ele><time>2022-03-27T08:54:40.000Z</time></trkpt><trkpt lon="5.520234" lat="51.130111"><ele>43.6</ele><time>2022-03-27T08:54:41.000Z</time></trkpt><trkpt lon="5.520341" lat="51.130123"><ele>43.4</ele><time>2022-03-27T08:54:42.000Z</time></trkpt><trkpt lon="5.520447" lat="51.130134"><ele>43.4</ele><time>2022-03-27T08:54:43.000Z</time></trkpt><trkpt lon="5.520552" lat="51.130138"><ele>43.2</ele><time>2022-03-27T08:54:44.000Z</time></trkpt><trkpt lon="5.520661" lat="51.130138"><ele>43.2</ele><time>2022-03-27T08:54:45.000Z</time></trkpt><trkpt lon="5.520771" lat="51.130142"><ele>43</ele><time>2022-03-27T08:54:46.000Z</time></trkpt><trkpt lon="5.520882" lat="51.130146"><ele>42.8</ele><time>2022-03-27T08:54:47.000Z</time></trkpt><trkpt lon="5.52099" lat="51.130146"><ele>42.8</ele><time>2022-03-27T08:54:48.000Z</time></trkpt><trkpt lon="5.521098" lat="51.130146"><ele>42.8</ele><time>2022-03-27T08:54:49.000Z</time></trkpt><trkpt lon="5.521209" lat="51.130146"><ele>42.6</ele><time>2022-03-27T08:54:50.000Z</time></trkpt><trkpt lon="5.521321" lat="51.130139"><ele>42.4</ele><time>2022-03-27T08:54:51.000Z</time></trkpt><trkpt lon="5.521442" lat="51.130131"><ele>42.4</ele><time>2022-03-27T08:54:52.000Z</time></trkpt><trkpt lon="5.52156" lat="51.130124"><ele>42.2</ele><time>2022-03-27T08:54:53.000Z</time></trkpt><trkpt lon="5.521677" lat="51.130116"><ele>42.2</ele><time>2022-03-27T08:54:54.000Z</time></trkpt><trkpt lon="5.521794" lat="51.130112"><ele>42.2</ele><time>2022-03-27T08:54:55.000Z</time></trkpt><trkpt lon="5.52191" lat="51.130112"><ele>42.4</ele><time>2022-03-27T08:54:56.000Z</time></trkpt><trkpt lon="5.522026" lat="51.130112"><ele>42.4</ele><time>2022-03-27T08:54:57.000Z</time></trkpt><trkpt lon="5.522132" lat="51.130112"><ele>42.6</ele><time>2022-03-27T08:54:58.000Z</time></trkpt><trkpt lon="5.52225" lat="51.130115"><ele>42.6</ele><time>2022-03-27T08:54:59.000Z</time></trkpt><trkpt lon="5.522363" lat="51.130119"><ele>42.8</ele><time>2022-03-27T08:55:00.000Z</time></trkpt><trkpt lon="5.522475" lat="51.130123"><ele>43.2</ele><time>2022-03-27T08:55:01.000Z</time></trkpt><trkpt lon="5.522586" lat="51.13013"><ele>43.4</ele><time>2022-03-27T08:55:02.000Z</time></trkpt><trkpt lon="5.52269" lat="51.130134"><ele>43.6</ele><time>2022-03-27T08:55:03.000Z</time></trkpt><trkpt lon="5.522797" lat="51.130138"><ele>44</ele><time>2022-03-27T08:55:04.000Z</time></trkpt><trkpt lon="5.522897" lat="51.130146"><ele>44.2</ele><time>2022-03-27T08:55:05.000Z</time></trkpt><trkpt lon="5.522993" lat="51.13015"><ele>44.4</ele><time>2022-03-27T08:55:06.000Z</time></trkpt><trkpt lon="5.523096" lat="51.130157"><ele>44.6</ele><time>2022-03-27T08:55:07.000Z</time></trkpt><trkpt lon="5.523223" lat="51.130157"><ele>45</ele><time>2022-03-27T08:55:08.000Z</time></trkpt><trkpt lon="5.523352" lat="51.130157"><ele>45.4</ele><time>2022-03-27T08:55:09.000Z</time></trkpt><trkpt lon="5.523477" lat="51.130165"><ele>45.8</ele><time>2022-03-27T08:55:10.000Z</time></trkpt><trkpt lon="5.523594" lat="51.130176"><ele>46.2</ele><time>2022-03-27T08:55:11.000Z</time></trkpt><trkpt lon="5.523703" lat="51.130191"><ele>46.6</ele><time>2022-03-27T08:55:12.000Z</time></trkpt><trkpt lon="5.523799" lat="51.130217"><ele>47</ele><time>2022-03-27T08:55:13.000Z</time></trkpt><trkpt lon="5.523885" lat="51.130244"><ele>47.2</ele><time>2022-03-27T08:55:14.000Z</time></trkpt><trkpt lon="5.523968" lat="51.130277"><ele>47.6</ele><time>2022-03-27T08:55:15.000Z</time></trkpt><trkpt lon="5.524035" lat="51.130312"><ele>47.6</ele><time>2022-03-27T08:55:16.000Z</time></trkpt><trkpt lon="5.524089" lat="51.130346"><ele>47.8</ele><time>2022-03-27T08:55:17.000Z</time></trkpt><trkpt lon="5.524136" lat="51.130384"><ele>48</ele><time>2022-03-27T08:55:18.000Z</time></trkpt><trkpt lon="5.52418" lat="51.130415"><ele>48.2</ele><time>2022-03-27T08:55:19.000Z</time></trkpt><trkpt lon="5.524243" lat="51.130435"><ele>48.4</ele><time>2022-03-27T08:55:20.000Z</time></trkpt><trkpt lon="5.524314" lat="51.130443"><ele>48.6</ele><time>2022-03-27T08:55:21.000Z</time></trkpt><trkpt lon="5.524378" lat="51.130436"><ele>48.8</ele><time>2022-03-27T08:55:22.000Z</time></trkpt><trkpt lon="5.524433" lat="51.130414"><ele>49</ele><time>2022-03-27T08:55:23.000Z</time></trkpt><trkpt lon="5.524492" lat="51.130373"><ele>49.2</ele><time>2022-03-27T08:55:24.000Z</time></trkpt><trkpt lon="5.52454" lat="51.130328"><ele>49.2</ele><time>2022-03-27T08:55:25.000Z</time></trkpt><trkpt lon="5.524583" lat="51.130278"><ele>49.4</ele><time>2022-03-27T08:55:26.000Z</time></trkpt><trkpt lon="5.524619" lat="51.130233"><ele>49.4</ele><time>2022-03-27T08:55:27.000Z</time></trkpt><trkpt lon="5.524656" lat="51.130194"><ele>49.6</ele><time>2022-03-27T08:55:28.000Z</time></trkpt><trkpt lon="5.524693" lat="51.130152"><ele>49.8</ele><time>2022-03-27T08:55:29.000Z</time></trkpt><trkpt lon="5.524729" lat="51.130111"><ele>49.8</ele><time>2022-03-27T08:55:30.000Z</time></trkpt><trkpt lon="5.524763" lat="51.130065"><ele>50</ele><time>2022-03-27T08:55:31.000Z</time></trkpt><trkpt lon="5.524798" lat="51.130022"><ele>50</ele><time>2022-03-27T08:55:32.000Z</time></trkpt><trkpt lon="5.524837" lat="51.129984"><ele>50</ele><time>2022-03-27T08:55:33.000Z</time></trkpt><trkpt lon="5.524892" lat="51.129953"><ele>50</ele><time>2022-03-27T08:55:34.000Z</time></trkpt><trkpt lon="5.52496" lat="51.12993"><ele>49.8</ele><time>2022-03-27T08:55:35.000Z</time></trkpt><trkpt lon="5.52504" lat="51.129922"><ele>49.8</ele><time>2022-03-27T08:55:36.000Z</time></trkpt><trkpt lon="5.525133" lat="51.12991"><ele>50</ele><time>2022-03-27T08:55:37.000Z</time></trkpt><trkpt lon="5.525228" lat="51.129892"><ele>50</ele><time>2022-03-27T08:55:38.000Z</time></trkpt><trkpt lon="5.525322" lat="51.129873"><ele>50</ele><time>2022-03-27T08:55:39.000Z</time></trkpt><trkpt lon="5.525417" lat="51.129854"><ele>50</ele><time>2022-03-27T08:55:40.000Z</time></trkpt><trkpt lon="5.525512" lat="51.129834"><ele>50</ele><time>2022-03-27T08:55:41.000Z</time></trkpt><trkpt lon="5.525604" lat="51.129815"><ele>50</ele><time>2022-03-27T08:55:42.000Z</time></trkpt><trkpt lon="5.525695" lat="51.129796"><ele>50.2</ele><time>2022-03-27T08:55:43.000Z</time></trkpt><trkpt lon="5.525786" lat="51.129777"><ele>50</ele><time>2022-03-27T08:55:44.000Z</time></trkpt><trkpt lon="5.525882" lat="51.129758"><ele>50.2</ele><time>2022-03-27T08:55:45.000Z</time></trkpt><trkpt lon="5.525976" lat="51.129739"><ele>50.4</ele><time>2022-03-27T08:55:46.000Z</time></trkpt><trkpt lon="5.526071" lat="51.129724"><ele>50.4</ele><time>2022-03-27T08:55:47.000Z</time></trkpt><trkpt lon="5.526168" lat="51.129704"><ele>50.6</ele><time>2022-03-27T08:55:48.000Z</time></trkpt><trkpt lon="5.526267" lat="51.129689"><ele>50.6</ele><time>2022-03-27T08:55:49.000Z</time></trkpt><trkpt lon="5.526366" lat="51.129677"><ele>50.4</ele><time>2022-03-27T08:55:50.000Z</time></trkpt><trkpt lon="5.526466" lat="51.129666"><ele>50.6</ele><time>2022-03-27T08:55:51.000Z</time></trkpt><trkpt lon="5.52657" lat="51.129662"><ele>50.6</ele><time>2022-03-27T08:55:52.000Z</time></trkpt><trkpt lon="5.526676" lat="51.129654"><ele>50.6</ele><time>2022-03-27T08:55:53.000Z</time></trkpt><trkpt lon="5.526782" lat="51.129654"><ele>50.4</ele><time>2022-03-27T08:55:54.000Z</time></trkpt><trkpt lon="5.526888" lat="51.129654"><ele>50.2</ele><time>2022-03-27T08:55:55.000Z</time></trkpt><trkpt lon="5.526996" lat="51.129658"><ele>50</ele><time>2022-03-27T08:55:56.000Z</time></trkpt><trkpt lon="5.527101" lat="51.129665"><ele>50.2</ele><time>2022-03-27T08:55:57.000Z</time></trkpt><trkpt lon="5.527204" lat="51.12968"><ele>50.4</ele><time>2022-03-27T08:55:58.000Z</time></trkpt><trkpt lon="5.527307" lat="51.129699"><ele>50.4</ele><time>2022-03-27T08:55:59.000Z</time></trkpt><trkpt lon="5.527408" lat="51.129718"><ele>50.6</ele><time>2022-03-27T08:56:00.000Z</time></trkpt><trkpt lon="5.527505" lat="51.129744"><ele>50.6</ele><time>2022-03-27T08:56:01.000Z</time></trkpt><trkpt lon="5.527605" lat="51.129767"><ele>50.6</ele><time>2022-03-27T08:56:02.000Z</time></trkpt><trkpt lon="5.527705" lat="51.129786"><ele>50.6</ele><time>2022-03-27T08:56:03.000Z</time></trkpt><trkpt lon="5.527808" lat="51.129809"><ele>50.6</ele><time>2022-03-27T08:56:04.000Z</time></trkpt><trkpt lon="5.527906" lat="51.129835"><ele>50.6</ele><time>2022-03-27T08:56:05.000Z</time></trkpt><trkpt lon="5.528008" lat="51.129859"><ele>50.6</ele><time>2022-03-27T08:56:06.000Z</time></trkpt><trkpt lon="5.528107" lat="51.129881"><ele>50.6</ele><time>2022-03-27T08:56:07.000Z</time></trkpt><trkpt lon="5.528208" lat="51.129908"><ele>50.8</ele><time>2022-03-27T08:56:08.000Z</time></trkpt><trkpt lon="5.528308" lat="51.129931"><ele>50.8</ele><time>2022-03-27T08:56:09.000Z</time></trkpt><trkpt lon="5.5284" lat="51.129953"><ele>51</ele><time>2022-03-27T08:56:10.000Z</time></trkpt><trkpt lon="5.528501" lat="51.129981"><ele>50.8</ele><time>2022-03-27T08:56:11.000Z</time></trkpt><trkpt lon="5.528596" lat="51.130007"><ele>50.8</ele><time>2022-03-27T08:56:12.000Z</time></trkpt><trkpt lon="5.528686" lat="51.130033"><ele>50.8</ele><time>2022-03-27T08:56:13.000Z</time></trkpt><trkpt lon="5.528783" lat="51.130057"><ele>50.8</ele><time>2022-03-27T08:56:14.000Z</time></trkpt><trkpt lon="5.528882" lat="51.130084"><ele>50.8</ele><time>2022-03-27T08:56:15.000Z</time></trkpt><trkpt lon="5.52898" lat="51.130107"><ele>50.8</ele><time>2022-03-27T08:56:16.000Z</time></trkpt><trkpt lon="5.529078" lat="51.130133"><ele>51</ele><time>2022-03-27T08:56:17.000Z</time></trkpt><trkpt lon="5.529176" lat="51.13016"><ele>50.8</ele><time>2022-03-27T08:56:18.000Z</time></trkpt><trkpt lon="5.529273" lat="51.130183"><ele>51</ele><time>2022-03-27T08:56:19.000Z</time></trkpt><trkpt lon="5.529372" lat="51.130209"><ele>51</ele><time>2022-03-27T08:56:20.000Z</time></trkpt><trkpt lon="5.529471" lat="51.130236"><ele>51.2</ele><time>2022-03-27T08:56:21.000Z</time></trkpt><trkpt lon="5.52957" lat="51.130263"><ele>51.2</ele><time>2022-03-27T08:56:22.000Z</time></trkpt><trkpt lon="5.529671" lat="51.130286"><ele>51</ele><time>2022-03-27T08:56:23.000Z</time></trkpt><trkpt lon="5.529773" lat="51.130309"><ele>51</ele><time>2022-03-27T08:56:24.000Z</time></trkpt><trkpt lon="5.529876" lat="51.130332"><ele>51</ele><time>2022-03-27T08:56:25.000Z</time></trkpt><trkpt lon="5.529973" lat="51.130347"><ele>51.2</ele><time>2022-03-27T08:56:26.000Z</time></trkpt><trkpt lon="5.53008" lat="51.130366"><ele>51.2</ele><time>2022-03-27T08:56:27.000Z</time></trkpt><trkpt lon="5.530181" lat="51.130385"><ele>51.2</ele><time>2022-03-27T08:56:28.000Z</time></trkpt><trkpt lon="5.530289" lat="51.130401"><ele>51</ele><time>2022-03-27T08:56:29.000Z</time></trkpt><trkpt lon="5.530391" lat="51.130416"><ele>51.2</ele><time>2022-03-27T08:56:30.000Z</time></trkpt><trkpt lon="5.5305" lat="51.130428"><ele>51.4</ele><time>2022-03-27T08:56:31.000Z</time></trkpt><trkpt lon="5.530604" lat="51.130439"><ele>51.2</ele><time>2022-03-27T08:56:32.000Z</time></trkpt><trkpt lon="5.530705" lat="51.130447"><ele>51.2</ele><time>2022-03-27T08:56:33.000Z</time></trkpt><trkpt lon="5.530813" lat="51.130455"><ele>51.2</ele><time>2022-03-27T08:56:34.000Z</time></trkpt><trkpt lon="5.530913" lat="51.130459"><ele>51.4</ele><time>2022-03-27T08:56:35.000Z</time></trkpt><trkpt lon="5.531016" lat="51.130466"><ele>51.4</ele><time>2022-03-27T08:56:36.000Z</time></trkpt><trkpt lon="5.531118" lat="51.130466"><ele>51.2</ele><time>2022-03-27T08:56:37.000Z</time></trkpt><trkpt lon="5.531219" lat="51.13047"><ele>51.2</ele><time>2022-03-27T08:56:38.000Z</time></trkpt><trkpt lon="5.531319" lat="51.130474"><ele>51.2</ele><time>2022-03-27T08:56:39.000Z</time></trkpt><trkpt lon="5.531414" lat="51.130474"><ele>51.2</ele><time>2022-03-27T08:56:40.000Z</time></trkpt><trkpt lon="5.531526" lat="51.130474"><ele>51.4</ele><time>2022-03-27T08:56:41.000Z</time></trkpt><trkpt lon="5.531629" lat="51.130471"><ele>51.4</ele><time>2022-03-27T08:56:42.000Z</time></trkpt><trkpt lon="5.531736" lat="51.130467"><ele>51.4</ele><time>2022-03-27T08:56:43.000Z</time></trkpt><trkpt lon="5.531843" lat="51.130466"><ele>51.6</ele><time>2022-03-27T08:56:44.000Z</time></trkpt><trkpt lon="5.531951" lat="51.130466"><ele>51.6</ele><time>2022-03-27T08:56:45.000Z</time></trkpt><trkpt lon="5.532061" lat="51.130474"><ele>51.6</ele><time>2022-03-27T08:56:46.000Z</time></trkpt><trkpt lon="5.532166" lat="51.130478"><ele>51.6</ele><time>2022-03-27T08:56:47.000Z</time></trkpt><trkpt lon="5.532272" lat="51.130481"><ele>51.6</ele><time>2022-03-27T08:56:48.000Z</time></trkpt><trkpt lon="5.532378" lat="51.130493"><ele>51.8</ele><time>2022-03-27T08:56:49.000Z</time></trkpt><trkpt lon="5.532482" lat="51.130504"><ele>51.8</ele><time>2022-03-27T08:56:50.000Z</time></trkpt><trkpt lon="5.53259" lat="51.130508"><ele>51.8</ele><time>2022-03-27T08:56:51.000Z</time></trkpt><trkpt lon="5.532698" lat="51.130519"><ele>51.8</ele><time>2022-03-27T08:56:52.000Z</time></trkpt><trkpt lon="5.532804" lat="51.130534"><ele>51.8</ele><time>2022-03-27T08:56:53.000Z</time></trkpt><trkpt lon="5.532905" lat="51.130545"><ele>51.8</ele><time>2022-03-27T08:56:54.000Z</time></trkpt><trkpt lon="5.533014" lat="51.130557"><ele>52</ele><time>2022-03-27T08:56:55.000Z</time></trkpt><trkpt lon="5.533119" lat="51.130569"><ele>51.6</ele><time>2022-03-27T08:56:56.000Z</time></trkpt><trkpt lon="5.533224" lat="51.13058"><ele>51.8</ele><time>2022-03-27T08:56:57.000Z</time></trkpt><trkpt lon="5.53333" lat="51.130595"><ele>51.8</ele><time>2022-03-27T08:56:58.000Z</time></trkpt><trkpt lon="5.533431" lat="51.130607"><ele>51.8</ele><time>2022-03-27T08:56:59.000Z</time></trkpt><trkpt lon="5.533535" lat="51.130622"><ele>51.8</ele><time>2022-03-27T08:57:00.000Z</time></trkpt><trkpt lon="5.533638" lat="51.130634"><ele>51.8</ele><time>2022-03-27T08:57:01.000Z</time></trkpt><trkpt lon="5.533743" lat="51.130645"><ele>52</ele><time>2022-03-27T08:57:02.000Z</time></trkpt><trkpt lon="5.533847" lat="51.130656"><ele>52</ele><time>2022-03-27T08:57:03.000Z</time></trkpt><trkpt lon="5.533947" lat="51.130672"><ele>52</ele><time>2022-03-27T08:57:04.000Z</time></trkpt><trkpt lon="5.534046" lat="51.130687"><ele>52</ele><time>2022-03-27T08:57:05.000Z</time></trkpt><trkpt lon="5.534148" lat="51.130698"><ele>52</ele><time>2022-03-27T08:57:06.000Z</time></trkpt><trkpt lon="5.534248" lat="51.13071"><ele>52</ele><time>2022-03-27T08:57:07.000Z</time></trkpt><trkpt lon="5.53435" lat="51.130721"><ele>52</ele><time>2022-03-27T08:57:08.000Z</time></trkpt><trkpt lon="5.534454" lat="51.130733"><ele>52.2</ele><time>2022-03-27T08:57:09.000Z</time></trkpt><trkpt lon="5.534548" lat="51.130747"><ele>52.2</ele><time>2022-03-27T08:57:10.000Z</time></trkpt><trkpt lon="5.534661" lat="51.130763"><ele>52.2</ele><time>2022-03-27T08:57:11.000Z</time></trkpt><trkpt lon="5.534765" lat="51.130775"><ele>52.2</ele><time>2022-03-27T08:57:12.000Z</time></trkpt><trkpt lon="5.534866" lat="51.130786"><ele>52.2</ele><time>2022-03-27T08:57:13.000Z</time></trkpt><trkpt lon="5.53497" lat="51.130801"><ele>52.2</ele><time>2022-03-27T08:57:14.000Z</time></trkpt><trkpt lon="5.535069" lat="51.13082"><ele>52.4</ele><time>2022-03-27T08:57:15.000Z</time></trkpt><trkpt lon="5.535168" lat="51.130839"><ele>52.4</ele><time>2022-03-27T08:57:16.000Z</time></trkpt><trkpt lon="5.53527" lat="51.130855"><ele>52.2</ele><time>2022-03-27T08:57:17.000Z</time></trkpt><trkpt lon="5.535372" lat="51.130866"><ele>52.4</ele><time>2022-03-27T08:57:18.000Z</time></trkpt><trkpt lon="5.535476" lat="51.130881"><ele>52.4</ele><time>2022-03-27T08:57:19.000Z</time></trkpt><trkpt lon="5.535579" lat="51.130897"><ele>52.4</ele><time>2022-03-27T08:57:20.000Z</time></trkpt><trkpt lon="5.535684" lat="51.130908"><ele>52.4</ele><time>2022-03-27T08:57:21.000Z</time></trkpt><trkpt lon="5.53579" lat="51.130923"><ele>52.4</ele><time>2022-03-27T08:57:22.000Z</time></trkpt><trkpt lon="5.535894" lat="51.130935"><ele>52.4</ele><time>2022-03-27T08:57:23.000Z</time></trkpt><trkpt lon="5.535999" lat="51.130946"><ele>52.4</ele><time>2022-03-27T08:57:24.000Z</time></trkpt><trkpt lon="5.536104" lat="51.130962"><ele>52.4</ele><time>2022-03-27T08:57:25.000Z</time></trkpt><trkpt lon="5.536212" lat="51.130973"><ele>52.4</ele><time>2022-03-27T08:57:26.000Z</time></trkpt><trkpt lon="5.536317" lat="51.130988"><ele>52.4</ele><time>2022-03-27T08:57:27.000Z</time></trkpt><trkpt lon="5.536421" lat="51.131004"><ele>52.4</ele><time>2022-03-27T08:57:28.000Z</time></trkpt><trkpt lon="5.536526" lat="51.131015"><ele>52.4</ele><time>2022-03-27T08:57:29.000Z</time></trkpt><trkpt lon="5.536633" lat="51.13103"><ele>52.4</ele><time>2022-03-27T08:57:30.000Z</time></trkpt><trkpt lon="5.536734" lat="51.131042"><ele>52.4</ele><time>2022-03-27T08:57:31.000Z</time></trkpt><trkpt lon="5.536838" lat="51.131057"><ele>52.4</ele><time>2022-03-27T08:57:32.000Z</time></trkpt><trkpt lon="5.536939" lat="51.131075"><ele>52.4</ele><time>2022-03-27T08:57:33.000Z</time></trkpt><trkpt lon="5.537044" lat="51.131091"><ele>52.6</ele><time>2022-03-27T08:57:34.000Z</time></trkpt><trkpt lon="5.537145" lat="51.131103"><ele>52.4</ele><time>2022-03-27T08:57:35.000Z</time></trkpt><trkpt lon="5.537251" lat="51.131114"><ele>52.4</ele><time>2022-03-27T08:57:36.000Z</time></trkpt><trkpt lon="5.537356" lat="51.131129"><ele>52.6</ele><time>2022-03-27T08:57:37.000Z</time></trkpt><trkpt lon="5.53746" lat="51.131141"><ele>52.6</ele><time>2022-03-27T08:57:38.000Z</time></trkpt><trkpt lon="5.537565" lat="51.131156"><ele>52.6</ele><time>2022-03-27T08:57:39.000Z</time></trkpt><trkpt lon="5.537668" lat="51.131168"><ele>52.6</ele><time>2022-03-27T08:57:40.000Z</time></trkpt><trkpt lon="5.537773" lat="51.131179"><ele>52.6</ele><time>2022-03-27T08:57:41.000Z</time></trkpt><trkpt lon="5.537872" lat="51.131191"><ele>52.6</ele><time>2022-03-27T08:57:42.000Z</time></trkpt><trkpt lon="5.537971" lat="51.131206"><ele>52.6</ele><time>2022-03-27T08:57:43.000Z</time></trkpt><trkpt lon="5.538068" lat="51.131221"><ele>52.4</ele><time>2022-03-27T08:57:44.000Z</time></trkpt><trkpt lon="5.538168" lat="51.131233"><ele>52.4</ele><time>2022-03-27T08:57:45.000Z</time></trkpt><trkpt lon="5.538268" lat="51.131248"><ele>52.4</ele><time>2022-03-27T08:57:46.000Z</time></trkpt><trkpt lon="5.538365" lat="51.131263"><ele>52.6</ele><time>2022-03-27T08:57:47.000Z</time></trkpt><trkpt lon="5.538467" lat="51.131278"><ele>52.6</ele><time>2022-03-27T08:57:48.000Z</time></trkpt><trkpt lon="5.538569" lat="51.131293"><ele>52.6</ele><time>2022-03-27T08:57:49.000Z</time></trkpt><trkpt lon="5.538678" lat="51.131308"><ele>52.6</ele><time>2022-03-27T08:57:50.000Z</time></trkpt><trkpt lon="5.538785" lat="51.131324"><ele>52.6</ele><time>2022-03-27T08:57:51.000Z</time></trkpt><trkpt lon="5.538891" lat="51.131339"><ele>52.6</ele><time>2022-03-27T08:57:52.000Z</time></trkpt><trkpt lon="5.538995" lat="51.13135"><ele>52.6</ele><time>2022-03-27T08:57:53.000Z</time></trkpt><trkpt lon="5.539107" lat="51.131365"><ele>52.6</ele><time>2022-03-27T08:57:54.000Z</time></trkpt><trkpt lon="5.539218" lat="51.131381"><ele>52.4</ele><time>2022-03-27T08:57:55.000Z</time></trkpt><trkpt lon="5.539327" lat="51.131396"><ele>52.6</ele><time>2022-03-27T08:57:56.000Z</time></trkpt><trkpt lon="5.539432" lat="51.131412"><ele>52.6</ele><time>2022-03-27T08:57:57.000Z</time></trkpt><trkpt lon="5.539537" lat="51.13143"><ele>52.6</ele><time>2022-03-27T08:57:58.000Z</time></trkpt><trkpt lon="5.53964" lat="51.131446"><ele>52.4</ele><time>2022-03-27T08:57:59.000Z</time></trkpt><trkpt lon="5.539738" lat="51.131461"><ele>52.4</ele><time>2022-03-27T08:58:00.000Z</time></trkpt><trkpt lon="5.539838" lat="51.131473"><ele>52.2</ele><time>2022-03-27T08:58:01.000Z</time></trkpt><trkpt lon="5.539935" lat="51.131488"><ele>52</ele><time>2022-03-27T08:58:02.000Z</time></trkpt><trkpt lon="5.540039" lat="51.131503"><ele>52</ele><time>2022-03-27T08:58:03.000Z</time></trkpt><trkpt lon="5.540135" lat="51.131518"><ele>52</ele><time>2022-03-27T08:58:04.000Z</time></trkpt><trkpt lon="5.540228" lat="51.131534"><ele>51.8</ele><time>2022-03-27T08:58:05.000Z</time></trkpt><trkpt lon="5.540316" lat="51.131549"><ele>51.8</ele><time>2022-03-27T08:58:06.000Z</time></trkpt><trkpt lon="5.540401" lat="51.131564"><ele>51.8</ele><time>2022-03-27T08:58:07.000Z</time></trkpt><trkpt lon="5.540489" lat="51.131576"><ele>51.8</ele><time>2022-03-27T08:58:08.000Z</time></trkpt><trkpt lon="5.540577" lat="51.131591"><ele>51.8</ele><time>2022-03-27T08:58:09.000Z</time></trkpt><trkpt lon="5.540662" lat="51.131605"><ele>51.8</ele><time>2022-03-27T08:58:10.000Z</time></trkpt><trkpt lon="5.540772" lat="51.131621"><ele>51.8</ele><time>2022-03-27T08:58:11.000Z</time></trkpt><trkpt lon="5.540878" lat="51.131637"><ele>51.8</ele><time>2022-03-27T08:58:12.000Z</time></trkpt><trkpt lon="5.540977" lat="51.131652"><ele>51.8</ele><time>2022-03-27T08:58:13.000Z</time></trkpt><trkpt lon="5.541081" lat="51.131671"><ele>51.8</ele><time>2022-03-27T08:58:14.000Z</time></trkpt><trkpt lon="5.541176" lat="51.131689"><ele>51.8</ele><time>2022-03-27T08:58:15.000Z</time></trkpt><trkpt lon="5.541278" lat="51.131713"><ele>51.8</ele><time>2022-03-27T08:58:16.000Z</time></trkpt><trkpt lon="5.54137" lat="51.131736"><ele>51.6</ele><time>2022-03-27T08:58:17.000Z</time></trkpt><trkpt lon="5.541472" lat="51.131758"><ele>51.6</ele><time>2022-03-27T08:58:18.000Z</time></trkpt><trkpt lon="5.541572" lat="51.131781"><ele>51.6</ele><time>2022-03-27T08:58:19.000Z</time></trkpt><trkpt lon="5.541675" lat="51.1318"><ele>51.6</ele><time>2022-03-27T08:58:20.000Z</time></trkpt><trkpt lon="5.541777" lat="51.13182"><ele>51.4</ele><time>2022-03-27T08:58:21.000Z</time></trkpt><trkpt lon="5.541876" lat="51.131842"><ele>51.4</ele><time>2022-03-27T08:58:22.000Z</time></trkpt><trkpt lon="5.541979" lat="51.131861"><ele>51.4</ele><time>2022-03-27T08:58:23.000Z</time></trkpt><trkpt lon="5.542078" lat="51.131884"><ele>51.4</ele><time>2022-03-27T08:58:24.000Z</time></trkpt><trkpt lon="5.542175" lat="51.131907"><ele>51.4</ele><time>2022-03-27T08:58:25.000Z</time></trkpt><trkpt lon="5.542264" lat="51.131926"><ele>51.4</ele><time>2022-03-27T08:58:26.000Z</time></trkpt><trkpt lon="5.54234" lat="51.131949"><ele>51.4</ele><time>2022-03-27T08:58:27.000Z</time></trkpt><trkpt lon="5.542428" lat="51.131968"><ele>51.2</ele><time>2022-03-27T08:58:28.000Z</time></trkpt><trkpt lon="5.542517" lat="51.131988"><ele>51.2</ele><time>2022-03-27T08:58:29.000Z</time></trkpt><trkpt lon="5.542598" lat="51.13201"><ele>51.2</ele><time>2022-03-27T08:58:30.000Z</time></trkpt><trkpt lon="5.542677" lat="51.132033"><ele>51.2</ele><time>2022-03-27T08:58:31.000Z</time></trkpt><trkpt lon="5.542758" lat="51.132052"><ele>51.2</ele><time>2022-03-27T08:58:32.000Z</time></trkpt><trkpt lon="5.542831" lat="51.132067"><ele>51.2</ele><time>2022-03-27T08:58:33.000Z</time></trkpt><trkpt lon="5.542931" lat="51.132083"><ele>51.4</ele><time>2022-03-27T08:58:34.000Z</time></trkpt><trkpt lon="5.543049" lat="51.132094"><ele>51.4</ele><time>2022-03-27T08:58:35.000Z</time></trkpt><trkpt lon="5.543175" lat="51.132106"><ele>51.4</ele><time>2022-03-27T08:58:36.000Z</time></trkpt><trkpt lon="5.543306" lat="51.132117"><ele>51.6</ele><time>2022-03-27T08:58:37.000Z</time></trkpt><trkpt lon="5.543444" lat="51.132125"><ele>51.6</ele><time>2022-03-27T08:58:38.000Z</time></trkpt><trkpt lon="5.54358" lat="51.132133"><ele>51.6</ele><time>2022-03-27T08:58:39.000Z</time></trkpt><trkpt lon="5.54372" lat="51.132144"><ele>51.6</ele><time>2022-03-27T08:58:40.000Z</time></trkpt><trkpt lon="5.543858" lat="51.132156"><ele>51.6</ele><time>2022-03-27T08:58:41.000Z</time></trkpt><trkpt lon="5.54399" lat="51.132171"><ele>51.6</ele><time>2022-03-27T08:58:42.000Z</time></trkpt><trkpt lon="5.544123" lat="51.132183"><ele>51.8</ele><time>2022-03-27T08:58:43.000Z</time></trkpt><trkpt lon="5.544245" lat="51.132194"><ele>51.8</ele><time>2022-03-27T08:58:44.000Z</time></trkpt><trkpt lon="5.54437" lat="51.132205"><ele>51.8</ele><time>2022-03-27T08:58:45.000Z</time></trkpt><trkpt lon="5.544494" lat="51.132217"><ele>51.8</ele><time>2022-03-27T08:58:46.000Z</time></trkpt><trkpt lon="5.54462" lat="51.132228"><ele>52</ele><time>2022-03-27T08:58:47.000Z</time></trkpt><trkpt lon="5.544738" lat="51.132243"><ele>52</ele><time>2022-03-27T08:58:48.000Z</time></trkpt><trkpt lon="5.544855" lat="51.132255"><ele>52.2</ele><time>2022-03-27T08:58:49.000Z</time></trkpt><trkpt lon="5.544986" lat="51.132262"><ele>52.2</ele><time>2022-03-27T08:58:50.000Z</time></trkpt><trkpt lon="5.545112" lat="51.132274"><ele>52.2</ele><time>2022-03-27T08:58:51.000Z</time></trkpt><trkpt lon="5.54523" lat="51.132289"><ele>52.2</ele><time>2022-03-27T08:58:52.000Z</time></trkpt><trkpt lon="5.545339" lat="51.132297"><ele>52.2</ele><time>2022-03-27T08:58:53.000Z</time></trkpt><trkpt lon="5.545449" lat="51.132308"><ele>52.2</ele><time>2022-03-27T08:58:54.000Z</time></trkpt><trkpt lon="5.545556" lat="51.132323"><ele>52.2</ele><time>2022-03-27T08:58:55.000Z</time></trkpt><trkpt lon="5.545677" lat="51.132331"><ele>52.2</ele><time>2022-03-27T08:58:56.000Z</time></trkpt><trkpt lon="5.545786" lat="51.132346"><ele>52.4</ele><time>2022-03-27T08:58:57.000Z</time></trkpt><trkpt lon="5.545897" lat="51.132361"><ele>52.4</ele><time>2022-03-27T08:58:58.000Z</time></trkpt><trkpt lon="5.546007" lat="51.132373"><ele>52.2</ele><time>2022-03-27T08:58:59.000Z</time></trkpt><trkpt lon="5.546117" lat="51.132388"><ele>52.2</ele><time>2022-03-27T08:59:00.000Z</time></trkpt><trkpt lon="5.546226" lat="51.132403"><ele>52</ele><time>2022-03-27T08:59:01.000Z</time></trkpt><trkpt lon="5.546334" lat="51.132419"><ele>52</ele><time>2022-03-27T08:59:02.000Z</time></trkpt><trkpt lon="5.546451" lat="51.13243"><ele>52.2</ele><time>2022-03-27T08:59:03.000Z</time></trkpt><trkpt lon="5.546562" lat="51.132445"><ele>52.2</ele><time>2022-03-27T08:59:04.000Z</time></trkpt><trkpt lon="5.546676" lat="51.132457"><ele>52.2</ele><time>2022-03-27T08:59:05.000Z</time></trkpt><trkpt lon="5.546783" lat="51.132468"><ele>52.2</ele><time>2022-03-27T08:59:06.000Z</time></trkpt><trkpt lon="5.546886" lat="51.132483"><ele>52.2</ele><time>2022-03-27T08:59:07.000Z</time></trkpt><trkpt lon="5.546994" lat="51.132499"><ele>52.2</ele><time>2022-03-27T08:59:08.000Z</time></trkpt><trkpt lon="5.547101" lat="51.132514"><ele>52.2</ele><time>2022-03-27T08:59:09.000Z</time></trkpt><trkpt lon="5.547204" lat="51.132525"><ele>52.2</ele><time>2022-03-27T08:59:10.000Z</time></trkpt><trkpt lon="5.547312" lat="51.132541"><ele>52.4</ele><time>2022-03-27T08:59:11.000Z</time></trkpt><trkpt lon="5.547417" lat="51.132552"><ele>52.4</ele><time>2022-03-27T08:59:12.000Z</time></trkpt><trkpt lon="5.547514" lat="51.132563"><ele>52.6</ele><time>2022-03-27T08:59:13.000Z</time></trkpt><trkpt lon="5.547632" lat="51.132575"><ele>52.6</ele><time>2022-03-27T08:59:14.000Z</time></trkpt><trkpt lon="5.547738" lat="51.132591"><ele>52.6</ele><time>2022-03-27T08:59:15.000Z</time></trkpt><trkpt lon="5.54784" lat="51.132606"><ele>52.6</ele><time>2022-03-27T08:59:16.000Z</time></trkpt><trkpt lon="5.547945" lat="51.132621"><ele>52.6</ele><time>2022-03-27T08:59:17.000Z</time></trkpt><trkpt lon="5.548052" lat="51.132632"><ele>52.6</ele><time>2022-03-27T08:59:18.000Z</time></trkpt><trkpt lon="5.548166" lat="51.13264"><ele>52.6</ele><time>2022-03-27T08:59:19.000Z</time></trkpt><trkpt lon="5.548275" lat="51.132655"><ele>52.8</ele><time>2022-03-27T08:59:20.000Z</time></trkpt><trkpt lon="5.548379" lat="51.13267"><ele>52.8</ele><time>2022-03-27T08:59:21.000Z</time></trkpt><trkpt lon="5.548487" lat="51.132682"><ele>52.8</ele><time>2022-03-27T08:59:22.000Z</time></trkpt><trkpt lon="5.548595" lat="51.132697"><ele>52.8</ele><time>2022-03-27T08:59:23.000Z</time></trkpt><trkpt lon="5.54871" lat="51.132709"><ele>52.8</ele><time>2022-03-27T08:59:24.000Z</time></trkpt><trkpt lon="5.548817" lat="51.13272"><ele>52.6</ele><time>2022-03-27T08:59:25.000Z</time></trkpt><trkpt lon="5.548921" lat="51.132732"><ele>52.6</ele><time>2022-03-27T08:59:26.000Z</time></trkpt><trkpt lon="5.549028" lat="51.132746"><ele>52.8</ele><time>2022-03-27T08:59:27.000Z</time></trkpt><trkpt lon="5.549125" lat="51.132758"><ele>52.8</ele><time>2022-03-27T08:59:28.000Z</time></trkpt><trkpt lon="5.549224" lat="51.132777"><ele>52.8</ele><time>2022-03-27T08:59:29.000Z</time></trkpt><trkpt lon="5.549326" lat="51.132792"><ele>52.8</ele><time>2022-03-27T08:59:30.000Z</time></trkpt><trkpt lon="5.549428" lat="51.132804"><ele>52.8</ele><time>2022-03-27T08:59:31.000Z</time></trkpt><trkpt lon="5.549533" lat="51.132819"><ele>52.8</ele><time>2022-03-27T08:59:32.000Z</time></trkpt><trkpt lon="5.549637" lat="51.132831"><ele>52.8</ele><time>2022-03-27T08:59:33.000Z</time></trkpt><trkpt lon="5.549747" lat="51.132846"><ele>52.8</ele><time>2022-03-27T08:59:34.000Z</time></trkpt><trkpt lon="5.549855" lat="51.132861"><ele>53</ele><time>2022-03-27T08:59:35.000Z</time></trkpt><trkpt lon="5.549962" lat="51.132876"><ele>53</ele><time>2022-03-27T08:59:36.000Z</time></trkpt><trkpt lon="5.550062" lat="51.132895"><ele>53</ele><time>2022-03-27T08:59:37.000Z</time></trkpt><trkpt lon="5.550159" lat="51.132913"><ele>53</ele><time>2022-03-27T08:59:38.000Z</time></trkpt><trkpt lon="5.550259" lat="51.132933"><ele>53</ele><time>2022-03-27T08:59:39.000Z</time></trkpt><trkpt lon="5.550365" lat="51.132949"><ele>53.2</ele><time>2022-03-27T08:59:40.000Z</time></trkpt><trkpt lon="5.550472" lat="51.13296"><ele>53.2</ele><time>2022-03-27T08:59:41.000Z</time></trkpt><trkpt lon="5.550582" lat="51.132976"><ele>53.2</ele><time>2022-03-27T08:59:42.000Z</time></trkpt><trkpt lon="5.550688" lat="51.132983"><ele>53.2</ele><time>2022-03-27T08:59:43.000Z</time></trkpt><trkpt lon="5.550803" lat="51.132995"><ele>53.4</ele><time>2022-03-27T08:59:44.000Z</time></trkpt><trkpt lon="5.550917" lat="51.133006"><ele>53.4</ele><time>2022-03-27T08:59:45.000Z</time></trkpt><trkpt lon="5.551029" lat="51.133017"><ele>53.4</ele><time>2022-03-27T08:59:46.000Z</time></trkpt><trkpt lon="5.551142" lat="51.133032"><ele>53.4</ele><time>2022-03-27T08:59:47.000Z</time></trkpt><trkpt lon="5.551259" lat="51.133044"><ele>53.4</ele><time>2022-03-27T08:59:48.000Z</time></trkpt><trkpt lon="5.551376" lat="51.133056"><ele>53.4</ele><time>2022-03-27T08:59:49.000Z</time></trkpt><trkpt lon="5.551485" lat="51.133071"><ele>53.2</ele><time>2022-03-27T08:59:50.000Z</time></trkpt><trkpt lon="5.551598" lat="51.133086"><ele>53.2</ele><time>2022-03-27T08:59:51.000Z</time></trkpt><trkpt lon="5.551712" lat="51.133098"><ele>53.2</ele><time>2022-03-27T08:59:52.000Z</time></trkpt><trkpt lon="5.551829" lat="51.133109"><ele>53.2</ele><time>2022-03-27T08:59:53.000Z</time></trkpt><trkpt lon="5.551947" lat="51.133121"><ele>53</ele><time>2022-03-27T08:59:54.000Z</time></trkpt><trkpt lon="5.55206" lat="51.133132"><ele>52.8</ele><time>2022-03-27T08:59:55.000Z</time></trkpt><trkpt lon="5.552181" lat="51.133143"><ele>52.6</ele><time>2022-03-27T08:59:56.000Z</time></trkpt><trkpt lon="5.552297" lat="51.133155"><ele>52.6</ele><time>2022-03-27T08:59:57.000Z</time></trkpt><trkpt lon="5.55241" lat="51.13317"><ele>52.6</ele><time>2022-03-27T08:59:58.000Z</time></trkpt><trkpt lon="5.552522" lat="51.133185"><ele>52.4</ele><time>2022-03-27T08:59:59.000Z</time></trkpt><trkpt lon="5.552638" lat="51.133197"><ele>52.6</ele><time>2022-03-27T09:00:00.000Z</time></trkpt><trkpt lon="5.552759" lat="51.133205"><ele>52.6</ele><time>2022-03-27T09:00:01.000Z</time></trkpt><trkpt lon="5.552879" lat="51.133216"><ele>52.4</ele><time>2022-03-27T09:00:02.000Z</time></trkpt><trkpt lon="5.552993" lat="51.133227"><ele>52.4</ele><time>2022-03-27T09:00:03.000Z</time></trkpt><trkpt lon="5.553112" lat="51.133239"><ele>52.4</ele><time>2022-03-27T09:00:04.000Z</time></trkpt><trkpt lon="5.553229" lat="51.13325"><ele>52.2</ele><time>2022-03-27T09:00:05.000Z</time></trkpt><trkpt lon="5.553346" lat="51.133262"><ele>52.2</ele><time>2022-03-27T09:00:06.000Z</time></trkpt><trkpt lon="5.553461" lat="51.133273"><ele>52</ele><time>2022-03-27T09:00:07.000Z</time></trkpt><trkpt lon="5.553571" lat="51.133285"><ele>52</ele><time>2022-03-27T09:00:08.000Z</time></trkpt><trkpt lon="5.553684" lat="51.133296"><ele>52</ele><time>2022-03-27T09:00:09.000Z</time></trkpt><trkpt lon="5.553793" lat="51.133311"><ele>52</ele><time>2022-03-27T09:00:10.000Z</time></trkpt><trkpt lon="5.553905" lat="51.133323"><ele>52</ele><time>2022-03-27T09:00:11.000Z</time></trkpt><trkpt lon="5.554015" lat="51.133342"><ele>52</ele><time>2022-03-27T09:00:12.000Z</time></trkpt><trkpt lon="5.554125" lat="51.133353"><ele>52</ele><time>2022-03-27T09:00:13.000Z</time></trkpt><trkpt lon="5.554237" lat="51.133368"><ele>52</ele><time>2022-03-27T09:00:14.000Z</time></trkpt><trkpt lon="5.554346" lat="51.133387"><ele>52.2</ele><time>2022-03-27T09:00:15.000Z</time></trkpt><trkpt lon="5.554457" lat="51.133399"><ele>52.2</ele><time>2022-03-27T09:00:16.000Z</time></trkpt><trkpt lon="5.554568" lat="51.133414"><ele>52.2</ele><time>2022-03-27T09:00:17.000Z</time></trkpt><trkpt lon="5.554679" lat="51.133429"><ele>52.2</ele><time>2022-03-27T09:00:18.000Z</time></trkpt><trkpt lon="5.554796" lat="51.133441"><ele>52.4</ele><time>2022-03-27T09:00:19.000Z</time></trkpt><trkpt lon="5.554908" lat="51.133452"><ele>52.4</ele><time>2022-03-27T09:00:20.000Z</time></trkpt><trkpt lon="5.55502" lat="51.133464"><ele>52.4</ele><time>2022-03-27T09:00:21.000Z</time></trkpt><trkpt lon="5.555133" lat="51.133479"><ele>52.2</ele><time>2022-03-27T09:00:22.000Z</time></trkpt><trkpt lon="5.55524" lat="51.133494"><ele>52</ele><time>2022-03-27T09:00:23.000Z</time></trkpt><trkpt lon="5.555348" lat="51.133509"><ele>52</ele><time>2022-03-27T09:00:24.000Z</time></trkpt><trkpt lon="5.55546" lat="51.133521"><ele>52</ele><time>2022-03-27T09:00:25.000Z</time></trkpt><trkpt lon="5.555567" lat="51.133536"><ele>51.8</ele><time>2022-03-27T09:00:26.000Z</time></trkpt><trkpt lon="5.555676" lat="51.133555"><ele>51.8</ele><time>2022-03-27T09:00:27.000Z</time></trkpt><trkpt lon="5.555785" lat="51.13357"><ele>51.6</ele><time>2022-03-27T09:00:28.000Z</time></trkpt><trkpt lon="5.555896" lat="51.133584"><ele>51.4</ele><time>2022-03-27T09:00:29.000Z</time></trkpt><trkpt lon="5.556008" lat="51.133598"><ele>51.4</ele><time>2022-03-27T09:00:30.000Z</time></trkpt><trkpt lon="5.556118" lat="51.133609"><ele>51.2</ele><time>2022-03-27T09:00:31.000Z</time></trkpt><trkpt lon="5.556228" lat="51.133621"><ele>51.2</ele><time>2022-03-27T09:00:32.000Z</time></trkpt><trkpt lon="5.556339" lat="51.133628"><ele>51</ele><time>2022-03-27T09:00:33.000Z</time></trkpt><trkpt lon="5.556443" lat="51.133636"><ele>50.8</ele><time>2022-03-27T09:00:34.000Z</time></trkpt><trkpt lon="5.556546" lat="51.133637"><ele>50.6</ele><time>2022-03-27T09:00:35.000Z</time></trkpt><trkpt lon="5.556639" lat="51.13363"><ele>50.4</ele><time>2022-03-27T09:00:36.000Z</time></trkpt><trkpt lon="5.556741" lat="51.133609"><ele>50.2</ele><time>2022-03-27T09:00:37.000Z</time></trkpt><trkpt lon="5.556844" lat="51.133588"><ele>49.8</ele><time>2022-03-27T09:00:38.000Z</time></trkpt><trkpt lon="5.556952" lat="51.133562"><ele>49.6</ele><time>2022-03-27T09:00:39.000Z</time></trkpt><trkpt lon="5.557064" lat="51.133528"><ele>49.4</ele><time>2022-03-27T09:00:40.000Z</time></trkpt><trkpt lon="5.557177" lat="51.133493"><ele>49.4</ele><time>2022-03-27T09:00:41.000Z</time></trkpt><trkpt lon="5.557288" lat="51.133455"><ele>49.2</ele><time>2022-03-27T09:00:42.000Z</time></trkpt><trkpt lon="5.557403" lat="51.133421"><ele>49.2</ele><time>2022-03-27T09:00:43.000Z</time></trkpt><trkpt lon="5.557517" lat="51.133383"><ele>49</ele><time>2022-03-27T09:00:44.000Z</time></trkpt><trkpt lon="5.557635" lat="51.133348"><ele>48.6</ele><time>2022-03-27T09:00:45.000Z</time></trkpt><trkpt lon="5.557756" lat="51.13331"><ele>48.4</ele><time>2022-03-27T09:00:46.000Z</time></trkpt><trkpt lon="5.55788" lat="51.133276"><ele>48</ele><time>2022-03-27T09:00:47.000Z</time></trkpt><trkpt lon="5.558007" lat="51.13324"><ele>47.8</ele><time>2022-03-27T09:00:48.000Z</time></trkpt><trkpt lon="5.558135" lat="51.133204"><ele>47.4</ele><time>2022-03-27T09:00:49.000Z</time></trkpt><trkpt lon="5.558265" lat="51.133173"><ele>47.2</ele><time>2022-03-27T09:00:50.000Z</time></trkpt><trkpt lon="5.558399" lat="51.133139"><ele>46.8</ele><time>2022-03-27T09:00:51.000Z</time></trkpt><trkpt lon="5.558539" lat="51.133104"><ele>46.4</ele><time>2022-03-27T09:00:52.000Z</time></trkpt><trkpt lon="5.558674" lat="51.13307"><ele>46</ele><time>2022-03-27T09:00:53.000Z</time></trkpt><trkpt lon="5.558807" lat="51.133032"><ele>45.6</ele><time>2022-03-27T09:00:54.000Z</time></trkpt><trkpt lon="5.558925" lat="51.132998"><ele>45.6</ele><time>2022-03-27T09:00:55.000Z</time></trkpt><trkpt lon="5.559028" lat="51.132958"><ele>45.4</ele><time>2022-03-27T09:00:56.000Z</time></trkpt><trkpt lon="5.55913" lat="51.132918"><ele>45.4</ele><time>2022-03-27T09:00:57.000Z</time></trkpt><trkpt lon="5.559217" lat="51.132879"><ele>45.2</ele><time>2022-03-27T09:00:58.000Z</time></trkpt><trkpt lon="5.559302" lat="51.132838"><ele>45.2</ele><time>2022-03-27T09:00:59.000Z</time></trkpt><trkpt lon="5.559386" lat="51.132796"><ele>45.2</ele><time>2022-03-27T09:01:00.000Z</time></trkpt><trkpt lon="5.559477" lat="51.132746"><ele>45.2</ele><time>2022-03-27T09:01:01.000Z</time></trkpt><trkpt lon="5.559564" lat="51.132704"><ele>45.2</ele><time>2022-03-27T09:01:02.000Z</time></trkpt><trkpt lon="5.559648" lat="51.132662"><ele>45.2</ele><time>2022-03-27T09:01:03.000Z</time></trkpt><trkpt lon="5.559736" lat="51.13262"><ele>45.4</ele><time>2022-03-27T09:01:04.000Z</time></trkpt><trkpt lon="5.559816" lat="51.132572"><ele>45.8</ele><time>2022-03-27T09:01:05.000Z</time></trkpt><trkpt lon="5.5599" lat="51.132525"><ele>46</ele><time>2022-03-27T09:01:06.000Z</time></trkpt><trkpt lon="5.559979" lat="51.132479"><ele>46</ele><time>2022-03-27T09:01:07.000Z</time></trkpt><trkpt lon="5.560059" lat="51.132435"><ele>46.2</ele><time>2022-03-27T09:01:08.000Z</time></trkpt><trkpt lon="5.560147" lat="51.132389"><ele>46.2</ele><time>2022-03-27T09:01:09.000Z</time></trkpt><trkpt lon="5.560235" lat="51.132342"><ele>46.6</ele><time>2022-03-27T09:01:10.000Z</time></trkpt><trkpt lon="5.560322" lat="51.132296"><ele>46.8</ele><time>2022-03-27T09:01:11.000Z</time></trkpt><trkpt lon="5.56041" lat="51.13225"><ele>46.8</ele><time>2022-03-27T09:01:12.000Z</time></trkpt><trkpt lon="5.560499" lat="51.132201"><ele>47</ele><time>2022-03-27T09:01:13.000Z</time></trkpt><trkpt lon="5.560585" lat="51.132148"><ele>47</ele><time>2022-03-27T09:01:14.000Z</time></trkpt><trkpt lon="5.560684" lat="51.132095"><ele>47.2</ele><time>2022-03-27T09:01:15.000Z</time></trkpt><trkpt lon="5.560775" lat="51.132045"><ele>47.2</ele><time>2022-03-27T09:01:16.000Z</time></trkpt><trkpt lon="5.560868" lat="51.131995"><ele>47.4</ele><time>2022-03-27T09:01:17.000Z</time></trkpt><trkpt lon="5.560958" lat="51.131942"><ele>47.4</ele><time>2022-03-27T09:01:18.000Z</time></trkpt><trkpt lon="5.561053" lat="51.131892"><ele>47.6</ele><time>2022-03-27T09:01:19.000Z</time></trkpt><trkpt lon="5.561143" lat="51.131842"><ele>47.6</ele><time>2022-03-27T09:01:20.000Z</time></trkpt><trkpt lon="5.561235" lat="51.131793"><ele>47.6</ele><time>2022-03-27T09:01:21.000Z</time></trkpt><trkpt lon="5.561325" lat="51.131743"><ele>47.6</ele><time>2022-03-27T09:01:22.000Z</time></trkpt><trkpt lon="5.56142" lat="51.131694"><ele>47.8</ele><time>2022-03-27T09:01:23.000Z</time></trkpt><trkpt lon="5.561515" lat="51.13164"><ele>47.8</ele><time>2022-03-27T09:01:24.000Z</time></trkpt><trkpt lon="5.561606" lat="51.131594"><ele>47.8</ele><time>2022-03-27T09:01:25.000Z</time></trkpt><trkpt lon="5.561691" lat="51.131545"><ele>48</ele><time>2022-03-27T09:01:26.000Z</time></trkpt><trkpt lon="5.561779" lat="51.131499"><ele>48</ele><time>2022-03-27T09:01:27.000Z</time></trkpt><trkpt lon="5.561861" lat="51.131457"><ele>48</ele><time>2022-03-27T09:01:28.000Z</time></trkpt><trkpt lon="5.561947" lat="51.131408"><ele>48</ele><time>2022-03-27T09:01:29.000Z</time></trkpt><trkpt lon="5.562033" lat="51.131362"><ele>48</ele><time>2022-03-27T09:01:30.000Z</time></trkpt><trkpt lon="5.562119" lat="51.131316"><ele>48</ele><time>2022-03-27T09:01:31.000Z</time></trkpt><trkpt lon="5.562201" lat="51.131275"><ele>48</ele><time>2022-03-27T09:01:32.000Z</time></trkpt><trkpt lon="5.562283" lat="51.131228"><ele>48</ele><time>2022-03-27T09:01:33.000Z</time></trkpt><trkpt lon="5.562361" lat="51.131184"><ele>48.2</ele><time>2022-03-27T09:01:34.000Z</time></trkpt><trkpt lon="5.562448" lat="51.131137"><ele>48.2</ele><time>2022-03-27T09:01:35.000Z</time></trkpt><trkpt lon="5.562533" lat="51.131091"><ele>48.4</ele><time>2022-03-27T09:01:36.000Z</time></trkpt><trkpt lon="5.562618" lat="51.131046"><ele>48.4</ele><time>2022-03-27T09:01:37.000Z</time></trkpt><trkpt lon="5.562705" lat="51.130999"><ele>48.6</ele><time>2022-03-27T09:01:38.000Z</time></trkpt><trkpt lon="5.562788" lat="51.130954"><ele>48.6</ele><time>2022-03-27T09:01:39.000Z</time></trkpt><trkpt lon="5.562872" lat="51.130908"><ele>48.8</ele><time>2022-03-27T09:01:40.000Z</time></trkpt><trkpt lon="5.562953" lat="51.130862"><ele>49</ele><time>2022-03-27T09:01:41.000Z</time></trkpt><trkpt lon="5.563029" lat="51.130812"><ele>49.2</ele><time>2022-03-27T09:01:42.000Z</time></trkpt><trkpt lon="5.563103" lat="51.130759"><ele>49.2</ele><time>2022-03-27T09:01:43.000Z</time></trkpt><trkpt lon="5.563177" lat="51.130705"><ele>49.4</ele><time>2022-03-27T09:01:44.000Z</time></trkpt><trkpt lon="5.563243" lat="51.130656"><ele>49.4</ele><time>2022-03-27T09:01:45.000Z</time></trkpt><trkpt lon="5.563315" lat="51.130606"><ele>49.4</ele><time>2022-03-27T09:01:46.000Z</time></trkpt><trkpt lon="5.563388" lat="51.130553"><ele>49.6</ele><time>2022-03-27T09:01:47.000Z</time></trkpt><trkpt lon="5.56347" lat="51.1305"><ele>49.6</ele><time>2022-03-27T09:01:48.000Z</time></trkpt><trkpt lon="5.563554" lat="51.130451"><ele>49.6</ele><time>2022-03-27T09:01:49.000Z</time></trkpt><trkpt lon="5.563639" lat="51.130401"><ele>49.6</ele><time>2022-03-27T09:01:50.000Z</time></trkpt><trkpt lon="5.563725" lat="51.130351"><ele>49.6</ele><time>2022-03-27T09:01:51.000Z</time></trkpt><trkpt lon="5.563804" lat="51.13031"><ele>49.8</ele><time>2022-03-27T09:01:52.000Z</time></trkpt><trkpt lon="5.563887" lat="51.130259"><ele>50</ele><time>2022-03-27T09:01:53.000Z</time></trkpt><trkpt lon="5.563966" lat="51.130209"><ele>50</ele><time>2022-03-27T09:01:54.000Z</time></trkpt><trkpt lon="5.564038" lat="51.130156"><ele>50.2</ele><time>2022-03-27T09:01:55.000Z</time></trkpt><trkpt lon="5.564102" lat="51.130101"><ele>50</ele><time>2022-03-27T09:01:56.000Z</time></trkpt><trkpt lon="5.564164" lat="51.130044"><ele>50.2</ele><time>2022-03-27T09:01:57.000Z</time></trkpt><trkpt lon="5.564226" lat="51.129982"><ele>50.2</ele><time>2022-03-27T09:01:58.000Z</time></trkpt><trkpt lon="5.564285" lat="51.12992"><ele>50</ele><time>2022-03-27T09:01:59.000Z</time></trkpt><trkpt lon="5.564337" lat="51.129865"><ele>50</ele><time>2022-03-27T09:02:00.000Z</time></trkpt><trkpt lon="5.564393" lat="51.129804"><ele>50</ele><time>2022-03-27T09:02:01.000Z</time></trkpt><trkpt lon="5.564457" lat="51.129737"><ele>50</ele><time>2022-03-27T09:02:02.000Z</time></trkpt><trkpt lon="5.564516" lat="51.129677"><ele>50</ele><time>2022-03-27T09:02:03.000Z</time></trkpt><trkpt lon="5.564577" lat="51.129615"><ele>50</ele><time>2022-03-27T09:02:04.000Z</time></trkpt><trkpt lon="5.564634" lat="51.129558"><ele>50</ele><time>2022-03-27T09:02:05.000Z</time></trkpt><trkpt lon="5.564693" lat="51.129498"><ele>49.8</ele><time>2022-03-27T09:02:06.000Z</time></trkpt><trkpt lon="5.564754" lat="51.129443"><ele>49.8</ele><time>2022-03-27T09:02:07.000Z</time></trkpt><trkpt lon="5.564815" lat="51.12939"><ele>49.8</ele><time>2022-03-27T09:02:08.000Z</time></trkpt><trkpt lon="5.564879" lat="51.129337"><ele>49.8</ele><time>2022-03-27T09:02:09.000Z</time></trkpt><trkpt lon="5.564943" lat="51.129279"><ele>50</ele><time>2022-03-27T09:02:10.000Z</time></trkpt><trkpt lon="5.565008" lat="51.129225"><ele>50</ele><time>2022-03-27T09:02:11.000Z</time></trkpt><trkpt lon="5.565078" lat="51.129169"><ele>50</ele><time>2022-03-27T09:02:12.000Z</time></trkpt><trkpt lon="5.565152" lat="51.129115"><ele>50</ele><time>2022-03-27T09:02:13.000Z</time></trkpt><trkpt lon="5.565227" lat="51.129065"><ele>50.2</ele><time>2022-03-27T09:02:14.000Z</time></trkpt><trkpt lon="5.565309" lat="51.129016"><ele>50.2</ele><time>2022-03-27T09:02:15.000Z</time></trkpt><trkpt lon="5.565387" lat="51.128967"><ele>50.2</ele><time>2022-03-27T09:02:16.000Z</time></trkpt><trkpt lon="5.56546" lat="51.128919"><ele>50.4</ele><time>2022-03-27T09:02:17.000Z</time></trkpt><trkpt lon="5.565535" lat="51.128871"><ele>50.4</ele><time>2022-03-27T09:02:18.000Z</time></trkpt><trkpt lon="5.565611" lat="51.128822"><ele>50.4</ele><time>2022-03-27T09:02:19.000Z</time></trkpt><trkpt lon="5.565687" lat="51.128768"><ele>50.4</ele><time>2022-03-27T09:02:20.000Z</time></trkpt><trkpt lon="5.565764" lat="51.128715"><ele>50.4</ele><time>2022-03-27T09:02:21.000Z</time></trkpt><trkpt lon="5.565842" lat="51.128665"><ele>50.4</ele><time>2022-03-27T09:02:22.000Z</time></trkpt><trkpt lon="5.56592" lat="51.128616"><ele>50.4</ele><time>2022-03-27T09:02:23.000Z</time></trkpt><trkpt lon="5.565998" lat="51.128565"><ele>50.4</ele><time>2022-03-27T09:02:24.000Z</time></trkpt><trkpt lon="5.566072" lat="51.128517"><ele>50.4</ele><time>2022-03-27T09:02:25.000Z</time></trkpt><trkpt lon="5.566143" lat="51.12847"><ele>50.6</ele><time>2022-03-27T09:02:26.000Z</time></trkpt><trkpt lon="5.566215" lat="51.128425"><ele>50.6</ele><time>2022-03-27T09:02:27.000Z</time></trkpt><trkpt lon="5.566288" lat="51.128373"><ele>50.6</ele><time>2022-03-27T09:02:28.000Z</time></trkpt><trkpt lon="5.566361" lat="51.128322"><ele>50.6</ele><time>2022-03-27T09:02:29.000Z</time></trkpt><trkpt lon="5.566431" lat="51.128268"><ele>50.6</ele><time>2022-03-27T09:02:30.000Z</time></trkpt><trkpt lon="5.5665" lat="51.128218"><ele>50.8</ele><time>2022-03-27T09:02:31.000Z</time></trkpt><trkpt lon="5.566562" lat="51.128165"><ele>50.6</ele><time>2022-03-27T09:02:32.000Z</time></trkpt><trkpt lon="5.566618" lat="51.128113"><ele>50.8</ele><time>2022-03-27T09:02:33.000Z</time></trkpt><trkpt lon="5.566676" lat="51.128058"><ele>50.8</ele><time>2022-03-27T09:02:34.000Z</time></trkpt><trkpt lon="5.566732" lat="51.128002"><ele>50.8</ele><time>2022-03-27T09:02:35.000Z</time></trkpt><trkpt lon="5.566792" lat="51.127948"><ele>50.8</ele><time>2022-03-27T09:02:36.000Z</time></trkpt><trkpt lon="5.566854" lat="51.127891"><ele>50.8</ele><time>2022-03-27T09:02:37.000Z</time></trkpt><trkpt lon="5.566915" lat="51.127834"><ele>50.8</ele><time>2022-03-27T09:02:38.000Z</time></trkpt><trkpt lon="5.56697" lat="51.127781"><ele>50.8</ele><time>2022-03-27T09:02:39.000Z</time></trkpt><trkpt lon="5.567026" lat="51.127727"><ele>51</ele><time>2022-03-27T09:02:40.000Z</time></trkpt><trkpt lon="5.567084" lat="51.127673"><ele>51</ele><time>2022-03-27T09:02:41.000Z</time></trkpt><trkpt lon="5.567144" lat="51.127623"><ele>51.2</ele><time>2022-03-27T09:02:42.000Z</time></trkpt><trkpt lon="5.567207" lat="51.127574"><ele>51.2</ele><time>2022-03-27T09:02:43.000Z</time></trkpt><trkpt lon="5.567269" lat="51.12752"><ele>51.2</ele><time>2022-03-27T09:02:44.000Z</time></trkpt><trkpt lon="5.567329" lat="51.127468"><ele>51.4</ele><time>2022-03-27T09:02:45.000Z</time></trkpt><trkpt lon="5.567392" lat="51.127414"><ele>51.4</ele><time>2022-03-27T09:02:46.000Z</time></trkpt><trkpt lon="5.567454" lat="51.127364"><ele>51.4</ele><time>2022-03-27T09:02:47.000Z</time></trkpt><trkpt lon="5.567515" lat="51.127314"><ele>51.6</ele><time>2022-03-27T09:02:48.000Z</time></trkpt><trkpt lon="5.567574" lat="51.127265"><ele>51.6</ele><time>2022-03-27T09:02:49.000Z</time></trkpt><trkpt lon="5.567632" lat="51.12722"><ele>51.6</ele><time>2022-03-27T09:02:50.000Z</time></trkpt><trkpt lon="5.56769" lat="51.127169"><ele>51.6</ele><time>2022-03-27T09:02:51.000Z</time></trkpt><trkpt lon="5.567752" lat="51.12712"><ele>51.6</ele><time>2022-03-27T09:02:52.000Z</time></trkpt><trkpt lon="5.567811" lat="51.127074"><ele>51.6</ele><time>2022-03-27T09:02:53.000Z</time></trkpt><trkpt lon="5.56787" lat="51.127025"><ele>51.6</ele><time>2022-03-27T09:02:54.000Z</time></trkpt><trkpt lon="5.56793" lat="51.126979"><ele>51.6</ele><time>2022-03-27T09:02:55.000Z</time></trkpt><trkpt lon="5.567987" lat="51.126934"><ele>51.6</ele><time>2022-03-27T09:02:56.000Z</time></trkpt><trkpt lon="5.568045" lat="51.126892"><ele>51.6</ele><time>2022-03-27T09:02:57.000Z</time></trkpt><trkpt lon="5.568102" lat="51.126852"><ele>51.8</ele><time>2022-03-27T09:02:58.000Z</time></trkpt><trkpt lon="5.568151" lat="51.126821"><ele>52</ele><time>2022-03-27T09:02:59.000Z</time></trkpt><trkpt lon="5.568195" lat="51.126794"><ele>52.2</ele><time>2022-03-27T09:03:00.000Z</time></trkpt><trkpt lon="5.568228" lat="51.126771"><ele>52.4</ele><time>2022-03-27T09:03:01.000Z</time></trkpt><trkpt lon="5.568253" lat="51.126752"><ele>52.6</ele><time>2022-03-27T09:03:02.000Z</time></trkpt><trkpt lon="5.568269" lat="51.12674"><ele>52.8</ele><time>2022-03-27T09:03:03.000Z</time></trkpt><trkpt lon="5.568301" lat="51.126706"><ele>53.4</ele><time>2022-03-27T09:03:13.000Z</time></trkpt><trkpt lon="5.568327" lat="51.126687"><ele>53.4</ele><time>2022-03-27T09:03:14.000Z</time></trkpt><trkpt lon="5.568364" lat="51.126668"><ele>53.4</ele><time>2022-03-27T09:03:15.000Z</time></trkpt><trkpt lon="5.568409" lat="51.126645"><ele>53.2</ele><time>2022-03-27T09:03:16.000Z</time></trkpt><trkpt lon="5.568452" lat="51.126615"><ele>53.2</ele><time>2022-03-27T09:03:17.000Z</time></trkpt><trkpt lon="5.568486" lat="51.126581"><ele>53.2</ele><time>2022-03-27T09:03:18.000Z</time></trkpt><trkpt lon="5.568494" lat="51.126537"><ele>53</ele><time>2022-03-27T09:03:19.000Z</time></trkpt><trkpt lon="5.568464" lat="51.126494"><ele>53</ele><time>2022-03-27T09:03:20.000Z</time></trkpt><trkpt lon="5.568406" lat="51.126448"><ele>53</ele><time>2022-03-27T09:03:21.000Z</time></trkpt><trkpt lon="5.568334" lat="51.126403"><ele>53</ele><time>2022-03-27T09:03:22.000Z</time></trkpt><trkpt lon="5.568263" lat="51.12635"><ele>53</ele><time>2022-03-27T09:03:23.000Z</time></trkpt><trkpt lon="5.568202" lat="51.126291"><ele>53</ele><time>2022-03-27T09:03:24.000Z</time></trkpt><trkpt lon="5.568153" lat="51.126224"><ele>53</ele><time>2022-03-27T09:03:25.000Z</time></trkpt><trkpt lon="5.56812" lat="51.126153"><ele>53</ele><time>2022-03-27T09:03:26.000Z</time></trkpt><trkpt lon="5.568093" lat="51.12608"><ele>53</ele><time>2022-03-27T09:03:27.000Z</time></trkpt><trkpt lon="5.568067" lat="51.126008"><ele>53</ele><time>2022-03-27T09:03:28.000Z</time></trkpt><trkpt lon="5.568042" lat="51.125937"><ele>53</ele><time>2022-03-27T09:03:29.000Z</time></trkpt><trkpt lon="5.568021" lat="51.125866"><ele>53.2</ele><time>2022-03-27T09:03:30.000Z</time></trkpt><trkpt lon="5.568017" lat="51.125801"><ele>53.2</ele><time>2022-03-27T09:03:31.000Z</time></trkpt><trkpt lon="5.568035" lat="51.12574"><ele>53.2</ele><time>2022-03-27T09:03:32.000Z</time></trkpt><trkpt lon="5.568071" lat="51.125679"><ele>53.4</ele><time>2022-03-27T09:03:33.000Z</time></trkpt><trkpt lon="5.568125" lat="51.125625"><ele>53.4</ele><time>2022-03-27T09:03:34.000Z</time></trkpt><trkpt lon="5.568194" lat="51.125579"><ele>53.6</ele><time>2022-03-27T09:03:35.000Z</time></trkpt><trkpt lon="5.568273" lat="51.125533"><ele>53.8</ele><time>2022-03-27T09:03:36.000Z</time></trkpt><trkpt lon="5.568355" lat="51.125491"><ele>54</ele><time>2022-03-27T09:03:37.000Z</time></trkpt><trkpt lon="5.568435" lat="51.125449"><ele>54.2</ele><time>2022-03-27T09:03:38.000Z</time></trkpt><trkpt lon="5.568516" lat="51.125407"><ele>54.4</ele><time>2022-03-27T09:03:39.000Z</time></trkpt><trkpt lon="5.568597" lat="51.125365"><ele>54.6</ele><time>2022-03-27T09:03:40.000Z</time></trkpt><trkpt lon="5.568681" lat="51.125319"><ele>54.6</ele><time>2022-03-27T09:03:41.000Z</time></trkpt><trkpt lon="5.568765" lat="51.12528"><ele>54.8</ele><time>2022-03-27T09:03:42.000Z</time></trkpt><trkpt lon="5.568847" lat="51.125235"><ele>54.8</ele><time>2022-03-27T09:03:43.000Z</time></trkpt><trkpt lon="5.568931" lat="51.125189"><ele>55</ele><time>2022-03-27T09:03:44.000Z</time></trkpt><trkpt lon="5.569013" lat="51.125144"><ele>55</ele><time>2022-03-27T09:03:45.000Z</time></trkpt><trkpt lon="5.569096" lat="51.125099"><ele>55</ele><time>2022-03-27T09:03:46.000Z</time></trkpt><trkpt lon="5.569185" lat="51.125052"><ele>55.2</ele><time>2022-03-27T09:03:47.000Z</time></trkpt><trkpt lon="5.569273" lat="51.125007"><ele>55.4</ele><time>2022-03-27T09:03:48.000Z</time></trkpt><trkpt lon="5.569362" lat="51.124964"><ele>55.4</ele><time>2022-03-27T09:03:49.000Z</time></trkpt><trkpt lon="5.569447" lat="51.124922"><ele>55.6</ele><time>2022-03-27T09:03:50.000Z</time></trkpt><trkpt lon="5.569528" lat="51.124877"><ele>55.6</ele><time>2022-03-27T09:03:51.000Z</time></trkpt><trkpt lon="5.569604" lat="51.124839"><ele>55.6</ele><time>2022-03-27T09:03:52.000Z</time></trkpt><trkpt lon="5.56968" lat="51.1248"><ele>55.6</ele><time>2022-03-27T09:03:53.000Z</time></trkpt><trkpt lon="5.569758" lat="51.124758"><ele>55.6</ele><time>2022-03-27T09:03:54.000Z</time></trkpt><trkpt lon="5.569835" lat="51.124717"><ele>55.8</ele><time>2022-03-27T09:03:55.000Z</time></trkpt><trkpt lon="5.569915" lat="51.124675"><ele>55.8</ele><time>2022-03-27T09:03:56.000Z</time></trkpt><trkpt lon="5.569999" lat="51.124632"><ele>55.8</ele><time>2022-03-27T09:03:57.000Z</time></trkpt><trkpt lon="5.570081" lat="51.12459"><ele>55.8</ele><time>2022-03-27T09:03:58.000Z</time></trkpt><trkpt lon="5.570162" lat="51.124548"><ele>56</ele><time>2022-03-27T09:03:59.000Z</time></trkpt><trkpt lon="5.570243" lat="51.124507"><ele>56</ele><time>2022-03-27T09:04:00.000Z</time></trkpt><trkpt lon="5.570324" lat="51.124461"><ele>56</ele><time>2022-03-27T09:04:01.000Z</time></trkpt><trkpt lon="5.570402" lat="51.124422"><ele>56.2</ele><time>2022-03-27T09:04:02.000Z</time></trkpt><trkpt lon="5.570483" lat="51.124382"><ele>56.2</ele><time>2022-03-27T09:04:03.000Z</time></trkpt><trkpt lon="5.570567" lat="51.124335"><ele>56.2</ele><time>2022-03-27T09:04:04.000Z</time></trkpt><trkpt lon="5.570647" lat="51.124293"><ele>56.2</ele><time>2022-03-27T09:04:05.000Z</time></trkpt><trkpt lon="5.570725" lat="51.124251"><ele>56.2</ele><time>2022-03-27T09:04:06.000Z</time></trkpt><trkpt lon="5.570806" lat="51.124209"><ele>56.2</ele><time>2022-03-27T09:04:07.000Z</time></trkpt><trkpt lon="5.570886" lat="51.124171"><ele>56.4</ele><time>2022-03-27T09:04:08.000Z</time></trkpt><trkpt lon="5.57097" lat="51.124125"><ele>56.4</ele><time>2022-03-27T09:04:09.000Z</time></trkpt><trkpt lon="5.571053" lat="51.124083"><ele>56.4</ele><time>2022-03-27T09:04:10.000Z</time></trkpt><trkpt lon="5.571136" lat="51.124041"><ele>56.4</ele><time>2022-03-27T09:04:11.000Z</time></trkpt><trkpt lon="5.571219" lat="51.123999"><ele>56.4</ele><time>2022-03-27T09:04:12.000Z</time></trkpt><trkpt lon="5.571302" lat="51.123958"><ele>56.4</ele><time>2022-03-27T09:04:13.000Z</time></trkpt><trkpt lon="5.571386" lat="51.123912"><ele>56.4</ele><time>2022-03-27T09:04:14.000Z</time></trkpt><trkpt lon="5.571472" lat="51.123869"><ele>56.4</ele><time>2022-03-27T09:04:15.000Z</time></trkpt><trkpt lon="5.571553" lat="51.123828"><ele>56.6</ele><time>2022-03-27T09:04:16.000Z</time></trkpt><trkpt lon="5.571631" lat="51.123786"><ele>56.6</ele><time>2022-03-27T09:04:17.000Z</time></trkpt><trkpt lon="5.571706" lat="51.123744"><ele>56.6</ele><time>2022-03-27T09:04:18.000Z</time></trkpt><trkpt lon="5.571778" lat="51.123707"><ele>56.6</ele><time>2022-03-27T09:04:19.000Z</time></trkpt><trkpt lon="5.571852" lat="51.123667"><ele>56.6</ele><time>2022-03-27T09:04:20.000Z</time></trkpt><trkpt lon="5.571926" lat="51.123629"><ele>56.6</ele><time>2022-03-27T09:04:21.000Z</time></trkpt><trkpt lon="5.572001" lat="51.123591"><ele>56.6</ele><time>2022-03-27T09:04:22.000Z</time></trkpt><trkpt lon="5.572077" lat="51.123553"><ele>56.8</ele><time>2022-03-27T09:04:23.000Z</time></trkpt><trkpt lon="5.572156" lat="51.123511"><ele>56.8</ele><time>2022-03-27T09:04:24.000Z</time></trkpt><trkpt lon="5.572234" lat="51.123473"><ele>56.8</ele><time>2022-03-27T09:04:25.000Z</time></trkpt><trkpt lon="5.572311" lat="51.123431"><ele>56.8</ele><time>2022-03-27T09:04:26.000Z</time></trkpt><trkpt lon="5.572386" lat="51.123392"><ele>56.8</ele><time>2022-03-27T09:04:27.000Z</time></trkpt><trkpt lon="5.572461" lat="51.123351"><ele>56.8</ele><time>2022-03-27T09:04:28.000Z</time></trkpt><trkpt lon="5.572536" lat="51.123312"><ele>56.8</ele><time>2022-03-27T09:04:29.000Z</time></trkpt><trkpt lon="5.572612" lat="51.123275"><ele>56.6</ele><time>2022-03-27T09:04:30.000Z</time></trkpt><trkpt lon="5.572693" lat="51.123232"><ele>56.8</ele><time>2022-03-27T09:04:31.000Z</time></trkpt><trkpt lon="5.572772" lat="51.12319"><ele>56.8</ele><time>2022-03-27T09:04:32.000Z</time></trkpt><trkpt lon="5.572855" lat="51.123145"><ele>56.6</ele><time>2022-03-27T09:04:33.000Z</time></trkpt><trkpt lon="5.572941" lat="51.123102"><ele>56.6</ele><time>2022-03-27T09:04:34.000Z</time></trkpt><trkpt lon="5.57303" lat="51.123057"><ele>56.6</ele><time>2022-03-27T09:04:35.000Z</time></trkpt><trkpt lon="5.57312" lat="51.123011"><ele>56.6</ele><time>2022-03-27T09:04:36.000Z</time></trkpt><trkpt lon="5.573209" lat="51.122965"><ele>56.6</ele><time>2022-03-27T09:04:37.000Z</time></trkpt><trkpt lon="5.573297" lat="51.12292"><ele>56.6</ele><time>2022-03-27T09:04:38.000Z</time></trkpt><trkpt lon="5.573386" lat="51.122877"><ele>56.6</ele><time>2022-03-27T09:04:39.000Z</time></trkpt><trkpt lon="5.573472" lat="51.122829"><ele>56.6</ele><time>2022-03-27T09:04:40.000Z</time></trkpt><trkpt lon="5.573558" lat="51.122782"><ele>56.6</ele><time>2022-03-27T09:04:41.000Z</time></trkpt><trkpt lon="5.573642" lat="51.12274"><ele>56.6</ele><time>2022-03-27T09:04:42.000Z</time></trkpt><trkpt lon="5.573727" lat="51.122695"><ele>56.6</ele><time>2022-03-27T09:04:43.000Z</time></trkpt><trkpt lon="5.573813" lat="51.122652"><ele>56.6</ele><time>2022-03-27T09:04:44.000Z</time></trkpt><trkpt lon="5.573896" lat="51.122606"><ele>56.6</ele><time>2022-03-27T09:04:45.000Z</time></trkpt><trkpt lon="5.573977" lat="51.122562"><ele>56.6</ele><time>2022-03-27T09:04:46.000Z</time></trkpt><trkpt lon="5.574062" lat="51.122519"><ele>56.6</ele><time>2022-03-27T09:04:47.000Z</time></trkpt><trkpt lon="5.574142" lat="51.122477"><ele>56.6</ele><time>2022-03-27T09:04:48.000Z</time></trkpt><trkpt lon="5.57422" lat="51.122435"><ele>56.8</ele><time>2022-03-27T09:04:49.000Z</time></trkpt><trkpt lon="5.574296" lat="51.122397"><ele>56.8</ele><time>2022-03-27T09:04:50.000Z</time></trkpt><trkpt lon="5.574372" lat="51.122359"><ele>56.8</ele><time>2022-03-27T09:04:51.000Z</time></trkpt><trkpt lon="5.574445" lat="51.122317"><ele>56.8</ele><time>2022-03-27T09:04:52.000Z</time></trkpt><trkpt lon="5.574524" lat="51.122278"><ele>56.8</ele><time>2022-03-27T09:04:53.000Z</time></trkpt><trkpt lon="5.574606" lat="51.12224"><ele>56.8</ele><time>2022-03-27T09:04:54.000Z</time></trkpt><trkpt lon="5.574691" lat="51.122213"><ele>57</ele><time>2022-03-27T09:04:55.000Z</time></trkpt><trkpt lon="5.574791" lat="51.12219"><ele>56.8</ele><time>2022-03-27T09:04:56.000Z</time></trkpt><trkpt lon="5.574892" lat="51.122175"><ele>57</ele><time>2022-03-27T09:04:57.000Z</time></trkpt><trkpt lon="5.574999" lat="51.12217"><ele>57</ele><time>2022-03-27T09:04:58.000Z</time></trkpt><trkpt lon="5.575109" lat="51.122169"><ele>57</ele><time>2022-03-27T09:04:59.000Z</time></trkpt><trkpt lon="5.57521" lat="51.122173"><ele>56.8</ele><time>2022-03-27T09:05:00.000Z</time></trkpt><trkpt lon="5.575309" lat="51.122181"><ele>56.8</ele><time>2022-03-27T09:05:01.000Z</time></trkpt><trkpt lon="5.575407" lat="51.122188"><ele>56.8</ele><time>2022-03-27T09:05:02.000Z</time></trkpt><trkpt lon="5.575501" lat="51.122203"><ele>56.8</ele><time>2022-03-27T09:05:03.000Z</time></trkpt><trkpt lon="5.575597" lat="51.122218"><ele>56.8</ele><time>2022-03-27T09:05:04.000Z</time></trkpt><trkpt lon="5.575688" lat="51.122237"><ele>56.6</ele><time>2022-03-27T09:05:05.000Z</time></trkpt><trkpt lon="5.575781" lat="51.12226"><ele>56.6</ele><time>2022-03-27T09:05:06.000Z</time></trkpt><trkpt lon="5.575877" lat="51.122279"><ele>56.4</ele><time>2022-03-27T09:05:07.000Z</time></trkpt><trkpt lon="5.575974" lat="51.122302"><ele>56.4</ele><time>2022-03-27T09:05:08.000Z</time></trkpt><trkpt lon="5.576068" lat="51.122321"><ele>56.4</ele><time>2022-03-27T09:05:09.000Z</time></trkpt><trkpt lon="5.576161" lat="51.122336"><ele>56.4</ele><time>2022-03-27T09:05:10.000Z</time></trkpt><trkpt lon="5.576253" lat="51.122352"><ele>56.6</ele><time>2022-03-27T09:05:11.000Z</time></trkpt><trkpt lon="5.576349" lat="51.122367"><ele>56.6</ele><time>2022-03-27T09:05:12.000Z</time></trkpt><trkpt lon="5.576441" lat="51.122382"><ele>56.6</ele><time>2022-03-27T09:05:13.000Z</time></trkpt><trkpt lon="5.576532" lat="51.122401"><ele>56.6</ele><time>2022-03-27T09:05:14.000Z</time></trkpt><trkpt lon="5.576625" lat="51.12242"><ele>56.6</ele><time>2022-03-27T09:05:15.000Z</time></trkpt><trkpt lon="5.576725" lat="51.122439"><ele>56.6</ele><time>2022-03-27T09:05:16.000Z</time></trkpt><trkpt lon="5.576823" lat="51.122462"><ele>56.4</ele><time>2022-03-27T09:05:17.000Z</time></trkpt><trkpt lon="5.576916" lat="51.122485"><ele>56.4</ele><time>2022-03-27T09:05:18.000Z</time></trkpt><trkpt lon="5.577006" lat="51.122508"><ele>56.4</ele><time>2022-03-27T09:05:19.000Z</time></trkpt><trkpt lon="5.577101" lat="51.122531"><ele>56.4</ele><time>2022-03-27T09:05:20.000Z</time></trkpt><trkpt lon="5.577195" lat="51.122554"><ele>56.4</ele><time>2022-03-27T09:05:21.000Z</time></trkpt><trkpt lon="5.577291" lat="51.122573"><ele>56.2</ele><time>2022-03-27T09:05:22.000Z</time></trkpt><trkpt lon="5.577393" lat="51.122592"><ele>56.2</ele><time>2022-03-27T09:05:23.000Z</time></trkpt><trkpt lon="5.577492" lat="51.122611"><ele>56.2</ele><time>2022-03-27T09:05:24.000Z</time></trkpt><trkpt lon="5.577593" lat="51.12263"><ele>56.2</ele><time>2022-03-27T09:05:25.000Z</time></trkpt><trkpt lon="5.577699" lat="51.122649"><ele>56.2</ele><time>2022-03-27T09:05:26.000Z</time></trkpt><trkpt lon="5.577797" lat="51.122672"><ele>56.2</ele><time>2022-03-27T09:05:27.000Z</time></trkpt><trkpt lon="5.577888" lat="51.122695"><ele>56.2</ele><time>2022-03-27T09:05:28.000Z</time></trkpt><trkpt lon="5.57799" lat="51.122714"><ele>56.2</ele><time>2022-03-27T09:05:29.000Z</time></trkpt><trkpt lon="5.578101" lat="51.122737"><ele>56</ele><time>2022-03-27T09:05:30.000Z</time></trkpt><trkpt lon="5.578216" lat="51.122752"><ele>56</ele><time>2022-03-27T09:05:31.000Z</time></trkpt><trkpt lon="5.578323" lat="51.122768"><ele>56</ele><time>2022-03-27T09:05:32.000Z</time></trkpt><trkpt lon="5.578407" lat="51.122783"><ele>56</ele><time>2022-03-27T09:05:33.000Z</time></trkpt><trkpt lon="5.578486" lat="51.122802"><ele>56</ele><time>2022-03-27T09:05:34.000Z</time></trkpt><trkpt lon="5.578555" lat="51.122824"><ele>56</ele><time>2022-03-27T09:05:35.000Z</time></trkpt><trkpt lon="5.578624" lat="51.122847"><ele>56</ele><time>2022-03-27T09:05:36.000Z</time></trkpt><trkpt lon="5.578695" lat="51.122849"><ele>56</ele><time>2022-03-27T09:05:37.000Z</time></trkpt><trkpt lon="5.578761" lat="51.122838"><ele>56</ele><time>2022-03-27T09:05:38.000Z</time></trkpt><trkpt lon="5.578822" lat="51.12283"><ele>56</ele><time>2022-03-27T09:05:39.000Z</time></trkpt><trkpt lon="5.578863" lat="51.122815"><ele>56</ele><time>2022-03-27T09:05:40.000Z</time></trkpt><trkpt lon="5.578895" lat="51.1228"><ele>56</ele><time>2022-03-27T09:05:41.000Z</time></trkpt><trkpt lon="5.578933" lat="51.122781"><ele>56</ele><time>2022-03-27T09:05:42.000Z</time></trkpt><trkpt lon="5.578962" lat="51.122755"><ele>56</ele><time>2022-03-27T09:05:43.000Z</time></trkpt><trkpt lon="5.578997" lat="51.122728"><ele>56</ele><time>2022-03-27T09:05:44.000Z</time></trkpt><trkpt lon="5.579034" lat="51.122694"><ele>56.2</ele><time>2022-03-27T09:05:45.000Z</time></trkpt><trkpt lon="5.579083" lat="51.122645"><ele>56.2</ele><time>2022-03-27T09:05:46.000Z</time></trkpt><trkpt lon="5.579113" lat="51.122597"><ele>56.2</ele><time>2022-03-27T09:05:47.000Z</time></trkpt><trkpt lon="5.579166" lat="51.122542"><ele>56.2</ele><time>2022-03-27T09:05:48.000Z</time></trkpt><trkpt lon="5.579219" lat="51.122485"><ele>56.2</ele><time>2022-03-27T09:05:49.000Z</time></trkpt><trkpt lon="5.579263" lat="51.122428"><ele>56.2</ele><time>2022-03-27T09:05:50.000Z</time></trkpt><trkpt lon="5.579306" lat="51.122378"><ele>56.2</ele><time>2022-03-27T09:05:51.000Z</time></trkpt><trkpt lon="5.579354" lat="51.122325"><ele>56.2</ele><time>2022-03-27T09:05:52.000Z</time></trkpt><trkpt lon="5.5794" lat="51.122262"><ele>56.2</ele><time>2022-03-27T09:05:53.000Z</time></trkpt><trkpt lon="5.579454" lat="51.122196"><ele>56</ele><time>2022-03-27T09:05:54.000Z</time></trkpt><trkpt lon="5.579498" lat="51.122131"><ele>56</ele><time>2022-03-27T09:05:55.000Z</time></trkpt><trkpt lon="5.57954" lat="51.12207"><ele>56</ele><time>2022-03-27T09:05:56.000Z</time></trkpt><trkpt lon="5.579603" lat="51.121966"><ele>56</ele><time>2022-03-27T09:05:57.000Z</time></trkpt><trkpt lon="5.579632" lat="51.121888"><ele>56</ele><time>2022-03-27T09:05:58.000Z</time></trkpt><trkpt lon="5.579678" lat="51.121811"><ele>56.2</ele><time>2022-03-27T09:05:59.000Z</time></trkpt><trkpt lon="5.579721" lat="51.121711"><ele>56.2</ele><time>2022-03-27T09:06:00.000Z</time></trkpt><trkpt lon="5.57975" lat="51.121635"><ele>56.2</ele><time>2022-03-27T09:06:01.000Z</time></trkpt><trkpt lon="5.579778" lat="51.121557"><ele>56.2</ele><time>2022-03-27T09:06:02.000Z</time></trkpt><trkpt lon="5.579816" lat="51.121457"><ele>56.2</ele><time>2022-03-27T09:06:03.000Z</time></trkpt><trkpt lon="5.579867" lat="51.121366"><ele>56.4</ele><time>2022-03-27T09:06:04.000Z</time></trkpt><trkpt lon="5.57991" lat="51.121279"><ele>56.4</ele><time>2022-03-27T09:06:05.000Z</time></trkpt><trkpt lon="5.579949" lat="51.121188"><ele>56.4</ele><time>2022-03-27T09:06:06.000Z</time></trkpt><trkpt lon="5.579993" lat="51.121111"><ele>56.4</ele><time>2022-03-27T09:06:07.000Z</time></trkpt><trkpt lon="5.580033" lat="51.12103"><ele>56.4</ele><time>2022-03-27T09:06:08.000Z</time></trkpt><trkpt lon="5.58007" lat="51.120952"><ele>56.4</ele><time>2022-03-27T09:06:09.000Z</time></trkpt><trkpt lon="5.580109" lat="51.120876"><ele>56.4</ele><time>2022-03-27T09:06:10.000Z</time></trkpt><trkpt lon="5.580146" lat="51.120804"><ele>56.6</ele><time>2022-03-27T09:06:11.000Z</time></trkpt><trkpt lon="5.580188" lat="51.120724"><ele>56.6</ele><time>2022-03-27T09:06:12.000Z</time></trkpt><trkpt lon="5.580228" lat="51.120649"><ele>56.6</ele><time>2022-03-27T09:06:13.000Z</time></trkpt><trkpt lon="5.580261" lat="51.120579"><ele>56.6</ele><time>2022-03-27T09:06:14.000Z</time></trkpt><trkpt lon="5.580297" lat="51.120509"><ele>56.8</ele><time>2022-03-27T09:06:15.000Z</time></trkpt><trkpt lon="5.580336" lat="51.120439"><ele>56.8</ele><time>2022-03-27T09:06:16.000Z</time></trkpt><trkpt lon="5.580376" lat="51.120365"><ele>56.8</ele><time>2022-03-27T09:06:17.000Z</time></trkpt><trkpt lon="5.580418" lat="51.120289"><ele>56.8</ele><time>2022-03-27T09:06:18.000Z</time></trkpt><trkpt lon="5.580455" lat="51.12022"><ele>56.8</ele><time>2022-03-27T09:06:19.000Z</time></trkpt><trkpt lon="5.580492" lat="51.120151"><ele>56.8</ele><time>2022-03-27T09:06:20.000Z</time></trkpt><trkpt lon="5.580529" lat="51.120083"><ele>56.8</ele><time>2022-03-27T09:06:21.000Z</time></trkpt><trkpt lon="5.580568" lat="51.120011"><ele>56.8</ele><time>2022-03-27T09:06:22.000Z</time></trkpt><trkpt lon="5.580601" lat="51.119946"><ele>56.8</ele><time>2022-03-27T09:06:23.000Z</time></trkpt><trkpt lon="5.580639" lat="51.119882"><ele>56.8</ele><time>2022-03-27T09:06:24.000Z</time></trkpt><trkpt lon="5.580673" lat="51.119813"><ele>56.8</ele><time>2022-03-27T09:06:25.000Z</time></trkpt><trkpt lon="5.580707" lat="51.11975"><ele>56.8</ele><time>2022-03-27T09:06:26.000Z</time></trkpt><trkpt lon="5.580738" lat="51.11969"><ele>56.8</ele><time>2022-03-27T09:06:27.000Z</time></trkpt><trkpt lon="5.580772" lat="51.119628"><ele>56.8</ele><time>2022-03-27T09:06:28.000Z</time></trkpt><trkpt lon="5.580814" lat="51.119567"><ele>56.8</ele><time>2022-03-27T09:06:29.000Z</time></trkpt><trkpt lon="5.580873" lat="51.119521"><ele>56.8</ele><time>2022-03-27T09:06:30.000Z</time></trkpt><trkpt lon="5.580957" lat="51.119497"><ele>57</ele><time>2022-03-27T09:06:31.000Z</time></trkpt><trkpt lon="5.58106" lat="51.119492"><ele>56.8</ele><time>2022-03-27T09:06:32.000Z</time></trkpt><trkpt lon="5.581169" lat="51.119499"><ele>56.8</ele><time>2022-03-27T09:06:33.000Z</time></trkpt><trkpt lon="5.581278" lat="51.119517"><ele>56.8</ele><time>2022-03-27T09:06:34.000Z</time></trkpt><trkpt lon="5.581389" lat="51.119547"><ele>56.8</ele><time>2022-03-27T09:06:35.000Z</time></trkpt><trkpt lon="5.581497" lat="51.119577"><ele>56.8</ele><time>2022-03-27T09:06:36.000Z</time></trkpt><trkpt lon="5.581615" lat="51.119605"><ele>56.6</ele><time>2022-03-27T09:06:37.000Z</time></trkpt><trkpt lon="5.581728" lat="51.119635"><ele>56.6</ele><time>2022-03-27T09:06:38.000Z</time></trkpt><trkpt lon="5.581838" lat="51.119662"><ele>56.6</ele><time>2022-03-27T09:06:39.000Z</time></trkpt><trkpt lon="5.581941" lat="51.119688"><ele>56.6</ele><time>2022-03-27T09:06:40.000Z</time></trkpt><trkpt lon="5.58205" lat="51.119718"><ele>56.4</ele><time>2022-03-27T09:06:41.000Z</time></trkpt><trkpt lon="5.582153" lat="51.119749"><ele>56.4</ele><time>2022-03-27T09:06:42.000Z</time></trkpt><trkpt lon="5.582254" lat="51.119776"><ele>56.4</ele><time>2022-03-27T09:06:43.000Z</time></trkpt><trkpt lon="5.582353" lat="51.119807"><ele>56.4</ele><time>2022-03-27T09:06:44.000Z</time></trkpt><trkpt lon="5.58245" lat="51.119833"><ele>56.4</ele><time>2022-03-27T09:06:45.000Z</time></trkpt><trkpt lon="5.582545" lat="51.11986"><ele>56.2</ele><time>2022-03-27T09:06:46.000Z</time></trkpt><trkpt lon="5.58264" lat="51.119887"><ele>56.2</ele><time>2022-03-27T09:06:47.000Z</time></trkpt><trkpt lon="5.582735" lat="51.119913"><ele>56.2</ele><time>2022-03-27T09:06:48.000Z</time></trkpt><trkpt lon="5.582833" lat="51.11994"><ele>56.2</ele><time>2022-03-27T09:06:49.000Z</time></trkpt><trkpt lon="5.582931" lat="51.119967"><ele>56</ele><time>2022-03-27T09:06:50.000Z</time></trkpt><trkpt lon="5.583029" lat="51.119997"><ele>56</ele><time>2022-03-27T09:06:51.000Z</time></trkpt><trkpt lon="5.583125" lat="51.120024"><ele>55.8</ele><time>2022-03-27T09:06:52.000Z</time></trkpt><trkpt lon="5.583221" lat="51.120054"><ele>55.6</ele><time>2022-03-27T09:06:53.000Z</time></trkpt><trkpt lon="5.583321" lat="51.120081"><ele>55.6</ele><time>2022-03-27T09:06:54.000Z</time></trkpt><trkpt lon="5.583425" lat="51.120112"><ele>55.6</ele><time>2022-03-27T09:06:55.000Z</time></trkpt><trkpt lon="5.583528" lat="51.120142"><ele>55.4</ele><time>2022-03-27T09:06:56.000Z</time></trkpt><trkpt lon="5.583631" lat="51.120169"><ele>55.4</ele><time>2022-03-27T09:06:57.000Z</time></trkpt><trkpt lon="5.583729" lat="51.120199"><ele>55.4</ele><time>2022-03-27T09:06:58.000Z</time></trkpt><trkpt lon="5.583831" lat="51.12023"><ele>55.2</ele><time>2022-03-27T09:06:59.000Z</time></trkpt><trkpt lon="5.583932" lat="51.120257"><ele>55.2</ele><time>2022-03-27T09:07:00.000Z</time></trkpt><trkpt lon="5.584032" lat="51.120287"><ele>55</ele><time>2022-03-27T09:07:01.000Z</time></trkpt><trkpt lon="5.584132" lat="51.120314"><ele>55</ele><time>2022-03-27T09:07:02.000Z</time></trkpt><trkpt lon="5.58423" lat="51.120344"><ele>55</ele><time>2022-03-27T09:07:03.000Z</time></trkpt><trkpt lon="5.584328" lat="51.120375"><ele>55</ele><time>2022-03-27T09:07:04.000Z</time></trkpt><trkpt lon="5.584424" lat="51.120401"><ele>55</ele><time>2022-03-27T09:07:05.000Z</time></trkpt><trkpt lon="5.584525" lat="51.120429"><ele>55</ele><time>2022-03-27T09:07:06.000Z</time></trkpt><trkpt lon="5.584619" lat="51.120454"><ele>55</ele><time>2022-03-27T09:07:07.000Z</time></trkpt><trkpt lon="5.584718" lat="51.120482"><ele>55</ele><time>2022-03-27T09:07:08.000Z</time></trkpt><trkpt lon="5.584821" lat="51.120512"><ele>55</ele><time>2022-03-27T09:07:09.000Z</time></trkpt><trkpt lon="5.584922" lat="51.120543"><ele>55</ele><time>2022-03-27T09:07:10.000Z</time></trkpt><trkpt lon="5.585024" lat="51.120573"><ele>54.8</ele><time>2022-03-27T09:07:11.000Z</time></trkpt><trkpt lon="5.585127" lat="51.1206"><ele>54.8</ele><time>2022-03-27T09:07:12.000Z</time></trkpt><trkpt lon="5.585226" lat="51.120627"><ele>54.6</ele><time>2022-03-27T09:07:13.000Z</time></trkpt><trkpt lon="5.585326" lat="51.120654"><ele>54.6</ele><time>2022-03-27T09:07:14.000Z</time></trkpt><trkpt lon="5.585427" lat="51.12068"><ele>54.6</ele><time>2022-03-27T09:07:15.000Z</time></trkpt><trkpt lon="5.585525" lat="51.120707"><ele>54.4</ele><time>2022-03-27T09:07:16.000Z</time></trkpt><trkpt lon="5.585623" lat="51.120737"><ele>54.4</ele><time>2022-03-27T09:07:17.000Z</time></trkpt><trkpt lon="5.585722" lat="51.120764"><ele>54.4</ele><time>2022-03-27T09:07:18.000Z</time></trkpt><trkpt lon="5.585822" lat="51.120787"><ele>54.4</ele><time>2022-03-27T09:07:19.000Z</time></trkpt><trkpt lon="5.585924" lat="51.120814"><ele>54.4</ele><time>2022-03-27T09:07:20.000Z</time></trkpt><trkpt lon="5.586023" lat="51.120837"><ele>54.4</ele><time>2022-03-27T09:07:21.000Z</time></trkpt><trkpt lon="5.58612" lat="51.120856"><ele>54.4</ele><time>2022-03-27T09:07:22.000Z</time></trkpt><trkpt lon="5.586218" lat="51.120875"><ele>54.4</ele><time>2022-03-27T09:07:23.000Z</time></trkpt><trkpt lon="5.586317" lat="51.120891"><ele>54.4</ele><time>2022-03-27T09:07:24.000Z</time></trkpt><trkpt lon="5.58642" lat="51.120902"><ele>54.2</ele><time>2022-03-27T09:07:25.000Z</time></trkpt><trkpt lon="5.586528" lat="51.12091"><ele>54.2</ele><time>2022-03-27T09:07:26.000Z</time></trkpt><trkpt lon="5.586638" lat="51.120918"><ele>54.2</ele><time>2022-03-27T09:07:27.000Z</time></trkpt><trkpt lon="5.586752" lat="51.120926"><ele>54.2</ele><time>2022-03-27T09:07:28.000Z</time></trkpt><trkpt lon="5.586866" lat="51.120929"><ele>54.2</ele><time>2022-03-27T09:07:29.000Z</time></trkpt><trkpt lon="5.586983" lat="51.12093"><ele>54.2</ele><time>2022-03-27T09:07:30.000Z</time></trkpt><trkpt lon="5.587097" lat="51.120933"><ele>54.2</ele><time>2022-03-27T09:07:31.000Z</time></trkpt><trkpt lon="5.587209" lat="51.120937"><ele>54.4</ele><time>2022-03-27T09:07:32.000Z</time></trkpt><trkpt lon="5.587325" lat="51.120941"><ele>54.2</ele><time>2022-03-27T09:07:33.000Z</time></trkpt><trkpt lon="5.587435" lat="51.120945"><ele>54.2</ele><time>2022-03-27T09:07:34.000Z</time></trkpt><trkpt lon="5.587548" lat="51.120945"><ele>54.2</ele><time>2022-03-27T09:07:35.000Z</time></trkpt><trkpt lon="5.587663" lat="51.120949"><ele>54.2</ele><time>2022-03-27T09:07:36.000Z</time></trkpt><trkpt lon="5.587775" lat="51.120949"><ele>54.2</ele><time>2022-03-27T09:07:37.000Z</time></trkpt><trkpt lon="5.587885" lat="51.120952"><ele>54.2</ele><time>2022-03-27T09:07:38.000Z</time></trkpt><trkpt lon="5.587991" lat="51.12096"><ele>54.2</ele><time>2022-03-27T09:07:39.000Z</time></trkpt><trkpt lon="5.588098" lat="51.120964"><ele>54.2</ele><time>2022-03-27T09:07:40.000Z</time></trkpt><trkpt lon="5.588207" lat="51.120968"><ele>54.2</ele><time>2022-03-27T09:07:41.000Z</time></trkpt><trkpt lon="5.588317" lat="51.120971"><ele>54.4</ele><time>2022-03-27T09:07:42.000Z</time></trkpt><trkpt lon="5.588428" lat="51.120972"><ele>54.4</ele><time>2022-03-27T09:07:43.000Z</time></trkpt><trkpt lon="5.58854" lat="51.120975"><ele>54.6</ele><time>2022-03-27T09:07:44.000Z</time></trkpt><trkpt lon="5.588652" lat="51.120975"><ele>54.4</ele><time>2022-03-27T09:07:45.000Z</time></trkpt><trkpt lon="5.588762" lat="51.120979"><ele>54.6</ele><time>2022-03-27T09:07:46.000Z</time></trkpt><trkpt lon="5.58887" lat="51.120983"><ele>54.4</ele><time>2022-03-27T09:07:47.000Z</time></trkpt><trkpt lon="5.588979" lat="51.120987"><ele>54.4</ele><time>2022-03-27T09:07:48.000Z</time></trkpt><trkpt lon="5.589091" lat="51.120987"><ele>54.6</ele><time>2022-03-27T09:07:49.000Z</time></trkpt><trkpt lon="5.589203" lat="51.12099"><ele>54.6</ele><time>2022-03-27T09:07:50.000Z</time></trkpt><trkpt lon="5.589319" lat="51.120994"><ele>54.6</ele><time>2022-03-27T09:07:51.000Z</time></trkpt><trkpt lon="5.589437" lat="51.120995"><ele>54.6</ele><time>2022-03-27T09:07:52.000Z</time></trkpt><trkpt lon="5.589553" lat="51.120998"><ele>54.6</ele><time>2022-03-27T09:07:53.000Z</time></trkpt><trkpt lon="5.589666" lat="51.121002"><ele>54.6</ele><time>2022-03-27T09:07:54.000Z</time></trkpt><trkpt lon="5.589774" lat="51.121006"><ele>54.6</ele><time>2022-03-27T09:07:55.000Z</time></trkpt><trkpt lon="5.589886" lat="51.12101"><ele>54.6</ele><time>2022-03-27T09:07:56.000Z</time></trkpt><trkpt lon="5.589992" lat="51.121013"><ele>54.8</ele><time>2022-03-27T09:07:57.000Z</time></trkpt><trkpt lon="5.590098" lat="51.121017"><ele>54.8</ele><time>2022-03-27T09:07:58.000Z</time></trkpt><trkpt lon="5.590201" lat="51.121021"><ele>54.8</ele><time>2022-03-27T09:07:59.000Z</time></trkpt><trkpt lon="5.590306" lat="51.121025"><ele>54.8</ele><time>2022-03-27T09:08:00.000Z</time></trkpt><trkpt lon="5.590407" lat="51.121029"><ele>54.6</ele><time>2022-03-27T09:08:01.000Z</time></trkpt><trkpt lon="5.590513" lat="51.121029"><ele>54.6</ele><time>2022-03-27T09:08:02.000Z</time></trkpt><trkpt lon="5.590619" lat="51.121032"><ele>54.6</ele><time>2022-03-27T09:08:03.000Z</time></trkpt><trkpt lon="5.590725" lat="51.121033"><ele>54.6</ele><time>2022-03-27T09:08:04.000Z</time></trkpt><trkpt lon="5.590828" lat="51.121036"><ele>54.6</ele><time>2022-03-27T09:08:05.000Z</time></trkpt><trkpt lon="5.590926" lat="51.121037"><ele>54.6</ele><time>2022-03-27T09:08:06.000Z</time></trkpt><trkpt lon="5.591016" lat="51.121044"><ele>54.4</ele><time>2022-03-27T09:08:07.000Z</time></trkpt><trkpt lon="5.591105" lat="51.121048"><ele>54.4</ele><time>2022-03-27T09:08:08.000Z</time></trkpt><trkpt lon="5.591197" lat="51.121052"><ele>54.4</ele><time>2022-03-27T09:08:09.000Z</time></trkpt><trkpt lon="5.591288" lat="51.121048"><ele>54.4</ele><time>2022-03-27T09:08:10.000Z</time></trkpt><trkpt lon="5.591372" lat="51.121044"><ele>54.4</ele><time>2022-03-27T09:08:11.000Z</time></trkpt><trkpt lon="5.591457" lat="51.121041"><ele>54.2</ele><time>2022-03-27T09:08:12.000Z</time></trkpt><trkpt lon="5.591532" lat="51.121037"><ele>54.2</ele><time>2022-03-27T09:08:13.000Z</time></trkpt><trkpt lon="5.5916" lat="51.121037"><ele>54.2</ele><time>2022-03-27T09:08:14.000Z</time></trkpt><trkpt lon="5.59166" lat="51.121029"><ele>54.2</ele><time>2022-03-27T09:08:15.000Z</time></trkpt><trkpt lon="5.591717" lat="51.121029"><ele>54.2</ele><time>2022-03-27T09:08:16.000Z</time></trkpt><trkpt lon="5.591778" lat="51.121032"><ele>54.2</ele><time>2022-03-27T09:08:17.000Z</time></trkpt><trkpt lon="5.591848" lat="51.12104"><ele>54.2</ele><time>2022-03-27T09:08:18.000Z</time></trkpt><trkpt lon="5.591926" lat="51.121051"><ele>54.2</ele><time>2022-03-27T09:08:19.000Z</time></trkpt><trkpt lon="5.592012" lat="51.121063"><ele>54.2</ele><time>2022-03-27T09:08:20.000Z</time></trkpt><trkpt lon="5.592109" lat="51.121074"><ele>54</ele><time>2022-03-27T09:08:21.000Z</time></trkpt><trkpt lon="5.592215" lat="51.121078"><ele>54</ele><time>2022-03-27T09:08:22.000Z</time></trkpt><trkpt lon="5.592328" lat="51.121078"><ele>54</ele><time>2022-03-27T09:08:23.000Z</time></trkpt><trkpt lon="5.592448" lat="51.121075"><ele>54</ele><time>2022-03-27T09:08:24.000Z</time></trkpt><trkpt lon="5.592569" lat="51.121075"><ele>54</ele><time>2022-03-27T09:08:25.000Z</time></trkpt><trkpt lon="5.592689" lat="51.121075"><ele>54</ele><time>2022-03-27T09:08:26.000Z</time></trkpt><trkpt lon="5.592805" lat="51.121075"><ele>54</ele><time>2022-03-27T09:08:27.000Z</time></trkpt><trkpt lon="5.592922" lat="51.121078"><ele>54</ele><time>2022-03-27T09:08:28.000Z</time></trkpt><trkpt lon="5.593039" lat="51.121078"><ele>54</ele><time>2022-03-27T09:08:29.000Z</time></trkpt><trkpt lon="5.593151" lat="51.121078"><ele>54</ele><time>2022-03-27T09:08:30.000Z</time></trkpt><trkpt lon="5.593257" lat="51.121082"><ele>54</ele><time>2022-03-27T09:08:31.000Z</time></trkpt><trkpt lon="5.593358" lat="51.12109"><ele>54.2</ele><time>2022-03-27T09:08:32.000Z</time></trkpt><trkpt lon="5.593455" lat="51.121101"><ele>54.2</ele><time>2022-03-27T09:08:33.000Z</time></trkpt><trkpt lon="5.593553" lat="51.121116"><ele>54.2</ele><time>2022-03-27T09:08:34.000Z</time></trkpt><trkpt lon="5.593653" lat="51.121131"><ele>54.4</ele><time>2022-03-27T09:08:35.000Z</time></trkpt><trkpt lon="5.593755" lat="51.121154"><ele>54.4</ele><time>2022-03-27T09:08:36.000Z</time></trkpt><trkpt lon="5.593857" lat="51.121177"><ele>54.4</ele><time>2022-03-27T09:08:37.000Z</time></trkpt><trkpt lon="5.59396" lat="51.121196"><ele>54.4</ele><time>2022-03-27T09:08:38.000Z</time></trkpt><trkpt lon="5.594061" lat="51.121218"><ele>54.6</ele><time>2022-03-27T09:08:39.000Z</time></trkpt><trkpt lon="5.594158" lat="51.121238"><ele>54.6</ele><time>2022-03-27T09:08:40.000Z</time></trkpt><trkpt lon="5.594249" lat="51.121259"><ele>54.6</ele><time>2022-03-27T09:08:41.000Z</time></trkpt><trkpt lon="5.594353" lat="51.121276"><ele>54.8</ele><time>2022-03-27T09:08:42.000Z</time></trkpt><trkpt lon="5.594451" lat="51.121299"><ele>54.8</ele><time>2022-03-27T09:08:43.000Z</time></trkpt><trkpt lon="5.594555" lat="51.121318"><ele>54.8</ele><time>2022-03-27T09:08:44.000Z</time></trkpt><trkpt lon="5.59466" lat="51.121337"><ele>54.8</ele><time>2022-03-27T09:08:45.000Z</time></trkpt><trkpt lon="5.594764" lat="51.121356"><ele>54.8</ele><time>2022-03-27T09:08:46.000Z</time></trkpt><trkpt lon="5.594869" lat="51.121379"><ele>54.8</ele><time>2022-03-27T09:08:47.000Z</time></trkpt><trkpt lon="5.594972" lat="51.121401"><ele>54.6</ele><time>2022-03-27T09:08:48.000Z</time></trkpt><trkpt lon="5.59508" lat="51.121424"><ele>54.8</ele><time>2022-03-27T09:08:49.000Z</time></trkpt><trkpt lon="5.595191" lat="51.121447"><ele>54.8</ele><time>2022-03-27T09:08:50.000Z</time></trkpt><trkpt lon="5.595301" lat="51.12147"><ele>54.8</ele><time>2022-03-27T09:08:51.000Z</time></trkpt><trkpt lon="5.595411" lat="51.121489"><ele>54.6</ele><time>2022-03-27T09:08:52.000Z</time></trkpt><trkpt lon="5.595516" lat="51.121512"><ele>54.6</ele><time>2022-03-27T09:08:53.000Z</time></trkpt><trkpt lon="5.595624" lat="51.121535"><ele>54.6</ele><time>2022-03-27T09:08:54.000Z</time></trkpt><trkpt lon="5.595732" lat="51.121558"><ele>54.4</ele><time>2022-03-27T09:08:55.000Z</time></trkpt><trkpt lon="5.595837" lat="51.121577"><ele>54.4</ele><time>2022-03-27T09:08:56.000Z</time></trkpt><trkpt lon="5.595942" lat="51.1216"><ele>54.4</ele><time>2022-03-27T09:08:57.000Z</time></trkpt><trkpt lon="5.596053" lat="51.121619"><ele>54.2</ele><time>2022-03-27T09:08:58.000Z</time></trkpt><trkpt lon="5.596162" lat="51.121635"><ele>54.2</ele><time>2022-03-27T09:08:59.000Z</time></trkpt><trkpt lon="5.596268" lat="51.121657"><ele>54</ele><time>2022-03-27T09:09:00.000Z</time></trkpt><trkpt lon="5.596373" lat="51.12168"><ele>54</ele><time>2022-03-27T09:09:01.000Z</time></trkpt><trkpt lon="5.596477" lat="51.121707"><ele>54</ele><time>2022-03-27T09:09:02.000Z</time></trkpt><trkpt lon="5.596577" lat="51.121736"><ele>53.8</ele><time>2022-03-27T09:09:03.000Z</time></trkpt><trkpt lon="5.596678" lat="51.121771"><ele>53.8</ele><time>2022-03-27T09:09:04.000Z</time></trkpt><trkpt lon="5.596772" lat="51.121805"><ele>53.8</ele><time>2022-03-27T09:09:05.000Z</time></trkpt><trkpt lon="5.59687" lat="51.121843"><ele>53.8</ele><time>2022-03-27T09:09:06.000Z</time></trkpt><trkpt lon="5.596973" lat="51.121882"><ele>53.6</ele><time>2022-03-27T09:09:07.000Z</time></trkpt><trkpt lon="5.597078" lat="51.12192"><ele>53.6</ele><time>2022-03-27T09:09:08.000Z</time></trkpt><trkpt lon="5.59718" lat="51.121954"><ele>53.6</ele><time>2022-03-27T09:09:09.000Z</time></trkpt><trkpt lon="5.597281" lat="51.121992"><ele>53.4</ele><time>2022-03-27T09:09:10.000Z</time></trkpt><trkpt lon="5.597376" lat="51.122026"><ele>53.4</ele><time>2022-03-27T09:09:11.000Z</time></trkpt><trkpt lon="5.597474" lat="51.122065"><ele>53.2</ele><time>2022-03-27T09:09:12.000Z</time></trkpt><trkpt lon="5.597569" lat="51.122103"><ele>53.2</ele><time>2022-03-27T09:09:13.000Z</time></trkpt><trkpt lon="5.597663" lat="51.122137"><ele>53.2</ele><time>2022-03-27T09:09:14.000Z</time></trkpt><trkpt lon="5.597758" lat="51.122171"><ele>53</ele><time>2022-03-27T09:09:15.000Z</time></trkpt><trkpt lon="5.597857" lat="51.122191"><ele>53</ele><time>2022-03-27T09:09:16.000Z</time></trkpt><trkpt lon="5.597958" lat="51.122203"><ele>53</ele><time>2022-03-27T09:09:17.000Z</time></trkpt><trkpt lon="5.598056" lat="51.122204"><ele>53</ele><time>2022-03-27T09:09:18.000Z</time></trkpt><trkpt lon="5.598158" lat="51.122189"><ele>53</ele><time>2022-03-27T09:09:19.000Z</time></trkpt><trkpt lon="5.598258" lat="51.122163"><ele>52.8</ele><time>2022-03-27T09:09:20.000Z</time></trkpt><trkpt lon="5.598355" lat="51.122126"><ele>52.8</ele><time>2022-03-27T09:09:21.000Z</time></trkpt><trkpt lon="5.59845" lat="51.122088"><ele>53</ele><time>2022-03-27T09:09:22.000Z</time></trkpt><trkpt lon="5.598548" lat="51.12205"><ele>53</ele><time>2022-03-27T09:09:23.000Z</time></trkpt><trkpt lon="5.598654" lat="51.122008"><ele>53</ele><time>2022-03-27T09:09:24.000Z</time></trkpt><trkpt lon="5.598756" lat="51.121966"><ele>53</ele><time>2022-03-27T09:09:25.000Z</time></trkpt><trkpt lon="5.598857" lat="51.121924"><ele>53</ele><time>2022-03-27T09:09:26.000Z</time></trkpt><trkpt lon="5.598955" lat="51.121886"><ele>53.2</ele><time>2022-03-27T09:09:27.000Z</time></trkpt><trkpt lon="5.599055" lat="51.121848"><ele>53.2</ele><time>2022-03-27T09:09:28.000Z</time></trkpt><trkpt lon="5.599152" lat="51.121809"><ele>53.2</ele><time>2022-03-27T09:09:29.000Z</time></trkpt><trkpt lon="5.599244" lat="51.121771"><ele>53.4</ele><time>2022-03-27T09:09:30.000Z</time></trkpt><trkpt lon="5.59934" lat="51.121733"><ele>53.4</ele><time>2022-03-27T09:09:31.000Z</time></trkpt><trkpt lon="5.599435" lat="51.121695"><ele>53.6</ele><time>2022-03-27T09:09:32.000Z</time></trkpt><trkpt lon="5.59953" lat="51.121657"><ele>53.6</ele><time>2022-03-27T09:09:33.000Z</time></trkpt><trkpt lon="5.599624" lat="51.121616"><ele>53.6</ele><time>2022-03-27T09:09:34.000Z</time></trkpt><trkpt lon="5.599727" lat="51.121576"><ele>53.6</ele><time>2022-03-27T09:09:35.000Z</time></trkpt><trkpt lon="5.599821" lat="51.121538"><ele>53.6</ele><time>2022-03-27T09:09:36.000Z</time></trkpt><trkpt lon="5.599919" lat="51.1215"><ele>53.8</ele><time>2022-03-27T09:09:37.000Z</time></trkpt><trkpt lon="5.600012" lat="51.121462"><ele>53.8</ele><time>2022-03-27T09:09:38.000Z</time></trkpt><trkpt lon="5.600105" lat="51.121424"><ele>54</ele><time>2022-03-27T09:09:39.000Z</time></trkpt><trkpt lon="5.600199" lat="51.121386"><ele>54</ele><time>2022-03-27T09:09:40.000Z</time></trkpt><trkpt lon="5.600282" lat="51.121351"><ele>54</ele><time>2022-03-27T09:09:41.000Z</time></trkpt><trkpt lon="5.600382" lat="51.121309"><ele>53.8</ele><time>2022-03-27T09:09:42.000Z</time></trkpt><trkpt lon="5.600477" lat="51.121275"><ele>53.8</ele><time>2022-03-27T09:09:43.000Z</time></trkpt><trkpt lon="5.600572" lat="51.121237"><ele>53.8</ele><time>2022-03-27T09:09:44.000Z</time></trkpt><trkpt lon="5.600669" lat="51.121199"><ele>53.8</ele><time>2022-03-27T09:09:45.000Z</time></trkpt><trkpt lon="5.600768" lat="51.121157"><ele>53.8</ele><time>2022-03-27T09:09:46.000Z</time></trkpt><trkpt lon="5.600865" lat="51.121119"><ele>53.8</ele><time>2022-03-27T09:09:47.000Z</time></trkpt><trkpt lon="5.600963" lat="51.121084"><ele>53.8</ele><time>2022-03-27T09:09:48.000Z</time></trkpt><trkpt lon="5.601056" lat="51.121051"><ele>53.8</ele><time>2022-03-27T09:09:49.000Z</time></trkpt><trkpt lon="5.60115" lat="51.12101"><ele>53.6</ele><time>2022-03-27T09:09:50.000Z</time></trkpt><trkpt lon="5.601248" lat="51.120966"><ele>53.6</ele><time>2022-03-27T09:09:51.000Z</time></trkpt><trkpt lon="5.601347" lat="51.120924"><ele>53.6</ele><time>2022-03-27T09:09:52.000Z</time></trkpt><trkpt lon="5.601442" lat="51.120886"><ele>53.6</ele><time>2022-03-27T09:09:53.000Z</time></trkpt><trkpt lon="5.601539" lat="51.120844"><ele>53.6</ele><time>2022-03-27T09:09:54.000Z</time></trkpt><trkpt lon="5.601631" lat="51.120806"><ele>53.6</ele><time>2022-03-27T09:09:55.000Z</time></trkpt><trkpt lon="5.601724" lat="51.120768"><ele>53.8</ele><time>2022-03-27T09:09:56.000Z</time></trkpt><trkpt lon="5.601813" lat="51.120726"><ele>53.6</ele><time>2022-03-27T09:09:57.000Z</time></trkpt><trkpt lon="5.601904" lat="51.120688"><ele>53.6</ele><time>2022-03-27T09:09:58.000Z</time></trkpt><trkpt lon="5.601996" lat="51.120646"><ele>53.6</ele><time>2022-03-27T09:09:59.000Z</time></trkpt><trkpt lon="5.602089" lat="51.120608"><ele>53.6</ele><time>2022-03-27T09:10:00.000Z</time></trkpt><trkpt lon="5.602181" lat="51.120569"><ele>53.6</ele><time>2022-03-27T09:10:01.000Z</time></trkpt><trkpt lon="5.602266" lat="51.120535"><ele>53.6</ele><time>2022-03-27T09:10:02.000Z</time></trkpt><trkpt lon="5.602354" lat="51.1205"><ele>53.6</ele><time>2022-03-27T09:10:03.000Z</time></trkpt><trkpt lon="5.60244" lat="51.120466"><ele>53.6</ele><time>2022-03-27T09:10:04.000Z</time></trkpt><trkpt lon="5.602528" lat="51.120428"><ele>53.6</ele><time>2022-03-27T09:10:05.000Z</time></trkpt><trkpt lon="5.602616" lat="51.120394"><ele>53.6</ele><time>2022-03-27T09:10:06.000Z</time></trkpt><trkpt lon="5.602712" lat="51.120356"><ele>53.8</ele><time>2022-03-27T09:10:07.000Z</time></trkpt><trkpt lon="5.602808" lat="51.120321"><ele>53.8</ele><time>2022-03-27T09:10:08.000Z</time></trkpt><trkpt lon="5.602908" lat="51.120287"><ele>53.8</ele><time>2022-03-27T09:10:09.000Z</time></trkpt><trkpt lon="5.603017" lat="51.12026"><ele>53.8</ele><time>2022-03-27T09:10:10.000Z</time></trkpt><trkpt lon="5.603126" lat="51.120233"><ele>53.8</ele><time>2022-03-27T09:10:11.000Z</time></trkpt><trkpt lon="5.603241" lat="51.120203"><ele>53.6</ele><time>2022-03-27T09:10:12.000Z</time></trkpt><trkpt lon="5.603354" lat="51.120168"><ele>53.6</ele><time>2022-03-27T09:10:13.000Z</time></trkpt><trkpt lon="5.603465" lat="51.120134"><ele>53.6</ele><time>2022-03-27T09:10:14.000Z</time></trkpt><trkpt lon="5.603575" lat="51.1201"><ele>53.4</ele><time>2022-03-27T09:10:15.000Z</time></trkpt><trkpt lon="5.603683" lat="51.120066"><ele>53.4</ele><time>2022-03-27T09:10:16.000Z</time></trkpt><trkpt lon="5.603786" lat="51.120036"><ele>53.4</ele><time>2022-03-27T09:10:17.000Z</time></trkpt><trkpt lon="5.603895" lat="51.120001"><ele>53.2</ele><time>2022-03-27T09:10:18.000Z</time></trkpt><trkpt lon="5.604003" lat="51.11997"><ele>53.2</ele><time>2022-03-27T09:10:19.000Z</time></trkpt><trkpt lon="5.604102" lat="51.119937"><ele>53.2</ele><time>2022-03-27T09:10:20.000Z</time></trkpt><trkpt lon="5.6042" lat="51.119902"><ele>53</ele><time>2022-03-27T09:10:21.000Z</time></trkpt><trkpt lon="5.6043" lat="51.119867"><ele>53</ele><time>2022-03-27T09:10:22.000Z</time></trkpt><trkpt lon="5.604396" lat="51.11983"><ele>53</ele><time>2022-03-27T09:10:23.000Z</time></trkpt><trkpt lon="5.604496" lat="51.119791"><ele>52.8</ele><time>2022-03-27T09:10:24.000Z</time></trkpt><trkpt lon="5.604597" lat="51.119749"><ele>52.8</ele><time>2022-03-27T09:10:25.000Z</time></trkpt><trkpt lon="5.604693" lat="51.119711"><ele>52.8</ele><time>2022-03-27T09:10:26.000Z</time></trkpt><trkpt lon="5.604789" lat="51.119669"><ele>52.8</ele><time>2022-03-27T09:10:27.000Z</time></trkpt><trkpt lon="5.604884" lat="51.119627"><ele>52.8</ele><time>2022-03-27T09:10:28.000Z</time></trkpt><trkpt lon="5.604978" lat="51.119586"><ele>52.8</ele><time>2022-03-27T09:10:29.000Z</time></trkpt><trkpt lon="5.605073" lat="51.119547"><ele>52.8</ele><time>2022-03-27T09:10:30.000Z</time></trkpt><trkpt lon="5.605164" lat="51.119505"><ele>52.8</ele><time>2022-03-27T09:10:31.000Z</time></trkpt><trkpt lon="5.605252" lat="51.119459"><ele>52.6</ele><time>2022-03-27T09:10:32.000Z</time></trkpt><trkpt lon="5.605341" lat="51.11941"><ele>52.6</ele><time>2022-03-27T09:10:33.000Z</time></trkpt><trkpt lon="5.605424" lat="51.119357"><ele>52.4</ele><time>2022-03-27T09:10:34.000Z</time></trkpt><trkpt lon="5.605503" lat="51.1193"><ele>52.4</ele><time>2022-03-27T09:10:35.000Z</time></trkpt><trkpt lon="5.605579" lat="51.119243"><ele>52.4</ele><time>2022-03-27T09:10:36.000Z</time></trkpt><trkpt lon="5.605652" lat="51.119182"><ele>52.4</ele><time>2022-03-27T09:10:37.000Z</time></trkpt><trkpt lon="5.605724" lat="51.119125"><ele>52.2</ele><time>2022-03-27T09:10:38.000Z</time></trkpt><trkpt lon="5.605797" lat="51.119068"><ele>52.2</ele><time>2022-03-27T09:10:39.000Z</time></trkpt><trkpt lon="5.605866" lat="51.119008"><ele>52.2</ele><time>2022-03-27T09:10:40.000Z</time></trkpt><trkpt lon="5.60594" lat="51.118949"><ele>52.2</ele><time>2022-03-27T09:10:41.000Z</time></trkpt><trkpt lon="5.606014" lat="51.118891"><ele>52</ele><time>2022-03-27T09:10:42.000Z</time></trkpt><trkpt lon="5.606084" lat="51.11883"><ele>52</ele><time>2022-03-27T09:10:43.000Z</time></trkpt><trkpt lon="5.60615" lat="51.118771"><ele>52</ele><time>2022-03-27T09:10:44.000Z</time></trkpt><trkpt lon="5.606218" lat="51.118706"><ele>52</ele><time>2022-03-27T09:10:45.000Z</time></trkpt><trkpt lon="5.606283" lat="51.11864"><ele>52</ele><time>2022-03-27T09:10:46.000Z</time></trkpt><trkpt lon="5.606345" lat="51.118572"><ele>52</ele><time>2022-03-27T09:10:47.000Z</time></trkpt><trkpt lon="5.6064" lat="51.118509"><ele>52</ele><time>2022-03-27T09:10:48.000Z</time></trkpt><trkpt lon="5.606458" lat="51.118443"><ele>52</ele><time>2022-03-27T09:10:49.000Z</time></trkpt><trkpt lon="5.606508" lat="51.118374"><ele>51.8</ele><time>2022-03-27T09:10:50.000Z</time></trkpt><trkpt lon="5.606557" lat="51.118309"><ele>51.8</ele><time>2022-03-27T09:10:51.000Z</time></trkpt><trkpt lon="5.606604" lat="51.11824"><ele>51.8</ele><time>2022-03-27T09:10:52.000Z</time></trkpt><trkpt lon="5.606653" lat="51.118167"><ele>51.6</ele><time>2022-03-27T09:10:53.000Z</time></trkpt><trkpt lon="5.606701" lat="51.118099"><ele>51.4</ele><time>2022-03-27T09:10:54.000Z</time></trkpt><trkpt lon="5.606751" lat="51.118026"><ele>51.2</ele><time>2022-03-27T09:10:55.000Z</time></trkpt><trkpt lon="5.606799" lat="51.117954"><ele>51.2</ele><time>2022-03-27T09:10:56.000Z</time></trkpt><trkpt lon="5.606847" lat="51.117886"><ele>51</ele><time>2022-03-27T09:10:57.000Z</time></trkpt><trkpt lon="5.606898" lat="51.117817"><ele>51</ele><time>2022-03-27T09:10:58.000Z</time></trkpt><trkpt lon="5.606948" lat="51.117753"><ele>50.8</ele><time>2022-03-27T09:10:59.000Z</time></trkpt><trkpt lon="5.606999" lat="51.11768"><ele>50.6</ele><time>2022-03-27T09:11:00.000Z</time></trkpt><trkpt lon="5.607052" lat="51.117611"><ele>50.4</ele><time>2022-03-27T09:11:01.000Z</time></trkpt><trkpt lon="5.607111" lat="51.117546"><ele>50.4</ele><time>2022-03-27T09:11:02.000Z</time></trkpt><trkpt lon="5.607178" lat="51.117481"><ele>50.2</ele><time>2022-03-27T09:11:03.000Z</time></trkpt><trkpt lon="5.607251" lat="51.11742"><ele>50</ele><time>2022-03-27T09:11:04.000Z</time></trkpt><trkpt lon="5.607326" lat="51.117358"><ele>50</ele><time>2022-03-27T09:11:05.000Z</time></trkpt><trkpt lon="5.607404" lat="51.117298"><ele>49.8</ele><time>2022-03-27T09:11:06.000Z</time></trkpt><trkpt lon="5.607482" lat="51.117237"><ele>49.8</ele><time>2022-03-27T09:11:07.000Z</time></trkpt><trkpt lon="5.607556" lat="51.117176"><ele>49.6</ele><time>2022-03-27T09:11:08.000Z</time></trkpt><trkpt lon="5.607625" lat="51.117111"><ele>49.4</ele><time>2022-03-27T09:11:09.000Z</time></trkpt><trkpt lon="5.607687" lat="51.117042"><ele>49.4</ele><time>2022-03-27T09:11:10.000Z</time></trkpt><trkpt lon="5.607746" lat="51.116973"><ele>49.4</ele><time>2022-03-27T09:11:11.000Z</time></trkpt><trkpt lon="5.6078" lat="51.116905"><ele>49.2</ele><time>2022-03-27T09:11:12.000Z</time></trkpt><trkpt lon="5.607856" lat="51.116836"><ele>49.2</ele><time>2022-03-27T09:11:13.000Z</time></trkpt><trkpt lon="5.607915" lat="51.116768"><ele>49.2</ele><time>2022-03-27T09:11:14.000Z</time></trkpt><trkpt lon="5.60797" lat="51.116699"><ele>49.2</ele><time>2022-03-27T09:11:15.000Z</time></trkpt><trkpt lon="5.608025" lat="51.116631"><ele>49</ele><time>2022-03-27T09:11:16.000Z</time></trkpt><trkpt lon="5.608086" lat="51.116565"><ele>49</ele><time>2022-03-27T09:11:17.000Z</time></trkpt><trkpt lon="5.608141" lat="51.116504"><ele>49</ele><time>2022-03-27T09:11:18.000Z</time></trkpt><trkpt lon="5.608195" lat="51.11644"><ele>48.8</ele><time>2022-03-27T09:11:19.000Z</time></trkpt><trkpt lon="5.608247" lat="51.116375"><ele>48.8</ele><time>2022-03-27T09:11:20.000Z</time></trkpt><trkpt lon="5.608294" lat="51.116313"><ele>48.6</ele><time>2022-03-27T09:11:21.000Z</time></trkpt><trkpt lon="5.608341" lat="51.116245"><ele>48.6</ele><time>2022-03-27T09:11:22.000Z</time></trkpt><trkpt lon="5.608387" lat="51.116184"><ele>48.4</ele><time>2022-03-27T09:11:23.000Z</time></trkpt><trkpt lon="5.608433" lat="51.116123"><ele>48.4</ele><time>2022-03-27T09:11:24.000Z</time></trkpt><trkpt lon="5.608475" lat="51.116061"><ele>48.2</ele><time>2022-03-27T09:11:25.000Z</time></trkpt><trkpt lon="5.608521" lat="51.116009"><ele>48.2</ele><time>2022-03-27T09:11:26.000Z</time></trkpt><trkpt lon="5.608575" lat="51.115969"><ele>48.2</ele><time>2022-03-27T09:11:27.000Z</time></trkpt><trkpt lon="5.608654" lat="51.115949"><ele>48.2</ele><time>2022-03-27T09:11:28.000Z</time></trkpt><trkpt lon="5.608755" lat="51.11594"><ele>48</ele><time>2022-03-27T09:11:29.000Z</time></trkpt><trkpt lon="5.608863" lat="51.11594"><ele>48</ele><time>2022-03-27T09:11:30.000Z</time></trkpt><trkpt lon="5.608976" lat="51.115944"><ele>47.8</ele><time>2022-03-27T09:11:31.000Z</time></trkpt><trkpt lon="5.609093" lat="51.115948"><ele>47.8</ele><time>2022-03-27T09:11:32.000Z</time></trkpt><trkpt lon="5.60921" lat="51.115951"><ele>47.8</ele><time>2022-03-27T09:11:33.000Z</time></trkpt><trkpt lon="5.609326" lat="51.115952"><ele>47.8</ele><time>2022-03-27T09:11:34.000Z</time></trkpt><trkpt lon="5.609443" lat="51.115952"><ele>48</ele><time>2022-03-27T09:11:35.000Z</time></trkpt><trkpt lon="5.609558" lat="51.115959"><ele>48</ele><time>2022-03-27T09:11:36.000Z</time></trkpt><trkpt lon="5.609673" lat="51.115977"><ele>48</ele><time>2022-03-27T09:11:37.000Z</time></trkpt><trkpt lon="5.609783" lat="51.116"><ele>48</ele><time>2022-03-27T09:11:38.000Z</time></trkpt><trkpt lon="5.609885" lat="51.116022"><ele>48</ele><time>2022-03-27T09:11:39.000Z</time></trkpt><trkpt lon="5.609992" lat="51.116049"><ele>48</ele><time>2022-03-27T09:11:40.000Z</time></trkpt><trkpt lon="5.610091" lat="51.116076"><ele>48</ele><time>2022-03-27T09:11:41.000Z</time></trkpt><trkpt lon="5.610192" lat="51.116102"><ele>48</ele><time>2022-03-27T09:11:42.000Z</time></trkpt><trkpt lon="5.610299" lat="51.116129"><ele>48.2</ele><time>2022-03-27T09:11:43.000Z</time></trkpt><trkpt lon="5.610404" lat="51.116157"><ele>48.2</ele><time>2022-03-27T09:11:44.000Z</time></trkpt><trkpt lon="5.610504" lat="51.116179"><ele>48.2</ele><time>2022-03-27T09:11:45.000Z</time></trkpt><trkpt lon="5.610603" lat="51.116205"><ele>48.2</ele><time>2022-03-27T09:11:46.000Z</time></trkpt><trkpt lon="5.610705" lat="51.116232"><ele>48.4</ele><time>2022-03-27T09:11:47.000Z</time></trkpt><trkpt lon="5.610804" lat="51.116255"><ele>48.2</ele><time>2022-03-27T09:11:48.000Z</time></trkpt><trkpt lon="5.610899" lat="51.116278"><ele>48.4</ele><time>2022-03-27T09:11:49.000Z</time></trkpt><trkpt lon="5.61099" lat="51.116301"><ele>48.6</ele><time>2022-03-27T09:11:50.000Z</time></trkpt><trkpt lon="5.611076" lat="51.116324"><ele>48.6</ele><time>2022-03-27T09:11:51.000Z</time></trkpt><trkpt lon="5.611164" lat="51.116343"><ele>48.8</ele><time>2022-03-27T09:11:52.000Z</time></trkpt><trkpt lon="5.611248" lat="51.116366"><ele>49</ele><time>2022-03-27T09:11:53.000Z</time></trkpt><trkpt lon="5.611333" lat="51.116385"><ele>49</ele><time>2022-03-27T09:11:54.000Z</time></trkpt><trkpt lon="5.611416" lat="51.116408"><ele>49.2</ele><time>2022-03-27T09:11:55.000Z</time></trkpt><trkpt lon="5.611501" lat="51.116427"><ele>49.4</ele><time>2022-03-27T09:11:56.000Z</time></trkpt><trkpt lon="5.611585" lat="51.11645"><ele>49.4</ele><time>2022-03-27T09:11:57.000Z</time></trkpt><trkpt lon="5.611672" lat="51.116469"><ele>49.4</ele><time>2022-03-27T09:11:58.000Z</time></trkpt><trkpt lon="5.611759" lat="51.116492"><ele>49.6</ele><time>2022-03-27T09:11:59.000Z</time></trkpt><trkpt lon="5.611846" lat="51.116515"><ele>49.8</ele><time>2022-03-27T09:12:00.000Z</time></trkpt><trkpt lon="5.611936" lat="51.116538"><ele>50</ele><time>2022-03-27T09:12:01.000Z</time></trkpt><trkpt lon="5.612026" lat="51.11656"><ele>50.2</ele><time>2022-03-27T09:12:02.000Z</time></trkpt><trkpt lon="5.612114" lat="51.116587"><ele>50.4</ele><time>2022-03-27T09:12:03.000Z</time></trkpt><trkpt lon="5.612197" lat="51.116614"><ele>50.6</ele><time>2022-03-27T09:12:04.000Z</time></trkpt><trkpt lon="5.612278" lat="51.116641"><ele>50.8</ele><time>2022-03-27T09:12:05.000Z</time></trkpt><trkpt lon="5.612353" lat="51.116667"><ele>51</ele><time>2022-03-27T09:12:06.000Z</time></trkpt><trkpt lon="5.612425" lat="51.116701"><ele>51.2</ele><time>2022-03-27T09:12:07.000Z</time></trkpt><trkpt lon="5.612498" lat="51.116739"><ele>51.4</ele><time>2022-03-27T09:12:08.000Z</time></trkpt><trkpt lon="5.612569" lat="51.116777"><ele>51.6</ele><time>2022-03-27T09:12:09.000Z</time></trkpt><trkpt lon="5.612641" lat="51.116819"><ele>51.6</ele><time>2022-03-27T09:12:10.000Z</time></trkpt><trkpt lon="5.612716" lat="51.116861"><ele>51.8</ele><time>2022-03-27T09:12:11.000Z</time></trkpt><trkpt lon="5.612792" lat="51.116903"><ele>52</ele><time>2022-03-27T09:12:12.000Z</time></trkpt><trkpt lon="5.612862" lat="51.116942"><ele>52.2</ele><time>2022-03-27T09:12:13.000Z</time></trkpt><trkpt lon="5.612932" lat="51.116987"><ele>52.4</ele><time>2022-03-27T09:12:14.000Z</time></trkpt><trkpt lon="5.613002" lat="51.117028"><ele>52.6</ele><time>2022-03-27T09:12:15.000Z</time></trkpt><trkpt lon="5.613076" lat="51.117071"><ele>52.6</ele><time>2022-03-27T09:12:16.000Z</time></trkpt><trkpt lon="5.613156" lat="51.117109"><ele>52.6</ele><time>2022-03-27T09:12:17.000Z</time></trkpt><trkpt lon="5.613241" lat="51.11714"><ele>52.8</ele><time>2022-03-27T09:12:18.000Z</time></trkpt><trkpt lon="5.613329" lat="51.117171"><ele>53.2</ele><time>2022-03-27T09:12:19.000Z</time></trkpt><trkpt lon="5.613418" lat="51.117197"><ele>53.2</ele><time>2022-03-27T09:12:20.000Z</time></trkpt><trkpt lon="5.613506" lat="51.117221"><ele>53.4</ele><time>2022-03-27T09:12:21.000Z</time></trkpt><trkpt lon="5.61359" lat="51.117247"><ele>53.6</ele><time>2022-03-27T09:12:22.000Z</time></trkpt><trkpt lon="5.613676" lat="51.117277"><ele>53.6</ele><time>2022-03-27T09:12:23.000Z</time></trkpt><trkpt lon="5.613762" lat="51.117304"><ele>53.6</ele><time>2022-03-27T09:12:24.000Z</time></trkpt><trkpt lon="5.613847" lat="51.117335"><ele>53.8</ele><time>2022-03-27T09:12:25.000Z</time></trkpt><trkpt lon="5.61393" lat="51.117365"><ele>53.8</ele><time>2022-03-27T09:12:26.000Z</time></trkpt><trkpt lon="5.614015" lat="51.117399"><ele>54</ele><time>2022-03-27T09:12:27.000Z</time></trkpt><trkpt lon="5.614099" lat="51.117434"><ele>54</ele><time>2022-03-27T09:12:28.000Z</time></trkpt><trkpt lon="5.614186" lat="51.117468"><ele>54</ele><time>2022-03-27T09:12:29.000Z</time></trkpt><trkpt lon="5.614272" lat="51.117499"><ele>53.8</ele><time>2022-03-27T09:12:30.000Z</time></trkpt><trkpt lon="5.614357" lat="51.117533"><ele>53.6</ele><time>2022-03-27T09:12:31.000Z</time></trkpt><trkpt lon="5.614444" lat="51.117567"><ele>53.6</ele><time>2022-03-27T09:12:32.000Z</time></trkpt><trkpt lon="5.61453" lat="51.117601"><ele>53.6</ele><time>2022-03-27T09:12:33.000Z</time></trkpt><trkpt lon="5.614617" lat="51.117635"><ele>53.6</ele><time>2022-03-27T09:12:34.000Z</time></trkpt><trkpt lon="5.614706" lat="51.11767"><ele>53.4</ele><time>2022-03-27T09:12:35.000Z</time></trkpt><trkpt lon="5.614795" lat="51.117705"><ele>53.4</ele><time>2022-03-27T09:12:36.000Z</time></trkpt><trkpt lon="5.614882" lat="51.117739"><ele>53.4</ele><time>2022-03-27T09:12:37.000Z</time></trkpt><trkpt lon="5.614971" lat="51.117773"><ele>53.6</ele><time>2022-03-27T09:12:38.000Z</time></trkpt><trkpt lon="5.615059" lat="51.117811"><ele>53.6</ele><time>2022-03-27T09:12:39.000Z</time></trkpt><trkpt lon="5.615147" lat="51.117845"><ele>53.6</ele><time>2022-03-27T09:12:40.000Z</time></trkpt><trkpt lon="5.61523" lat="51.117883"><ele>53.6</ele><time>2022-03-27T09:12:41.000Z</time></trkpt><trkpt lon="5.615313" lat="51.117922"><ele>53.6</ele><time>2022-03-27T09:12:42.000Z</time></trkpt><trkpt lon="5.615393" lat="51.117964"><ele>53.8</ele><time>2022-03-27T09:12:43.000Z</time></trkpt><trkpt lon="5.615469" lat="51.118008"><ele>53.8</ele><time>2022-03-27T09:12:44.000Z</time></trkpt><trkpt lon="5.615551" lat="51.118051"><ele>53.8</ele><time>2022-03-27T09:12:45.000Z</time></trkpt><trkpt lon="5.615634" lat="51.11809"><ele>53.8</ele><time>2022-03-27T09:12:46.000Z</time></trkpt><trkpt lon="5.615719" lat="51.118127"><ele>53.6</ele><time>2022-03-27T09:12:47.000Z</time></trkpt><trkpt lon="5.615811" lat="51.118158"><ele>53.8</ele><time>2022-03-27T09:12:48.000Z</time></trkpt><trkpt lon="5.615905" lat="51.118185"><ele>53.8</ele><time>2022-03-27T09:12:49.000Z</time></trkpt><trkpt lon="5.616001" lat="51.118212"><ele>54</ele><time>2022-03-27T09:12:50.000Z</time></trkpt><trkpt lon="5.616096" lat="51.118235"><ele>54</ele><time>2022-03-27T09:12:51.000Z</time></trkpt><trkpt lon="5.61619" lat="51.118262"><ele>54</ele><time>2022-03-27T09:12:52.000Z</time></trkpt><trkpt lon="5.616281" lat="51.118285"><ele>54</ele><time>2022-03-27T09:12:53.000Z</time></trkpt><trkpt lon="5.616373" lat="51.118308"><ele>54</ele><time>2022-03-27T09:12:54.000Z</time></trkpt><trkpt lon="5.616466" lat="51.118335"><ele>54.2</ele><time>2022-03-27T09:12:55.000Z</time></trkpt><trkpt lon="5.616554" lat="51.118357"><ele>54.4</ele><time>2022-03-27T09:12:56.000Z</time></trkpt><trkpt lon="5.616646" lat="51.11838"><ele>54.6</ele><time>2022-03-27T09:12:57.000Z</time></trkpt><trkpt lon="5.616736" lat="51.118407"><ele>54.8</ele><time>2022-03-27T09:12:58.000Z</time></trkpt><trkpt lon="5.616826" lat="51.118433"><ele>55</ele><time>2022-03-27T09:12:59.000Z</time></trkpt><trkpt lon="5.616919" lat="51.118456"><ele>55</ele><time>2022-03-27T09:13:00.000Z</time></trkpt><trkpt lon="5.617017" lat="51.11848"><ele>55.2</ele><time>2022-03-27T09:13:01.000Z</time></trkpt><trkpt lon="5.617112" lat="51.118506"><ele>55.2</ele><time>2022-03-27T09:13:02.000Z</time></trkpt><trkpt lon="5.617206" lat="51.118529"><ele>55.4</ele><time>2022-03-27T09:13:03.000Z</time></trkpt><trkpt lon="5.617302" lat="51.118556"><ele>55.4</ele><time>2022-03-27T09:13:04.000Z</time></trkpt><trkpt lon="5.617392" lat="51.118578"><ele>55.4</ele><time>2022-03-27T09:13:05.000Z</time></trkpt><trkpt lon="5.617485" lat="51.118605"><ele>55.6</ele><time>2022-03-27T09:13:06.000Z</time></trkpt><trkpt lon="5.617579" lat="51.118628"><ele>55.8</ele><time>2022-03-27T09:13:07.000Z</time></trkpt><trkpt lon="5.617673" lat="51.118651"><ele>56</ele><time>2022-03-27T09:13:08.000Z</time></trkpt><trkpt lon="5.617767" lat="51.118674"><ele>56.2</ele><time>2022-03-27T09:13:09.000Z</time></trkpt><trkpt lon="5.617861" lat="51.118697"><ele>56.2</ele><time>2022-03-27T09:13:10.000Z</time></trkpt><trkpt lon="5.617957" lat="51.118716"><ele>56</ele><time>2022-03-27T09:13:11.000Z</time></trkpt><trkpt lon="5.618053" lat="51.118739"><ele>56</ele><time>2022-03-27T09:13:12.000Z</time></trkpt><trkpt lon="5.618151" lat="51.118755"><ele>56.2</ele><time>2022-03-27T09:13:13.000Z</time></trkpt><trkpt lon="5.618247" lat="51.118766"><ele>56.2</ele><time>2022-03-27T09:13:14.000Z</time></trkpt><trkpt lon="5.618343" lat="51.118778"><ele>56.4</ele><time>2022-03-27T09:13:15.000Z</time></trkpt><trkpt lon="5.618441" lat="51.118785"><ele>56.4</ele><time>2022-03-27T09:13:16.000Z</time></trkpt><trkpt lon="5.618538" lat="51.118793"><ele>56.6</ele><time>2022-03-27T09:13:17.000Z</time></trkpt><trkpt lon="5.618635" lat="51.118797"><ele>56.8</ele><time>2022-03-27T09:13:18.000Z</time></trkpt><trkpt lon="5.618735" lat="51.118801"><ele>57</ele><time>2022-03-27T09:13:19.000Z</time></trkpt><trkpt lon="5.618832" lat="51.118805"><ele>57.2</ele><time>2022-03-27T09:13:20.000Z</time></trkpt><trkpt lon="5.618934" lat="51.118809"><ele>57.4</ele><time>2022-03-27T09:13:21.000Z</time></trkpt><trkpt lon="5.619035" lat="51.118816"><ele>57.4</ele><time>2022-03-27T09:13:22.000Z</time></trkpt><trkpt lon="5.619135" lat="51.118816"><ele>57.4</ele><time>2022-03-27T09:13:23.000Z</time></trkpt><trkpt lon="5.619235" lat="51.11882"><ele>57.6</ele><time>2022-03-27T09:13:24.000Z</time></trkpt><trkpt lon="5.619335" lat="51.11882"><ele>57.6</ele><time>2022-03-27T09:13:25.000Z</time></trkpt><trkpt lon="5.619438" lat="51.11882"><ele>57.6</ele><time>2022-03-27T09:13:26.000Z</time></trkpt><trkpt lon="5.61954" lat="51.11882"><ele>57.6</ele><time>2022-03-27T09:13:27.000Z</time></trkpt><trkpt lon="5.619646" lat="51.118824"><ele>57.8</ele><time>2022-03-27T09:13:28.000Z</time></trkpt><trkpt lon="5.619748" lat="51.118824"><ele>57.6</ele><time>2022-03-27T09:13:29.000Z</time></trkpt><trkpt lon="5.619853" lat="51.118824"><ele>57.6</ele><time>2022-03-27T09:13:30.000Z</time></trkpt><trkpt lon="5.619957" lat="51.118828"><ele>57.6</ele><time>2022-03-27T09:13:31.000Z</time></trkpt><trkpt lon="5.620057" lat="51.118828"><ele>57.6</ele><time>2022-03-27T09:13:32.000Z</time></trkpt><trkpt lon="5.620162" lat="51.118828"><ele>57.8</ele><time>2022-03-27T09:13:33.000Z</time></trkpt><trkpt lon="5.620262" lat="51.118828"><ele>57.8</ele><time>2022-03-27T09:13:34.000Z</time></trkpt><trkpt lon="5.620365" lat="51.118828"><ele>57.8</ele><time>2022-03-27T09:13:35.000Z</time></trkpt><trkpt lon="5.620468" lat="51.118828"><ele>57.6</ele><time>2022-03-27T09:13:36.000Z</time></trkpt><trkpt lon="5.620569" lat="51.118828"><ele>57.6</ele><time>2022-03-27T09:13:37.000Z</time></trkpt><trkpt lon="5.62067" lat="51.118828"><ele>57.6</ele><time>2022-03-27T09:13:38.000Z</time></trkpt><trkpt lon="5.620773" lat="51.118831"><ele>57.4</ele><time>2022-03-27T09:13:39.000Z</time></trkpt><trkpt lon="5.620874" lat="51.118832"><ele>57.4</ele><time>2022-03-27T09:13:40.000Z</time></trkpt><trkpt lon="5.620976" lat="51.118832"><ele>57.2</ele><time>2022-03-27T09:13:41.000Z</time></trkpt><trkpt lon="5.621079" lat="51.118839"><ele>57.2</ele><time>2022-03-27T09:13:42.000Z</time></trkpt><trkpt lon="5.621179" lat="51.118843"><ele>57.2</ele><time>2022-03-27T09:13:43.000Z</time></trkpt><trkpt lon="5.621282" lat="51.118843"><ele>57.2</ele><time>2022-03-27T09:13:44.000Z</time></trkpt><trkpt lon="5.621383" lat="51.118847"><ele>57</ele><time>2022-03-27T09:13:45.000Z</time></trkpt><trkpt lon="5.621485" lat="51.118847"><ele>57</ele><time>2022-03-27T09:13:46.000Z</time></trkpt><trkpt lon="5.621586" lat="51.118847"><ele>57</ele><time>2022-03-27T09:13:47.000Z</time></trkpt><trkpt lon="5.62169" lat="51.118851"><ele>57</ele><time>2022-03-27T09:13:48.000Z</time></trkpt><trkpt lon="5.621792" lat="51.118854"><ele>57</ele><time>2022-03-27T09:13:49.000Z</time></trkpt><trkpt lon="5.621893" lat="51.118858"><ele>57</ele><time>2022-03-27T09:13:50.000Z</time></trkpt><trkpt lon="5.621995" lat="51.118866"><ele>57</ele><time>2022-03-27T09:13:51.000Z</time></trkpt><trkpt lon="5.622096" lat="51.11888"><ele>57.2</ele><time>2022-03-27T09:13:52.000Z</time></trkpt><trkpt lon="5.6222" lat="51.118892"><ele>57.2</ele><time>2022-03-27T09:13:53.000Z</time></trkpt><trkpt lon="5.622301" lat="51.118907"><ele>57.2</ele><time>2022-03-27T09:13:54.000Z</time></trkpt><trkpt lon="5.622403" lat="51.118922"><ele>57.2</ele><time>2022-03-27T09:13:55.000Z</time></trkpt><trkpt lon="5.622503" lat="51.118938"><ele>57.2</ele><time>2022-03-27T09:13:56.000Z</time></trkpt><trkpt lon="5.622605" lat="51.118953"><ele>57</ele><time>2022-03-27T09:13:57.000Z</time></trkpt><trkpt lon="5.622708" lat="51.118964"><ele>57</ele><time>2022-03-27T09:13:58.000Z</time></trkpt><trkpt lon="5.622815" lat="51.118976"><ele>56.8</ele><time>2022-03-27T09:13:59.000Z</time></trkpt><trkpt lon="5.622922" lat="51.118987"><ele>56.6</ele><time>2022-03-27T09:14:00.000Z</time></trkpt><trkpt lon="5.623031" lat="51.118995"><ele>56.6</ele><time>2022-03-27T09:14:01.000Z</time></trkpt><trkpt lon="5.623138" lat="51.119003"><ele>56.4</ele><time>2022-03-27T09:14:02.000Z</time></trkpt><trkpt lon="5.623245" lat="51.119007"><ele>56.4</ele><time>2022-03-27T09:14:03.000Z</time></trkpt><trkpt lon="5.623353" lat="51.119014"><ele>56.4</ele><time>2022-03-27T09:14:04.000Z</time></trkpt><trkpt lon="5.623458" lat="51.119015"><ele>56.4</ele><time>2022-03-27T09:14:05.000Z</time></trkpt><trkpt lon="5.623565" lat="51.119015"><ele>56.4</ele><time>2022-03-27T09:14:06.000Z</time></trkpt><trkpt lon="5.623669" lat="51.119011"><ele>56.4</ele><time>2022-03-27T09:14:07.000Z</time></trkpt><trkpt lon="5.62377" lat="51.119007"><ele>56.6</ele><time>2022-03-27T09:14:08.000Z</time></trkpt><trkpt lon="5.623874" lat="51.119"><ele>56.6</ele><time>2022-03-27T09:14:09.000Z</time></trkpt><trkpt lon="5.623978" lat="51.118992"><ele>56.6</ele><time>2022-03-27T09:14:10.000Z</time></trkpt><trkpt lon="5.62408" lat="51.118985"><ele>56.8</ele><time>2022-03-27T09:14:11.000Z</time></trkpt><trkpt lon="5.624185" lat="51.118977"><ele>57</ele><time>2022-03-27T09:14:12.000Z</time></trkpt><trkpt lon="5.624291" lat="51.118973"><ele>57</ele><time>2022-03-27T09:14:13.000Z</time></trkpt><trkpt lon="5.624391" lat="51.118966"><ele>57</ele><time>2022-03-27T09:14:14.000Z</time></trkpt><trkpt lon="5.624492" lat="51.118951"><ele>57</ele><time>2022-03-27T09:14:15.000Z</time></trkpt><trkpt lon="5.624589" lat="51.118935"><ele>57.2</ele><time>2022-03-27T09:14:16.000Z</time></trkpt><trkpt lon="5.624685" lat="51.118917"><ele>57.2</ele><time>2022-03-27T09:14:17.000Z</time></trkpt><trkpt lon="5.624782" lat="51.118898"><ele>57.4</ele><time>2022-03-27T09:14:18.000Z</time></trkpt><trkpt lon="5.624878" lat="51.118882"><ele>57.6</ele><time>2022-03-27T09:14:19.000Z</time></trkpt><trkpt lon="5.624977" lat="51.11886"><ele>57.6</ele><time>2022-03-27T09:14:20.000Z</time></trkpt><trkpt lon="5.625079" lat="51.11884"><ele>57.6</ele><time>2022-03-27T09:14:21.000Z</time></trkpt><trkpt lon="5.625179" lat="51.118821"><ele>57.8</ele><time>2022-03-27T09:14:22.000Z</time></trkpt><trkpt lon="5.625279" lat="51.118802"><ele>57.8</ele><time>2022-03-27T09:14:23.000Z</time></trkpt><trkpt lon="5.625377" lat="51.11878"><ele>57.8</ele><time>2022-03-27T09:14:24.000Z</time></trkpt><trkpt lon="5.625476" lat="51.11876"><ele>57.8</ele><time>2022-03-27T09:14:25.000Z</time></trkpt><trkpt lon="5.625573" lat="51.118741"><ele>58</ele><time>2022-03-27T09:14:26.000Z</time></trkpt><trkpt lon="5.625667" lat="51.118719"><ele>58</ele><time>2022-03-27T09:14:27.000Z</time></trkpt><trkpt lon="5.62576" lat="51.118696"><ele>58</ele><time>2022-03-27T09:14:28.000Z</time></trkpt><trkpt lon="5.625852" lat="51.118673"><ele>57.8</ele><time>2022-03-27T09:14:29.000Z</time></trkpt><trkpt lon="5.625947" lat="51.11865"><ele>57.8</ele><time>2022-03-27T09:14:30.000Z</time></trkpt><trkpt lon="5.626048" lat="51.118631"><ele>57.8</ele><time>2022-03-27T09:14:31.000Z</time></trkpt><trkpt lon="5.626153" lat="51.118611"><ele>57.8</ele><time>2022-03-27T09:14:32.000Z</time></trkpt><trkpt lon="5.626257" lat="51.118596"><ele>57.8</ele><time>2022-03-27T09:14:33.000Z</time></trkpt><trkpt lon="5.626364" lat="51.118584"><ele>57.8</ele><time>2022-03-27T09:14:34.000Z</time></trkpt><trkpt lon="5.626471" lat="51.118576"><ele>57.8</ele><time>2022-03-27T09:14:35.000Z</time></trkpt><trkpt lon="5.62658" lat="51.118572"><ele>58</ele><time>2022-03-27T09:14:36.000Z</time></trkpt><trkpt lon="5.626681" lat="51.118565"><ele>57.8</ele><time>2022-03-27T09:14:37.000Z</time></trkpt><trkpt lon="5.626785" lat="51.118557"><ele>57.8</ele><time>2022-03-27T09:14:38.000Z</time></trkpt><trkpt lon="5.62689" lat="51.11855"><ele>57.8</ele><time>2022-03-27T09:14:39.000Z</time></trkpt><trkpt lon="5.626995" lat="51.118542"><ele>57.8</ele><time>2022-03-27T09:14:40.000Z</time></trkpt><trkpt lon="5.627101" lat="51.118542"><ele>57.6</ele><time>2022-03-27T09:14:41.000Z</time></trkpt><trkpt lon="5.62721" lat="51.118538"><ele>57.4</ele><time>2022-03-27T09:14:42.000Z</time></trkpt><trkpt lon="5.627325" lat="51.118534"><ele>57.2</ele><time>2022-03-27T09:14:43.000Z</time></trkpt><trkpt lon="5.627438" lat="51.118527"><ele>57</ele><time>2022-03-27T09:14:44.000Z</time></trkpt><trkpt lon="5.627555" lat="51.118526"><ele>56.6</ele><time>2022-03-27T09:14:45.000Z</time></trkpt><trkpt lon="5.627673" lat="51.11853"><ele>56.2</ele><time>2022-03-27T09:14:46.000Z</time></trkpt><trkpt lon="5.627793" lat="51.118541"><ele>55.6</ele><time>2022-03-27T09:14:47.000Z</time></trkpt><trkpt lon="5.627909" lat="51.11856"><ele>55</ele><time>2022-03-27T09:14:48.000Z</time></trkpt><trkpt lon="5.628022" lat="51.118586"><ele>54.4</ele><time>2022-03-27T09:14:49.000Z</time></trkpt><trkpt lon="5.628139" lat="51.118619"><ele>53.8</ele><time>2022-03-27T09:14:50.000Z</time></trkpt><trkpt lon="5.628259" lat="51.118661"><ele>53.2</ele><time>2022-03-27T09:14:51.000Z</time></trkpt><trkpt lon="5.628377" lat="51.11871"><ele>52.6</ele><time>2022-03-27T09:14:52.000Z</time></trkpt><trkpt lon="5.628496" lat="51.118757"><ele>52</ele><time>2022-03-27T09:14:53.000Z</time></trkpt><trkpt lon="5.628611" lat="51.118809"><ele>51.4</ele><time>2022-03-27T09:14:54.000Z</time></trkpt><trkpt lon="5.628731" lat="51.118863"><ele>50.8</ele><time>2022-03-27T09:14:55.000Z</time></trkpt><trkpt lon="5.628852" lat="51.118917"><ele>50.4</ele><time>2022-03-27T09:14:56.000Z</time></trkpt><trkpt lon="5.628976" lat="51.118962"><ele>49.8</ele><time>2022-03-27T09:14:57.000Z</time></trkpt><trkpt lon="5.629101" lat="51.119008"><ele>49.4</ele><time>2022-03-27T09:14:58.000Z</time></trkpt><trkpt lon="5.629224" lat="51.119054"><ele>48.8</ele><time>2022-03-27T09:14:59.000Z</time></trkpt><trkpt lon="5.629346" lat="51.119096"><ele>48.2</ele><time>2022-03-27T09:15:00.000Z</time></trkpt><trkpt lon="5.629476" lat="51.119142"><ele>47.6</ele><time>2022-03-27T09:15:01.000Z</time></trkpt><trkpt lon="5.629624" lat="51.119191"><ele>47</ele><time>2022-03-27T09:15:02.000Z</time></trkpt><trkpt lon="5.629781" lat="51.119234"><ele>46.4</ele><time>2022-03-27T09:15:03.000Z</time></trkpt><trkpt lon="5.629903" lat="51.119275"><ele>45.8</ele><time>2022-03-27T09:15:04.000Z</time></trkpt><trkpt lon="5.630074" lat="51.1193"><ele>45.2</ele><time>2022-03-27T09:15:05.000Z</time></trkpt><trkpt lon="5.63028" lat="51.119323"><ele>44.6</ele><time>2022-03-27T09:15:06.000Z</time></trkpt><trkpt lon="5.630471" lat="51.119334"><ele>44.2</ele><time>2022-03-27T09:15:07.000Z</time></trkpt><trkpt lon="5.630654" lat="51.119339"><ele>43.8</ele><time>2022-03-27T09:15:08.000Z</time></trkpt><trkpt lon="5.630823" lat="51.119346"><ele>43.4</ele><time>2022-03-27T09:15:09.000Z</time></trkpt><trkpt lon="5.63098" lat="51.11935"><ele>43</ele><time>2022-03-27T09:15:10.000Z</time></trkpt><trkpt lon="5.631131" lat="51.119358"><ele>42.6</ele><time>2022-03-27T09:15:11.000Z</time></trkpt><trkpt lon="5.63128" lat="51.119362"><ele>42</ele><time>2022-03-27T09:15:12.000Z</time></trkpt><trkpt lon="5.631438" lat="51.119366"><ele>41.8</ele><time>2022-03-27T09:15:13.000Z</time></trkpt><trkpt lon="5.631595" lat="51.119369"><ele>41.6</ele><time>2022-03-27T09:15:14.000Z</time></trkpt><trkpt lon="5.631749" lat="51.119366"><ele>41.4</ele><time>2022-03-27T09:15:15.000Z</time></trkpt><trkpt lon="5.631888" lat="51.119362"><ele>41.2</ele><time>2022-03-27T09:15:16.000Z</time></trkpt><trkpt lon="5.632028" lat="51.119362"><ele>40.8</ele><time>2022-03-27T09:15:17.000Z</time></trkpt><trkpt lon="5.632166" lat="51.119362"><ele>40.4</ele><time>2022-03-27T09:15:18.000Z</time></trkpt><trkpt lon="5.632304" lat="51.119362"><ele>40</ele><time>2022-03-27T09:15:19.000Z</time></trkpt><trkpt lon="5.63244" lat="51.119362"><ele>40</ele><time>2022-03-27T09:15:20.000Z</time></trkpt><trkpt lon="5.632574" lat="51.119365"><ele>39.8</ele><time>2022-03-27T09:15:21.000Z</time></trkpt><trkpt lon="5.632707" lat="51.119362"><ele>39.6</ele><time>2022-03-27T09:15:22.000Z</time></trkpt><trkpt lon="5.632839" lat="51.119362"><ele>39.4</ele><time>2022-03-27T09:15:23.000Z</time></trkpt><trkpt lon="5.632978" lat="51.119362"><ele>39.2</ele><time>2022-03-27T09:15:24.000Z</time></trkpt><trkpt lon="5.633116" lat="51.119358"><ele>39</ele><time>2022-03-27T09:15:25.000Z</time></trkpt><trkpt lon="5.633255" lat="51.119351"><ele>38.8</ele><time>2022-03-27T09:15:26.000Z</time></trkpt><trkpt lon="5.633394" lat="51.119347"><ele>38.6</ele><time>2022-03-27T09:15:27.000Z</time></trkpt><trkpt lon="5.633529" lat="51.119336"><ele>38.4</ele><time>2022-03-27T09:15:28.000Z</time></trkpt><trkpt lon="5.63366" lat="51.119328"><ele>38.2</ele><time>2022-03-27T09:15:29.000Z</time></trkpt><trkpt lon="5.63379" lat="51.119317"><ele>38</ele><time>2022-03-27T09:15:30.000Z</time></trkpt><trkpt lon="5.63392" lat="51.119309"><ele>37.8</ele><time>2022-03-27T09:15:31.000Z</time></trkpt><trkpt lon="5.634045" lat="51.119298"><ele>37.8</ele><time>2022-03-27T09:15:32.000Z</time></trkpt><trkpt lon="5.634172" lat="51.119286"><ele>37.8</ele><time>2022-03-27T09:15:33.000Z</time></trkpt><trkpt lon="5.6343" lat="51.119278"><ele>37.6</ele><time>2022-03-27T09:15:34.000Z</time></trkpt><trkpt lon="5.634424" lat="51.119267"><ele>37.4</ele><time>2022-03-27T09:15:35.000Z</time></trkpt><trkpt lon="5.63455" lat="51.119256"><ele>37.4</ele><time>2022-03-27T09:15:36.000Z</time></trkpt><trkpt lon="5.634671" lat="51.119248"><ele>37.2</ele><time>2022-03-27T09:15:37.000Z</time></trkpt><trkpt lon="5.634792" lat="51.119237"><ele>37</ele><time>2022-03-27T09:15:38.000Z</time></trkpt><trkpt lon="5.634916" lat="51.119229"><ele>36.6</ele><time>2022-03-27T09:15:39.000Z</time></trkpt><trkpt lon="5.63504" lat="51.119221"><ele>36.4</ele><time>2022-03-27T09:15:40.000Z</time></trkpt><trkpt lon="5.635162" lat="51.119214"><ele>36.4</ele><time>2022-03-27T09:15:41.000Z</time></trkpt><trkpt lon="5.635283" lat="51.11921"><ele>36.2</ele><time>2022-03-27T09:15:42.000Z</time></trkpt><trkpt lon="5.635404" lat="51.119202"><ele>36.2</ele><time>2022-03-27T09:15:43.000Z</time></trkpt><trkpt lon="5.635521" lat="51.119198"><ele>36</ele><time>2022-03-27T09:15:44.000Z</time></trkpt><trkpt lon="5.635645" lat="51.119194"><ele>35.8</ele><time>2022-03-27T09:15:45.000Z</time></trkpt><trkpt lon="5.635763" lat="51.119191"><ele>35.6</ele><time>2022-03-27T09:15:46.000Z</time></trkpt><trkpt lon="5.63589" lat="51.119187"><ele>35.4</ele><time>2022-03-27T09:15:47.000Z</time></trkpt><trkpt lon="5.636012" lat="51.119183"><ele>35.2</ele><time>2022-03-27T09:15:48.000Z</time></trkpt><trkpt lon="5.636135" lat="51.119179"><ele>35</ele><time>2022-03-27T09:15:49.000Z</time></trkpt><trkpt lon="5.636256" lat="51.119175"><ele>34.8</ele><time>2022-03-27T09:15:50.000Z</time></trkpt><trkpt lon="5.636371" lat="51.119168"><ele>34.6</ele><time>2022-03-27T09:15:51.000Z</time></trkpt><trkpt lon="5.636492" lat="51.119164"><ele>34.4</ele><time>2022-03-27T09:15:52.000Z</time></trkpt><trkpt lon="5.636611" lat="51.11916"><ele>34.4</ele><time>2022-03-27T09:15:53.000Z</time></trkpt><trkpt lon="5.636728" lat="51.119152"><ele>34.2</ele><time>2022-03-27T09:15:54.000Z</time></trkpt><trkpt lon="5.636842" lat="51.119148"><ele>34.2</ele><time>2022-03-27T09:15:55.000Z</time></trkpt><trkpt lon="5.636957" lat="51.119137"><ele>34</ele><time>2022-03-27T09:15:56.000Z</time></trkpt><trkpt lon="5.637065" lat="51.11913"><ele>33.8</ele><time>2022-03-27T09:15:57.000Z</time></trkpt><trkpt lon="5.637171" lat="51.119122"><ele>33.8</ele><time>2022-03-27T09:15:58.000Z</time></trkpt><trkpt lon="5.637276" lat="51.119111"><ele>33.6</ele><time>2022-03-27T09:15:59.000Z</time></trkpt><trkpt lon="5.637377" lat="51.119096"><ele>33.4</ele><time>2022-03-27T09:16:00.000Z</time></trkpt><trkpt lon="5.637473" lat="51.119084"><ele>33.4</ele><time>2022-03-27T09:16:01.000Z</time></trkpt><trkpt lon="5.637567" lat="51.119073"><ele>33.4</ele><time>2022-03-27T09:16:02.000Z</time></trkpt><trkpt lon="5.637661" lat="51.119065"><ele>33.6</ele><time>2022-03-27T09:16:03.000Z</time></trkpt><trkpt lon="5.637752" lat="51.119054"><ele>33.6</ele><time>2022-03-27T09:16:04.000Z</time></trkpt><trkpt lon="5.637844" lat="51.119042"><ele>33.4</ele><time>2022-03-27T09:16:05.000Z</time></trkpt><trkpt lon="5.637932" lat="51.119031"><ele>33.4</ele><time>2022-03-27T09:16:06.000Z</time></trkpt><trkpt lon="5.638014" lat="51.119019"><ele>33.2</ele><time>2022-03-27T09:16:07.000Z</time></trkpt><trkpt lon="5.638091" lat="51.119008"><ele>33</ele><time>2022-03-27T09:16:08.000Z</time></trkpt><trkpt lon="5.63816" lat="51.119"><ele>33</ele><time>2022-03-27T09:16:09.000Z</time></trkpt><trkpt lon="5.638225" lat="51.118992"><ele>33</ele><time>2022-03-27T09:16:10.000Z</time></trkpt><trkpt lon="5.638289" lat="51.118992"><ele>33</ele><time>2022-03-27T09:16:11.000Z</time></trkpt><trkpt lon="5.638354" lat="51.119003"><ele>33</ele><time>2022-03-27T09:16:12.000Z</time></trkpt><trkpt lon="5.638417" lat="51.119029"><ele>33</ele><time>2022-03-27T09:16:13.000Z</time></trkpt><trkpt lon="5.638474" lat="51.119062"><ele>32.8</ele><time>2022-03-27T09:16:14.000Z</time></trkpt><trkpt lon="5.638536" lat="51.119104"><ele>32.8</ele><time>2022-03-27T09:16:15.000Z</time></trkpt><trkpt lon="5.638602" lat="51.119153"><ele>32.6</ele><time>2022-03-27T09:16:16.000Z</time></trkpt><trkpt lon="5.638667" lat="51.119199"><ele>32.4</ele><time>2022-03-27T09:16:17.000Z</time></trkpt><trkpt lon="5.638738" lat="51.119249"><ele>32.4</ele><time>2022-03-27T09:16:18.000Z</time></trkpt><trkpt lon="5.638807" lat="51.119299"><ele>32.4</ele><time>2022-03-27T09:16:19.000Z</time></trkpt><trkpt lon="5.638877" lat="51.119351"><ele>32.4</ele><time>2022-03-27T09:16:20.000Z</time></trkpt><trkpt lon="5.638953" lat="51.119401"><ele>32.4</ele><time>2022-03-27T09:16:21.000Z</time></trkpt><trkpt lon="5.639026" lat="51.119451"><ele>32.4</ele><time>2022-03-27T09:16:22.000Z</time></trkpt><trkpt lon="5.639103" lat="51.119504"><ele>32.4</ele><time>2022-03-27T09:16:23.000Z</time></trkpt><trkpt lon="5.639178" lat="51.119561"><ele>32.4</ele><time>2022-03-27T09:16:24.000Z</time></trkpt><trkpt lon="5.639254" lat="51.119614"><ele>32.6</ele><time>2022-03-27T09:16:25.000Z</time></trkpt><trkpt lon="5.639329" lat="51.119672"><ele>32.6</ele><time>2022-03-27T09:16:26.000Z</time></trkpt><trkpt lon="5.639402" lat="51.119724"><ele>32.6</ele><time>2022-03-27T09:16:27.000Z</time></trkpt><trkpt lon="5.639471" lat="51.119786"><ele>32.2</ele><time>2022-03-27T09:16:28.000Z</time></trkpt><trkpt lon="5.639531" lat="51.119846"><ele>32</ele><time>2022-03-27T09:16:29.000Z</time></trkpt><trkpt lon="5.639584" lat="51.119912"><ele>32</ele><time>2022-03-27T09:16:30.000Z</time></trkpt><trkpt lon="5.639631" lat="51.119973"><ele>32</ele><time>2022-03-27T09:16:31.000Z</time></trkpt><trkpt lon="5.639668" lat="51.120031"><ele>32</ele><time>2022-03-27T09:16:32.000Z</time></trkpt><trkpt lon="5.6397" lat="51.120091"><ele>32</ele><time>2022-03-27T09:16:33.000Z</time></trkpt><trkpt lon="5.639733" lat="51.120144"><ele>32</ele><time>2022-03-27T09:16:34.000Z</time></trkpt><trkpt lon="5.639765" lat="51.120191"><ele>32</ele><time>2022-03-27T09:16:35.000Z</time></trkpt><trkpt lon="5.639798" lat="51.120233"><ele>32</ele><time>2022-03-27T09:16:36.000Z</time></trkpt><trkpt lon="5.639828" lat="51.120268"><ele>32</ele><time>2022-03-27T09:16:37.000Z</time></trkpt><trkpt lon="5.639852" lat="51.120299"><ele>32</ele><time>2022-03-27T09:16:38.000Z</time></trkpt><trkpt lon="5.639867" lat="51.120318"><ele>32.2</ele><time>2022-03-27T09:16:39.000Z</time></trkpt><trkpt lon="5.639868" lat="51.120327"><ele>32.6</ele><time>2022-03-27T09:16:47.000Z</time></trkpt><trkpt lon="5.639883" lat="51.120359"><ele>32.6</ele><time>2022-03-27T09:16:48.000Z</time></trkpt><trkpt lon="5.639887" lat="51.120383"><ele>32.6</ele><time>2022-03-27T09:16:49.000Z</time></trkpt><trkpt lon="5.639893" lat="51.120417"><ele>32.6</ele><time>2022-03-27T09:16:50.000Z</time></trkpt><trkpt lon="5.639903" lat="51.120458"><ele>32.4</ele><time>2022-03-27T09:16:51.000Z</time></trkpt><trkpt lon="5.639924" lat="51.120504"><ele>32.2</ele><time>2022-03-27T09:16:52.000Z</time></trkpt><trkpt lon="5.639952" lat="51.120553"><ele>32.2</ele><time>2022-03-27T09:16:53.000Z</time></trkpt><trkpt lon="5.639982" lat="51.120606"><ele>32</ele><time>2022-03-27T09:16:54.000Z</time></trkpt><trkpt lon="5.640014" lat="51.120663"><ele>32</ele><time>2022-03-27T09:16:55.000Z</time></trkpt><trkpt lon="5.640048" lat="51.120723"><ele>32</ele><time>2022-03-27T09:16:56.000Z</time></trkpt><trkpt lon="5.640081" lat="51.120785"><ele>32</ele><time>2022-03-27T09:16:57.000Z</time></trkpt><trkpt lon="5.640116" lat="51.12085"><ele>32</ele><time>2022-03-27T09:16:58.000Z</time></trkpt><trkpt lon="5.640152" lat="51.120914"><ele>31.8</ele><time>2022-03-27T09:16:59.000Z</time></trkpt><trkpt lon="5.640186" lat="51.120978"><ele>31.8</ele><time>2022-03-27T09:17:00.000Z</time></trkpt><trkpt lon="5.640218" lat="51.121044"><ele>31.8</ele><time>2022-03-27T09:17:01.000Z</time></trkpt><trkpt lon="5.640249" lat="51.121106"><ele>31.8</ele><time>2022-03-27T09:17:02.000Z</time></trkpt><trkpt lon="5.640278" lat="51.121163"><ele>31.8</ele><time>2022-03-27T09:17:03.000Z</time></trkpt><trkpt lon="5.640308" lat="51.12122"><ele>31.8</ele><time>2022-03-27T09:17:04.000Z</time></trkpt><trkpt lon="5.64034" lat="51.121281"><ele>32</ele><time>2022-03-27T09:17:05.000Z</time></trkpt><trkpt lon="5.640368" lat="51.121338"><ele>32</ele><time>2022-03-27T09:17:06.000Z</time></trkpt><trkpt lon="5.6404" lat="51.121403"><ele>31.8</ele><time>2022-03-27T09:17:07.000Z</time></trkpt><trkpt lon="5.640431" lat="51.121467"><ele>31.8</ele><time>2022-03-27T09:17:08.000Z</time></trkpt><trkpt lon="5.640462" lat="51.121531"><ele>31.8</ele><time>2022-03-27T09:17:09.000Z</time></trkpt><trkpt lon="5.640496" lat="51.121596"><ele>31.8</ele><time>2022-03-27T09:17:10.000Z</time></trkpt><trkpt lon="5.64053" lat="51.121662"><ele>31.6</ele><time>2022-03-27T09:17:11.000Z</time></trkpt><trkpt lon="5.640565" lat="51.121727"><ele>31.6</ele><time>2022-03-27T09:17:12.000Z</time></trkpt><trkpt lon="5.640599" lat="51.121796"><ele>31.8</ele><time>2022-03-27T09:17:13.000Z</time></trkpt><trkpt lon="5.640633" lat="51.121861"><ele>31.8</ele><time>2022-03-27T09:17:14.000Z</time></trkpt><trkpt lon="5.640671" lat="51.12193"><ele>32</ele><time>2022-03-27T09:17:15.000Z</time></trkpt><trkpt lon="5.640704" lat="51.121997"><ele>32</ele><time>2022-03-27T09:17:16.000Z</time></trkpt><trkpt lon="5.640738" lat="51.122063"><ele>32.2</ele><time>2022-03-27T09:17:17.000Z</time></trkpt><trkpt lon="5.64077" lat="51.122132"><ele>32.2</ele><time>2022-03-27T09:17:18.000Z</time></trkpt><trkpt lon="5.640803" lat="51.1222"><ele>32.2</ele><time>2022-03-27T09:17:19.000Z</time></trkpt><trkpt lon="5.640829" lat="51.122267"><ele>32.2</ele><time>2022-03-27T09:17:20.000Z</time></trkpt><trkpt lon="5.640852" lat="51.12234"><ele>32</ele><time>2022-03-27T09:17:21.000Z</time></trkpt><trkpt lon="5.640866" lat="51.12241"><ele>31.8</ele><time>2022-03-27T09:17:22.000Z</time></trkpt><trkpt lon="5.640873" lat="51.122486"><ele>31.6</ele><time>2022-03-27T09:17:23.000Z</time></trkpt><trkpt lon="5.64087" lat="51.122559"><ele>31.6</ele><time>2022-03-27T09:17:24.000Z</time></trkpt><trkpt lon="5.640862" lat="51.122631"><ele>31.8</ele><time>2022-03-27T09:17:25.000Z</time></trkpt><trkpt lon="5.640852" lat="51.122707"><ele>31.8</ele><time>2022-03-27T09:17:26.000Z</time></trkpt><trkpt lon="5.640841" lat="51.122775"><ele>32</ele><time>2022-03-27T09:17:27.000Z</time></trkpt><trkpt lon="5.640832" lat="51.122851"><ele>31.8</ele><time>2022-03-27T09:17:28.000Z</time></trkpt><trkpt lon="5.640822" lat="51.122925"><ele>31.8</ele><time>2022-03-27T09:17:29.000Z</time></trkpt><trkpt lon="5.640812" lat="51.122998"><ele>31.8</ele><time>2022-03-27T09:17:30.000Z</time></trkpt><trkpt lon="5.640802" lat="51.123064"><ele>31.8</ele><time>2022-03-27T09:17:31.000Z</time></trkpt><trkpt lon="5.640791" lat="51.123135"><ele>31.8</ele><time>2022-03-27T09:17:32.000Z</time></trkpt><trkpt lon="5.640784" lat="51.123203"><ele>31.8</ele><time>2022-03-27T09:17:33.000Z</time></trkpt><trkpt lon="5.640786" lat="51.123272"><ele>31.8</ele><time>2022-03-27T09:17:34.000Z</time></trkpt><trkpt lon="5.640793" lat="51.123344"><ele>31.6</ele><time>2022-03-27T09:17:35.000Z</time></trkpt><trkpt lon="5.640798" lat="51.12342"><ele>31.4</ele><time>2022-03-27T09:17:36.000Z</time></trkpt><trkpt lon="5.640801" lat="51.123496"><ele>31.4</ele><time>2022-03-27T09:17:37.000Z</time></trkpt><trkpt lon="5.640801" lat="51.123568"><ele>31.6</ele><time>2022-03-27T09:17:38.000Z</time></trkpt><trkpt lon="5.640801" lat="51.123645"><ele>31.8</ele><time>2022-03-27T09:17:39.000Z</time></trkpt><trkpt lon="5.640801" lat="51.123718"><ele>31.8</ele><time>2022-03-27T09:17:40.000Z</time></trkpt><trkpt lon="5.640803" lat="51.123789"><ele>31.8</ele><time>2022-03-27T09:17:41.000Z</time></trkpt><trkpt lon="5.640806" lat="51.123862"><ele>31.8</ele><time>2022-03-27T09:17:42.000Z</time></trkpt><trkpt lon="5.640814" lat="51.123936"><ele>31.8</ele><time>2022-03-27T09:17:43.000Z</time></trkpt><trkpt lon="5.640827" lat="51.124008"><ele>31.8</ele><time>2022-03-27T09:17:44.000Z</time></trkpt><trkpt lon="5.640844" lat="51.124081"><ele>31.8</ele><time>2022-03-27T09:17:45.000Z</time></trkpt><trkpt lon="5.64087" lat="51.12415"><ele>31.8</ele><time>2022-03-27T09:17:46.000Z</time></trkpt><trkpt lon="5.640899" lat="51.124222"><ele>31.8</ele><time>2022-03-27T09:17:47.000Z</time></trkpt><trkpt lon="5.64093" lat="51.124294"><ele>31.8</ele><time>2022-03-27T09:17:48.000Z</time></trkpt><trkpt lon="5.640966" lat="51.124362"><ele>31.8</ele><time>2022-03-27T09:17:49.000Z</time></trkpt><trkpt lon="5.641003" lat="51.124431"><ele>31.6</ele><time>2022-03-27T09:17:50.000Z</time></trkpt><trkpt lon="5.641044" lat="51.124503"><ele>31.6</ele><time>2022-03-27T09:17:51.000Z</time></trkpt><trkpt lon="5.641084" lat="51.124572"><ele>31.4</ele><time>2022-03-27T09:17:52.000Z</time></trkpt><trkpt lon="5.641124" lat="51.124641"><ele>31.4</ele><time>2022-03-27T09:17:53.000Z</time></trkpt><trkpt lon="5.641168" lat="51.124714"><ele>31.4</ele><time>2022-03-27T09:17:54.000Z</time></trkpt><trkpt lon="5.641211" lat="51.124786"><ele>31.4</ele><time>2022-03-27T09:17:55.000Z</time></trkpt><trkpt lon="5.641252" lat="51.124855"><ele>31.2</ele><time>2022-03-27T09:17:56.000Z</time></trkpt><trkpt lon="5.641294" lat="51.124927"><ele>31.2</ele><time>2022-03-27T09:17:57.000Z</time></trkpt><trkpt lon="5.641336" lat="51.124997"><ele>31</ele><time>2022-03-27T09:17:58.000Z</time></trkpt><trkpt lon="5.641378" lat="51.125069"><ele>30.6</ele><time>2022-03-27T09:17:59.000Z</time></trkpt><trkpt lon="5.64142" lat="51.125141"><ele>30.4</ele><time>2022-03-27T09:18:00.000Z</time></trkpt><trkpt lon="5.641463" lat="51.12521"><ele>30.2</ele><time>2022-03-27T09:18:01.000Z</time></trkpt><trkpt lon="5.641504" lat="51.125278"><ele>30.2</ele><time>2022-03-27T09:18:02.000Z</time></trkpt><trkpt lon="5.641546" lat="51.125345"><ele>30</ele><time>2022-03-27T09:18:03.000Z</time></trkpt><trkpt lon="5.641589" lat="51.125412"><ele>30</ele><time>2022-03-27T09:18:04.000Z</time></trkpt><trkpt lon="5.641629" lat="51.125479"><ele>30</ele><time>2022-03-27T09:18:05.000Z</time></trkpt><trkpt lon="5.641671" lat="51.125546"><ele>30.2</ele><time>2022-03-27T09:18:06.000Z</time></trkpt><trkpt lon="5.641708" lat="51.125607"><ele>30.2</ele><time>2022-03-27T09:18:07.000Z</time></trkpt><trkpt lon="5.641743" lat="51.125671"><ele>30.2</ele><time>2022-03-27T09:18:08.000Z</time></trkpt><trkpt lon="5.641776" lat="51.125732"><ele>30.2</ele><time>2022-03-27T09:18:09.000Z</time></trkpt><trkpt lon="5.641807" lat="51.12579"><ele>30.2</ele><time>2022-03-27T09:18:10.000Z</time></trkpt><trkpt lon="5.64184" lat="51.125836"><ele>30.2</ele><time>2022-03-27T09:18:11.000Z</time></trkpt><trkpt lon="5.641881" lat="51.125875"><ele>30.2</ele><time>2022-03-27T09:18:12.000Z</time></trkpt><trkpt lon="5.641939" lat="51.125899"><ele>30.2</ele><time>2022-03-27T09:18:13.000Z</time></trkpt><trkpt lon="5.642003" lat="51.1259"><ele>30.4</ele><time>2022-03-27T09:18:14.000Z</time></trkpt><trkpt lon="5.642062" lat="51.125889"><ele>30.6</ele><time>2022-03-27T09:18:15.000Z</time></trkpt><trkpt lon="5.642117" lat="51.12586"><ele>30.6</ele><time>2022-03-27T09:18:16.000Z</time></trkpt><trkpt lon="5.642173" lat="51.125822"><ele>30.6</ele><time>2022-03-27T09:18:17.000Z</time></trkpt><trkpt lon="5.64223" lat="51.125777"><ele>30.6</ele><time>2022-03-27T09:18:18.000Z</time></trkpt><trkpt lon="5.642285" lat="51.125731"><ele>30.6</ele><time>2022-03-27T09:18:19.000Z</time></trkpt><trkpt lon="5.642339" lat="51.125682"><ele>30.6</ele><time>2022-03-27T09:18:20.000Z</time></trkpt><trkpt lon="5.642396" lat="51.125632"><ele>30.8</ele><time>2022-03-27T09:18:21.000Z</time></trkpt><trkpt lon="5.64245" lat="51.125576"><ele>30.8</ele><time>2022-03-27T09:18:22.000Z</time></trkpt><trkpt lon="5.642507" lat="51.125521"><ele>30.8</ele><time>2022-03-27T09:18:23.000Z</time></trkpt><trkpt lon="5.642563" lat="51.125465"><ele>31</ele><time>2022-03-27T09:18:24.000Z</time></trkpt><trkpt lon="5.64262" lat="51.125412"><ele>31</ele><time>2022-03-27T09:18:25.000Z</time></trkpt><trkpt lon="5.642671" lat="51.125355"><ele>31</ele><time>2022-03-27T09:18:26.000Z</time></trkpt><trkpt lon="5.642724" lat="51.125293"><ele>31.2</ele><time>2022-03-27T09:18:27.000Z</time></trkpt><trkpt lon="5.642774" lat="51.125236"><ele>31.4</ele><time>2022-03-27T09:18:28.000Z</time></trkpt><trkpt lon="5.642824" lat="51.125178"><ele>31.4</ele><time>2022-03-27T09:18:29.000Z</time></trkpt><trkpt lon="5.642873" lat="51.125122"><ele>31.4</ele><time>2022-03-27T09:18:30.000Z</time></trkpt><trkpt lon="5.642922" lat="51.12506"><ele>31.4</ele><time>2022-03-27T09:18:31.000Z</time></trkpt><trkpt lon="5.642967" lat="51.124997"><ele>31.4</ele><time>2022-03-27T09:18:32.000Z</time></trkpt><trkpt lon="5.64301" lat="51.124933"><ele>31.4</ele><time>2022-03-27T09:18:33.000Z</time></trkpt><trkpt lon="5.643057" lat="51.12487"><ele>31.6</ele><time>2022-03-27T09:18:34.000Z</time></trkpt><trkpt lon="5.643104" lat="51.124806"><ele>31.8</ele><time>2022-03-27T09:18:35.000Z</time></trkpt><trkpt lon="5.643152" lat="51.124745"><ele>31.8</ele><time>2022-03-27T09:18:36.000Z</time></trkpt><trkpt lon="5.643204" lat="51.124689"><ele>32</ele><time>2022-03-27T09:18:37.000Z</time></trkpt><trkpt lon="5.64327" lat="51.124627"><ele>32.2</ele><time>2022-03-27T09:18:38.000Z</time></trkpt><trkpt lon="5.643341" lat="51.124569"><ele>32.4</ele><time>2022-03-27T09:18:39.000Z</time></trkpt><trkpt lon="5.643411" lat="51.124514"><ele>32.6</ele><time>2022-03-27T09:18:40.000Z</time></trkpt><trkpt lon="5.643486" lat="51.124461"><ele>32.8</ele><time>2022-03-27T09:18:41.000Z</time></trkpt><trkpt lon="5.643565" lat="51.124408"><ele>33</ele><time>2022-03-27T09:18:42.000Z</time></trkpt><trkpt lon="5.643645" lat="51.124354"><ele>33</ele><time>2022-03-27T09:18:43.000Z</time></trkpt><trkpt lon="5.643721" lat="51.124301"><ele>33</ele><time>2022-03-27T09:18:44.000Z</time></trkpt><trkpt lon="5.643799" lat="51.124247"><ele>33.2</ele><time>2022-03-27T09:18:45.000Z</time></trkpt><trkpt lon="5.643878" lat="51.124195"><ele>33.4</ele><time>2022-03-27T09:18:46.000Z</time></trkpt><trkpt lon="5.643958" lat="51.124141"><ele>33.4</ele><time>2022-03-27T09:18:47.000Z</time></trkpt><trkpt lon="5.644039" lat="51.124088"><ele>33.6</ele><time>2022-03-27T09:18:48.000Z</time></trkpt><trkpt lon="5.644118" lat="51.124035"><ele>33.6</ele><time>2022-03-27T09:18:49.000Z</time></trkpt><trkpt lon="5.644198" lat="51.123981"><ele>33.6</ele><time>2022-03-27T09:18:50.000Z</time></trkpt><trkpt lon="5.644278" lat="51.123928"><ele>33.8</ele><time>2022-03-27T09:18:51.000Z</time></trkpt><trkpt lon="5.644356" lat="51.123871"><ele>33.8</ele><time>2022-03-27T09:18:52.000Z</time></trkpt><trkpt lon="5.644434" lat="51.123817"><ele>34</ele><time>2022-03-27T09:18:53.000Z</time></trkpt><trkpt lon="5.644509" lat="51.123763"><ele>34.2</ele><time>2022-03-27T09:18:54.000Z</time></trkpt><trkpt lon="5.644585" lat="51.123706"><ele>34.2</ele><time>2022-03-27T09:18:55.000Z</time></trkpt><trkpt lon="5.644654" lat="51.123653"><ele>34.2</ele><time>2022-03-27T09:18:56.000Z</time></trkpt><trkpt lon="5.644724" lat="51.123595"><ele>34.2</ele><time>2022-03-27T09:18:57.000Z</time></trkpt><trkpt lon="5.644793" lat="51.123542"><ele>34.2</ele><time>2022-03-27T09:18:58.000Z</time></trkpt><trkpt lon="5.644859" lat="51.123489"><ele>34</ele><time>2022-03-27T09:18:59.000Z</time></trkpt><trkpt lon="5.644924" lat="51.123436"><ele>34</ele><time>2022-03-27T09:19:00.000Z</time></trkpt><trkpt lon="5.64499" lat="51.123383"><ele>34.2</ele><time>2022-03-27T09:19:01.000Z</time></trkpt><trkpt lon="5.645059" lat="51.123332"><ele>34</ele><time>2022-03-27T09:19:02.000Z</time></trkpt><trkpt lon="5.645134" lat="51.123282"><ele>34</ele><time>2022-03-27T09:19:03.000Z</time></trkpt><trkpt lon="5.645215" lat="51.123236"><ele>34</ele><time>2022-03-27T09:19:04.000Z</time></trkpt><trkpt lon="5.645306" lat="51.123202"><ele>34</ele><time>2022-03-27T09:19:05.000Z</time></trkpt><trkpt lon="5.645406" lat="51.123178"><ele>33.8</ele><time>2022-03-27T09:19:06.000Z</time></trkpt><trkpt lon="5.645518" lat="51.123162"><ele>33.8</ele><time>2022-03-27T09:19:07.000Z</time></trkpt><trkpt lon="5.645636" lat="51.123161"><ele>33.6</ele><time>2022-03-27T09:19:08.000Z</time></trkpt><trkpt lon="5.64576" lat="51.123165"><ele>33.6</ele><time>2022-03-27T09:19:09.000Z</time></trkpt><trkpt lon="5.645882" lat="51.123165"><ele>33.2</ele><time>2022-03-27T09:19:10.000Z</time></trkpt><trkpt lon="5.646001" lat="51.123169"><ele>33.2</ele><time>2022-03-27T09:19:11.000Z</time></trkpt><trkpt lon="5.64612" lat="51.123169"><ele>33</ele><time>2022-03-27T09:19:12.000Z</time></trkpt><trkpt lon="5.646242" lat="51.123173"><ele>32.8</ele><time>2022-03-27T09:19:13.000Z</time></trkpt><trkpt lon="5.646363" lat="51.123176"><ele>32.6</ele><time>2022-03-27T09:19:14.000Z</time></trkpt><trkpt lon="5.646487" lat="51.123177"><ele>32.6</ele><time>2022-03-27T09:19:15.000Z</time></trkpt><trkpt lon="5.646606" lat="51.123177"><ele>32.2</ele><time>2022-03-27T09:19:16.000Z</time></trkpt><trkpt lon="5.646725" lat="51.123177"><ele>32</ele><time>2022-03-27T09:19:17.000Z</time></trkpt><trkpt lon="5.646842" lat="51.12318"><ele>32</ele><time>2022-03-27T09:19:18.000Z</time></trkpt><trkpt lon="5.646956" lat="51.12318"><ele>31.8</ele><time>2022-03-27T09:19:19.000Z</time></trkpt><trkpt lon="5.647071" lat="51.123184"><ele>31.6</ele><time>2022-03-27T09:19:20.000Z</time></trkpt><trkpt lon="5.647183" lat="51.123188"><ele>31.6</ele><time>2022-03-27T09:19:21.000Z</time></trkpt><trkpt lon="5.6473" lat="51.123192"><ele>31.6</ele><time>2022-03-27T09:19:22.000Z</time></trkpt><trkpt lon="5.647416" lat="51.123195"><ele>31.4</ele><time>2022-03-27T09:19:23.000Z</time></trkpt><trkpt lon="5.647533" lat="51.123203"><ele>31.4</ele><time>2022-03-27T09:19:24.000Z</time></trkpt><trkpt lon="5.647652" lat="51.123203"><ele>31.4</ele><time>2022-03-27T09:19:25.000Z</time></trkpt><trkpt lon="5.647771" lat="51.123207"><ele>31.4</ele><time>2022-03-27T09:19:26.000Z</time></trkpt><trkpt lon="5.647889" lat="51.123207"><ele>31.2</ele><time>2022-03-27T09:19:27.000Z</time></trkpt><trkpt lon="5.648008" lat="51.123204"><ele>31</ele><time>2022-03-27T09:19:28.000Z</time></trkpt><trkpt lon="5.648124" lat="51.123196"><ele>31</ele><time>2022-03-27T09:19:29.000Z</time></trkpt><trkpt lon="5.648247" lat="51.123181"><ele>30.8</ele><time>2022-03-27T09:19:30.000Z</time></trkpt><trkpt lon="5.648359" lat="51.123166"><ele>30.6</ele><time>2022-03-27T09:19:31.000Z</time></trkpt><trkpt lon="5.648473" lat="51.12314"><ele>30.6</ele><time>2022-03-27T09:19:32.000Z</time></trkpt><trkpt lon="5.648581" lat="51.12311"><ele>30.4</ele><time>2022-03-27T09:19:33.000Z</time></trkpt><trkpt lon="5.648688" lat="51.123076"><ele>30.4</ele><time>2022-03-27T09:19:34.000Z</time></trkpt><trkpt lon="5.648793" lat="51.123038"><ele>30.4</ele><time>2022-03-27T09:19:35.000Z</time></trkpt><trkpt lon="5.648892" lat="51.122996"><ele>30.2</ele><time>2022-03-27T09:19:36.000Z</time></trkpt><trkpt lon="5.648991" lat="51.122954"><ele>30.2</ele><time>2022-03-27T09:19:37.000Z</time></trkpt><trkpt lon="5.649089" lat="51.122909"><ele>30.2</ele><time>2022-03-27T09:19:38.000Z</time></trkpt><trkpt lon="5.649185" lat="51.122863"><ele>30.2</ele><time>2022-03-27T09:19:39.000Z</time></trkpt><trkpt lon="5.649279" lat="51.122817"><ele>30</ele><time>2022-03-27T09:19:40.000Z</time></trkpt><trkpt lon="5.64937" lat="51.122771"><ele>30</ele><time>2022-03-27T09:19:41.000Z</time></trkpt><trkpt lon="5.649456" lat="51.122726"><ele>29.8</ele><time>2022-03-27T09:19:42.000Z</time></trkpt><trkpt lon="5.649544" lat="51.12268"><ele>29.8</ele><time>2022-03-27T09:19:43.000Z</time></trkpt><trkpt lon="5.649629" lat="51.122637"><ele>29.8</ele><time>2022-03-27T09:19:44.000Z</time></trkpt><trkpt lon="5.649711" lat="51.122599"><ele>30</ele><time>2022-03-27T09:19:45.000Z</time></trkpt><trkpt lon="5.649789" lat="51.122557"><ele>30</ele><time>2022-03-27T09:19:46.000Z</time></trkpt><trkpt lon="5.649864" lat="51.122519"><ele>30</ele><time>2022-03-27T09:19:47.000Z</time></trkpt><trkpt lon="5.649936" lat="51.122492"><ele>30</ele><time>2022-03-27T09:19:48.000Z</time></trkpt><trkpt lon="5.650009" lat="51.122479"><ele>30.2</ele><time>2022-03-27T09:19:49.000Z</time></trkpt><trkpt lon="5.650073" lat="51.122489"><ele>30.2</ele><time>2022-03-27T09:19:50.000Z</time></trkpt><trkpt lon="5.650114" lat="51.122519"><ele>30</ele><time>2022-03-27T09:19:51.000Z</time></trkpt><trkpt lon="5.650134" lat="51.122564"><ele>29.8</ele><time>2022-03-27T09:19:52.000Z</time></trkpt><trkpt lon="5.650143" lat="51.12262"><ele>29.6</ele><time>2022-03-27T09:19:53.000Z</time></trkpt><trkpt lon="5.650148" lat="51.122678"><ele>29.4</ele><time>2022-03-27T09:19:54.000Z</time></trkpt><trkpt lon="5.650152" lat="51.122735"><ele>29.4</ele><time>2022-03-27T09:19:55.000Z</time></trkpt><trkpt lon="5.650155" lat="51.122791"><ele>29.6</ele><time>2022-03-27T09:19:56.000Z</time></trkpt><trkpt lon="5.650161" lat="51.122856"><ele>29.4</ele><time>2022-03-27T09:19:57.000Z</time></trkpt><trkpt lon="5.650174" lat="51.122918"><ele>29.4</ele><time>2022-03-27T09:19:58.000Z</time></trkpt><trkpt lon="5.650191" lat="51.122985"><ele>29.4</ele><time>2022-03-27T09:19:59.000Z</time></trkpt><trkpt lon="5.650206" lat="51.123055"><ele>29.4</ele><time>2022-03-27T09:20:00.000Z</time></trkpt><trkpt lon="5.650227" lat="51.12312"><ele>29.6</ele><time>2022-03-27T09:20:01.000Z</time></trkpt><trkpt lon="5.650252" lat="51.123188"><ele>29.6</ele><time>2022-03-27T09:20:02.000Z</time></trkpt><trkpt lon="5.650282" lat="51.123257"><ele>29.8</ele><time>2022-03-27T09:20:03.000Z</time></trkpt><trkpt lon="5.650313" lat="51.123326"><ele>30</ele><time>2022-03-27T09:20:04.000Z</time></trkpt><trkpt lon="5.650345" lat="51.123391"><ele>30.2</ele><time>2022-03-27T09:20:05.000Z</time></trkpt><trkpt lon="5.650376" lat="51.123459"><ele>30.4</ele><time>2022-03-27T09:20:06.000Z</time></trkpt><trkpt lon="5.650411" lat="51.123524"><ele>30.6</ele><time>2022-03-27T09:20:07.000Z</time></trkpt><trkpt lon="5.650453" lat="51.123585"><ele>31</ele><time>2022-03-27T09:20:08.000Z</time></trkpt><trkpt lon="5.650496" lat="51.123647"><ele>31.2</ele><time>2022-03-27T09:20:09.000Z</time></trkpt><trkpt lon="5.650536" lat="51.123702"><ele>31.4</ele><time>2022-03-27T09:20:10.000Z</time></trkpt><trkpt lon="5.650584" lat="51.123764"><ele>31.8</ele><time>2022-03-27T09:20:11.000Z</time></trkpt><trkpt lon="5.650631" lat="51.123811"><ele>32</ele><time>2022-03-27T09:20:12.000Z</time></trkpt><trkpt lon="5.650692" lat="51.123872"><ele>32.2</ele><time>2022-03-27T09:20:13.000Z</time></trkpt><trkpt lon="5.650745" lat="51.123922"><ele>32.6</ele><time>2022-03-27T09:20:14.000Z</time></trkpt><trkpt lon="5.650796" lat="51.123975"><ele>32.8</ele><time>2022-03-27T09:20:15.000Z</time></trkpt><trkpt lon="5.65085" lat="51.124028"><ele>33</ele><time>2022-03-27T09:20:16.000Z</time></trkpt><trkpt lon="5.65091" lat="51.124082"><ele>33.2</ele><time>2022-03-27T09:20:17.000Z</time></trkpt><trkpt lon="5.650972" lat="51.124135"><ele>33.6</ele><time>2022-03-27T09:20:18.000Z</time></trkpt><trkpt lon="5.651034" lat="51.124184"><ele>34</ele><time>2022-03-27T09:20:19.000Z</time></trkpt><trkpt lon="5.651097" lat="51.124231"><ele>34.2</ele><time>2022-03-27T09:20:20.000Z</time></trkpt><trkpt lon="5.651159" lat="51.124284"><ele>34.6</ele><time>2022-03-27T09:20:21.000Z</time></trkpt><trkpt lon="5.651219" lat="51.124329"><ele>34.8</ele><time>2022-03-27T09:20:22.000Z</time></trkpt><trkpt lon="5.651279" lat="51.124376"><ele>35.2</ele><time>2022-03-27T09:20:23.000Z</time></trkpt><trkpt lon="5.651336" lat="51.124421"><ele>35.6</ele><time>2022-03-27T09:20:24.000Z</time></trkpt><trkpt lon="5.651396" lat="51.124463"><ele>36</ele><time>2022-03-27T09:20:25.000Z</time></trkpt><trkpt lon="5.651454" lat="51.124502"><ele>36.4</ele><time>2022-03-27T09:20:26.000Z</time></trkpt><trkpt lon="5.651506" lat="51.124543"><ele>36.6</ele><time>2022-03-27T09:20:27.000Z</time></trkpt><trkpt lon="5.65156" lat="51.124582"><ele>36.8</ele><time>2022-03-27T09:20:28.000Z</time></trkpt><trkpt lon="5.651615" lat="51.12462"><ele>37.2</ele><time>2022-03-27T09:20:29.000Z</time></trkpt><trkpt lon="5.65167" lat="51.124658"><ele>37.4</ele><time>2022-03-27T09:20:30.000Z</time></trkpt><trkpt lon="5.651723" lat="51.124696"><ele>37.6</ele><time>2022-03-27T09:20:31.000Z</time></trkpt><trkpt lon="5.651782" lat="51.124739"><ele>37.8</ele><time>2022-03-27T09:20:32.000Z</time></trkpt><trkpt lon="5.651841" lat="51.124784"><ele>38.2</ele><time>2022-03-27T09:20:33.000Z</time></trkpt><trkpt lon="5.651899" lat="51.124826"><ele>38.4</ele><time>2022-03-27T09:20:34.000Z</time></trkpt><trkpt lon="5.651957" lat="51.124872"><ele>38.4</ele><time>2022-03-27T09:20:35.000Z</time></trkpt><trkpt lon="5.652016" lat="51.124917"><ele>38.6</ele><time>2022-03-27T09:20:36.000Z</time></trkpt><trkpt lon="5.652075" lat="51.12496"><ele>38.6</ele><time>2022-03-27T09:20:37.000Z</time></trkpt><trkpt lon="5.652133" lat="51.125004"><ele>38.6</ele><time>2022-03-27T09:20:38.000Z</time></trkpt><trkpt lon="5.652195" lat="51.125051"><ele>38.8</ele><time>2022-03-27T09:20:39.000Z</time></trkpt><trkpt lon="5.652255" lat="51.125096"><ele>38.8</ele><time>2022-03-27T09:20:40.000Z</time></trkpt><trkpt lon="5.652316" lat="51.125142"><ele>38.8</ele><time>2022-03-27T09:20:41.000Z</time></trkpt><trkpt lon="5.65237" lat="51.125179"><ele>38.8</ele><time>2022-03-27T09:20:42.000Z</time></trkpt><trkpt lon="5.652441" lat="51.12523"><ele>38.6</ele><time>2022-03-27T09:20:43.000Z</time></trkpt><trkpt lon="5.65251" lat="51.125276"><ele>38.6</ele><time>2022-03-27T09:20:44.000Z</time></trkpt><trkpt lon="5.652583" lat="51.125326"><ele>38.4</ele><time>2022-03-27T09:20:45.000Z</time></trkpt><trkpt lon="5.652661" lat="51.125374"><ele>38.2</ele><time>2022-03-27T09:20:46.000Z</time></trkpt><trkpt lon="5.652748" lat="51.125424"><ele>37.8</ele><time>2022-03-27T09:20:47.000Z</time></trkpt><trkpt lon="5.652845" lat="51.125474"><ele>37.4</ele><time>2022-03-27T09:20:48.000Z</time></trkpt><trkpt lon="5.652945" lat="51.125524"><ele>37.2</ele><time>2022-03-27T09:20:49.000Z</time></trkpt><trkpt lon="5.65305" lat="51.12557"><ele>37</ele><time>2022-03-27T09:20:50.000Z</time></trkpt><trkpt lon="5.653153" lat="51.125619"><ele>36.4</ele><time>2022-03-27T09:20:51.000Z</time></trkpt><trkpt lon="5.653261" lat="51.125672"><ele>36</ele><time>2022-03-27T09:20:52.000Z</time></trkpt><trkpt lon="5.653374" lat="51.125721"><ele>35.4</ele><time>2022-03-27T09:20:53.000Z</time></trkpt><trkpt lon="5.653495" lat="51.125768"><ele>35</ele><time>2022-03-27T09:20:54.000Z</time></trkpt><trkpt lon="5.653615" lat="51.12581"><ele>34.6</ele><time>2022-03-27T09:20:55.000Z</time></trkpt><trkpt lon="5.653737" lat="51.125852"><ele>34.2</ele><time>2022-03-27T09:20:56.000Z</time></trkpt><trkpt lon="5.653857" lat="51.125887"><ele>34</ele><time>2022-03-27T09:20:57.000Z</time></trkpt><trkpt lon="5.653982" lat="51.125921"><ele>33.6</ele><time>2022-03-27T09:20:58.000Z</time></trkpt><trkpt lon="5.654107" lat="51.125955"><ele>33</ele><time>2022-03-27T09:20:59.000Z</time></trkpt><trkpt lon="5.654232" lat="51.125994"><ele>32.8</ele><time>2022-03-27T09:21:00.000Z</time></trkpt><trkpt lon="5.654356" lat="51.126028"><ele>32.4</ele><time>2022-03-27T09:21:01.000Z</time></trkpt><trkpt lon="5.654476" lat="51.126066"><ele>32.2</ele><time>2022-03-27T09:21:02.000Z</time></trkpt><trkpt lon="5.654593" lat="51.1261"><ele>31.8</ele><time>2022-03-27T09:21:03.000Z</time></trkpt><trkpt lon="5.654712" lat="51.126134"><ele>31.6</ele><time>2022-03-27T09:21:04.000Z</time></trkpt><trkpt lon="5.65483" lat="51.126169"><ele>31.4</ele><time>2022-03-27T09:21:05.000Z</time></trkpt><trkpt lon="5.654951" lat="51.1262"><ele>31</ele><time>2022-03-27T09:21:06.000Z</time></trkpt><trkpt lon="5.655066" lat="51.126234"><ele>30.8</ele><time>2022-03-27T09:21:07.000Z</time></trkpt><trkpt lon="5.655183" lat="51.126268"><ele>30.4</ele><time>2022-03-27T09:21:08.000Z</time></trkpt><trkpt lon="5.655303" lat="51.126303"><ele>30.2</ele><time>2022-03-27T09:21:09.000Z</time></trkpt><trkpt lon="5.655421" lat="51.126334"><ele>30</ele><time>2022-03-27T09:21:10.000Z</time></trkpt><trkpt lon="5.655534" lat="51.126367"><ele>29.8</ele><time>2022-03-27T09:21:11.000Z</time></trkpt><trkpt lon="5.655641" lat="51.126399"><ele>29.6</ele><time>2022-03-27T09:21:12.000Z</time></trkpt><trkpt lon="5.655765" lat="51.126437"><ele>29.2</ele><time>2022-03-27T09:21:13.000Z</time></trkpt><trkpt lon="5.655873" lat="51.126474"><ele>29</ele><time>2022-03-27T09:21:14.000Z</time></trkpt><trkpt lon="5.655978" lat="51.126509"><ele>28.8</ele><time>2022-03-27T09:21:15.000Z</time></trkpt><trkpt lon="5.65608" lat="51.126547"><ele>28.8</ele><time>2022-03-27T09:21:16.000Z</time></trkpt><trkpt lon="5.656179" lat="51.126585"><ele>28.8</ele><time>2022-03-27T09:21:17.000Z</time></trkpt><trkpt lon="5.656278" lat="51.126623"><ele>28.6</ele><time>2022-03-27T09:21:18.000Z</time></trkpt><trkpt lon="5.656378" lat="51.126665"><ele>28.6</ele><time>2022-03-27T09:21:19.000Z</time></trkpt><trkpt lon="5.656477" lat="51.126703"><ele>28.6</ele><time>2022-03-27T09:21:20.000Z</time></trkpt><trkpt lon="5.656572" lat="51.126741"><ele>28.4</ele><time>2022-03-27T09:21:21.000Z</time></trkpt><trkpt lon="5.656664" lat="51.126778"><ele>28.4</ele><time>2022-03-27T09:21:22.000Z</time></trkpt><trkpt lon="5.656763" lat="51.12682"><ele>28.2</ele><time>2022-03-27T09:21:23.000Z</time></trkpt><trkpt lon="5.656864" lat="51.12686"><ele>28.2</ele><time>2022-03-27T09:21:24.000Z</time></trkpt><trkpt lon="5.656962" lat="51.126901"><ele>28</ele><time>2022-03-27T09:21:25.000Z</time></trkpt><trkpt lon="5.657065" lat="51.126943"><ele>28</ele><time>2022-03-27T09:21:26.000Z</time></trkpt><trkpt lon="5.657166" lat="51.126985"><ele>27.8</ele><time>2022-03-27T09:21:27.000Z</time></trkpt><trkpt lon="5.657268" lat="51.127027"><ele>27.8</ele><time>2022-03-27T09:21:28.000Z</time></trkpt><trkpt lon="5.657367" lat="51.127069"><ele>27.8</ele><time>2022-03-27T09:21:29.000Z</time></trkpt><trkpt lon="5.657468" lat="51.127108"><ele>27.8</ele><time>2022-03-27T09:21:30.000Z</time></trkpt><trkpt lon="5.657567" lat="51.127149"><ele>27.8</ele><time>2022-03-27T09:21:31.000Z</time></trkpt><trkpt lon="5.657667" lat="51.127194"><ele>27.8</ele><time>2022-03-27T09:21:32.000Z</time></trkpt><trkpt lon="5.657765" lat="51.127236"><ele>27.8</ele><time>2022-03-27T09:21:33.000Z</time></trkpt><trkpt lon="5.657864" lat="51.127279"><ele>27.8</ele><time>2022-03-27T09:21:34.000Z</time></trkpt><trkpt lon="5.65796" lat="51.127321"><ele>27.8</ele><time>2022-03-27T09:21:35.000Z</time></trkpt><trkpt lon="5.658049" lat="51.127362"><ele>27.8</ele><time>2022-03-27T09:21:36.000Z</time></trkpt><trkpt lon="5.658138" lat="51.127401"><ele>27.8</ele><time>2022-03-27T09:21:37.000Z</time></trkpt><trkpt lon="5.658224" lat="51.127443"><ele>27.6</ele><time>2022-03-27T09:21:38.000Z</time></trkpt><trkpt lon="5.658312" lat="51.127485"><ele>27.6</ele><time>2022-03-27T09:21:39.000Z</time></trkpt><trkpt lon="5.658402" lat="51.127527"><ele>27.6</ele><time>2022-03-27T09:21:40.000Z</time></trkpt><trkpt lon="5.658491" lat="51.127569"><ele>27.6</ele><time>2022-03-27T09:21:41.000Z</time></trkpt><trkpt lon="5.658571" lat="51.127609"><ele>27.6</ele><time>2022-03-27T09:21:42.000Z</time></trkpt><trkpt lon="5.658674" lat="51.127657"><ele>27.8</ele><time>2022-03-27T09:21:43.000Z</time></trkpt><trkpt lon="5.658762" lat="51.127702"><ele>27.8</ele><time>2022-03-27T09:21:44.000Z</time></trkpt><trkpt lon="5.658852" lat="51.127744"><ele>27.6</ele><time>2022-03-27T09:21:45.000Z</time></trkpt><trkpt lon="5.658942" lat="51.127794"><ele>27.6</ele><time>2022-03-27T09:21:46.000Z</time></trkpt><trkpt lon="5.659029" lat="51.127835"><ele>27.8</ele><time>2022-03-27T09:21:47.000Z</time></trkpt><trkpt lon="5.659121" lat="51.127877"><ele>27.8</ele><time>2022-03-27T09:21:48.000Z</time></trkpt><trkpt lon="5.659213" lat="51.12792"><ele>28</ele><time>2022-03-27T09:21:49.000Z</time></trkpt><trkpt lon="5.659301" lat="51.12796"><ele>28</ele><time>2022-03-27T09:21:50.000Z</time></trkpt><trkpt lon="5.659391" lat="51.128007"><ele>27.8</ele><time>2022-03-27T09:21:51.000Z</time></trkpt><trkpt lon="5.659473" lat="51.128049"><ele>27.6</ele><time>2022-03-27T09:21:52.000Z</time></trkpt><trkpt lon="5.65956" lat="51.128095"><ele>27.8</ele><time>2022-03-27T09:21:53.000Z</time></trkpt><trkpt lon="5.659653" lat="51.128137"><ele>27.6</ele><time>2022-03-27T09:21:54.000Z</time></trkpt><trkpt lon="5.659752" lat="51.128172"><ele>27.8</ele><time>2022-03-27T09:21:55.000Z</time></trkpt><trkpt lon="5.659847" lat="51.12821"><ele>27.8</ele><time>2022-03-27T09:21:56.000Z</time></trkpt><trkpt lon="5.659945" lat="51.128248"><ele>27.8</ele><time>2022-03-27T09:21:57.000Z</time></trkpt><trkpt lon="5.660041" lat="51.128283"><ele>27.8</ele><time>2022-03-27T09:21:58.000Z</time></trkpt><trkpt lon="5.66014" lat="51.128313"><ele>28</ele><time>2022-03-27T09:21:59.000Z</time></trkpt><trkpt lon="5.660244" lat="51.128347"><ele>28</ele><time>2022-03-27T09:22:00.000Z</time></trkpt><trkpt lon="5.660347" lat="51.128378"><ele>28</ele><time>2022-03-27T09:22:01.000Z</time></trkpt><trkpt lon="5.660452" lat="51.128405"><ele>28</ele><time>2022-03-27T09:22:02.000Z</time></trkpt><trkpt lon="5.660551" lat="51.128435"><ele>28.2</ele><time>2022-03-27T09:22:03.000Z</time></trkpt><trkpt lon="5.660653" lat="51.128462"><ele>28</ele><time>2022-03-27T09:22:04.000Z</time></trkpt><trkpt lon="5.660757" lat="51.128489"><ele>28</ele><time>2022-03-27T09:22:05.000Z</time></trkpt><trkpt lon="5.660864" lat="51.128512"><ele>28</ele><time>2022-03-27T09:22:06.000Z</time></trkpt><trkpt lon="5.660973" lat="51.128535"><ele>28.2</ele><time>2022-03-27T09:22:07.000Z</time></trkpt><trkpt lon="5.661081" lat="51.128554"><ele>28.2</ele><time>2022-03-27T09:22:08.000Z</time></trkpt><trkpt lon="5.661192" lat="51.128573"><ele>28.2</ele><time>2022-03-27T09:22:09.000Z</time></trkpt><trkpt lon="5.661305" lat="51.128592"><ele>28.4</ele><time>2022-03-27T09:22:10.000Z</time></trkpt><trkpt lon="5.661412" lat="51.128608"><ele>28.4</ele><time>2022-03-27T09:22:11.000Z</time></trkpt><trkpt lon="5.661504" lat="51.12862"><ele>28.2</ele><time>2022-03-27T09:22:12.000Z</time></trkpt><trkpt lon="5.661633" lat="51.128642"><ele>28.4</ele><time>2022-03-27T09:22:13.000Z</time></trkpt><trkpt lon="5.661748" lat="51.128658"><ele>28.4</ele><time>2022-03-27T09:22:14.000Z</time></trkpt><trkpt lon="5.661863" lat="51.128673"><ele>28.2</ele><time>2022-03-27T09:22:15.000Z</time></trkpt><trkpt lon="5.661973" lat="51.128692"><ele>28.4</ele><time>2022-03-27T09:22:16.000Z</time></trkpt><trkpt lon="5.662084" lat="51.128707"><ele>28.4</ele><time>2022-03-27T09:22:17.000Z</time></trkpt><trkpt lon="5.66219" lat="51.128722"><ele>28.4</ele><time>2022-03-27T09:22:18.000Z</time></trkpt><trkpt lon="5.662297" lat="51.128738"><ele>28.6</ele><time>2022-03-27T09:22:19.000Z</time></trkpt><trkpt lon="5.662403" lat="51.128753"><ele>28.6</ele><time>2022-03-27T09:22:20.000Z</time></trkpt><trkpt lon="5.66251" lat="51.128772"><ele>28.6</ele><time>2022-03-27T09:22:21.000Z</time></trkpt><trkpt lon="5.662615" lat="51.128784"><ele>28.6</ele><time>2022-03-27T09:22:22.000Z</time></trkpt><trkpt lon="5.662715" lat="51.128799"><ele>28.4</ele><time>2022-03-27T09:22:23.000Z</time></trkpt><trkpt lon="5.662811" lat="51.128814"><ele>28.4</ele><time>2022-03-27T09:22:24.000Z</time></trkpt><trkpt lon="5.662901" lat="51.128829"><ele>28.2</ele><time>2022-03-27T09:22:25.000Z</time></trkpt><trkpt lon="5.662986" lat="51.128844"><ele>28.2</ele><time>2022-03-27T09:22:26.000Z</time></trkpt><trkpt lon="5.663072" lat="51.128856"><ele>28.2</ele><time>2022-03-27T09:22:27.000Z</time></trkpt><trkpt lon="5.663151" lat="51.128867"><ele>28.2</ele><time>2022-03-27T09:22:28.000Z</time></trkpt><trkpt lon="5.663224" lat="51.128857"><ele>28.4</ele><time>2022-03-27T09:22:29.000Z</time></trkpt><trkpt lon="5.663287" lat="51.128839"><ele>28.4</ele><time>2022-03-27T09:22:30.000Z</time></trkpt><trkpt lon="5.663312" lat="51.128802"><ele>28.4</ele><time>2022-03-27T09:22:31.000Z</time></trkpt><trkpt lon="5.663324" lat="51.128753"><ele>28.4</ele><time>2022-03-27T09:22:32.000Z</time></trkpt><trkpt lon="5.663323" lat="51.128696"><ele>28.2</ele><time>2022-03-27T09:22:33.000Z</time></trkpt><trkpt lon="5.663302" lat="51.128634"><ele>28.2</ele><time>2022-03-27T09:22:34.000Z</time></trkpt><trkpt lon="5.663269" lat="51.128563"><ele>28.2</ele><time>2022-03-27T09:22:35.000Z</time></trkpt><trkpt lon="5.663232" lat="51.128494"><ele>28.2</ele><time>2022-03-27T09:22:36.000Z</time></trkpt><trkpt lon="5.663197" lat="51.128421"><ele>28.2</ele><time>2022-03-27T09:22:37.000Z</time></trkpt><trkpt lon="5.663171" lat="51.128349"><ele>28.2</ele><time>2022-03-27T09:22:38.000Z</time></trkpt><trkpt lon="5.663143" lat="51.128277"><ele>28.2</ele><time>2022-03-27T09:22:39.000Z</time></trkpt><trkpt lon="5.663102" lat="51.12821"><ele>28</ele><time>2022-03-27T09:22:40.000Z</time></trkpt><trkpt lon="5.663059" lat="51.128139"><ele>28</ele><time>2022-03-27T09:22:41.000Z</time></trkpt><trkpt lon="5.663018" lat="51.128076"><ele>28</ele><time>2022-03-27T09:22:42.000Z</time></trkpt><trkpt lon="5.662982" lat="51.128009"><ele>28</ele><time>2022-03-27T09:22:43.000Z</time></trkpt><trkpt lon="5.662942" lat="51.127944"><ele>27.8</ele><time>2022-03-27T09:22:44.000Z</time></trkpt><trkpt lon="5.662912" lat="51.127884"><ele>27.8</ele><time>2022-03-27T09:22:45.000Z</time></trkpt><trkpt lon="5.662915" lat="51.127816"><ele>27.8</ele><time>2022-03-27T09:22:46.000Z</time></trkpt><trkpt lon="5.662939" lat="51.12775"><ele>27.8</ele><time>2022-03-27T09:22:47.000Z</time></trkpt><trkpt lon="5.662973" lat="51.127689"><ele>27.6</ele><time>2022-03-27T09:22:48.000Z</time></trkpt><trkpt lon="5.663009" lat="51.127628"><ele>27.6</ele><time>2022-03-27T09:22:49.000Z</time></trkpt><trkpt lon="5.663049" lat="51.127567"><ele>27.6</ele><time>2022-03-27T09:22:50.000Z</time></trkpt><trkpt lon="5.663089" lat="51.127509"><ele>27.6</ele><time>2022-03-27T09:22:51.000Z</time></trkpt><trkpt lon="5.663124" lat="51.127445"><ele>27.6</ele><time>2022-03-27T09:22:52.000Z</time></trkpt><trkpt lon="5.663163" lat="51.127376"><ele>27.6</ele><time>2022-03-27T09:22:53.000Z</time></trkpt><trkpt lon="5.663209" lat="51.127305"><ele>27.6</ele><time>2022-03-27T09:22:54.000Z</time></trkpt><trkpt lon="5.663266" lat="51.127247"><ele>27.6</ele><time>2022-03-27T09:22:55.000Z</time></trkpt><trkpt lon="5.663337" lat="51.127193"><ele>27.6</ele><time>2022-03-27T09:22:56.000Z</time></trkpt><trkpt lon="5.663416" lat="51.127148"><ele>27.6</ele><time>2022-03-27T09:22:57.000Z</time></trkpt><trkpt lon="5.663514" lat="51.127111"><ele>27.6</ele><time>2022-03-27T09:22:58.000Z</time></trkpt><trkpt lon="5.663614" lat="51.127082"><ele>27.4</ele><time>2022-03-27T09:22:59.000Z</time></trkpt><trkpt lon="5.663729" lat="51.127061"><ele>27.4</ele><time>2022-03-27T09:23:00.000Z</time></trkpt><trkpt lon="5.663844" lat="51.127053"><ele>27.6</ele><time>2022-03-27T09:23:01.000Z</time></trkpt><trkpt lon="5.663961" lat="51.127052"><ele>27.6</ele><time>2022-03-27T09:23:02.000Z</time></trkpt><trkpt lon="5.664077" lat="51.127052"><ele>27.6</ele><time>2022-03-27T09:23:03.000Z</time></trkpt><trkpt lon="5.664192" lat="51.127056"><ele>27.6</ele><time>2022-03-27T09:23:04.000Z</time></trkpt><trkpt lon="5.664306" lat="51.12706"><ele>27.4</ele><time>2022-03-27T09:23:05.000Z</time></trkpt><trkpt lon="5.664422" lat="51.127067"><ele>27.6</ele><time>2022-03-27T09:23:06.000Z</time></trkpt><trkpt lon="5.664534" lat="51.127075"><ele>27.6</ele><time>2022-03-27T09:23:07.000Z</time></trkpt><trkpt lon="5.664651" lat="51.127082"><ele>27.6</ele><time>2022-03-27T09:23:08.000Z</time></trkpt><trkpt lon="5.664761" lat="51.12709"><ele>27.6</ele><time>2022-03-27T09:23:09.000Z</time></trkpt><trkpt lon="5.664876" lat="51.127098"><ele>27.6</ele><time>2022-03-27T09:23:10.000Z</time></trkpt><trkpt lon="5.664988" lat="51.127105"><ele>27.6</ele><time>2022-03-27T09:23:11.000Z</time></trkpt><trkpt lon="5.665098" lat="51.127113"><ele>27.6</ele><time>2022-03-27T09:23:12.000Z</time></trkpt><trkpt lon="5.66521" lat="51.127124"><ele>27.6</ele><time>2022-03-27T09:23:13.000Z</time></trkpt><trkpt lon="5.665319" lat="51.127136"><ele>27.4</ele><time>2022-03-27T09:23:14.000Z</time></trkpt><trkpt lon="5.665429" lat="51.127151"><ele>27.6</ele><time>2022-03-27T09:23:15.000Z</time></trkpt><trkpt lon="5.665533" lat="51.127166"><ele>27.4</ele><time>2022-03-27T09:23:16.000Z</time></trkpt><trkpt lon="5.665637" lat="51.127192"><ele>27.6</ele><time>2022-03-27T09:23:17.000Z</time></trkpt><trkpt lon="5.66574" lat="51.127215"><ele>27.6</ele><time>2022-03-27T09:23:18.000Z</time></trkpt><trkpt lon="5.665844" lat="51.127241"><ele>27.6</ele><time>2022-03-27T09:23:19.000Z</time></trkpt><trkpt lon="5.665947" lat="51.127272"><ele>27.4</ele><time>2022-03-27T09:23:20.000Z</time></trkpt><trkpt lon="5.666046" lat="51.127299"><ele>27.4</ele><time>2022-03-27T09:23:21.000Z</time></trkpt><trkpt lon="5.666146" lat="51.127329"><ele>27.4</ele><time>2022-03-27T09:23:22.000Z</time></trkpt><trkpt lon="5.666248" lat="51.127363"><ele>27.4</ele><time>2022-03-27T09:23:23.000Z</time></trkpt><trkpt lon="5.666345" lat="51.127398"><ele>27.4</ele><time>2022-03-27T09:23:24.000Z</time></trkpt><trkpt lon="5.666438" lat="51.127435"><ele>27.4</ele><time>2022-03-27T09:23:25.000Z</time></trkpt><trkpt lon="5.666531" lat="51.127473"><ele>27.4</ele><time>2022-03-27T09:23:26.000Z</time></trkpt><trkpt lon="5.666624" lat="51.127516"><ele>27.4</ele><time>2022-03-27T09:23:27.000Z</time></trkpt><trkpt lon="5.666712" lat="51.127561"><ele>27.4</ele><time>2022-03-27T09:23:28.000Z</time></trkpt><trkpt lon="5.666797" lat="51.127603"><ele>27.4</ele><time>2022-03-27T09:23:29.000Z</time></trkpt><trkpt lon="5.66688" lat="51.127648"><ele>27.4</ele><time>2022-03-27T09:23:30.000Z</time></trkpt><trkpt lon="5.666964" lat="51.127694"><ele>27.6</ele><time>2022-03-27T09:23:31.000Z</time></trkpt><trkpt lon="5.667047" lat="51.12774"><ele>27.6</ele><time>2022-03-27T09:23:32.000Z</time></trkpt><trkpt lon="5.667127" lat="51.127786"><ele>27.4</ele><time>2022-03-27T09:23:33.000Z</time></trkpt><trkpt lon="5.667205" lat="51.127831"><ele>27.4</ele><time>2022-03-27T09:23:34.000Z</time></trkpt><trkpt lon="5.667288" lat="51.127877"><ele>27.2</ele><time>2022-03-27T09:23:35.000Z</time></trkpt><trkpt lon="5.667371" lat="51.127923"><ele>27</ele><time>2022-03-27T09:23:36.000Z</time></trkpt><trkpt lon="5.667454" lat="51.127969"><ele>27</ele><time>2022-03-27T09:23:37.000Z</time></trkpt><trkpt lon="5.667537" lat="51.128015"><ele>26.8</ele><time>2022-03-27T09:23:38.000Z</time></trkpt><trkpt lon="5.667618" lat="51.12806"><ele>26.8</ele><time>2022-03-27T09:23:39.000Z</time></trkpt><trkpt lon="5.667704" lat="51.128107"><ele>27</ele><time>2022-03-27T09:23:40.000Z</time></trkpt><trkpt lon="5.667788" lat="51.128152"><ele>27</ele><time>2022-03-27T09:23:41.000Z</time></trkpt><trkpt lon="5.667872" lat="51.128198"><ele>27.2</ele><time>2022-03-27T09:23:42.000Z</time></trkpt><trkpt lon="5.667954" lat="51.128248"><ele>27</ele><time>2022-03-27T09:23:43.000Z</time></trkpt><trkpt lon="5.668033" lat="51.128294"><ele>27.2</ele><time>2022-03-27T09:23:44.000Z</time></trkpt><trkpt lon="5.668116" lat="51.128339"><ele>27.2</ele><time>2022-03-27T09:23:45.000Z</time></trkpt><trkpt lon="5.668193" lat="51.128385"><ele>27.4</ele><time>2022-03-27T09:23:46.000Z</time></trkpt><trkpt lon="5.668272" lat="51.128431"><ele>27.4</ele><time>2022-03-27T09:23:47.000Z</time></trkpt><trkpt lon="5.668354" lat="51.128473"><ele>27.4</ele><time>2022-03-27T09:23:48.000Z</time></trkpt><trkpt lon="5.66843" lat="51.128522"><ele>27.4</ele><time>2022-03-27T09:23:49.000Z</time></trkpt><trkpt lon="5.668514" lat="51.128568"><ele>27.4</ele><time>2022-03-27T09:23:50.000Z</time></trkpt><trkpt lon="5.668596" lat="51.128618"><ele>27.2</ele><time>2022-03-27T09:23:51.000Z</time></trkpt><trkpt lon="5.668678" lat="51.128663"><ele>27.2</ele><time>2022-03-27T09:23:52.000Z</time></trkpt><trkpt lon="5.668762" lat="51.128709"><ele>27</ele><time>2022-03-27T09:23:53.000Z</time></trkpt><trkpt lon="5.668846" lat="51.128759"><ele>27</ele><time>2022-03-27T09:23:54.000Z</time></trkpt><trkpt lon="5.668929" lat="51.128805"><ele>27.2</ele><time>2022-03-27T09:23:55.000Z</time></trkpt><trkpt lon="5.669013" lat="51.128854"><ele>27</ele><time>2022-03-27T09:23:56.000Z</time></trkpt><trkpt lon="5.669094" lat="51.1289"><ele>27</ele><time>2022-03-27T09:23:57.000Z</time></trkpt><trkpt lon="5.669178" lat="51.128946"><ele>27</ele><time>2022-03-27T09:23:58.000Z</time></trkpt><trkpt lon="5.66926" lat="51.128992"><ele>27</ele><time>2022-03-27T09:23:59.000Z</time></trkpt><trkpt lon="5.669343" lat="51.129037"><ele>27</ele><time>2022-03-27T09:24:00.000Z</time></trkpt><trkpt lon="5.669426" lat="51.12908"><ele>27.2</ele><time>2022-03-27T09:24:01.000Z</time></trkpt><trkpt lon="5.669506" lat="51.129129"><ele>27.2</ele><time>2022-03-27T09:24:02.000Z</time></trkpt><trkpt lon="5.669583" lat="51.12917"><ele>27</ele><time>2022-03-27T09:24:03.000Z</time></trkpt><trkpt lon="5.669665" lat="51.12922"><ele>27</ele><time>2022-03-27T09:24:04.000Z</time></trkpt><trkpt lon="5.669746" lat="51.129266"><ele>27.2</ele><time>2022-03-27T09:24:05.000Z</time></trkpt><trkpt lon="5.669826" lat="51.129312"><ele>27.2</ele><time>2022-03-27T09:24:06.000Z</time></trkpt><trkpt lon="5.669906" lat="51.129358"><ele>27.2</ele><time>2022-03-27T09:24:07.000Z</time></trkpt><trkpt lon="5.669987" lat="51.1294"><ele>27</ele><time>2022-03-27T09:24:08.000Z</time></trkpt><trkpt lon="5.670068" lat="51.129446"><ele>27</ele><time>2022-03-27T09:24:09.000Z</time></trkpt><trkpt lon="5.670147" lat="51.129491"><ele>27.2</ele><time>2022-03-27T09:24:10.000Z</time></trkpt><trkpt lon="5.670228" lat="51.129537"><ele>27.2</ele><time>2022-03-27T09:24:11.000Z</time></trkpt><trkpt lon="5.670308" lat="51.129583"><ele>27.2</ele><time>2022-03-27T09:24:12.000Z</time></trkpt><trkpt lon="5.67039" lat="51.129633"><ele>27.2</ele><time>2022-03-27T09:24:13.000Z</time></trkpt><trkpt lon="5.670473" lat="51.129675"><ele>27.2</ele><time>2022-03-27T09:24:14.000Z</time></trkpt><trkpt lon="5.670558" lat="51.12972"><ele>27</ele><time>2022-03-27T09:24:15.000Z</time></trkpt><trkpt lon="5.670642" lat="51.129766"><ele>27</ele><time>2022-03-27T09:24:16.000Z</time></trkpt><trkpt lon="5.670731" lat="51.129804"><ele>27</ele><time>2022-03-27T09:24:17.000Z</time></trkpt><trkpt lon="5.670827" lat="51.129843"><ele>27</ele><time>2022-03-27T09:24:18.000Z</time></trkpt><trkpt lon="5.670924" lat="51.129873"><ele>27</ele><time>2022-03-27T09:24:19.000Z</time></trkpt><trkpt lon="5.671024" lat="51.1299"><ele>27</ele><time>2022-03-27T09:24:20.000Z</time></trkpt><trkpt lon="5.671128" lat="51.129924"><ele>27</ele><time>2022-03-27T09:24:21.000Z</time></trkpt><trkpt lon="5.671232" lat="51.129946"><ele>27</ele><time>2022-03-27T09:24:22.000Z</time></trkpt><trkpt lon="5.671337" lat="51.129966"><ele>27</ele><time>2022-03-27T09:24:23.000Z</time></trkpt><trkpt lon="5.671441" lat="51.129988"><ele>27</ele><time>2022-03-27T09:24:24.000Z</time></trkpt><trkpt lon="5.671544" lat="51.130008"><ele>26.8</ele><time>2022-03-27T09:24:25.000Z</time></trkpt><trkpt lon="5.671649" lat="51.13003"><ele>26.8</ele><time>2022-03-27T09:24:26.000Z</time></trkpt><trkpt lon="5.671751" lat="51.13005"><ele>26.8</ele><time>2022-03-27T09:24:27.000Z</time></trkpt><trkpt lon="5.671853" lat="51.130068"><ele>26.8</ele><time>2022-03-27T09:24:28.000Z</time></trkpt><trkpt lon="5.671955" lat="51.13009"><ele>26.8</ele><time>2022-03-27T09:24:29.000Z</time></trkpt><trkpt lon="5.672062" lat="51.130111"><ele>26.8</ele><time>2022-03-27T09:24:30.000Z</time></trkpt><trkpt lon="5.672168" lat="51.130133"><ele>26.8</ele><time>2022-03-27T09:24:31.000Z</time></trkpt><trkpt lon="5.672271" lat="51.130156"><ele>26.8</ele><time>2022-03-27T09:24:32.000Z</time></trkpt><trkpt lon="5.672376" lat="51.130179"><ele>26.8</ele><time>2022-03-27T09:24:33.000Z</time></trkpt><trkpt lon="5.67248" lat="51.130202"><ele>26.8</ele><time>2022-03-27T09:24:34.000Z</time></trkpt><trkpt lon="5.672579" lat="51.130228"><ele>26.6</ele><time>2022-03-27T09:24:35.000Z</time></trkpt><trkpt lon="5.672678" lat="51.130259"><ele>26.6</ele><time>2022-03-27T09:24:36.000Z</time></trkpt><trkpt lon="5.672771" lat="51.130289"><ele>26.6</ele><time>2022-03-27T09:24:37.000Z</time></trkpt><trkpt lon="5.672863" lat="51.130323"><ele>26.8</ele><time>2022-03-27T09:24:38.000Z</time></trkpt><trkpt lon="5.672953" lat="51.130361"><ele>26.8</ele><time>2022-03-27T09:24:39.000Z</time></trkpt><trkpt lon="5.673042" lat="51.1304"><ele>26.8</ele><time>2022-03-27T09:24:40.000Z</time></trkpt><trkpt lon="5.673128" lat="51.130434"><ele>26.8</ele><time>2022-03-27T09:24:41.000Z</time></trkpt><trkpt lon="5.673219" lat="51.130472"><ele>26.8</ele><time>2022-03-27T09:24:42.000Z</time></trkpt><trkpt lon="5.67331" lat="51.130511"><ele>26.8</ele><time>2022-03-27T09:24:43.000Z</time></trkpt><trkpt lon="5.6734" lat="51.130548"><ele>26.8</ele><time>2022-03-27T09:24:44.000Z</time></trkpt><trkpt lon="5.67349" lat="51.130587"><ele>26.8</ele><time>2022-03-27T09:24:45.000Z</time></trkpt><trkpt lon="5.67358" lat="51.130624"><ele>26.8</ele><time>2022-03-27T09:24:46.000Z</time></trkpt><trkpt lon="5.673671" lat="51.130663"><ele>26.8</ele><time>2022-03-27T09:24:47.000Z</time></trkpt><trkpt lon="5.673759" lat="51.130704"><ele>26.8</ele><time>2022-03-27T09:24:48.000Z</time></trkpt><trkpt lon="5.673849" lat="51.130743"><ele>26.8</ele><time>2022-03-27T09:24:49.000Z</time></trkpt><trkpt lon="5.673938" lat="51.130781"><ele>26.8</ele><time>2022-03-27T09:24:50.000Z</time></trkpt><trkpt lon="5.674029" lat="51.130816"><ele>26.8</ele><time>2022-03-27T09:24:51.000Z</time></trkpt><trkpt lon="5.674116" lat="51.130854"><ele>26.8</ele><time>2022-03-27T09:24:52.000Z</time></trkpt><trkpt lon="5.674202" lat="51.130892"><ele>26.8</ele><time>2022-03-27T09:24:53.000Z</time></trkpt><trkpt lon="5.674289" lat="51.13093"><ele>26.8</ele><time>2022-03-27T09:24:54.000Z</time></trkpt><trkpt lon="5.674377" lat="51.130965"><ele>26.8</ele><time>2022-03-27T09:24:55.000Z</time></trkpt><trkpt lon="5.674464" lat="51.131001"><ele>26.8</ele><time>2022-03-27T09:24:56.000Z</time></trkpt><trkpt lon="5.674557" lat="51.131041"><ele>26.8</ele><time>2022-03-27T09:24:57.000Z</time></trkpt><trkpt lon="5.674646" lat="51.131079"><ele>26.8</ele><time>2022-03-27T09:24:58.000Z</time></trkpt><trkpt lon="5.674734" lat="51.131116"><ele>26.8</ele><time>2022-03-27T09:24:59.000Z</time></trkpt><trkpt lon="5.674824" lat="51.131155"><ele>26.6</ele><time>2022-03-27T09:25:00.000Z</time></trkpt><trkpt lon="5.674914" lat="51.131193"><ele>26.6</ele><time>2022-03-27T09:25:01.000Z</time></trkpt><trkpt lon="5.675001" lat="51.131231"><ele>26.6</ele><time>2022-03-27T09:25:02.000Z</time></trkpt><trkpt lon="5.675091" lat="51.131273"><ele>26.8</ele><time>2022-03-27T09:25:03.000Z</time></trkpt><trkpt lon="5.675176" lat="51.13131"><ele>26.8</ele><time>2022-03-27T09:25:04.000Z</time></trkpt><trkpt lon="5.675265" lat="51.131349"><ele>26.8</ele><time>2022-03-27T09:25:05.000Z</time></trkpt><trkpt lon="5.675354" lat="51.131388"><ele>26.8</ele><time>2022-03-27T09:25:06.000Z</time></trkpt><trkpt lon="5.675443" lat="51.131426"><ele>26.8</ele><time>2022-03-27T09:25:07.000Z</time></trkpt><trkpt lon="5.675531" lat="51.131459"><ele>26.8</ele><time>2022-03-27T09:25:08.000Z</time></trkpt><trkpt lon="5.675622" lat="51.131498"><ele>26.8</ele><time>2022-03-27T09:25:09.000Z</time></trkpt><trkpt lon="5.675714" lat="51.131536"><ele>26.8</ele><time>2022-03-27T09:25:10.000Z</time></trkpt><trkpt lon="5.675804" lat="51.131574"><ele>26.8</ele><time>2022-03-27T09:25:11.000Z</time></trkpt><trkpt lon="5.675895" lat="51.131616"><ele>26.8</ele><time>2022-03-27T09:25:12.000Z</time></trkpt><trkpt lon="5.675988" lat="51.131655"><ele>26.6</ele><time>2022-03-27T09:25:13.000Z</time></trkpt><trkpt lon="5.676078" lat="51.131693"><ele>26.6</ele><time>2022-03-27T09:25:14.000Z</time></trkpt><trkpt lon="5.676169" lat="51.131731"><ele>26.6</ele><time>2022-03-27T09:25:15.000Z</time></trkpt><trkpt lon="5.676258" lat="51.131769"><ele>26.8</ele><time>2022-03-27T09:25:16.000Z</time></trkpt><trkpt lon="5.676347" lat="51.131804"><ele>26.8</ele><time>2022-03-27T09:25:17.000Z</time></trkpt><trkpt lon="5.676434" lat="51.131841"><ele>26.8</ele><time>2022-03-27T09:25:18.000Z</time></trkpt><trkpt lon="5.676522" lat="51.131875"><ele>26.8</ele><time>2022-03-27T09:25:19.000Z</time></trkpt><trkpt lon="5.676612" lat="51.131914"><ele>26.8</ele><time>2022-03-27T09:25:20.000Z</time></trkpt><trkpt lon="5.676698" lat="51.131948"><ele>26.8</ele><time>2022-03-27T09:25:21.000Z</time></trkpt><trkpt lon="5.676788" lat="51.131983"><ele>26.8</ele><time>2022-03-27T09:25:22.000Z</time></trkpt><trkpt lon="5.67688" lat="51.132017"><ele>26.8</ele><time>2022-03-27T09:25:23.000Z</time></trkpt><trkpt lon="5.676975" lat="51.132051"><ele>26.8</ele><time>2022-03-27T09:25:24.000Z</time></trkpt><trkpt lon="5.677065" lat="51.132085"><ele>26.8</ele><time>2022-03-27T09:25:25.000Z</time></trkpt><trkpt lon="5.67716" lat="51.13212"><ele>26.8</ele><time>2022-03-27T09:25:26.000Z</time></trkpt><trkpt lon="5.677254" lat="51.132151"><ele>26.6</ele><time>2022-03-27T09:25:27.000Z</time></trkpt><trkpt lon="5.677346" lat="51.132185"><ele>26.8</ele><time>2022-03-27T09:25:28.000Z</time></trkpt><trkpt lon="5.67744" lat="51.132212"><ele>26.8</ele><time>2022-03-27T09:25:29.000Z</time></trkpt><trkpt lon="5.677537" lat="51.132246"><ele>26.8</ele><time>2022-03-27T09:25:30.000Z</time></trkpt><trkpt lon="5.677633" lat="51.132277"><ele>26.8</ele><time>2022-03-27T09:25:31.000Z</time></trkpt><trkpt lon="5.677728" lat="51.132304"><ele>26.8</ele><time>2022-03-27T09:25:32.000Z</time></trkpt><trkpt lon="5.677822" lat="51.132334"><ele>26.8</ele><time>2022-03-27T09:25:33.000Z</time></trkpt><trkpt lon="5.677916" lat="51.132361"><ele>26.8</ele><time>2022-03-27T09:25:34.000Z</time></trkpt><trkpt lon="5.678009" lat="51.132387"><ele>26.8</ele><time>2022-03-27T09:25:35.000Z</time></trkpt><trkpt lon="5.678104" lat="51.132415"><ele>26.8</ele><time>2022-03-27T09:25:36.000Z</time></trkpt><trkpt lon="5.678197" lat="51.132441"><ele>26.8</ele><time>2022-03-27T09:25:37.000Z</time></trkpt><trkpt lon="5.67829" lat="51.132468"><ele>26.8</ele><time>2022-03-27T09:25:38.000Z</time></trkpt><trkpt lon="5.678382" lat="51.132491"><ele>27</ele><time>2022-03-27T09:25:39.000Z</time></trkpt><trkpt lon="5.678471" lat="51.132517"><ele>27</ele><time>2022-03-27T09:25:40.000Z</time></trkpt><trkpt lon="5.678562" lat="51.13254"><ele>27</ele><time>2022-03-27T09:25:41.000Z</time></trkpt><trkpt lon="5.678655" lat="51.132567"><ele>27</ele><time>2022-03-27T09:25:42.000Z</time></trkpt><trkpt lon="5.678748" lat="51.13259"><ele>27</ele><time>2022-03-27T09:25:43.000Z</time></trkpt><trkpt lon="5.678839" lat="51.132613"><ele>27.2</ele><time>2022-03-27T09:25:44.000Z</time></trkpt><trkpt lon="5.678934" lat="51.13264"><ele>27.2</ele><time>2022-03-27T09:25:45.000Z</time></trkpt><trkpt lon="5.679028" lat="51.132663"><ele>27.2</ele><time>2022-03-27T09:25:46.000Z</time></trkpt><trkpt lon="5.679122" lat="51.132685"><ele>27.2</ele><time>2022-03-27T09:25:47.000Z</time></trkpt><trkpt lon="5.679222" lat="51.132708"><ele>27.2</ele><time>2022-03-27T09:25:48.000Z</time></trkpt><trkpt lon="5.679322" lat="51.132727"><ele>27</ele><time>2022-03-27T09:25:49.000Z</time></trkpt><trkpt lon="5.679426" lat="51.13275"><ele>27</ele><time>2022-03-27T09:25:50.000Z</time></trkpt><trkpt lon="5.67953" lat="51.13277"><ele>27</ele><time>2022-03-27T09:25:51.000Z</time></trkpt><trkpt lon="5.67963" lat="51.132792"><ele>27.2</ele><time>2022-03-27T09:25:52.000Z</time></trkpt><trkpt lon="5.679737" lat="51.132815"><ele>27.2</ele><time>2022-03-27T09:25:53.000Z</time></trkpt><trkpt lon="5.679838" lat="51.132834"><ele>27.2</ele><time>2022-03-27T09:25:54.000Z</time></trkpt><trkpt lon="5.679942" lat="51.132857"><ele>27.2</ele><time>2022-03-27T09:25:55.000Z</time></trkpt><trkpt lon="5.680042" lat="51.132876"><ele>27.2</ele><time>2022-03-27T09:25:56.000Z</time></trkpt><trkpt lon="5.680143" lat="51.132899"><ele>27.2</ele><time>2022-03-27T09:25:57.000Z</time></trkpt><trkpt lon="5.680245" lat="51.132918"><ele>27.2</ele><time>2022-03-27T09:25:58.000Z</time></trkpt><trkpt lon="5.680346" lat="51.132937"><ele>27.2</ele><time>2022-03-27T09:25:59.000Z</time></trkpt><trkpt lon="5.68045" lat="51.132964"><ele>27.2</ele><time>2022-03-27T09:26:00.000Z</time></trkpt><trkpt lon="5.680554" lat="51.132987"><ele>27.2</ele><time>2022-03-27T09:26:01.000Z</time></trkpt><trkpt lon="5.680657" lat="51.13301"><ele>27.4</ele><time>2022-03-27T09:26:02.000Z</time></trkpt><trkpt lon="5.680763" lat="51.133029"><ele>27.2</ele><time>2022-03-27T09:26:03.000Z</time></trkpt><trkpt lon="5.680866" lat="51.133048"><ele>27.2</ele><time>2022-03-27T09:26:04.000Z</time></trkpt><trkpt lon="5.680967" lat="51.13307"><ele>27.2</ele><time>2022-03-27T09:26:05.000Z</time></trkpt><trkpt lon="5.681068" lat="51.13309"><ele>27.2</ele><time>2022-03-27T09:26:06.000Z</time></trkpt><trkpt lon="5.68117" lat="51.133109"><ele>27.2</ele><time>2022-03-27T09:26:07.000Z</time></trkpt><trkpt lon="5.681272" lat="51.133132"><ele>27.2</ele><time>2022-03-27T09:26:08.000Z</time></trkpt><trkpt lon="5.681373" lat="51.133151"><ele>27.2</ele><time>2022-03-27T09:26:09.000Z</time></trkpt><trkpt lon="5.681476" lat="51.13317"><ele>27.2</ele><time>2022-03-27T09:26:10.000Z</time></trkpt><trkpt lon="5.681578" lat="51.133189"><ele>27</ele><time>2022-03-27T09:26:11.000Z</time></trkpt><trkpt lon="5.681677" lat="51.133208"><ele>27</ele><time>2022-03-27T09:26:12.000Z</time></trkpt><trkpt lon="5.681774" lat="51.133227"><ele>27</ele><time>2022-03-27T09:26:13.000Z</time></trkpt><trkpt lon="5.681872" lat="51.133246"><ele>27</ele><time>2022-03-27T09:26:14.000Z</time></trkpt><trkpt lon="5.681973" lat="51.133266"><ele>27</ele><time>2022-03-27T09:26:15.000Z</time></trkpt><trkpt lon="5.682073" lat="51.133288"><ele>27</ele><time>2022-03-27T09:26:16.000Z</time></trkpt><trkpt lon="5.682176" lat="51.133307"><ele>27</ele><time>2022-03-27T09:26:17.000Z</time></trkpt><trkpt lon="5.682281" lat="51.13333"><ele>27</ele><time>2022-03-27T09:26:18.000Z</time></trkpt><trkpt lon="5.682386" lat="51.133353"><ele>27</ele><time>2022-03-27T09:26:19.000Z</time></trkpt><trkpt lon="5.682488" lat="51.133372"><ele>27</ele><time>2022-03-27T09:26:20.000Z</time></trkpt><trkpt lon="5.682587" lat="51.133395"><ele>26.8</ele><time>2022-03-27T09:26:21.000Z</time></trkpt><trkpt lon="5.682691" lat="51.133418"><ele>26.8</ele><time>2022-03-27T09:26:22.000Z</time></trkpt><trkpt lon="5.682793" lat="51.133441"><ele>26.8</ele><time>2022-03-27T09:26:23.000Z</time></trkpt><trkpt lon="5.682893" lat="51.133464"><ele>26.8</ele><time>2022-03-27T09:26:24.000Z</time></trkpt><trkpt lon="5.682992" lat="51.133483"><ele>26.8</ele><time>2022-03-27T09:26:25.000Z</time></trkpt><trkpt lon="5.683092" lat="51.133509"><ele>26.8</ele><time>2022-03-27T09:26:26.000Z</time></trkpt><trkpt lon="5.683188" lat="51.133543"><ele>26.8</ele><time>2022-03-27T09:26:27.000Z</time></trkpt><trkpt lon="5.683287" lat="51.133578"><ele>26.8</ele><time>2022-03-27T09:26:28.000Z</time></trkpt><trkpt lon="5.683379" lat="51.133619"><ele>26.6</ele><time>2022-03-27T09:26:29.000Z</time></trkpt><trkpt lon="5.68347" lat="51.133661"><ele>26.6</ele><time>2022-03-27T09:26:30.000Z</time></trkpt><trkpt lon="5.683557" lat="51.133703"><ele>26.6</ele><time>2022-03-27T09:26:31.000Z</time></trkpt><trkpt lon="5.683642" lat="51.133748"><ele>26.4</ele><time>2022-03-27T09:26:32.000Z</time></trkpt><trkpt lon="5.683724" lat="51.13379"><ele>26.4</ele><time>2022-03-27T09:26:33.000Z</time></trkpt><trkpt lon="5.683806" lat="51.133833"><ele>26.4</ele><time>2022-03-27T09:26:34.000Z</time></trkpt><trkpt lon="5.683885" lat="51.133878"><ele>26.4</ele><time>2022-03-27T09:26:35.000Z</time></trkpt><trkpt lon="5.683965" lat="51.13392"><ele>26.4</ele><time>2022-03-27T09:26:36.000Z</time></trkpt><trkpt lon="5.684041" lat="51.133966"><ele>26.4</ele><time>2022-03-27T09:26:37.000Z</time></trkpt><trkpt lon="5.684122" lat="51.134011"><ele>26.4</ele><time>2022-03-27T09:26:38.000Z</time></trkpt><trkpt lon="5.684204" lat="51.134053"><ele>26.4</ele><time>2022-03-27T09:26:39.000Z</time></trkpt><trkpt lon="5.684286" lat="51.134099"><ele>26.2</ele><time>2022-03-27T09:26:40.000Z</time></trkpt><trkpt lon="5.684367" lat="51.134138"><ele>26.2</ele><time>2022-03-27T09:26:41.000Z</time></trkpt><trkpt lon="5.684446" lat="51.13418"><ele>26.4</ele><time>2022-03-27T09:26:42.000Z</time></trkpt><trkpt lon="5.684526" lat="51.134222"><ele>26.4</ele><time>2022-03-27T09:26:43.000Z</time></trkpt><trkpt lon="5.684609" lat="51.134264"><ele>26.4</ele><time>2022-03-27T09:26:44.000Z</time></trkpt><trkpt lon="5.684691" lat="51.13431"><ele>26.4</ele><time>2022-03-27T09:26:45.000Z</time></trkpt><trkpt lon="5.684772" lat="51.134351"><ele>26.4</ele><time>2022-03-27T09:26:46.000Z</time></trkpt><trkpt lon="5.684852" lat="51.134397"><ele>26.4</ele><time>2022-03-27T09:26:47.000Z</time></trkpt><trkpt lon="5.684934" lat="51.134443"><ele>26.4</ele><time>2022-03-27T09:26:48.000Z</time></trkpt><trkpt lon="5.685014" lat="51.134488"><ele>26.6</ele><time>2022-03-27T09:26:49.000Z</time></trkpt><trkpt lon="5.685093" lat="51.13453"><ele>26.6</ele><time>2022-03-27T09:26:50.000Z</time></trkpt><trkpt lon="5.685173" lat="51.134573"><ele>26.4</ele><time>2022-03-27T09:26:51.000Z</time></trkpt><trkpt lon="5.685252" lat="51.134615"><ele>26.4</ele><time>2022-03-27T09:26:52.000Z</time></trkpt><trkpt lon="5.685333" lat="51.134657"><ele>26.4</ele><time>2022-03-27T09:26:53.000Z</time></trkpt><trkpt lon="5.685412" lat="51.134699"><ele>26.4</ele><time>2022-03-27T09:26:54.000Z</time></trkpt><trkpt lon="5.685492" lat="51.13474"><ele>26.6</ele><time>2022-03-27T09:26:55.000Z</time></trkpt><trkpt lon="5.685574" lat="51.134783"><ele>26.6</ele><time>2022-03-27T09:26:56.000Z</time></trkpt><trkpt lon="5.685653" lat="51.134824"><ele>26.6</ele><time>2022-03-27T09:26:57.000Z</time></trkpt><trkpt lon="5.685728" lat="51.134868"><ele>26.6</ele><time>2022-03-27T09:26:58.000Z</time></trkpt><trkpt lon="5.685806" lat="51.134911"><ele>26.6</ele><time>2022-03-27T09:26:59.000Z</time></trkpt><trkpt lon="5.685886" lat="51.134951"><ele>26.6</ele><time>2022-03-27T09:27:00.000Z</time></trkpt><trkpt lon="5.685965" lat="51.134996"><ele>26.6</ele><time>2022-03-27T09:27:01.000Z</time></trkpt><trkpt lon="5.686047" lat="51.135034"><ele>26.6</ele><time>2022-03-27T09:27:02.000Z</time></trkpt><trkpt lon="5.686128" lat="51.135079"><ele>26.4</ele><time>2022-03-27T09:27:03.000Z</time></trkpt><trkpt lon="5.686209" lat="51.135122"><ele>26.4</ele><time>2022-03-27T09:27:04.000Z</time></trkpt><trkpt lon="5.686288" lat="51.135164"><ele>26.4</ele><time>2022-03-27T09:27:05.000Z</time></trkpt><trkpt lon="5.686368" lat="51.135205"><ele>26.4</ele><time>2022-03-27T09:27:06.000Z</time></trkpt><trkpt lon="5.68645" lat="51.135248"><ele>26.4</ele><time>2022-03-27T09:27:07.000Z</time></trkpt><trkpt lon="5.68653" lat="51.135293"><ele>26.4</ele><time>2022-03-27T09:27:08.000Z</time></trkpt><trkpt lon="5.686613" lat="51.135339"><ele>26.4</ele><time>2022-03-27T09:27:09.000Z</time></trkpt><trkpt lon="5.686694" lat="51.135381"><ele>26.4</ele><time>2022-03-27T09:27:10.000Z</time></trkpt><trkpt lon="5.686776" lat="51.135423"><ele>26.4</ele><time>2022-03-27T09:27:11.000Z</time></trkpt><trkpt lon="5.686857" lat="51.135469"><ele>26.4</ele><time>2022-03-27T09:27:12.000Z</time></trkpt><trkpt lon="5.686936" lat="51.13551"><ele>26.2</ele><time>2022-03-27T09:27:13.000Z</time></trkpt><trkpt lon="5.68702" lat="51.13556"><ele>26.2</ele><time>2022-03-27T09:27:14.000Z</time></trkpt><trkpt lon="5.687104" lat="51.135603"><ele>26.2</ele><time>2022-03-27T09:27:15.000Z</time></trkpt><trkpt lon="5.687185" lat="51.135648"><ele>26.2</ele><time>2022-03-27T09:27:16.000Z</time></trkpt><trkpt lon="5.687266" lat="51.13569"><ele>26.2</ele><time>2022-03-27T09:27:17.000Z</time></trkpt><trkpt lon="5.687346" lat="51.135731"><ele>26.2</ele><time>2022-03-27T09:27:18.000Z</time></trkpt><trkpt lon="5.68743" lat="51.135774"><ele>26.2</ele><time>2022-03-27T09:27:19.000Z</time></trkpt><trkpt lon="5.687516" lat="51.135812"><ele>26.2</ele><time>2022-03-27T09:27:20.000Z</time></trkpt><trkpt lon="5.687606" lat="51.135851"><ele>26.2</ele><time>2022-03-27T09:27:21.000Z</time></trkpt><trkpt lon="5.687693" lat="51.135888"><ele>26.2</ele><time>2022-03-27T09:27:22.000Z</time></trkpt><trkpt lon="5.68778" lat="51.135926"><ele>26.4</ele><time>2022-03-27T09:27:23.000Z</time></trkpt><trkpt lon="5.687868" lat="51.135965"><ele>26.4</ele><time>2022-03-27T09:27:24.000Z</time></trkpt><trkpt lon="5.687959" lat="51.136003"><ele>26.4</ele><time>2022-03-27T09:27:25.000Z</time></trkpt><trkpt lon="5.688051" lat="51.136041"><ele>26.2</ele><time>2022-03-27T09:27:26.000Z</time></trkpt><trkpt lon="5.688141" lat="51.136079"><ele>26.4</ele><time>2022-03-27T09:27:27.000Z</time></trkpt><trkpt lon="5.68823" lat="51.136117"><ele>26.2</ele><time>2022-03-27T09:27:28.000Z</time></trkpt><trkpt lon="5.688321" lat="51.136156"><ele>26.2</ele><time>2022-03-27T09:27:29.000Z</time></trkpt><trkpt lon="5.688411" lat="51.13619"><ele>26.2</ele><time>2022-03-27T09:27:30.000Z</time></trkpt><trkpt lon="5.688498" lat="51.136232"><ele>26.2</ele><time>2022-03-27T09:27:31.000Z</time></trkpt><trkpt lon="5.688583" lat="51.136269"><ele>26.4</ele><time>2022-03-27T09:27:32.000Z</time></trkpt><trkpt lon="5.688675" lat="51.136308"><ele>26.2</ele><time>2022-03-27T09:27:33.000Z</time></trkpt><trkpt lon="5.688762" lat="51.136347"><ele>26.2</ele><time>2022-03-27T09:27:34.000Z</time></trkpt><trkpt lon="5.68885" lat="51.136385"><ele>26.2</ele><time>2022-03-27T09:27:35.000Z</time></trkpt><trkpt lon="5.688936" lat="51.136419"><ele>26.2</ele><time>2022-03-27T09:27:36.000Z</time></trkpt><trkpt lon="5.689026" lat="51.136457"><ele>26.2</ele><time>2022-03-27T09:27:37.000Z</time></trkpt><trkpt lon="5.689114" lat="51.136492"><ele>26.2</ele><time>2022-03-27T09:27:38.000Z</time></trkpt><trkpt lon="5.689203" lat="51.136529"><ele>26.2</ele><time>2022-03-27T09:27:39.000Z</time></trkpt><trkpt lon="5.68929" lat="51.136568"><ele>26</ele><time>2022-03-27T09:27:40.000Z</time></trkpt><trkpt lon="5.689375" lat="51.136602"><ele>26</ele><time>2022-03-27T09:27:41.000Z</time></trkpt><trkpt lon="5.689457" lat="51.13664"><ele>26</ele><time>2022-03-27T09:27:42.000Z</time></trkpt><trkpt lon="5.689541" lat="51.136678"><ele>26</ele><time>2022-03-27T09:27:43.000Z</time></trkpt><trkpt lon="5.689628" lat="51.136716"><ele>26.2</ele><time>2022-03-27T09:27:44.000Z</time></trkpt><trkpt lon="5.689715" lat="51.136755"><ele>26</ele><time>2022-03-27T09:27:45.000Z</time></trkpt><trkpt lon="5.689793" lat="51.136791"><ele>26</ele><time>2022-03-27T09:27:46.000Z</time></trkpt><trkpt lon="5.689882" lat="51.136831"><ele>26</ele><time>2022-03-27T09:27:47.000Z</time></trkpt><trkpt lon="5.689966" lat="51.136865"><ele>26</ele><time>2022-03-27T09:27:48.000Z</time></trkpt><trkpt lon="5.690052" lat="51.1369"><ele>26</ele><time>2022-03-27T09:27:49.000Z</time></trkpt><trkpt lon="5.690139" lat="51.13693"><ele>26</ele><time>2022-03-27T09:27:50.000Z</time></trkpt><trkpt lon="5.690231" lat="51.136961"><ele>25.8</ele><time>2022-03-27T09:27:51.000Z</time></trkpt><trkpt lon="5.690331" lat="51.136988"><ele>25.8</ele><time>2022-03-27T09:27:52.000Z</time></trkpt><trkpt lon="5.690433" lat="51.137004"><ele>25.8</ele><time>2022-03-27T09:27:53.000Z</time></trkpt><trkpt lon="5.690537" lat="51.137015"><ele>26</ele><time>2022-03-27T09:27:54.000Z</time></trkpt><trkpt lon="5.690643" lat="51.137027"><ele>26</ele><time>2022-03-27T09:27:55.000Z</time></trkpt><trkpt lon="5.690746" lat="51.137031"><ele>26</ele><time>2022-03-27T09:27:56.000Z</time></trkpt><trkpt lon="5.690848" lat="51.137039"><ele>26</ele><time>2022-03-27T09:27:57.000Z</time></trkpt><trkpt lon="5.690945" lat="51.137046"><ele>26</ele><time>2022-03-27T09:27:58.000Z</time></trkpt><trkpt lon="5.691034" lat="51.137054"><ele>26</ele><time>2022-03-27T09:27:59.000Z</time></trkpt><trkpt lon="5.691139" lat="51.137058"><ele>26</ele><time>2022-03-27T09:28:00.000Z</time></trkpt><trkpt lon="5.691237" lat="51.137062"><ele>26</ele><time>2022-03-27T09:28:01.000Z</time></trkpt><trkpt lon="5.691338" lat="51.137073"><ele>26</ele><time>2022-03-27T09:28:02.000Z</time></trkpt><trkpt lon="5.691437" lat="51.137077"><ele>26</ele><time>2022-03-27T09:28:03.000Z</time></trkpt><trkpt lon="5.69154" lat="51.137081"><ele>26</ele><time>2022-03-27T09:28:04.000Z</time></trkpt><trkpt lon="5.691643" lat="51.137085"><ele>26</ele><time>2022-03-27T09:28:05.000Z</time></trkpt><trkpt lon="5.691746" lat="51.137089"><ele>26</ele><time>2022-03-27T09:28:06.000Z</time></trkpt><trkpt lon="5.69185" lat="51.137092"><ele>26</ele><time>2022-03-27T09:28:07.000Z</time></trkpt><trkpt lon="5.691947" lat="51.1371"><ele>26</ele><time>2022-03-27T09:28:08.000Z</time></trkpt><trkpt lon="5.692045" lat="51.1371"><ele>26</ele><time>2022-03-27T09:28:09.000Z</time></trkpt><trkpt lon="5.692145" lat="51.137104"><ele>26</ele><time>2022-03-27T09:28:10.000Z</time></trkpt><trkpt lon="5.692248" lat="51.137108"><ele>26</ele><time>2022-03-27T09:28:11.000Z</time></trkpt><trkpt lon="5.692351" lat="51.137108"><ele>26</ele><time>2022-03-27T09:28:12.000Z</time></trkpt><trkpt lon="5.692456" lat="51.137111"><ele>26</ele><time>2022-03-27T09:28:13.000Z</time></trkpt><trkpt lon="5.692558" lat="51.137112"><ele>26.2</ele><time>2022-03-27T09:28:14.000Z</time></trkpt><trkpt lon="5.692664" lat="51.137112"><ele>26.2</ele><time>2022-03-27T09:28:15.000Z</time></trkpt><trkpt lon="5.692771" lat="51.137108"><ele>26.2</ele><time>2022-03-27T09:28:16.000Z</time></trkpt><trkpt lon="5.692882" lat="51.137108"><ele>26.2</ele><time>2022-03-27T09:28:17.000Z</time></trkpt><trkpt lon="5.692992" lat="51.137104"><ele>26.2</ele><time>2022-03-27T09:28:18.000Z</time></trkpt><trkpt lon="5.693102" lat="51.137104"><ele>26.2</ele><time>2022-03-27T09:28:19.000Z</time></trkpt><trkpt lon="5.693209" lat="51.137104"><ele>26.2</ele><time>2022-03-27T09:28:20.000Z</time></trkpt><trkpt lon="5.693316" lat="51.137101"><ele>26.2</ele><time>2022-03-27T09:28:21.000Z</time></trkpt><trkpt lon="5.693425" lat="51.1371"><ele>26.2</ele><time>2022-03-27T09:28:22.000Z</time></trkpt><trkpt lon="5.693532" lat="51.1371"><ele>26.4</ele><time>2022-03-27T09:28:23.000Z</time></trkpt><trkpt lon="5.693637" lat="51.137097"><ele>26.4</ele><time>2022-03-27T09:28:24.000Z</time></trkpt><trkpt lon="5.693741" lat="51.137096"><ele>26.4</ele><time>2022-03-27T09:28:25.000Z</time></trkpt><trkpt lon="5.693845" lat="51.137096"><ele>26.4</ele><time>2022-03-27T09:28:26.000Z</time></trkpt><trkpt lon="5.69395" lat="51.1371"><ele>26.6</ele><time>2022-03-27T09:28:27.000Z</time></trkpt><trkpt lon="5.694057" lat="51.1371"><ele>26.6</ele><time>2022-03-27T09:28:28.000Z</time></trkpt><trkpt lon="5.694165" lat="51.137104"><ele>26.6</ele><time>2022-03-27T09:28:29.000Z</time></trkpt><trkpt lon="5.69427" lat="51.137108"><ele>26.6</ele><time>2022-03-27T09:28:30.000Z</time></trkpt><trkpt lon="5.694378" lat="51.137111"><ele>26.6</ele><time>2022-03-27T09:28:31.000Z</time></trkpt><trkpt lon="5.694489" lat="51.137115"><ele>26.6</ele><time>2022-03-27T09:28:32.000Z</time></trkpt><trkpt lon="5.694593" lat="51.137123"><ele>26.6</ele><time>2022-03-27T09:28:33.000Z</time></trkpt><trkpt lon="5.694695" lat="51.137134"><ele>26.6</ele><time>2022-03-27T09:28:34.000Z</time></trkpt><trkpt lon="5.694799" lat="51.137142"><ele>26.4</ele><time>2022-03-27T09:28:35.000Z</time></trkpt><trkpt lon="5.694901" lat="51.137149"><ele>26.4</ele><time>2022-03-27T09:28:36.000Z</time></trkpt><trkpt lon="5.695004" lat="51.137161"><ele>26.4</ele><time>2022-03-27T09:28:37.000Z</time></trkpt><trkpt lon="5.695102" lat="51.137172"><ele>26.4</ele><time>2022-03-27T09:28:38.000Z</time></trkpt><trkpt lon="5.695204" lat="51.137183"><ele>26.4</ele><time>2022-03-27T09:28:39.000Z</time></trkpt><trkpt lon="5.695307" lat="51.137195"><ele>26.4</ele><time>2022-03-27T09:28:40.000Z</time></trkpt><trkpt lon="5.695404" lat="51.137206"><ele>26.4</ele><time>2022-03-27T09:28:41.000Z</time></trkpt><trkpt lon="5.695508" lat="51.137221"><ele>26.2</ele><time>2022-03-27T09:28:42.000Z</time></trkpt><trkpt lon="5.695608" lat="51.137237"><ele>26.2</ele><time>2022-03-27T09:28:43.000Z</time></trkpt><trkpt lon="5.695707" lat="51.137252"><ele>26.4</ele><time>2022-03-27T09:28:44.000Z</time></trkpt><trkpt lon="5.695804" lat="51.137267"><ele>26.4</ele><time>2022-03-27T09:28:45.000Z</time></trkpt><trkpt lon="5.695903" lat="51.137279"><ele>26.4</ele><time>2022-03-27T09:28:46.000Z</time></trkpt><trkpt lon="5.695998" lat="51.13729"><ele>26.4</ele><time>2022-03-27T09:28:47.000Z</time></trkpt><trkpt lon="5.696096" lat="51.137305"><ele>26.4</ele><time>2022-03-27T09:28:48.000Z</time></trkpt><trkpt lon="5.696194" lat="51.13732"><ele>26.4</ele><time>2022-03-27T09:28:49.000Z</time></trkpt><trkpt lon="5.696294" lat="51.137336"><ele>26.4</ele><time>2022-03-27T09:28:50.000Z</time></trkpt><trkpt lon="5.696396" lat="51.137351"><ele>26.4</ele><time>2022-03-27T09:28:51.000Z</time></trkpt><trkpt lon="5.696492" lat="51.137366"><ele>26.4</ele><time>2022-03-27T09:28:52.000Z</time></trkpt><trkpt lon="5.696593" lat="51.137382"><ele>26.4</ele><time>2022-03-27T09:28:53.000Z</time></trkpt><trkpt lon="5.696687" lat="51.137396"><ele>26.4</ele><time>2022-03-27T09:28:54.000Z</time></trkpt><trkpt lon="5.696793" lat="51.137412"><ele>26.4</ele><time>2022-03-27T09:28:55.000Z</time></trkpt><trkpt lon="5.69689" lat="51.137427"><ele>26.4</ele><time>2022-03-27T09:28:56.000Z</time></trkpt><trkpt lon="5.696988" lat="51.137439"><ele>26.2</ele><time>2022-03-27T09:28:57.000Z</time></trkpt><trkpt lon="5.697081" lat="51.137454"><ele>26.2</ele><time>2022-03-27T09:28:58.000Z</time></trkpt><trkpt lon="5.697176" lat="51.137466"><ele>26.2</ele><time>2022-03-27T09:28:59.000Z</time></trkpt><trkpt lon="5.697271" lat="51.13748"><ele>26.4</ele><time>2022-03-27T09:29:00.000Z</time></trkpt><trkpt lon="5.697368" lat="51.137496"><ele>26.4</ele><time>2022-03-27T09:29:01.000Z</time></trkpt><trkpt lon="5.697466" lat="51.137511"><ele>26.4</ele><time>2022-03-27T09:29:02.000Z</time></trkpt><trkpt lon="5.697565" lat="51.137526"><ele>26.4</ele><time>2022-03-27T09:29:03.000Z</time></trkpt><trkpt lon="5.697665" lat="51.137542"><ele>26.4</ele><time>2022-03-27T09:29:04.000Z</time></trkpt><trkpt lon="5.697764" lat="51.137557"><ele>26.6</ele><time>2022-03-27T09:29:05.000Z</time></trkpt><trkpt lon="5.697866" lat="51.137572"><ele>26.4</ele><time>2022-03-27T09:29:06.000Z</time></trkpt><trkpt lon="5.697967" lat="51.137584"><ele>26.4</ele><time>2022-03-27T09:29:07.000Z</time></trkpt><trkpt lon="5.698068" lat="51.137599"><ele>26.4</ele><time>2022-03-27T09:29:08.000Z</time></trkpt><trkpt lon="5.698174" lat="51.137614"><ele>26.4</ele><time>2022-03-27T09:29:09.000Z</time></trkpt><trkpt lon="5.69828" lat="51.137626"><ele>26.4</ele><time>2022-03-27T09:29:10.000Z</time></trkpt><trkpt lon="5.698381" lat="51.137637"><ele>26.4</ele><time>2022-03-27T09:29:11.000Z</time></trkpt><trkpt lon="5.698491" lat="51.137652"><ele>26.4</ele><time>2022-03-27T09:29:12.000Z</time></trkpt><trkpt lon="5.698601" lat="51.137664"><ele>26.4</ele><time>2022-03-27T09:29:13.000Z</time></trkpt><trkpt lon="5.698709" lat="51.137679"><ele>26.4</ele><time>2022-03-27T09:29:14.000Z</time></trkpt><trkpt lon="5.698816" lat="51.137695"><ele>26.4</ele><time>2022-03-27T09:29:15.000Z</time></trkpt><trkpt lon="5.698919" lat="51.137709"><ele>26.4</ele><time>2022-03-27T09:29:16.000Z</time></trkpt><trkpt lon="5.699025" lat="51.137725"><ele>26.4</ele><time>2022-03-27T09:29:17.000Z</time></trkpt><trkpt lon="5.699129" lat="51.13774"><ele>26.4</ele><time>2022-03-27T09:29:18.000Z</time></trkpt><trkpt lon="5.699241" lat="51.137755"><ele>26.4</ele><time>2022-03-27T09:29:19.000Z</time></trkpt><trkpt lon="5.699353" lat="51.137771"><ele>26.4</ele><time>2022-03-27T09:29:20.000Z</time></trkpt><trkpt lon="5.699465" lat="51.137786"><ele>26.4</ele><time>2022-03-27T09:29:21.000Z</time></trkpt><trkpt lon="5.699578" lat="51.137798"><ele>26.4</ele><time>2022-03-27T09:29:22.000Z</time></trkpt><trkpt lon="5.699686" lat="51.137809"><ele>26.4</ele><time>2022-03-27T09:29:23.000Z</time></trkpt><trkpt lon="5.699791" lat="51.137824"><ele>26.4</ele><time>2022-03-27T09:29:24.000Z</time></trkpt><trkpt lon="5.699893" lat="51.137836"><ele>26.2</ele><time>2022-03-27T09:29:25.000Z</time></trkpt><trkpt lon="5.69999" lat="51.13785"><ele>26.2</ele><time>2022-03-27T09:29:26.000Z</time></trkpt><trkpt lon="5.700091" lat="51.137862"><ele>26.2</ele><time>2022-03-27T09:29:27.000Z</time></trkpt><trkpt lon="5.700195" lat="51.137874"><ele>26.2</ele><time>2022-03-27T09:29:28.000Z</time></trkpt><trkpt lon="5.700294" lat="51.137889"><ele>26.2</ele><time>2022-03-27T09:29:29.000Z</time></trkpt><trkpt lon="5.700391" lat="51.137904"><ele>26</ele><time>2022-03-27T09:29:30.000Z</time></trkpt><trkpt lon="5.700493" lat="51.137916"><ele>26.2</ele><time>2022-03-27T09:29:31.000Z</time></trkpt><trkpt lon="5.7006" lat="51.137931"><ele>26.2</ele><time>2022-03-27T09:29:32.000Z</time></trkpt><trkpt lon="5.700707" lat="51.137942"><ele>26.2</ele><time>2022-03-27T09:29:33.000Z</time></trkpt><trkpt lon="5.700817" lat="51.137957"><ele>26.2</ele><time>2022-03-27T09:29:34.000Z</time></trkpt><trkpt lon="5.700927" lat="51.137969"><ele>26.2</ele><time>2022-03-27T09:29:35.000Z</time></trkpt><trkpt lon="5.701032" lat="51.137981"><ele>26.2</ele><time>2022-03-27T09:29:36.000Z</time></trkpt><trkpt lon="5.701135" lat="51.137996"><ele>26.2</ele><time>2022-03-27T09:29:37.000Z</time></trkpt><trkpt lon="5.701236" lat="51.138007"><ele>26.2</ele><time>2022-03-27T09:29:38.000Z</time></trkpt><trkpt lon="5.701342" lat="51.138022"><ele>26.2</ele><time>2022-03-27T09:29:39.000Z</time></trkpt><trkpt lon="5.701448" lat="51.138037"><ele>26.2</ele><time>2022-03-27T09:29:40.000Z</time></trkpt><trkpt lon="5.701556" lat="51.138053"><ele>26.2</ele><time>2022-03-27T09:29:41.000Z</time></trkpt><trkpt lon="5.701664" lat="51.138068"><ele>26.2</ele><time>2022-03-27T09:29:42.000Z</time></trkpt><trkpt lon="5.701773" lat="51.13808"><ele>26.2</ele><time>2022-03-27T09:29:43.000Z</time></trkpt><trkpt lon="5.701882" lat="51.138092"><ele>26.2</ele><time>2022-03-27T09:29:44.000Z</time></trkpt><trkpt lon="5.701991" lat="51.138107"><ele>26.2</ele><time>2022-03-27T09:29:45.000Z</time></trkpt><trkpt lon="5.702092" lat="51.138118"><ele>26.2</ele><time>2022-03-27T09:29:46.000Z</time></trkpt><trkpt lon="5.702194" lat="51.138133"><ele>26.2</ele><time>2022-03-27T09:29:47.000Z</time></trkpt><trkpt lon="5.702295" lat="51.138144"><ele>26.2</ele><time>2022-03-27T09:29:48.000Z</time></trkpt><trkpt lon="5.7024" lat="51.13816"><ele>26.2</ele><time>2022-03-27T09:29:49.000Z</time></trkpt><trkpt lon="5.702507" lat="51.138171"><ele>26.2</ele><time>2022-03-27T09:29:50.000Z</time></trkpt><trkpt lon="5.702616" lat="51.138186"><ele>26</ele><time>2022-03-27T09:29:51.000Z</time></trkpt><trkpt lon="5.702725" lat="51.138202"><ele>26</ele><time>2022-03-27T09:29:52.000Z</time></trkpt><trkpt lon="5.70283" lat="51.138213"><ele>26</ele><time>2022-03-27T09:29:53.000Z</time></trkpt><trkpt lon="5.702936" lat="51.138228"><ele>26</ele><time>2022-03-27T09:29:54.000Z</time></trkpt><trkpt lon="5.70304" lat="51.138247"><ele>26</ele><time>2022-03-27T09:29:55.000Z</time></trkpt><trkpt lon="5.703146" lat="51.138263"><ele>26</ele><time>2022-03-27T09:29:56.000Z</time></trkpt><trkpt lon="5.703252" lat="51.138278"><ele>26</ele><time>2022-03-27T09:29:57.000Z</time></trkpt><trkpt lon="5.703361" lat="51.138297"><ele>26</ele><time>2022-03-27T09:29:58.000Z</time></trkpt><trkpt lon="5.70347" lat="51.138312"><ele>26</ele><time>2022-03-27T09:29:59.000Z</time></trkpt><trkpt lon="5.70358" lat="51.138327"><ele>25.8</ele><time>2022-03-27T09:30:00.000Z</time></trkpt><trkpt lon="5.703695" lat="51.138342"><ele>25.8</ele><time>2022-03-27T09:30:01.000Z</time></trkpt><trkpt lon="5.703814" lat="51.138361"><ele>25.8</ele><time>2022-03-27T09:30:02.000Z</time></trkpt><trkpt lon="5.703936" lat="51.138377"><ele>25.8</ele><time>2022-03-27T09:30:03.000Z</time></trkpt><trkpt lon="5.704057" lat="51.138392"><ele>25.8</ele><time>2022-03-27T09:30:04.000Z</time></trkpt><trkpt lon="5.70417" lat="51.138404"><ele>25.8</ele><time>2022-03-27T09:30:05.000Z</time></trkpt><trkpt lon="5.704284" lat="51.138419"><ele>25.6</ele><time>2022-03-27T09:30:06.000Z</time></trkpt><trkpt lon="5.704398" lat="51.138431"><ele>25.4</ele><time>2022-03-27T09:30:07.000Z</time></trkpt><trkpt lon="5.704514" lat="51.138442"><ele>25.6</ele><time>2022-03-27T09:30:08.000Z</time></trkpt><trkpt lon="5.70463" lat="51.138457"><ele>25.6</ele><time>2022-03-27T09:30:09.000Z</time></trkpt><trkpt lon="5.704744" lat="51.138472"><ele>25.6</ele><time>2022-03-27T09:30:10.000Z</time></trkpt><trkpt lon="5.704857" lat="51.138484"><ele>25.6</ele><time>2022-03-27T09:30:11.000Z</time></trkpt><trkpt lon="5.704968" lat="51.138499"><ele>25.6</ele><time>2022-03-27T09:30:12.000Z</time></trkpt><trkpt lon="5.70508" lat="51.138511"><ele>25.6</ele><time>2022-03-27T09:30:13.000Z</time></trkpt><trkpt lon="5.705198" lat="51.138526"><ele>25.6</ele><time>2022-03-27T09:30:14.000Z</time></trkpt><trkpt lon="5.705309" lat="51.138538"><ele>25.6</ele><time>2022-03-27T09:30:15.000Z</time></trkpt><trkpt lon="5.705424" lat="51.138542"><ele>25.8</ele><time>2022-03-27T09:30:16.000Z</time></trkpt><trkpt lon="5.705536" lat="51.138542"><ele>25.8</ele><time>2022-03-27T09:30:17.000Z</time></trkpt><trkpt lon="5.705654" lat="51.138542"><ele>25.8</ele><time>2022-03-27T09:30:18.000Z</time></trkpt><trkpt lon="5.705771" lat="51.138546"><ele>25.8</ele><time>2022-03-27T09:30:19.000Z</time></trkpt><trkpt lon="5.705881" lat="51.138546"><ele>25.8</ele><time>2022-03-27T09:30:20.000Z</time></trkpt><trkpt lon="5.705989" lat="51.138546"><ele>25.6</ele><time>2022-03-27T09:30:21.000Z</time></trkpt><trkpt lon="5.706101" lat="51.13855"><ele>25.6</ele><time>2022-03-27T09:30:22.000Z</time></trkpt><trkpt lon="5.706206" lat="51.13855"><ele>25.6</ele><time>2022-03-27T09:30:23.000Z</time></trkpt><trkpt lon="5.706312" lat="51.138553"><ele>25.6</ele><time>2022-03-27T09:30:24.000Z</time></trkpt><trkpt lon="5.706417" lat="51.138554"><ele>25.6</ele><time>2022-03-27T09:30:25.000Z</time></trkpt><trkpt lon="5.70652" lat="51.138554"><ele>25.6</ele><time>2022-03-27T09:30:26.000Z</time></trkpt><trkpt lon="5.70662" lat="51.138557"><ele>25.8</ele><time>2022-03-27T09:30:27.000Z</time></trkpt><trkpt lon="5.706725" lat="51.138557"><ele>25.8</ele><time>2022-03-27T09:30:28.000Z</time></trkpt><trkpt lon="5.706828" lat="51.13855"><ele>25.8</ele><time>2022-03-27T09:30:29.000Z</time></trkpt><trkpt lon="5.706913" lat="51.138529"><ele>25.8</ele><time>2022-03-27T09:30:30.000Z</time></trkpt><trkpt lon="5.706977" lat="51.138488"><ele>25.8</ele><time>2022-03-27T09:30:31.000Z</time></trkpt><trkpt lon="5.707003" lat="51.138443"><ele>25.8</ele><time>2022-03-27T09:30:32.000Z</time></trkpt><trkpt lon="5.707015" lat="51.138398"><ele>25.8</ele><time>2022-03-27T09:30:33.000Z</time></trkpt><trkpt lon="5.707015" lat="51.138345"><ele>25.8</ele><time>2022-03-27T09:30:34.000Z</time></trkpt><trkpt lon="5.707023" lat="51.13829"><ele>25.8</ele><time>2022-03-27T09:30:35.000Z</time></trkpt><trkpt lon="5.707042" lat="51.138216"><ele>25.8</ele><time>2022-03-27T09:30:36.000Z</time></trkpt><trkpt lon="5.707082" lat="51.13814"><ele>25.8</ele><time>2022-03-27T09:30:37.000Z</time></trkpt><trkpt lon="5.707152" lat="51.138073"><ele>25.8</ele><time>2022-03-27T09:30:38.000Z</time></trkpt><trkpt lon="5.707237" lat="51.138026"><ele>26</ele><time>2022-03-27T09:30:39.000Z</time></trkpt><trkpt lon="5.707338" lat="51.137988"><ele>25.8</ele><time>2022-03-27T09:30:40.000Z</time></trkpt><trkpt lon="5.707443" lat="51.13795"><ele>25.8</ele><time>2022-03-27T09:30:41.000Z</time></trkpt><trkpt lon="5.707549" lat="51.137916"><ele>25.8</ele><time>2022-03-27T09:30:42.000Z</time></trkpt><trkpt lon="5.707653" lat="51.137881"><ele>25.8</ele><time>2022-03-27T09:30:43.000Z</time></trkpt><trkpt lon="5.707756" lat="51.137843"><ele>25.8</ele><time>2022-03-27T09:30:44.000Z</time></trkpt><trkpt lon="5.707857" lat="51.137805"><ele>25.8</ele><time>2022-03-27T09:30:45.000Z</time></trkpt><trkpt lon="5.707957" lat="51.13777"><ele>25.6</ele><time>2022-03-27T09:30:46.000Z</time></trkpt><trkpt lon="5.708051" lat="51.137736"><ele>25.6</ele><time>2022-03-27T09:30:47.000Z</time></trkpt><trkpt lon="5.708147" lat="51.137702"><ele>25.4</ele><time>2022-03-27T09:30:48.000Z</time></trkpt><trkpt lon="5.70824" lat="51.137671"><ele>25.4</ele><time>2022-03-27T09:30:49.000Z</time></trkpt><trkpt lon="5.708326" lat="51.137641"><ele>25.2</ele><time>2022-03-27T09:30:50.000Z</time></trkpt><trkpt lon="5.708413" lat="51.137613"><ele>25.2</ele><time>2022-03-27T09:30:51.000Z</time></trkpt><trkpt lon="5.708497" lat="51.137587"><ele>25.2</ele><time>2022-03-27T09:30:52.000Z</time></trkpt><trkpt lon="5.708576" lat="51.137557"><ele>25.2</ele><time>2022-03-27T09:30:53.000Z</time></trkpt><trkpt lon="5.70865" lat="51.13753"><ele>25.2</ele><time>2022-03-27T09:30:54.000Z</time></trkpt><trkpt lon="5.708723" lat="51.137506"><ele>25.4</ele><time>2022-03-27T09:30:55.000Z</time></trkpt><trkpt lon="5.70879" lat="51.137484"><ele>25.6</ele><time>2022-03-27T09:30:56.000Z</time></trkpt><trkpt lon="5.708853" lat="51.137461"><ele>25.6</ele><time>2022-03-27T09:30:57.000Z</time></trkpt><trkpt lon="5.708913" lat="51.137441"><ele>25.8</ele><time>2022-03-27T09:30:58.000Z</time></trkpt><trkpt lon="5.708973" lat="51.137422"><ele>26</ele><time>2022-03-27T09:30:59.000Z</time></trkpt><trkpt lon="5.709032" lat="51.137407"><ele>26</ele><time>2022-03-27T09:31:00.000Z</time></trkpt><trkpt lon="5.709083" lat="51.137402"><ele>26</ele><time>2022-03-27T09:31:01.000Z</time></trkpt><trkpt lon="5.709126" lat="51.137419"><ele>26</ele><time>2022-03-27T09:31:02.000Z</time></trkpt><trkpt lon="5.709163" lat="51.137449"><ele>26</ele><time>2022-03-27T09:31:03.000Z</time></trkpt><trkpt lon="5.709198" lat="51.137489"><ele>25.8</ele><time>2022-03-27T09:31:04.000Z</time></trkpt><trkpt lon="5.709241" lat="51.137535"><ele>25.8</ele><time>2022-03-27T09:31:05.000Z</time></trkpt><trkpt lon="5.709291" lat="51.137584"><ele>25.8</ele><time>2022-03-27T09:31:06.000Z</time></trkpt><trkpt lon="5.709343" lat="51.13764"><ele>25.6</ele><time>2022-03-27T09:31:07.000Z</time></trkpt><trkpt lon="5.709401" lat="51.137698"><ele>25.6</ele><time>2022-03-27T09:31:08.000Z</time></trkpt><trkpt lon="5.709458" lat="51.137755"><ele>25.4</ele><time>2022-03-27T09:31:09.000Z</time></trkpt><trkpt lon="5.709514" lat="51.137812"><ele>25.4</ele><time>2022-03-27T09:31:10.000Z</time></trkpt><trkpt lon="5.709574" lat="51.13787"><ele>25.4</ele><time>2022-03-27T09:31:11.000Z</time></trkpt><trkpt lon="5.709634" lat="51.137923"><ele>25.4</ele><time>2022-03-27T09:31:12.000Z</time></trkpt><trkpt lon="5.709704" lat="51.137973"><ele>25.6</ele><time>2022-03-27T09:31:13.000Z</time></trkpt><trkpt lon="5.709791" lat="51.138017"><ele>25.6</ele><time>2022-03-27T09:31:14.000Z</time></trkpt><trkpt lon="5.709887" lat="51.138055"><ele>25.6</ele><time>2022-03-27T09:31:15.000Z</time></trkpt><trkpt lon="5.709983" lat="51.138086"><ele>25.6</ele><time>2022-03-27T09:31:16.000Z</time></trkpt><trkpt lon="5.710085" lat="51.138119"><ele>25.6</ele><time>2022-03-27T09:31:17.000Z</time></trkpt><trkpt lon="5.710191" lat="51.13815"><ele>25.8</ele><time>2022-03-27T09:31:18.000Z</time></trkpt><trkpt lon="5.710294" lat="51.138177"><ele>25.6</ele><time>2022-03-27T09:31:19.000Z</time></trkpt><trkpt lon="5.710398" lat="51.138207"><ele>25.6</ele><time>2022-03-27T09:31:20.000Z</time></trkpt><trkpt lon="5.710505" lat="51.138238"><ele>25.4</ele><time>2022-03-27T09:31:21.000Z</time></trkpt><trkpt lon="5.71061" lat="51.138265"><ele>25.4</ele><time>2022-03-27T09:31:22.000Z</time></trkpt><trkpt lon="5.710712" lat="51.138294"><ele>25.4</ele><time>2022-03-27T09:31:23.000Z</time></trkpt><trkpt lon="5.71082" lat="51.138325"><ele>25.4</ele><time>2022-03-27T09:31:24.000Z</time></trkpt><trkpt lon="5.710924" lat="51.138353"><ele>25.4</ele><time>2022-03-27T09:31:25.000Z</time></trkpt><trkpt lon="5.711026" lat="51.13838"><ele>25.6</ele><time>2022-03-27T09:31:26.000Z</time></trkpt><trkpt lon="5.711124" lat="51.138406"><ele>25.6</ele><time>2022-03-27T09:31:27.000Z</time></trkpt><trkpt lon="5.71122" lat="51.138433"><ele>25.8</ele><time>2022-03-27T09:31:28.000Z</time></trkpt><trkpt lon="5.71131" lat="51.138463"><ele>25.8</ele><time>2022-03-27T09:31:29.000Z</time></trkpt><trkpt lon="5.711403" lat="51.138493"><ele>25.8</ele><time>2022-03-27T09:31:30.000Z</time></trkpt><trkpt lon="5.7115" lat="51.138521"><ele>25.8</ele><time>2022-03-27T09:31:31.000Z</time></trkpt><trkpt lon="5.711593" lat="51.138554"><ele>25.8</ele><time>2022-03-27T09:31:32.000Z</time></trkpt><trkpt lon="5.711689" lat="51.138582"><ele>25.8</ele><time>2022-03-27T09:31:33.000Z</time></trkpt><trkpt lon="5.71178" lat="51.138612"><ele>25.8</ele><time>2022-03-27T09:31:34.000Z</time></trkpt><trkpt lon="5.711876" lat="51.138642"><ele>25.8</ele><time>2022-03-27T09:31:35.000Z</time></trkpt><trkpt lon="5.711973" lat="51.138669"><ele>25.8</ele><time>2022-03-27T09:31:36.000Z</time></trkpt><trkpt lon="5.71207" lat="51.138693"><ele>25.8</ele><time>2022-03-27T09:31:37.000Z</time></trkpt><trkpt lon="5.712168" lat="51.138719"><ele>25.8</ele><time>2022-03-27T09:31:38.000Z</time></trkpt><trkpt lon="5.712264" lat="51.138745"><ele>25.8</ele><time>2022-03-27T09:31:39.000Z</time></trkpt><trkpt lon="5.712366" lat="51.138772"><ele>25.8</ele><time>2022-03-27T09:31:40.000Z</time></trkpt><trkpt lon="5.712463" lat="51.138799"><ele>25.8</ele><time>2022-03-27T09:31:41.000Z</time></trkpt><trkpt lon="5.712563" lat="51.138826"><ele>25.8</ele><time>2022-03-27T09:31:42.000Z</time></trkpt><trkpt lon="5.712657" lat="51.138851"><ele>25.8</ele><time>2022-03-27T09:31:43.000Z</time></trkpt><trkpt lon="5.712765" lat="51.138876"><ele>25.8</ele><time>2022-03-27T09:31:44.000Z</time></trkpt><trkpt lon="5.712863" lat="51.138903"><ele>25.8</ele><time>2022-03-27T09:31:45.000Z</time></trkpt><trkpt lon="5.712965" lat="51.138933"><ele>26</ele><time>2022-03-27T09:31:46.000Z</time></trkpt><trkpt lon="5.713065" lat="51.138959"><ele>26</ele><time>2022-03-27T09:31:47.000Z</time></trkpt><trkpt lon="5.71317" lat="51.138987"><ele>25.8</ele><time>2022-03-27T09:31:48.000Z</time></trkpt><trkpt lon="5.713274" lat="51.139013"><ele>25.8</ele><time>2022-03-27T09:31:49.000Z</time></trkpt><trkpt lon="5.713373" lat="51.139035"><ele>25.8</ele><time>2022-03-27T09:31:50.000Z</time></trkpt><trkpt lon="5.713477" lat="51.139062"><ele>26</ele><time>2022-03-27T09:31:51.000Z</time></trkpt><trkpt lon="5.713576" lat="51.139089"><ele>26</ele><time>2022-03-27T09:31:52.000Z</time></trkpt><trkpt lon="5.71367" lat="51.139116"><ele>26</ele><time>2022-03-27T09:31:53.000Z</time></trkpt><trkpt lon="5.71376" lat="51.139139"><ele>26</ele><time>2022-03-27T09:31:54.000Z</time></trkpt><trkpt lon="5.713851" lat="51.139162"><ele>25.8</ele><time>2022-03-27T09:31:55.000Z</time></trkpt><trkpt lon="5.713948" lat="51.139181"><ele>25.8</ele><time>2022-03-27T09:31:56.000Z</time></trkpt><trkpt lon="5.714039" lat="51.139197"><ele>25.8</ele><time>2022-03-27T09:31:57.000Z</time></trkpt><trkpt lon="5.71413" lat="51.139219"><ele>25.6</ele><time>2022-03-27T09:31:58.000Z</time></trkpt><trkpt lon="5.714226" lat="51.139242"><ele>25.6</ele><time>2022-03-27T09:31:59.000Z</time></trkpt><trkpt lon="5.714328" lat="51.139268"><ele>25.8</ele><time>2022-03-27T09:32:00.000Z</time></trkpt><trkpt lon="5.714427" lat="51.139291"><ele>26</ele><time>2022-03-27T09:32:01.000Z</time></trkpt><trkpt lon="5.714531" lat="51.139318"><ele>26.2</ele><time>2022-03-27T09:32:02.000Z</time></trkpt><trkpt lon="5.714633" lat="51.139341"><ele>26.2</ele><time>2022-03-27T09:32:03.000Z</time></trkpt><trkpt lon="5.714737" lat="51.139371"><ele>26</ele><time>2022-03-27T09:32:04.000Z</time></trkpt><trkpt lon="5.714836" lat="51.139398"><ele>25.8</ele><time>2022-03-27T09:32:05.000Z</time></trkpt><trkpt lon="5.714935" lat="51.139425"><ele>25.8</ele><time>2022-03-27T09:32:06.000Z</time></trkpt><trkpt lon="5.715029" lat="51.139448"><ele>25.8</ele><time>2022-03-27T09:32:07.000Z</time></trkpt><trkpt lon="5.715121" lat="51.139473"><ele>25.8</ele><time>2022-03-27T09:32:08.000Z</time></trkpt><trkpt lon="5.715226" lat="51.139497"><ele>25.8</ele><time>2022-03-27T09:32:09.000Z</time></trkpt><trkpt lon="5.715334" lat="51.139527"><ele>25.8</ele><time>2022-03-27T09:32:10.000Z</time></trkpt><trkpt lon="5.715435" lat="51.139554"><ele>25.8</ele><time>2022-03-27T09:32:11.000Z</time></trkpt><trkpt lon="5.715541" lat="51.139581"><ele>25.8</ele><time>2022-03-27T09:32:12.000Z</time></trkpt><trkpt lon="5.715656" lat="51.139611"><ele>25.8</ele><time>2022-03-27T09:32:13.000Z</time></trkpt><trkpt lon="5.715775" lat="51.139639"><ele>25.8</ele><time>2022-03-27T09:32:14.000Z</time></trkpt><trkpt lon="5.715888" lat="51.139665"><ele>25.8</ele><time>2022-03-27T09:32:15.000Z</time></trkpt><trkpt lon="5.715999" lat="51.139692"><ele>25.8</ele><time>2022-03-27T09:32:16.000Z</time></trkpt><trkpt lon="5.716109" lat="51.139719"><ele>25.8</ele><time>2022-03-27T09:32:17.000Z</time></trkpt><trkpt lon="5.716217" lat="51.139745"><ele>25.6</ele><time>2022-03-27T09:32:18.000Z</time></trkpt><trkpt lon="5.716327" lat="51.139775"><ele>25.6</ele><time>2022-03-27T09:32:19.000Z</time></trkpt><trkpt lon="5.716434" lat="51.139802"><ele>25.4</ele><time>2022-03-27T09:32:20.000Z</time></trkpt><trkpt lon="5.716543" lat="51.139829"><ele>25.4</ele><time>2022-03-27T09:32:21.000Z</time></trkpt><trkpt lon="5.716652" lat="51.139859"><ele>25.2</ele><time>2022-03-27T09:32:22.000Z</time></trkpt><trkpt lon="5.71676" lat="51.139886"><ele>25.2</ele><time>2022-03-27T09:32:23.000Z</time></trkpt><trkpt lon="5.71687" lat="51.139916"><ele>25.2</ele><time>2022-03-27T09:32:24.000Z</time></trkpt><trkpt lon="5.716974" lat="51.139944"><ele>25.2</ele><time>2022-03-27T09:32:25.000Z</time></trkpt><trkpt lon="5.717079" lat="51.139967"><ele>25.4</ele><time>2022-03-27T09:32:26.000Z</time></trkpt><trkpt lon="5.717182" lat="51.139993"><ele>25.2</ele><time>2022-03-27T09:32:27.000Z</time></trkpt><trkpt lon="5.717285" lat="51.140016"><ele>25.4</ele><time>2022-03-27T09:32:28.000Z</time></trkpt><trkpt lon="5.717388" lat="51.140043"><ele>25.4</ele><time>2022-03-27T09:32:29.000Z</time></trkpt><trkpt lon="5.717487" lat="51.140069"><ele>25.4</ele><time>2022-03-27T09:32:30.000Z</time></trkpt><trkpt lon="5.717585" lat="51.140096"><ele>25.4</ele><time>2022-03-27T09:32:31.000Z</time></trkpt><trkpt lon="5.717686" lat="51.140123"><ele>25.6</ele><time>2022-03-27T09:32:32.000Z</time></trkpt><trkpt lon="5.717784" lat="51.140149"><ele>25.6</ele><time>2022-03-27T09:32:33.000Z</time></trkpt><trkpt lon="5.717884" lat="51.140176"><ele>25.6</ele><time>2022-03-27T09:32:34.000Z</time></trkpt><trkpt lon="5.717983" lat="51.140199"><ele>25.6</ele><time>2022-03-27T09:32:35.000Z</time></trkpt><trkpt lon="5.718082" lat="51.140222"><ele>25.6</ele><time>2022-03-27T09:32:36.000Z</time></trkpt><trkpt lon="5.71818" lat="51.140248"><ele>25.8</ele><time>2022-03-27T09:32:37.000Z</time></trkpt><trkpt lon="5.718275" lat="51.140275"><ele>25.8</ele><time>2022-03-27T09:32:38.000Z</time></trkpt><trkpt lon="5.718367" lat="51.140305"><ele>25.8</ele><time>2022-03-27T09:32:39.000Z</time></trkpt><trkpt lon="5.718443" lat="51.140346"><ele>25.6</ele><time>2022-03-27T09:32:40.000Z</time></trkpt><trkpt lon="5.718503" lat="51.140399"><ele>25.4</ele><time>2022-03-27T09:32:41.000Z</time></trkpt><trkpt lon="5.718535" lat="51.140458"><ele>25.4</ele><time>2022-03-27T09:32:42.000Z</time></trkpt><trkpt lon="5.718547" lat="51.140514"><ele>25.4</ele><time>2022-03-27T09:32:43.000Z</time></trkpt><trkpt lon="5.718552" lat="51.140601"><ele>25.4</ele><time>2022-03-27T09:32:44.000Z</time></trkpt><trkpt lon="5.718548" lat="51.140675"><ele>25.2</ele><time>2022-03-27T09:32:45.000Z</time></trkpt><trkpt lon="5.718544" lat="51.140748"><ele>25.2</ele><time>2022-03-27T09:32:46.000Z</time></trkpt><trkpt lon="5.718542" lat="51.140816"><ele>25.2</ele><time>2022-03-27T09:32:47.000Z</time></trkpt><trkpt lon="5.71854" lat="51.140884"><ele>25.2</ele><time>2022-03-27T09:32:48.000Z</time></trkpt><trkpt lon="5.718538" lat="51.140953"><ele>25.4</ele><time>2022-03-27T09:32:49.000Z</time></trkpt><trkpt lon="5.718537" lat="51.141022"><ele>25.2</ele><time>2022-03-27T09:32:50.000Z</time></trkpt><trkpt lon="5.718537" lat="51.14109"><ele>25.2</ele><time>2022-03-27T09:32:51.000Z</time></trkpt><trkpt lon="5.718537" lat="51.141155"><ele>25.2</ele><time>2022-03-27T09:32:52.000Z</time></trkpt><trkpt lon="5.718534" lat="51.141227"><ele>25.2</ele><time>2022-03-27T09:32:53.000Z</time></trkpt><trkpt lon="5.71853" lat="51.141297"><ele>25.4</ele><time>2022-03-27T09:32:54.000Z</time></trkpt><trkpt lon="5.718528" lat="51.141361"><ele>25.4</ele><time>2022-03-27T09:32:55.000Z</time></trkpt><trkpt lon="5.71853" lat="51.14143"><ele>25.2</ele><time>2022-03-27T09:32:56.000Z</time></trkpt><trkpt lon="5.718532" lat="51.141495"><ele>25.2</ele><time>2022-03-27T09:32:57.000Z</time></trkpt><trkpt lon="5.718532" lat="51.14156"><ele>25.2</ele><time>2022-03-27T09:32:58.000Z</time></trkpt><trkpt lon="5.718533" lat="51.141629"><ele>25.2</ele><time>2022-03-27T09:32:59.000Z</time></trkpt><trkpt lon="5.718532" lat="51.141694"><ele>25.2</ele><time>2022-03-27T09:33:00.000Z</time></trkpt><trkpt lon="5.718532" lat="51.141757"><ele>25.2</ele><time>2022-03-27T09:33:01.000Z</time></trkpt><trkpt lon="5.718535" lat="51.141823"><ele>25.2</ele><time>2022-03-27T09:33:02.000Z</time></trkpt><trkpt lon="5.718538" lat="51.141887"><ele>25.2</ele><time>2022-03-27T09:33:03.000Z</time></trkpt><trkpt lon="5.718537" lat="51.141953"><ele>25.2</ele><time>2022-03-27T09:33:04.000Z</time></trkpt><trkpt lon="5.718537" lat="51.142014"><ele>25.2</ele><time>2022-03-27T09:33:05.000Z</time></trkpt><trkpt lon="5.718535" lat="51.142072"><ele>25.2</ele><time>2022-03-27T09:33:06.000Z</time></trkpt><trkpt lon="5.718537" lat="51.142129"><ele>25.2</ele><time>2022-03-27T09:33:07.000Z</time></trkpt><trkpt lon="5.718553" lat="51.142182"><ele>25.4</ele><time>2022-03-27T09:33:08.000Z</time></trkpt><trkpt lon="5.71859" lat="51.142229"><ele>25.4</ele><time>2022-03-27T09:33:09.000Z</time></trkpt><trkpt lon="5.718639" lat="51.14226"><ele>25.6</ele><time>2022-03-27T09:33:10.000Z</time></trkpt><trkpt lon="5.718697" lat="51.142279"><ele>25.6</ele><time>2022-03-27T09:33:11.000Z</time></trkpt><trkpt lon="5.718776" lat="51.142291"><ele>25.8</ele><time>2022-03-27T09:33:12.000Z</time></trkpt><trkpt lon="5.718853" lat="51.1423"><ele>25.8</ele><time>2022-03-27T09:33:13.000Z</time></trkpt><trkpt lon="5.718973" lat="51.142311"><ele>25.8</ele><time>2022-03-27T09:33:14.000Z</time></trkpt><trkpt lon="5.719086" lat="51.142318"><ele>25.8</ele><time>2022-03-27T09:33:15.000Z</time></trkpt><trkpt lon="5.719196" lat="51.14233"><ele>25.6</ele><time>2022-03-27T09:33:16.000Z</time></trkpt><trkpt lon="5.719304" lat="51.142341"><ele>25.6</ele><time>2022-03-27T09:33:17.000Z</time></trkpt><trkpt lon="5.719413" lat="51.142352"><ele>25.6</ele><time>2022-03-27T09:33:18.000Z</time></trkpt><trkpt lon="5.719519" lat="51.142368"><ele>25.6</ele><time>2022-03-27T09:33:19.000Z</time></trkpt><trkpt lon="5.719627" lat="51.142386"><ele>25.8</ele><time>2022-03-27T09:33:20.000Z</time></trkpt><trkpt lon="5.719734" lat="51.142405"><ele>25.8</ele><time>2022-03-27T09:33:21.000Z</time></trkpt><trkpt lon="5.719842" lat="51.142421"><ele>25.8</ele><time>2022-03-27T09:33:22.000Z</time></trkpt><trkpt lon="5.719953" lat="51.142436"><ele>25.8</ele><time>2022-03-27T09:33:23.000Z</time></trkpt><trkpt lon="5.720059" lat="51.142455"><ele>25.8</ele><time>2022-03-27T09:33:24.000Z</time></trkpt><trkpt lon="5.720166" lat="51.142474"><ele>25.8</ele><time>2022-03-27T09:33:25.000Z</time></trkpt><trkpt lon="5.720278" lat="51.14249"><ele>25.8</ele><time>2022-03-27T09:33:26.000Z</time></trkpt><trkpt lon="5.720387" lat="51.142508"><ele>25.8</ele><time>2022-03-27T09:33:27.000Z</time></trkpt><trkpt lon="5.720499" lat="51.142528"><ele>25.8</ele><time>2022-03-27T09:33:28.000Z</time></trkpt><trkpt lon="5.720611" lat="51.142543"><ele>25.8</ele><time>2022-03-27T09:33:29.000Z</time></trkpt><trkpt lon="5.720723" lat="51.142562"><ele>25.8</ele><time>2022-03-27T09:33:30.000Z</time></trkpt><trkpt lon="5.720836" lat="51.142577"><ele>25.8</ele><time>2022-03-27T09:33:31.000Z</time></trkpt><trkpt lon="5.720949" lat="51.142596"><ele>25.8</ele><time>2022-03-27T09:33:32.000Z</time></trkpt><trkpt lon="5.72106" lat="51.142615"><ele>25.8</ele><time>2022-03-27T09:33:33.000Z</time></trkpt><trkpt lon="5.721173" lat="51.142631"><ele>26</ele><time>2022-03-27T09:33:34.000Z</time></trkpt><trkpt lon="5.721285" lat="51.142646"><ele>26</ele><time>2022-03-27T09:33:35.000Z</time></trkpt><trkpt lon="5.721398" lat="51.142665"><ele>26</ele><time>2022-03-27T09:33:36.000Z</time></trkpt><trkpt lon="5.721504" lat="51.142683"><ele>26</ele><time>2022-03-27T09:33:37.000Z</time></trkpt><trkpt lon="5.721615" lat="51.142699"><ele>26</ele><time>2022-03-27T09:33:38.000Z</time></trkpt><trkpt lon="5.721726" lat="51.142718"><ele>26</ele><time>2022-03-27T09:33:39.000Z</time></trkpt><trkpt lon="5.721833" lat="51.142737"><ele>26</ele><time>2022-03-27T09:33:40.000Z</time></trkpt><trkpt lon="5.721937" lat="51.142753"><ele>26</ele><time>2022-03-27T09:33:41.000Z</time></trkpt><trkpt lon="5.722045" lat="51.142772"><ele>26.2</ele><time>2022-03-27T09:33:42.000Z</time></trkpt><trkpt lon="5.722147" lat="51.14279"><ele>26</ele><time>2022-03-27T09:33:43.000Z</time></trkpt><trkpt lon="5.722259" lat="51.142806"><ele>25.8</ele><time>2022-03-27T09:33:44.000Z</time></trkpt><trkpt lon="5.722369" lat="51.142825"><ele>25.8</ele><time>2022-03-27T09:33:45.000Z</time></trkpt><trkpt lon="5.722476" lat="51.142841"><ele>25.8</ele><time>2022-03-27T09:33:46.000Z</time></trkpt><trkpt lon="5.722583" lat="51.142856"><ele>25.6</ele><time>2022-03-27T09:33:47.000Z</time></trkpt><trkpt lon="5.722689" lat="51.142871"><ele>25.6</ele><time>2022-03-27T09:33:48.000Z</time></trkpt><trkpt lon="5.722793" lat="51.14289"><ele>25.6</ele><time>2022-03-27T09:33:49.000Z</time></trkpt><trkpt lon="5.722899" lat="51.142905"><ele>25.6</ele><time>2022-03-27T09:33:50.000Z</time></trkpt><trkpt lon="5.723006" lat="51.142921"><ele>25.6</ele><time>2022-03-27T09:33:51.000Z</time></trkpt><trkpt lon="5.723109" lat="51.142939"><ele>25.4</ele><time>2022-03-27T09:33:52.000Z</time></trkpt><trkpt lon="5.723213" lat="51.142962"><ele>25.4</ele><time>2022-03-27T09:33:53.000Z</time></trkpt><trkpt lon="5.723318" lat="51.142985"><ele>25.6</ele><time>2022-03-27T09:33:54.000Z</time></trkpt><trkpt lon="5.723418" lat="51.143015"><ele>25.6</ele><time>2022-03-27T09:33:55.000Z</time></trkpt><trkpt lon="5.723515" lat="51.143045"><ele>25.6</ele><time>2022-03-27T09:33:56.000Z</time></trkpt><trkpt lon="5.723613" lat="51.143076"><ele>25.6</ele><time>2022-03-27T09:33:57.000Z</time></trkpt><trkpt lon="5.723705" lat="51.143106"><ele>25.8</ele><time>2022-03-27T09:33:58.000Z</time></trkpt><trkpt lon="5.723803" lat="51.143137"><ele>25.8</ele><time>2022-03-27T09:33:59.000Z</time></trkpt><trkpt lon="5.723897" lat="51.143171"><ele>25.8</ele><time>2022-03-27T09:34:00.000Z</time></trkpt><trkpt lon="5.723996" lat="51.143198"><ele>26</ele><time>2022-03-27T09:34:01.000Z</time></trkpt><trkpt lon="5.72409" lat="51.143225"><ele>26</ele><time>2022-03-27T09:34:02.000Z</time></trkpt><trkpt lon="5.724187" lat="51.143252"><ele>26</ele><time>2022-03-27T09:34:03.000Z</time></trkpt><trkpt lon="5.724279" lat="51.143278"><ele>26</ele><time>2022-03-27T09:34:04.000Z</time></trkpt><trkpt lon="5.72437" lat="51.143301"><ele>26</ele><time>2022-03-27T09:34:05.000Z</time></trkpt><trkpt lon="5.72446" lat="51.143321"><ele>26</ele><time>2022-03-27T09:34:06.000Z</time></trkpt><trkpt lon="5.724544" lat="51.143343"><ele>26</ele><time>2022-03-27T09:34:07.000Z</time></trkpt><trkpt lon="5.724625" lat="51.143359"><ele>26</ele><time>2022-03-27T09:34:08.000Z</time></trkpt><trkpt lon="5.724702" lat="51.143378"><ele>25.8</ele><time>2022-03-27T09:34:09.000Z</time></trkpt><trkpt lon="5.724776" lat="51.143393"><ele>25.8</ele><time>2022-03-27T09:34:10.000Z</time></trkpt><trkpt lon="5.724849" lat="51.143405"><ele>25.8</ele><time>2022-03-27T09:34:11.000Z</time></trkpt><trkpt lon="5.724916" lat="51.14342"><ele>25.8</ele><time>2022-03-27T09:34:12.000Z</time></trkpt><trkpt lon="5.724977" lat="51.143428"><ele>25.8</ele><time>2022-03-27T09:34:13.000Z</time></trkpt><trkpt lon="5.72504" lat="51.143436"><ele>25.8</ele><time>2022-03-27T09:34:14.000Z</time></trkpt><trkpt lon="5.725097" lat="51.143444"><ele>25.8</ele><time>2022-03-27T09:34:15.000Z</time></trkpt><trkpt lon="5.725151" lat="51.143451"><ele>25.8</ele><time>2022-03-27T09:34:16.000Z</time></trkpt><trkpt lon="5.725198" lat="51.143463"><ele>25.8</ele><time>2022-03-27T09:34:17.000Z</time></trkpt><trkpt lon="5.725246" lat="51.143477"><ele>25.8</ele><time>2022-03-27T09:34:18.000Z</time></trkpt><trkpt lon="5.7253" lat="51.143489"><ele>25.8</ele><time>2022-03-27T09:34:19.000Z</time></trkpt><trkpt lon="5.725361" lat="51.143511"><ele>25.8</ele><time>2022-03-27T09:34:20.000Z</time></trkpt><trkpt lon="5.725436" lat="51.143531"><ele>25.6</ele><time>2022-03-27T09:34:21.000Z</time></trkpt><trkpt lon="5.725515" lat="51.143546"><ele>25.6</ele><time>2022-03-27T09:34:22.000Z</time></trkpt><trkpt lon="5.725599" lat="51.143554"><ele>25.6</ele><time>2022-03-27T09:34:23.000Z</time></trkpt><trkpt lon="5.725697" lat="51.143555"><ele>25.6</ele><time>2022-03-27T09:34:24.000Z</time></trkpt><trkpt lon="5.725795" lat="51.143555"><ele>25.6</ele><time>2022-03-27T09:34:25.000Z</time></trkpt><trkpt lon="5.725893" lat="51.143555"><ele>25.6</ele><time>2022-03-27T09:34:26.000Z</time></trkpt><trkpt lon="5.725993" lat="51.143555"><ele>25.4</ele><time>2022-03-27T09:34:27.000Z</time></trkpt><trkpt lon="5.726099" lat="51.143555"><ele>25.4</ele><time>2022-03-27T09:34:28.000Z</time></trkpt><trkpt lon="5.726203" lat="51.143555"><ele>25.4</ele><time>2022-03-27T09:34:29.000Z</time></trkpt><trkpt lon="5.726304" lat="51.143551"><ele>25.4</ele><time>2022-03-27T09:34:30.000Z</time></trkpt><trkpt lon="5.72641" lat="51.143551"><ele>25.4</ele><time>2022-03-27T09:34:31.000Z</time></trkpt><trkpt lon="5.726517" lat="51.143547"><ele>25.4</ele><time>2022-03-27T09:34:32.000Z</time></trkpt><trkpt lon="5.726623" lat="51.143547"><ele>25.4</ele><time>2022-03-27T09:34:33.000Z</time></trkpt><trkpt lon="5.726727" lat="51.143543"><ele>25.6</ele><time>2022-03-27T09:34:34.000Z</time></trkpt><trkpt lon="5.726828" lat="51.143543"><ele>25.6</ele><time>2022-03-27T09:34:35.000Z</time></trkpt><trkpt lon="5.726932" lat="51.143543"><ele>25.6</ele><time>2022-03-27T09:34:36.000Z</time></trkpt><trkpt lon="5.727036" lat="51.143543"><ele>25.6</ele><time>2022-03-27T09:34:37.000Z</time></trkpt><trkpt lon="5.727141" lat="51.143543"><ele>25.6</ele><time>2022-03-27T09:34:38.000Z</time></trkpt><trkpt lon="5.727243" lat="51.14354"><ele>25.6</ele><time>2022-03-27T09:34:39.000Z</time></trkpt><trkpt lon="5.727344" lat="51.143539"><ele>25.6</ele><time>2022-03-27T09:34:40.000Z</time></trkpt><trkpt lon="5.727444" lat="51.143539"><ele>25.6</ele><time>2022-03-27T09:34:41.000Z</time></trkpt><trkpt lon="5.727542" lat="51.143539"><ele>25.6</ele><time>2022-03-27T09:34:42.000Z</time></trkpt><trkpt lon="5.727632" lat="51.143539"><ele>25.4</ele><time>2022-03-27T09:34:43.000Z</time></trkpt><trkpt lon="5.72773" lat="51.143539"><ele>25.4</ele><time>2022-03-27T09:34:44.000Z</time></trkpt><trkpt lon="5.727825" lat="51.143539"><ele>25.4</ele><time>2022-03-27T09:34:45.000Z</time></trkpt><trkpt lon="5.727921" lat="51.143539"><ele>25.4</ele><time>2022-03-27T09:34:46.000Z</time></trkpt><trkpt lon="5.728011" lat="51.143539"><ele>25.4</ele><time>2022-03-27T09:34:47.000Z</time></trkpt><trkpt lon="5.72811" lat="51.143543"><ele>25.4</ele><time>2022-03-27T09:34:48.000Z</time></trkpt><trkpt lon="5.728215" lat="51.143536"><ele>25.4</ele><time>2022-03-27T09:34:49.000Z</time></trkpt><trkpt lon="5.728318" lat="51.143528"><ele>25.4</ele><time>2022-03-27T09:34:50.000Z</time></trkpt><trkpt lon="5.728422" lat="51.143521"><ele>25.4</ele><time>2022-03-27T09:34:51.000Z</time></trkpt><trkpt lon="5.728527" lat="51.143513"><ele>25.4</ele><time>2022-03-27T09:34:52.000Z</time></trkpt><trkpt lon="5.728635" lat="51.143509"><ele>25.4</ele><time>2022-03-27T09:34:53.000Z</time></trkpt><trkpt lon="5.728746" lat="51.143505"><ele>25.2</ele><time>2022-03-27T09:34:54.000Z</time></trkpt><trkpt lon="5.728856" lat="51.143505"><ele>25.2</ele><time>2022-03-27T09:34:55.000Z</time></trkpt><trkpt lon="5.728971" lat="51.143502"><ele>25.2</ele><time>2022-03-27T09:34:56.000Z</time></trkpt><trkpt lon="5.729081" lat="51.143498"><ele>25</ele><time>2022-03-27T09:34:57.000Z</time></trkpt><trkpt lon="5.729196" lat="51.14349"><ele>25</ele><time>2022-03-27T09:34:58.000Z</time></trkpt><trkpt lon="5.729312" lat="51.14349"><ele>25</ele><time>2022-03-27T09:34:59.000Z</time></trkpt><trkpt lon="5.729428" lat="51.143486"><ele>25</ele><time>2022-03-27T09:35:00.000Z</time></trkpt><trkpt lon="5.729547" lat="51.143482"><ele>24.8</ele><time>2022-03-27T09:35:01.000Z</time></trkpt><trkpt lon="5.729664" lat="51.143479"><ele>24.6</ele><time>2022-03-27T09:35:02.000Z</time></trkpt><trkpt lon="5.729779" lat="51.143478"><ele>24.6</ele><time>2022-03-27T09:35:03.000Z</time></trkpt><trkpt lon="5.729893" lat="51.143468"><ele>24.6</ele><time>2022-03-27T09:35:04.000Z</time></trkpt><trkpt lon="5.73001" lat="51.143456"><ele>24.6</ele><time>2022-03-27T09:35:05.000Z</time></trkpt><trkpt lon="5.730125" lat="51.143441"><ele>24.6</ele><time>2022-03-27T09:35:06.000Z</time></trkpt><trkpt lon="5.730237" lat="51.143426"><ele>24.6</ele><time>2022-03-27T09:35:07.000Z</time></trkpt><trkpt lon="5.730352" lat="51.143407"><ele>24.6</ele><time>2022-03-27T09:35:08.000Z</time></trkpt><trkpt lon="5.730466" lat="51.143388"><ele>24.4</ele><time>2022-03-27T09:35:09.000Z</time></trkpt><trkpt lon="5.730575" lat="51.143365"><ele>24.4</ele><time>2022-03-27T09:35:10.000Z</time></trkpt><trkpt lon="5.730682" lat="51.143342"><ele>24.4</ele><time>2022-03-27T09:35:11.000Z</time></trkpt><trkpt lon="5.730785" lat="51.143316"><ele>24.2</ele><time>2022-03-27T09:35:12.000Z</time></trkpt><trkpt lon="5.730885" lat="51.143285"><ele>24.2</ele><time>2022-03-27T09:35:13.000Z</time></trkpt><trkpt lon="5.730982" lat="51.143258"><ele>24.4</ele><time>2022-03-27T09:35:14.000Z</time></trkpt><trkpt lon="5.731079" lat="51.143228"><ele>24.4</ele><time>2022-03-27T09:35:15.000Z</time></trkpt><trkpt lon="5.731174" lat="51.143198"><ele>24.4</ele><time>2022-03-27T09:35:16.000Z</time></trkpt><trkpt lon="5.731273" lat="51.143167"><ele>24.2</ele><time>2022-03-27T09:35:17.000Z</time></trkpt><trkpt lon="5.731373" lat="51.143137"><ele>24.2</ele><time>2022-03-27T09:35:18.000Z</time></trkpt><trkpt lon="5.73147" lat="51.143106"><ele>24.2</ele><time>2022-03-27T09:35:19.000Z</time></trkpt><trkpt lon="5.731565" lat="51.143072"><ele>24.2</ele><time>2022-03-27T09:35:20.000Z</time></trkpt><trkpt lon="5.731659" lat="51.143045"><ele>24.2</ele><time>2022-03-27T09:35:21.000Z</time></trkpt><trkpt lon="5.731753" lat="51.143015"><ele>24.2</ele><time>2022-03-27T09:35:22.000Z</time></trkpt><trkpt lon="5.731844" lat="51.142988"><ele>24.2</ele><time>2022-03-27T09:35:23.000Z</time></trkpt><trkpt lon="5.731941" lat="51.142965"><ele>24.2</ele><time>2022-03-27T09:35:24.000Z</time></trkpt><trkpt lon="5.73204" lat="51.142953"><ele>24.2</ele><time>2022-03-27T09:35:25.000Z</time></trkpt><trkpt lon="5.73214" lat="51.142948"><ele>24.2</ele><time>2022-03-27T09:35:26.000Z</time></trkpt><trkpt lon="5.732244" lat="51.142952"><ele>24</ele><time>2022-03-27T09:35:27.000Z</time></trkpt><trkpt lon="5.73235" lat="51.142963"><ele>24</ele><time>2022-03-27T09:35:28.000Z</time></trkpt><trkpt lon="5.732457" lat="51.142974"><ele>24.2</ele><time>2022-03-27T09:35:29.000Z</time></trkpt><trkpt lon="5.732563" lat="51.142993"><ele>24.2</ele><time>2022-03-27T09:35:30.000Z</time></trkpt><trkpt lon="5.732668" lat="51.143012"><ele>24.2</ele><time>2022-03-27T09:35:31.000Z</time></trkpt><trkpt lon="5.732774" lat="51.143031"><ele>24</ele><time>2022-03-27T09:35:32.000Z</time></trkpt><trkpt lon="5.732878" lat="51.14305"><ele>24.2</ele><time>2022-03-27T09:35:33.000Z</time></trkpt><trkpt lon="5.73298" lat="51.143069"><ele>24.2</ele><time>2022-03-27T09:35:34.000Z</time></trkpt><trkpt lon="5.733081" lat="51.143088"><ele>24.4</ele><time>2022-03-27T09:35:35.000Z</time></trkpt><trkpt lon="5.733182" lat="51.143107"><ele>24.4</ele><time>2022-03-27T09:35:36.000Z</time></trkpt><trkpt lon="5.733284" lat="51.143126"><ele>24.4</ele><time>2022-03-27T09:35:37.000Z</time></trkpt><trkpt lon="5.733388" lat="51.143149"><ele>24.4</ele><time>2022-03-27T09:35:38.000Z</time></trkpt><trkpt lon="5.733492" lat="51.143168"><ele>24.4</ele><time>2022-03-27T09:35:39.000Z</time></trkpt><trkpt lon="5.733596" lat="51.143191"><ele>24.4</ele><time>2022-03-27T09:35:40.000Z</time></trkpt><trkpt lon="5.733701" lat="51.143214"><ele>24.6</ele><time>2022-03-27T09:35:41.000Z</time></trkpt><trkpt lon="5.733805" lat="51.143237"><ele>24.4</ele><time>2022-03-27T09:35:42.000Z</time></trkpt><trkpt lon="5.733903" lat="51.143266"><ele>24.2</ele><time>2022-03-27T09:35:43.000Z</time></trkpt><trkpt lon="5.734002" lat="51.143301"><ele>24</ele><time>2022-03-27T09:35:44.000Z</time></trkpt><trkpt lon="5.734098" lat="51.143335"><ele>24</ele><time>2022-03-27T09:35:45.000Z</time></trkpt><trkpt lon="5.734187" lat="51.143373"><ele>24</ele><time>2022-03-27T09:35:46.000Z</time></trkpt><trkpt lon="5.734276" lat="51.143411"><ele>24</ele><time>2022-03-27T09:35:47.000Z</time></trkpt><trkpt lon="5.734365" lat="51.143453"><ele>24.2</ele><time>2022-03-27T09:35:48.000Z</time></trkpt><trkpt lon="5.734454" lat="51.143496"><ele>24.2</ele><time>2022-03-27T09:35:49.000Z</time></trkpt><trkpt lon="5.734541" lat="51.143537"><ele>24.2</ele><time>2022-03-27T09:35:50.000Z</time></trkpt><trkpt lon="5.734627" lat="51.143579"><ele>24.4</ele><time>2022-03-27T09:35:51.000Z</time></trkpt><trkpt lon="5.734712" lat="51.143621"><ele>24.6</ele><time>2022-03-27T09:35:52.000Z</time></trkpt><trkpt lon="5.734796" lat="51.14366"><ele>24.8</ele><time>2022-03-27T09:35:53.000Z</time></trkpt><trkpt lon="5.734879" lat="51.143701"><ele>25</ele><time>2022-03-27T09:35:54.000Z</time></trkpt><trkpt lon="5.734963" lat="51.143747"><ele>24.8</ele><time>2022-03-27T09:35:55.000Z</time></trkpt><trkpt lon="5.735043" lat="51.143793"><ele>24.6</ele><time>2022-03-27T09:35:56.000Z</time></trkpt><trkpt lon="5.735119" lat="51.143842"><ele>24.6</ele><time>2022-03-27T09:35:57.000Z</time></trkpt><trkpt lon="5.735195" lat="51.143887"><ele>24.6</ele><time>2022-03-27T09:35:58.000Z</time></trkpt><trkpt lon="5.735276" lat="51.143937"><ele>24.8</ele><time>2022-03-27T09:35:59.000Z</time></trkpt><trkpt lon="5.735353" lat="51.143983"><ele>24.8</ele><time>2022-03-27T09:36:00.000Z</time></trkpt><trkpt lon="5.735425" lat="51.144032"><ele>24.8</ele><time>2022-03-27T09:36:01.000Z</time></trkpt><trkpt lon="5.735501" lat="51.144082"><ele>24.6</ele><time>2022-03-27T09:36:02.000Z</time></trkpt><trkpt lon="5.735575" lat="51.144128"><ele>24.6</ele><time>2022-03-27T09:36:03.000Z</time></trkpt><trkpt lon="5.735652" lat="51.144174"><ele>24.4</ele><time>2022-03-27T09:36:04.000Z</time></trkpt><trkpt lon="5.735734" lat="51.144216"><ele>24.6</ele><time>2022-03-27T09:36:05.000Z</time></trkpt><trkpt lon="5.735822" lat="51.144255"><ele>24.8</ele><time>2022-03-27T09:36:06.000Z</time></trkpt><trkpt lon="5.735911" lat="51.144292"><ele>24.8</ele><time>2022-03-27T09:36:07.000Z</time></trkpt><trkpt lon="5.736005" lat="51.144324"><ele>25</ele><time>2022-03-27T09:36:08.000Z</time></trkpt><trkpt lon="5.736099" lat="51.144351"><ele>25.2</ele><time>2022-03-27T09:36:09.000Z</time></trkpt><trkpt lon="5.736192" lat="51.144373"><ele>25.4</ele><time>2022-03-27T09:36:10.000Z</time></trkpt><trkpt lon="5.736288" lat="51.144393"><ele>25.4</ele><time>2022-03-27T09:36:11.000Z</time></trkpt><trkpt lon="5.736381" lat="51.144415"><ele>25.4</ele><time>2022-03-27T09:36:12.000Z</time></trkpt><trkpt lon="5.736468" lat="51.144435"><ele>25.4</ele><time>2022-03-27T09:36:13.000Z</time></trkpt><trkpt lon="5.736553" lat="51.144454"><ele>25.4</ele><time>2022-03-27T09:36:14.000Z</time></trkpt><trkpt lon="5.736634" lat="51.144469"><ele>25.2</ele><time>2022-03-27T09:36:15.000Z</time></trkpt><trkpt lon="5.736711" lat="51.144488"><ele>25.2</ele><time>2022-03-27T09:36:16.000Z</time></trkpt><trkpt lon="5.736783" lat="51.144504"><ele>25.4</ele><time>2022-03-27T09:36:17.000Z</time></trkpt><trkpt lon="5.736846" lat="51.144515"><ele>25.4</ele><time>2022-03-27T09:36:18.000Z</time></trkpt><trkpt lon="5.736902" lat="51.144527"><ele>25.6</ele><time>2022-03-27T09:36:19.000Z</time></trkpt><trkpt lon="5.736947" lat="51.144534"><ele>25.8</ele><time>2022-03-27T09:36:20.000Z</time></trkpt><trkpt lon="5.736988" lat="51.144542"><ele>25.8</ele><time>2022-03-27T09:36:21.000Z</time></trkpt><trkpt lon="5.737031" lat="51.14455"><ele>26</ele><time>2022-03-27T09:36:22.000Z</time></trkpt><trkpt lon="5.737075" lat="51.144547"><ele>26</ele><time>2022-03-27T09:36:23.000Z</time></trkpt><trkpt lon="5.737125" lat="51.144525"><ele>26</ele><time>2022-03-27T09:36:24.000Z</time></trkpt><trkpt lon="5.737177" lat="51.144495"><ele>26.2</ele><time>2022-03-27T09:36:25.000Z</time></trkpt><trkpt lon="5.73723" lat="51.144457"><ele>26.2</ele><time>2022-03-27T09:36:26.000Z</time></trkpt><trkpt lon="5.737285" lat="51.144415"><ele>26.2</ele><time>2022-03-27T09:36:27.000Z</time></trkpt><trkpt lon="5.73734" lat="51.14437"><ele>26.2</ele><time>2022-03-27T09:36:28.000Z</time></trkpt><trkpt lon="5.737397" lat="51.144321"><ele>26</ele><time>2022-03-27T09:36:29.000Z</time></trkpt><trkpt lon="5.737454" lat="51.144267"><ele>26</ele><time>2022-03-27T09:36:30.000Z</time></trkpt><trkpt lon="5.737505" lat="51.144215"><ele>26</ele><time>2022-03-27T09:36:31.000Z</time></trkpt><trkpt lon="5.737555" lat="51.144157"><ele>25.8</ele><time>2022-03-27T09:36:32.000Z</time></trkpt><trkpt lon="5.737603" lat="51.144099"><ele>26</ele><time>2022-03-27T09:36:33.000Z</time></trkpt><trkpt lon="5.737648" lat="51.144042"><ele>26</ele><time>2022-03-27T09:36:34.000Z</time></trkpt><trkpt lon="5.737691" lat="51.143989"><ele>26</ele><time>2022-03-27T09:36:35.000Z</time></trkpt><trkpt lon="5.737729" lat="51.143935"><ele>26</ele><time>2022-03-27T09:36:36.000Z</time></trkpt><trkpt lon="5.737771" lat="51.143882"><ele>26</ele><time>2022-03-27T09:36:37.000Z</time></trkpt><trkpt lon="5.737813" lat="51.143829"><ele>25.8</ele><time>2022-03-27T09:36:38.000Z</time></trkpt><trkpt lon="5.73785" lat="51.143782"><ele>25.8</ele><time>2022-03-27T09:36:39.000Z</time></trkpt><trkpt lon="5.737877" lat="51.14374"><ele>25.8</ele><time>2022-03-27T09:36:40.000Z</time></trkpt><trkpt lon="5.7379" lat="51.143702"><ele>25.8</ele><time>2022-03-27T09:36:41.000Z</time></trkpt><trkpt lon="5.737924" lat="51.143664"><ele>25.8</ele><time>2022-03-27T09:36:42.000Z</time></trkpt><trkpt lon="5.737947" lat="51.143633"><ele>25.8</ele><time>2022-03-27T09:36:43.000Z</time></trkpt><trkpt lon="5.737977" lat="51.143605"><ele>26</ele><time>2022-03-27T09:36:44.000Z</time></trkpt><trkpt lon="5.738014" lat="51.143582"><ele>26</ele><time>2022-03-27T09:36:45.000Z</time></trkpt><trkpt lon="5.73806" lat="51.143567"><ele>26</ele><time>2022-03-27T09:36:46.000Z</time></trkpt><trkpt lon="5.738115" lat="51.143566"><ele>26</ele><time>2022-03-27T09:36:47.000Z</time></trkpt><trkpt lon="5.738177" lat="51.143577"><ele>26</ele><time>2022-03-27T09:36:48.000Z</time></trkpt><trkpt lon="5.738249" lat="51.143592"><ele>26</ele><time>2022-03-27T09:36:49.000Z</time></trkpt><trkpt lon="5.738331" lat="51.143607"><ele>25.8</ele><time>2022-03-27T09:36:50.000Z</time></trkpt><trkpt lon="5.738419" lat="51.143626"><ele>25.6</ele><time>2022-03-27T09:36:51.000Z</time></trkpt><trkpt lon="5.738509" lat="51.143649"><ele>25.6</ele><time>2022-03-27T09:36:52.000Z</time></trkpt><trkpt lon="5.738606" lat="51.143672"><ele>25.6</ele><time>2022-03-27T09:36:53.000Z</time></trkpt><trkpt lon="5.738707" lat="51.143695"><ele>25.4</ele><time>2022-03-27T09:36:54.000Z</time></trkpt><trkpt lon="5.738808" lat="51.143714"><ele>25.4</ele><time>2022-03-27T09:36:55.000Z</time></trkpt><trkpt lon="5.738908" lat="51.143736"><ele>25.2</ele><time>2022-03-27T09:36:56.000Z</time></trkpt><trkpt lon="5.739008" lat="51.143756"><ele>25.2</ele><time>2022-03-27T09:36:57.000Z</time></trkpt><trkpt lon="5.739105" lat="51.143768"><ele>25.4</ele><time>2022-03-27T09:36:58.000Z</time></trkpt><trkpt lon="5.739202" lat="51.143783"><ele>25.4</ele><time>2022-03-27T09:36:59.000Z</time></trkpt><trkpt lon="5.7393" lat="51.143794"><ele>25.4</ele><time>2022-03-27T09:37:00.000Z</time></trkpt><trkpt lon="5.739397" lat="51.143799"><ele>25.4</ele><time>2022-03-27T09:37:01.000Z</time></trkpt><trkpt lon="5.739499" lat="51.143806"><ele>25.6</ele><time>2022-03-27T09:37:02.000Z</time></trkpt><trkpt lon="5.739606" lat="51.143817"><ele>25.4</ele><time>2022-03-27T09:37:03.000Z</time></trkpt><trkpt lon="5.739712" lat="51.143825"><ele>25.4</ele><time>2022-03-27T09:37:04.000Z</time></trkpt><trkpt lon="5.739819" lat="51.143833"><ele>25.4</ele><time>2022-03-27T09:37:05.000Z</time></trkpt><trkpt lon="5.739923" lat="51.143844"><ele>25.6</ele><time>2022-03-27T09:37:06.000Z</time></trkpt><trkpt lon="5.740037" lat="51.143852"><ele>25.6</ele><time>2022-03-27T09:37:07.000Z</time></trkpt><trkpt lon="5.740147" lat="51.143859"><ele>25.6</ele><time>2022-03-27T09:37:08.000Z</time></trkpt><trkpt lon="5.740256" lat="51.143871"><ele>25.6</ele><time>2022-03-27T09:37:09.000Z</time></trkpt><trkpt lon="5.740364" lat="51.143879"><ele>25.6</ele><time>2022-03-27T09:37:10.000Z</time></trkpt><trkpt lon="5.740469" lat="51.14389"><ele>25.4</ele><time>2022-03-27T09:37:11.000Z</time></trkpt><trkpt lon="5.740568" lat="51.143901"><ele>25.4</ele><time>2022-03-27T09:37:12.000Z</time></trkpt><trkpt lon="5.740674" lat="51.143913"><ele>25.4</ele><time>2022-03-27T09:37:13.000Z</time></trkpt><trkpt lon="5.740774" lat="51.143928"><ele>25.4</ele><time>2022-03-27T09:37:14.000Z</time></trkpt><trkpt lon="5.740871" lat="51.143939"><ele>25.4</ele><time>2022-03-27T09:37:15.000Z</time></trkpt><trkpt lon="5.740968" lat="51.143951"><ele>25.4</ele><time>2022-03-27T09:37:16.000Z</time></trkpt><trkpt lon="5.741066" lat="51.143962"><ele>25.2</ele><time>2022-03-27T09:37:17.000Z</time></trkpt><trkpt lon="5.741158" lat="51.143974"><ele>25.4</ele><time>2022-03-27T09:37:18.000Z</time></trkpt><trkpt lon="5.741249" lat="51.143985"><ele>25.4</ele><time>2022-03-27T09:37:19.000Z</time></trkpt><trkpt lon="5.741336" lat="51.143996"><ele>25.4</ele><time>2022-03-27T09:37:20.000Z</time></trkpt><trkpt lon="5.741419" lat="51.144004"><ele>25.4</ele><time>2022-03-27T09:37:21.000Z</time></trkpt><trkpt lon="5.741497" lat="51.144016"><ele>25.6</ele><time>2022-03-27T09:37:22.000Z</time></trkpt><trkpt lon="5.741566" lat="51.144027"><ele>25.6</ele><time>2022-03-27T09:37:23.000Z</time></trkpt><trkpt lon="5.741627" lat="51.144042"><ele>25.6</ele><time>2022-03-27T09:37:24.000Z</time></trkpt><trkpt lon="5.741685" lat="51.144057"><ele>25.6</ele><time>2022-03-27T09:37:25.000Z</time></trkpt><trkpt lon="5.741742" lat="51.144076"><ele>25.6</ele><time>2022-03-27T09:37:26.000Z</time></trkpt><trkpt lon="5.7418" lat="51.144099"><ele>25.6</ele><time>2022-03-27T09:37:27.000Z</time></trkpt><trkpt lon="5.741848" lat="51.144132"><ele>25.6</ele><time>2022-03-27T09:37:28.000Z</time></trkpt><trkpt lon="5.741883" lat="51.144174"><ele>25.6</ele><time>2022-03-27T09:37:29.000Z</time></trkpt><trkpt lon="5.741898" lat="51.144215"><ele>25.6</ele><time>2022-03-27T09:37:30.000Z</time></trkpt><trkpt lon="5.7419" lat="51.144265"><ele>25.6</ele><time>2022-03-27T09:37:31.000Z</time></trkpt><trkpt lon="5.741902" lat="51.144318"><ele>25.6</ele><time>2022-03-27T09:37:32.000Z</time></trkpt><trkpt lon="5.741903" lat="51.144379"><ele>25.4</ele><time>2022-03-27T09:37:33.000Z</time></trkpt><trkpt lon="5.7419" lat="51.144437"><ele>25.4</ele><time>2022-03-27T09:37:34.000Z</time></trkpt><trkpt lon="5.741899" lat="51.144493"><ele>25.6</ele><time>2022-03-27T09:37:35.000Z</time></trkpt><trkpt lon="5.741897" lat="51.144551"><ele>25.6</ele><time>2022-03-27T09:37:36.000Z</time></trkpt><trkpt lon="5.741895" lat="51.144605"><ele>25.8</ele><time>2022-03-27T09:37:37.000Z</time></trkpt><trkpt lon="5.741893" lat="51.144662"><ele>25.8</ele><time>2022-03-27T09:37:38.000Z</time></trkpt><trkpt lon="5.741892" lat="51.144719"><ele>26</ele><time>2022-03-27T09:37:39.000Z</time></trkpt><trkpt lon="5.741889" lat="51.144776"><ele>26</ele><time>2022-03-27T09:37:40.000Z</time></trkpt><trkpt lon="5.741887" lat="51.14483"><ele>26</ele><time>2022-03-27T09:37:41.000Z</time></trkpt><trkpt lon="5.741888" lat="51.144883"><ele>26</ele><time>2022-03-27T09:37:42.000Z</time></trkpt><trkpt lon="5.741893" lat="51.144932"><ele>26</ele><time>2022-03-27T09:37:43.000Z</time></trkpt><trkpt lon="5.7419" lat="51.144983"><ele>26</ele><time>2022-03-27T09:37:44.000Z</time></trkpt><trkpt lon="5.741908" lat="51.145033"><ele>26</ele><time>2022-03-27T09:37:45.000Z</time></trkpt><trkpt lon="5.741912" lat="51.145078"><ele>26</ele><time>2022-03-27T09:37:46.000Z</time></trkpt><trkpt lon="5.741904" lat="51.14512"><ele>26</ele><time>2022-03-27T09:37:47.000Z</time></trkpt><trkpt lon="5.741888" lat="51.145162"><ele>26</ele><time>2022-03-27T09:37:48.000Z</time></trkpt><trkpt lon="5.741868" lat="51.1452"><ele>26</ele><time>2022-03-27T09:37:49.000Z</time></trkpt><trkpt lon="5.741849" lat="51.145239"><ele>26</ele><time>2022-03-27T09:37:50.000Z</time></trkpt><trkpt lon="5.741843" lat="51.145273"><ele>26</ele><time>2022-03-27T09:37:51.000Z</time></trkpt><trkpt lon="5.741851" lat="51.1453"><ele>26.2</ele><time>2022-03-27T09:37:52.000Z</time></trkpt><trkpt lon="5.741871" lat="51.145323"><ele>26.2</ele><time>2022-03-27T09:37:53.000Z</time></trkpt><trkpt lon="5.74189" lat="51.145339"><ele>26.2</ele><time>2022-03-27T09:37:54.000Z</time></trkpt><trkpt lon="5.741911" lat="51.145354"><ele>26.4</ele><time>2022-03-27T09:37:55.000Z</time></trkpt><trkpt lon="5.741921" lat="51.145366"><ele>26.4</ele><time>2022-03-27T09:37:56.000Z</time></trkpt><trkpt lon="5.741926" lat="51.145374"><ele>26.4</ele><time>2022-03-27T09:37:57.000Z</time></trkpt><trkpt lon="5.741927" lat="51.145381"><ele>26.6</ele><time>2022-03-27T09:37:58.000Z</time></trkpt><trkpt lon="5.741931" lat="51.145389"><ele>26.6</ele><time>2022-03-27T09:37:59.000Z</time></trkpt><trkpt lon="5.741947" lat="51.145404"><ele>26.6</ele><time>2022-03-27T09:38:00.000Z</time></trkpt><trkpt lon="5.741972" lat="51.145419"><ele>26.6</ele><time>2022-03-27T09:38:01.000Z</time></trkpt><trkpt lon="5.742005" lat="51.145438"><ele>26.6</ele><time>2022-03-27T09:38:02.000Z</time></trkpt><trkpt lon="5.742042" lat="51.14546"><ele>26.6</ele><time>2022-03-27T09:38:03.000Z</time></trkpt><trkpt lon="5.74208" lat="51.145495"><ele>26.4</ele><time>2022-03-27T09:38:04.000Z</time></trkpt><trkpt lon="5.742119" lat="51.145525"><ele>26.4</ele><time>2022-03-27T09:38:05.000Z</time></trkpt><trkpt lon="5.742169" lat="51.145552"><ele>26.4</ele><time>2022-03-27T09:38:06.000Z</time></trkpt><trkpt lon="5.742229" lat="51.145575"><ele>26.4</ele><time>2022-03-27T09:38:07.000Z</time></trkpt><trkpt lon="5.742297" lat="51.145595"><ele>26.2</ele><time>2022-03-27T09:38:08.000Z</time></trkpt><trkpt lon="5.742367" lat="51.145606"><ele>26.4</ele><time>2022-03-27T09:38:09.000Z</time></trkpt><trkpt lon="5.742434" lat="51.145621"><ele>26.4</ele><time>2022-03-27T09:38:10.000Z</time></trkpt></trkseg></trk></gpx>